<?xml version="1.0" encoding="UTF-8" standalone="no" ?>
<gpx xmlns="http://www.topografix.com/GPX/1/1" xmlns:xsi="http://www.w3.org/2001/XMLSchema-instance" xsi:schemaLocation="http://www.topografix.com/GPX/1/1 http://www.topografix.com/GPX/1/1/gpx.xsd" version="1.1" creator="VisuGPX - https://www.visugpx.com">
  <metadata>
    <name>EDSM 2018 60km</name>
    <desc><![CDATA[Randonnées VT organisée par EDSM- 60kms le 14/10/2018]]></desc>
  </metadata>
  <trk>
    <name><![CDATA[EDSM 2018 60km_1]]></name>
    <trkseg>
      <trkpt lat="46.35847" lon="2.62367">
        <ele>258.134429</ele>
        <time>2018-10-14T05:53:02Z</time>
      </trkpt>
      <trkpt lat="46.35847" lon="2.62367">
        <ele>258.125823</ele>
        <time>2018-10-14T05:53:03Z</time>
      </trkpt>
      <trkpt lat="46.35836" lon="2.62353">
        <ele>257</ele>
        <time>2018-10-14T05:53:46Z</time>
      </trkpt>
      <trkpt lat="46.35828" lon="2.62348">
        <ele>256.5</ele>
        <time>2018-10-14T05:53:48Z</time>
      </trkpt>
      <trkpt lat="46.35823" lon="2.62346">
        <ele>256.1</ele>
        <time>2018-10-14T05:53:49Z</time>
      </trkpt>
      <trkpt lat="46.35818" lon="2.62344">
        <ele>255.8</ele>
        <time>2018-10-14T05:53:50Z</time>
      </trkpt>
      <trkpt lat="46.35812" lon="2.62341">
        <ele>255.4</ele>
        <time>2018-10-14T05:53:51Z</time>
      </trkpt>
      <trkpt lat="46.35806" lon="2.62338">
        <ele>255</ele>
        <time>2018-10-14T05:53:52Z</time>
      </trkpt>
      <trkpt lat="46.358" lon="2.62335">
        <ele>254.5</ele>
        <time>2018-10-14T05:53:53Z</time>
      </trkpt>
      <trkpt lat="46.35794" lon="2.62332">
        <ele>254</ele>
        <time>2018-10-14T05:53:54Z</time>
      </trkpt>
      <trkpt lat="46.35789" lon="2.62329">
        <ele>253.4</ele>
        <time>2018-10-14T05:53:55Z</time>
      </trkpt>
      <trkpt lat="46.35782" lon="2.62321">
        <ele>252.3</ele>
        <time>2018-10-14T05:53:57Z</time>
      </trkpt>
      <trkpt lat="46.35785" lon="2.6231">
        <ele>251.3</ele>
        <time>2018-10-14T05:54:00Z</time>
      </trkpt>
      <trkpt lat="46.35789" lon="2.623">
        <ele>250.6</ele>
        <time>2018-10-14T05:54:03Z</time>
      </trkpt>
      <trkpt lat="46.3579" lon="2.62294">
        <ele>250.5</ele>
        <time>2018-10-14T05:54:04Z</time>
      </trkpt>
      <trkpt lat="46.35795" lon="2.62283">
        <ele>250</ele>
        <time>2018-10-14T05:54:06Z</time>
      </trkpt>
      <trkpt lat="46.35797" lon="2.62276">
        <ele>249.6</ele>
        <time>2018-10-14T05:54:07Z</time>
      </trkpt>
      <trkpt lat="46.35798" lon="2.62268">
        <ele>249.2</ele>
        <time>2018-10-14T05:54:08Z</time>
      </trkpt>
      <trkpt lat="46.358" lon="2.6226">
        <ele>248.8</ele>
        <time>2018-10-14T05:54:09Z</time>
      </trkpt>
      <trkpt lat="46.35801" lon="2.62252">
        <ele>248.4</ele>
        <time>2018-10-14T05:54:10Z</time>
      </trkpt>
      <trkpt lat="46.35799" lon="2.62246">
        <ele>247.9</ele>
        <time>2018-10-14T05:54:11Z</time>
      </trkpt>
      <trkpt lat="46.35797" lon="2.62239">
        <ele>247.3</ele>
        <time>2018-10-14T05:54:12Z</time>
      </trkpt>
      <trkpt lat="46.35796" lon="2.62232">
        <ele>246.5</ele>
        <time>2018-10-14T05:54:13Z</time>
      </trkpt>
      <trkpt lat="46.35796" lon="2.62225">
        <ele>245.3</ele>
        <time>2018-10-14T05:54:14Z</time>
      </trkpt>
      <trkpt lat="46.35795" lon="2.62214">
        <ele>243.9</ele>
        <time>2018-10-14T05:54:15Z</time>
      </trkpt>
      <trkpt lat="46.35792" lon="2.62201">
        <ele>242.3</ele>
        <time>2018-10-14T05:54:16Z</time>
      </trkpt>
      <trkpt lat="46.3579" lon="2.62187">
        <ele>240.6</ele>
        <time>2018-10-14T05:54:17Z</time>
      </trkpt>
      <trkpt lat="46.35787" lon="2.62173">
        <ele>239</ele>
        <time>2018-10-14T05:54:18Z</time>
      </trkpt>
      <trkpt lat="46.35786" lon="2.6216">
        <ele>237.5</ele>
        <time>2018-10-14T05:54:19Z</time>
      </trkpt>
      <trkpt lat="46.35785" lon="2.62148">
        <ele>236.3</ele>
        <time>2018-10-14T05:54:20Z</time>
      </trkpt>
      <trkpt lat="46.35785" lon="2.62138">
        <ele>235.2</ele>
        <time>2018-10-14T05:54:21Z</time>
      </trkpt>
      <trkpt lat="46.35785" lon="2.6213">
        <ele>234.3</ele>
        <time>2018-10-14T05:54:22Z</time>
      </trkpt>
      <trkpt lat="46.35781" lon="2.62122">
        <ele>232.8</ele>
        <time>2018-10-14T05:54:24Z</time>
      </trkpt>
      <trkpt lat="46.35772" lon="2.62122">
        <ele>231.2</ele>
        <time>2018-10-14T05:54:26Z</time>
      </trkpt>
      <trkpt lat="46.35767" lon="2.62121">
        <ele>230.5</ele>
        <time>2018-10-14T05:54:27Z</time>
      </trkpt>
      <trkpt lat="46.35762" lon="2.62118">
        <ele>229.9</ele>
        <time>2018-10-14T05:54:28Z</time>
      </trkpt>
      <trkpt lat="46.35756" lon="2.62115">
        <ele>229.5</ele>
        <time>2018-10-14T05:54:29Z</time>
      </trkpt>
      <trkpt lat="46.35751" lon="2.62113">
        <ele>229.2</ele>
        <time>2018-10-14T05:54:30Z</time>
      </trkpt>
      <trkpt lat="46.35746" lon="2.62112">
        <ele>229</ele>
        <time>2018-10-14T05:54:31Z</time>
      </trkpt>
      <trkpt lat="46.35741" lon="2.6211">
        <ele>228.8</ele>
        <time>2018-10-14T05:54:32Z</time>
      </trkpt>
      <trkpt lat="46.35736" lon="2.62109">
        <ele>228.7</ele>
        <time>2018-10-14T05:54:33Z</time>
      </trkpt>
      <trkpt lat="46.35731" lon="2.62107">
        <ele>228.7</ele>
        <time>2018-10-14T05:54:34Z</time>
      </trkpt>
      <trkpt lat="46.35726" lon="2.62104">
        <ele>228.7</ele>
        <time>2018-10-14T05:54:35Z</time>
      </trkpt>
      <trkpt lat="46.35722" lon="2.62101">
        <ele>228.8</ele>
        <time>2018-10-14T05:54:36Z</time>
      </trkpt>
      <trkpt lat="46.35717" lon="2.62098">
        <ele>229</ele>
        <time>2018-10-14T05:54:37Z</time>
      </trkpt>
      <trkpt lat="46.35713" lon="2.62095">
        <ele>229.2</ele>
        <time>2018-10-14T05:54:38Z</time>
      </trkpt>
      <trkpt lat="46.35709" lon="2.6209">
        <ele>229.4</ele>
        <time>2018-10-14T05:54:39Z</time>
      </trkpt>
      <trkpt lat="46.35706" lon="2.62085">
        <ele>229.7</ele>
        <time>2018-10-14T05:54:40Z</time>
      </trkpt>
      <trkpt lat="46.35703" lon="2.6208">
        <ele>230</ele>
        <time>2018-10-14T05:54:41Z</time>
      </trkpt>
      <trkpt lat="46.35697" lon="2.6207">
        <ele>230.7</ele>
        <time>2018-10-14T05:54:43Z</time>
      </trkpt>
      <trkpt lat="46.35691" lon="2.62063">
        <ele>231.4</ele>
        <time>2018-10-14T05:54:45Z</time>
      </trkpt>
      <trkpt lat="46.35685" lon="2.62057">
        <ele>232.4</ele>
        <time>2018-10-14T05:54:47Z</time>
      </trkpt>
      <trkpt lat="46.35678" lon="2.62051">
        <ele>233.3</ele>
        <time>2018-10-14T05:54:49Z</time>
      </trkpt>
      <trkpt lat="46.35672" lon="2.62045">
        <ele>234.1</ele>
        <time>2018-10-14T05:54:51Z</time>
      </trkpt>
      <trkpt lat="46.35666" lon="2.62039">
        <ele>235</ele>
        <time>2018-10-14T05:54:53Z</time>
      </trkpt>
      <trkpt lat="46.35659" lon="2.62035">
        <ele>235.9</ele>
        <time>2018-10-14T05:54:55Z</time>
      </trkpt>
      <trkpt lat="46.35652" lon="2.62031">
        <ele>236.7</ele>
        <time>2018-10-14T05:54:57Z</time>
      </trkpt>
      <trkpt lat="46.35645" lon="2.62028">
        <ele>237.3</ele>
        <time>2018-10-14T05:54:59Z</time>
      </trkpt>
      <trkpt lat="46.35638" lon="2.62025">
        <ele>237.8</ele>
        <time>2018-10-14T05:55:01Z</time>
      </trkpt>
      <trkpt lat="46.35632" lon="2.62021">
        <ele>238.3</ele>
        <time>2018-10-14T05:55:03Z</time>
      </trkpt>
      <trkpt lat="46.35627" lon="2.62015">
        <ele>238.8</ele>
        <time>2018-10-14T05:55:05Z</time>
      </trkpt>
      <trkpt lat="46.35624" lon="2.62011">
        <ele>239.2</ele>
        <time>2018-10-14T05:55:06Z</time>
      </trkpt>
      <trkpt lat="46.35616" lon="2.61998">
        <ele>240.4</ele>
        <time>2018-10-14T05:55:09Z</time>
      </trkpt>
      <trkpt lat="46.35611" lon="2.61988">
        <ele>241</ele>
        <time>2018-10-14T05:55:11Z</time>
      </trkpt>
      <trkpt lat="46.35607" lon="2.61978">
        <ele>241.6</ele>
        <time>2018-10-14T05:55:13Z</time>
      </trkpt>
      <trkpt lat="46.35604" lon="2.61966">
        <ele>242.3</ele>
        <time>2018-10-14T05:55:15Z</time>
      </trkpt>
      <trkpt lat="46.35602" lon="2.61961">
        <ele>242.5</ele>
        <time>2018-10-14T05:55:16Z</time>
      </trkpt>
      <trkpt lat="46.35598" lon="2.61956">
        <ele>242.8</ele>
        <time>2018-10-14T05:55:17Z</time>
      </trkpt>
      <trkpt lat="46.35591" lon="2.61949">
        <ele>243.4</ele>
        <time>2018-10-14T05:55:19Z</time>
      </trkpt>
      <trkpt lat="46.35586" lon="2.61943">
        <ele>243.9</ele>
        <time>2018-10-14T05:55:21Z</time>
      </trkpt>
      <trkpt lat="46.35586" lon="2.61931">
        <ele>244.4</ele>
        <time>2018-10-14T05:55:24Z</time>
      </trkpt>
      <trkpt lat="46.35588" lon="2.61923">
        <ele>244.5</ele>
        <time>2018-10-14T05:55:26Z</time>
      </trkpt>
      <trkpt lat="46.35591" lon="2.61913">
        <ele>244.5</ele>
        <time>2018-10-14T05:55:28Z</time>
      </trkpt>
      <trkpt lat="46.35593" lon="2.61904">
        <ele>244.6</ele>
        <time>2018-10-14T05:55:30Z</time>
      </trkpt>
      <trkpt lat="46.35596" lon="2.61895">
        <ele>244.7</ele>
        <time>2018-10-14T05:55:32Z</time>
      </trkpt>
      <trkpt lat="46.356" lon="2.61885">
        <ele>244.7</ele>
        <time>2018-10-14T05:55:34Z</time>
      </trkpt>
      <trkpt lat="46.35603" lon="2.61875">
        <ele>244.5</ele>
        <time>2018-10-14T05:55:36Z</time>
      </trkpt>
      <trkpt lat="46.35605" lon="2.61864">
        <ele>244.3</ele>
        <time>2018-10-14T05:55:38Z</time>
      </trkpt>
      <trkpt lat="46.35602" lon="2.61854">
        <ele>244.5</ele>
        <time>2018-10-14T05:55:40Z</time>
      </trkpt>
      <trkpt lat="46.35595" lon="2.61847">
        <ele>244.9</ele>
        <time>2018-10-14T05:55:42Z</time>
      </trkpt>
      <trkpt lat="46.35589" lon="2.61843">
        <ele>245.5</ele>
        <time>2018-10-14T05:55:44Z</time>
      </trkpt>
      <trkpt lat="46.35582" lon="2.61839">
        <ele>246.1</ele>
        <time>2018-10-14T05:55:46Z</time>
      </trkpt>
      <trkpt lat="46.35574" lon="2.61836">
        <ele>246.5</ele>
        <time>2018-10-14T05:55:48Z</time>
      </trkpt>
      <trkpt lat="46.35567" lon="2.61832">
        <ele>246.7</ele>
        <time>2018-10-14T05:55:50Z</time>
      </trkpt>
      <trkpt lat="46.3556" lon="2.61828">
        <ele>247</ele>
        <time>2018-10-14T05:55:52Z</time>
      </trkpt>
      <trkpt lat="46.35553" lon="2.61824">
        <ele>247.2</ele>
        <time>2018-10-14T05:55:54Z</time>
      </trkpt>
      <trkpt lat="46.35546" lon="2.61819">
        <ele>247.3</ele>
        <time>2018-10-14T05:55:56Z</time>
      </trkpt>
      <trkpt lat="46.35539" lon="2.61814">
        <ele>247.5</ele>
        <time>2018-10-14T05:55:58Z</time>
      </trkpt>
      <trkpt lat="46.35532" lon="2.61807">
        <ele>247.7</ele>
        <time>2018-10-14T05:56:00Z</time>
      </trkpt>
      <trkpt lat="46.35525" lon="2.618">
        <ele>247.9</ele>
        <time>2018-10-14T05:56:02Z</time>
      </trkpt>
      <trkpt lat="46.35518" lon="2.61793">
        <ele>248.1</ele>
        <time>2018-10-14T05:56:04Z</time>
      </trkpt>
      <trkpt lat="46.35511" lon="2.61786">
        <ele>248.2</ele>
        <time>2018-10-14T05:56:06Z</time>
      </trkpt>
      <trkpt lat="46.35508" lon="2.61782">
        <ele>248.1</ele>
        <time>2018-10-14T05:56:07Z</time>
      </trkpt>
      <trkpt lat="46.35501" lon="2.61772">
        <ele>247.8</ele>
        <time>2018-10-14T05:56:09Z</time>
      </trkpt>
      <trkpt lat="46.35499" lon="2.61766">
        <ele>247.6</ele>
        <time>2018-10-14T05:56:10Z</time>
      </trkpt>
      <trkpt lat="46.35499" lon="2.61759">
        <ele>247.4</ele>
        <time>2018-10-14T05:56:11Z</time>
      </trkpt>
      <trkpt lat="46.355" lon="2.61752">
        <ele>247.3</ele>
        <time>2018-10-14T05:56:12Z</time>
      </trkpt>
      <trkpt lat="46.35502" lon="2.61745">
        <ele>247.1</ele>
        <time>2018-10-14T05:56:13Z</time>
      </trkpt>
      <trkpt lat="46.35504" lon="2.61738">
        <ele>246.9</ele>
        <time>2018-10-14T05:56:14Z</time>
      </trkpt>
      <trkpt lat="46.35506" lon="2.61731">
        <ele>246.7</ele>
        <time>2018-10-14T05:56:15Z</time>
      </trkpt>
      <trkpt lat="46.35508" lon="2.61725">
        <ele>246.6</ele>
        <time>2018-10-14T05:56:16Z</time>
      </trkpt>
      <trkpt lat="46.35511" lon="2.61718">
        <ele>246.4</ele>
        <time>2018-10-14T05:56:17Z</time>
      </trkpt>
      <trkpt lat="46.35513" lon="2.61712">
        <ele>246.3</ele>
        <time>2018-10-14T05:56:18Z</time>
      </trkpt>
      <trkpt lat="46.35515" lon="2.61705">
        <ele>246.2</ele>
        <time>2018-10-14T05:56:19Z</time>
      </trkpt>
      <trkpt lat="46.35517" lon="2.61699">
        <ele>246.1</ele>
        <time>2018-10-14T05:56:20Z</time>
      </trkpt>
      <trkpt lat="46.35519" lon="2.61692">
        <ele>245.9</ele>
        <time>2018-10-14T05:56:21Z</time>
      </trkpt>
      <trkpt lat="46.35522" lon="2.61681">
        <ele>245.1</ele>
        <time>2018-10-14T05:56:23Z</time>
      </trkpt>
      <trkpt lat="46.35527" lon="2.61669">
        <ele>244</ele>
        <time>2018-10-14T05:56:25Z</time>
      </trkpt>
      <trkpt lat="46.35529" lon="2.61663">
        <ele>243.6</ele>
        <time>2018-10-14T05:56:26Z</time>
      </trkpt>
      <trkpt lat="46.35531" lon="2.61657">
        <ele>243.3</ele>
        <time>2018-10-14T05:56:27Z</time>
      </trkpt>
      <trkpt lat="46.35533" lon="2.61651">
        <ele>243.1</ele>
        <time>2018-10-14T05:56:28Z</time>
      </trkpt>
      <trkpt lat="46.35535" lon="2.61644">
        <ele>243</ele>
        <time>2018-10-14T05:56:29Z</time>
      </trkpt>
      <trkpt lat="46.35537" lon="2.61638">
        <ele>242.8</ele>
        <time>2018-10-14T05:56:30Z</time>
      </trkpt>
      <trkpt lat="46.35539" lon="2.61632">
        <ele>242.7</ele>
        <time>2018-10-14T05:56:31Z</time>
      </trkpt>
      <trkpt lat="46.35541" lon="2.61626">
        <ele>242.7</ele>
        <time>2018-10-14T05:56:32Z</time>
      </trkpt>
      <trkpt lat="46.35543" lon="2.6162">
        <ele>242.6</ele>
        <time>2018-10-14T05:56:33Z</time>
      </trkpt>
      <trkpt lat="46.35544" lon="2.61614">
        <ele>242.6</ele>
        <time>2018-10-14T05:56:34Z</time>
      </trkpt>
      <trkpt lat="46.35547" lon="2.61607">
        <ele>242.5</ele>
        <time>2018-10-14T05:56:35Z</time>
      </trkpt>
      <trkpt lat="46.35549" lon="2.61599">
        <ele>242.4</ele>
        <time>2018-10-14T05:56:36Z</time>
      </trkpt>
      <trkpt lat="46.35552" lon="2.61591">
        <ele>242.3</ele>
        <time>2018-10-14T05:56:37Z</time>
      </trkpt>
      <trkpt lat="46.35554" lon="2.61582">
        <ele>242.2</ele>
        <time>2018-10-14T05:56:38Z</time>
      </trkpt>
      <trkpt lat="46.35557" lon="2.61574">
        <ele>242.1</ele>
        <time>2018-10-14T05:56:39Z</time>
      </trkpt>
      <trkpt lat="46.3556" lon="2.61566">
        <ele>242</ele>
        <time>2018-10-14T05:56:40Z</time>
      </trkpt>
      <trkpt lat="46.35563" lon="2.61557">
        <ele>241.9</ele>
        <time>2018-10-14T05:56:41Z</time>
      </trkpt>
      <trkpt lat="46.35565" lon="2.61549">
        <ele>241.8</ele>
        <time>2018-10-14T05:56:42Z</time>
      </trkpt>
      <trkpt lat="46.35564" lon="2.61539">
        <ele>241.7</ele>
        <time>2018-10-14T05:56:43Z</time>
      </trkpt>
      <trkpt lat="46.35562" lon="2.61531">
        <ele>241.6</ele>
        <time>2018-10-14T05:56:44Z</time>
      </trkpt>
      <trkpt lat="46.35557" lon="2.61525">
        <ele>241.4</ele>
        <time>2018-10-14T05:56:45Z</time>
      </trkpt>
      <trkpt lat="46.35551" lon="2.61521">
        <ele>241.2</ele>
        <time>2018-10-14T05:56:46Z</time>
      </trkpt>
      <trkpt lat="46.35546" lon="2.61517">
        <ele>240.9</ele>
        <time>2018-10-14T05:56:47Z</time>
      </trkpt>
      <trkpt lat="46.35539" lon="2.61512">
        <ele>240.7</ele>
        <time>2018-10-14T05:56:48Z</time>
      </trkpt>
      <trkpt lat="46.35533" lon="2.61508">
        <ele>240.4</ele>
        <time>2018-10-14T05:56:49Z</time>
      </trkpt>
      <trkpt lat="46.35526" lon="2.61504">
        <ele>240.1</ele>
        <time>2018-10-14T05:56:50Z</time>
      </trkpt>
      <trkpt lat="46.3552" lon="2.61499">
        <ele>239.9</ele>
        <time>2018-10-14T05:56:51Z</time>
      </trkpt>
      <trkpt lat="46.35512" lon="2.61494">
        <ele>239.5</ele>
        <time>2018-10-14T05:56:52Z</time>
      </trkpt>
      <trkpt lat="46.35505" lon="2.61489">
        <ele>239.2</ele>
        <time>2018-10-14T05:56:53Z</time>
      </trkpt>
      <trkpt lat="46.35497" lon="2.61484">
        <ele>238.8</ele>
        <time>2018-10-14T05:56:54Z</time>
      </trkpt>
      <trkpt lat="46.35489" lon="2.61478">
        <ele>238.4</ele>
        <time>2018-10-14T05:56:55Z</time>
      </trkpt>
      <trkpt lat="46.3548" lon="2.61472">
        <ele>237.9</ele>
        <time>2018-10-14T05:56:56Z</time>
      </trkpt>
      <trkpt lat="46.35471" lon="2.61467">
        <ele>237.4</ele>
        <time>2018-10-14T05:56:57Z</time>
      </trkpt>
      <trkpt lat="46.35462" lon="2.61461">
        <ele>236.9</ele>
        <time>2018-10-14T05:56:58Z</time>
      </trkpt>
      <trkpt lat="46.35453" lon="2.61455">
        <ele>236.4</ele>
        <time>2018-10-14T05:56:59Z</time>
      </trkpt>
      <trkpt lat="46.35443" lon="2.61448">
        <ele>235.8</ele>
        <time>2018-10-14T05:57:00Z</time>
      </trkpt>
      <trkpt lat="46.35433" lon="2.61442">
        <ele>235.2</ele>
        <time>2018-10-14T05:57:01Z</time>
      </trkpt>
      <trkpt lat="46.35423" lon="2.61435">
        <ele>234.6</ele>
        <time>2018-10-14T05:57:02Z</time>
      </trkpt>
      <trkpt lat="46.35413" lon="2.61429">
        <ele>234</ele>
        <time>2018-10-14T05:57:03Z</time>
      </trkpt>
      <trkpt lat="46.35403" lon="2.61422">
        <ele>233.5</ele>
        <time>2018-10-14T05:57:04Z</time>
      </trkpt>
      <trkpt lat="46.35392" lon="2.61415">
        <ele>233</ele>
        <time>2018-10-14T05:57:05Z</time>
      </trkpt>
      <trkpt lat="46.35382" lon="2.61409">
        <ele>232.6</ele>
        <time>2018-10-14T05:57:06Z</time>
      </trkpt>
      <trkpt lat="46.35372" lon="2.61403">
        <ele>232.4</ele>
        <time>2018-10-14T05:57:07Z</time>
      </trkpt>
      <trkpt lat="46.35362" lon="2.61397">
        <ele>232.3</ele>
        <time>2018-10-14T05:57:08Z</time>
      </trkpt>
      <trkpt lat="46.35353" lon="2.61391">
        <ele>232.3</ele>
        <time>2018-10-14T05:57:09Z</time>
      </trkpt>
      <trkpt lat="46.35345" lon="2.61385">
        <ele>232.4</ele>
        <time>2018-10-14T05:57:10Z</time>
      </trkpt>
      <trkpt lat="46.35336" lon="2.6138">
        <ele>232.6</ele>
        <time>2018-10-14T05:57:11Z</time>
      </trkpt>
      <trkpt lat="46.35329" lon="2.61375">
        <ele>232.8</ele>
        <time>2018-10-14T05:57:12Z</time>
      </trkpt>
      <trkpt lat="46.35321" lon="2.6137">
        <ele>233.1</ele>
        <time>2018-10-14T05:57:13Z</time>
      </trkpt>
      <trkpt lat="46.35314" lon="2.61365">
        <ele>233.4</ele>
        <time>2018-10-14T05:57:14Z</time>
      </trkpt>
      <trkpt lat="46.35308" lon="2.61361">
        <ele>233.7</ele>
        <time>2018-10-14T05:57:15Z</time>
      </trkpt>
      <trkpt lat="46.35302" lon="2.61356">
        <ele>234</ele>
        <time>2018-10-14T05:57:16Z</time>
      </trkpt>
      <trkpt lat="46.35296" lon="2.61352">
        <ele>234.3</ele>
        <time>2018-10-14T05:57:17Z</time>
      </trkpt>
      <trkpt lat="46.3529" lon="2.61348">
        <ele>234.6</ele>
        <time>2018-10-14T05:57:18Z</time>
      </trkpt>
      <trkpt lat="46.35283" lon="2.61344">
        <ele>234.9</ele>
        <time>2018-10-14T05:57:19Z</time>
      </trkpt>
      <trkpt lat="46.35277" lon="2.6134">
        <ele>235.1</ele>
        <time>2018-10-14T05:57:20Z</time>
      </trkpt>
      <trkpt lat="46.35272" lon="2.61336">
        <ele>235.3</ele>
        <time>2018-10-14T05:57:21Z</time>
      </trkpt>
      <trkpt lat="46.35266" lon="2.61332">
        <ele>235.6</ele>
        <time>2018-10-14T05:57:22Z</time>
      </trkpt>
      <trkpt lat="46.35261" lon="2.61329">
        <ele>235.8</ele>
        <time>2018-10-14T05:57:23Z</time>
      </trkpt>
      <trkpt lat="46.35258" lon="2.61323">
        <ele>235.9</ele>
        <time>2018-10-14T05:57:24Z</time>
      </trkpt>
      <trkpt lat="46.35259" lon="2.6131">
        <ele>236.1</ele>
        <time>2018-10-14T05:57:26Z</time>
      </trkpt>
      <trkpt lat="46.3526" lon="2.61304">
        <ele>236.2</ele>
        <time>2018-10-14T05:57:27Z</time>
      </trkpt>
      <trkpt lat="46.35263" lon="2.61298">
        <ele>236.2</ele>
        <time>2018-10-14T05:57:28Z</time>
      </trkpt>
      <trkpt lat="46.35265" lon="2.61292">
        <ele>236.1</ele>
        <time>2018-10-14T05:57:29Z</time>
      </trkpt>
      <trkpt lat="46.35266" lon="2.61285">
        <ele>235.9</ele>
        <time>2018-10-14T05:57:30Z</time>
      </trkpt>
      <trkpt lat="46.35269" lon="2.61279">
        <ele>235.6</ele>
        <time>2018-10-14T05:57:31Z</time>
      </trkpt>
      <trkpt lat="46.3527" lon="2.61273">
        <ele>235.4</ele>
        <time>2018-10-14T05:57:32Z</time>
      </trkpt>
      <trkpt lat="46.35272" lon="2.61266">
        <ele>235.1</ele>
        <time>2018-10-14T05:57:33Z</time>
      </trkpt>
      <trkpt lat="46.35274" lon="2.6126">
        <ele>234.8</ele>
        <time>2018-10-14T05:57:34Z</time>
      </trkpt>
      <trkpt lat="46.35276" lon="2.61254">
        <ele>234.5</ele>
        <time>2018-10-14T05:57:35Z</time>
      </trkpt>
      <trkpt lat="46.35278" lon="2.61247">
        <ele>234.2</ele>
        <time>2018-10-14T05:57:36Z</time>
      </trkpt>
      <trkpt lat="46.3528" lon="2.61241">
        <ele>233.8</ele>
        <time>2018-10-14T05:57:37Z</time>
      </trkpt>
      <trkpt lat="46.35282" lon="2.61234">
        <ele>233.4</ele>
        <time>2018-10-14T05:57:38Z</time>
      </trkpt>
      <trkpt lat="46.35284" lon="2.61227">
        <ele>233</ele>
        <time>2018-10-14T05:57:39Z</time>
      </trkpt>
      <trkpt lat="46.35286" lon="2.6122">
        <ele>232.7</ele>
        <time>2018-10-14T05:57:40Z</time>
      </trkpt>
      <trkpt lat="46.35289" lon="2.61213">
        <ele>232.3</ele>
        <time>2018-10-14T05:57:41Z</time>
      </trkpt>
      <trkpt lat="46.35291" lon="2.61206">
        <ele>231.8</ele>
        <time>2018-10-14T05:57:42Z</time>
      </trkpt>
      <trkpt lat="46.35293" lon="2.61199">
        <ele>231.4</ele>
        <time>2018-10-14T05:57:43Z</time>
      </trkpt>
      <trkpt lat="46.35296" lon="2.61192">
        <ele>231</ele>
        <time>2018-10-14T05:57:44Z</time>
      </trkpt>
      <trkpt lat="46.35298" lon="2.61184">
        <ele>230.5</ele>
        <time>2018-10-14T05:57:45Z</time>
      </trkpt>
      <trkpt lat="46.35301" lon="2.61177">
        <ele>230.1</ele>
        <time>2018-10-14T05:57:46Z</time>
      </trkpt>
      <trkpt lat="46.35303" lon="2.61169">
        <ele>229.7</ele>
        <time>2018-10-14T05:57:47Z</time>
      </trkpt>
      <trkpt lat="46.35306" lon="2.6116">
        <ele>229.2</ele>
        <time>2018-10-14T05:57:48Z</time>
      </trkpt>
      <trkpt lat="46.35308" lon="2.61151">
        <ele>228.8</ele>
        <time>2018-10-14T05:57:49Z</time>
      </trkpt>
      <trkpt lat="46.35311" lon="2.61142">
        <ele>228.2</ele>
        <time>2018-10-14T05:57:50Z</time>
      </trkpt>
      <trkpt lat="46.35314" lon="2.61132">
        <ele>227.5</ele>
        <time>2018-10-14T05:57:51Z</time>
      </trkpt>
      <trkpt lat="46.35318" lon="2.61122">
        <ele>226.7</ele>
        <time>2018-10-14T05:57:52Z</time>
      </trkpt>
      <trkpt lat="46.35322" lon="2.61112">
        <ele>225.7</ele>
        <time>2018-10-14T05:57:53Z</time>
      </trkpt>
      <trkpt lat="46.35326" lon="2.61102">
        <ele>224.6</ele>
        <time>2018-10-14T05:57:54Z</time>
      </trkpt>
      <trkpt lat="46.3533" lon="2.61092">
        <ele>223.4</ele>
        <time>2018-10-14T05:57:55Z</time>
      </trkpt>
      <trkpt lat="46.35334" lon="2.61081">
        <ele>222</ele>
        <time>2018-10-14T05:57:56Z</time>
      </trkpt>
      <trkpt lat="46.35337" lon="2.6107">
        <ele>220.6</ele>
        <time>2018-10-14T05:57:57Z</time>
      </trkpt>
      <trkpt lat="46.3534" lon="2.6106">
        <ele>219.1</ele>
        <time>2018-10-14T05:57:58Z</time>
      </trkpt>
      <trkpt lat="46.35343" lon="2.61051">
        <ele>217.5</ele>
        <time>2018-10-14T05:57:59Z</time>
      </trkpt>
      <trkpt lat="46.35345" lon="2.61042">
        <ele>216</ele>
        <time>2018-10-14T05:58:00Z</time>
      </trkpt>
      <trkpt lat="46.35347" lon="2.61029">
        <ele>212.8</ele>
        <time>2018-10-14T05:58:03Z</time>
      </trkpt>
      <trkpt lat="46.35348" lon="2.61019">
        <ele>210.6</ele>
        <time>2018-10-14T05:58:08Z</time>
      </trkpt>
      <trkpt lat="46.35348" lon="2.61015">
        <ele>210.3</ele>
        <time>2018-10-14T05:58:09Z</time>
      </trkpt>
      <trkpt lat="46.35347" lon="2.61">
        <ele>210.2</ele>
        <time>2018-10-14T05:58:12Z</time>
      </trkpt>
      <trkpt lat="46.35347" lon="2.60989">
        <ele>210.6</ele>
        <time>2018-10-14T05:58:15Z</time>
      </trkpt>
      <trkpt lat="46.35347" lon="2.60976">
        <ele>211.4</ele>
        <time>2018-10-14T05:58:20Z</time>
      </trkpt>
      <trkpt lat="46.35346" lon="2.60967">
        <ele>211.8</ele>
        <time>2018-10-14T05:58:22Z</time>
      </trkpt>
      <trkpt lat="46.35346" lon="2.60957">
        <ele>212.2</ele>
        <time>2018-10-14T05:58:24Z</time>
      </trkpt>
      <trkpt lat="46.35345" lon="2.60944">
        <ele>212.8</ele>
        <time>2018-10-14T05:58:31Z</time>
      </trkpt>
      <trkpt lat="46.35348" lon="2.60935">
        <ele>212.7</ele>
        <time>2018-10-14T05:58:33Z</time>
      </trkpt>
      <trkpt lat="46.35351" lon="2.6093">
        <ele>212.6</ele>
        <time>2018-10-14T05:58:34Z</time>
      </trkpt>
      <trkpt lat="46.35355" lon="2.60925">
        <ele>212.5</ele>
        <time>2018-10-14T05:58:35Z</time>
      </trkpt>
      <trkpt lat="46.3536" lon="2.60919">
        <ele>212.4</ele>
        <time>2018-10-14T05:58:36Z</time>
      </trkpt>
      <trkpt lat="46.35366" lon="2.60914">
        <ele>212.4</ele>
        <time>2018-10-14T05:58:37Z</time>
      </trkpt>
      <trkpt lat="46.35372" lon="2.6091">
        <ele>212.4</ele>
        <time>2018-10-14T05:58:38Z</time>
      </trkpt>
      <trkpt lat="46.35379" lon="2.60908">
        <ele>212.5</ele>
        <time>2018-10-14T05:58:39Z</time>
      </trkpt>
      <trkpt lat="46.35387" lon="2.60907">
        <ele>212.7</ele>
        <time>2018-10-14T05:58:40Z</time>
      </trkpt>
      <trkpt lat="46.35394" lon="2.60907">
        <ele>212.8</ele>
        <time>2018-10-14T05:58:41Z</time>
      </trkpt>
      <trkpt lat="46.35402" lon="2.60908">
        <ele>213</ele>
        <time>2018-10-14T05:58:42Z</time>
      </trkpt>
      <trkpt lat="46.35409" lon="2.60909">
        <ele>213.2</ele>
        <time>2018-10-14T05:58:43Z</time>
      </trkpt>
      <trkpt lat="46.35416" lon="2.6091">
        <ele>213.4</ele>
        <time>2018-10-14T05:58:44Z</time>
      </trkpt>
      <trkpt lat="46.35423" lon="2.60911">
        <ele>213.6</ele>
        <time>2018-10-14T05:58:45Z</time>
      </trkpt>
      <trkpt lat="46.3543" lon="2.60913">
        <ele>213.7</ele>
        <time>2018-10-14T05:58:46Z</time>
      </trkpt>
      <trkpt lat="46.35436" lon="2.60913">
        <ele>213.9</ele>
        <time>2018-10-14T05:58:47Z</time>
      </trkpt>
      <trkpt lat="46.35443" lon="2.60914">
        <ele>214</ele>
        <time>2018-10-14T05:58:48Z</time>
      </trkpt>
      <trkpt lat="46.35449" lon="2.60914">
        <ele>214.1</ele>
        <time>2018-10-14T05:58:49Z</time>
      </trkpt>
      <trkpt lat="46.35455" lon="2.60913">
        <ele>214.2</ele>
        <time>2018-10-14T05:58:50Z</time>
      </trkpt>
      <trkpt lat="46.3546" lon="2.60912">
        <ele>214.3</ele>
        <time>2018-10-14T05:58:51Z</time>
      </trkpt>
      <trkpt lat="46.35466" lon="2.60911">
        <ele>214.3</ele>
        <time>2018-10-14T05:58:52Z</time>
      </trkpt>
      <trkpt lat="46.35471" lon="2.60909">
        <ele>214.3</ele>
        <time>2018-10-14T05:58:53Z</time>
      </trkpt>
      <trkpt lat="46.35476" lon="2.60907">
        <ele>214.2</ele>
        <time>2018-10-14T05:58:54Z</time>
      </trkpt>
      <trkpt lat="46.35481" lon="2.60905">
        <ele>214.2</ele>
        <time>2018-10-14T05:58:55Z</time>
      </trkpt>
      <trkpt lat="46.35485" lon="2.60902">
        <ele>214.1</ele>
        <time>2018-10-14T05:58:56Z</time>
      </trkpt>
      <trkpt lat="46.3549" lon="2.60899">
        <ele>213.9</ele>
        <time>2018-10-14T05:58:57Z</time>
      </trkpt>
      <trkpt lat="46.35494" lon="2.60896">
        <ele>213.8</ele>
        <time>2018-10-14T05:58:58Z</time>
      </trkpt>
      <trkpt lat="46.35498" lon="2.60892">
        <ele>213.6</ele>
        <time>2018-10-14T05:58:59Z</time>
      </trkpt>
      <trkpt lat="46.35502" lon="2.60888">
        <ele>213.5</ele>
        <time>2018-10-14T05:59:00Z</time>
      </trkpt>
      <trkpt lat="46.35506" lon="2.60884">
        <ele>213.4</ele>
        <time>2018-10-14T05:59:01Z</time>
      </trkpt>
      <trkpt lat="46.35509" lon="2.6088">
        <ele>213.2</ele>
        <time>2018-10-14T05:59:02Z</time>
      </trkpt>
      <trkpt lat="46.35513" lon="2.60875">
        <ele>213.1</ele>
        <time>2018-10-14T05:59:03Z</time>
      </trkpt>
      <trkpt lat="46.35517" lon="2.60871">
        <ele>213</ele>
        <time>2018-10-14T05:59:04Z</time>
      </trkpt>
      <trkpt lat="46.3552" lon="2.60867">
        <ele>212.9</ele>
        <time>2018-10-14T05:59:05Z</time>
      </trkpt>
      <trkpt lat="46.35524" lon="2.60862">
        <ele>212.7</ele>
        <time>2018-10-14T05:59:06Z</time>
      </trkpt>
      <trkpt lat="46.35527" lon="2.60858">
        <ele>212.6</ele>
        <time>2018-10-14T05:59:07Z</time>
      </trkpt>
      <trkpt lat="46.35531" lon="2.60854">
        <ele>212.3</ele>
        <time>2018-10-14T05:59:08Z</time>
      </trkpt>
      <trkpt lat="46.35535" lon="2.60849">
        <ele>212.1</ele>
        <time>2018-10-14T05:59:09Z</time>
      </trkpt>
      <trkpt lat="46.35539" lon="2.60845">
        <ele>211.8</ele>
        <time>2018-10-14T05:59:10Z</time>
      </trkpt>
      <trkpt lat="46.35542" lon="2.60841">
        <ele>211.6</ele>
        <time>2018-10-14T05:59:11Z</time>
      </trkpt>
      <trkpt lat="46.35546" lon="2.60836">
        <ele>211.3</ele>
        <time>2018-10-14T05:59:12Z</time>
      </trkpt>
      <trkpt lat="46.3555" lon="2.60832">
        <ele>211</ele>
        <time>2018-10-14T05:59:13Z</time>
      </trkpt>
      <trkpt lat="46.35554" lon="2.60828">
        <ele>210.7</ele>
        <time>2018-10-14T05:59:14Z</time>
      </trkpt>
      <trkpt lat="46.35558" lon="2.60823">
        <ele>210.4</ele>
        <time>2018-10-14T05:59:15Z</time>
      </trkpt>
      <trkpt lat="46.35561" lon="2.60819">
        <ele>210.2</ele>
        <time>2018-10-14T05:59:16Z</time>
      </trkpt>
      <trkpt lat="46.35565" lon="2.60815">
        <ele>209.9</ele>
        <time>2018-10-14T05:59:17Z</time>
      </trkpt>
      <trkpt lat="46.35569" lon="2.6081">
        <ele>209.7</ele>
        <time>2018-10-14T05:59:18Z</time>
      </trkpt>
      <trkpt lat="46.35573" lon="2.60806">
        <ele>209.4</ele>
        <time>2018-10-14T05:59:19Z</time>
      </trkpt>
      <trkpt lat="46.35577" lon="2.60801">
        <ele>209.2</ele>
        <time>2018-10-14T05:59:20Z</time>
      </trkpt>
      <trkpt lat="46.3558" lon="2.60797">
        <ele>208.9</ele>
        <time>2018-10-14T05:59:21Z</time>
      </trkpt>
      <trkpt lat="46.35584" lon="2.60793">
        <ele>208.7</ele>
        <time>2018-10-14T05:59:22Z</time>
      </trkpt>
      <trkpt lat="46.35588" lon="2.60789">
        <ele>208.4</ele>
        <time>2018-10-14T05:59:23Z</time>
      </trkpt>
      <trkpt lat="46.35592" lon="2.60785">
        <ele>208.2</ele>
        <time>2018-10-14T05:59:24Z</time>
      </trkpt>
      <trkpt lat="46.35596" lon="2.60781">
        <ele>208</ele>
        <time>2018-10-14T05:59:25Z</time>
      </trkpt>
      <trkpt lat="46.356" lon="2.60777">
        <ele>207.7</ele>
        <time>2018-10-14T05:59:26Z</time>
      </trkpt>
      <trkpt lat="46.35604" lon="2.60773">
        <ele>207.5</ele>
        <time>2018-10-14T05:59:27Z</time>
      </trkpt>
      <trkpt lat="46.35609" lon="2.6077">
        <ele>207.3</ele>
        <time>2018-10-14T05:59:28Z</time>
      </trkpt>
      <trkpt lat="46.35613" lon="2.60766">
        <ele>207.2</ele>
        <time>2018-10-14T05:59:29Z</time>
      </trkpt>
      <trkpt lat="46.35617" lon="2.60763">
        <ele>207</ele>
        <time>2018-10-14T05:59:30Z</time>
      </trkpt>
      <trkpt lat="46.35622" lon="2.6076">
        <ele>206.9</ele>
        <time>2018-10-14T05:59:31Z</time>
      </trkpt>
      <trkpt lat="46.35626" lon="2.60757">
        <ele>206.8</ele>
        <time>2018-10-14T05:59:32Z</time>
      </trkpt>
      <trkpt lat="46.35631" lon="2.60754">
        <ele>206.6</ele>
        <time>2018-10-14T05:59:33Z</time>
      </trkpt>
      <trkpt lat="46.35635" lon="2.60751">
        <ele>206.4</ele>
        <time>2018-10-14T05:59:34Z</time>
      </trkpt>
      <trkpt lat="46.35639" lon="2.60748">
        <ele>206.3</ele>
        <time>2018-10-14T05:59:35Z</time>
      </trkpt>
      <trkpt lat="46.35644" lon="2.60745">
        <ele>206.2</ele>
        <time>2018-10-14T05:59:36Z</time>
      </trkpt>
      <trkpt lat="46.35648" lon="2.60742">
        <ele>206.1</ele>
        <time>2018-10-14T05:59:37Z</time>
      </trkpt>
      <trkpt lat="46.35652" lon="2.60739">
        <ele>206</ele>
        <time>2018-10-14T05:59:38Z</time>
      </trkpt>
      <trkpt lat="46.35657" lon="2.60736">
        <ele>205.9</ele>
        <time>2018-10-14T05:59:39Z</time>
      </trkpt>
      <trkpt lat="46.35661" lon="2.60733">
        <ele>205.9</ele>
        <time>2018-10-14T05:59:40Z</time>
      </trkpt>
      <trkpt lat="46.35665" lon="2.60731">
        <ele>205.9</ele>
        <time>2018-10-14T05:59:41Z</time>
      </trkpt>
      <trkpt lat="46.3567" lon="2.60729">
        <ele>205.9</ele>
        <time>2018-10-14T05:59:42Z</time>
      </trkpt>
      <trkpt lat="46.35674" lon="2.60726">
        <ele>205.9</ele>
        <time>2018-10-14T05:59:43Z</time>
      </trkpt>
      <trkpt lat="46.35679" lon="2.60724">
        <ele>205.8</ele>
        <time>2018-10-14T05:59:44Z</time>
      </trkpt>
      <trkpt lat="46.35683" lon="2.60722">
        <ele>205.8</ele>
        <time>2018-10-14T05:59:45Z</time>
      </trkpt>
      <trkpt lat="46.35688" lon="2.6072">
        <ele>205.8</ele>
        <time>2018-10-14T05:59:46Z</time>
      </trkpt>
      <trkpt lat="46.35692" lon="2.60718">
        <ele>205.8</ele>
        <time>2018-10-14T05:59:47Z</time>
      </trkpt>
      <trkpt lat="46.35697" lon="2.60715">
        <ele>205.7</ele>
        <time>2018-10-14T05:59:48Z</time>
      </trkpt>
      <trkpt lat="46.35701" lon="2.60713">
        <ele>205.6</ele>
        <time>2018-10-14T05:59:49Z</time>
      </trkpt>
      <trkpt lat="46.35706" lon="2.60711">
        <ele>205.5</ele>
        <time>2018-10-14T05:59:50Z</time>
      </trkpt>
      <trkpt lat="46.3571" lon="2.60709">
        <ele>205.4</ele>
        <time>2018-10-14T05:59:51Z</time>
      </trkpt>
      <trkpt lat="46.35715" lon="2.60706">
        <ele>205.4</ele>
        <time>2018-10-14T05:59:52Z</time>
      </trkpt>
      <trkpt lat="46.35719" lon="2.60703">
        <ele>205.3</ele>
        <time>2018-10-14T05:59:53Z</time>
      </trkpt>
      <trkpt lat="46.35723" lon="2.607">
        <ele>205.2</ele>
        <time>2018-10-14T05:59:54Z</time>
      </trkpt>
      <trkpt lat="46.35728" lon="2.60697">
        <ele>205.2</ele>
        <time>2018-10-14T05:59:55Z</time>
      </trkpt>
      <trkpt lat="46.35732" lon="2.60694">
        <ele>205.2</ele>
        <time>2018-10-14T05:59:56Z</time>
      </trkpt>
      <trkpt lat="46.35736" lon="2.60692">
        <ele>205.2</ele>
        <time>2018-10-14T05:59:57Z</time>
      </trkpt>
      <trkpt lat="46.35743" lon="2.60685">
        <ele>205.1</ele>
        <time>2018-10-14T05:59:59Z</time>
      </trkpt>
      <trkpt lat="46.35743" lon="2.60674">
        <ele>204.9</ele>
        <time>2018-10-14T06:00:02Z</time>
      </trkpt>
      <trkpt lat="46.35748" lon="2.60666">
        <ele>204.7</ele>
        <time>2018-10-14T06:00:04Z</time>
      </trkpt>
      <trkpt lat="46.35755" lon="2.60659">
        <ele>204.5</ele>
        <time>2018-10-14T06:00:06Z</time>
      </trkpt>
      <trkpt lat="46.35762" lon="2.60651">
        <ele>204.4</ele>
        <time>2018-10-14T06:00:08Z</time>
      </trkpt>
      <trkpt lat="46.35769" lon="2.60643">
        <ele>204.2</ele>
        <time>2018-10-14T06:00:10Z</time>
      </trkpt>
      <trkpt lat="46.35772" lon="2.60639">
        <ele>204.2</ele>
        <time>2018-10-14T06:00:11Z</time>
      </trkpt>
      <trkpt lat="46.35776" lon="2.60634">
        <ele>204.1</ele>
        <time>2018-10-14T06:00:12Z</time>
      </trkpt>
      <trkpt lat="46.35779" lon="2.60629">
        <ele>204.1</ele>
        <time>2018-10-14T06:00:13Z</time>
      </trkpt>
      <trkpt lat="46.35782" lon="2.60624">
        <ele>204.1</ele>
        <time>2018-10-14T06:00:14Z</time>
      </trkpt>
      <trkpt lat="46.35785" lon="2.60619">
        <ele>204.1</ele>
        <time>2018-10-14T06:00:15Z</time>
      </trkpt>
      <trkpt lat="46.35788" lon="2.60614">
        <ele>204.1</ele>
        <time>2018-10-14T06:00:16Z</time>
      </trkpt>
      <trkpt lat="46.3579" lon="2.60608">
        <ele>204.1</ele>
        <time>2018-10-14T06:00:17Z</time>
      </trkpt>
      <trkpt lat="46.35793" lon="2.60602">
        <ele>204.1</ele>
        <time>2018-10-14T06:00:18Z</time>
      </trkpt>
      <trkpt lat="46.35795" lon="2.60597">
        <ele>204.1</ele>
        <time>2018-10-14T06:00:19Z</time>
      </trkpt>
      <trkpt lat="46.35797" lon="2.60591">
        <ele>204.1</ele>
        <time>2018-10-14T06:00:20Z</time>
      </trkpt>
      <trkpt lat="46.35799" lon="2.60584">
        <ele>204.1</ele>
        <time>2018-10-14T06:00:21Z</time>
      </trkpt>
      <trkpt lat="46.35801" lon="2.60578">
        <ele>204.2</ele>
        <time>2018-10-14T06:00:22Z</time>
      </trkpt>
      <trkpt lat="46.35803" lon="2.60572">
        <ele>204.2</ele>
        <time>2018-10-14T06:00:23Z</time>
      </trkpt>
      <trkpt lat="46.35804" lon="2.60565">
        <ele>204.3</ele>
        <time>2018-10-14T06:00:24Z</time>
      </trkpt>
      <trkpt lat="46.35805" lon="2.60559">
        <ele>204.4</ele>
        <time>2018-10-14T06:00:25Z</time>
      </trkpt>
      <trkpt lat="46.35806" lon="2.60552">
        <ele>204.5</ele>
        <time>2018-10-14T06:00:26Z</time>
      </trkpt>
      <trkpt lat="46.35807" lon="2.60546">
        <ele>204.5</ele>
        <time>2018-10-14T06:00:27Z</time>
      </trkpt>
      <trkpt lat="46.35808" lon="2.60539">
        <ele>204.6</ele>
        <time>2018-10-14T06:00:28Z</time>
      </trkpt>
      <trkpt lat="46.35808" lon="2.60532">
        <ele>204.7</ele>
        <time>2018-10-14T06:00:29Z</time>
      </trkpt>
      <trkpt lat="46.35808" lon="2.60526">
        <ele>204.8</ele>
        <time>2018-10-14T06:00:30Z</time>
      </trkpt>
      <trkpt lat="46.35808" lon="2.60519">
        <ele>204.9</ele>
        <time>2018-10-14T06:00:31Z</time>
      </trkpt>
      <trkpt lat="46.35808" lon="2.60512">
        <ele>205</ele>
        <time>2018-10-14T06:00:32Z</time>
      </trkpt>
      <trkpt lat="46.35808" lon="2.60505">
        <ele>205.1</ele>
        <time>2018-10-14T06:00:33Z</time>
      </trkpt>
      <trkpt lat="46.35808" lon="2.60498">
        <ele>205.2</ele>
        <time>2018-10-14T06:00:34Z</time>
      </trkpt>
      <trkpt lat="46.35807" lon="2.60492">
        <ele>205.3</ele>
        <time>2018-10-14T06:00:35Z</time>
      </trkpt>
      <trkpt lat="46.35807" lon="2.60485">
        <ele>205.4</ele>
        <time>2018-10-14T06:00:36Z</time>
      </trkpt>
      <trkpt lat="46.35807" lon="2.60478">
        <ele>205.5</ele>
        <time>2018-10-14T06:00:37Z</time>
      </trkpt>
      <trkpt lat="46.35807" lon="2.60471">
        <ele>205.6</ele>
        <time>2018-10-14T06:00:38Z</time>
      </trkpt>
      <trkpt lat="46.35806" lon="2.60464">
        <ele>205.7</ele>
        <time>2018-10-14T06:00:39Z</time>
      </trkpt>
      <trkpt lat="46.35806" lon="2.60457">
        <ele>205.7</ele>
        <time>2018-10-14T06:00:40Z</time>
      </trkpt>
      <trkpt lat="46.35806" lon="2.6045">
        <ele>205.8</ele>
        <time>2018-10-14T06:00:41Z</time>
      </trkpt>
      <trkpt lat="46.35806" lon="2.60443">
        <ele>205.9</ele>
        <time>2018-10-14T06:00:42Z</time>
      </trkpt>
      <trkpt lat="46.35805" lon="2.60436">
        <ele>206</ele>
        <time>2018-10-14T06:00:43Z</time>
      </trkpt>
      <trkpt lat="46.35805" lon="2.60429">
        <ele>206.1</ele>
        <time>2018-10-14T06:00:44Z</time>
      </trkpt>
      <trkpt lat="46.35805" lon="2.60422">
        <ele>206.2</ele>
        <time>2018-10-14T06:00:45Z</time>
      </trkpt>
      <trkpt lat="46.35804" lon="2.60414">
        <ele>206.2</ele>
        <time>2018-10-14T06:00:46Z</time>
      </trkpt>
      <trkpt lat="46.35804" lon="2.60407">
        <ele>206.3</ele>
        <time>2018-10-14T06:00:47Z</time>
      </trkpt>
      <trkpt lat="46.35804" lon="2.604">
        <ele>206.4</ele>
        <time>2018-10-14T06:00:48Z</time>
      </trkpt>
      <trkpt lat="46.35803" lon="2.60393">
        <ele>206.5</ele>
        <time>2018-10-14T06:00:49Z</time>
      </trkpt>
      <trkpt lat="46.35803" lon="2.60386">
        <ele>206.6</ele>
        <time>2018-10-14T06:00:50Z</time>
      </trkpt>
      <trkpt lat="46.35803" lon="2.60379">
        <ele>206.6</ele>
        <time>2018-10-14T06:00:51Z</time>
      </trkpt>
      <trkpt lat="46.35802" lon="2.60372">
        <ele>206.6</ele>
        <time>2018-10-14T06:00:52Z</time>
      </trkpt>
      <trkpt lat="46.35802" lon="2.60365">
        <ele>206.7</ele>
        <time>2018-10-14T06:00:53Z</time>
      </trkpt>
      <trkpt lat="46.35802" lon="2.60357">
        <ele>206.7</ele>
        <time>2018-10-14T06:00:54Z</time>
      </trkpt>
      <trkpt lat="46.35801" lon="2.6035">
        <ele>206.8</ele>
        <time>2018-10-14T06:00:55Z</time>
      </trkpt>
      <trkpt lat="46.35801" lon="2.60343">
        <ele>206.7</ele>
        <time>2018-10-14T06:00:56Z</time>
      </trkpt>
      <trkpt lat="46.35801" lon="2.60336">
        <ele>206.6</ele>
        <time>2018-10-14T06:00:57Z</time>
      </trkpt>
      <trkpt lat="46.358" lon="2.60329">
        <ele>207.2</ele>
        <time>2018-10-14T06:00:58Z</time>
      </trkpt>
      <trkpt lat="46.358" lon="2.60322">
        <ele>207.7</ele>
        <time>2018-10-14T06:00:59Z</time>
      </trkpt>
      <trkpt lat="46.358" lon="2.60315">
        <ele>208</ele>
        <time>2018-10-14T06:01:00Z</time>
      </trkpt>
      <trkpt lat="46.35799" lon="2.60308">
        <ele>208</ele>
        <time>2018-10-14T06:01:01Z</time>
      </trkpt>
      <trkpt lat="46.35799" lon="2.60301">
        <ele>208</ele>
        <time>2018-10-14T06:01:02Z</time>
      </trkpt>
      <trkpt lat="46.35799" lon="2.60294">
        <ele>207.7</ele>
        <time>2018-10-14T06:01:03Z</time>
      </trkpt>
      <trkpt lat="46.35798" lon="2.60288">
        <ele>207.6</ele>
        <time>2018-10-14T06:01:04Z</time>
      </trkpt>
      <trkpt lat="46.35798" lon="2.60281">
        <ele>207.2</ele>
        <time>2018-10-14T06:01:05Z</time>
      </trkpt>
      <trkpt lat="46.35798" lon="2.60274">
        <ele>207</ele>
        <time>2018-10-14T06:01:06Z</time>
      </trkpt>
      <trkpt lat="46.35797" lon="2.60267">
        <ele>206.8</ele>
        <time>2018-10-14T06:01:07Z</time>
      </trkpt>
      <trkpt lat="46.35797" lon="2.6026">
        <ele>206.9</ele>
        <time>2018-10-14T06:01:08Z</time>
      </trkpt>
      <trkpt lat="46.35796" lon="2.60253">
        <ele>207</ele>
        <time>2018-10-14T06:01:09Z</time>
      </trkpt>
      <trkpt lat="46.35796" lon="2.60247">
        <ele>207.4</ele>
        <time>2018-10-14T06:01:10Z</time>
      </trkpt>
      <trkpt lat="46.35796" lon="2.6024">
        <ele>207.7</ele>
        <time>2018-10-14T06:01:11Z</time>
      </trkpt>
      <trkpt lat="46.35795" lon="2.60233">
        <ele>207.9</ele>
        <time>2018-10-14T06:01:12Z</time>
      </trkpt>
      <trkpt lat="46.35795" lon="2.60226">
        <ele>207.5</ele>
        <time>2018-10-14T06:01:13Z</time>
      </trkpt>
      <trkpt lat="46.35794" lon="2.60219">
        <ele>207.3</ele>
        <time>2018-10-14T06:01:14Z</time>
      </trkpt>
      <trkpt lat="46.35794" lon="2.60212">
        <ele>207.3</ele>
        <time>2018-10-14T06:01:15Z</time>
      </trkpt>
      <trkpt lat="46.35793" lon="2.60205">
        <ele>207.4</ele>
        <time>2018-10-14T06:01:16Z</time>
      </trkpt>
      <trkpt lat="46.35793" lon="2.60198">
        <ele>207.2</ele>
        <time>2018-10-14T06:01:17Z</time>
      </trkpt>
      <trkpt lat="46.35792" lon="2.60191">
        <ele>207.1</ele>
        <time>2018-10-14T06:01:18Z</time>
      </trkpt>
      <trkpt lat="46.35792" lon="2.60184">
        <ele>207</ele>
        <time>2018-10-14T06:01:19Z</time>
      </trkpt>
      <trkpt lat="46.35792" lon="2.60177">
        <ele>206.8</ele>
        <time>2018-10-14T06:01:20Z</time>
      </trkpt>
      <trkpt lat="46.35791" lon="2.6017">
        <ele>206.6</ele>
        <time>2018-10-14T06:01:21Z</time>
      </trkpt>
      <trkpt lat="46.35791" lon="2.60163">
        <ele>206.8</ele>
        <time>2018-10-14T06:01:22Z</time>
      </trkpt>
      <trkpt lat="46.35791" lon="2.60155">
        <ele>206.9</ele>
        <time>2018-10-14T06:01:23Z</time>
      </trkpt>
      <trkpt lat="46.35791" lon="2.60148">
        <ele>206.9</ele>
        <time>2018-10-14T06:01:24Z</time>
      </trkpt>
      <trkpt lat="46.3579" lon="2.60141">
        <ele>207</ele>
        <time>2018-10-14T06:01:25Z</time>
      </trkpt>
      <trkpt lat="46.3579" lon="2.60135">
        <ele>207</ele>
        <time>2018-10-14T06:01:26Z</time>
      </trkpt>
      <trkpt lat="46.3579" lon="2.60128">
        <ele>206.8</ele>
        <time>2018-10-14T06:01:27Z</time>
      </trkpt>
      <trkpt lat="46.35789" lon="2.60121">
        <ele>206.6</ele>
        <time>2018-10-14T06:01:28Z</time>
      </trkpt>
      <trkpt lat="46.35789" lon="2.60114">
        <ele>206.7</ele>
        <time>2018-10-14T06:01:29Z</time>
      </trkpt>
      <trkpt lat="46.35788" lon="2.60107">
        <ele>206.7</ele>
        <time>2018-10-14T06:01:30Z</time>
      </trkpt>
      <trkpt lat="46.35788" lon="2.60101">
        <ele>206.7</ele>
        <time>2018-10-14T06:01:31Z</time>
      </trkpt>
      <trkpt lat="46.35787" lon="2.60094">
        <ele>206.7</ele>
        <time>2018-10-14T06:01:32Z</time>
      </trkpt>
      <trkpt lat="46.35786" lon="2.60081">
        <ele>206.3</ele>
        <time>2018-10-14T06:01:34Z</time>
      </trkpt>
      <trkpt lat="46.35786" lon="2.60075">
        <ele>206.1</ele>
        <time>2018-10-14T06:01:35Z</time>
      </trkpt>
      <trkpt lat="46.35787" lon="2.60068">
        <ele>206</ele>
        <time>2018-10-14T06:01:36Z</time>
      </trkpt>
      <trkpt lat="46.35793" lon="2.60059">
        <ele>205.9</ele>
        <time>2018-10-14T06:01:38Z</time>
      </trkpt>
      <trkpt lat="46.35802" lon="2.60058">
        <ele>205.4</ele>
        <time>2018-10-14T06:01:40Z</time>
      </trkpt>
      <trkpt lat="46.35806" lon="2.60058">
        <ele>205.5</ele>
        <time>2018-10-14T06:01:41Z</time>
      </trkpt>
      <trkpt lat="46.35815" lon="2.60059">
        <ele>205.7</ele>
        <time>2018-10-14T06:01:43Z</time>
      </trkpt>
      <trkpt lat="46.35824" lon="2.6006">
        <ele>206</ele>
        <time>2018-10-14T06:01:45Z</time>
      </trkpt>
      <trkpt lat="46.35833" lon="2.60061">
        <ele>206.3</ele>
        <time>2018-10-14T06:01:47Z</time>
      </trkpt>
      <trkpt lat="46.35842" lon="2.60063">
        <ele>206.3</ele>
        <time>2018-10-14T06:01:49Z</time>
      </trkpt>
      <trkpt lat="46.35846" lon="2.60063">
        <ele>206.3</ele>
        <time>2018-10-14T06:01:50Z</time>
      </trkpt>
      <trkpt lat="46.35851" lon="2.60064">
        <ele>206.4</ele>
        <time>2018-10-14T06:01:51Z</time>
      </trkpt>
      <trkpt lat="46.35855" lon="2.60064">
        <ele>206.5</ele>
        <time>2018-10-14T06:01:52Z</time>
      </trkpt>
      <trkpt lat="46.3586" lon="2.60065">
        <ele>206.3</ele>
        <time>2018-10-14T06:01:53Z</time>
      </trkpt>
      <trkpt lat="46.35869" lon="2.60066">
        <ele>206.1</ele>
        <time>2018-10-14T06:01:55Z</time>
      </trkpt>
      <trkpt lat="46.35877" lon="2.60067">
        <ele>206.1</ele>
        <time>2018-10-14T06:01:57Z</time>
      </trkpt>
      <trkpt lat="46.35886" lon="2.60068">
        <ele>206.6</ele>
        <time>2018-10-14T06:01:59Z</time>
      </trkpt>
      <trkpt lat="46.35895" lon="2.6007">
        <ele>206.6</ele>
        <time>2018-10-14T06:02:01Z</time>
      </trkpt>
      <trkpt lat="46.35899" lon="2.6007">
        <ele>206.4</ele>
        <time>2018-10-14T06:02:02Z</time>
      </trkpt>
      <trkpt lat="46.35904" lon="2.60071">
        <ele>206.3</ele>
        <time>2018-10-14T06:02:03Z</time>
      </trkpt>
      <trkpt lat="46.35908" lon="2.60072">
        <ele>206.2</ele>
        <time>2018-10-14T06:02:04Z</time>
      </trkpt>
      <trkpt lat="46.35913" lon="2.60073">
        <ele>206.1</ele>
        <time>2018-10-14T06:02:05Z</time>
      </trkpt>
      <trkpt lat="46.35918" lon="2.60073">
        <ele>206</ele>
        <time>2018-10-14T06:02:06Z</time>
      </trkpt>
      <trkpt lat="46.35922" lon="2.60074">
        <ele>205.9</ele>
        <time>2018-10-14T06:02:07Z</time>
      </trkpt>
      <trkpt lat="46.35927" lon="2.60075">
        <ele>205.9</ele>
        <time>2018-10-14T06:02:08Z</time>
      </trkpt>
      <trkpt lat="46.35931" lon="2.60075">
        <ele>205.8</ele>
        <time>2018-10-14T06:02:09Z</time>
      </trkpt>
      <trkpt lat="46.35936" lon="2.60076">
        <ele>205.8</ele>
        <time>2018-10-14T06:02:10Z</time>
      </trkpt>
      <trkpt lat="46.35945" lon="2.60076">
        <ele>205.8</ele>
        <time>2018-10-14T06:02:12Z</time>
      </trkpt>
      <trkpt lat="46.35949" lon="2.60076">
        <ele>205.8</ele>
        <time>2018-10-14T06:02:13Z</time>
      </trkpt>
      <trkpt lat="46.35962" lon="2.60074">
        <ele>206.1</ele>
        <time>2018-10-14T06:02:16Z</time>
      </trkpt>
      <trkpt lat="46.35967" lon="2.60073">
        <ele>206.1</ele>
        <time>2018-10-14T06:02:17Z</time>
      </trkpt>
      <trkpt lat="46.35971" lon="2.60072">
        <ele>206</ele>
        <time>2018-10-14T06:02:18Z</time>
      </trkpt>
      <trkpt lat="46.35976" lon="2.6007">
        <ele>206.2</ele>
        <time>2018-10-14T06:02:19Z</time>
      </trkpt>
      <trkpt lat="46.3598" lon="2.60069">
        <ele>206.3</ele>
        <time>2018-10-14T06:02:20Z</time>
      </trkpt>
      <trkpt lat="46.35988" lon="2.60065">
        <ele>206.6</ele>
        <time>2018-10-14T06:02:22Z</time>
      </trkpt>
      <trkpt lat="46.35996" lon="2.6006">
        <ele>206.7</ele>
        <time>2018-10-14T06:02:24Z</time>
      </trkpt>
      <trkpt lat="46.36004" lon="2.60055">
        <ele>206.6</ele>
        <time>2018-10-14T06:02:26Z</time>
      </trkpt>
      <trkpt lat="46.36009" lon="2.60052">
        <ele>206.6</ele>
        <time>2018-10-14T06:02:27Z</time>
      </trkpt>
      <trkpt lat="46.36013" lon="2.6005">
        <ele>206.6</ele>
        <time>2018-10-14T06:02:28Z</time>
      </trkpt>
      <trkpt lat="46.36017" lon="2.60047">
        <ele>206.6</ele>
        <time>2018-10-14T06:02:29Z</time>
      </trkpt>
      <trkpt lat="46.36021" lon="2.60044">
        <ele>206.7</ele>
        <time>2018-10-14T06:02:30Z</time>
      </trkpt>
      <trkpt lat="46.36026" lon="2.60041">
        <ele>206.4</ele>
        <time>2018-10-14T06:02:31Z</time>
      </trkpt>
      <trkpt lat="46.3603" lon="2.60038">
        <ele>206.2</ele>
        <time>2018-10-14T06:02:32Z</time>
      </trkpt>
      <trkpt lat="46.36034" lon="2.60035">
        <ele>206.2</ele>
        <time>2018-10-14T06:02:33Z</time>
      </trkpt>
      <trkpt lat="46.36039" lon="2.60032">
        <ele>206.3</ele>
        <time>2018-10-14T06:02:34Z</time>
      </trkpt>
      <trkpt lat="46.36043" lon="2.60029">
        <ele>206.3</ele>
        <time>2018-10-14T06:02:35Z</time>
      </trkpt>
      <trkpt lat="46.36048" lon="2.60026">
        <ele>206.2</ele>
        <time>2018-10-14T06:02:36Z</time>
      </trkpt>
      <trkpt lat="46.36052" lon="2.60023">
        <ele>206.2</ele>
        <time>2018-10-14T06:02:37Z</time>
      </trkpt>
      <trkpt lat="46.36057" lon="2.60021">
        <ele>206.1</ele>
        <time>2018-10-14T06:02:38Z</time>
      </trkpt>
      <trkpt lat="46.36061" lon="2.60018">
        <ele>206</ele>
        <time>2018-10-14T06:02:39Z</time>
      </trkpt>
      <trkpt lat="46.36066" lon="2.60016">
        <ele>206</ele>
        <time>2018-10-14T06:02:40Z</time>
      </trkpt>
      <trkpt lat="46.3607" lon="2.60014">
        <ele>206.1</ele>
        <time>2018-10-14T06:02:41Z</time>
      </trkpt>
      <trkpt lat="46.36075" lon="2.60012">
        <ele>206.1</ele>
        <time>2018-10-14T06:02:42Z</time>
      </trkpt>
      <trkpt lat="46.3608" lon="2.6001">
        <ele>206.1</ele>
        <time>2018-10-14T06:02:43Z</time>
      </trkpt>
      <trkpt lat="46.36084" lon="2.60008">
        <ele>206.2</ele>
        <time>2018-10-14T06:02:44Z</time>
      </trkpt>
      <trkpt lat="46.36089" lon="2.60006">
        <ele>206.3</ele>
        <time>2018-10-14T06:02:45Z</time>
      </trkpt>
      <trkpt lat="46.36094" lon="2.60004">
        <ele>206.5</ele>
        <time>2018-10-14T06:02:46Z</time>
      </trkpt>
      <trkpt lat="46.36099" lon="2.60002">
        <ele>206.6</ele>
        <time>2018-10-14T06:02:47Z</time>
      </trkpt>
      <trkpt lat="46.36104" lon="2.6">
        <ele>206.2</ele>
        <time>2018-10-14T06:02:48Z</time>
      </trkpt>
      <trkpt lat="46.36108" lon="2.59998">
        <ele>205.8</ele>
        <time>2018-10-14T06:02:49Z</time>
      </trkpt>
      <trkpt lat="46.36113" lon="2.59996">
        <ele>206</ele>
        <time>2018-10-14T06:02:50Z</time>
      </trkpt>
      <trkpt lat="46.36117" lon="2.59994">
        <ele>206.1</ele>
        <time>2018-10-14T06:02:51Z</time>
      </trkpt>
      <trkpt lat="46.36122" lon="2.59993">
        <ele>206.2</ele>
        <time>2018-10-14T06:02:52Z</time>
      </trkpt>
      <trkpt lat="46.36126" lon="2.59991">
        <ele>206</ele>
        <time>2018-10-14T06:02:53Z</time>
      </trkpt>
      <trkpt lat="46.36131" lon="2.59989">
        <ele>205.8</ele>
        <time>2018-10-14T06:02:54Z</time>
      </trkpt>
      <trkpt lat="46.36136" lon="2.59987">
        <ele>205.9</ele>
        <time>2018-10-14T06:02:55Z</time>
      </trkpt>
      <trkpt lat="46.3614" lon="2.59986">
        <ele>206</ele>
        <time>2018-10-14T06:02:56Z</time>
      </trkpt>
      <trkpt lat="46.36145" lon="2.59984">
        <ele>205.9</ele>
        <time>2018-10-14T06:02:57Z</time>
      </trkpt>
      <trkpt lat="46.3615" lon="2.59982">
        <ele>205.7</ele>
        <time>2018-10-14T06:02:58Z</time>
      </trkpt>
      <trkpt lat="46.36154" lon="2.5998">
        <ele>205.7</ele>
        <time>2018-10-14T06:02:59Z</time>
      </trkpt>
      <trkpt lat="46.36159" lon="2.59978">
        <ele>205.5</ele>
        <time>2018-10-14T06:03:00Z</time>
      </trkpt>
      <trkpt lat="46.36163" lon="2.59976">
        <ele>205.5</ele>
        <time>2018-10-14T06:03:01Z</time>
      </trkpt>
      <trkpt lat="46.36168" lon="2.59975">
        <ele>205.1</ele>
        <time>2018-10-14T06:03:02Z</time>
      </trkpt>
      <trkpt lat="46.36172" lon="2.59973">
        <ele>204.9</ele>
        <time>2018-10-14T06:03:03Z</time>
      </trkpt>
      <trkpt lat="46.36177" lon="2.59971">
        <ele>205.3</ele>
        <time>2018-10-14T06:03:04Z</time>
      </trkpt>
      <trkpt lat="46.36181" lon="2.59969">
        <ele>205.7</ele>
        <time>2018-10-14T06:03:05Z</time>
      </trkpt>
      <trkpt lat="46.36186" lon="2.59967">
        <ele>206</ele>
        <time>2018-10-14T06:03:06Z</time>
      </trkpt>
      <trkpt lat="46.3619" lon="2.59966">
        <ele>205.9</ele>
        <time>2018-10-14T06:03:07Z</time>
      </trkpt>
      <trkpt lat="46.36195" lon="2.59964">
        <ele>205.9</ele>
        <time>2018-10-14T06:03:08Z</time>
      </trkpt>
      <trkpt lat="46.36199" lon="2.59962">
        <ele>205.6</ele>
        <time>2018-10-14T06:03:09Z</time>
      </trkpt>
      <trkpt lat="46.36204" lon="2.5996">
        <ele>205.4</ele>
        <time>2018-10-14T06:03:10Z</time>
      </trkpt>
      <trkpt lat="46.36209" lon="2.59958">
        <ele>205.2</ele>
        <time>2018-10-14T06:03:11Z</time>
      </trkpt>
      <trkpt lat="46.36213" lon="2.59956">
        <ele>205.1</ele>
        <time>2018-10-14T06:03:12Z</time>
      </trkpt>
      <trkpt lat="46.36218" lon="2.59955">
        <ele>205</ele>
        <time>2018-10-14T06:03:13Z</time>
      </trkpt>
      <trkpt lat="46.36222" lon="2.59953">
        <ele>205</ele>
        <time>2018-10-14T06:03:14Z</time>
      </trkpt>
      <trkpt lat="46.36227" lon="2.59951">
        <ele>205</ele>
        <time>2018-10-14T06:03:15Z</time>
      </trkpt>
      <trkpt lat="46.36232" lon="2.59949">
        <ele>204.9</ele>
        <time>2018-10-14T06:03:16Z</time>
      </trkpt>
      <trkpt lat="46.36236" lon="2.59947">
        <ele>204.9</ele>
        <time>2018-10-14T06:03:17Z</time>
      </trkpt>
      <trkpt lat="46.36241" lon="2.59945">
        <ele>204.8</ele>
        <time>2018-10-14T06:03:18Z</time>
      </trkpt>
      <trkpt lat="46.36246" lon="2.59943">
        <ele>204.8</ele>
        <time>2018-10-14T06:03:19Z</time>
      </trkpt>
      <trkpt lat="46.3625" lon="2.59941">
        <ele>204.7</ele>
        <time>2018-10-14T06:03:20Z</time>
      </trkpt>
      <trkpt lat="46.36255" lon="2.5994">
        <ele>204.8</ele>
        <time>2018-10-14T06:03:21Z</time>
      </trkpt>
      <trkpt lat="46.3626" lon="2.59938">
        <ele>204.9</ele>
        <time>2018-10-14T06:03:22Z</time>
      </trkpt>
      <trkpt lat="46.36264" lon="2.59936">
        <ele>205</ele>
        <time>2018-10-14T06:03:23Z</time>
      </trkpt>
      <trkpt lat="46.36269" lon="2.59934">
        <ele>205</ele>
        <time>2018-10-14T06:03:24Z</time>
      </trkpt>
      <trkpt lat="46.36274" lon="2.59932">
        <ele>205</ele>
        <time>2018-10-14T06:03:25Z</time>
      </trkpt>
      <trkpt lat="46.36279" lon="2.5993">
        <ele>204.6</ele>
        <time>2018-10-14T06:03:26Z</time>
      </trkpt>
      <trkpt lat="46.36284" lon="2.59928">
        <ele>204.3</ele>
        <time>2018-10-14T06:03:27Z</time>
      </trkpt>
      <trkpt lat="46.36288" lon="2.59926">
        <ele>204.7</ele>
        <time>2018-10-14T06:03:28Z</time>
      </trkpt>
      <trkpt lat="46.36293" lon="2.59924">
        <ele>205</ele>
        <time>2018-10-14T06:03:29Z</time>
      </trkpt>
      <trkpt lat="46.36297" lon="2.59922">
        <ele>205.2</ele>
        <time>2018-10-14T06:03:30Z</time>
      </trkpt>
      <trkpt lat="46.36302" lon="2.5992">
        <ele>205.1</ele>
        <time>2018-10-14T06:03:31Z</time>
      </trkpt>
      <trkpt lat="46.36306" lon="2.59918">
        <ele>205</ele>
        <time>2018-10-14T06:03:32Z</time>
      </trkpt>
      <trkpt lat="46.36311" lon="2.59915">
        <ele>204.8</ele>
        <time>2018-10-14T06:03:33Z</time>
      </trkpt>
      <trkpt lat="46.36315" lon="2.59913">
        <ele>204.7</ele>
        <time>2018-10-14T06:03:34Z</time>
      </trkpt>
      <trkpt lat="46.3632" lon="2.59911">
        <ele>204.8</ele>
        <time>2018-10-14T06:03:35Z</time>
      </trkpt>
      <trkpt lat="46.36324" lon="2.59908">
        <ele>204.9</ele>
        <time>2018-10-14T06:03:36Z</time>
      </trkpt>
      <trkpt lat="46.36328" lon="2.59904">
        <ele>205</ele>
        <time>2018-10-14T06:03:37Z</time>
      </trkpt>
      <trkpt lat="46.36332" lon="2.59899">
        <ele>204.9</ele>
        <time>2018-10-14T06:03:38Z</time>
      </trkpt>
      <trkpt lat="46.36335" lon="2.59894">
        <ele>204.8</ele>
        <time>2018-10-14T06:03:39Z</time>
      </trkpt>
      <trkpt lat="46.36336" lon="2.59888">
        <ele>205</ele>
        <time>2018-10-14T06:03:40Z</time>
      </trkpt>
      <trkpt lat="46.36338" lon="2.59881">
        <ele>205.1</ele>
        <time>2018-10-14T06:03:41Z</time>
      </trkpt>
      <trkpt lat="46.36338" lon="2.59874">
        <ele>205.2</ele>
        <time>2018-10-14T06:03:42Z</time>
      </trkpt>
      <trkpt lat="46.36339" lon="2.59867">
        <ele>205</ele>
        <time>2018-10-14T06:03:43Z</time>
      </trkpt>
      <trkpt lat="46.36339" lon="2.59861">
        <ele>204.8</ele>
        <time>2018-10-14T06:03:44Z</time>
      </trkpt>
      <trkpt lat="46.36339" lon="2.59854">
        <ele>204.9</ele>
        <time>2018-10-14T06:03:45Z</time>
      </trkpt>
      <trkpt lat="46.36339" lon="2.59847">
        <ele>204.9</ele>
        <time>2018-10-14T06:03:46Z</time>
      </trkpt>
      <trkpt lat="46.36339" lon="2.59841">
        <ele>205.2</ele>
        <time>2018-10-14T06:03:47Z</time>
      </trkpt>
      <trkpt lat="46.36338" lon="2.59828">
        <ele>205.5</ele>
        <time>2018-10-14T06:03:49Z</time>
      </trkpt>
      <trkpt lat="46.36338" lon="2.59821">
        <ele>205</ele>
        <time>2018-10-14T06:03:50Z</time>
      </trkpt>
      <trkpt lat="46.36337" lon="2.59815">
        <ele>204.6</ele>
        <time>2018-10-14T06:03:51Z</time>
      </trkpt>
      <trkpt lat="46.36337" lon="2.59808">
        <ele>204.9</ele>
        <time>2018-10-14T06:03:52Z</time>
      </trkpt>
      <trkpt lat="46.36335" lon="2.59795">
        <ele>205.5</ele>
        <time>2018-10-14T06:03:54Z</time>
      </trkpt>
      <trkpt lat="46.36333" lon="2.59783">
        <ele>206.2</ele>
        <time>2018-10-14T06:03:56Z</time>
      </trkpt>
      <trkpt lat="46.36331" lon="2.59771">
        <ele>205.8</ele>
        <time>2018-10-14T06:03:58Z</time>
      </trkpt>
      <trkpt lat="46.36328" lon="2.59759">
        <ele>205.9</ele>
        <time>2018-10-14T06:04:00Z</time>
      </trkpt>
      <trkpt lat="46.36325" lon="2.59747">
        <ele>205.9</ele>
        <time>2018-10-14T06:04:02Z</time>
      </trkpt>
      <trkpt lat="46.36322" lon="2.59735">
        <ele>205.8</ele>
        <time>2018-10-14T06:04:04Z</time>
      </trkpt>
      <trkpt lat="46.36319" lon="2.59724">
        <ele>205.8</ele>
        <time>2018-10-14T06:04:06Z</time>
      </trkpt>
      <trkpt lat="46.36316" lon="2.59713">
        <ele>205.9</ele>
        <time>2018-10-14T06:04:08Z</time>
      </trkpt>
      <trkpt lat="46.36313" lon="2.59702">
        <ele>205.5</ele>
        <time>2018-10-14T06:04:10Z</time>
      </trkpt>
      <trkpt lat="46.3631" lon="2.59691">
        <ele>206.5</ele>
        <time>2018-10-14T06:04:12Z</time>
      </trkpt>
      <trkpt lat="46.36307" lon="2.5968">
        <ele>206.4</ele>
        <time>2018-10-14T06:04:14Z</time>
      </trkpt>
      <trkpt lat="46.36306" lon="2.59674">
        <ele>206.1</ele>
        <time>2018-10-14T06:04:15Z</time>
      </trkpt>
      <trkpt lat="46.36301" lon="2.59658">
        <ele>206.6</ele>
        <time>2018-10-14T06:04:18Z</time>
      </trkpt>
      <trkpt lat="46.36298" lon="2.59647">
        <ele>206.3</ele>
        <time>2018-10-14T06:04:20Z</time>
      </trkpt>
      <trkpt lat="46.36295" lon="2.59636">
        <ele>206.1</ele>
        <time>2018-10-14T06:04:22Z</time>
      </trkpt>
      <trkpt lat="46.36292" lon="2.59625">
        <ele>206.2</ele>
        <time>2018-10-14T06:04:24Z</time>
      </trkpt>
      <trkpt lat="46.36289" lon="2.59614">
        <ele>206.5</ele>
        <time>2018-10-14T06:04:26Z</time>
      </trkpt>
      <trkpt lat="46.36286" lon="2.59604">
        <ele>206.7</ele>
        <time>2018-10-14T06:04:28Z</time>
      </trkpt>
      <trkpt lat="46.36283" lon="2.59593">
        <ele>206.6</ele>
        <time>2018-10-14T06:04:30Z</time>
      </trkpt>
      <trkpt lat="46.3628" lon="2.59583">
        <ele>206.3</ele>
        <time>2018-10-14T06:04:32Z</time>
      </trkpt>
      <trkpt lat="46.36277" lon="2.59573">
        <ele>206.7</ele>
        <time>2018-10-14T06:04:34Z</time>
      </trkpt>
      <trkpt lat="46.36274" lon="2.59562">
        <ele>207.1</ele>
        <time>2018-10-14T06:04:36Z</time>
      </trkpt>
      <trkpt lat="46.3627" lon="2.59552">
        <ele>207</ele>
        <time>2018-10-14T06:04:38Z</time>
      </trkpt>
      <trkpt lat="46.36268" lon="2.59542">
        <ele>206.9</ele>
        <time>2018-10-14T06:04:40Z</time>
      </trkpt>
      <trkpt lat="46.36265" lon="2.59532">
        <ele>207</ele>
        <time>2018-10-14T06:04:42Z</time>
      </trkpt>
      <trkpt lat="46.36266" lon="2.59522">
        <ele>207.4</ele>
        <time>2018-10-14T06:04:44Z</time>
      </trkpt>
      <trkpt lat="46.3627" lon="2.59514">
        <ele>207.7</ele>
        <time>2018-10-14T06:04:46Z</time>
      </trkpt>
      <trkpt lat="46.36276" lon="2.5951">
        <ele>207.7</ele>
        <time>2018-10-14T06:04:48Z</time>
      </trkpt>
      <trkpt lat="46.36283" lon="2.59507">
        <ele>208.9</ele>
        <time>2018-10-14T06:04:50Z</time>
      </trkpt>
      <trkpt lat="46.3629" lon="2.59503">
        <ele>209.2</ele>
        <time>2018-10-14T06:04:52Z</time>
      </trkpt>
      <trkpt lat="46.36297" lon="2.595">
        <ele>208.7</ele>
        <time>2018-10-14T06:04:54Z</time>
      </trkpt>
      <trkpt lat="46.36305" lon="2.59497">
        <ele>208.4</ele>
        <time>2018-10-14T06:04:56Z</time>
      </trkpt>
      <trkpt lat="46.36312" lon="2.59494">
        <ele>208.6</ele>
        <time>2018-10-14T06:04:58Z</time>
      </trkpt>
      <trkpt lat="46.36319" lon="2.5949">
        <ele>208.3</ele>
        <time>2018-10-14T06:05:00Z</time>
      </trkpt>
      <trkpt lat="46.36327" lon="2.59488">
        <ele>208.1</ele>
        <time>2018-10-14T06:05:02Z</time>
      </trkpt>
      <trkpt lat="46.36335" lon="2.59485">
        <ele>208.2</ele>
        <time>2018-10-14T06:05:04Z</time>
      </trkpt>
      <trkpt lat="46.36343" lon="2.59483">
        <ele>208.2</ele>
        <time>2018-10-14T06:05:06Z</time>
      </trkpt>
      <trkpt lat="46.36351" lon="2.59481">
        <ele>208.1</ele>
        <time>2018-10-14T06:05:08Z</time>
      </trkpt>
      <trkpt lat="46.36359" lon="2.59479">
        <ele>208.2</ele>
        <time>2018-10-14T06:05:10Z</time>
      </trkpt>
      <trkpt lat="46.36368" lon="2.59478">
        <ele>208.7</ele>
        <time>2018-10-14T06:05:12Z</time>
      </trkpt>
      <trkpt lat="46.36376" lon="2.59477">
        <ele>207.9</ele>
        <time>2018-10-14T06:05:14Z</time>
      </trkpt>
      <trkpt lat="46.36385" lon="2.59476">
        <ele>207.4</ele>
        <time>2018-10-14T06:05:16Z</time>
      </trkpt>
      <trkpt lat="46.36389" lon="2.59476">
        <ele>207.2</ele>
        <time>2018-10-14T06:05:17Z</time>
      </trkpt>
      <trkpt lat="46.36402" lon="2.59476">
        <ele>207.7</ele>
        <time>2018-10-14T06:05:20Z</time>
      </trkpt>
      <trkpt lat="46.3641" lon="2.59477">
        <ele>208.3</ele>
        <time>2018-10-14T06:05:22Z</time>
      </trkpt>
      <trkpt lat="46.36419" lon="2.59478">
        <ele>207.1</ele>
        <time>2018-10-14T06:05:24Z</time>
      </trkpt>
      <trkpt lat="46.36428" lon="2.59479">
        <ele>207.1</ele>
        <time>2018-10-14T06:05:26Z</time>
      </trkpt>
      <trkpt lat="46.36432" lon="2.5948">
        <ele>207.2</ele>
        <time>2018-10-14T06:05:27Z</time>
      </trkpt>
      <trkpt lat="46.36437" lon="2.59481">
        <ele>207.4</ele>
        <time>2018-10-14T06:05:28Z</time>
      </trkpt>
      <trkpt lat="46.36441" lon="2.59483">
        <ele>207.4</ele>
        <time>2018-10-14T06:05:29Z</time>
      </trkpt>
      <trkpt lat="46.36446" lon="2.59484">
        <ele>207.6</ele>
        <time>2018-10-14T06:05:30Z</time>
      </trkpt>
      <trkpt lat="46.36455" lon="2.59486">
        <ele>207.9</ele>
        <time>2018-10-14T06:05:32Z</time>
      </trkpt>
      <trkpt lat="46.36463" lon="2.59488">
        <ele>208.1</ele>
        <time>2018-10-14T06:05:34Z</time>
      </trkpt>
      <trkpt lat="46.36471" lon="2.59491">
        <ele>207.5</ele>
        <time>2018-10-14T06:05:36Z</time>
      </trkpt>
      <trkpt lat="46.36479" lon="2.59495">
        <ele>207.2</ele>
        <time>2018-10-14T06:05:38Z</time>
      </trkpt>
      <trkpt lat="46.36487" lon="2.59499">
        <ele>206.9</ele>
        <time>2018-10-14T06:05:40Z</time>
      </trkpt>
      <trkpt lat="46.36496" lon="2.59504">
        <ele>206.6</ele>
        <time>2018-10-14T06:05:42Z</time>
      </trkpt>
      <trkpt lat="46.36504" lon="2.59507">
        <ele>206.3</ele>
        <time>2018-10-14T06:05:44Z</time>
      </trkpt>
      <trkpt lat="46.36513" lon="2.59509">
        <ele>206.3</ele>
        <time>2018-10-14T06:05:46Z</time>
      </trkpt>
      <trkpt lat="46.36518" lon="2.59509">
        <ele>206.4</ele>
        <time>2018-10-14T06:05:47Z</time>
      </trkpt>
      <trkpt lat="46.36522" lon="2.59509">
        <ele>206.5</ele>
        <time>2018-10-14T06:05:48Z</time>
      </trkpt>
      <trkpt lat="46.36527" lon="2.59508">
        <ele>206.1</ele>
        <time>2018-10-14T06:05:49Z</time>
      </trkpt>
      <trkpt lat="46.36532" lon="2.59507">
        <ele>205.9</ele>
        <time>2018-10-14T06:05:50Z</time>
      </trkpt>
      <trkpt lat="46.36537" lon="2.59506">
        <ele>205.6</ele>
        <time>2018-10-14T06:05:51Z</time>
      </trkpt>
      <trkpt lat="46.36542" lon="2.59505">
        <ele>205.4</ele>
        <time>2018-10-14T06:05:52Z</time>
      </trkpt>
      <trkpt lat="46.3655" lon="2.59507">
        <ele>205.3</ele>
        <time>2018-10-14T06:05:54Z</time>
      </trkpt>
      <trkpt lat="46.36558" lon="2.59513">
        <ele>205.4</ele>
        <time>2018-10-14T06:05:56Z</time>
      </trkpt>
      <trkpt lat="46.36562" lon="2.59516">
        <ele>205.5</ele>
        <time>2018-10-14T06:05:57Z</time>
      </trkpt>
      <trkpt lat="46.36569" lon="2.59524">
        <ele>205.5</ele>
        <time>2018-10-14T06:05:59Z</time>
      </trkpt>
      <trkpt lat="46.36576" lon="2.59531">
        <ele>205.7</ele>
        <time>2018-10-14T06:06:01Z</time>
      </trkpt>
      <trkpt lat="46.36584" lon="2.59537">
        <ele>205.8</ele>
        <time>2018-10-14T06:06:03Z</time>
      </trkpt>
      <trkpt lat="46.36592" lon="2.59541">
        <ele>205.8</ele>
        <time>2018-10-14T06:06:05Z</time>
      </trkpt>
      <trkpt lat="46.36601" lon="2.59545">
        <ele>205.9</ele>
        <time>2018-10-14T06:06:07Z</time>
      </trkpt>
      <trkpt lat="46.36609" lon="2.59549">
        <ele>206.8</ele>
        <time>2018-10-14T06:06:09Z</time>
      </trkpt>
      <trkpt lat="46.36613" lon="2.59551">
        <ele>206.4</ele>
        <time>2018-10-14T06:06:10Z</time>
      </trkpt>
      <trkpt lat="46.36618" lon="2.59553">
        <ele>206</ele>
        <time>2018-10-14T06:06:11Z</time>
      </trkpt>
      <trkpt lat="46.36622" lon="2.59555">
        <ele>205.8</ele>
        <time>2018-10-14T06:06:12Z</time>
      </trkpt>
      <trkpt lat="46.36626" lon="2.59558">
        <ele>205.8</ele>
        <time>2018-10-14T06:06:13Z</time>
      </trkpt>
      <trkpt lat="46.3663" lon="2.5956">
        <ele>205.9</ele>
        <time>2018-10-14T06:06:14Z</time>
      </trkpt>
      <trkpt lat="46.36635" lon="2.59562">
        <ele>205.9</ele>
        <time>2018-10-14T06:06:15Z</time>
      </trkpt>
      <trkpt lat="46.36639" lon="2.59564">
        <ele>205.9</ele>
        <time>2018-10-14T06:06:16Z</time>
      </trkpt>
      <trkpt lat="46.36644" lon="2.59566">
        <ele>205.8</ele>
        <time>2018-10-14T06:06:17Z</time>
      </trkpt>
      <trkpt lat="46.36648" lon="2.59568">
        <ele>205.7</ele>
        <time>2018-10-14T06:06:18Z</time>
      </trkpt>
      <trkpt lat="46.36653" lon="2.5957">
        <ele>205.6</ele>
        <time>2018-10-14T06:06:19Z</time>
      </trkpt>
      <trkpt lat="46.36657" lon="2.59572">
        <ele>205.7</ele>
        <time>2018-10-14T06:06:20Z</time>
      </trkpt>
      <trkpt lat="46.36662" lon="2.59574">
        <ele>205.8</ele>
        <time>2018-10-14T06:06:21Z</time>
      </trkpt>
      <trkpt lat="46.36666" lon="2.59576">
        <ele>206.3</ele>
        <time>2018-10-14T06:06:22Z</time>
      </trkpt>
      <trkpt lat="46.3667" lon="2.59578">
        <ele>206.6</ele>
        <time>2018-10-14T06:06:23Z</time>
      </trkpt>
      <trkpt lat="46.36675" lon="2.5958">
        <ele>206.9</ele>
        <time>2018-10-14T06:06:24Z</time>
      </trkpt>
      <trkpt lat="46.36679" lon="2.59582">
        <ele>206.6</ele>
        <time>2018-10-14T06:06:25Z</time>
      </trkpt>
      <trkpt lat="46.36683" lon="2.59584">
        <ele>206.3</ele>
        <time>2018-10-14T06:06:26Z</time>
      </trkpt>
      <trkpt lat="46.36688" lon="2.59586">
        <ele>206.3</ele>
        <time>2018-10-14T06:06:27Z</time>
      </trkpt>
      <trkpt lat="46.36692" lon="2.59587">
        <ele>206.3</ele>
        <time>2018-10-14T06:06:28Z</time>
      </trkpt>
      <trkpt lat="46.36701" lon="2.59592">
        <ele>205.7</ele>
        <time>2018-10-14T06:06:30Z</time>
      </trkpt>
      <trkpt lat="46.36709" lon="2.59596">
        <ele>205.7</ele>
        <time>2018-10-14T06:06:32Z</time>
      </trkpt>
      <trkpt lat="46.36718" lon="2.59599">
        <ele>206.1</ele>
        <time>2018-10-14T06:06:34Z</time>
      </trkpt>
      <trkpt lat="46.36722" lon="2.59601">
        <ele>206.3</ele>
        <time>2018-10-14T06:06:35Z</time>
      </trkpt>
      <trkpt lat="46.3673" lon="2.59605">
        <ele>206.5</ele>
        <time>2018-10-14T06:06:37Z</time>
      </trkpt>
      <trkpt lat="46.36735" lon="2.59608">
        <ele>206.5</ele>
        <time>2018-10-14T06:06:38Z</time>
      </trkpt>
      <trkpt lat="46.36739" lon="2.5961">
        <ele>206.6</ele>
        <time>2018-10-14T06:06:39Z</time>
      </trkpt>
      <trkpt lat="46.36744" lon="2.59612">
        <ele>206.7</ele>
        <time>2018-10-14T06:06:40Z</time>
      </trkpt>
      <trkpt lat="46.36748" lon="2.59614">
        <ele>206.5</ele>
        <time>2018-10-14T06:06:41Z</time>
      </trkpt>
      <trkpt lat="46.36753" lon="2.59616">
        <ele>206.3</ele>
        <time>2018-10-14T06:06:42Z</time>
      </trkpt>
      <trkpt lat="46.36757" lon="2.59618">
        <ele>206.2</ele>
        <time>2018-10-14T06:06:43Z</time>
      </trkpt>
      <trkpt lat="46.36762" lon="2.5962">
        <ele>206.3</ele>
        <time>2018-10-14T06:06:44Z</time>
      </trkpt>
      <trkpt lat="46.36766" lon="2.59622">
        <ele>206.3</ele>
        <time>2018-10-14T06:06:45Z</time>
      </trkpt>
      <trkpt lat="46.36771" lon="2.59624">
        <ele>206.5</ele>
        <time>2018-10-14T06:06:46Z</time>
      </trkpt>
      <trkpt lat="46.36775" lon="2.59626">
        <ele>206.6</ele>
        <time>2018-10-14T06:06:47Z</time>
      </trkpt>
      <trkpt lat="46.3678" lon="2.59629">
        <ele>206.5</ele>
        <time>2018-10-14T06:06:48Z</time>
      </trkpt>
      <trkpt lat="46.36785" lon="2.59631">
        <ele>206.4</ele>
        <time>2018-10-14T06:06:49Z</time>
      </trkpt>
      <trkpt lat="46.36789" lon="2.59633">
        <ele>206.4</ele>
        <time>2018-10-14T06:06:50Z</time>
      </trkpt>
      <trkpt lat="46.36794" lon="2.59635">
        <ele>206.4</ele>
        <time>2018-10-14T06:06:51Z</time>
      </trkpt>
      <trkpt lat="46.36798" lon="2.59637">
        <ele>206.5</ele>
        <time>2018-10-14T06:06:52Z</time>
      </trkpt>
      <trkpt lat="46.36803" lon="2.59639">
        <ele>206.1</ele>
        <time>2018-10-14T06:06:53Z</time>
      </trkpt>
      <trkpt lat="46.36808" lon="2.59641">
        <ele>205.9</ele>
        <time>2018-10-14T06:06:54Z</time>
      </trkpt>
      <trkpt lat="46.36812" lon="2.59643">
        <ele>205.7</ele>
        <time>2018-10-14T06:06:55Z</time>
      </trkpt>
      <trkpt lat="46.36817" lon="2.59645">
        <ele>205.9</ele>
        <time>2018-10-14T06:06:56Z</time>
      </trkpt>
      <trkpt lat="46.36822" lon="2.59647">
        <ele>206</ele>
        <time>2018-10-14T06:06:57Z</time>
      </trkpt>
      <trkpt lat="46.36826" lon="2.59649">
        <ele>206.2</ele>
        <time>2018-10-14T06:06:58Z</time>
      </trkpt>
      <trkpt lat="46.36831" lon="2.59651">
        <ele>206.4</ele>
        <time>2018-10-14T06:06:59Z</time>
      </trkpt>
      <trkpt lat="46.36836" lon="2.59653">
        <ele>206.2</ele>
        <time>2018-10-14T06:07:00Z</time>
      </trkpt>
      <trkpt lat="46.36841" lon="2.59655">
        <ele>206</ele>
        <time>2018-10-14T06:07:01Z</time>
      </trkpt>
      <trkpt lat="46.36845" lon="2.59657">
        <ele>205.8</ele>
        <time>2018-10-14T06:07:02Z</time>
      </trkpt>
      <trkpt lat="46.3685" lon="2.59659">
        <ele>206</ele>
        <time>2018-10-14T06:07:03Z</time>
      </trkpt>
      <trkpt lat="46.36854" lon="2.59661">
        <ele>206.1</ele>
        <time>2018-10-14T06:07:04Z</time>
      </trkpt>
      <trkpt lat="46.36862" lon="2.59665">
        <ele>206.8</ele>
        <time>2018-10-14T06:07:06Z</time>
      </trkpt>
      <trkpt lat="46.3687" lon="2.59668">
        <ele>206.5</ele>
        <time>2018-10-14T06:07:08Z</time>
      </trkpt>
      <trkpt lat="46.36878" lon="2.59672">
        <ele>206.3</ele>
        <time>2018-10-14T06:07:10Z</time>
      </trkpt>
      <trkpt lat="46.36885" lon="2.59675">
        <ele>206.1</ele>
        <time>2018-10-14T06:07:12Z</time>
      </trkpt>
      <trkpt lat="46.36892" lon="2.59678">
        <ele>206.1</ele>
        <time>2018-10-14T06:07:14Z</time>
      </trkpt>
      <trkpt lat="46.369" lon="2.59681">
        <ele>205.6</ele>
        <time>2018-10-14T06:07:16Z</time>
      </trkpt>
      <trkpt lat="46.36908" lon="2.59682">
        <ele>205.8</ele>
        <time>2018-10-14T06:07:20Z</time>
      </trkpt>
      <trkpt lat="46.3691" lon="2.59681">
        <ele>205.9</ele>
        <time>2018-10-14T06:07:21Z</time>
      </trkpt>
      <trkpt lat="46.36921" lon="2.59666">
        <ele>205.1</ele>
        <time>2018-10-14T06:07:27Z</time>
      </trkpt>
      <trkpt lat="46.36923" lon="2.59656">
        <ele>205.1</ele>
        <time>2018-10-14T06:07:29Z</time>
      </trkpt>
      <trkpt lat="46.36924" lon="2.59646">
        <ele>205</ele>
        <time>2018-10-14T06:07:31Z</time>
      </trkpt>
      <trkpt lat="46.36926" lon="2.59636">
        <ele>204.8</ele>
        <time>2018-10-14T06:07:33Z</time>
      </trkpt>
      <trkpt lat="46.36926" lon="2.59625">
        <ele>204.4</ele>
        <time>2018-10-14T06:07:35Z</time>
      </trkpt>
      <trkpt lat="46.36926" lon="2.59614">
        <ele>205</ele>
        <time>2018-10-14T06:07:37Z</time>
      </trkpt>
      <trkpt lat="46.36924" lon="2.59602">
        <ele>205.1</ele>
        <time>2018-10-14T06:07:39Z</time>
      </trkpt>
      <trkpt lat="46.36922" lon="2.59591">
        <ele>205.5</ele>
        <time>2018-10-14T06:07:41Z</time>
      </trkpt>
      <trkpt lat="46.3692" lon="2.59581">
        <ele>205.4</ele>
        <time>2018-10-14T06:07:43Z</time>
      </trkpt>
      <trkpt lat="46.36917" lon="2.59571">
        <ele>204.8</ele>
        <time>2018-10-14T06:07:45Z</time>
      </trkpt>
      <trkpt lat="46.36913" lon="2.59561">
        <ele>204.8</ele>
        <time>2018-10-14T06:07:47Z</time>
      </trkpt>
      <trkpt lat="46.36908" lon="2.59553">
        <ele>205.1</ele>
        <time>2018-10-14T06:07:49Z</time>
      </trkpt>
      <trkpt lat="46.36902" lon="2.59545">
        <ele>205.9</ele>
        <time>2018-10-14T06:07:51Z</time>
      </trkpt>
      <trkpt lat="46.36896" lon="2.59538">
        <ele>206.3</ele>
        <time>2018-10-14T06:07:53Z</time>
      </trkpt>
      <trkpt lat="46.36889" lon="2.5953">
        <ele>206.3</ele>
        <time>2018-10-14T06:07:55Z</time>
      </trkpt>
      <trkpt lat="46.36882" lon="2.59523">
        <ele>206.4</ele>
        <time>2018-10-14T06:07:57Z</time>
      </trkpt>
      <trkpt lat="46.36875" lon="2.59516">
        <ele>206.6</ele>
        <time>2018-10-14T06:07:59Z</time>
      </trkpt>
      <trkpt lat="46.36868" lon="2.59509">
        <ele>205.9</ele>
        <time>2018-10-14T06:08:01Z</time>
      </trkpt>
      <trkpt lat="46.36861" lon="2.59502">
        <ele>205.7</ele>
        <time>2018-10-14T06:08:03Z</time>
      </trkpt>
      <trkpt lat="46.36854" lon="2.59496">
        <ele>205.5</ele>
        <time>2018-10-14T06:08:05Z</time>
      </trkpt>
      <trkpt lat="46.36846" lon="2.59489">
        <ele>205.7</ele>
        <time>2018-10-14T06:08:07Z</time>
      </trkpt>
      <trkpt lat="46.36839" lon="2.59481">
        <ele>205.8</ele>
        <time>2018-10-14T06:08:09Z</time>
      </trkpt>
      <trkpt lat="46.36832" lon="2.59475">
        <ele>205.5</ele>
        <time>2018-10-14T06:08:11Z</time>
      </trkpt>
      <trkpt lat="46.36824" lon="2.59467">
        <ele>205.5</ele>
        <time>2018-10-14T06:08:13Z</time>
      </trkpt>
      <trkpt lat="46.3682" lon="2.59464">
        <ele>205.7</ele>
        <time>2018-10-14T06:08:14Z</time>
      </trkpt>
      <trkpt lat="46.36813" lon="2.59457">
        <ele>205.9</ele>
        <time>2018-10-14T06:08:16Z</time>
      </trkpt>
      <trkpt lat="46.36805" lon="2.5945">
        <ele>206</ele>
        <time>2018-10-14T06:08:18Z</time>
      </trkpt>
      <trkpt lat="46.36798" lon="2.59444">
        <ele>206.6</ele>
        <time>2018-10-14T06:08:20Z</time>
      </trkpt>
      <trkpt lat="46.36794" lon="2.59441">
        <ele>206.6</ele>
        <time>2018-10-14T06:08:21Z</time>
      </trkpt>
      <trkpt lat="46.3679" lon="2.59437">
        <ele>206.5</ele>
        <time>2018-10-14T06:08:22Z</time>
      </trkpt>
      <trkpt lat="46.36778" lon="2.59428">
        <ele>206.9</ele>
        <time>2018-10-14T06:08:25Z</time>
      </trkpt>
      <trkpt lat="46.36771" lon="2.59423">
        <ele>206.4</ele>
        <time>2018-10-14T06:08:27Z</time>
      </trkpt>
      <trkpt lat="46.36767" lon="2.5942">
        <ele>206.3</ele>
        <time>2018-10-14T06:08:28Z</time>
      </trkpt>
      <trkpt lat="46.36763" lon="2.59416">
        <ele>206.3</ele>
        <time>2018-10-14T06:08:29Z</time>
      </trkpt>
      <trkpt lat="46.36758" lon="2.59412">
        <ele>206.2</ele>
        <time>2018-10-14T06:08:30Z</time>
      </trkpt>
      <trkpt lat="46.36754" lon="2.59409">
        <ele>205.8</ele>
        <time>2018-10-14T06:08:31Z</time>
      </trkpt>
      <trkpt lat="46.36749" lon="2.59406">
        <ele>205.4</ele>
        <time>2018-10-14T06:08:32Z</time>
      </trkpt>
      <trkpt lat="46.36743" lon="2.59402">
        <ele>205.4</ele>
        <time>2018-10-14T06:08:33Z</time>
      </trkpt>
      <trkpt lat="46.36738" lon="2.59398">
        <ele>205.3</ele>
        <time>2018-10-14T06:08:34Z</time>
      </trkpt>
      <trkpt lat="46.36733" lon="2.59393">
        <ele>205.1</ele>
        <time>2018-10-14T06:08:35Z</time>
      </trkpt>
      <trkpt lat="46.36729" lon="2.59386">
        <ele>204.8</ele>
        <time>2018-10-14T06:08:36Z</time>
      </trkpt>
      <trkpt lat="46.36725" lon="2.59378">
        <ele>204.7</ele>
        <time>2018-10-14T06:08:37Z</time>
      </trkpt>
      <trkpt lat="46.36723" lon="2.59369">
        <ele>204.4</ele>
        <time>2018-10-14T06:08:38Z</time>
      </trkpt>
      <trkpt lat="46.36721" lon="2.59359">
        <ele>204.2</ele>
        <time>2018-10-14T06:08:39Z</time>
      </trkpt>
      <trkpt lat="46.3672" lon="2.59349">
        <ele>203.9</ele>
        <time>2018-10-14T06:08:40Z</time>
      </trkpt>
      <trkpt lat="46.3672" lon="2.59339">
        <ele>203.7</ele>
        <time>2018-10-14T06:08:41Z</time>
      </trkpt>
      <trkpt lat="46.36721" lon="2.59331">
        <ele>203.5</ele>
        <time>2018-10-14T06:08:42Z</time>
      </trkpt>
      <trkpt lat="46.36722" lon="2.59322">
        <ele>203.3</ele>
        <time>2018-10-14T06:08:43Z</time>
      </trkpt>
      <trkpt lat="46.36722" lon="2.59313">
        <ele>203.2</ele>
        <time>2018-10-14T06:08:44Z</time>
      </trkpt>
      <trkpt lat="46.36721" lon="2.59305">
        <ele>203</ele>
        <time>2018-10-14T06:08:45Z</time>
      </trkpt>
      <trkpt lat="46.36719" lon="2.59298">
        <ele>202.9</ele>
        <time>2018-10-14T06:08:46Z</time>
      </trkpt>
      <trkpt lat="46.36716" lon="2.59292">
        <ele>203.1</ele>
        <time>2018-10-14T06:08:47Z</time>
      </trkpt>
      <trkpt lat="46.36711" lon="2.59288">
        <ele>203.3</ele>
        <time>2018-10-14T06:08:48Z</time>
      </trkpt>
      <trkpt lat="46.36706" lon="2.59285">
        <ele>203.4</ele>
        <time>2018-10-14T06:08:49Z</time>
      </trkpt>
      <trkpt lat="46.36701" lon="2.59283">
        <ele>203.9</ele>
        <time>2018-10-14T06:08:50Z</time>
      </trkpt>
      <trkpt lat="46.36697" lon="2.59282">
        <ele>204.2</ele>
        <time>2018-10-14T06:08:51Z</time>
      </trkpt>
      <trkpt lat="46.36692" lon="2.59282">
        <ele>204.2</ele>
        <time>2018-10-14T06:08:52Z</time>
      </trkpt>
      <trkpt lat="46.36683" lon="2.5928">
        <ele>204.2</ele>
        <time>2018-10-14T06:08:54Z</time>
      </trkpt>
      <trkpt lat="46.36674" lon="2.59279">
        <ele>204.3</ele>
        <time>2018-10-14T06:08:56Z</time>
      </trkpt>
      <trkpt lat="46.36666" lon="2.59277">
        <ele>204.9</ele>
        <time>2018-10-14T06:08:58Z</time>
      </trkpt>
      <trkpt lat="46.36659" lon="2.59276">
        <ele>205.4</ele>
        <time>2018-10-14T06:09:00Z</time>
      </trkpt>
      <trkpt lat="46.36651" lon="2.59274">
        <ele>205.6</ele>
        <time>2018-10-14T06:09:02Z</time>
      </trkpt>
      <trkpt lat="46.36643" lon="2.59272">
        <ele>205.9</ele>
        <time>2018-10-14T06:09:04Z</time>
      </trkpt>
      <trkpt lat="46.36636" lon="2.59269">
        <ele>206.7</ele>
        <time>2018-10-14T06:09:06Z</time>
      </trkpt>
      <trkpt lat="46.3663" lon="2.59263">
        <ele>207.4</ele>
        <time>2018-10-14T06:09:08Z</time>
      </trkpt>
      <trkpt lat="46.36625" lon="2.59254">
        <ele>207.7</ele>
        <time>2018-10-14T06:09:10Z</time>
      </trkpt>
      <trkpt lat="46.36621" lon="2.59245">
        <ele>207.9</ele>
        <time>2018-10-14T06:09:12Z</time>
      </trkpt>
      <trkpt lat="46.36614" lon="2.59241">
        <ele>208.3</ele>
        <time>2018-10-14T06:09:14Z</time>
      </trkpt>
      <trkpt lat="46.36606" lon="2.59241">
        <ele>208.7</ele>
        <time>2018-10-14T06:09:16Z</time>
      </trkpt>
      <trkpt lat="46.36597" lon="2.59241">
        <ele>208.8</ele>
        <time>2018-10-14T06:09:18Z</time>
      </trkpt>
      <trkpt lat="46.36589" lon="2.59242">
        <ele>208.8</ele>
        <time>2018-10-14T06:09:20Z</time>
      </trkpt>
      <trkpt lat="46.36581" lon="2.59241">
        <ele>208.8</ele>
        <time>2018-10-14T06:09:22Z</time>
      </trkpt>
      <trkpt lat="46.36576" lon="2.5924">
        <ele>208.6</ele>
        <time>2018-10-14T06:09:23Z</time>
      </trkpt>
      <trkpt lat="46.36563" lon="2.59235">
        <ele>209.1</ele>
        <time>2018-10-14T06:09:26Z</time>
      </trkpt>
      <trkpt lat="46.36556" lon="2.59228">
        <ele>209.2</ele>
        <time>2018-10-14T06:09:28Z</time>
      </trkpt>
      <trkpt lat="46.36554" lon="2.59216">
        <ele>208.7</ele>
        <time>2018-10-14T06:09:30Z</time>
      </trkpt>
      <trkpt lat="46.36553" lon="2.59209">
        <ele>208.4</ele>
        <time>2018-10-14T06:09:31Z</time>
      </trkpt>
      <trkpt lat="46.36553" lon="2.59203">
        <ele>208.2</ele>
        <time>2018-10-14T06:09:32Z</time>
      </trkpt>
      <trkpt lat="46.36552" lon="2.5919">
        <ele>207.3</ele>
        <time>2018-10-14T06:09:34Z</time>
      </trkpt>
      <trkpt lat="46.36551" lon="2.59178">
        <ele>208.1</ele>
        <time>2018-10-14T06:09:36Z</time>
      </trkpt>
      <trkpt lat="46.3655" lon="2.59166">
        <ele>208.4</ele>
        <time>2018-10-14T06:09:38Z</time>
      </trkpt>
      <trkpt lat="46.36549" lon="2.59154">
        <ele>208.4</ele>
        <time>2018-10-14T06:09:40Z</time>
      </trkpt>
      <trkpt lat="46.36548" lon="2.59142">
        <ele>208.3</ele>
        <time>2018-10-14T06:09:42Z</time>
      </trkpt>
      <trkpt lat="46.36547" lon="2.5913">
        <ele>208.1</ele>
        <time>2018-10-14T06:09:44Z</time>
      </trkpt>
      <trkpt lat="46.36547" lon="2.59119">
        <ele>208.3</ele>
        <time>2018-10-14T06:09:46Z</time>
      </trkpt>
      <trkpt lat="46.36546" lon="2.59107">
        <ele>208.1</ele>
        <time>2018-10-14T06:09:48Z</time>
      </trkpt>
      <trkpt lat="46.36545" lon="2.59095">
        <ele>208.2</ele>
        <time>2018-10-14T06:09:50Z</time>
      </trkpt>
      <trkpt lat="46.36544" lon="2.59083">
        <ele>208.6</ele>
        <time>2018-10-14T06:09:52Z</time>
      </trkpt>
      <trkpt lat="46.36543" lon="2.59071">
        <ele>208.8</ele>
        <time>2018-10-14T06:09:54Z</time>
      </trkpt>
      <trkpt lat="46.36543" lon="2.59059">
        <ele>208.6</ele>
        <time>2018-10-14T06:09:56Z</time>
      </trkpt>
      <trkpt lat="46.36542" lon="2.59048">
        <ele>209.2</ele>
        <time>2018-10-14T06:09:58Z</time>
      </trkpt>
      <trkpt lat="46.36541" lon="2.59036">
        <ele>209.2</ele>
        <time>2018-10-14T06:10:00Z</time>
      </trkpt>
      <trkpt lat="46.3654" lon="2.59024">
        <ele>209.9</ele>
        <time>2018-10-14T06:10:02Z</time>
      </trkpt>
      <trkpt lat="46.36539" lon="2.59013">
        <ele>210.1</ele>
        <time>2018-10-14T06:10:04Z</time>
      </trkpt>
      <trkpt lat="46.36538" lon="2.59001">
        <ele>209.7</ele>
        <time>2018-10-14T06:10:06Z</time>
      </trkpt>
      <trkpt lat="46.36536" lon="2.5899">
        <ele>209.2</ele>
        <time>2018-10-14T06:10:08Z</time>
      </trkpt>
      <trkpt lat="46.36536" lon="2.58978">
        <ele>208.9</ele>
        <time>2018-10-14T06:10:10Z</time>
      </trkpt>
      <trkpt lat="46.36535" lon="2.58966">
        <ele>209.2</ele>
        <time>2018-10-14T06:10:12Z</time>
      </trkpt>
      <trkpt lat="46.36533" lon="2.58955">
        <ele>209.8</ele>
        <time>2018-10-14T06:10:14Z</time>
      </trkpt>
      <trkpt lat="46.36532" lon="2.58943">
        <ele>209.8</ele>
        <time>2018-10-14T06:10:16Z</time>
      </trkpt>
      <trkpt lat="46.36531" lon="2.58933">
        <ele>209.9</ele>
        <time>2018-10-14T06:10:18Z</time>
      </trkpt>
      <trkpt lat="46.36532" lon="2.58922">
        <ele>210.5</ele>
        <time>2018-10-14T06:10:21Z</time>
      </trkpt>
      <trkpt lat="46.3653" lon="2.5891">
        <ele>209.9</ele>
        <time>2018-10-14T06:10:25Z</time>
      </trkpt>
      <trkpt lat="46.3653" lon="2.58906">
        <ele>210</ele>
        <time>2018-10-14T06:10:26Z</time>
      </trkpt>
      <trkpt lat="46.36528" lon="2.58888">
        <ele>210.9</ele>
        <time>2018-10-14T06:10:31Z</time>
      </trkpt>
      <trkpt lat="46.36528" lon="2.58878">
        <ele>210.5</ele>
        <time>2018-10-14T06:10:34Z</time>
      </trkpt>
      <trkpt lat="46.36533" lon="2.58872">
        <ele>209.6</ele>
        <time>2018-10-14T06:10:37Z</time>
      </trkpt>
      <trkpt lat="46.36542" lon="2.58871">
        <ele>209.5</ele>
        <time>2018-10-14T06:10:40Z</time>
      </trkpt>
      <trkpt lat="46.3655" lon="2.58871">
        <ele>209.8</ele>
        <time>2018-10-14T06:10:43Z</time>
      </trkpt>
      <trkpt lat="46.36558" lon="2.58869">
        <ele>209.7</ele>
        <time>2018-10-14T06:10:46Z</time>
      </trkpt>
      <trkpt lat="46.36566" lon="2.58865">
        <ele>209.5</ele>
        <time>2018-10-14T06:10:50Z</time>
      </trkpt>
      <trkpt lat="46.36563" lon="2.58854">
        <ele>209.9</ele>
        <time>2018-10-14T06:10:55Z</time>
      </trkpt>
      <trkpt lat="46.36558" lon="2.58845">
        <ele>210.4</ele>
        <time>2018-10-14T06:11:01Z</time>
      </trkpt>
      <trkpt lat="46.36551" lon="2.5884">
        <ele>209.7</ele>
        <time>2018-10-14T06:11:05Z</time>
      </trkpt>
      <trkpt lat="46.36543" lon="2.58841">
        <ele>209.9</ele>
        <time>2018-10-14T06:11:09Z</time>
      </trkpt>
      <trkpt lat="46.36551" lon="2.58843">
        <ele>209.6</ele>
        <time>2018-10-14T06:15:09Z</time>
      </trkpt>
      <trkpt lat="46.36552" lon="2.58843">
        <ele>209.5</ele>
        <time>2018-10-14T06:15:10Z</time>
      </trkpt>
      <trkpt lat="46.36565" lon="2.58859">
        <ele>210.5</ele>
        <time>2018-10-14T06:15:20Z</time>
      </trkpt>
      <trkpt lat="46.36569" lon="2.58867">
        <ele>210.1</ele>
        <time>2018-10-14T06:15:23Z</time>
      </trkpt>
      <trkpt lat="46.36576" lon="2.58868">
        <ele>210.3</ele>
        <time>2018-10-14T06:15:26Z</time>
      </trkpt>
      <trkpt lat="46.36584" lon="2.58867">
        <ele>209.7</ele>
        <time>2018-10-14T06:15:29Z</time>
      </trkpt>
      <trkpt lat="46.36593" lon="2.58866">
        <ele>209.8</ele>
        <time>2018-10-14T06:15:32Z</time>
      </trkpt>
      <trkpt lat="46.36602" lon="2.58866">
        <ele>209.5</ele>
        <time>2018-10-14T06:15:35Z</time>
      </trkpt>
      <trkpt lat="46.3661" lon="2.58869">
        <ele>209.9</ele>
        <time>2018-10-14T06:15:38Z</time>
      </trkpt>
      <trkpt lat="46.36615" lon="2.58877">
        <ele>209.8</ele>
        <time>2018-10-14T06:15:41Z</time>
      </trkpt>
      <trkpt lat="46.36619" lon="2.58889">
        <ele>209.9</ele>
        <time>2018-10-14T06:15:44Z</time>
      </trkpt>
      <trkpt lat="46.36621" lon="2.58897">
        <ele>209.3</ele>
        <time>2018-10-14T06:15:46Z</time>
      </trkpt>
      <trkpt lat="46.36626" lon="2.58907">
        <ele>208.8</ele>
        <time>2018-10-14T06:15:49Z</time>
      </trkpt>
      <trkpt lat="46.36632" lon="2.5891">
        <ele>209.1</ele>
        <time>2018-10-14T06:15:51Z</time>
      </trkpt>
      <trkpt lat="46.36639" lon="2.58909">
        <ele>209.2</ele>
        <time>2018-10-14T06:15:53Z</time>
      </trkpt>
      <trkpt lat="46.36646" lon="2.58909">
        <ele>209.3</ele>
        <time>2018-10-14T06:15:55Z</time>
      </trkpt>
      <trkpt lat="46.36653" lon="2.58908">
        <ele>209.4</ele>
        <time>2018-10-14T06:15:57Z</time>
      </trkpt>
      <trkpt lat="46.3666" lon="2.58907">
        <ele>209.3</ele>
        <time>2018-10-14T06:15:59Z</time>
      </trkpt>
      <trkpt lat="46.36668" lon="2.58906">
        <ele>209.1</ele>
        <time>2018-10-14T06:16:01Z</time>
      </trkpt>
      <trkpt lat="46.36676" lon="2.58904">
        <ele>209</ele>
        <time>2018-10-14T06:16:03Z</time>
      </trkpt>
      <trkpt lat="46.36683" lon="2.58903">
        <ele>208.8</ele>
        <time>2018-10-14T06:16:05Z</time>
      </trkpt>
      <trkpt lat="46.36692" lon="2.58903">
        <ele>209.5</ele>
        <time>2018-10-14T06:16:07Z</time>
      </trkpt>
      <trkpt lat="46.367" lon="2.58902">
        <ele>210.5</ele>
        <time>2018-10-14T06:16:09Z</time>
      </trkpt>
      <trkpt lat="46.36708" lon="2.58902">
        <ele>209.5</ele>
        <time>2018-10-14T06:16:11Z</time>
      </trkpt>
      <trkpt lat="46.36712" lon="2.58901">
        <ele>209.6</ele>
        <time>2018-10-14T06:16:12Z</time>
      </trkpt>
      <trkpt lat="46.36725" lon="2.58898">
        <ele>209.3</ele>
        <time>2018-10-14T06:16:15Z</time>
      </trkpt>
      <trkpt lat="46.36734" lon="2.58897">
        <ele>209.1</ele>
        <time>2018-10-14T06:16:17Z</time>
      </trkpt>
      <trkpt lat="46.36743" lon="2.58895">
        <ele>208.9</ele>
        <time>2018-10-14T06:16:19Z</time>
      </trkpt>
      <trkpt lat="46.36751" lon="2.58893">
        <ele>208.5</ele>
        <time>2018-10-14T06:16:21Z</time>
      </trkpt>
      <trkpt lat="46.3676" lon="2.58892">
        <ele>207</ele>
        <time>2018-10-14T06:16:23Z</time>
      </trkpt>
      <trkpt lat="46.36767" lon="2.58891">
        <ele>207</ele>
        <time>2018-10-14T06:16:25Z</time>
      </trkpt>
      <trkpt lat="46.36775" lon="2.5889">
        <ele>209.2</ele>
        <time>2018-10-14T06:16:27Z</time>
      </trkpt>
      <trkpt lat="46.36782" lon="2.58893">
        <ele>209.7</ele>
        <time>2018-10-14T06:16:29Z</time>
      </trkpt>
      <trkpt lat="46.36789" lon="2.58899">
        <ele>209.1</ele>
        <time>2018-10-14T06:16:31Z</time>
      </trkpt>
      <trkpt lat="46.36795" lon="2.58907">
        <ele>208.6</ele>
        <time>2018-10-14T06:16:33Z</time>
      </trkpt>
      <trkpt lat="46.368" lon="2.58916">
        <ele>208.7</ele>
        <time>2018-10-14T06:16:35Z</time>
      </trkpt>
      <trkpt lat="46.36803" lon="2.58927">
        <ele>209</ele>
        <time>2018-10-14T06:16:37Z</time>
      </trkpt>
      <trkpt lat="46.36804" lon="2.58939">
        <ele>209.2</ele>
        <time>2018-10-14T06:16:39Z</time>
      </trkpt>
      <trkpt lat="46.36805" lon="2.58952">
        <ele>209</ele>
        <time>2018-10-14T06:16:41Z</time>
      </trkpt>
      <trkpt lat="46.36805" lon="2.58958">
        <ele>208.7</ele>
        <time>2018-10-14T06:16:42Z</time>
      </trkpt>
      <trkpt lat="46.36807" lon="2.58971">
        <ele>207.8</ele>
        <time>2018-10-14T06:16:44Z</time>
      </trkpt>
      <trkpt lat="46.36807" lon="2.58978">
        <ele>207.8</ele>
        <time>2018-10-14T06:16:45Z</time>
      </trkpt>
      <trkpt lat="46.36808" lon="2.58984">
        <ele>207.7</ele>
        <time>2018-10-14T06:16:46Z</time>
      </trkpt>
      <trkpt lat="46.36808" lon="2.58991">
        <ele>207.7</ele>
        <time>2018-10-14T06:16:47Z</time>
      </trkpt>
      <trkpt lat="46.36809" lon="2.58997">
        <ele>207.6</ele>
        <time>2018-10-14T06:16:48Z</time>
      </trkpt>
      <trkpt lat="46.36809" lon="2.59004">
        <ele>207.6</ele>
        <time>2018-10-14T06:16:49Z</time>
      </trkpt>
      <trkpt lat="46.3681" lon="2.59011">
        <ele>207.7</ele>
        <time>2018-10-14T06:16:50Z</time>
      </trkpt>
      <trkpt lat="46.3681" lon="2.59018">
        <ele>207.9</ele>
        <time>2018-10-14T06:16:51Z</time>
      </trkpt>
      <trkpt lat="46.3681" lon="2.59024">
        <ele>208</ele>
        <time>2018-10-14T06:16:52Z</time>
      </trkpt>
      <trkpt lat="46.3681" lon="2.59031">
        <ele>207.9</ele>
        <time>2018-10-14T06:16:53Z</time>
      </trkpt>
      <trkpt lat="46.3681" lon="2.59037">
        <ele>207.8</ele>
        <time>2018-10-14T06:16:54Z</time>
      </trkpt>
      <trkpt lat="46.36808" lon="2.5905">
        <ele>208</ele>
        <time>2018-10-14T06:16:56Z</time>
      </trkpt>
      <trkpt lat="46.36805" lon="2.59062">
        <ele>208.4</ele>
        <time>2018-10-14T06:16:58Z</time>
      </trkpt>
      <trkpt lat="46.36801" lon="2.59073">
        <ele>208.5</ele>
        <time>2018-10-14T06:17:00Z</time>
      </trkpt>
      <trkpt lat="46.36797" lon="2.59084">
        <ele>208.4</ele>
        <time>2018-10-14T06:17:02Z</time>
      </trkpt>
      <trkpt lat="46.36794" lon="2.59094">
        <ele>208.5</ele>
        <time>2018-10-14T06:17:04Z</time>
      </trkpt>
      <trkpt lat="46.3679" lon="2.59104">
        <ele>208.6</ele>
        <time>2018-10-14T06:17:06Z</time>
      </trkpt>
      <trkpt lat="46.36786" lon="2.59115">
        <ele>208.8</ele>
        <time>2018-10-14T06:17:08Z</time>
      </trkpt>
      <trkpt lat="46.36782" lon="2.59125">
        <ele>209.1</ele>
        <time>2018-10-14T06:17:10Z</time>
      </trkpt>
      <trkpt lat="46.36774" lon="2.59129">
        <ele>209.2</ele>
        <time>2018-10-14T06:17:12Z</time>
      </trkpt>
      <trkpt lat="46.3677" lon="2.59129">
        <ele>209.1</ele>
        <time>2018-10-14T06:17:13Z</time>
      </trkpt>
      <trkpt lat="46.36758" lon="2.59132">
        <ele>209.4</ele>
        <time>2018-10-14T06:17:16Z</time>
      </trkpt>
      <trkpt lat="46.36752" lon="2.59137">
        <ele>209.5</ele>
        <time>2018-10-14T06:17:18Z</time>
      </trkpt>
      <trkpt lat="46.36745" lon="2.59142">
        <ele>209.7</ele>
        <time>2018-10-14T06:17:20Z</time>
      </trkpt>
      <trkpt lat="46.36737" lon="2.59141">
        <ele>209.2</ele>
        <time>2018-10-14T06:17:22Z</time>
      </trkpt>
      <trkpt lat="46.36729" lon="2.5914">
        <ele>209.4</ele>
        <time>2018-10-14T06:17:24Z</time>
      </trkpt>
      <trkpt lat="46.36724" lon="2.59137">
        <ele>209.7</ele>
        <time>2018-10-14T06:17:25Z</time>
      </trkpt>
      <trkpt lat="46.3672" lon="2.59135">
        <ele>209.4</ele>
        <time>2018-10-14T06:17:26Z</time>
      </trkpt>
      <trkpt lat="46.36715" lon="2.59133">
        <ele>209.2</ele>
        <time>2018-10-14T06:17:27Z</time>
      </trkpt>
      <trkpt lat="46.36711" lon="2.59132">
        <ele>209.1</ele>
        <time>2018-10-14T06:17:28Z</time>
      </trkpt>
      <trkpt lat="46.36706" lon="2.59131">
        <ele>209</ele>
        <time>2018-10-14T06:17:29Z</time>
      </trkpt>
      <trkpt lat="46.36701" lon="2.5913">
        <ele>208.9</ele>
        <time>2018-10-14T06:17:30Z</time>
      </trkpt>
      <trkpt lat="46.36697" lon="2.5913">
        <ele>208.9</ele>
        <time>2018-10-14T06:17:31Z</time>
      </trkpt>
      <trkpt lat="46.36688" lon="2.59131">
        <ele>208.9</ele>
        <time>2018-10-14T06:17:33Z</time>
      </trkpt>
      <trkpt lat="46.3668" lon="2.59134">
        <ele>209</ele>
        <time>2018-10-14T06:17:35Z</time>
      </trkpt>
      <trkpt lat="46.36672" lon="2.59139">
        <ele>209.3</ele>
        <time>2018-10-14T06:17:37Z</time>
      </trkpt>
      <trkpt lat="46.36665" lon="2.59146">
        <ele>209.7</ele>
        <time>2018-10-14T06:17:39Z</time>
      </trkpt>
      <trkpt lat="46.36658" lon="2.59152">
        <ele>209.1</ele>
        <time>2018-10-14T06:17:41Z</time>
      </trkpt>
      <trkpt lat="46.36652" lon="2.5916">
        <ele>208.8</ele>
        <time>2018-10-14T06:17:43Z</time>
      </trkpt>
      <trkpt lat="46.36647" lon="2.59171">
        <ele>208.9</ele>
        <time>2018-10-14T06:17:45Z</time>
      </trkpt>
      <trkpt lat="46.36643" lon="2.59181">
        <ele>208.9</ele>
        <time>2018-10-14T06:17:47Z</time>
      </trkpt>
      <trkpt lat="46.36639" lon="2.59192">
        <ele>208.7</ele>
        <time>2018-10-14T06:17:49Z</time>
      </trkpt>
      <trkpt lat="46.36634" lon="2.59202">
        <ele>208.9</ele>
        <time>2018-10-14T06:17:51Z</time>
      </trkpt>
      <trkpt lat="46.3663" lon="2.59213">
        <ele>209.2</ele>
        <time>2018-10-14T06:17:53Z</time>
      </trkpt>
      <trkpt lat="46.36627" lon="2.59225">
        <ele>209.6</ele>
        <time>2018-10-14T06:17:55Z</time>
      </trkpt>
      <trkpt lat="46.36623" lon="2.59235">
        <ele>209.2</ele>
        <time>2018-10-14T06:17:57Z</time>
      </trkpt>
      <trkpt lat="46.36619" lon="2.59245">
        <ele>209.1</ele>
        <time>2018-10-14T06:17:59Z</time>
      </trkpt>
      <trkpt lat="46.3662" lon="2.59256">
        <ele>209.6</ele>
        <time>2018-10-14T06:18:01Z</time>
      </trkpt>
      <trkpt lat="46.36624" lon="2.59267">
        <ele>209.5</ele>
        <time>2018-10-14T06:18:03Z</time>
      </trkpt>
      <trkpt lat="46.3663" lon="2.59275">
        <ele>209.5</ele>
        <time>2018-10-14T06:18:05Z</time>
      </trkpt>
      <trkpt lat="46.36639" lon="2.5928">
        <ele>208.9</ele>
        <time>2018-10-14T06:18:07Z</time>
      </trkpt>
      <trkpt lat="46.36644" lon="2.59281">
        <ele>208.7</ele>
        <time>2018-10-14T06:18:08Z</time>
      </trkpt>
      <trkpt lat="46.36649" lon="2.59281">
        <ele>208.4</ele>
        <time>2018-10-14T06:18:09Z</time>
      </trkpt>
      <trkpt lat="46.36654" lon="2.59282">
        <ele>208.3</ele>
        <time>2018-10-14T06:18:10Z</time>
      </trkpt>
      <trkpt lat="46.3666" lon="2.59283">
        <ele>208</ele>
        <time>2018-10-14T06:18:11Z</time>
      </trkpt>
      <trkpt lat="46.36667" lon="2.59284">
        <ele>207.8</ele>
        <time>2018-10-14T06:18:12Z</time>
      </trkpt>
      <trkpt lat="46.36673" lon="2.59285">
        <ele>207.4</ele>
        <time>2018-10-14T06:18:13Z</time>
      </trkpt>
      <trkpt lat="46.3668" lon="2.59286">
        <ele>207.1</ele>
        <time>2018-10-14T06:18:14Z</time>
      </trkpt>
      <trkpt lat="46.36687" lon="2.59287">
        <ele>206.8</ele>
        <time>2018-10-14T06:18:15Z</time>
      </trkpt>
      <trkpt lat="46.36694" lon="2.59289">
        <ele>206.1</ele>
        <time>2018-10-14T06:18:16Z</time>
      </trkpt>
      <trkpt lat="46.36701" lon="2.5929">
        <ele>205.5</ele>
        <time>2018-10-14T06:18:17Z</time>
      </trkpt>
      <trkpt lat="46.36708" lon="2.59293">
        <ele>205.5</ele>
        <time>2018-10-14T06:18:18Z</time>
      </trkpt>
      <trkpt lat="46.36714" lon="2.59298">
        <ele>205.5</ele>
        <time>2018-10-14T06:18:19Z</time>
      </trkpt>
      <trkpt lat="46.36719" lon="2.59307">
        <ele>205.4</ele>
        <time>2018-10-14T06:18:20Z</time>
      </trkpt>
      <trkpt lat="46.36721" lon="2.59317">
        <ele>204.5</ele>
        <time>2018-10-14T06:18:21Z</time>
      </trkpt>
      <trkpt lat="46.36721" lon="2.59328">
        <ele>203.9</ele>
        <time>2018-10-14T06:18:22Z</time>
      </trkpt>
      <trkpt lat="46.36722" lon="2.59339">
        <ele>203.5</ele>
        <time>2018-10-14T06:18:23Z</time>
      </trkpt>
      <trkpt lat="46.36723" lon="2.59349">
        <ele>203.2</ele>
        <time>2018-10-14T06:18:24Z</time>
      </trkpt>
      <trkpt lat="46.36724" lon="2.59359">
        <ele>203.5</ele>
        <time>2018-10-14T06:18:25Z</time>
      </trkpt>
      <trkpt lat="46.36725" lon="2.59368">
        <ele>203.7</ele>
        <time>2018-10-14T06:18:26Z</time>
      </trkpt>
      <trkpt lat="46.36726" lon="2.59376">
        <ele>203.9</ele>
        <time>2018-10-14T06:18:27Z</time>
      </trkpt>
      <trkpt lat="46.36728" lon="2.59383">
        <ele>203.8</ele>
        <time>2018-10-14T06:18:28Z</time>
      </trkpt>
      <trkpt lat="46.36731" lon="2.59389">
        <ele>203.7</ele>
        <time>2018-10-14T06:18:29Z</time>
      </trkpt>
      <trkpt lat="46.36733" lon="2.59394">
        <ele>204.4</ele>
        <time>2018-10-14T06:18:30Z</time>
      </trkpt>
      <trkpt lat="46.3674" lon="2.59403">
        <ele>205.2</ele>
        <time>2018-10-14T06:18:32Z</time>
      </trkpt>
      <trkpt lat="46.36747" lon="2.59411">
        <ele>205.3</ele>
        <time>2018-10-14T06:18:34Z</time>
      </trkpt>
      <trkpt lat="46.36754" lon="2.59416">
        <ele>204.9</ele>
        <time>2018-10-14T06:18:36Z</time>
      </trkpt>
      <trkpt lat="46.3676" lon="2.59421">
        <ele>205.8</ele>
        <time>2018-10-14T06:18:38Z</time>
      </trkpt>
      <trkpt lat="46.36766" lon="2.59426">
        <ele>206.3</ele>
        <time>2018-10-14T06:18:40Z</time>
      </trkpt>
      <trkpt lat="46.36772" lon="2.59431">
        <ele>206.7</ele>
        <time>2018-10-14T06:18:42Z</time>
      </trkpt>
      <trkpt lat="46.36779" lon="2.59436">
        <ele>207</ele>
        <time>2018-10-14T06:18:44Z</time>
      </trkpt>
      <trkpt lat="46.36786" lon="2.59441">
        <ele>207.2</ele>
        <time>2018-10-14T06:18:46Z</time>
      </trkpt>
      <trkpt lat="46.36793" lon="2.59447">
        <ele>207.6</ele>
        <time>2018-10-14T06:18:48Z</time>
      </trkpt>
      <trkpt lat="46.36801" lon="2.59453">
        <ele>207.2</ele>
        <time>2018-10-14T06:18:50Z</time>
      </trkpt>
      <trkpt lat="46.36808" lon="2.5946">
        <ele>206.9</ele>
        <time>2018-10-14T06:18:52Z</time>
      </trkpt>
      <trkpt lat="46.36816" lon="2.59466">
        <ele>206.7</ele>
        <time>2018-10-14T06:18:54Z</time>
      </trkpt>
      <trkpt lat="46.3682" lon="2.5947">
        <ele>206.6</ele>
        <time>2018-10-14T06:18:55Z</time>
      </trkpt>
      <trkpt lat="46.36824" lon="2.59474">
        <ele>206.9</ele>
        <time>2018-10-14T06:18:56Z</time>
      </trkpt>
      <trkpt lat="46.36828" lon="2.59477">
        <ele>207</ele>
        <time>2018-10-14T06:18:57Z</time>
      </trkpt>
      <trkpt lat="46.36832" lon="2.5948">
        <ele>207.2</ele>
        <time>2018-10-14T06:18:58Z</time>
      </trkpt>
      <trkpt lat="46.36836" lon="2.59483">
        <ele>207</ele>
        <time>2018-10-14T06:18:59Z</time>
      </trkpt>
      <trkpt lat="46.36843" lon="2.59491">
        <ele>206.7</ele>
        <time>2018-10-14T06:19:01Z</time>
      </trkpt>
      <trkpt lat="46.3685" lon="2.59498">
        <ele>206.6</ele>
        <time>2018-10-14T06:19:03Z</time>
      </trkpt>
      <trkpt lat="46.36858" lon="2.59505">
        <ele>206.8</ele>
        <time>2018-10-14T06:19:05Z</time>
      </trkpt>
      <trkpt lat="46.36865" lon="2.59512">
        <ele>206.6</ele>
        <time>2018-10-14T06:19:07Z</time>
      </trkpt>
      <trkpt lat="46.36872" lon="2.5952">
        <ele>206.9</ele>
        <time>2018-10-14T06:19:09Z</time>
      </trkpt>
      <trkpt lat="46.36876" lon="2.59524">
        <ele>207.1</ele>
        <time>2018-10-14T06:19:10Z</time>
      </trkpt>
      <trkpt lat="46.36879" lon="2.59528">
        <ele>206.7</ele>
        <time>2018-10-14T06:19:11Z</time>
      </trkpt>
      <trkpt lat="46.36883" lon="2.59531">
        <ele>206.5</ele>
        <time>2018-10-14T06:19:12Z</time>
      </trkpt>
      <trkpt lat="46.36887" lon="2.59535">
        <ele>206.6</ele>
        <time>2018-10-14T06:19:13Z</time>
      </trkpt>
      <trkpt lat="46.36894" lon="2.59543">
        <ele>206.3</ele>
        <time>2018-10-14T06:19:15Z</time>
      </trkpt>
      <trkpt lat="46.36898" lon="2.59547">
        <ele>206.1</ele>
        <time>2018-10-14T06:19:16Z</time>
      </trkpt>
      <trkpt lat="46.36901" lon="2.59551">
        <ele>205.9</ele>
        <time>2018-10-14T06:19:17Z</time>
      </trkpt>
      <trkpt lat="46.36905" lon="2.59556">
        <ele>205.6</ele>
        <time>2018-10-14T06:19:18Z</time>
      </trkpt>
      <trkpt lat="46.36908" lon="2.59561">
        <ele>205.4</ele>
        <time>2018-10-14T06:19:19Z</time>
      </trkpt>
      <trkpt lat="46.36911" lon="2.59566">
        <ele>205.8</ele>
        <time>2018-10-14T06:19:20Z</time>
      </trkpt>
      <trkpt lat="46.36914" lon="2.59572">
        <ele>206.1</ele>
        <time>2018-10-14T06:19:21Z</time>
      </trkpt>
      <trkpt lat="46.36916" lon="2.59578">
        <ele>206.3</ele>
        <time>2018-10-14T06:19:22Z</time>
      </trkpt>
      <trkpt lat="46.36918" lon="2.59584">
        <ele>206.1</ele>
        <time>2018-10-14T06:19:23Z</time>
      </trkpt>
      <trkpt lat="46.36919" lon="2.59591">
        <ele>205.9</ele>
        <time>2018-10-14T06:19:24Z</time>
      </trkpt>
      <trkpt lat="46.36921" lon="2.59598">
        <ele>205.9</ele>
        <time>2018-10-14T06:19:25Z</time>
      </trkpt>
      <trkpt lat="46.36922" lon="2.59606">
        <ele>205.9</ele>
        <time>2018-10-14T06:19:26Z</time>
      </trkpt>
      <trkpt lat="46.36923" lon="2.59613">
        <ele>205.7</ele>
        <time>2018-10-14T06:19:27Z</time>
      </trkpt>
      <trkpt lat="46.36923" lon="2.59621">
        <ele>205.6</ele>
        <time>2018-10-14T06:19:28Z</time>
      </trkpt>
      <trkpt lat="46.36924" lon="2.59629">
        <ele>205.5</ele>
        <time>2018-10-14T06:19:29Z</time>
      </trkpt>
      <trkpt lat="46.36924" lon="2.59636">
        <ele>205.5</ele>
        <time>2018-10-14T06:19:30Z</time>
      </trkpt>
      <trkpt lat="46.36923" lon="2.59644">
        <ele>205.4</ele>
        <time>2018-10-14T06:19:31Z</time>
      </trkpt>
      <trkpt lat="46.36923" lon="2.59651">
        <ele>205.7</ele>
        <time>2018-10-14T06:19:32Z</time>
      </trkpt>
      <trkpt lat="46.36922" lon="2.59658">
        <ele>205.8</ele>
        <time>2018-10-14T06:19:33Z</time>
      </trkpt>
      <trkpt lat="46.36922" lon="2.59665">
        <ele>205.6</ele>
        <time>2018-10-14T06:19:34Z</time>
      </trkpt>
      <trkpt lat="46.36923" lon="2.59672">
        <ele>205.5</ele>
        <time>2018-10-14T06:19:35Z</time>
      </trkpt>
      <trkpt lat="46.36925" lon="2.59684">
        <ele>205.2</ele>
        <time>2018-10-14T06:19:37Z</time>
      </trkpt>
      <trkpt lat="46.36933" lon="2.59692">
        <ele>205.3</ele>
        <time>2018-10-14T06:19:40Z</time>
      </trkpt>
      <trkpt lat="46.36938" lon="2.59695">
        <ele>204.8</ele>
        <time>2018-10-14T06:19:42Z</time>
      </trkpt>
      <trkpt lat="46.36945" lon="2.59699">
        <ele>204.4</ele>
        <time>2018-10-14T06:19:44Z</time>
      </trkpt>
      <trkpt lat="46.36953" lon="2.59703">
        <ele>204.4</ele>
        <time>2018-10-14T06:19:46Z</time>
      </trkpt>
      <trkpt lat="46.36961" lon="2.59707">
        <ele>204.1</ele>
        <time>2018-10-14T06:19:48Z</time>
      </trkpt>
      <trkpt lat="46.36965" lon="2.5971">
        <ele>204.3</ele>
        <time>2018-10-14T06:19:49Z</time>
      </trkpt>
      <trkpt lat="46.3697" lon="2.59712">
        <ele>204.5</ele>
        <time>2018-10-14T06:19:50Z</time>
      </trkpt>
      <trkpt lat="46.36975" lon="2.59714">
        <ele>203.9</ele>
        <time>2018-10-14T06:19:51Z</time>
      </trkpt>
      <trkpt lat="46.36979" lon="2.59716">
        <ele>203.4</ele>
        <time>2018-10-14T06:19:52Z</time>
      </trkpt>
      <trkpt lat="46.36984" lon="2.59718">
        <ele>203.7</ele>
        <time>2018-10-14T06:19:53Z</time>
      </trkpt>
      <trkpt lat="46.36988" lon="2.5972">
        <ele>203.8</ele>
        <time>2018-10-14T06:19:54Z</time>
      </trkpt>
      <trkpt lat="46.36993" lon="2.59722">
        <ele>204</ele>
        <time>2018-10-14T06:19:55Z</time>
      </trkpt>
      <trkpt lat="46.36998" lon="2.59725">
        <ele>203.8</ele>
        <time>2018-10-14T06:19:56Z</time>
      </trkpt>
      <trkpt lat="46.37003" lon="2.59727">
        <ele>203.7</ele>
        <time>2018-10-14T06:19:57Z</time>
      </trkpt>
      <trkpt lat="46.37007" lon="2.59729">
        <ele>203.8</ele>
        <time>2018-10-14T06:19:58Z</time>
      </trkpt>
      <trkpt lat="46.37012" lon="2.59731">
        <ele>203.9</ele>
        <time>2018-10-14T06:19:59Z</time>
      </trkpt>
      <trkpt lat="46.37017" lon="2.59733">
        <ele>204</ele>
        <time>2018-10-14T06:20:00Z</time>
      </trkpt>
      <trkpt lat="46.37022" lon="2.59736">
        <ele>203.8</ele>
        <time>2018-10-14T06:20:01Z</time>
      </trkpt>
      <trkpt lat="46.37027" lon="2.59738">
        <ele>203.6</ele>
        <time>2018-10-14T06:20:02Z</time>
      </trkpt>
      <trkpt lat="46.37032" lon="2.5974">
        <ele>203.4</ele>
        <time>2018-10-14T06:20:03Z</time>
      </trkpt>
      <trkpt lat="46.37037" lon="2.59743">
        <ele>203.3</ele>
        <time>2018-10-14T06:20:04Z</time>
      </trkpt>
      <trkpt lat="46.37042" lon="2.59745">
        <ele>203.2</ele>
        <time>2018-10-14T06:20:05Z</time>
      </trkpt>
      <trkpt lat="46.37047" lon="2.59747">
        <ele>203.2</ele>
        <time>2018-10-14T06:20:06Z</time>
      </trkpt>
      <trkpt lat="46.37052" lon="2.59749">
        <ele>203.1</ele>
        <time>2018-10-14T06:20:07Z</time>
      </trkpt>
      <trkpt lat="46.37057" lon="2.59752">
        <ele>203.4</ele>
        <time>2018-10-14T06:20:08Z</time>
      </trkpt>
      <trkpt lat="46.37062" lon="2.59754">
        <ele>203.6</ele>
        <time>2018-10-14T06:20:09Z</time>
      </trkpt>
      <trkpt lat="46.37067" lon="2.59756">
        <ele>203.8</ele>
        <time>2018-10-14T06:20:10Z</time>
      </trkpt>
      <trkpt lat="46.37072" lon="2.59759">
        <ele>204</ele>
        <time>2018-10-14T06:20:11Z</time>
      </trkpt>
      <trkpt lat="46.37077" lon="2.59761">
        <ele>203.7</ele>
        <time>2018-10-14T06:20:12Z</time>
      </trkpt>
      <trkpt lat="46.37082" lon="2.59763">
        <ele>203.4</ele>
        <time>2018-10-14T06:20:13Z</time>
      </trkpt>
      <trkpt lat="46.37087" lon="2.59765">
        <ele>203.3</ele>
        <time>2018-10-14T06:20:14Z</time>
      </trkpt>
      <trkpt lat="46.37092" lon="2.59767">
        <ele>203.2</ele>
        <time>2018-10-14T06:20:15Z</time>
      </trkpt>
      <trkpt lat="46.37097" lon="2.59769">
        <ele>203.2</ele>
        <time>2018-10-14T06:20:16Z</time>
      </trkpt>
      <trkpt lat="46.37102" lon="2.59771">
        <ele>203.3</ele>
        <time>2018-10-14T06:20:17Z</time>
      </trkpt>
      <trkpt lat="46.37107" lon="2.59773">
        <ele>203.3</ele>
        <time>2018-10-14T06:20:18Z</time>
      </trkpt>
      <trkpt lat="46.37112" lon="2.59775">
        <ele>203.3</ele>
        <time>2018-10-14T06:20:19Z</time>
      </trkpt>
      <trkpt lat="46.37117" lon="2.59777">
        <ele>203.7</ele>
        <time>2018-10-14T06:20:20Z</time>
      </trkpt>
      <trkpt lat="46.37122" lon="2.59778">
        <ele>203.9</ele>
        <time>2018-10-14T06:20:21Z</time>
      </trkpt>
      <trkpt lat="46.37127" lon="2.59779">
        <ele>204.1</ele>
        <time>2018-10-14T06:20:22Z</time>
      </trkpt>
      <trkpt lat="46.37132" lon="2.59781">
        <ele>204.3</ele>
        <time>2018-10-14T06:20:23Z</time>
      </trkpt>
      <trkpt lat="46.37137" lon="2.59782">
        <ele>204.2</ele>
        <time>2018-10-14T06:20:24Z</time>
      </trkpt>
      <trkpt lat="46.37142" lon="2.59783">
        <ele>204.1</ele>
        <time>2018-10-14T06:20:25Z</time>
      </trkpt>
      <trkpt lat="46.37147" lon="2.59784">
        <ele>204</ele>
        <time>2018-10-14T06:20:26Z</time>
      </trkpt>
      <trkpt lat="46.37152" lon="2.59785">
        <ele>203.8</ele>
        <time>2018-10-14T06:20:27Z</time>
      </trkpt>
      <trkpt lat="46.37157" lon="2.59786">
        <ele>203.7</ele>
        <time>2018-10-14T06:20:28Z</time>
      </trkpt>
      <trkpt lat="46.37162" lon="2.59788">
        <ele>203.5</ele>
        <time>2018-10-14T06:20:29Z</time>
      </trkpt>
      <trkpt lat="46.37167" lon="2.59789">
        <ele>203.4</ele>
        <time>2018-10-14T06:20:30Z</time>
      </trkpt>
      <trkpt lat="46.37172" lon="2.5979">
        <ele>203.2</ele>
        <time>2018-10-14T06:20:31Z</time>
      </trkpt>
      <trkpt lat="46.37177" lon="2.59791">
        <ele>203.1</ele>
        <time>2018-10-14T06:20:32Z</time>
      </trkpt>
      <trkpt lat="46.37182" lon="2.59791">
        <ele>203</ele>
        <time>2018-10-14T06:20:33Z</time>
      </trkpt>
      <trkpt lat="46.37187" lon="2.59792">
        <ele>203.3</ele>
        <time>2018-10-14T06:20:34Z</time>
      </trkpt>
      <trkpt lat="46.37192" lon="2.59792">
        <ele>203.6</ele>
        <time>2018-10-14T06:20:35Z</time>
      </trkpt>
      <trkpt lat="46.37197" lon="2.59793">
        <ele>203.5</ele>
        <time>2018-10-14T06:20:36Z</time>
      </trkpt>
      <trkpt lat="46.37202" lon="2.59793">
        <ele>203.4</ele>
        <time>2018-10-14T06:20:37Z</time>
      </trkpt>
      <trkpt lat="46.37206" lon="2.59794">
        <ele>203.3</ele>
        <time>2018-10-14T06:20:38Z</time>
      </trkpt>
      <trkpt lat="46.37211" lon="2.59794">
        <ele>203.4</ele>
        <time>2018-10-14T06:20:39Z</time>
      </trkpt>
      <trkpt lat="46.37216" lon="2.59794">
        <ele>203.4</ele>
        <time>2018-10-14T06:20:40Z</time>
      </trkpt>
      <trkpt lat="46.37221" lon="2.59794">
        <ele>204</ele>
        <time>2018-10-14T06:20:41Z</time>
      </trkpt>
      <trkpt lat="46.37226" lon="2.59794">
        <ele>204.5</ele>
        <time>2018-10-14T06:20:42Z</time>
      </trkpt>
      <trkpt lat="46.37231" lon="2.59794">
        <ele>204.1</ele>
        <time>2018-10-14T06:20:43Z</time>
      </trkpt>
      <trkpt lat="46.37236" lon="2.59794">
        <ele>203.7</ele>
        <time>2018-10-14T06:20:44Z</time>
      </trkpt>
      <trkpt lat="46.37241" lon="2.59794">
        <ele>203.5</ele>
        <time>2018-10-14T06:20:45Z</time>
      </trkpt>
      <trkpt lat="46.37246" lon="2.59794">
        <ele>203.4</ele>
        <time>2018-10-14T06:20:46Z</time>
      </trkpt>
      <trkpt lat="46.37251" lon="2.59794">
        <ele>203.3</ele>
        <time>2018-10-14T06:20:47Z</time>
      </trkpt>
      <trkpt lat="46.37255" lon="2.59794">
        <ele>203.7</ele>
        <time>2018-10-14T06:20:48Z</time>
      </trkpt>
      <trkpt lat="46.3726" lon="2.59794">
        <ele>204</ele>
        <time>2018-10-14T06:20:49Z</time>
      </trkpt>
      <trkpt lat="46.37265" lon="2.59794">
        <ele>203.7</ele>
        <time>2018-10-14T06:20:50Z</time>
      </trkpt>
      <trkpt lat="46.37269" lon="2.59795">
        <ele>203.5</ele>
        <time>2018-10-14T06:20:51Z</time>
      </trkpt>
      <trkpt lat="46.37274" lon="2.59794">
        <ele>203.4</ele>
        <time>2018-10-14T06:20:52Z</time>
      </trkpt>
      <trkpt lat="46.37279" lon="2.59794">
        <ele>203.6</ele>
        <time>2018-10-14T06:20:53Z</time>
      </trkpt>
      <trkpt lat="46.37284" lon="2.59794">
        <ele>203.7</ele>
        <time>2018-10-14T06:20:54Z</time>
      </trkpt>
      <trkpt lat="46.37289" lon="2.59793">
        <ele>204.4</ele>
        <time>2018-10-14T06:20:55Z</time>
      </trkpt>
      <trkpt lat="46.37294" lon="2.59793">
        <ele>204.9</ele>
        <time>2018-10-14T06:20:56Z</time>
      </trkpt>
      <trkpt lat="46.37299" lon="2.59792">
        <ele>204.5</ele>
        <time>2018-10-14T06:20:57Z</time>
      </trkpt>
      <trkpt lat="46.37303" lon="2.59792">
        <ele>204.2</ele>
        <time>2018-10-14T06:20:58Z</time>
      </trkpt>
      <trkpt lat="46.37308" lon="2.59792">
        <ele>204</ele>
        <time>2018-10-14T06:20:59Z</time>
      </trkpt>
      <trkpt lat="46.37313" lon="2.59792">
        <ele>203.7</ele>
        <time>2018-10-14T06:21:00Z</time>
      </trkpt>
      <trkpt lat="46.37322" lon="2.59791">
        <ele>203.8</ele>
        <time>2018-10-14T06:21:02Z</time>
      </trkpt>
      <trkpt lat="46.37327" lon="2.5979">
        <ele>204.1</ele>
        <time>2018-10-14T06:21:03Z</time>
      </trkpt>
      <trkpt lat="46.37331" lon="2.5979">
        <ele>204.4</ele>
        <time>2018-10-14T06:21:04Z</time>
      </trkpt>
      <trkpt lat="46.37336" lon="2.5979">
        <ele>204.1</ele>
        <time>2018-10-14T06:21:05Z</time>
      </trkpt>
      <trkpt lat="46.37341" lon="2.5979">
        <ele>204</ele>
        <time>2018-10-14T06:21:06Z</time>
      </trkpt>
      <trkpt lat="46.37346" lon="2.5979">
        <ele>204.3</ele>
        <time>2018-10-14T06:21:07Z</time>
      </trkpt>
      <trkpt lat="46.37351" lon="2.5979">
        <ele>204.5</ele>
        <time>2018-10-14T06:21:08Z</time>
      </trkpt>
      <trkpt lat="46.37356" lon="2.5979">
        <ele>204.2</ele>
        <time>2018-10-14T06:21:09Z</time>
      </trkpt>
      <trkpt lat="46.37361" lon="2.5979">
        <ele>203.9</ele>
        <time>2018-10-14T06:21:10Z</time>
      </trkpt>
      <trkpt lat="46.37366" lon="2.5979">
        <ele>203.6</ele>
        <time>2018-10-14T06:21:11Z</time>
      </trkpt>
      <trkpt lat="46.37371" lon="2.59789">
        <ele>203.6</ele>
        <time>2018-10-14T06:21:12Z</time>
      </trkpt>
      <trkpt lat="46.37376" lon="2.59789">
        <ele>203.5</ele>
        <time>2018-10-14T06:21:13Z</time>
      </trkpt>
      <trkpt lat="46.37381" lon="2.59789">
        <ele>203.6</ele>
        <time>2018-10-14T06:21:14Z</time>
      </trkpt>
      <trkpt lat="46.37386" lon="2.59789">
        <ele>203.7</ele>
        <time>2018-10-14T06:21:15Z</time>
      </trkpt>
      <trkpt lat="46.37391" lon="2.59788">
        <ele>203.8</ele>
        <time>2018-10-14T06:21:16Z</time>
      </trkpt>
      <trkpt lat="46.37396" lon="2.59788">
        <ele>203.9</ele>
        <time>2018-10-14T06:21:17Z</time>
      </trkpt>
      <trkpt lat="46.37401" lon="2.59787">
        <ele>203.9</ele>
        <time>2018-10-14T06:21:18Z</time>
      </trkpt>
      <trkpt lat="46.37406" lon="2.59787">
        <ele>203.9</ele>
        <time>2018-10-14T06:21:19Z</time>
      </trkpt>
      <trkpt lat="46.37411" lon="2.59787">
        <ele>203.9</ele>
        <time>2018-10-14T06:21:20Z</time>
      </trkpt>
      <trkpt lat="46.37416" lon="2.59787">
        <ele>204</ele>
        <time>2018-10-14T06:21:21Z</time>
      </trkpt>
      <trkpt lat="46.37421" lon="2.59786">
        <ele>204.1</ele>
        <time>2018-10-14T06:21:22Z</time>
      </trkpt>
      <trkpt lat="46.37425" lon="2.59786">
        <ele>204.2</ele>
        <time>2018-10-14T06:21:23Z</time>
      </trkpt>
      <trkpt lat="46.3743" lon="2.59786">
        <ele>204.2</ele>
        <time>2018-10-14T06:21:24Z</time>
      </trkpt>
      <trkpt lat="46.37435" lon="2.59786">
        <ele>204.3</ele>
        <time>2018-10-14T06:21:25Z</time>
      </trkpt>
      <trkpt lat="46.3744" lon="2.59785">
        <ele>204</ele>
        <time>2018-10-14T06:21:26Z</time>
      </trkpt>
      <trkpt lat="46.37445" lon="2.59785">
        <ele>203.7</ele>
        <time>2018-10-14T06:21:27Z</time>
      </trkpt>
      <trkpt lat="46.3745" lon="2.59785">
        <ele>203.9</ele>
        <time>2018-10-14T06:21:28Z</time>
      </trkpt>
      <trkpt lat="46.37455" lon="2.59785">
        <ele>204</ele>
        <time>2018-10-14T06:21:29Z</time>
      </trkpt>
      <trkpt lat="46.3746" lon="2.59785">
        <ele>204.1</ele>
        <time>2018-10-14T06:21:30Z</time>
      </trkpt>
      <trkpt lat="46.37465" lon="2.59785">
        <ele>203.9</ele>
        <time>2018-10-14T06:21:31Z</time>
      </trkpt>
      <trkpt lat="46.3747" lon="2.59784">
        <ele>203.8</ele>
        <time>2018-10-14T06:21:32Z</time>
      </trkpt>
      <trkpt lat="46.37475" lon="2.59784">
        <ele>203.9</ele>
        <time>2018-10-14T06:21:33Z</time>
      </trkpt>
      <trkpt lat="46.37479" lon="2.59784">
        <ele>204</ele>
        <time>2018-10-14T06:21:34Z</time>
      </trkpt>
      <trkpt lat="46.37484" lon="2.59783">
        <ele>204.1</ele>
        <time>2018-10-14T06:21:35Z</time>
      </trkpt>
      <trkpt lat="46.37489" lon="2.59783">
        <ele>203.8</ele>
        <time>2018-10-14T06:21:36Z</time>
      </trkpt>
      <trkpt lat="46.37494" lon="2.59783">
        <ele>203.5</ele>
        <time>2018-10-14T06:21:37Z</time>
      </trkpt>
      <trkpt lat="46.37499" lon="2.59782">
        <ele>203.4</ele>
        <time>2018-10-14T06:21:38Z</time>
      </trkpt>
      <trkpt lat="46.37504" lon="2.59782">
        <ele>203.2</ele>
        <time>2018-10-14T06:21:39Z</time>
      </trkpt>
      <trkpt lat="46.37509" lon="2.59782">
        <ele>203.2</ele>
        <time>2018-10-14T06:21:40Z</time>
      </trkpt>
      <trkpt lat="46.37514" lon="2.59782">
        <ele>203.2</ele>
        <time>2018-10-14T06:21:41Z</time>
      </trkpt>
      <trkpt lat="46.37519" lon="2.59782">
        <ele>203.2</ele>
        <time>2018-10-14T06:21:42Z</time>
      </trkpt>
      <trkpt lat="46.37524" lon="2.59782">
        <ele>203.5</ele>
        <time>2018-10-14T06:21:43Z</time>
      </trkpt>
      <trkpt lat="46.37529" lon="2.59781">
        <ele>203.7</ele>
        <time>2018-10-14T06:21:44Z</time>
      </trkpt>
      <trkpt lat="46.37534" lon="2.5978">
        <ele>203.5</ele>
        <time>2018-10-14T06:21:45Z</time>
      </trkpt>
      <trkpt lat="46.37542" lon="2.5978">
        <ele>203.6</ele>
        <time>2018-10-14T06:21:47Z</time>
      </trkpt>
      <trkpt lat="46.37551" lon="2.59781">
        <ele>203.8</ele>
        <time>2018-10-14T06:21:49Z</time>
      </trkpt>
      <trkpt lat="46.37559" lon="2.59781">
        <ele>203.2</ele>
        <time>2018-10-14T06:21:51Z</time>
      </trkpt>
      <trkpt lat="46.37564" lon="2.5978">
        <ele>203.3</ele>
        <time>2018-10-14T06:21:52Z</time>
      </trkpt>
      <trkpt lat="46.37569" lon="2.5978">
        <ele>203.3</ele>
        <time>2018-10-14T06:21:53Z</time>
      </trkpt>
      <trkpt lat="46.37573" lon="2.5978">
        <ele>203.3</ele>
        <time>2018-10-14T06:21:54Z</time>
      </trkpt>
      <trkpt lat="46.37578" lon="2.59779">
        <ele>203.2</ele>
        <time>2018-10-14T06:21:55Z</time>
      </trkpt>
      <trkpt lat="46.37583" lon="2.59779">
        <ele>203.2</ele>
        <time>2018-10-14T06:21:56Z</time>
      </trkpt>
      <trkpt lat="46.37588" lon="2.59779">
        <ele>203.4</ele>
        <time>2018-10-14T06:21:57Z</time>
      </trkpt>
      <trkpt lat="46.37593" lon="2.59779">
        <ele>203.5</ele>
        <time>2018-10-14T06:21:58Z</time>
      </trkpt>
      <trkpt lat="46.37598" lon="2.59778">
        <ele>203.2</ele>
        <time>2018-10-14T06:21:59Z</time>
      </trkpt>
      <trkpt lat="46.37603" lon="2.59778">
        <ele>203</ele>
        <time>2018-10-14T06:22:00Z</time>
      </trkpt>
      <trkpt lat="46.37608" lon="2.59777">
        <ele>202.8</ele>
        <time>2018-10-14T06:22:01Z</time>
      </trkpt>
      <trkpt lat="46.37612" lon="2.59777">
        <ele>203.2</ele>
        <time>2018-10-14T06:22:02Z</time>
      </trkpt>
      <trkpt lat="46.37617" lon="2.59777">
        <ele>203.5</ele>
        <time>2018-10-14T06:22:03Z</time>
      </trkpt>
      <trkpt lat="46.37622" lon="2.59777">
        <ele>203.4</ele>
        <time>2018-10-14T06:22:04Z</time>
      </trkpt>
      <trkpt lat="46.37631" lon="2.59776">
        <ele>203.6</ele>
        <time>2018-10-14T06:22:06Z</time>
      </trkpt>
      <trkpt lat="46.37639" lon="2.59779">
        <ele>203.8</ele>
        <time>2018-10-14T06:22:08Z</time>
      </trkpt>
      <trkpt lat="46.37644" lon="2.59782">
        <ele>203.3</ele>
        <time>2018-10-14T06:22:09Z</time>
      </trkpt>
      <trkpt lat="46.37648" lon="2.59787">
        <ele>202.9</ele>
        <time>2018-10-14T06:22:10Z</time>
      </trkpt>
      <trkpt lat="46.37652" lon="2.59793">
        <ele>202.8</ele>
        <time>2018-10-14T06:22:11Z</time>
      </trkpt>
      <trkpt lat="46.37655" lon="2.59799">
        <ele>202.8</ele>
        <time>2018-10-14T06:22:12Z</time>
      </trkpt>
      <trkpt lat="46.3766" lon="2.59804">
        <ele>202.7</ele>
        <time>2018-10-14T06:22:13Z</time>
      </trkpt>
      <trkpt lat="46.37665" lon="2.59807">
        <ele>202.1</ele>
        <time>2018-10-14T06:22:14Z</time>
      </trkpt>
      <trkpt lat="46.3767" lon="2.59807">
        <ele>201.7</ele>
        <time>2018-10-14T06:22:15Z</time>
      </trkpt>
      <trkpt lat="46.37676" lon="2.59805">
        <ele>202.1</ele>
        <time>2018-10-14T06:22:16Z</time>
      </trkpt>
      <trkpt lat="46.377" lon="2.59787">
        <ele>201</ele>
        <time>2018-10-14T06:22:21Z</time>
      </trkpt>
      <trkpt lat="46.37713" lon="2.59776">
        <ele>201.9</ele>
        <time>2018-10-14T06:22:25Z</time>
      </trkpt>
      <trkpt lat="46.37721" lon="2.59772">
        <ele>202.2</ele>
        <time>2018-10-14T06:22:27Z</time>
      </trkpt>
      <trkpt lat="46.37729" lon="2.5977">
        <ele>202.8</ele>
        <time>2018-10-14T06:22:29Z</time>
      </trkpt>
      <trkpt lat="46.37737" lon="2.59769">
        <ele>203.2</ele>
        <time>2018-10-14T06:22:31Z</time>
      </trkpt>
      <trkpt lat="46.37742" lon="2.59769">
        <ele>203.3</ele>
        <time>2018-10-14T06:22:32Z</time>
      </trkpt>
      <trkpt lat="46.37747" lon="2.59769">
        <ele>203.5</ele>
        <time>2018-10-14T06:22:33Z</time>
      </trkpt>
      <trkpt lat="46.37755" lon="2.59769">
        <ele>203.6</ele>
        <time>2018-10-14T06:22:35Z</time>
      </trkpt>
      <trkpt lat="46.37763" lon="2.59768">
        <ele>203.9</ele>
        <time>2018-10-14T06:22:37Z</time>
      </trkpt>
      <trkpt lat="46.37771" lon="2.59768">
        <ele>204.3</ele>
        <time>2018-10-14T06:22:39Z</time>
      </trkpt>
      <trkpt lat="46.3778" lon="2.59767">
        <ele>203.9</ele>
        <time>2018-10-14T06:22:41Z</time>
      </trkpt>
      <trkpt lat="46.37789" lon="2.59767">
        <ele>203.5</ele>
        <time>2018-10-14T06:22:43Z</time>
      </trkpt>
      <trkpt lat="46.37798" lon="2.59766">
        <ele>203.5</ele>
        <time>2018-10-14T06:22:45Z</time>
      </trkpt>
      <trkpt lat="46.37806" lon="2.59766">
        <ele>204</ele>
        <time>2018-10-14T06:22:47Z</time>
      </trkpt>
      <trkpt lat="46.37815" lon="2.59766">
        <ele>204.3</ele>
        <time>2018-10-14T06:22:49Z</time>
      </trkpt>
      <trkpt lat="46.37819" lon="2.59765">
        <ele>204.3</ele>
        <time>2018-10-14T06:22:50Z</time>
      </trkpt>
      <trkpt lat="46.37824" lon="2.59765">
        <ele>204.2</ele>
        <time>2018-10-14T06:22:51Z</time>
      </trkpt>
      <trkpt lat="46.37829" lon="2.59765">
        <ele>203.9</ele>
        <time>2018-10-14T06:22:52Z</time>
      </trkpt>
      <trkpt lat="46.37834" lon="2.59765">
        <ele>203.7</ele>
        <time>2018-10-14T06:22:53Z</time>
      </trkpt>
      <trkpt lat="46.37838" lon="2.59764">
        <ele>203.6</ele>
        <time>2018-10-14T06:22:54Z</time>
      </trkpt>
      <trkpt lat="46.37843" lon="2.59764">
        <ele>203.6</ele>
        <time>2018-10-14T06:22:55Z</time>
      </trkpt>
      <trkpt lat="46.37848" lon="2.59764">
        <ele>203.3</ele>
        <time>2018-10-14T06:22:56Z</time>
      </trkpt>
      <trkpt lat="46.37852" lon="2.59764">
        <ele>203.1</ele>
        <time>2018-10-14T06:22:57Z</time>
      </trkpt>
      <trkpt lat="46.37857" lon="2.59763">
        <ele>203</ele>
        <time>2018-10-14T06:22:58Z</time>
      </trkpt>
      <trkpt lat="46.37862" lon="2.59763">
        <ele>203.3</ele>
        <time>2018-10-14T06:22:59Z</time>
      </trkpt>
      <trkpt lat="46.37866" lon="2.59763">
        <ele>203.6</ele>
        <time>2018-10-14T06:23:00Z</time>
      </trkpt>
      <trkpt lat="46.37871" lon="2.59763">
        <ele>203.1</ele>
        <time>2018-10-14T06:23:01Z</time>
      </trkpt>
      <trkpt lat="46.37876" lon="2.59762">
        <ele>202.8</ele>
        <time>2018-10-14T06:23:02Z</time>
      </trkpt>
      <trkpt lat="46.37881" lon="2.59762">
        <ele>203.1</ele>
        <time>2018-10-14T06:23:03Z</time>
      </trkpt>
      <trkpt lat="46.37885" lon="2.59761">
        <ele>203.3</ele>
        <time>2018-10-14T06:23:04Z</time>
      </trkpt>
      <trkpt lat="46.3789" lon="2.59761">
        <ele>203.4</ele>
        <time>2018-10-14T06:23:05Z</time>
      </trkpt>
      <trkpt lat="46.37895" lon="2.5976">
        <ele>203.2</ele>
        <time>2018-10-14T06:23:06Z</time>
      </trkpt>
      <trkpt lat="46.37899" lon="2.5976">
        <ele>203.1</ele>
        <time>2018-10-14T06:23:07Z</time>
      </trkpt>
      <trkpt lat="46.37904" lon="2.5976">
        <ele>203</ele>
        <time>2018-10-14T06:23:08Z</time>
      </trkpt>
      <trkpt lat="46.37909" lon="2.59759">
        <ele>203</ele>
        <time>2018-10-14T06:23:09Z</time>
      </trkpt>
      <trkpt lat="46.37913" lon="2.59759">
        <ele>203</ele>
        <time>2018-10-14T06:23:10Z</time>
      </trkpt>
      <trkpt lat="46.37918" lon="2.59759">
        <ele>203.2</ele>
        <time>2018-10-14T06:23:11Z</time>
      </trkpt>
      <trkpt lat="46.37922" lon="2.59759">
        <ele>203.3</ele>
        <time>2018-10-14T06:23:12Z</time>
      </trkpt>
      <trkpt lat="46.37927" lon="2.5976">
        <ele>203.7</ele>
        <time>2018-10-14T06:23:13Z</time>
      </trkpt>
      <trkpt lat="46.37932" lon="2.5976">
        <ele>204</ele>
        <time>2018-10-14T06:23:14Z</time>
      </trkpt>
      <trkpt lat="46.37938" lon="2.5976">
        <ele>203.8</ele>
        <time>2018-10-14T06:23:15Z</time>
      </trkpt>
      <trkpt lat="46.37943" lon="2.5976">
        <ele>203.6</ele>
        <time>2018-10-14T06:23:16Z</time>
      </trkpt>
      <trkpt lat="46.37949" lon="2.5976">
        <ele>203.5</ele>
        <time>2018-10-14T06:23:17Z</time>
      </trkpt>
      <trkpt lat="46.37955" lon="2.59759">
        <ele>202.9</ele>
        <time>2018-10-14T06:23:18Z</time>
      </trkpt>
      <trkpt lat="46.37962" lon="2.59759">
        <ele>202.5</ele>
        <time>2018-10-14T06:23:19Z</time>
      </trkpt>
      <trkpt lat="46.37968" lon="2.59758">
        <ele>202.1</ele>
        <time>2018-10-14T06:23:20Z</time>
      </trkpt>
      <trkpt lat="46.37975" lon="2.59758">
        <ele>201.8</ele>
        <time>2018-10-14T06:23:21Z</time>
      </trkpt>
      <trkpt lat="46.37981" lon="2.59758">
        <ele>201.8</ele>
        <time>2018-10-14T06:23:22Z</time>
      </trkpt>
      <trkpt lat="46.37987" lon="2.59757">
        <ele>201.8</ele>
        <time>2018-10-14T06:23:23Z</time>
      </trkpt>
      <trkpt lat="46.37993" lon="2.59757">
        <ele>201.9</ele>
        <time>2018-10-14T06:23:24Z</time>
      </trkpt>
      <trkpt lat="46.37998" lon="2.59757">
        <ele>201.6</ele>
        <time>2018-10-14T06:23:25Z</time>
      </trkpt>
      <trkpt lat="46.38004" lon="2.59756">
        <ele>201.4</ele>
        <time>2018-10-14T06:23:26Z</time>
      </trkpt>
      <trkpt lat="46.3801" lon="2.59756">
        <ele>201.9</ele>
        <time>2018-10-14T06:23:27Z</time>
      </trkpt>
      <trkpt lat="46.38015" lon="2.59756">
        <ele>202.2</ele>
        <time>2018-10-14T06:23:28Z</time>
      </trkpt>
      <trkpt lat="46.3802" lon="2.59756">
        <ele>202.4</ele>
        <time>2018-10-14T06:23:29Z</time>
      </trkpt>
      <trkpt lat="46.38026" lon="2.59755">
        <ele>202</ele>
        <time>2018-10-14T06:23:30Z</time>
      </trkpt>
      <trkpt lat="46.38031" lon="2.59755">
        <ele>201.7</ele>
        <time>2018-10-14T06:23:31Z</time>
      </trkpt>
      <trkpt lat="46.38036" lon="2.59754">
        <ele>201.7</ele>
        <time>2018-10-14T06:23:32Z</time>
      </trkpt>
      <trkpt lat="46.38041" lon="2.59754">
        <ele>201.7</ele>
        <time>2018-10-14T06:23:33Z</time>
      </trkpt>
      <trkpt lat="46.38046" lon="2.59754">
        <ele>201.6</ele>
        <time>2018-10-14T06:23:34Z</time>
      </trkpt>
      <trkpt lat="46.38051" lon="2.59754">
        <ele>201.4</ele>
        <time>2018-10-14T06:23:35Z</time>
      </trkpt>
      <trkpt lat="46.38056" lon="2.59753">
        <ele>201.4</ele>
        <time>2018-10-14T06:23:36Z</time>
      </trkpt>
      <trkpt lat="46.38061" lon="2.59753">
        <ele>201.5</ele>
        <time>2018-10-14T06:23:37Z</time>
      </trkpt>
      <trkpt lat="46.38066" lon="2.59753">
        <ele>201.6</ele>
        <time>2018-10-14T06:23:38Z</time>
      </trkpt>
      <trkpt lat="46.38071" lon="2.59753">
        <ele>202.1</ele>
        <time>2018-10-14T06:23:39Z</time>
      </trkpt>
      <trkpt lat="46.38076" lon="2.59752">
        <ele>202.4</ele>
        <time>2018-10-14T06:23:40Z</time>
      </trkpt>
      <trkpt lat="46.38081" lon="2.59752">
        <ele>202.1</ele>
        <time>2018-10-14T06:23:41Z</time>
      </trkpt>
      <trkpt lat="46.38086" lon="2.59751">
        <ele>201.9</ele>
        <time>2018-10-14T06:23:42Z</time>
      </trkpt>
      <trkpt lat="46.38091" lon="2.59751">
        <ele>201.8</ele>
        <time>2018-10-14T06:23:43Z</time>
      </trkpt>
      <trkpt lat="46.38096" lon="2.59751">
        <ele>201.3</ele>
        <time>2018-10-14T06:23:44Z</time>
      </trkpt>
      <trkpt lat="46.38101" lon="2.5975">
        <ele>201</ele>
        <time>2018-10-14T06:23:45Z</time>
      </trkpt>
      <trkpt lat="46.38105" lon="2.5975">
        <ele>201.3</ele>
        <time>2018-10-14T06:23:46Z</time>
      </trkpt>
      <trkpt lat="46.3811" lon="2.5975">
        <ele>201.5</ele>
        <time>2018-10-14T06:23:47Z</time>
      </trkpt>
      <trkpt lat="46.38115" lon="2.5975">
        <ele>201.7</ele>
        <time>2018-10-14T06:23:48Z</time>
      </trkpt>
      <trkpt lat="46.3812" lon="2.59749">
        <ele>201.9</ele>
        <time>2018-10-14T06:23:49Z</time>
      </trkpt>
      <trkpt lat="46.38125" lon="2.59749">
        <ele>202.1</ele>
        <time>2018-10-14T06:23:50Z</time>
      </trkpt>
      <trkpt lat="46.38129" lon="2.59749">
        <ele>201.9</ele>
        <time>2018-10-14T06:23:51Z</time>
      </trkpt>
      <trkpt lat="46.38134" lon="2.59748">
        <ele>201.8</ele>
        <time>2018-10-14T06:23:52Z</time>
      </trkpt>
      <trkpt lat="46.38139" lon="2.59748">
        <ele>201.6</ele>
        <time>2018-10-14T06:23:53Z</time>
      </trkpt>
      <trkpt lat="46.38143" lon="2.59748">
        <ele>201.6</ele>
        <time>2018-10-14T06:23:54Z</time>
      </trkpt>
      <trkpt lat="46.38148" lon="2.59748">
        <ele>201.5</ele>
        <time>2018-10-14T06:23:55Z</time>
      </trkpt>
      <trkpt lat="46.38153" lon="2.59748">
        <ele>201.4</ele>
        <time>2018-10-14T06:23:56Z</time>
      </trkpt>
      <trkpt lat="46.38158" lon="2.59747">
        <ele>201.3</ele>
        <time>2018-10-14T06:23:57Z</time>
      </trkpt>
      <trkpt lat="46.38163" lon="2.59747">
        <ele>201.1</ele>
        <time>2018-10-14T06:23:58Z</time>
      </trkpt>
      <trkpt lat="46.38168" lon="2.59747">
        <ele>200.9</ele>
        <time>2018-10-14T06:23:59Z</time>
      </trkpt>
      <trkpt lat="46.38172" lon="2.59747">
        <ele>201</ele>
        <time>2018-10-14T06:24:00Z</time>
      </trkpt>
      <trkpt lat="46.38177" lon="2.59746">
        <ele>201.1</ele>
        <time>2018-10-14T06:24:01Z</time>
      </trkpt>
      <trkpt lat="46.38182" lon="2.59746">
        <ele>201.1</ele>
        <time>2018-10-14T06:24:02Z</time>
      </trkpt>
      <trkpt lat="46.38187" lon="2.59746">
        <ele>201.1</ele>
        <time>2018-10-14T06:24:03Z</time>
      </trkpt>
      <trkpt lat="46.38192" lon="2.59745">
        <ele>201.1</ele>
        <time>2018-10-14T06:24:04Z</time>
      </trkpt>
      <trkpt lat="46.38196" lon="2.59745">
        <ele>200.6</ele>
        <time>2018-10-14T06:24:05Z</time>
      </trkpt>
      <trkpt lat="46.38201" lon="2.59745">
        <ele>200.3</ele>
        <time>2018-10-14T06:24:06Z</time>
      </trkpt>
      <trkpt lat="46.38205" lon="2.59745">
        <ele>200.1</ele>
        <time>2018-10-14T06:24:07Z</time>
      </trkpt>
      <trkpt lat="46.3821" lon="2.59744">
        <ele>200.2</ele>
        <time>2018-10-14T06:24:08Z</time>
      </trkpt>
      <trkpt lat="46.38214" lon="2.59744">
        <ele>200.3</ele>
        <time>2018-10-14T06:24:09Z</time>
      </trkpt>
      <trkpt lat="46.38219" lon="2.59744">
        <ele>200.7</ele>
        <time>2018-10-14T06:24:10Z</time>
      </trkpt>
      <trkpt lat="46.38224" lon="2.59744">
        <ele>201</ele>
        <time>2018-10-14T06:24:11Z</time>
      </trkpt>
      <trkpt lat="46.38228" lon="2.59743">
        <ele>200.8</ele>
        <time>2018-10-14T06:24:12Z</time>
      </trkpt>
      <trkpt lat="46.38233" lon="2.59743">
        <ele>200.6</ele>
        <time>2018-10-14T06:24:13Z</time>
      </trkpt>
      <trkpt lat="46.38237" lon="2.59743">
        <ele>200.5</ele>
        <time>2018-10-14T06:24:14Z</time>
      </trkpt>
      <trkpt lat="46.38242" lon="2.59743">
        <ele>200.6</ele>
        <time>2018-10-14T06:24:15Z</time>
      </trkpt>
      <trkpt lat="46.38247" lon="2.59742">
        <ele>200.7</ele>
        <time>2018-10-14T06:24:16Z</time>
      </trkpt>
      <trkpt lat="46.38251" lon="2.59742">
        <ele>200.8</ele>
        <time>2018-10-14T06:24:17Z</time>
      </trkpt>
      <trkpt lat="46.38256" lon="2.59742">
        <ele>200.9</ele>
        <time>2018-10-14T06:24:18Z</time>
      </trkpt>
      <trkpt lat="46.3826" lon="2.59742">
        <ele>201</ele>
        <time>2018-10-14T06:24:19Z</time>
      </trkpt>
      <trkpt lat="46.38265" lon="2.59741">
        <ele>201.1</ele>
        <time>2018-10-14T06:24:20Z</time>
      </trkpt>
      <trkpt lat="46.3827" lon="2.59741">
        <ele>201.1</ele>
        <time>2018-10-14T06:24:21Z</time>
      </trkpt>
      <trkpt lat="46.38274" lon="2.59741">
        <ele>201.1</ele>
        <time>2018-10-14T06:24:22Z</time>
      </trkpt>
      <trkpt lat="46.38279" lon="2.59741">
        <ele>201.1</ele>
        <time>2018-10-14T06:24:23Z</time>
      </trkpt>
      <trkpt lat="46.38283" lon="2.59741">
        <ele>200.9</ele>
        <time>2018-10-14T06:24:24Z</time>
      </trkpt>
      <trkpt lat="46.38288" lon="2.59741">
        <ele>200.7</ele>
        <time>2018-10-14T06:24:25Z</time>
      </trkpt>
      <trkpt lat="46.38293" lon="2.5974">
        <ele>200.6</ele>
        <time>2018-10-14T06:24:26Z</time>
      </trkpt>
      <trkpt lat="46.38298" lon="2.5974">
        <ele>200.7</ele>
        <time>2018-10-14T06:24:27Z</time>
      </trkpt>
      <trkpt lat="46.38302" lon="2.5974">
        <ele>200.8</ele>
        <time>2018-10-14T06:24:28Z</time>
      </trkpt>
      <trkpt lat="46.38307" lon="2.5974">
        <ele>200.8</ele>
        <time>2018-10-14T06:24:29Z</time>
      </trkpt>
      <trkpt lat="46.38312" lon="2.59739">
        <ele>200.8</ele>
        <time>2018-10-14T06:24:30Z</time>
      </trkpt>
      <trkpt lat="46.38316" lon="2.59739">
        <ele>201</ele>
        <time>2018-10-14T06:24:31Z</time>
      </trkpt>
      <trkpt lat="46.38321" lon="2.59739">
        <ele>201.2</ele>
        <time>2018-10-14T06:24:32Z</time>
      </trkpt>
      <trkpt lat="46.38326" lon="2.59739">
        <ele>201.3</ele>
        <time>2018-10-14T06:24:33Z</time>
      </trkpt>
      <trkpt lat="46.38331" lon="2.59738">
        <ele>201.4</ele>
        <time>2018-10-14T06:24:34Z</time>
      </trkpt>
      <trkpt lat="46.38335" lon="2.59738">
        <ele>201.5</ele>
        <time>2018-10-14T06:24:35Z</time>
      </trkpt>
      <trkpt lat="46.3834" lon="2.59738">
        <ele>201.7</ele>
        <time>2018-10-14T06:24:36Z</time>
      </trkpt>
      <trkpt lat="46.38345" lon="2.59738">
        <ele>201.8</ele>
        <time>2018-10-14T06:24:37Z</time>
      </trkpt>
      <trkpt lat="46.3835" lon="2.59737">
        <ele>201.6</ele>
        <time>2018-10-14T06:24:38Z</time>
      </trkpt>
      <trkpt lat="46.38355" lon="2.59737">
        <ele>201.4</ele>
        <time>2018-10-14T06:24:39Z</time>
      </trkpt>
      <trkpt lat="46.38359" lon="2.59737">
        <ele>201.3</ele>
        <time>2018-10-14T06:24:40Z</time>
      </trkpt>
      <trkpt lat="46.38364" lon="2.59737">
        <ele>201</ele>
        <time>2018-10-14T06:24:41Z</time>
      </trkpt>
      <trkpt lat="46.38369" lon="2.59736">
        <ele>200.8</ele>
        <time>2018-10-14T06:24:42Z</time>
      </trkpt>
      <trkpt lat="46.38373" lon="2.59736">
        <ele>200.5</ele>
        <time>2018-10-14T06:24:43Z</time>
      </trkpt>
      <trkpt lat="46.38378" lon="2.59736">
        <ele>200.3</ele>
        <time>2018-10-14T06:24:44Z</time>
      </trkpt>
      <trkpt lat="46.38383" lon="2.59736">
        <ele>200.2</ele>
        <time>2018-10-14T06:24:45Z</time>
      </trkpt>
      <trkpt lat="46.38388" lon="2.59735">
        <ele>200.3</ele>
        <time>2018-10-14T06:24:46Z</time>
      </trkpt>
      <trkpt lat="46.38393" lon="2.59735">
        <ele>200.4</ele>
        <time>2018-10-14T06:24:47Z</time>
      </trkpt>
      <trkpt lat="46.38397" lon="2.59735">
        <ele>200.5</ele>
        <time>2018-10-14T06:24:48Z</time>
      </trkpt>
      <trkpt lat="46.38402" lon="2.59734">
        <ele>200.6</ele>
        <time>2018-10-14T06:24:49Z</time>
      </trkpt>
      <trkpt lat="46.38407" lon="2.59734">
        <ele>200.7</ele>
        <time>2018-10-14T06:24:50Z</time>
      </trkpt>
      <trkpt lat="46.38412" lon="2.59734">
        <ele>200.7</ele>
        <time>2018-10-14T06:24:51Z</time>
      </trkpt>
      <trkpt lat="46.38416" lon="2.59734">
        <ele>200.7</ele>
        <time>2018-10-14T06:24:52Z</time>
      </trkpt>
      <trkpt lat="46.38421" lon="2.59733">
        <ele>200.6</ele>
        <time>2018-10-14T06:24:53Z</time>
      </trkpt>
      <trkpt lat="46.38426" lon="2.59733">
        <ele>200.5</ele>
        <time>2018-10-14T06:24:54Z</time>
      </trkpt>
      <trkpt lat="46.3843" lon="2.59733">
        <ele>200.5</ele>
        <time>2018-10-14T06:24:55Z</time>
      </trkpt>
      <trkpt lat="46.38435" lon="2.59732">
        <ele>200.5</ele>
        <time>2018-10-14T06:24:56Z</time>
      </trkpt>
      <trkpt lat="46.3844" lon="2.59732">
        <ele>200.7</ele>
        <time>2018-10-14T06:24:57Z</time>
      </trkpt>
      <trkpt lat="46.38445" lon="2.59732">
        <ele>200.8</ele>
        <time>2018-10-14T06:24:58Z</time>
      </trkpt>
      <trkpt lat="46.38449" lon="2.59731">
        <ele>201</ele>
        <time>2018-10-14T06:24:59Z</time>
      </trkpt>
      <trkpt lat="46.38454" lon="2.59731">
        <ele>200.9</ele>
        <time>2018-10-14T06:25:00Z</time>
      </trkpt>
      <trkpt lat="46.38459" lon="2.59731">
        <ele>200.8</ele>
        <time>2018-10-14T06:25:01Z</time>
      </trkpt>
      <trkpt lat="46.38463" lon="2.59731">
        <ele>201</ele>
        <time>2018-10-14T06:25:02Z</time>
      </trkpt>
      <trkpt lat="46.38468" lon="2.5973">
        <ele>201.1</ele>
        <time>2018-10-14T06:25:03Z</time>
      </trkpt>
      <trkpt lat="46.38473" lon="2.5973">
        <ele>201.2</ele>
        <time>2018-10-14T06:25:04Z</time>
      </trkpt>
      <trkpt lat="46.38477" lon="2.5973">
        <ele>201.1</ele>
        <time>2018-10-14T06:25:05Z</time>
      </trkpt>
      <trkpt lat="46.38482" lon="2.5973">
        <ele>201</ele>
        <time>2018-10-14T06:25:06Z</time>
      </trkpt>
      <trkpt lat="46.38487" lon="2.59729">
        <ele>201</ele>
        <time>2018-10-14T06:25:07Z</time>
      </trkpt>
      <trkpt lat="46.38492" lon="2.59729">
        <ele>200.9</ele>
        <time>2018-10-14T06:25:08Z</time>
      </trkpt>
      <trkpt lat="46.38496" lon="2.59729">
        <ele>200.8</ele>
        <time>2018-10-14T06:25:09Z</time>
      </trkpt>
      <trkpt lat="46.38501" lon="2.59729">
        <ele>200.7</ele>
        <time>2018-10-14T06:25:10Z</time>
      </trkpt>
      <trkpt lat="46.38506" lon="2.59728">
        <ele>200.6</ele>
        <time>2018-10-14T06:25:11Z</time>
      </trkpt>
      <trkpt lat="46.38511" lon="2.59728">
        <ele>200.6</ele>
        <time>2018-10-14T06:25:12Z</time>
      </trkpt>
      <trkpt lat="46.38515" lon="2.59728">
        <ele>200.6</ele>
        <time>2018-10-14T06:25:13Z</time>
      </trkpt>
      <trkpt lat="46.3852" lon="2.59728">
        <ele>200.5</ele>
        <time>2018-10-14T06:25:14Z</time>
      </trkpt>
      <trkpt lat="46.38525" lon="2.59727">
        <ele>200.4</ele>
        <time>2018-10-14T06:25:15Z</time>
      </trkpt>
      <trkpt lat="46.3853" lon="2.59727">
        <ele>200.2</ele>
        <time>2018-10-14T06:25:16Z</time>
      </trkpt>
      <trkpt lat="46.38534" lon="2.59727">
        <ele>200.1</ele>
        <time>2018-10-14T06:25:17Z</time>
      </trkpt>
      <trkpt lat="46.38539" lon="2.59727">
        <ele>200.1</ele>
        <time>2018-10-14T06:25:18Z</time>
      </trkpt>
      <trkpt lat="46.38544" lon="2.59726">
        <ele>200.2</ele>
        <time>2018-10-14T06:25:19Z</time>
      </trkpt>
      <trkpt lat="46.38549" lon="2.59726">
        <ele>200.4</ele>
        <time>2018-10-14T06:25:20Z</time>
      </trkpt>
      <trkpt lat="46.38554" lon="2.59726">
        <ele>200.5</ele>
        <time>2018-10-14T06:25:21Z</time>
      </trkpt>
      <trkpt lat="46.38559" lon="2.59725">
        <ele>200.6</ele>
        <time>2018-10-14T06:25:22Z</time>
      </trkpt>
      <trkpt lat="46.38564" lon="2.59725">
        <ele>200.7</ele>
        <time>2018-10-14T06:25:23Z</time>
      </trkpt>
      <trkpt lat="46.38569" lon="2.59725">
        <ele>200.3</ele>
        <time>2018-10-14T06:25:24Z</time>
      </trkpt>
      <trkpt lat="46.38574" lon="2.59725">
        <ele>199.9</ele>
        <time>2018-10-14T06:25:25Z</time>
      </trkpt>
      <trkpt lat="46.38579" lon="2.59724">
        <ele>200.5</ele>
        <time>2018-10-14T06:25:26Z</time>
      </trkpt>
      <trkpt lat="46.38583" lon="2.59724">
        <ele>200.8</ele>
        <time>2018-10-14T06:25:27Z</time>
      </trkpt>
      <trkpt lat="46.38588" lon="2.59724">
        <ele>200.8</ele>
        <time>2018-10-14T06:25:28Z</time>
      </trkpt>
      <trkpt lat="46.38593" lon="2.59724">
        <ele>200.8</ele>
        <time>2018-10-14T06:25:29Z</time>
      </trkpt>
      <trkpt lat="46.38598" lon="2.59724">
        <ele>200.8</ele>
        <time>2018-10-14T06:25:30Z</time>
      </trkpt>
      <trkpt lat="46.38603" lon="2.59724">
        <ele>200.7</ele>
        <time>2018-10-14T06:25:31Z</time>
      </trkpt>
      <trkpt lat="46.38608" lon="2.59723">
        <ele>200.6</ele>
        <time>2018-10-14T06:25:32Z</time>
      </trkpt>
      <trkpt lat="46.38612" lon="2.59723">
        <ele>200.5</ele>
        <time>2018-10-14T06:25:33Z</time>
      </trkpt>
      <trkpt lat="46.38617" lon="2.59723">
        <ele>200.4</ele>
        <time>2018-10-14T06:25:34Z</time>
      </trkpt>
      <trkpt lat="46.38622" lon="2.59723">
        <ele>200.5</ele>
        <time>2018-10-14T06:25:35Z</time>
      </trkpt>
      <trkpt lat="46.38627" lon="2.59723">
        <ele>200.6</ele>
        <time>2018-10-14T06:25:36Z</time>
      </trkpt>
      <trkpt lat="46.38631" lon="2.59723">
        <ele>200.6</ele>
        <time>2018-10-14T06:25:37Z</time>
      </trkpt>
      <trkpt lat="46.38636" lon="2.59722">
        <ele>200.3</ele>
        <time>2018-10-14T06:25:38Z</time>
      </trkpt>
      <trkpt lat="46.38641" lon="2.59722">
        <ele>200.1</ele>
        <time>2018-10-14T06:25:39Z</time>
      </trkpt>
      <trkpt lat="46.38646" lon="2.59722">
        <ele>200.2</ele>
        <time>2018-10-14T06:25:40Z</time>
      </trkpt>
      <trkpt lat="46.3865" lon="2.59721">
        <ele>200.3</ele>
        <time>2018-10-14T06:25:41Z</time>
      </trkpt>
      <trkpt lat="46.38655" lon="2.59721">
        <ele>200.3</ele>
        <time>2018-10-14T06:25:42Z</time>
      </trkpt>
      <trkpt lat="46.3866" lon="2.5972">
        <ele>200.3</ele>
        <time>2018-10-14T06:25:43Z</time>
      </trkpt>
      <trkpt lat="46.38665" lon="2.5972">
        <ele>200.3</ele>
        <time>2018-10-14T06:25:44Z</time>
      </trkpt>
      <trkpt lat="46.38669" lon="2.5972">
        <ele>200.6</ele>
        <time>2018-10-14T06:25:45Z</time>
      </trkpt>
      <trkpt lat="46.38674" lon="2.5972">
        <ele>200.8</ele>
        <time>2018-10-14T06:25:46Z</time>
      </trkpt>
      <trkpt lat="46.38678" lon="2.5972">
        <ele>200.7</ele>
        <time>2018-10-14T06:25:47Z</time>
      </trkpt>
      <trkpt lat="46.38683" lon="2.59719">
        <ele>200.6</ele>
        <time>2018-10-14T06:25:48Z</time>
      </trkpt>
      <trkpt lat="46.38688" lon="2.59719">
        <ele>200.6</ele>
        <time>2018-10-14T06:25:49Z</time>
      </trkpt>
      <trkpt lat="46.38692" lon="2.59719">
        <ele>200.6</ele>
        <time>2018-10-14T06:25:50Z</time>
      </trkpt>
      <trkpt lat="46.38701" lon="2.59719">
        <ele>201</ele>
        <time>2018-10-14T06:25:52Z</time>
      </trkpt>
      <trkpt lat="46.38706" lon="2.59719">
        <ele>201.3</ele>
        <time>2018-10-14T06:25:53Z</time>
      </trkpt>
      <trkpt lat="46.3871" lon="2.59719">
        <ele>201.4</ele>
        <time>2018-10-14T06:25:54Z</time>
      </trkpt>
      <trkpt lat="46.38715" lon="2.59719">
        <ele>201.5</ele>
        <time>2018-10-14T06:25:55Z</time>
      </trkpt>
      <trkpt lat="46.38719" lon="2.59718">
        <ele>201.6</ele>
        <time>2018-10-14T06:25:56Z</time>
      </trkpt>
      <trkpt lat="46.38724" lon="2.59718">
        <ele>201.5</ele>
        <time>2018-10-14T06:25:57Z</time>
      </trkpt>
      <trkpt lat="46.38729" lon="2.59718">
        <ele>201.4</ele>
        <time>2018-10-14T06:25:58Z</time>
      </trkpt>
      <trkpt lat="46.38733" lon="2.59718">
        <ele>200.9</ele>
        <time>2018-10-14T06:25:59Z</time>
      </trkpt>
      <trkpt lat="46.38738" lon="2.59717">
        <ele>200.5</ele>
        <time>2018-10-14T06:26:00Z</time>
      </trkpt>
      <trkpt lat="46.38742" lon="2.59717">
        <ele>200.2</ele>
        <time>2018-10-14T06:26:01Z</time>
      </trkpt>
      <trkpt lat="46.38751" lon="2.59716">
        <ele>200.1</ele>
        <time>2018-10-14T06:26:03Z</time>
      </trkpt>
      <trkpt lat="46.3876" lon="2.59716">
        <ele>200.5</ele>
        <time>2018-10-14T06:26:05Z</time>
      </trkpt>
      <trkpt lat="46.38768" lon="2.59715">
        <ele>201</ele>
        <time>2018-10-14T06:26:07Z</time>
      </trkpt>
      <trkpt lat="46.38773" lon="2.59715">
        <ele>201.1</ele>
        <time>2018-10-14T06:26:08Z</time>
      </trkpt>
      <trkpt lat="46.38777" lon="2.59715">
        <ele>201</ele>
        <time>2018-10-14T06:26:09Z</time>
      </trkpt>
      <trkpt lat="46.38782" lon="2.59715">
        <ele>200.8</ele>
        <time>2018-10-14T06:26:10Z</time>
      </trkpt>
      <trkpt lat="46.38787" lon="2.59715">
        <ele>201.1</ele>
        <time>2018-10-14T06:26:11Z</time>
      </trkpt>
      <trkpt lat="46.38791" lon="2.59714">
        <ele>201.4</ele>
        <time>2018-10-14T06:26:12Z</time>
      </trkpt>
      <trkpt lat="46.38796" lon="2.59714">
        <ele>201.3</ele>
        <time>2018-10-14T06:26:13Z</time>
      </trkpt>
      <trkpt lat="46.38801" lon="2.59713">
        <ele>201.2</ele>
        <time>2018-10-14T06:26:14Z</time>
      </trkpt>
      <trkpt lat="46.38806" lon="2.59713">
        <ele>201.1</ele>
        <time>2018-10-14T06:26:15Z</time>
      </trkpt>
      <trkpt lat="46.3881" lon="2.59713">
        <ele>201</ele>
        <time>2018-10-14T06:26:16Z</time>
      </trkpt>
      <trkpt lat="46.38815" lon="2.59713">
        <ele>201</ele>
        <time>2018-10-14T06:26:17Z</time>
      </trkpt>
      <trkpt lat="46.3882" lon="2.59712">
        <ele>201.2</ele>
        <time>2018-10-14T06:26:18Z</time>
      </trkpt>
      <trkpt lat="46.38825" lon="2.59712">
        <ele>201.3</ele>
        <time>2018-10-14T06:26:19Z</time>
      </trkpt>
      <trkpt lat="46.3883" lon="2.59712">
        <ele>201</ele>
        <time>2018-10-14T06:26:20Z</time>
      </trkpt>
      <trkpt lat="46.38834" lon="2.59712">
        <ele>200.7</ele>
        <time>2018-10-14T06:26:21Z</time>
      </trkpt>
      <trkpt lat="46.38839" lon="2.59712">
        <ele>200.6</ele>
        <time>2018-10-14T06:26:22Z</time>
      </trkpt>
      <trkpt lat="46.38844" lon="2.59711">
        <ele>200.9</ele>
        <time>2018-10-14T06:26:23Z</time>
      </trkpt>
      <trkpt lat="46.38849" lon="2.59711">
        <ele>201.1</ele>
        <time>2018-10-14T06:26:24Z</time>
      </trkpt>
      <trkpt lat="46.38853" lon="2.59711">
        <ele>201.1</ele>
        <time>2018-10-14T06:26:25Z</time>
      </trkpt>
      <trkpt lat="46.38858" lon="2.59711">
        <ele>201.1</ele>
        <time>2018-10-14T06:26:26Z</time>
      </trkpt>
      <trkpt lat="46.38863" lon="2.5971">
        <ele>201.1</ele>
        <time>2018-10-14T06:26:27Z</time>
      </trkpt>
      <trkpt lat="46.38868" lon="2.5971">
        <ele>200.8</ele>
        <time>2018-10-14T06:26:28Z</time>
      </trkpt>
      <trkpt lat="46.38872" lon="2.5971">
        <ele>200.6</ele>
        <time>2018-10-14T06:26:29Z</time>
      </trkpt>
      <trkpt lat="46.38877" lon="2.5971">
        <ele>201</ele>
        <time>2018-10-14T06:26:30Z</time>
      </trkpt>
      <trkpt lat="46.38882" lon="2.5971">
        <ele>201.2</ele>
        <time>2018-10-14T06:26:31Z</time>
      </trkpt>
      <trkpt lat="46.38886" lon="2.59709">
        <ele>200.9</ele>
        <time>2018-10-14T06:26:32Z</time>
      </trkpt>
      <trkpt lat="46.38891" lon="2.59709">
        <ele>200.7</ele>
        <time>2018-10-14T06:26:33Z</time>
      </trkpt>
      <trkpt lat="46.38895" lon="2.59709">
        <ele>200.5</ele>
        <time>2018-10-14T06:26:34Z</time>
      </trkpt>
      <trkpt lat="46.389" lon="2.59709">
        <ele>200.4</ele>
        <time>2018-10-14T06:26:35Z</time>
      </trkpt>
      <trkpt lat="46.38909" lon="2.59708">
        <ele>200.4</ele>
        <time>2018-10-14T06:26:37Z</time>
      </trkpt>
      <trkpt lat="46.38918" lon="2.59708">
        <ele>200.4</ele>
        <time>2018-10-14T06:26:39Z</time>
      </trkpt>
      <trkpt lat="46.38926" lon="2.59708">
        <ele>200.8</ele>
        <time>2018-10-14T06:26:41Z</time>
      </trkpt>
      <trkpt lat="46.38935" lon="2.59708">
        <ele>201.1</ele>
        <time>2018-10-14T06:26:43Z</time>
      </trkpt>
      <trkpt lat="46.38944" lon="2.59707">
        <ele>200.8</ele>
        <time>2018-10-14T06:26:45Z</time>
      </trkpt>
      <trkpt lat="46.38952" lon="2.59707">
        <ele>200.8</ele>
        <time>2018-10-14T06:26:47Z</time>
      </trkpt>
      <trkpt lat="46.38961" lon="2.59706">
        <ele>201.2</ele>
        <time>2018-10-14T06:26:49Z</time>
      </trkpt>
      <trkpt lat="46.3897" lon="2.59706">
        <ele>201.4</ele>
        <time>2018-10-14T06:26:51Z</time>
      </trkpt>
      <trkpt lat="46.38978" lon="2.59706">
        <ele>201.3</ele>
        <time>2018-10-14T06:26:53Z</time>
      </trkpt>
      <trkpt lat="46.38987" lon="2.59705">
        <ele>201</ele>
        <time>2018-10-14T06:26:55Z</time>
      </trkpt>
      <trkpt lat="46.38995" lon="2.59705">
        <ele>201.2</ele>
        <time>2018-10-14T06:26:57Z</time>
      </trkpt>
      <trkpt lat="46.39003" lon="2.59704">
        <ele>201.3</ele>
        <time>2018-10-14T06:26:59Z</time>
      </trkpt>
      <trkpt lat="46.39011" lon="2.59704">
        <ele>201.1</ele>
        <time>2018-10-14T06:27:01Z</time>
      </trkpt>
      <trkpt lat="46.39019" lon="2.59703">
        <ele>201.1</ele>
        <time>2018-10-14T06:27:03Z</time>
      </trkpt>
      <trkpt lat="46.39027" lon="2.59703">
        <ele>201.2</ele>
        <time>2018-10-14T06:27:05Z</time>
      </trkpt>
      <trkpt lat="46.39035" lon="2.59705">
        <ele>201.1</ele>
        <time>2018-10-14T06:27:07Z</time>
      </trkpt>
      <trkpt lat="46.39042" lon="2.5971">
        <ele>201.6</ele>
        <time>2018-10-14T06:27:09Z</time>
      </trkpt>
      <trkpt lat="46.3905" lon="2.59715">
        <ele>201.2</ele>
        <time>2018-10-14T06:27:11Z</time>
      </trkpt>
      <trkpt lat="46.39054" lon="2.59718">
        <ele>201</ele>
        <time>2018-10-14T06:27:12Z</time>
      </trkpt>
      <trkpt lat="46.39058" lon="2.59721">
        <ele>201</ele>
        <time>2018-10-14T06:27:13Z</time>
      </trkpt>
      <trkpt lat="46.39062" lon="2.59724">
        <ele>200.9</ele>
        <time>2018-10-14T06:27:14Z</time>
      </trkpt>
      <trkpt lat="46.39066" lon="2.59727">
        <ele>200.8</ele>
        <time>2018-10-14T06:27:15Z</time>
      </trkpt>
      <trkpt lat="46.39075" lon="2.59729">
        <ele>200.7</ele>
        <time>2018-10-14T06:27:17Z</time>
      </trkpt>
      <trkpt lat="46.39082" lon="2.59727">
        <ele>200.7</ele>
        <time>2018-10-14T06:27:19Z</time>
      </trkpt>
      <trkpt lat="46.39089" lon="2.59722">
        <ele>200.2</ele>
        <time>2018-10-14T06:27:21Z</time>
      </trkpt>
      <trkpt lat="46.39095" lon="2.59716">
        <ele>200.2</ele>
        <time>2018-10-14T06:27:23Z</time>
      </trkpt>
      <trkpt lat="46.39103" lon="2.5971">
        <ele>200.5</ele>
        <time>2018-10-14T06:27:25Z</time>
      </trkpt>
      <trkpt lat="46.39111" lon="2.59706">
        <ele>200.7</ele>
        <time>2018-10-14T06:27:27Z</time>
      </trkpt>
      <trkpt lat="46.39119" lon="2.59704">
        <ele>200.8</ele>
        <time>2018-10-14T06:27:29Z</time>
      </trkpt>
      <trkpt lat="46.39123" lon="2.59704">
        <ele>200.8</ele>
        <time>2018-10-14T06:27:30Z</time>
      </trkpt>
      <trkpt lat="46.39135" lon="2.59703">
        <ele>201.3</ele>
        <time>2018-10-14T06:27:34Z</time>
      </trkpt>
      <trkpt lat="46.39142" lon="2.59704">
        <ele>201.3</ele>
        <time>2018-10-14T06:27:37Z</time>
      </trkpt>
      <trkpt lat="46.39146" lon="2.59695">
        <ele>202.2</ele>
        <time>2018-10-14T06:27:41Z</time>
      </trkpt>
      <trkpt lat="46.39145" lon="2.59684">
        <ele>202</ele>
        <time>2018-10-14T06:27:44Z</time>
      </trkpt>
      <trkpt lat="46.39144" lon="2.59672">
        <ele>202.3</ele>
        <time>2018-10-14T06:27:47Z</time>
      </trkpt>
      <trkpt lat="46.39143" lon="2.59659">
        <ele>203.3</ele>
        <time>2018-10-14T06:27:50Z</time>
      </trkpt>
      <trkpt lat="46.39142" lon="2.5965">
        <ele>202.9</ele>
        <time>2018-10-14T06:27:52Z</time>
      </trkpt>
      <trkpt lat="46.3914" lon="2.59639">
        <ele>203</ele>
        <time>2018-10-14T06:27:55Z</time>
      </trkpt>
      <trkpt lat="46.3914" lon="2.59629">
        <ele>203.1</ele>
        <time>2018-10-14T06:27:57Z</time>
      </trkpt>
      <trkpt lat="46.39147" lon="2.59595">
        <ele>200</ele>
        <time>2018-10-14T06:28:02Z</time>
      </trkpt>
      <trkpt lat="46.39154" lon="2.59587">
        <ele>201.3</ele>
        <time>2018-10-14T06:28:06Z</time>
      </trkpt>
      <trkpt lat="46.39162" lon="2.59585">
        <ele>202.2</ele>
        <time>2018-10-14T06:28:10Z</time>
      </trkpt>
      <trkpt lat="46.39168" lon="2.59584">
        <ele>202.6</ele>
        <time>2018-10-14T06:28:12Z</time>
      </trkpt>
      <trkpt lat="46.39174" lon="2.59582">
        <ele>202.9</ele>
        <time>2018-10-14T06:28:14Z</time>
      </trkpt>
      <trkpt lat="46.3918" lon="2.5958">
        <ele>203.5</ele>
        <time>2018-10-14T06:28:16Z</time>
      </trkpt>
      <trkpt lat="46.39187" lon="2.5958">
        <ele>203.1</ele>
        <time>2018-10-14T06:28:18Z</time>
      </trkpt>
      <trkpt lat="46.39192" lon="2.59585">
        <ele>203</ele>
        <time>2018-10-14T06:28:20Z</time>
      </trkpt>
      <trkpt lat="46.39196" lon="2.59593">
        <ele>203.2</ele>
        <time>2018-10-14T06:28:22Z</time>
      </trkpt>
      <trkpt lat="46.39202" lon="2.59601">
        <ele>203.5</ele>
        <time>2018-10-14T06:28:24Z</time>
      </trkpt>
      <trkpt lat="46.39206" lon="2.59604">
        <ele>203.6</ele>
        <time>2018-10-14T06:28:25Z</time>
      </trkpt>
      <trkpt lat="46.3921" lon="2.59607">
        <ele>203.2</ele>
        <time>2018-10-14T06:28:26Z</time>
      </trkpt>
      <trkpt lat="46.39215" lon="2.59609">
        <ele>202.9</ele>
        <time>2018-10-14T06:28:27Z</time>
      </trkpt>
      <trkpt lat="46.3922" lon="2.5961">
        <ele>202.7</ele>
        <time>2018-10-14T06:28:28Z</time>
      </trkpt>
      <trkpt lat="46.39224" lon="2.59611">
        <ele>202.4</ele>
        <time>2018-10-14T06:28:29Z</time>
      </trkpt>
      <trkpt lat="46.39229" lon="2.59612">
        <ele>202.2</ele>
        <time>2018-10-14T06:28:30Z</time>
      </trkpt>
      <trkpt lat="46.39234" lon="2.59613">
        <ele>202</ele>
        <time>2018-10-14T06:28:31Z</time>
      </trkpt>
      <trkpt lat="46.39238" lon="2.59614">
        <ele>201.9</ele>
        <time>2018-10-14T06:28:32Z</time>
      </trkpt>
      <trkpt lat="46.39247" lon="2.59615">
        <ele>202.1</ele>
        <time>2018-10-14T06:28:34Z</time>
      </trkpt>
      <trkpt lat="46.39255" lon="2.59617">
        <ele>202.7</ele>
        <time>2018-10-14T06:28:36Z</time>
      </trkpt>
      <trkpt lat="46.39263" lon="2.59618">
        <ele>203.4</ele>
        <time>2018-10-14T06:28:38Z</time>
      </trkpt>
      <trkpt lat="46.3927" lon="2.59618">
        <ele>203.7</ele>
        <time>2018-10-14T06:28:40Z</time>
      </trkpt>
      <trkpt lat="46.39278" lon="2.5962">
        <ele>203.5</ele>
        <time>2018-10-14T06:28:42Z</time>
      </trkpt>
      <trkpt lat="46.39285" lon="2.59621">
        <ele>204</ele>
        <time>2018-10-14T06:28:44Z</time>
      </trkpt>
      <trkpt lat="46.39292" lon="2.59621">
        <ele>203.8</ele>
        <time>2018-10-14T06:28:46Z</time>
      </trkpt>
      <trkpt lat="46.39299" lon="2.59621">
        <ele>203.7</ele>
        <time>2018-10-14T06:28:48Z</time>
      </trkpt>
      <trkpt lat="46.39306" lon="2.59621">
        <ele>204.4</ele>
        <time>2018-10-14T06:28:50Z</time>
      </trkpt>
      <trkpt lat="46.39313" lon="2.59621">
        <ele>204.9</ele>
        <time>2018-10-14T06:28:52Z</time>
      </trkpt>
      <trkpt lat="46.39321" lon="2.59621">
        <ele>204.9</ele>
        <time>2018-10-14T06:28:54Z</time>
      </trkpt>
      <trkpt lat="46.39329" lon="2.59622">
        <ele>205.6</ele>
        <time>2018-10-14T06:28:56Z</time>
      </trkpt>
      <trkpt lat="46.39336" lon="2.59622">
        <ele>206.6</ele>
        <time>2018-10-14T06:28:58Z</time>
      </trkpt>
      <trkpt lat="46.39344" lon="2.59622">
        <ele>206.6</ele>
        <time>2018-10-14T06:29:00Z</time>
      </trkpt>
      <trkpt lat="46.39352" lon="2.59622">
        <ele>206.5</ele>
        <time>2018-10-14T06:29:02Z</time>
      </trkpt>
      <trkpt lat="46.3936" lon="2.59622">
        <ele>206.8</ele>
        <time>2018-10-14T06:29:04Z</time>
      </trkpt>
      <trkpt lat="46.39368" lon="2.59622">
        <ele>207.1</ele>
        <time>2018-10-14T06:29:06Z</time>
      </trkpt>
      <trkpt lat="46.39376" lon="2.59622">
        <ele>206.9</ele>
        <time>2018-10-14T06:29:08Z</time>
      </trkpt>
      <trkpt lat="46.39384" lon="2.59622">
        <ele>205.9</ele>
        <time>2018-10-14T06:29:10Z</time>
      </trkpt>
      <trkpt lat="46.39392" lon="2.59622">
        <ele>205.6</ele>
        <time>2018-10-14T06:29:12Z</time>
      </trkpt>
      <trkpt lat="46.39396" lon="2.59622">
        <ele>205.7</ele>
        <time>2018-10-14T06:29:13Z</time>
      </trkpt>
      <trkpt lat="46.39401" lon="2.59622">
        <ele>205.8</ele>
        <time>2018-10-14T06:29:14Z</time>
      </trkpt>
      <trkpt lat="46.39406" lon="2.59621">
        <ele>205.9</ele>
        <time>2018-10-14T06:29:15Z</time>
      </trkpt>
      <trkpt lat="46.3941" lon="2.59621">
        <ele>205.9</ele>
        <time>2018-10-14T06:29:16Z</time>
      </trkpt>
      <trkpt lat="46.39415" lon="2.59621">
        <ele>205.9</ele>
        <time>2018-10-14T06:29:17Z</time>
      </trkpt>
      <trkpt lat="46.3942" lon="2.5962">
        <ele>205.9</ele>
        <time>2018-10-14T06:29:18Z</time>
      </trkpt>
      <trkpt lat="46.39424" lon="2.5962">
        <ele>206.1</ele>
        <time>2018-10-14T06:29:19Z</time>
      </trkpt>
      <trkpt lat="46.39429" lon="2.5962">
        <ele>206.2</ele>
        <time>2018-10-14T06:29:20Z</time>
      </trkpt>
      <trkpt lat="46.39434" lon="2.59619">
        <ele>206</ele>
        <time>2018-10-14T06:29:21Z</time>
      </trkpt>
      <trkpt lat="46.39438" lon="2.59619">
        <ele>206</ele>
        <time>2018-10-14T06:29:22Z</time>
      </trkpt>
      <trkpt lat="46.39443" lon="2.59619">
        <ele>205.9</ele>
        <time>2018-10-14T06:29:23Z</time>
      </trkpt>
      <trkpt lat="46.39447" lon="2.59618">
        <ele>205.9</ele>
        <time>2018-10-14T06:29:24Z</time>
      </trkpt>
      <trkpt lat="46.39452" lon="2.59618">
        <ele>205.8</ele>
        <time>2018-10-14T06:29:25Z</time>
      </trkpt>
      <trkpt lat="46.39457" lon="2.59617">
        <ele>206</ele>
        <time>2018-10-14T06:29:26Z</time>
      </trkpt>
      <trkpt lat="46.39462" lon="2.59616">
        <ele>206</ele>
        <time>2018-10-14T06:29:27Z</time>
      </trkpt>
      <trkpt lat="46.39467" lon="2.59616">
        <ele>205.9</ele>
        <time>2018-10-14T06:29:28Z</time>
      </trkpt>
      <trkpt lat="46.39472" lon="2.59615">
        <ele>205.8</ele>
        <time>2018-10-14T06:29:29Z</time>
      </trkpt>
      <trkpt lat="46.39477" lon="2.59615">
        <ele>205.6</ele>
        <time>2018-10-14T06:29:30Z</time>
      </trkpt>
      <trkpt lat="46.39482" lon="2.59614">
        <ele>205.5</ele>
        <time>2018-10-14T06:29:31Z</time>
      </trkpt>
      <trkpt lat="46.39488" lon="2.59613">
        <ele>205.5</ele>
        <time>2018-10-14T06:29:32Z</time>
      </trkpt>
      <trkpt lat="46.39493" lon="2.59612">
        <ele>205.2</ele>
        <time>2018-10-14T06:29:33Z</time>
      </trkpt>
      <trkpt lat="46.39499" lon="2.59611">
        <ele>205</ele>
        <time>2018-10-14T06:29:34Z</time>
      </trkpt>
      <trkpt lat="46.39505" lon="2.59611">
        <ele>204.3</ele>
        <time>2018-10-14T06:29:35Z</time>
      </trkpt>
      <trkpt lat="46.39511" lon="2.5961">
        <ele>203.7</ele>
        <time>2018-10-14T06:29:36Z</time>
      </trkpt>
      <trkpt lat="46.39518" lon="2.59609">
        <ele>203.3</ele>
        <time>2018-10-14T06:29:37Z</time>
      </trkpt>
      <trkpt lat="46.39524" lon="2.59608">
        <ele>203.1</ele>
        <time>2018-10-14T06:29:38Z</time>
      </trkpt>
      <trkpt lat="46.39531" lon="2.59607">
        <ele>202.9</ele>
        <time>2018-10-14T06:29:39Z</time>
      </trkpt>
      <trkpt lat="46.39538" lon="2.59605">
        <ele>202.4</ele>
        <time>2018-10-14T06:29:40Z</time>
      </trkpt>
      <trkpt lat="46.39544" lon="2.59604">
        <ele>202.1</ele>
        <time>2018-10-14T06:29:41Z</time>
      </trkpt>
      <trkpt lat="46.39551" lon="2.59603">
        <ele>201.9</ele>
        <time>2018-10-14T06:29:42Z</time>
      </trkpt>
      <trkpt lat="46.39557" lon="2.59602">
        <ele>201.7</ele>
        <time>2018-10-14T06:29:43Z</time>
      </trkpt>
      <trkpt lat="46.39564" lon="2.59601">
        <ele>201.6</ele>
        <time>2018-10-14T06:29:44Z</time>
      </trkpt>
      <trkpt lat="46.3957" lon="2.596">
        <ele>201.6</ele>
        <time>2018-10-14T06:29:45Z</time>
      </trkpt>
      <trkpt lat="46.39577" lon="2.59598">
        <ele>201.6</ele>
        <time>2018-10-14T06:29:46Z</time>
      </trkpt>
      <trkpt lat="46.39583" lon="2.59597">
        <ele>201.7</ele>
        <time>2018-10-14T06:29:47Z</time>
      </trkpt>
      <trkpt lat="46.39589" lon="2.59596">
        <ele>201.7</ele>
        <time>2018-10-14T06:29:48Z</time>
      </trkpt>
      <trkpt lat="46.39595" lon="2.59594">
        <ele>202</ele>
        <time>2018-10-14T06:29:49Z</time>
      </trkpt>
      <trkpt lat="46.39601" lon="2.59593">
        <ele>202.1</ele>
        <time>2018-10-14T06:29:50Z</time>
      </trkpt>
      <trkpt lat="46.39607" lon="2.59592">
        <ele>202.3</ele>
        <time>2018-10-14T06:29:51Z</time>
      </trkpt>
      <trkpt lat="46.39613" lon="2.5959">
        <ele>202</ele>
        <time>2018-10-14T06:29:52Z</time>
      </trkpt>
      <trkpt lat="46.39619" lon="2.59589">
        <ele>201.7</ele>
        <time>2018-10-14T06:29:53Z</time>
      </trkpt>
      <trkpt lat="46.39624" lon="2.59588">
        <ele>201.5</ele>
        <time>2018-10-14T06:29:54Z</time>
      </trkpt>
      <trkpt lat="46.3963" lon="2.59586">
        <ele>201.3</ele>
        <time>2018-10-14T06:29:55Z</time>
      </trkpt>
      <trkpt lat="46.39635" lon="2.59585">
        <ele>201.2</ele>
        <time>2018-10-14T06:29:56Z</time>
      </trkpt>
      <trkpt lat="46.3964" lon="2.59585">
        <ele>201.2</ele>
        <time>2018-10-14T06:29:57Z</time>
      </trkpt>
      <trkpt lat="46.39645" lon="2.59585">
        <ele>201.3</ele>
        <time>2018-10-14T06:29:58Z</time>
      </trkpt>
      <trkpt lat="46.3965" lon="2.59584">
        <ele>201.3</ele>
        <time>2018-10-14T06:29:59Z</time>
      </trkpt>
      <trkpt lat="46.39655" lon="2.59583">
        <ele>201.2</ele>
        <time>2018-10-14T06:30:00Z</time>
      </trkpt>
      <trkpt lat="46.39659" lon="2.59581">
        <ele>201.5</ele>
        <time>2018-10-14T06:30:01Z</time>
      </trkpt>
      <trkpt lat="46.39664" lon="2.5958">
        <ele>201.7</ele>
        <time>2018-10-14T06:30:02Z</time>
      </trkpt>
      <trkpt lat="46.39668" lon="2.59579">
        <ele>201.8</ele>
        <time>2018-10-14T06:30:03Z</time>
      </trkpt>
      <trkpt lat="46.39673" lon="2.59577">
        <ele>201.9</ele>
        <time>2018-10-14T06:30:04Z</time>
      </trkpt>
      <trkpt lat="46.39677" lon="2.59576">
        <ele>201.9</ele>
        <time>2018-10-14T06:30:05Z</time>
      </trkpt>
      <trkpt lat="46.39686" lon="2.59574">
        <ele>202</ele>
        <time>2018-10-14T06:30:07Z</time>
      </trkpt>
      <trkpt lat="46.39694" lon="2.59571">
        <ele>202</ele>
        <time>2018-10-14T06:30:09Z</time>
      </trkpt>
      <trkpt lat="46.39703" lon="2.59568">
        <ele>202.3</ele>
        <time>2018-10-14T06:30:11Z</time>
      </trkpt>
      <trkpt lat="46.39711" lon="2.59566">
        <ele>202.6</ele>
        <time>2018-10-14T06:30:13Z</time>
      </trkpt>
      <trkpt lat="46.39718" lon="2.59563">
        <ele>202.7</ele>
        <time>2018-10-14T06:30:15Z</time>
      </trkpt>
      <trkpt lat="46.39726" lon="2.5956">
        <ele>203.4</ele>
        <time>2018-10-14T06:30:17Z</time>
      </trkpt>
      <trkpt lat="46.39734" lon="2.59557">
        <ele>203.1</ele>
        <time>2018-10-14T06:30:19Z</time>
      </trkpt>
      <trkpt lat="46.39742" lon="2.59555">
        <ele>202.8</ele>
        <time>2018-10-14T06:30:21Z</time>
      </trkpt>
      <trkpt lat="46.39751" lon="2.59552">
        <ele>202.9</ele>
        <time>2018-10-14T06:30:23Z</time>
      </trkpt>
      <trkpt lat="46.39756" lon="2.5955">
        <ele>203</ele>
        <time>2018-10-14T06:30:24Z</time>
      </trkpt>
      <trkpt lat="46.3976" lon="2.59549">
        <ele>203.7</ele>
        <time>2018-10-14T06:30:25Z</time>
      </trkpt>
      <trkpt lat="46.39765" lon="2.59548">
        <ele>204.2</ele>
        <time>2018-10-14T06:30:26Z</time>
      </trkpt>
      <trkpt lat="46.3977" lon="2.59547">
        <ele>204.1</ele>
        <time>2018-10-14T06:30:27Z</time>
      </trkpt>
      <trkpt lat="46.39779" lon="2.59545">
        <ele>204</ele>
        <time>2018-10-14T06:30:29Z</time>
      </trkpt>
      <trkpt lat="46.39787" lon="2.59542">
        <ele>204.6</ele>
        <time>2018-10-14T06:30:31Z</time>
      </trkpt>
      <trkpt lat="46.39792" lon="2.59541">
        <ele>205.1</ele>
        <time>2018-10-14T06:30:32Z</time>
      </trkpt>
      <trkpt lat="46.39796" lon="2.5954">
        <ele>205.5</ele>
        <time>2018-10-14T06:30:33Z</time>
      </trkpt>
      <trkpt lat="46.39805" lon="2.59538">
        <ele>205.5</ele>
        <time>2018-10-14T06:30:35Z</time>
      </trkpt>
      <trkpt lat="46.39814" lon="2.59535">
        <ele>205.8</ele>
        <time>2018-10-14T06:30:37Z</time>
      </trkpt>
      <trkpt lat="46.39822" lon="2.59533">
        <ele>206.6</ele>
        <time>2018-10-14T06:30:39Z</time>
      </trkpt>
      <trkpt lat="46.3983" lon="2.5953">
        <ele>207.2</ele>
        <time>2018-10-14T06:30:41Z</time>
      </trkpt>
      <trkpt lat="46.39838" lon="2.59528">
        <ele>208</ele>
        <time>2018-10-14T06:30:43Z</time>
      </trkpt>
      <trkpt lat="46.39846" lon="2.59525">
        <ele>208.3</ele>
        <time>2018-10-14T06:30:45Z</time>
      </trkpt>
      <trkpt lat="46.39854" lon="2.59522">
        <ele>208.9</ele>
        <time>2018-10-14T06:30:47Z</time>
      </trkpt>
      <trkpt lat="46.39862" lon="2.5952">
        <ele>209.1</ele>
        <time>2018-10-14T06:30:49Z</time>
      </trkpt>
      <trkpt lat="46.39871" lon="2.59519">
        <ele>209.4</ele>
        <time>2018-10-14T06:30:51Z</time>
      </trkpt>
      <trkpt lat="46.39879" lon="2.59517">
        <ele>209.8</ele>
        <time>2018-10-14T06:30:53Z</time>
      </trkpt>
      <trkpt lat="46.39887" lon="2.59517">
        <ele>210.2</ele>
        <time>2018-10-14T06:30:55Z</time>
      </trkpt>
      <trkpt lat="46.39892" lon="2.59516">
        <ele>210</ele>
        <time>2018-10-14T06:30:56Z</time>
      </trkpt>
      <trkpt lat="46.39896" lon="2.59516">
        <ele>209.9</ele>
        <time>2018-10-14T06:30:57Z</time>
      </trkpt>
      <trkpt lat="46.39901" lon="2.59516">
        <ele>210.1</ele>
        <time>2018-10-14T06:30:58Z</time>
      </trkpt>
      <trkpt lat="46.39905" lon="2.59515">
        <ele>210.3</ele>
        <time>2018-10-14T06:30:59Z</time>
      </trkpt>
      <trkpt lat="46.3991" lon="2.59515">
        <ele>210.4</ele>
        <time>2018-10-14T06:31:00Z</time>
      </trkpt>
      <trkpt lat="46.39916" lon="2.59515">
        <ele>210</ele>
        <time>2018-10-14T06:31:01Z</time>
      </trkpt>
      <trkpt lat="46.39921" lon="2.59515">
        <ele>209.8</ele>
        <time>2018-10-14T06:31:02Z</time>
      </trkpt>
      <trkpt lat="46.39927" lon="2.59514">
        <ele>209.3</ele>
        <time>2018-10-14T06:31:03Z</time>
      </trkpt>
      <trkpt lat="46.39933" lon="2.59514">
        <ele>209</ele>
        <time>2018-10-14T06:31:04Z</time>
      </trkpt>
      <trkpt lat="46.3994" lon="2.59513">
        <ele>208.8</ele>
        <time>2018-10-14T06:31:05Z</time>
      </trkpt>
      <trkpt lat="46.39947" lon="2.59512">
        <ele>208.6</ele>
        <time>2018-10-14T06:31:06Z</time>
      </trkpt>
      <trkpt lat="46.39954" lon="2.5951">
        <ele>208.5</ele>
        <time>2018-10-14T06:31:07Z</time>
      </trkpt>
      <trkpt lat="46.39961" lon="2.59506">
        <ele>207.9</ele>
        <time>2018-10-14T06:31:08Z</time>
      </trkpt>
      <trkpt lat="46.39968" lon="2.59502">
        <ele>207.4</ele>
        <time>2018-10-14T06:31:09Z</time>
      </trkpt>
      <trkpt lat="46.39974" lon="2.59498">
        <ele>207.3</ele>
        <time>2018-10-14T06:31:10Z</time>
      </trkpt>
      <trkpt lat="46.39979" lon="2.59494">
        <ele>207.3</ele>
        <time>2018-10-14T06:31:11Z</time>
      </trkpt>
      <trkpt lat="46.39983" lon="2.59489">
        <ele>207.5</ele>
        <time>2018-10-14T06:31:12Z</time>
      </trkpt>
      <trkpt lat="46.3999" lon="2.59481">
        <ele>207.7</ele>
        <time>2018-10-14T06:31:14Z</time>
      </trkpt>
      <trkpt lat="46.39996" lon="2.59475">
        <ele>208.6</ele>
        <time>2018-10-14T06:31:16Z</time>
      </trkpt>
      <trkpt lat="46.40001" lon="2.59466">
        <ele>208.9</ele>
        <time>2018-10-14T06:31:19Z</time>
      </trkpt>
      <trkpt lat="46.40008" lon="2.59457">
        <ele>213.4</ele>
        <time>2018-10-14T06:31:28Z</time>
      </trkpt>
      <trkpt lat="46.40013" lon="2.59449">
        <ele>213.4</ele>
        <time>2018-10-14T06:31:35Z</time>
      </trkpt>
      <trkpt lat="46.40014" lon="2.59447">
        <ele>213.7</ele>
        <time>2018-10-14T06:31:36Z</time>
      </trkpt>
      <trkpt lat="46.40021" lon="2.59429">
        <ele>217.3</ele>
        <time>2018-10-14T06:31:46Z</time>
      </trkpt>
      <trkpt lat="46.40026" lon="2.59418">
        <ele>219.1</ele>
        <time>2018-10-14T06:31:51Z</time>
      </trkpt>
      <trkpt lat="46.40029" lon="2.59407">
        <ele>219.8</ele>
        <time>2018-10-14T06:31:56Z</time>
      </trkpt>
      <trkpt lat="46.40033" lon="2.59398">
        <ele>221.4</ele>
        <time>2018-10-14T06:32:01Z</time>
      </trkpt>
      <trkpt lat="46.40039" lon="2.59391">
        <ele>223</ele>
        <time>2018-10-14T06:32:06Z</time>
      </trkpt>
      <trkpt lat="46.40047" lon="2.59389">
        <ele>223.5</ele>
        <time>2018-10-14T06:32:10Z</time>
      </trkpt>
      <trkpt lat="46.40054" lon="2.59388">
        <ele>223.3</ele>
        <time>2018-10-14T06:32:13Z</time>
      </trkpt>
      <trkpt lat="46.40061" lon="2.59388">
        <ele>224.3</ele>
        <time>2018-10-14T06:32:16Z</time>
      </trkpt>
      <trkpt lat="46.40069" lon="2.59388">
        <ele>225.2</ele>
        <time>2018-10-14T06:32:20Z</time>
      </trkpt>
      <trkpt lat="46.40077" lon="2.59387">
        <ele>226.7</ele>
        <time>2018-10-14T06:32:24Z</time>
      </trkpt>
      <trkpt lat="46.40084" lon="2.59385">
        <ele>227.8</ele>
        <time>2018-10-14T06:32:28Z</time>
      </trkpt>
      <trkpt lat="46.40092" lon="2.59382">
        <ele>229.5</ele>
        <time>2018-10-14T06:32:32Z</time>
      </trkpt>
      <trkpt lat="46.40099" lon="2.59378">
        <ele>230</ele>
        <time>2018-10-14T06:32:36Z</time>
      </trkpt>
      <trkpt lat="46.40101" lon="2.59376">
        <ele>230.1</ele>
        <time>2018-10-14T06:32:37Z</time>
      </trkpt>
      <trkpt lat="46.40113" lon="2.59367">
        <ele>232</ele>
        <time>2018-10-14T06:32:44Z</time>
      </trkpt>
      <trkpt lat="46.40119" lon="2.59359">
        <ele>232.5</ele>
        <time>2018-10-14T06:32:48Z</time>
      </trkpt>
      <trkpt lat="46.40126" lon="2.59354">
        <ele>233.7</ele>
        <time>2018-10-14T06:32:51Z</time>
      </trkpt>
      <trkpt lat="46.40133" lon="2.59348">
        <ele>234.5</ele>
        <time>2018-10-14T06:32:54Z</time>
      </trkpt>
      <trkpt lat="46.40141" lon="2.59343">
        <ele>235.2</ele>
        <time>2018-10-14T06:32:57Z</time>
      </trkpt>
      <trkpt lat="46.40146" lon="2.59339">
        <ele>235.7</ele>
        <time>2018-10-14T06:32:59Z</time>
      </trkpt>
      <trkpt lat="46.40152" lon="2.59334">
        <ele>236</ele>
        <time>2018-10-14T06:33:01Z</time>
      </trkpt>
      <trkpt lat="46.40159" lon="2.59326">
        <ele>235.6</ele>
        <time>2018-10-14T06:33:04Z</time>
      </trkpt>
      <trkpt lat="46.40165" lon="2.59318">
        <ele>236.1</ele>
        <time>2018-10-14T06:33:07Z</time>
      </trkpt>
      <trkpt lat="46.40171" lon="2.59311">
        <ele>235.9</ele>
        <time>2018-10-14T06:33:10Z</time>
      </trkpt>
      <trkpt lat="46.40176" lon="2.59302">
        <ele>236.8</ele>
        <time>2018-10-14T06:33:13Z</time>
      </trkpt>
      <trkpt lat="46.40182" lon="2.59293">
        <ele>237.8</ele>
        <time>2018-10-14T06:33:17Z</time>
      </trkpt>
      <trkpt lat="46.40186" lon="2.59285">
        <ele>237.4</ele>
        <time>2018-10-14T06:33:20Z</time>
      </trkpt>
      <trkpt lat="46.40191" lon="2.59274">
        <ele>239.2</ele>
        <time>2018-10-14T06:33:24Z</time>
      </trkpt>
      <trkpt lat="46.40193" lon="2.59263">
        <ele>240.7</ele>
        <time>2018-10-14T06:33:28Z</time>
      </trkpt>
      <trkpt lat="46.40195" lon="2.59252">
        <ele>242.1</ele>
        <time>2018-10-14T06:33:32Z</time>
      </trkpt>
      <trkpt lat="46.40194" lon="2.59239">
        <ele>242.7</ele>
        <time>2018-10-14T06:33:37Z</time>
      </trkpt>
      <trkpt lat="46.40194" lon="2.59237">
        <ele>242.9</ele>
        <time>2018-10-14T06:33:38Z</time>
      </trkpt>
      <trkpt lat="46.40191" lon="2.59217">
        <ele>245.6</ele>
        <time>2018-10-14T06:33:45Z</time>
      </trkpt>
      <trkpt lat="46.4019" lon="2.59206">
        <ele>247.2</ele>
        <time>2018-10-14T06:33:49Z</time>
      </trkpt>
      <trkpt lat="46.40189" lon="2.59194">
        <ele>247.6</ele>
        <time>2018-10-14T06:33:52Z</time>
      </trkpt>
      <trkpt lat="46.40191" lon="2.59182">
        <ele>248.5</ele>
        <time>2018-10-14T06:33:56Z</time>
      </trkpt>
      <trkpt lat="46.40193" lon="2.5917">
        <ele>249.9</ele>
        <time>2018-10-14T06:34:00Z</time>
      </trkpt>
      <trkpt lat="46.40191" lon="2.59157">
        <ele>249.6</ele>
        <time>2018-10-14T06:34:03Z</time>
      </trkpt>
      <trkpt lat="46.40187" lon="2.59149">
        <ele>249.7</ele>
        <time>2018-10-14T06:34:05Z</time>
      </trkpt>
      <trkpt lat="46.40183" lon="2.59142">
        <ele>249.7</ele>
        <time>2018-10-14T06:34:07Z</time>
      </trkpt>
      <trkpt lat="46.40176" lon="2.59134">
        <ele>249.3</ele>
        <time>2018-10-14T06:34:10Z</time>
      </trkpt>
      <trkpt lat="46.4017" lon="2.5913">
        <ele>250.4</ele>
        <time>2018-10-14T06:34:13Z</time>
      </trkpt>
      <trkpt lat="46.40162" lon="2.59127">
        <ele>251.6</ele>
        <time>2018-10-14T06:34:17Z</time>
      </trkpt>
      <trkpt lat="46.40155" lon="2.59125">
        <ele>252.7</ele>
        <time>2018-10-14T06:34:20Z</time>
      </trkpt>
      <trkpt lat="46.40147" lon="2.59123">
        <ele>253.5</ele>
        <time>2018-10-14T06:34:23Z</time>
      </trkpt>
      <trkpt lat="46.40139" lon="2.59121">
        <ele>253.6</ele>
        <time>2018-10-14T06:34:26Z</time>
      </trkpt>
      <trkpt lat="46.40133" lon="2.59113">
        <ele>254.8</ele>
        <time>2018-10-14T06:34:29Z</time>
      </trkpt>
      <trkpt lat="46.40126" lon="2.59104">
        <ele>254.8</ele>
        <time>2018-10-14T06:34:32Z</time>
      </trkpt>
      <trkpt lat="46.40122" lon="2.59094">
        <ele>255</ele>
        <time>2018-10-14T06:34:35Z</time>
      </trkpt>
      <trkpt lat="46.40122" lon="2.59081">
        <ele>255.7</ele>
        <time>2018-10-14T06:34:39Z</time>
      </trkpt>
      <trkpt lat="46.40125" lon="2.5908">
        <ele>255.8</ele>
        <time>2018-10-14T06:34:40Z</time>
      </trkpt>
      <trkpt lat="46.40135" lon="2.5908">
        <ele>255.4</ele>
        <time>2018-10-14T06:34:43Z</time>
      </trkpt>
      <trkpt lat="46.40143" lon="2.5908">
        <ele>255.1</ele>
        <time>2018-10-14T06:34:45Z</time>
      </trkpt>
      <trkpt lat="46.40148" lon="2.5908">
        <ele>255</ele>
        <time>2018-10-14T06:34:46Z</time>
      </trkpt>
      <trkpt lat="46.40153" lon="2.59079">
        <ele>255</ele>
        <time>2018-10-14T06:34:47Z</time>
      </trkpt>
      <trkpt lat="46.40158" lon="2.59079">
        <ele>254.9</ele>
        <time>2018-10-14T06:34:48Z</time>
      </trkpt>
      <trkpt lat="46.40163" lon="2.59079">
        <ele>254.4</ele>
        <time>2018-10-14T06:34:49Z</time>
      </trkpt>
      <trkpt lat="46.40168" lon="2.59078">
        <ele>254</ele>
        <time>2018-10-14T06:34:50Z</time>
      </trkpt>
      <trkpt lat="46.40174" lon="2.59078">
        <ele>253.9</ele>
        <time>2018-10-14T06:34:51Z</time>
      </trkpt>
      <trkpt lat="46.40179" lon="2.59077">
        <ele>253.8</ele>
        <time>2018-10-14T06:34:52Z</time>
      </trkpt>
      <trkpt lat="46.40185" lon="2.59076">
        <ele>253.8</ele>
        <time>2018-10-14T06:34:53Z</time>
      </trkpt>
      <trkpt lat="46.4019" lon="2.59075">
        <ele>253.8</ele>
        <time>2018-10-14T06:34:54Z</time>
      </trkpt>
      <trkpt lat="46.40195" lon="2.59074">
        <ele>253.7</ele>
        <time>2018-10-14T06:34:55Z</time>
      </trkpt>
      <trkpt lat="46.402" lon="2.59073">
        <ele>253.6</ele>
        <time>2018-10-14T06:34:56Z</time>
      </trkpt>
      <trkpt lat="46.40205" lon="2.59072">
        <ele>253.4</ele>
        <time>2018-10-14T06:34:57Z</time>
      </trkpt>
      <trkpt lat="46.4021" lon="2.59071">
        <ele>253.4</ele>
        <time>2018-10-14T06:34:58Z</time>
      </trkpt>
      <trkpt lat="46.40214" lon="2.5907">
        <ele>253.4</ele>
        <time>2018-10-14T06:34:59Z</time>
      </trkpt>
      <trkpt lat="46.40219" lon="2.59069">
        <ele>253.4</ele>
        <time>2018-10-14T06:35:00Z</time>
      </trkpt>
      <trkpt lat="46.40227" lon="2.59066">
        <ele>253.5</ele>
        <time>2018-10-14T06:35:02Z</time>
      </trkpt>
      <trkpt lat="46.40236" lon="2.59064">
        <ele>254</ele>
        <time>2018-10-14T06:35:04Z</time>
      </trkpt>
      <trkpt lat="46.40244" lon="2.59062">
        <ele>254</ele>
        <time>2018-10-14T06:35:06Z</time>
      </trkpt>
      <trkpt lat="46.40251" lon="2.59059">
        <ele>254.4</ele>
        <time>2018-10-14T06:35:08Z</time>
      </trkpt>
      <trkpt lat="46.40259" lon="2.59057">
        <ele>255</ele>
        <time>2018-10-14T06:35:10Z</time>
      </trkpt>
      <trkpt lat="46.40268" lon="2.59056">
        <ele>255.3</ele>
        <time>2018-10-14T06:35:12Z</time>
      </trkpt>
      <trkpt lat="46.40276" lon="2.59054">
        <ele>255.6</ele>
        <time>2018-10-14T06:35:14Z</time>
      </trkpt>
      <trkpt lat="46.40285" lon="2.59053">
        <ele>255.3</ele>
        <time>2018-10-14T06:35:16Z</time>
      </trkpt>
      <trkpt lat="46.40289" lon="2.59052">
        <ele>255.2</ele>
        <time>2018-10-14T06:35:17Z</time>
      </trkpt>
      <trkpt lat="46.40294" lon="2.59052">
        <ele>255.2</ele>
        <time>2018-10-14T06:35:18Z</time>
      </trkpt>
      <trkpt lat="46.40299" lon="2.59051">
        <ele>255.2</ele>
        <time>2018-10-14T06:35:19Z</time>
      </trkpt>
      <trkpt lat="46.40303" lon="2.59051">
        <ele>255.2</ele>
        <time>2018-10-14T06:35:20Z</time>
      </trkpt>
      <trkpt lat="46.40308" lon="2.59051">
        <ele>255.2</ele>
        <time>2018-10-14T06:35:21Z</time>
      </trkpt>
      <trkpt lat="46.40313" lon="2.59051">
        <ele>255.3</ele>
        <time>2018-10-14T06:35:22Z</time>
      </trkpt>
      <trkpt lat="46.40317" lon="2.59051">
        <ele>255.3</ele>
        <time>2018-10-14T06:35:23Z</time>
      </trkpt>
      <trkpt lat="46.40326" lon="2.59051">
        <ele>256</ele>
        <time>2018-10-14T06:35:25Z</time>
      </trkpt>
      <trkpt lat="46.40335" lon="2.59051">
        <ele>256</ele>
        <time>2018-10-14T06:35:27Z</time>
      </trkpt>
      <trkpt lat="46.4034" lon="2.59051">
        <ele>255.8</ele>
        <time>2018-10-14T06:35:28Z</time>
      </trkpt>
      <trkpt lat="46.40348" lon="2.59051">
        <ele>256.4</ele>
        <time>2018-10-14T06:35:30Z</time>
      </trkpt>
      <trkpt lat="46.40357" lon="2.59051">
        <ele>256.3</ele>
        <time>2018-10-14T06:35:32Z</time>
      </trkpt>
      <trkpt lat="46.40365" lon="2.59051">
        <ele>256.5</ele>
        <time>2018-10-14T06:35:34Z</time>
      </trkpt>
      <trkpt lat="46.40373" lon="2.59051">
        <ele>256.7</ele>
        <time>2018-10-14T06:35:36Z</time>
      </trkpt>
      <trkpt lat="46.40382" lon="2.5905">
        <ele>256.8</ele>
        <time>2018-10-14T06:35:38Z</time>
      </trkpt>
      <trkpt lat="46.40387" lon="2.59051">
        <ele>257</ele>
        <time>2018-10-14T06:35:39Z</time>
      </trkpt>
      <trkpt lat="46.40391" lon="2.59051">
        <ele>257.1</ele>
        <time>2018-10-14T06:35:40Z</time>
      </trkpt>
      <trkpt lat="46.40396" lon="2.5905">
        <ele>257.2</ele>
        <time>2018-10-14T06:35:41Z</time>
      </trkpt>
      <trkpt lat="46.404" lon="2.5905">
        <ele>257.4</ele>
        <time>2018-10-14T06:35:42Z</time>
      </trkpt>
      <trkpt lat="46.40405" lon="2.5905">
        <ele>257.4</ele>
        <time>2018-10-14T06:35:43Z</time>
      </trkpt>
      <trkpt lat="46.40409" lon="2.5905">
        <ele>257.3</ele>
        <time>2018-10-14T06:35:44Z</time>
      </trkpt>
      <trkpt lat="46.40414" lon="2.5905">
        <ele>257.3</ele>
        <time>2018-10-14T06:35:45Z</time>
      </trkpt>
      <trkpt lat="46.40419" lon="2.5905">
        <ele>257.5</ele>
        <time>2018-10-14T06:35:46Z</time>
      </trkpt>
      <trkpt lat="46.40424" lon="2.5905">
        <ele>257.6</ele>
        <time>2018-10-14T06:35:47Z</time>
      </trkpt>
      <trkpt lat="46.40428" lon="2.59051">
        <ele>257.6</ele>
        <time>2018-10-14T06:35:48Z</time>
      </trkpt>
      <trkpt lat="46.40433" lon="2.59052">
        <ele>257.6</ele>
        <time>2018-10-14T06:35:49Z</time>
      </trkpt>
      <trkpt lat="46.40437" lon="2.59052">
        <ele>257.5</ele>
        <time>2018-10-14T06:35:50Z</time>
      </trkpt>
      <trkpt lat="46.40442" lon="2.59053">
        <ele>257.5</ele>
        <time>2018-10-14T06:35:51Z</time>
      </trkpt>
      <trkpt lat="46.40447" lon="2.59053">
        <ele>257.5</ele>
        <time>2018-10-14T06:35:52Z</time>
      </trkpt>
      <trkpt lat="46.40451" lon="2.59053">
        <ele>257.5</ele>
        <time>2018-10-14T06:35:53Z</time>
      </trkpt>
      <trkpt lat="46.40456" lon="2.59054">
        <ele>257.5</ele>
        <time>2018-10-14T06:35:54Z</time>
      </trkpt>
      <trkpt lat="46.40461" lon="2.59054">
        <ele>257.2</ele>
        <time>2018-10-14T06:35:55Z</time>
      </trkpt>
      <trkpt lat="46.40466" lon="2.59055">
        <ele>257</ele>
        <time>2018-10-14T06:35:56Z</time>
      </trkpt>
      <trkpt lat="46.40472" lon="2.59055">
        <ele>256.7</ele>
        <time>2018-10-14T06:35:57Z</time>
      </trkpt>
      <trkpt lat="46.40478" lon="2.59056">
        <ele>256.4</ele>
        <time>2018-10-14T06:35:58Z</time>
      </trkpt>
      <trkpt lat="46.40484" lon="2.59057">
        <ele>256.3</ele>
        <time>2018-10-14T06:35:59Z</time>
      </trkpt>
      <trkpt lat="46.4049" lon="2.59058">
        <ele>256.1</ele>
        <time>2018-10-14T06:36:00Z</time>
      </trkpt>
      <trkpt lat="46.40496" lon="2.5906">
        <ele>255.9</ele>
        <time>2018-10-14T06:36:01Z</time>
      </trkpt>
      <trkpt lat="46.40502" lon="2.59061">
        <ele>255.7</ele>
        <time>2018-10-14T06:36:02Z</time>
      </trkpt>
      <trkpt lat="46.40509" lon="2.59063">
        <ele>255.5</ele>
        <time>2018-10-14T06:36:03Z</time>
      </trkpt>
      <trkpt lat="46.40515" lon="2.59065">
        <ele>255.3</ele>
        <time>2018-10-14T06:36:04Z</time>
      </trkpt>
      <trkpt lat="46.40521" lon="2.59067">
        <ele>255.3</ele>
        <time>2018-10-14T06:36:05Z</time>
      </trkpt>
      <trkpt lat="46.40528" lon="2.59069">
        <ele>255.2</ele>
        <time>2018-10-14T06:36:06Z</time>
      </trkpt>
      <trkpt lat="46.40534" lon="2.59072">
        <ele>255.3</ele>
        <time>2018-10-14T06:36:07Z</time>
      </trkpt>
      <trkpt lat="46.40541" lon="2.59075">
        <ele>255.4</ele>
        <time>2018-10-14T06:36:08Z</time>
      </trkpt>
      <trkpt lat="46.40547" lon="2.59077">
        <ele>254.9</ele>
        <time>2018-10-14T06:36:09Z</time>
      </trkpt>
      <trkpt lat="46.40552" lon="2.59082">
        <ele>254.5</ele>
        <time>2018-10-14T06:36:10Z</time>
      </trkpt>
      <trkpt lat="46.40556" lon="2.59089">
        <ele>254.2</ele>
        <time>2018-10-14T06:36:11Z</time>
      </trkpt>
      <trkpt lat="46.40558" lon="2.59098">
        <ele>253.8</ele>
        <time>2018-10-14T06:36:12Z</time>
      </trkpt>
      <trkpt lat="46.4056" lon="2.59107">
        <ele>253.5</ele>
        <time>2018-10-14T06:36:13Z</time>
      </trkpt>
      <trkpt lat="46.40561" lon="2.59116">
        <ele>253.2</ele>
        <time>2018-10-14T06:36:14Z</time>
      </trkpt>
      <trkpt lat="46.40563" lon="2.59125">
        <ele>253</ele>
        <time>2018-10-14T06:36:15Z</time>
      </trkpt>
      <trkpt lat="46.40564" lon="2.59134">
        <ele>252.7</ele>
        <time>2018-10-14T06:36:16Z</time>
      </trkpt>
      <trkpt lat="46.40566" lon="2.59143">
        <ele>252.5</ele>
        <time>2018-10-14T06:36:17Z</time>
      </trkpt>
      <trkpt lat="46.40567" lon="2.59153">
        <ele>252.4</ele>
        <time>2018-10-14T06:36:18Z</time>
      </trkpt>
      <trkpt lat="46.40569" lon="2.59162">
        <ele>252.4</ele>
        <time>2018-10-14T06:36:19Z</time>
      </trkpt>
      <trkpt lat="46.4057" lon="2.59171">
        <ele>252.4</ele>
        <time>2018-10-14T06:36:20Z</time>
      </trkpt>
      <trkpt lat="46.40572" lon="2.5918">
        <ele>252</ele>
        <time>2018-10-14T06:36:21Z</time>
      </trkpt>
      <trkpt lat="46.40573" lon="2.5919">
        <ele>251.7</ele>
        <time>2018-10-14T06:36:22Z</time>
      </trkpt>
      <trkpt lat="46.40575" lon="2.59199">
        <ele>251.5</ele>
        <time>2018-10-14T06:36:23Z</time>
      </trkpt>
      <trkpt lat="46.40576" lon="2.59208">
        <ele>251.3</ele>
        <time>2018-10-14T06:36:24Z</time>
      </trkpt>
      <trkpt lat="46.40578" lon="2.59217">
        <ele>251.1</ele>
        <time>2018-10-14T06:36:25Z</time>
      </trkpt>
      <trkpt lat="46.40579" lon="2.59227">
        <ele>250.8</ele>
        <time>2018-10-14T06:36:26Z</time>
      </trkpt>
      <trkpt lat="46.40581" lon="2.59237">
        <ele>250.5</ele>
        <time>2018-10-14T06:36:27Z</time>
      </trkpt>
      <trkpt lat="46.40583" lon="2.59246">
        <ele>250.3</ele>
        <time>2018-10-14T06:36:28Z</time>
      </trkpt>
      <trkpt lat="46.40586" lon="2.59255">
        <ele>250.1</ele>
        <time>2018-10-14T06:36:29Z</time>
      </trkpt>
      <trkpt lat="46.40591" lon="2.59262">
        <ele>250</ele>
        <time>2018-10-14T06:36:30Z</time>
      </trkpt>
      <trkpt lat="46.40597" lon="2.59267">
        <ele>250.1</ele>
        <time>2018-10-14T06:36:31Z</time>
      </trkpt>
      <trkpt lat="46.40603" lon="2.59271">
        <ele>250.2</ele>
        <time>2018-10-14T06:36:32Z</time>
      </trkpt>
      <trkpt lat="46.4061" lon="2.59274">
        <ele>249.6</ele>
        <time>2018-10-14T06:36:33Z</time>
      </trkpt>
      <trkpt lat="46.40616" lon="2.59277">
        <ele>249.2</ele>
        <time>2018-10-14T06:36:34Z</time>
      </trkpt>
      <trkpt lat="46.40623" lon="2.59281">
        <ele>248.8</ele>
        <time>2018-10-14T06:36:35Z</time>
      </trkpt>
      <trkpt lat="46.40628" lon="2.59285">
        <ele>248.5</ele>
        <time>2018-10-14T06:36:36Z</time>
      </trkpt>
      <trkpt lat="46.40633" lon="2.59291">
        <ele>248.2</ele>
        <time>2018-10-14T06:36:37Z</time>
      </trkpt>
      <trkpt lat="46.40636" lon="2.59299">
        <ele>247.6</ele>
        <time>2018-10-14T06:36:38Z</time>
      </trkpt>
      <trkpt lat="46.40637" lon="2.59307">
        <ele>247.1</ele>
        <time>2018-10-14T06:36:39Z</time>
      </trkpt>
      <trkpt lat="46.40638" lon="2.59316">
        <ele>247</ele>
        <time>2018-10-14T06:36:40Z</time>
      </trkpt>
      <trkpt lat="46.40639" lon="2.59325">
        <ele>246.9</ele>
        <time>2018-10-14T06:36:41Z</time>
      </trkpt>
      <trkpt lat="46.40639" lon="2.59334">
        <ele>246.4</ele>
        <time>2018-10-14T06:36:42Z</time>
      </trkpt>
      <trkpt lat="46.4064" lon="2.59342">
        <ele>246.1</ele>
        <time>2018-10-14T06:36:43Z</time>
      </trkpt>
      <trkpt lat="46.40641" lon="2.59348">
        <ele>245.8</ele>
        <time>2018-10-14T06:36:44Z</time>
      </trkpt>
      <trkpt lat="46.40645" lon="2.59352">
        <ele>245.7</ele>
        <time>2018-10-14T06:36:45Z</time>
      </trkpt>
      <trkpt lat="46.40651" lon="2.59354">
        <ele>245.6</ele>
        <time>2018-10-14T06:36:46Z</time>
      </trkpt>
      <trkpt lat="46.40657" lon="2.59354">
        <ele>244.9</ele>
        <time>2018-10-14T06:36:47Z</time>
      </trkpt>
      <trkpt lat="46.40664" lon="2.59355">
        <ele>244.4</ele>
        <time>2018-10-14T06:36:48Z</time>
      </trkpt>
      <trkpt lat="46.40671" lon="2.59356">
        <ele>244</ele>
        <time>2018-10-14T06:36:49Z</time>
      </trkpt>
      <trkpt lat="46.40678" lon="2.59357">
        <ele>243.4</ele>
        <time>2018-10-14T06:36:50Z</time>
      </trkpt>
      <trkpt lat="46.40685" lon="2.59357">
        <ele>243</ele>
        <time>2018-10-14T06:36:51Z</time>
      </trkpt>
      <trkpt lat="46.40693" lon="2.59357">
        <ele>242.4</ele>
        <time>2018-10-14T06:36:52Z</time>
      </trkpt>
      <trkpt lat="46.40701" lon="2.59359">
        <ele>242</ele>
        <time>2018-10-14T06:36:53Z</time>
      </trkpt>
      <trkpt lat="46.40709" lon="2.59363">
        <ele>240.9</ele>
        <time>2018-10-14T06:36:54Z</time>
      </trkpt>
      <trkpt lat="46.40717" lon="2.59369">
        <ele>240</ele>
        <time>2018-10-14T06:36:55Z</time>
      </trkpt>
      <trkpt lat="46.40726" lon="2.59376">
        <ele>239.4</ele>
        <time>2018-10-14T06:36:56Z</time>
      </trkpt>
      <trkpt lat="46.40733" lon="2.59383">
        <ele>238.3</ele>
        <time>2018-10-14T06:36:57Z</time>
      </trkpt>
      <trkpt lat="46.40742" lon="2.5939">
        <ele>237.4</ele>
        <time>2018-10-14T06:36:58Z</time>
      </trkpt>
      <trkpt lat="46.4075" lon="2.59397">
        <ele>237</ele>
        <time>2018-10-14T06:36:59Z</time>
      </trkpt>
      <trkpt lat="46.40759" lon="2.59405">
        <ele>236.7</ele>
        <time>2018-10-14T06:37:00Z</time>
      </trkpt>
      <trkpt lat="46.40767" lon="2.59412">
        <ele>235.8</ele>
        <time>2018-10-14T06:37:01Z</time>
      </trkpt>
      <trkpt lat="46.40775" lon="2.59418">
        <ele>235</ele>
        <time>2018-10-14T06:37:02Z</time>
      </trkpt>
      <trkpt lat="46.40784" lon="2.59422">
        <ele>234.5</ele>
        <time>2018-10-14T06:37:03Z</time>
      </trkpt>
      <trkpt lat="46.40793" lon="2.59423">
        <ele>234.1</ele>
        <time>2018-10-14T06:37:04Z</time>
      </trkpt>
      <trkpt lat="46.40801" lon="2.59423">
        <ele>233.7</ele>
        <time>2018-10-14T06:37:05Z</time>
      </trkpt>
      <trkpt lat="46.40809" lon="2.59421">
        <ele>233.5</ele>
        <time>2018-10-14T06:37:06Z</time>
      </trkpt>
      <trkpt lat="46.40815" lon="2.59418">
        <ele>233.3</ele>
        <time>2018-10-14T06:37:07Z</time>
      </trkpt>
      <trkpt lat="46.4082" lon="2.59419">
        <ele>233.1</ele>
        <time>2018-10-14T06:37:08Z</time>
      </trkpt>
      <trkpt lat="46.40824" lon="2.59423">
        <ele>233.1</ele>
        <time>2018-10-14T06:37:09Z</time>
      </trkpt>
      <trkpt lat="46.40827" lon="2.59429">
        <ele>233.1</ele>
        <time>2018-10-14T06:37:10Z</time>
      </trkpt>
      <trkpt lat="46.40829" lon="2.59436">
        <ele>233</ele>
        <time>2018-10-14T06:37:11Z</time>
      </trkpt>
      <trkpt lat="46.40832" lon="2.59444">
        <ele>233</ele>
        <time>2018-10-14T06:37:12Z</time>
      </trkpt>
      <trkpt lat="46.40836" lon="2.59452">
        <ele>232.3</ele>
        <time>2018-10-14T06:37:13Z</time>
      </trkpt>
      <trkpt lat="46.4084" lon="2.5946">
        <ele>231.8</ele>
        <time>2018-10-14T06:37:14Z</time>
      </trkpt>
      <trkpt lat="46.40843" lon="2.59469">
        <ele>231.4</ele>
        <time>2018-10-14T06:37:15Z</time>
      </trkpt>
      <trkpt lat="46.40848" lon="2.59478">
        <ele>230.8</ele>
        <time>2018-10-14T06:37:16Z</time>
      </trkpt>
      <trkpt lat="46.40852" lon="2.59487">
        <ele>230.4</ele>
        <time>2018-10-14T06:37:17Z</time>
      </trkpt>
      <trkpt lat="46.40856" lon="2.59497">
        <ele>229.8</ele>
        <time>2018-10-14T06:37:18Z</time>
      </trkpt>
      <trkpt lat="46.40859" lon="2.59508">
        <ele>229.4</ele>
        <time>2018-10-14T06:37:19Z</time>
      </trkpt>
      <trkpt lat="46.40863" lon="2.59518">
        <ele>228.9</ele>
        <time>2018-10-14T06:37:20Z</time>
      </trkpt>
      <trkpt lat="46.40867" lon="2.59527">
        <ele>228.5</ele>
        <time>2018-10-14T06:37:21Z</time>
      </trkpt>
      <trkpt lat="46.40871" lon="2.59536">
        <ele>228.2</ele>
        <time>2018-10-14T06:37:22Z</time>
      </trkpt>
      <trkpt lat="46.40874" lon="2.59545">
        <ele>227.2</ele>
        <time>2018-10-14T06:37:23Z</time>
      </trkpt>
      <trkpt lat="46.40878" lon="2.59552">
        <ele>226.4</ele>
        <time>2018-10-14T06:37:24Z</time>
      </trkpt>
      <trkpt lat="46.40881" lon="2.59558">
        <ele>225.6</ele>
        <time>2018-10-14T06:37:25Z</time>
      </trkpt>
      <trkpt lat="46.40888" lon="2.59564">
        <ele>224.5</ele>
        <time>2018-10-14T06:37:27Z</time>
      </trkpt>
      <trkpt lat="46.40893" lon="2.59565">
        <ele>223.7</ele>
        <time>2018-10-14T06:37:28Z</time>
      </trkpt>
      <trkpt lat="46.40901" lon="2.59562">
        <ele>222.5</ele>
        <time>2018-10-14T06:37:30Z</time>
      </trkpt>
      <trkpt lat="46.40909" lon="2.59556">
        <ele>221.2</ele>
        <time>2018-10-14T06:37:32Z</time>
      </trkpt>
      <trkpt lat="46.40915" lon="2.59549">
        <ele>220.1</ele>
        <time>2018-10-14T06:37:34Z</time>
      </trkpt>
      <trkpt lat="46.40921" lon="2.59543">
        <ele>220.9</ele>
        <time>2018-10-14T06:37:36Z</time>
      </trkpt>
      <trkpt lat="46.40928" lon="2.5954">
        <ele>220.8</ele>
        <time>2018-10-14T06:37:39Z</time>
      </trkpt>
      <trkpt lat="46.40921" lon="2.59547">
        <ele>220.8</ele>
        <time>2018-10-14T06:37:51Z</time>
      </trkpt>
      <trkpt lat="46.40919" lon="2.59548">
        <ele>221</ele>
        <time>2018-10-14T06:37:52Z</time>
      </trkpt>
      <trkpt lat="46.40907" lon="2.59559">
        <ele>220.6</ele>
        <time>2018-10-14T06:37:57Z</time>
      </trkpt>
      <trkpt lat="46.40902" lon="2.59563">
        <ele>220.9</ele>
        <time>2018-10-14T06:37:59Z</time>
      </trkpt>
      <trkpt lat="46.40893" lon="2.59565">
        <ele>220.8</ele>
        <time>2018-10-14T06:38:02Z</time>
      </trkpt>
      <trkpt lat="46.40885" lon="2.59564">
        <ele>221.6</ele>
        <time>2018-10-14T06:38:07Z</time>
      </trkpt>
      <trkpt lat="46.4088" lon="2.59553">
        <ele>222.5</ele>
        <time>2018-10-14T06:38:12Z</time>
      </trkpt>
      <trkpt lat="46.40875" lon="2.59545">
        <ele>223.2</ele>
        <time>2018-10-14T06:38:16Z</time>
      </trkpt>
      <trkpt lat="46.40871" lon="2.59537">
        <ele>223.7</ele>
        <time>2018-10-14T06:38:19Z</time>
      </trkpt>
      <trkpt lat="46.40868" lon="2.59528">
        <ele>224.8</ele>
        <time>2018-10-14T06:38:22Z</time>
      </trkpt>
      <trkpt lat="46.40864" lon="2.59518">
        <ele>225.5</ele>
        <time>2018-10-14T06:38:25Z</time>
      </trkpt>
      <trkpt lat="46.4086" lon="2.59509">
        <ele>225.6</ele>
        <time>2018-10-14T06:38:28Z</time>
      </trkpt>
      <trkpt lat="46.40856" lon="2.59499">
        <ele>225.4</ele>
        <time>2018-10-14T06:38:31Z</time>
      </trkpt>
      <trkpt lat="46.40852" lon="2.59489">
        <ele>226.9</ele>
        <time>2018-10-14T06:38:34Z</time>
      </trkpt>
      <trkpt lat="46.40848" lon="2.5948">
        <ele>227.5</ele>
        <time>2018-10-14T06:38:37Z</time>
      </trkpt>
      <trkpt lat="46.40843" lon="2.5947">
        <ele>228.3</ele>
        <time>2018-10-14T06:38:40Z</time>
      </trkpt>
      <trkpt lat="46.40837" lon="2.59465">
        <ele>228.9</ele>
        <time>2018-10-14T06:38:44Z</time>
      </trkpt>
      <trkpt lat="46.40835" lon="2.59454">
        <ele>229.2</ele>
        <time>2018-10-14T06:38:48Z</time>
      </trkpt>
      <trkpt lat="46.40835" lon="2.59442">
        <ele>229.7</ele>
        <time>2018-10-14T06:38:55Z</time>
      </trkpt>
      <trkpt lat="46.40834" lon="2.5944">
        <ele>229.8</ele>
        <time>2018-10-14T06:38:56Z</time>
      </trkpt>
      <trkpt lat="46.40826" lon="2.59426">
        <ele>230.2</ele>
        <time>2018-10-14T06:39:01Z</time>
      </trkpt>
      <trkpt lat="46.40822" lon="2.59414">
        <ele>231.4</ele>
        <time>2018-10-14T06:39:06Z</time>
      </trkpt>
      <trkpt lat="46.40826" lon="2.59425">
        <ele>231.9</ele>
        <time>2018-10-14T06:39:13Z</time>
      </trkpt>
      <trkpt lat="46.4083" lon="2.59434">
        <ele>231.5</ele>
        <time>2018-10-14T06:39:15Z</time>
      </trkpt>
      <trkpt lat="46.40832" lon="2.59446">
        <ele>231.1</ele>
        <time>2018-10-14T06:39:17Z</time>
      </trkpt>
      <trkpt lat="46.40832" lon="2.59459">
        <ele>230.5</ele>
        <time>2018-10-14T06:39:19Z</time>
      </trkpt>
      <trkpt lat="46.40829" lon="2.59464">
        <ele>230.3</ele>
        <time>2018-10-14T06:39:20Z</time>
      </trkpt>
      <trkpt lat="46.40826" lon="2.59469">
        <ele>229.9</ele>
        <time>2018-10-14T06:39:21Z</time>
      </trkpt>
      <trkpt lat="46.40822" lon="2.59473">
        <ele>229.6</ele>
        <time>2018-10-14T06:39:22Z</time>
      </trkpt>
      <trkpt lat="46.40815" lon="2.59479">
        <ele>229.1</ele>
        <time>2018-10-14T06:39:24Z</time>
      </trkpt>
      <trkpt lat="46.40808" lon="2.59486">
        <ele>228.6</ele>
        <time>2018-10-14T06:39:26Z</time>
      </trkpt>
      <trkpt lat="46.408" lon="2.59492">
        <ele>228.3</ele>
        <time>2018-10-14T06:39:28Z</time>
      </trkpt>
      <trkpt lat="46.40796" lon="2.59495">
        <ele>227.9</ele>
        <time>2018-10-14T06:39:29Z</time>
      </trkpt>
      <trkpt lat="46.40791" lon="2.59499">
        <ele>227.6</ele>
        <time>2018-10-14T06:39:30Z</time>
      </trkpt>
      <trkpt lat="46.40786" lon="2.59502">
        <ele>227.1</ele>
        <time>2018-10-14T06:39:31Z</time>
      </trkpt>
      <trkpt lat="46.40781" lon="2.59506">
        <ele>226.7</ele>
        <time>2018-10-14T06:39:32Z</time>
      </trkpt>
      <trkpt lat="46.40776" lon="2.5951">
        <ele>225.2</ele>
        <time>2018-10-14T06:39:33Z</time>
      </trkpt>
      <trkpt lat="46.40771" lon="2.59514">
        <ele>224.1</ele>
        <time>2018-10-14T06:39:34Z</time>
      </trkpt>
      <trkpt lat="46.40765" lon="2.59518">
        <ele>223.3</ele>
        <time>2018-10-14T06:39:35Z</time>
      </trkpt>
      <trkpt lat="46.4076" lon="2.59521">
        <ele>222.3</ele>
        <time>2018-10-14T06:39:36Z</time>
      </trkpt>
      <trkpt lat="46.40755" lon="2.59525">
        <ele>221.5</ele>
        <time>2018-10-14T06:39:37Z</time>
      </trkpt>
      <trkpt lat="46.40749" lon="2.59528">
        <ele>220.4</ele>
        <time>2018-10-14T06:39:38Z</time>
      </trkpt>
      <trkpt lat="46.40744" lon="2.59531">
        <ele>219.6</ele>
        <time>2018-10-14T06:39:39Z</time>
      </trkpt>
      <trkpt lat="46.40739" lon="2.59534">
        <ele>219</ele>
        <time>2018-10-14T06:39:40Z</time>
      </trkpt>
      <trkpt lat="46.40732" lon="2.59539">
        <ele>217.6</ele>
        <time>2018-10-14T06:39:42Z</time>
      </trkpt>
      <trkpt lat="46.40731" lon="2.59548">
        <ele>215.8</ele>
        <time>2018-10-14T06:39:44Z</time>
      </trkpt>
      <trkpt lat="46.40732" lon="2.59559">
        <ele>213.7</ele>
        <time>2018-10-14T06:39:46Z</time>
      </trkpt>
      <trkpt lat="46.40732" lon="2.59566">
        <ele>213</ele>
        <time>2018-10-14T06:39:47Z</time>
      </trkpt>
      <trkpt lat="46.40732" lon="2.59579">
        <ele>212.7</ele>
        <time>2018-10-14T06:39:49Z</time>
      </trkpt>
      <trkpt lat="46.40732" lon="2.59591">
        <ele>211.1</ele>
        <time>2018-10-14T06:39:51Z</time>
      </trkpt>
      <trkpt lat="46.40736" lon="2.59602">
        <ele>209.8</ele>
        <time>2018-10-14T06:39:53Z</time>
      </trkpt>
      <trkpt lat="46.40739" lon="2.59611">
        <ele>208.8</ele>
        <time>2018-10-14T06:39:55Z</time>
      </trkpt>
      <trkpt lat="46.40743" lon="2.59621">
        <ele>206.5</ele>
        <time>2018-10-14T06:39:59Z</time>
      </trkpt>
      <trkpt lat="46.40743" lon="2.59624">
        <ele>206.1</ele>
        <time>2018-10-14T06:40:00Z</time>
      </trkpt>
      <trkpt lat="46.40755" lon="2.59635">
        <ele>201.8</ele>
        <time>2018-10-14T06:40:06Z</time>
      </trkpt>
      <trkpt lat="46.40757" lon="2.59647">
        <ele>200.8</ele>
        <time>2018-10-14T06:40:10Z</time>
      </trkpt>
      <trkpt lat="46.40756" lon="2.59656">
        <ele>200.3</ele>
        <time>2018-10-14T06:40:13Z</time>
      </trkpt>
      <trkpt lat="46.40755" lon="2.59666">
        <ele>200.4</ele>
        <time>2018-10-14T06:40:15Z</time>
      </trkpt>
      <trkpt lat="46.40753" lon="2.59676">
        <ele>200</ele>
        <time>2018-10-14T06:40:17Z</time>
      </trkpt>
      <trkpt lat="46.40752" lon="2.59688">
        <ele>199.7</ele>
        <time>2018-10-14T06:40:20Z</time>
      </trkpt>
      <trkpt lat="46.40751" lon="2.59701">
        <ele>199.3</ele>
        <time>2018-10-14T06:40:24Z</time>
      </trkpt>
      <trkpt lat="46.4075" lon="2.59711">
        <ele>198.9</ele>
        <time>2018-10-14T06:40:27Z</time>
      </trkpt>
      <trkpt lat="46.40751" lon="2.59721">
        <ele>199.5</ele>
        <time>2018-10-14T06:40:29Z</time>
      </trkpt>
      <trkpt lat="46.40756" lon="2.59728">
        <ele>199</ele>
        <time>2018-10-14T06:40:31Z</time>
      </trkpt>
      <trkpt lat="46.40762" lon="2.59733">
        <ele>199</ele>
        <time>2018-10-14T06:40:33Z</time>
      </trkpt>
      <trkpt lat="46.40769" lon="2.59738">
        <ele>199.1</ele>
        <time>2018-10-14T06:40:35Z</time>
      </trkpt>
      <trkpt lat="46.40776" lon="2.59744">
        <ele>198.8</ele>
        <time>2018-10-14T06:40:37Z</time>
      </trkpt>
      <trkpt lat="46.40783" lon="2.59749">
        <ele>198.5</ele>
        <time>2018-10-14T06:40:39Z</time>
      </trkpt>
      <trkpt lat="46.4079" lon="2.59755">
        <ele>198.7</ele>
        <time>2018-10-14T06:40:41Z</time>
      </trkpt>
      <trkpt lat="46.40798" lon="2.5976">
        <ele>199.1</ele>
        <time>2018-10-14T06:40:43Z</time>
      </trkpt>
      <trkpt lat="46.40806" lon="2.59766">
        <ele>199.1</ele>
        <time>2018-10-14T06:40:45Z</time>
      </trkpt>
      <trkpt lat="46.40814" lon="2.59771">
        <ele>199.2</ele>
        <time>2018-10-14T06:40:47Z</time>
      </trkpt>
      <trkpt lat="46.40822" lon="2.59776">
        <ele>199.2</ele>
        <time>2018-10-14T06:40:49Z</time>
      </trkpt>
      <trkpt lat="46.4083" lon="2.59782">
        <ele>199</ele>
        <time>2018-10-14T06:40:51Z</time>
      </trkpt>
      <trkpt lat="46.40838" lon="2.59787">
        <ele>199.4</ele>
        <time>2018-10-14T06:40:53Z</time>
      </trkpt>
      <trkpt lat="46.40842" lon="2.5979">
        <ele>199.2</ele>
        <time>2018-10-14T06:40:54Z</time>
      </trkpt>
      <trkpt lat="46.40846" lon="2.59793">
        <ele>199.1</ele>
        <time>2018-10-14T06:40:55Z</time>
      </trkpt>
      <trkpt lat="46.40854" lon="2.59798">
        <ele>198.9</ele>
        <time>2018-10-14T06:40:57Z</time>
      </trkpt>
      <trkpt lat="46.40858" lon="2.59801">
        <ele>198.9</ele>
        <time>2018-10-14T06:40:58Z</time>
      </trkpt>
      <trkpt lat="46.40866" lon="2.59806">
        <ele>199</ele>
        <time>2018-10-14T06:41:00Z</time>
      </trkpt>
      <trkpt lat="46.4087" lon="2.59809">
        <ele>199.3</ele>
        <time>2018-10-14T06:41:01Z</time>
      </trkpt>
      <trkpt lat="46.40878" lon="2.59814">
        <ele>199.7</ele>
        <time>2018-10-14T06:41:03Z</time>
      </trkpt>
      <trkpt lat="46.40883" lon="2.59817">
        <ele>199.7</ele>
        <time>2018-10-14T06:41:04Z</time>
      </trkpt>
      <trkpt lat="46.40887" lon="2.5982">
        <ele>199.7</ele>
        <time>2018-10-14T06:41:05Z</time>
      </trkpt>
      <trkpt lat="46.40891" lon="2.59823">
        <ele>199.7</ele>
        <time>2018-10-14T06:41:06Z</time>
      </trkpt>
      <trkpt lat="46.40895" lon="2.59825">
        <ele>199.7</ele>
        <time>2018-10-14T06:41:07Z</time>
      </trkpt>
      <trkpt lat="46.40899" lon="2.59828">
        <ele>199.6</ele>
        <time>2018-10-14T06:41:08Z</time>
      </trkpt>
      <trkpt lat="46.40904" lon="2.59831">
        <ele>199.5</ele>
        <time>2018-10-14T06:41:09Z</time>
      </trkpt>
      <trkpt lat="46.40908" lon="2.59834">
        <ele>199.5</ele>
        <time>2018-10-14T06:41:10Z</time>
      </trkpt>
      <trkpt lat="46.40912" lon="2.59836">
        <ele>199.1</ele>
        <time>2018-10-14T06:41:11Z</time>
      </trkpt>
      <trkpt lat="46.40916" lon="2.59839">
        <ele>198.8</ele>
        <time>2018-10-14T06:41:12Z</time>
      </trkpt>
      <trkpt lat="46.40921" lon="2.59842">
        <ele>198.9</ele>
        <time>2018-10-14T06:41:13Z</time>
      </trkpt>
      <trkpt lat="46.40925" lon="2.59845">
        <ele>199</ele>
        <time>2018-10-14T06:41:14Z</time>
      </trkpt>
      <trkpt lat="46.40929" lon="2.59847">
        <ele>199</ele>
        <time>2018-10-14T06:41:15Z</time>
      </trkpt>
      <trkpt lat="46.40933" lon="2.5985">
        <ele>199</ele>
        <time>2018-10-14T06:41:16Z</time>
      </trkpt>
      <trkpt lat="46.40937" lon="2.59853">
        <ele>199</ele>
        <time>2018-10-14T06:41:17Z</time>
      </trkpt>
      <trkpt lat="46.40941" lon="2.59856">
        <ele>199.1</ele>
        <time>2018-10-14T06:41:18Z</time>
      </trkpt>
      <trkpt lat="46.40946" lon="2.59858">
        <ele>199.2</ele>
        <time>2018-10-14T06:41:19Z</time>
      </trkpt>
      <trkpt lat="46.4095" lon="2.59861">
        <ele>199.1</ele>
        <time>2018-10-14T06:41:20Z</time>
      </trkpt>
      <trkpt lat="46.40954" lon="2.59864">
        <ele>199</ele>
        <time>2018-10-14T06:41:21Z</time>
      </trkpt>
      <trkpt lat="46.40958" lon="2.59866">
        <ele>199</ele>
        <time>2018-10-14T06:41:22Z</time>
      </trkpt>
      <trkpt lat="46.40963" lon="2.59869">
        <ele>199.2</ele>
        <time>2018-10-14T06:41:23Z</time>
      </trkpt>
      <trkpt lat="46.40967" lon="2.59872">
        <ele>199.4</ele>
        <time>2018-10-14T06:41:24Z</time>
      </trkpt>
      <trkpt lat="46.40971" lon="2.59874">
        <ele>199.5</ele>
        <time>2018-10-14T06:41:25Z</time>
      </trkpt>
      <trkpt lat="46.40975" lon="2.59877">
        <ele>199.6</ele>
        <time>2018-10-14T06:41:26Z</time>
      </trkpt>
      <trkpt lat="46.40979" lon="2.5988">
        <ele>199.5</ele>
        <time>2018-10-14T06:41:27Z</time>
      </trkpt>
      <trkpt lat="46.40984" lon="2.59883">
        <ele>199.4</ele>
        <time>2018-10-14T06:41:28Z</time>
      </trkpt>
      <trkpt lat="46.40988" lon="2.59885">
        <ele>199.3</ele>
        <time>2018-10-14T06:41:29Z</time>
      </trkpt>
      <trkpt lat="46.40996" lon="2.5989">
        <ele>199.7</ele>
        <time>2018-10-14T06:41:31Z</time>
      </trkpt>
      <trkpt lat="46.41" lon="2.59893">
        <ele>199.8</ele>
        <time>2018-10-14T06:41:32Z</time>
      </trkpt>
      <trkpt lat="46.41005" lon="2.59895">
        <ele>199.8</ele>
        <time>2018-10-14T06:41:33Z</time>
      </trkpt>
      <trkpt lat="46.41009" lon="2.59898">
        <ele>199.6</ele>
        <time>2018-10-14T06:41:34Z</time>
      </trkpt>
      <trkpt lat="46.41013" lon="2.59901">
        <ele>199.4</ele>
        <time>2018-10-14T06:41:35Z</time>
      </trkpt>
      <trkpt lat="46.41017" lon="2.59904">
        <ele>199.3</ele>
        <time>2018-10-14T06:41:36Z</time>
      </trkpt>
      <trkpt lat="46.41022" lon="2.59907">
        <ele>199.4</ele>
        <time>2018-10-14T06:41:37Z</time>
      </trkpt>
      <trkpt lat="46.41026" lon="2.59909">
        <ele>199.5</ele>
        <time>2018-10-14T06:41:38Z</time>
      </trkpt>
      <trkpt lat="46.4103" lon="2.59912">
        <ele>199.4</ele>
        <time>2018-10-14T06:41:39Z</time>
      </trkpt>
      <trkpt lat="46.41034" lon="2.59915">
        <ele>199.4</ele>
        <time>2018-10-14T06:41:40Z</time>
      </trkpt>
      <trkpt lat="46.41039" lon="2.59918">
        <ele>199.4</ele>
        <time>2018-10-14T06:41:41Z</time>
      </trkpt>
      <trkpt lat="46.41043" lon="2.59921">
        <ele>199.6</ele>
        <time>2018-10-14T06:41:42Z</time>
      </trkpt>
      <trkpt lat="46.41048" lon="2.59924">
        <ele>199.7</ele>
        <time>2018-10-14T06:41:43Z</time>
      </trkpt>
      <trkpt lat="46.41052" lon="2.59926">
        <ele>199.4</ele>
        <time>2018-10-14T06:41:44Z</time>
      </trkpt>
      <trkpt lat="46.41056" lon="2.59929">
        <ele>199.1</ele>
        <time>2018-10-14T06:41:45Z</time>
      </trkpt>
      <trkpt lat="46.41061" lon="2.59932">
        <ele>198.9</ele>
        <time>2018-10-14T06:41:46Z</time>
      </trkpt>
      <trkpt lat="46.41065" lon="2.59935">
        <ele>198.7</ele>
        <time>2018-10-14T06:41:47Z</time>
      </trkpt>
      <trkpt lat="46.41069" lon="2.59938">
        <ele>198.6</ele>
        <time>2018-10-14T06:41:48Z</time>
      </trkpt>
      <trkpt lat="46.41073" lon="2.59941">
        <ele>198.7</ele>
        <time>2018-10-14T06:41:49Z</time>
      </trkpt>
      <trkpt lat="46.41077" lon="2.59944">
        <ele>198.7</ele>
        <time>2018-10-14T06:41:50Z</time>
      </trkpt>
      <trkpt lat="46.41081" lon="2.59947">
        <ele>198.9</ele>
        <time>2018-10-14T06:41:51Z</time>
      </trkpt>
      <trkpt lat="46.41085" lon="2.59949">
        <ele>199</ele>
        <time>2018-10-14T06:41:52Z</time>
      </trkpt>
      <trkpt lat="46.4109" lon="2.59952">
        <ele>198.7</ele>
        <time>2018-10-14T06:41:53Z</time>
      </trkpt>
      <trkpt lat="46.41094" lon="2.59954">
        <ele>198.4</ele>
        <time>2018-10-14T06:41:54Z</time>
      </trkpt>
      <trkpt lat="46.41098" lon="2.59956">
        <ele>198.2</ele>
        <time>2018-10-14T06:41:55Z</time>
      </trkpt>
      <trkpt lat="46.41102" lon="2.59959">
        <ele>198.4</ele>
        <time>2018-10-14T06:41:56Z</time>
      </trkpt>
      <trkpt lat="46.41107" lon="2.59962">
        <ele>198.6</ele>
        <time>2018-10-14T06:41:57Z</time>
      </trkpt>
      <trkpt lat="46.41111" lon="2.59964">
        <ele>198.8</ele>
        <time>2018-10-14T06:41:58Z</time>
      </trkpt>
      <trkpt lat="46.41115" lon="2.59967">
        <ele>198.9</ele>
        <time>2018-10-14T06:41:59Z</time>
      </trkpt>
      <trkpt lat="46.41119" lon="2.59969">
        <ele>199</ele>
        <time>2018-10-14T06:42:00Z</time>
      </trkpt>
      <trkpt lat="46.41124" lon="2.59972">
        <ele>199.4</ele>
        <time>2018-10-14T06:42:01Z</time>
      </trkpt>
      <trkpt lat="46.41128" lon="2.59975">
        <ele>199.8</ele>
        <time>2018-10-14T06:42:02Z</time>
      </trkpt>
      <trkpt lat="46.41132" lon="2.59977">
        <ele>199.8</ele>
        <time>2018-10-14T06:42:03Z</time>
      </trkpt>
      <trkpt lat="46.41137" lon="2.5998">
        <ele>199.8</ele>
        <time>2018-10-14T06:42:04Z</time>
      </trkpt>
      <trkpt lat="46.41141" lon="2.59983">
        <ele>200.3</ele>
        <time>2018-10-14T06:42:05Z</time>
      </trkpt>
      <trkpt lat="46.41145" lon="2.59985">
        <ele>200.6</ele>
        <time>2018-10-14T06:42:06Z</time>
      </trkpt>
      <trkpt lat="46.4115" lon="2.59988">
        <ele>200.9</ele>
        <time>2018-10-14T06:42:07Z</time>
      </trkpt>
      <trkpt lat="46.41154" lon="2.5999">
        <ele>201</ele>
        <time>2018-10-14T06:42:08Z</time>
      </trkpt>
      <trkpt lat="46.41158" lon="2.59993">
        <ele>201.1</ele>
        <time>2018-10-14T06:42:09Z</time>
      </trkpt>
      <trkpt lat="46.41163" lon="2.59996">
        <ele>200.7</ele>
        <time>2018-10-14T06:42:10Z</time>
      </trkpt>
      <trkpt lat="46.41167" lon="2.59999">
        <ele>200.5</ele>
        <time>2018-10-14T06:42:11Z</time>
      </trkpt>
      <trkpt lat="46.41171" lon="2.60002">
        <ele>200.7</ele>
        <time>2018-10-14T06:42:12Z</time>
      </trkpt>
      <trkpt lat="46.41176" lon="2.60004">
        <ele>200.9</ele>
        <time>2018-10-14T06:42:13Z</time>
      </trkpt>
      <trkpt lat="46.4118" lon="2.60007">
        <ele>201.1</ele>
        <time>2018-10-14T06:42:14Z</time>
      </trkpt>
      <trkpt lat="46.41184" lon="2.6001">
        <ele>200.5</ele>
        <time>2018-10-14T06:42:15Z</time>
      </trkpt>
      <trkpt lat="46.41189" lon="2.60012">
        <ele>200</ele>
        <time>2018-10-14T06:42:16Z</time>
      </trkpt>
      <trkpt lat="46.41193" lon="2.60015">
        <ele>199.8</ele>
        <time>2018-10-14T06:42:17Z</time>
      </trkpt>
      <trkpt lat="46.41197" lon="2.60017">
        <ele>199.6</ele>
        <time>2018-10-14T06:42:18Z</time>
      </trkpt>
      <trkpt lat="46.41202" lon="2.6002">
        <ele>199.4</ele>
        <time>2018-10-14T06:42:19Z</time>
      </trkpt>
      <trkpt lat="46.41206" lon="2.60022">
        <ele>199.3</ele>
        <time>2018-10-14T06:42:20Z</time>
      </trkpt>
      <trkpt lat="46.4121" lon="2.60025">
        <ele>199.2</ele>
        <time>2018-10-14T06:42:21Z</time>
      </trkpt>
      <trkpt lat="46.41214" lon="2.60027">
        <ele>199.4</ele>
        <time>2018-10-14T06:42:22Z</time>
      </trkpt>
      <trkpt lat="46.41219" lon="2.6003">
        <ele>199.5</ele>
        <time>2018-10-14T06:42:23Z</time>
      </trkpt>
      <trkpt lat="46.41223" lon="2.60032">
        <ele>199.6</ele>
        <time>2018-10-14T06:42:24Z</time>
      </trkpt>
      <trkpt lat="46.41227" lon="2.60035">
        <ele>199.6</ele>
        <time>2018-10-14T06:42:25Z</time>
      </trkpt>
      <trkpt lat="46.41231" lon="2.60037">
        <ele>199.7</ele>
        <time>2018-10-14T06:42:26Z</time>
      </trkpt>
      <trkpt lat="46.41236" lon="2.6004">
        <ele>199.6</ele>
        <time>2018-10-14T06:42:27Z</time>
      </trkpt>
      <trkpt lat="46.4124" lon="2.60042">
        <ele>199.5</ele>
        <time>2018-10-14T06:42:28Z</time>
      </trkpt>
      <trkpt lat="46.41244" lon="2.60045">
        <ele>199.6</ele>
        <time>2018-10-14T06:42:29Z</time>
      </trkpt>
      <trkpt lat="46.41248" lon="2.60047">
        <ele>199.7</ele>
        <time>2018-10-14T06:42:30Z</time>
      </trkpt>
      <trkpt lat="46.41253" lon="2.6005">
        <ele>199.8</ele>
        <time>2018-10-14T06:42:31Z</time>
      </trkpt>
      <trkpt lat="46.41257" lon="2.60052">
        <ele>199.9</ele>
        <time>2018-10-14T06:42:32Z</time>
      </trkpt>
      <trkpt lat="46.41261" lon="2.60055">
        <ele>199.9</ele>
        <time>2018-10-14T06:42:33Z</time>
      </trkpt>
      <trkpt lat="46.41265" lon="2.60058">
        <ele>200.1</ele>
        <time>2018-10-14T06:42:34Z</time>
      </trkpt>
      <trkpt lat="46.4127" lon="2.6006">
        <ele>200.3</ele>
        <time>2018-10-14T06:42:35Z</time>
      </trkpt>
      <trkpt lat="46.41278" lon="2.60065">
        <ele>199.9</ele>
        <time>2018-10-14T06:42:37Z</time>
      </trkpt>
      <trkpt lat="46.41286" lon="2.6007">
        <ele>199.3</ele>
        <time>2018-10-14T06:42:39Z</time>
      </trkpt>
      <trkpt lat="46.41293" lon="2.60075">
        <ele>199.3</ele>
        <time>2018-10-14T06:42:41Z</time>
      </trkpt>
      <trkpt lat="46.41299" lon="2.60082">
        <ele>199.6</ele>
        <time>2018-10-14T06:42:44Z</time>
      </trkpt>
      <trkpt lat="46.41305" lon="2.60085">
        <ele>199.6</ele>
        <time>2018-10-14T06:42:46Z</time>
      </trkpt>
      <trkpt lat="46.41311" lon="2.60089">
        <ele>199.6</ele>
        <time>2018-10-14T06:42:48Z</time>
      </trkpt>
      <trkpt lat="46.41318" lon="2.60094">
        <ele>199.8</ele>
        <time>2018-10-14T06:42:50Z</time>
      </trkpt>
      <trkpt lat="46.41325" lon="2.60098">
        <ele>200</ele>
        <time>2018-10-14T06:42:52Z</time>
      </trkpt>
      <trkpt lat="46.41333" lon="2.60103">
        <ele>200</ele>
        <time>2018-10-14T06:42:54Z</time>
      </trkpt>
      <trkpt lat="46.41341" lon="2.60108">
        <ele>199.7</ele>
        <time>2018-10-14T06:42:56Z</time>
      </trkpt>
      <trkpt lat="46.41348" lon="2.60113">
        <ele>199.7</ele>
        <time>2018-10-14T06:42:58Z</time>
      </trkpt>
      <trkpt lat="46.41356" lon="2.60118">
        <ele>199.4</ele>
        <time>2018-10-14T06:43:00Z</time>
      </trkpt>
      <trkpt lat="46.41364" lon="2.60122">
        <ele>199.5</ele>
        <time>2018-10-14T06:43:02Z</time>
      </trkpt>
      <trkpt lat="46.41368" lon="2.60125">
        <ele>199.7</ele>
        <time>2018-10-14T06:43:03Z</time>
      </trkpt>
      <trkpt lat="46.4138" lon="2.60132">
        <ele>199.5</ele>
        <time>2018-10-14T06:43:06Z</time>
      </trkpt>
      <trkpt lat="46.41387" lon="2.60137">
        <ele>200.2</ele>
        <time>2018-10-14T06:43:08Z</time>
      </trkpt>
      <trkpt lat="46.41395" lon="2.60141">
        <ele>199.6</ele>
        <time>2018-10-14T06:43:10Z</time>
      </trkpt>
      <trkpt lat="46.41402" lon="2.60146">
        <ele>199.1</ele>
        <time>2018-10-14T06:43:13Z</time>
      </trkpt>
      <trkpt lat="46.41409" lon="2.60148">
        <ele>199</ele>
        <time>2018-10-14T06:43:16Z</time>
      </trkpt>
      <trkpt lat="46.41417" lon="2.60151">
        <ele>198.9</ele>
        <time>2018-10-14T06:43:19Z</time>
      </trkpt>
      <trkpt lat="46.41424" lon="2.60153">
        <ele>198.9</ele>
        <time>2018-10-14T06:43:21Z</time>
      </trkpt>
      <trkpt lat="46.41431" lon="2.60155">
        <ele>199</ele>
        <time>2018-10-14T06:43:23Z</time>
      </trkpt>
      <trkpt lat="46.41439" lon="2.60155">
        <ele>199.6</ele>
        <time>2018-10-14T06:43:25Z</time>
      </trkpt>
      <trkpt lat="46.41446" lon="2.60156">
        <ele>199.5</ele>
        <time>2018-10-14T06:43:27Z</time>
      </trkpt>
      <trkpt lat="46.41454" lon="2.60156">
        <ele>199.3</ele>
        <time>2018-10-14T06:43:29Z</time>
      </trkpt>
      <trkpt lat="46.41463" lon="2.60156">
        <ele>199.4</ele>
        <time>2018-10-14T06:43:31Z</time>
      </trkpt>
      <trkpt lat="46.41472" lon="2.60155">
        <ele>199.4</ele>
        <time>2018-10-14T06:43:33Z</time>
      </trkpt>
      <trkpt lat="46.4148" lon="2.60153">
        <ele>199.2</ele>
        <time>2018-10-14T06:43:35Z</time>
      </trkpt>
      <trkpt lat="46.41488" lon="2.60151">
        <ele>199.2</ele>
        <time>2018-10-14T06:43:37Z</time>
      </trkpt>
      <trkpt lat="46.41497" lon="2.60149">
        <ele>199.7</ele>
        <time>2018-10-14T06:43:39Z</time>
      </trkpt>
      <trkpt lat="46.41505" lon="2.60145">
        <ele>199.3</ele>
        <time>2018-10-14T06:43:41Z</time>
      </trkpt>
      <trkpt lat="46.41514" lon="2.60141">
        <ele>199.1</ele>
        <time>2018-10-14T06:43:43Z</time>
      </trkpt>
      <trkpt lat="46.41522" lon="2.60137">
        <ele>198.8</ele>
        <time>2018-10-14T06:43:45Z</time>
      </trkpt>
      <trkpt lat="46.4153" lon="2.60132">
        <ele>199</ele>
        <time>2018-10-14T06:43:47Z</time>
      </trkpt>
      <trkpt lat="46.41537" lon="2.60126">
        <ele>199.5</ele>
        <time>2018-10-14T06:43:49Z</time>
      </trkpt>
      <trkpt lat="46.41543" lon="2.6012">
        <ele>199.2</ele>
        <time>2018-10-14T06:43:51Z</time>
      </trkpt>
      <trkpt lat="46.4155" lon="2.60114">
        <ele>198.6</ele>
        <time>2018-10-14T06:43:53Z</time>
      </trkpt>
      <trkpt lat="46.41557" lon="2.60108">
        <ele>199</ele>
        <time>2018-10-14T06:43:55Z</time>
      </trkpt>
      <trkpt lat="46.41564" lon="2.60102">
        <ele>199.1</ele>
        <time>2018-10-14T06:43:57Z</time>
      </trkpt>
      <trkpt lat="46.41571" lon="2.60096">
        <ele>199</ele>
        <time>2018-10-14T06:43:59Z</time>
      </trkpt>
      <trkpt lat="46.41579" lon="2.60093">
        <ele>198.8</ele>
        <time>2018-10-14T06:44:01Z</time>
      </trkpt>
      <trkpt lat="46.41587" lon="2.60093">
        <ele>198.9</ele>
        <time>2018-10-14T06:44:03Z</time>
      </trkpt>
      <trkpt lat="46.41591" lon="2.60094">
        <ele>199.3</ele>
        <time>2018-10-14T06:44:04Z</time>
      </trkpt>
      <trkpt lat="46.41599" lon="2.60105">
        <ele>200.5</ele>
        <time>2018-10-14T06:44:07Z</time>
      </trkpt>
      <trkpt lat="46.41605" lon="2.60111">
        <ele>201.2</ele>
        <time>2018-10-14T06:44:09Z</time>
      </trkpt>
      <trkpt lat="46.41612" lon="2.60111">
        <ele>201.4</ele>
        <time>2018-10-14T06:44:11Z</time>
      </trkpt>
      <trkpt lat="46.41619" lon="2.60108">
        <ele>201.1</ele>
        <time>2018-10-14T06:44:13Z</time>
      </trkpt>
      <trkpt lat="46.41626" lon="2.60106">
        <ele>200.8</ele>
        <time>2018-10-14T06:44:15Z</time>
      </trkpt>
      <trkpt lat="46.41632" lon="2.60103">
        <ele>200.6</ele>
        <time>2018-10-14T06:44:17Z</time>
      </trkpt>
      <trkpt lat="46.41633" lon="2.60091">
        <ele>200</ele>
        <time>2018-10-14T06:44:21Z</time>
      </trkpt>
      <trkpt lat="46.41627" lon="2.60082">
        <ele>199.8</ele>
        <time>2018-10-14T06:44:24Z</time>
      </trkpt>
      <trkpt lat="46.41625" lon="2.60072">
        <ele>199.6</ele>
        <time>2018-10-14T06:44:26Z</time>
      </trkpt>
      <trkpt lat="46.41632" lon="2.60066">
        <ele>199.6</ele>
        <time>2018-10-14T06:44:28Z</time>
      </trkpt>
      <trkpt lat="46.4164" lon="2.60064">
        <ele>199.5</ele>
        <time>2018-10-14T06:44:30Z</time>
      </trkpt>
      <trkpt lat="46.41649" lon="2.60063">
        <ele>199.7</ele>
        <time>2018-10-14T06:44:32Z</time>
      </trkpt>
      <trkpt lat="46.41657" lon="2.60062">
        <ele>199.8</ele>
        <time>2018-10-14T06:44:34Z</time>
      </trkpt>
      <trkpt lat="46.41666" lon="2.60063">
        <ele>199.2</ele>
        <time>2018-10-14T06:44:36Z</time>
      </trkpt>
      <trkpt lat="46.41674" lon="2.60063">
        <ele>199.1</ele>
        <time>2018-10-14T06:44:38Z</time>
      </trkpt>
      <trkpt lat="46.41683" lon="2.60065">
        <ele>199</ele>
        <time>2018-10-14T06:44:40Z</time>
      </trkpt>
      <trkpt lat="46.41691" lon="2.60067">
        <ele>198.9</ele>
        <time>2018-10-14T06:44:42Z</time>
      </trkpt>
      <trkpt lat="46.417" lon="2.6007">
        <ele>198.6</ele>
        <time>2018-10-14T06:44:44Z</time>
      </trkpt>
      <trkpt lat="46.41708" lon="2.60073">
        <ele>198.2</ele>
        <time>2018-10-14T06:44:46Z</time>
      </trkpt>
      <trkpt lat="46.41717" lon="2.60076">
        <ele>198.7</ele>
        <time>2018-10-14T06:44:48Z</time>
      </trkpt>
      <trkpt lat="46.41725" lon="2.6008">
        <ele>199.2</ele>
        <time>2018-10-14T06:44:50Z</time>
      </trkpt>
      <trkpt lat="46.41733" lon="2.60083">
        <ele>199.4</ele>
        <time>2018-10-14T06:44:52Z</time>
      </trkpt>
      <trkpt lat="46.41742" lon="2.60087">
        <ele>199.5</ele>
        <time>2018-10-14T06:44:54Z</time>
      </trkpt>
      <trkpt lat="46.4175" lon="2.6009">
        <ele>199.4</ele>
        <time>2018-10-14T06:44:56Z</time>
      </trkpt>
      <trkpt lat="46.41759" lon="2.60092">
        <ele>199.7</ele>
        <time>2018-10-14T06:44:58Z</time>
      </trkpt>
      <trkpt lat="46.41768" lon="2.60094">
        <ele>200.1</ele>
        <time>2018-10-14T06:45:00Z</time>
      </trkpt>
      <trkpt lat="46.41777" lon="2.60096">
        <ele>200</ele>
        <time>2018-10-14T06:45:02Z</time>
      </trkpt>
      <trkpt lat="46.41785" lon="2.60097">
        <ele>199.5</ele>
        <time>2018-10-14T06:45:04Z</time>
      </trkpt>
      <trkpt lat="46.4179" lon="2.60097">
        <ele>199.4</ele>
        <time>2018-10-14T06:45:05Z</time>
      </trkpt>
      <trkpt lat="46.41803" lon="2.60099">
        <ele>200</ele>
        <time>2018-10-14T06:45:08Z</time>
      </trkpt>
      <trkpt lat="46.41807" lon="2.60099">
        <ele>200.2</ele>
        <time>2018-10-14T06:45:09Z</time>
      </trkpt>
      <trkpt lat="46.41812" lon="2.60099">
        <ele>200.2</ele>
        <time>2018-10-14T06:45:10Z</time>
      </trkpt>
      <trkpt lat="46.41816" lon="2.60099">
        <ele>200.1</ele>
        <time>2018-10-14T06:45:11Z</time>
      </trkpt>
      <trkpt lat="46.41821" lon="2.60098">
        <ele>200.1</ele>
        <time>2018-10-14T06:45:12Z</time>
      </trkpt>
      <trkpt lat="46.41825" lon="2.60098">
        <ele>199.9</ele>
        <time>2018-10-14T06:45:13Z</time>
      </trkpt>
      <trkpt lat="46.4183" lon="2.60098">
        <ele>199.8</ele>
        <time>2018-10-14T06:45:14Z</time>
      </trkpt>
      <trkpt lat="46.41834" lon="2.60098">
        <ele>199.6</ele>
        <time>2018-10-14T06:45:15Z</time>
      </trkpt>
      <trkpt lat="46.41839" lon="2.60097">
        <ele>199.4</ele>
        <time>2018-10-14T06:45:16Z</time>
      </trkpt>
      <trkpt lat="46.41843" lon="2.60096">
        <ele>199.3</ele>
        <time>2018-10-14T06:45:17Z</time>
      </trkpt>
      <trkpt lat="46.41852" lon="2.60094">
        <ele>199</ele>
        <time>2018-10-14T06:45:19Z</time>
      </trkpt>
      <trkpt lat="46.41857" lon="2.60093">
        <ele>199.2</ele>
        <time>2018-10-14T06:45:20Z</time>
      </trkpt>
      <trkpt lat="46.41861" lon="2.60091">
        <ele>199.3</ele>
        <time>2018-10-14T06:45:21Z</time>
      </trkpt>
      <trkpt lat="46.41866" lon="2.6009">
        <ele>199.1</ele>
        <time>2018-10-14T06:45:22Z</time>
      </trkpt>
      <trkpt lat="46.4187" lon="2.60089">
        <ele>198.9</ele>
        <time>2018-10-14T06:45:23Z</time>
      </trkpt>
      <trkpt lat="46.41875" lon="2.60087">
        <ele>198.8</ele>
        <time>2018-10-14T06:45:24Z</time>
      </trkpt>
      <trkpt lat="46.41879" lon="2.60085">
        <ele>199.3</ele>
        <time>2018-10-14T06:45:25Z</time>
      </trkpt>
      <trkpt lat="46.41884" lon="2.60084">
        <ele>199.6</ele>
        <time>2018-10-14T06:45:26Z</time>
      </trkpt>
      <trkpt lat="46.41892" lon="2.6008">
        <ele>199.9</ele>
        <time>2018-10-14T06:45:28Z</time>
      </trkpt>
      <trkpt lat="46.41896" lon="2.60078">
        <ele>199.7</ele>
        <time>2018-10-14T06:45:29Z</time>
      </trkpt>
      <trkpt lat="46.41905" lon="2.60073">
        <ele>199.4</ele>
        <time>2018-10-14T06:45:31Z</time>
      </trkpt>
      <trkpt lat="46.41913" lon="2.60069">
        <ele>199.6</ele>
        <time>2018-10-14T06:45:33Z</time>
      </trkpt>
      <trkpt lat="46.41921" lon="2.60064">
        <ele>200.2</ele>
        <time>2018-10-14T06:45:35Z</time>
      </trkpt>
      <trkpt lat="46.41929" lon="2.60059">
        <ele>200.3</ele>
        <time>2018-10-14T06:45:37Z</time>
      </trkpt>
      <trkpt lat="46.41936" lon="2.60053">
        <ele>200.3</ele>
        <time>2018-10-14T06:45:39Z</time>
      </trkpt>
      <trkpt lat="46.41944" lon="2.60047">
        <ele>200.1</ele>
        <time>2018-10-14T06:45:41Z</time>
      </trkpt>
      <trkpt lat="46.41951" lon="2.6004">
        <ele>199.9</ele>
        <time>2018-10-14T06:45:43Z</time>
      </trkpt>
      <trkpt lat="46.41958" lon="2.60033">
        <ele>199.4</ele>
        <time>2018-10-14T06:45:45Z</time>
      </trkpt>
      <trkpt lat="46.41965" lon="2.60025">
        <ele>199.7</ele>
        <time>2018-10-14T06:45:47Z</time>
      </trkpt>
      <trkpt lat="46.41973" lon="2.60018">
        <ele>199.5</ele>
        <time>2018-10-14T06:45:49Z</time>
      </trkpt>
      <trkpt lat="46.4198" lon="2.6001">
        <ele>199.6</ele>
        <time>2018-10-14T06:45:51Z</time>
      </trkpt>
      <trkpt lat="46.41986" lon="2.60002">
        <ele>199.9</ele>
        <time>2018-10-14T06:45:53Z</time>
      </trkpt>
      <trkpt lat="46.41993" lon="2.59993">
        <ele>199.9</ele>
        <time>2018-10-14T06:45:55Z</time>
      </trkpt>
      <trkpt lat="46.41996" lon="2.59988">
        <ele>199.8</ele>
        <time>2018-10-14T06:45:56Z</time>
      </trkpt>
      <trkpt lat="46.41999" lon="2.59984">
        <ele>199.7</ele>
        <time>2018-10-14T06:45:57Z</time>
      </trkpt>
      <trkpt lat="46.42003" lon="2.59979">
        <ele>200.1</ele>
        <time>2018-10-14T06:45:58Z</time>
      </trkpt>
      <trkpt lat="46.42006" lon="2.59974">
        <ele>200.4</ele>
        <time>2018-10-14T06:45:59Z</time>
      </trkpt>
      <trkpt lat="46.42009" lon="2.59969">
        <ele>200</ele>
        <time>2018-10-14T06:46:00Z</time>
      </trkpt>
      <trkpt lat="46.42012" lon="2.59965">
        <ele>199.7</ele>
        <time>2018-10-14T06:46:01Z</time>
      </trkpt>
      <trkpt lat="46.42015" lon="2.5996">
        <ele>199.5</ele>
        <time>2018-10-14T06:46:02Z</time>
      </trkpt>
      <trkpt lat="46.42019" lon="2.59955">
        <ele>199.6</ele>
        <time>2018-10-14T06:46:03Z</time>
      </trkpt>
      <trkpt lat="46.42022" lon="2.5995">
        <ele>199.7</ele>
        <time>2018-10-14T06:46:04Z</time>
      </trkpt>
      <trkpt lat="46.42025" lon="2.59945">
        <ele>199.9</ele>
        <time>2018-10-14T06:46:05Z</time>
      </trkpt>
      <trkpt lat="46.42028" lon="2.5994">
        <ele>200</ele>
        <time>2018-10-14T06:46:06Z</time>
      </trkpt>
      <trkpt lat="46.42031" lon="2.59935">
        <ele>200.3</ele>
        <time>2018-10-14T06:46:07Z</time>
      </trkpt>
      <trkpt lat="46.42037" lon="2.59925">
        <ele>200.5</ele>
        <time>2018-10-14T06:46:09Z</time>
      </trkpt>
      <trkpt lat="46.4204" lon="2.5992">
        <ele>200.9</ele>
        <time>2018-10-14T06:46:10Z</time>
      </trkpt>
      <trkpt lat="46.42046" lon="2.59911">
        <ele>201.1</ele>
        <time>2018-10-14T06:46:12Z</time>
      </trkpt>
      <trkpt lat="46.42049" lon="2.59906">
        <ele>201.1</ele>
        <time>2018-10-14T06:46:13Z</time>
      </trkpt>
      <trkpt lat="46.42052" lon="2.59901">
        <ele>200.5</ele>
        <time>2018-10-14T06:46:14Z</time>
      </trkpt>
      <trkpt lat="46.42056" lon="2.59896">
        <ele>200.1</ele>
        <time>2018-10-14T06:46:15Z</time>
      </trkpt>
      <trkpt lat="46.42059" lon="2.59891">
        <ele>199.8</ele>
        <time>2018-10-14T06:46:16Z</time>
      </trkpt>
      <trkpt lat="46.42066" lon="2.59883">
        <ele>199.4</ele>
        <time>2018-10-14T06:46:18Z</time>
      </trkpt>
      <trkpt lat="46.42069" lon="2.59878">
        <ele>199.3</ele>
        <time>2018-10-14T06:46:19Z</time>
      </trkpt>
      <trkpt lat="46.42076" lon="2.5987">
        <ele>199.2</ele>
        <time>2018-10-14T06:46:21Z</time>
      </trkpt>
      <trkpt lat="46.4208" lon="2.59866">
        <ele>199</ele>
        <time>2018-10-14T06:46:22Z</time>
      </trkpt>
      <trkpt lat="46.42084" lon="2.59863">
        <ele>198.8</ele>
        <time>2018-10-14T06:46:23Z</time>
      </trkpt>
      <trkpt lat="46.42087" lon="2.59859">
        <ele>199.2</ele>
        <time>2018-10-14T06:46:24Z</time>
      </trkpt>
      <trkpt lat="46.42091" lon="2.59856">
        <ele>199.6</ele>
        <time>2018-10-14T06:46:25Z</time>
      </trkpt>
      <trkpt lat="46.42095" lon="2.59852">
        <ele>199.5</ele>
        <time>2018-10-14T06:46:26Z</time>
      </trkpt>
      <trkpt lat="46.42099" lon="2.59849">
        <ele>199.5</ele>
        <time>2018-10-14T06:46:27Z</time>
      </trkpt>
      <trkpt lat="46.42103" lon="2.59846">
        <ele>199.5</ele>
        <time>2018-10-14T06:46:28Z</time>
      </trkpt>
      <trkpt lat="46.42108" lon="2.59843">
        <ele>199.6</ele>
        <time>2018-10-14T06:46:29Z</time>
      </trkpt>
      <trkpt lat="46.42112" lon="2.59841">
        <ele>199.7</ele>
        <time>2018-10-14T06:46:30Z</time>
      </trkpt>
      <trkpt lat="46.42116" lon="2.59838">
        <ele>199.6</ele>
        <time>2018-10-14T06:46:31Z</time>
      </trkpt>
      <trkpt lat="46.4212" lon="2.59836">
        <ele>199.5</ele>
        <time>2018-10-14T06:46:32Z</time>
      </trkpt>
      <trkpt lat="46.42125" lon="2.59834">
        <ele>199.5</ele>
        <time>2018-10-14T06:46:33Z</time>
      </trkpt>
      <trkpt lat="46.4213" lon="2.59832">
        <ele>199.5</ele>
        <time>2018-10-14T06:46:34Z</time>
      </trkpt>
      <trkpt lat="46.42134" lon="2.5983">
        <ele>199.5</ele>
        <time>2018-10-14T06:46:35Z</time>
      </trkpt>
      <trkpt lat="46.42139" lon="2.59829">
        <ele>199.6</ele>
        <time>2018-10-14T06:46:36Z</time>
      </trkpt>
      <trkpt lat="46.42144" lon="2.59827">
        <ele>199.6</ele>
        <time>2018-10-14T06:46:37Z</time>
      </trkpt>
      <trkpt lat="46.42149" lon="2.59826">
        <ele>199.7</ele>
        <time>2018-10-14T06:46:38Z</time>
      </trkpt>
      <trkpt lat="46.42154" lon="2.59825">
        <ele>199.7</ele>
        <time>2018-10-14T06:46:39Z</time>
      </trkpt>
      <trkpt lat="46.42158" lon="2.59825">
        <ele>199.7</ele>
        <time>2018-10-14T06:46:40Z</time>
      </trkpt>
      <trkpt lat="46.42163" lon="2.59824">
        <ele>199.7</ele>
        <time>2018-10-14T06:46:41Z</time>
      </trkpt>
      <trkpt lat="46.42168" lon="2.59823">
        <ele>199.7</ele>
        <time>2018-10-14T06:46:42Z</time>
      </trkpt>
      <trkpt lat="46.42173" lon="2.59823">
        <ele>199.5</ele>
        <time>2018-10-14T06:46:43Z</time>
      </trkpt>
      <trkpt lat="46.42178" lon="2.59822">
        <ele>199.3</ele>
        <time>2018-10-14T06:46:44Z</time>
      </trkpt>
      <trkpt lat="46.42183" lon="2.59821">
        <ele>199.6</ele>
        <time>2018-10-14T06:46:45Z</time>
      </trkpt>
      <trkpt lat="46.42188" lon="2.5982">
        <ele>199.8</ele>
        <time>2018-10-14T06:46:46Z</time>
      </trkpt>
      <trkpt lat="46.42193" lon="2.59819">
        <ele>199.9</ele>
        <time>2018-10-14T06:46:47Z</time>
      </trkpt>
      <trkpt lat="46.42198" lon="2.59817">
        <ele>199.3</ele>
        <time>2018-10-14T06:46:48Z</time>
      </trkpt>
      <trkpt lat="46.42202" lon="2.59816">
        <ele>198.8</ele>
        <time>2018-10-14T06:46:49Z</time>
      </trkpt>
      <trkpt lat="46.42207" lon="2.59814">
        <ele>199</ele>
        <time>2018-10-14T06:46:50Z</time>
      </trkpt>
      <trkpt lat="46.42212" lon="2.59813">
        <ele>199.1</ele>
        <time>2018-10-14T06:46:51Z</time>
      </trkpt>
      <trkpt lat="46.42216" lon="2.59811">
        <ele>199.2</ele>
        <time>2018-10-14T06:46:52Z</time>
      </trkpt>
      <trkpt lat="46.42221" lon="2.5981">
        <ele>199.3</ele>
        <time>2018-10-14T06:46:53Z</time>
      </trkpt>
      <trkpt lat="46.42226" lon="2.59809">
        <ele>199.3</ele>
        <time>2018-10-14T06:46:54Z</time>
      </trkpt>
      <trkpt lat="46.4223" lon="2.59807">
        <ele>199</ele>
        <time>2018-10-14T06:46:55Z</time>
      </trkpt>
      <trkpt lat="46.42235" lon="2.59806">
        <ele>198.7</ele>
        <time>2018-10-14T06:46:56Z</time>
      </trkpt>
      <trkpt lat="46.4224" lon="2.59805">
        <ele>198.9</ele>
        <time>2018-10-14T06:46:57Z</time>
      </trkpt>
      <trkpt lat="46.42245" lon="2.59803">
        <ele>199</ele>
        <time>2018-10-14T06:46:58Z</time>
      </trkpt>
      <trkpt lat="46.42249" lon="2.59802">
        <ele>199.1</ele>
        <time>2018-10-14T06:46:59Z</time>
      </trkpt>
      <trkpt lat="46.42254" lon="2.598">
        <ele>199</ele>
        <time>2018-10-14T06:47:00Z</time>
      </trkpt>
      <trkpt lat="46.42259" lon="2.59799">
        <ele>199</ele>
        <time>2018-10-14T06:47:01Z</time>
      </trkpt>
      <trkpt lat="46.42263" lon="2.59798">
        <ele>199.2</ele>
        <time>2018-10-14T06:47:02Z</time>
      </trkpt>
      <trkpt lat="46.42268" lon="2.59796">
        <ele>199.3</ele>
        <time>2018-10-14T06:47:03Z</time>
      </trkpt>
      <trkpt lat="46.42272" lon="2.59795">
        <ele>199.4</ele>
        <time>2018-10-14T06:47:04Z</time>
      </trkpt>
      <trkpt lat="46.42277" lon="2.59794">
        <ele>199.5</ele>
        <time>2018-10-14T06:47:05Z</time>
      </trkpt>
      <trkpt lat="46.42282" lon="2.59792">
        <ele>199.6</ele>
        <time>2018-10-14T06:47:06Z</time>
      </trkpt>
      <trkpt lat="46.42286" lon="2.59791">
        <ele>199.7</ele>
        <time>2018-10-14T06:47:07Z</time>
      </trkpt>
      <trkpt lat="46.42291" lon="2.59789">
        <ele>199.8</ele>
        <time>2018-10-14T06:47:08Z</time>
      </trkpt>
      <trkpt lat="46.42296" lon="2.59788">
        <ele>199.5</ele>
        <time>2018-10-14T06:47:09Z</time>
      </trkpt>
      <trkpt lat="46.423" lon="2.59786">
        <ele>199.3</ele>
        <time>2018-10-14T06:47:10Z</time>
      </trkpt>
      <trkpt lat="46.42305" lon="2.59784">
        <ele>199.2</ele>
        <time>2018-10-14T06:47:11Z</time>
      </trkpt>
      <trkpt lat="46.4231" lon="2.59783">
        <ele>199.1</ele>
        <time>2018-10-14T06:47:12Z</time>
      </trkpt>
      <trkpt lat="46.42314" lon="2.59782">
        <ele>199.1</ele>
        <time>2018-10-14T06:47:13Z</time>
      </trkpt>
      <trkpt lat="46.42319" lon="2.5978">
        <ele>198.9</ele>
        <time>2018-10-14T06:47:14Z</time>
      </trkpt>
      <trkpt lat="46.42324" lon="2.59779">
        <ele>198.8</ele>
        <time>2018-10-14T06:47:15Z</time>
      </trkpt>
      <trkpt lat="46.42328" lon="2.59777">
        <ele>199.1</ele>
        <time>2018-10-14T06:47:16Z</time>
      </trkpt>
      <trkpt lat="46.42333" lon="2.59776">
        <ele>199.2</ele>
        <time>2018-10-14T06:47:17Z</time>
      </trkpt>
      <trkpt lat="46.42338" lon="2.59775">
        <ele>199.4</ele>
        <time>2018-10-14T06:47:18Z</time>
      </trkpt>
      <trkpt lat="46.42342" lon="2.59773">
        <ele>199.5</ele>
        <time>2018-10-14T06:47:19Z</time>
      </trkpt>
      <trkpt lat="46.42347" lon="2.59772">
        <ele>199.6</ele>
        <time>2018-10-14T06:47:20Z</time>
      </trkpt>
      <trkpt lat="46.42352" lon="2.5977">
        <ele>199.5</ele>
        <time>2018-10-14T06:47:21Z</time>
      </trkpt>
      <trkpt lat="46.42356" lon="2.59769">
        <ele>199.4</ele>
        <time>2018-10-14T06:47:22Z</time>
      </trkpt>
      <trkpt lat="46.42361" lon="2.59767">
        <ele>199.6</ele>
        <time>2018-10-14T06:47:23Z</time>
      </trkpt>
      <trkpt lat="46.42366" lon="2.59766">
        <ele>199.8</ele>
        <time>2018-10-14T06:47:24Z</time>
      </trkpt>
      <trkpt lat="46.42371" lon="2.59764">
        <ele>199.9</ele>
        <time>2018-10-14T06:47:25Z</time>
      </trkpt>
      <trkpt lat="46.42376" lon="2.59763">
        <ele>199.9</ele>
        <time>2018-10-14T06:47:26Z</time>
      </trkpt>
      <trkpt lat="46.4238" lon="2.59762">
        <ele>199.9</ele>
        <time>2018-10-14T06:47:27Z</time>
      </trkpt>
      <trkpt lat="46.42385" lon="2.5976">
        <ele>199.7</ele>
        <time>2018-10-14T06:47:28Z</time>
      </trkpt>
      <trkpt lat="46.4239" lon="2.59759">
        <ele>199.6</ele>
        <time>2018-10-14T06:47:29Z</time>
      </trkpt>
      <trkpt lat="46.42395" lon="2.59758">
        <ele>199.5</ele>
        <time>2018-10-14T06:47:30Z</time>
      </trkpt>
      <trkpt lat="46.42399" lon="2.59757">
        <ele>199.4</ele>
        <time>2018-10-14T06:47:31Z</time>
      </trkpt>
      <trkpt lat="46.42404" lon="2.59756">
        <ele>199.3</ele>
        <time>2018-10-14T06:47:32Z</time>
      </trkpt>
      <trkpt lat="46.42409" lon="2.59755">
        <ele>199.1</ele>
        <time>2018-10-14T06:47:33Z</time>
      </trkpt>
      <trkpt lat="46.42413" lon="2.59754">
        <ele>198.9</ele>
        <time>2018-10-14T06:47:34Z</time>
      </trkpt>
      <trkpt lat="46.42418" lon="2.59753">
        <ele>199.1</ele>
        <time>2018-10-14T06:47:35Z</time>
      </trkpt>
      <trkpt lat="46.42423" lon="2.59753">
        <ele>199.3</ele>
        <time>2018-10-14T06:47:36Z</time>
      </trkpt>
      <trkpt lat="46.42427" lon="2.59752">
        <ele>199.4</ele>
        <time>2018-10-14T06:47:37Z</time>
      </trkpt>
      <trkpt lat="46.42432" lon="2.59752">
        <ele>199.3</ele>
        <time>2018-10-14T06:47:38Z</time>
      </trkpt>
      <trkpt lat="46.42437" lon="2.59751">
        <ele>199.2</ele>
        <time>2018-10-14T06:47:39Z</time>
      </trkpt>
      <trkpt lat="46.42441" lon="2.59751">
        <ele>199.3</ele>
        <time>2018-10-14T06:47:40Z</time>
      </trkpt>
      <trkpt lat="46.42446" lon="2.59751">
        <ele>199.3</ele>
        <time>2018-10-14T06:47:41Z</time>
      </trkpt>
      <trkpt lat="46.42451" lon="2.59751">
        <ele>199.4</ele>
        <time>2018-10-14T06:47:42Z</time>
      </trkpt>
      <trkpt lat="46.42455" lon="2.59751">
        <ele>199.5</ele>
        <time>2018-10-14T06:47:43Z</time>
      </trkpt>
      <trkpt lat="46.4246" lon="2.59751">
        <ele>199.6</ele>
        <time>2018-10-14T06:47:44Z</time>
      </trkpt>
      <trkpt lat="46.42465" lon="2.59751">
        <ele>199.6</ele>
        <time>2018-10-14T06:47:45Z</time>
      </trkpt>
      <trkpt lat="46.42469" lon="2.59752">
        <ele>199.5</ele>
        <time>2018-10-14T06:47:46Z</time>
      </trkpt>
      <trkpt lat="46.42474" lon="2.59752">
        <ele>199.6</ele>
        <time>2018-10-14T06:47:47Z</time>
      </trkpt>
      <trkpt lat="46.42479" lon="2.59753">
        <ele>199.7</ele>
        <time>2018-10-14T06:47:48Z</time>
      </trkpt>
      <trkpt lat="46.42483" lon="2.59753">
        <ele>199.8</ele>
        <time>2018-10-14T06:47:49Z</time>
      </trkpt>
      <trkpt lat="46.42488" lon="2.59754">
        <ele>199.9</ele>
        <time>2018-10-14T06:47:50Z</time>
      </trkpt>
      <trkpt lat="46.42493" lon="2.59754">
        <ele>199.9</ele>
        <time>2018-10-14T06:47:51Z</time>
      </trkpt>
      <trkpt lat="46.42497" lon="2.59755">
        <ele>200</ele>
        <time>2018-10-14T06:47:52Z</time>
      </trkpt>
      <trkpt lat="46.42502" lon="2.59756">
        <ele>200</ele>
        <time>2018-10-14T06:47:53Z</time>
      </trkpt>
      <trkpt lat="46.42506" lon="2.59757">
        <ele>199.7</ele>
        <time>2018-10-14T06:47:54Z</time>
      </trkpt>
      <trkpt lat="46.42511" lon="2.59757">
        <ele>199.5</ele>
        <time>2018-10-14T06:47:55Z</time>
      </trkpt>
      <trkpt lat="46.42519" lon="2.59758">
        <ele>200.3</ele>
        <time>2018-10-14T06:47:57Z</time>
      </trkpt>
      <trkpt lat="46.42528" lon="2.59758">
        <ele>200.5</ele>
        <time>2018-10-14T06:47:59Z</time>
      </trkpt>
      <trkpt lat="46.42534" lon="2.59761">
        <ele>200.7</ele>
        <time>2018-10-14T06:48:01Z</time>
      </trkpt>
      <trkpt lat="46.4254" lon="2.59764">
        <ele>200.9</ele>
        <time>2018-10-14T06:48:03Z</time>
      </trkpt>
      <trkpt lat="46.42548" lon="2.59766">
        <ele>200.7</ele>
        <time>2018-10-14T06:48:05Z</time>
      </trkpt>
      <trkpt lat="46.42552" lon="2.59767">
        <ele>200.3</ele>
        <time>2018-10-14T06:48:06Z</time>
      </trkpt>
      <trkpt lat="46.42557" lon="2.59768">
        <ele>200.1</ele>
        <time>2018-10-14T06:48:07Z</time>
      </trkpt>
      <trkpt lat="46.42562" lon="2.59769">
        <ele>199.7</ele>
        <time>2018-10-14T06:48:08Z</time>
      </trkpt>
      <trkpt lat="46.42566" lon="2.59769">
        <ele>199.4</ele>
        <time>2018-10-14T06:48:09Z</time>
      </trkpt>
      <trkpt lat="46.42571" lon="2.5977">
        <ele>199.2</ele>
        <time>2018-10-14T06:48:10Z</time>
      </trkpt>
      <trkpt lat="46.42576" lon="2.59771">
        <ele>199.2</ele>
        <time>2018-10-14T06:48:11Z</time>
      </trkpt>
      <trkpt lat="46.4258" lon="2.59771">
        <ele>199.3</ele>
        <time>2018-10-14T06:48:12Z</time>
      </trkpt>
      <trkpt lat="46.42585" lon="2.59772">
        <ele>199</ele>
        <time>2018-10-14T06:48:13Z</time>
      </trkpt>
      <trkpt lat="46.42589" lon="2.59772">
        <ele>198.9</ele>
        <time>2018-10-14T06:48:14Z</time>
      </trkpt>
      <trkpt lat="46.42598" lon="2.59772">
        <ele>198.7</ele>
        <time>2018-10-14T06:48:16Z</time>
      </trkpt>
      <trkpt lat="46.42603" lon="2.59772">
        <ele>198.7</ele>
        <time>2018-10-14T06:48:17Z</time>
      </trkpt>
      <trkpt lat="46.42607" lon="2.59772">
        <ele>198.7</ele>
        <time>2018-10-14T06:48:18Z</time>
      </trkpt>
      <trkpt lat="46.42612" lon="2.59772">
        <ele>198.8</ele>
        <time>2018-10-14T06:48:19Z</time>
      </trkpt>
      <trkpt lat="46.42616" lon="2.59772">
        <ele>198.7</ele>
        <time>2018-10-14T06:48:20Z</time>
      </trkpt>
      <trkpt lat="46.42625" lon="2.59772">
        <ele>198.7</ele>
        <time>2018-10-14T06:48:22Z</time>
      </trkpt>
      <trkpt lat="46.42634" lon="2.5977">
        <ele>199</ele>
        <time>2018-10-14T06:48:24Z</time>
      </trkpt>
      <trkpt lat="46.42641" lon="2.59769">
        <ele>198.7</ele>
        <time>2018-10-14T06:48:26Z</time>
      </trkpt>
      <trkpt lat="46.42649" lon="2.59768">
        <ele>199.6</ele>
        <time>2018-10-14T06:48:28Z</time>
      </trkpt>
      <trkpt lat="46.42656" lon="2.59767">
        <ele>199.9</ele>
        <time>2018-10-14T06:48:30Z</time>
      </trkpt>
      <trkpt lat="46.42663" lon="2.59767">
        <ele>199.6</ele>
        <time>2018-10-14T06:48:32Z</time>
      </trkpt>
      <trkpt lat="46.4267" lon="2.59771">
        <ele>199.3</ele>
        <time>2018-10-14T06:48:34Z</time>
      </trkpt>
      <trkpt lat="46.42676" lon="2.59778">
        <ele>199</ele>
        <time>2018-10-14T06:48:36Z</time>
      </trkpt>
      <trkpt lat="46.42685" lon="2.59783">
        <ele>199.3</ele>
        <time>2018-10-14T06:48:38Z</time>
      </trkpt>
      <trkpt lat="46.42693" lon="2.59781">
        <ele>199</ele>
        <time>2018-10-14T06:48:40Z</time>
      </trkpt>
      <trkpt lat="46.42699" lon="2.59774">
        <ele>199.1</ele>
        <time>2018-10-14T06:48:42Z</time>
      </trkpt>
      <trkpt lat="46.42704" lon="2.59766">
        <ele>199.2</ele>
        <time>2018-10-14T06:48:44Z</time>
      </trkpt>
      <trkpt lat="46.42712" lon="2.59762">
        <ele>198.2</ele>
        <time>2018-10-14T06:48:47Z</time>
      </trkpt>
      <trkpt lat="46.42719" lon="2.59762">
        <ele>198.2</ele>
        <time>2018-10-14T06:48:50Z</time>
      </trkpt>
      <trkpt lat="46.42728" lon="2.59761">
        <ele>198.1</ele>
        <time>2018-10-14T06:48:53Z</time>
      </trkpt>
      <trkpt lat="46.42734" lon="2.59761">
        <ele>197.8</ele>
        <time>2018-10-14T06:48:55Z</time>
      </trkpt>
      <trkpt lat="46.42741" lon="2.59761">
        <ele>198.3</ele>
        <time>2018-10-14T06:48:57Z</time>
      </trkpt>
      <trkpt lat="46.42748" lon="2.59761">
        <ele>198.5</ele>
        <time>2018-10-14T06:48:59Z</time>
      </trkpt>
      <trkpt lat="46.42754" lon="2.5976">
        <ele>198.9</ele>
        <time>2018-10-14T06:49:01Z</time>
      </trkpt>
      <trkpt lat="46.42761" lon="2.5976">
        <ele>199.1</ele>
        <time>2018-10-14T06:49:03Z</time>
      </trkpt>
      <trkpt lat="46.42767" lon="2.5976">
        <ele>199.3</ele>
        <time>2018-10-14T06:49:05Z</time>
      </trkpt>
      <trkpt lat="46.42776" lon="2.59759">
        <ele>199.4</ele>
        <time>2018-10-14T06:49:08Z</time>
      </trkpt>
      <trkpt lat="46.42779" lon="2.59759">
        <ele>199.2</ele>
        <time>2018-10-14T06:49:09Z</time>
      </trkpt>
      <trkpt lat="46.42792" lon="2.59759">
        <ele>199.1</ele>
        <time>2018-10-14T06:49:15Z</time>
      </trkpt>
      <trkpt lat="46.42799" lon="2.59765">
        <ele>199.7</ele>
        <time>2018-10-14T06:49:19Z</time>
      </trkpt>
      <trkpt lat="46.42807" lon="2.59765">
        <ele>199.1</ele>
        <time>2018-10-14T06:49:22Z</time>
      </trkpt>
      <trkpt lat="46.42815" lon="2.59765">
        <ele>199.9</ele>
        <time>2018-10-14T06:49:25Z</time>
      </trkpt>
      <trkpt lat="46.42823" lon="2.59764">
        <ele>199.5</ele>
        <time>2018-10-14T06:49:28Z</time>
      </trkpt>
      <trkpt lat="46.42831" lon="2.59764">
        <ele>199.6</ele>
        <time>2018-10-14T06:49:31Z</time>
      </trkpt>
      <trkpt lat="46.4284" lon="2.59763">
        <ele>199.8</ele>
        <time>2018-10-14T06:49:34Z</time>
      </trkpt>
      <trkpt lat="46.42849" lon="2.59761">
        <ele>199.8</ele>
        <time>2018-10-14T06:49:37Z</time>
      </trkpt>
      <trkpt lat="46.42857" lon="2.59757">
        <ele>199.7</ele>
        <time>2018-10-14T06:49:40Z</time>
      </trkpt>
      <trkpt lat="46.42862" lon="2.59754">
        <ele>199.6</ele>
        <time>2018-10-14T06:49:42Z</time>
      </trkpt>
      <trkpt lat="46.4287" lon="2.59755">
        <ele>199.1</ele>
        <time>2018-10-14T06:49:45Z</time>
      </trkpt>
      <trkpt lat="46.42879" lon="2.59756">
        <ele>198.7</ele>
        <time>2018-10-14T06:49:48Z</time>
      </trkpt>
      <trkpt lat="46.42887" lon="2.59754">
        <ele>198.1</ele>
        <time>2018-10-14T06:49:50Z</time>
      </trkpt>
      <trkpt lat="46.42892" lon="2.59754">
        <ele>198</ele>
        <time>2018-10-14T06:49:51Z</time>
      </trkpt>
      <trkpt lat="46.42897" lon="2.59753">
        <ele>197.8</ele>
        <time>2018-10-14T06:49:52Z</time>
      </trkpt>
      <trkpt lat="46.42902" lon="2.59753">
        <ele>197.6</ele>
        <time>2018-10-14T06:49:53Z</time>
      </trkpt>
      <trkpt lat="46.42906" lon="2.59753">
        <ele>197.5</ele>
        <time>2018-10-14T06:49:54Z</time>
      </trkpt>
      <trkpt lat="46.42911" lon="2.59753">
        <ele>197.4</ele>
        <time>2018-10-14T06:49:55Z</time>
      </trkpt>
      <trkpt lat="46.42916" lon="2.59753">
        <ele>197.3</ele>
        <time>2018-10-14T06:49:56Z</time>
      </trkpt>
      <trkpt lat="46.42921" lon="2.59754">
        <ele>197.3</ele>
        <time>2018-10-14T06:49:57Z</time>
      </trkpt>
      <trkpt lat="46.42925" lon="2.59754">
        <ele>197.3</ele>
        <time>2018-10-14T06:49:58Z</time>
      </trkpt>
      <trkpt lat="46.4293" lon="2.59754">
        <ele>197.3</ele>
        <time>2018-10-14T06:49:59Z</time>
      </trkpt>
      <trkpt lat="46.42935" lon="2.59754">
        <ele>197.1</ele>
        <time>2018-10-14T06:50:00Z</time>
      </trkpt>
      <trkpt lat="46.42939" lon="2.59754">
        <ele>197</ele>
        <time>2018-10-14T06:50:01Z</time>
      </trkpt>
      <trkpt lat="46.42944" lon="2.59754">
        <ele>196.9</ele>
        <time>2018-10-14T06:50:02Z</time>
      </trkpt>
      <trkpt lat="46.42948" lon="2.59754">
        <ele>196.8</ele>
        <time>2018-10-14T06:50:03Z</time>
      </trkpt>
      <trkpt lat="46.42953" lon="2.59754">
        <ele>196.8</ele>
        <time>2018-10-14T06:50:04Z</time>
      </trkpt>
      <trkpt lat="46.42957" lon="2.59754">
        <ele>196.9</ele>
        <time>2018-10-14T06:50:05Z</time>
      </trkpt>
      <trkpt lat="46.42962" lon="2.59754">
        <ele>196.9</ele>
        <time>2018-10-14T06:50:06Z</time>
      </trkpt>
      <trkpt lat="46.42967" lon="2.59755">
        <ele>196.7</ele>
        <time>2018-10-14T06:50:07Z</time>
      </trkpt>
      <trkpt lat="46.42971" lon="2.59756">
        <ele>196.6</ele>
        <time>2018-10-14T06:50:08Z</time>
      </trkpt>
      <trkpt lat="46.42976" lon="2.59756">
        <ele>196.7</ele>
        <time>2018-10-14T06:50:09Z</time>
      </trkpt>
      <trkpt lat="46.4298" lon="2.59757">
        <ele>196.8</ele>
        <time>2018-10-14T06:50:10Z</time>
      </trkpt>
      <trkpt lat="46.42993" lon="2.5976">
        <ele>196.8</ele>
        <time>2018-10-14T06:50:13Z</time>
      </trkpt>
      <trkpt lat="46.43002" lon="2.59762">
        <ele>196.6</ele>
        <time>2018-10-14T06:50:15Z</time>
      </trkpt>
      <trkpt lat="46.4301" lon="2.59765">
        <ele>196.6</ele>
        <time>2018-10-14T06:50:17Z</time>
      </trkpt>
      <trkpt lat="46.43019" lon="2.59768">
        <ele>196.9</ele>
        <time>2018-10-14T06:50:19Z</time>
      </trkpt>
      <trkpt lat="46.43027" lon="2.59772">
        <ele>197.2</ele>
        <time>2018-10-14T06:50:21Z</time>
      </trkpt>
      <trkpt lat="46.43035" lon="2.59777">
        <ele>197.5</ele>
        <time>2018-10-14T06:50:23Z</time>
      </trkpt>
      <trkpt lat="46.43044" lon="2.59782">
        <ele>196.9</ele>
        <time>2018-10-14T06:50:25Z</time>
      </trkpt>
      <trkpt lat="46.43052" lon="2.59785">
        <ele>197.3</ele>
        <time>2018-10-14T06:50:27Z</time>
      </trkpt>
      <trkpt lat="46.4306" lon="2.59788">
        <ele>197.1</ele>
        <time>2018-10-14T06:50:29Z</time>
      </trkpt>
      <trkpt lat="46.43069" lon="2.59792">
        <ele>197.1</ele>
        <time>2018-10-14T06:50:31Z</time>
      </trkpt>
      <trkpt lat="46.43077" lon="2.59797">
        <ele>197</ele>
        <time>2018-10-14T06:50:33Z</time>
      </trkpt>
      <trkpt lat="46.43081" lon="2.59799">
        <ele>196.9</ele>
        <time>2018-10-14T06:50:34Z</time>
      </trkpt>
      <trkpt lat="46.4309" lon="2.59802">
        <ele>196.8</ele>
        <time>2018-10-14T06:50:36Z</time>
      </trkpt>
      <trkpt lat="46.43098" lon="2.59805">
        <ele>196.7</ele>
        <time>2018-10-14T06:50:38Z</time>
      </trkpt>
      <trkpt lat="46.43106" lon="2.59807">
        <ele>196.9</ele>
        <time>2018-10-14T06:50:40Z</time>
      </trkpt>
      <trkpt lat="46.43114" lon="2.59809">
        <ele>197.3</ele>
        <time>2018-10-14T06:50:42Z</time>
      </trkpt>
      <trkpt lat="46.43123" lon="2.5981">
        <ele>197.4</ele>
        <time>2018-10-14T06:50:44Z</time>
      </trkpt>
      <trkpt lat="46.43132" lon="2.59811">
        <ele>197.5</ele>
        <time>2018-10-14T06:50:46Z</time>
      </trkpt>
      <trkpt lat="46.4314" lon="2.59811">
        <ele>196.4</ele>
        <time>2018-10-14T06:50:48Z</time>
      </trkpt>
      <trkpt lat="46.43145" lon="2.59811">
        <ele>196</ele>
        <time>2018-10-14T06:50:49Z</time>
      </trkpt>
      <trkpt lat="46.43149" lon="2.59811">
        <ele>196.1</ele>
        <time>2018-10-14T06:50:50Z</time>
      </trkpt>
      <trkpt lat="46.43154" lon="2.5981">
        <ele>196.2</ele>
        <time>2018-10-14T06:50:51Z</time>
      </trkpt>
      <trkpt lat="46.43158" lon="2.59809">
        <ele>196.4</ele>
        <time>2018-10-14T06:50:52Z</time>
      </trkpt>
      <trkpt lat="46.43163" lon="2.59808">
        <ele>196.6</ele>
        <time>2018-10-14T06:50:53Z</time>
      </trkpt>
      <trkpt lat="46.43167" lon="2.59808">
        <ele>196.5</ele>
        <time>2018-10-14T06:50:54Z</time>
      </trkpt>
      <trkpt lat="46.43172" lon="2.59806">
        <ele>196.4</ele>
        <time>2018-10-14T06:50:55Z</time>
      </trkpt>
      <trkpt lat="46.43177" lon="2.59805">
        <ele>196.3</ele>
        <time>2018-10-14T06:50:56Z</time>
      </trkpt>
      <trkpt lat="46.43181" lon="2.59805">
        <ele>196.5</ele>
        <time>2018-10-14T06:50:57Z</time>
      </trkpt>
      <trkpt lat="46.43186" lon="2.59803">
        <ele>196.6</ele>
        <time>2018-10-14T06:50:58Z</time>
      </trkpt>
      <trkpt lat="46.4319" lon="2.59802">
        <ele>196.4</ele>
        <time>2018-10-14T06:50:59Z</time>
      </trkpt>
      <trkpt lat="46.43199" lon="2.598">
        <ele>196.2</ele>
        <time>2018-10-14T06:51:01Z</time>
      </trkpt>
      <trkpt lat="46.43207" lon="2.59797">
        <ele>195.8</ele>
        <time>2018-10-14T06:51:03Z</time>
      </trkpt>
      <trkpt lat="46.43216" lon="2.59794">
        <ele>195.5</ele>
        <time>2018-10-14T06:51:05Z</time>
      </trkpt>
      <trkpt lat="46.43224" lon="2.59792">
        <ele>195.7</ele>
        <time>2018-10-14T06:51:07Z</time>
      </trkpt>
      <trkpt lat="46.43233" lon="2.5979">
        <ele>196</ele>
        <time>2018-10-14T06:51:09Z</time>
      </trkpt>
      <trkpt lat="46.43242" lon="2.59787">
        <ele>196</ele>
        <time>2018-10-14T06:51:11Z</time>
      </trkpt>
      <trkpt lat="46.43246" lon="2.59786">
        <ele>195.9</ele>
        <time>2018-10-14T06:51:12Z</time>
      </trkpt>
      <trkpt lat="46.43251" lon="2.59785">
        <ele>196.2</ele>
        <time>2018-10-14T06:51:13Z</time>
      </trkpt>
      <trkpt lat="46.43255" lon="2.59783">
        <ele>196.4</ele>
        <time>2018-10-14T06:51:14Z</time>
      </trkpt>
      <trkpt lat="46.4326" lon="2.59782">
        <ele>196.6</ele>
        <time>2018-10-14T06:51:15Z</time>
      </trkpt>
      <trkpt lat="46.43264" lon="2.59781">
        <ele>196.7</ele>
        <time>2018-10-14T06:51:16Z</time>
      </trkpt>
      <trkpt lat="46.43269" lon="2.59779">
        <ele>196.8</ele>
        <time>2018-10-14T06:51:17Z</time>
      </trkpt>
      <trkpt lat="46.43273" lon="2.59778">
        <ele>196.7</ele>
        <time>2018-10-14T06:51:18Z</time>
      </trkpt>
      <trkpt lat="46.43278" lon="2.59777">
        <ele>196.6</ele>
        <time>2018-10-14T06:51:19Z</time>
      </trkpt>
      <trkpt lat="46.43282" lon="2.59776">
        <ele>196.5</ele>
        <time>2018-10-14T06:51:20Z</time>
      </trkpt>
      <trkpt lat="46.43287" lon="2.59774">
        <ele>196.5</ele>
        <time>2018-10-14T06:51:21Z</time>
      </trkpt>
      <trkpt lat="46.43292" lon="2.59773">
        <ele>196.4</ele>
        <time>2018-10-14T06:51:22Z</time>
      </trkpt>
      <trkpt lat="46.43296" lon="2.59771">
        <ele>196.5</ele>
        <time>2018-10-14T06:51:23Z</time>
      </trkpt>
      <trkpt lat="46.43301" lon="2.5977">
        <ele>196.6</ele>
        <time>2018-10-14T06:51:24Z</time>
      </trkpt>
      <trkpt lat="46.43305" lon="2.59769">
        <ele>196.6</ele>
        <time>2018-10-14T06:51:25Z</time>
      </trkpt>
      <trkpt lat="46.4331" lon="2.59768">
        <ele>196.6</ele>
        <time>2018-10-14T06:51:26Z</time>
      </trkpt>
      <trkpt lat="46.43314" lon="2.59766">
        <ele>196.6</ele>
        <time>2018-10-14T06:51:27Z</time>
      </trkpt>
      <trkpt lat="46.43319" lon="2.59765">
        <ele>196.8</ele>
        <time>2018-10-14T06:51:28Z</time>
      </trkpt>
      <trkpt lat="46.43323" lon="2.59764">
        <ele>197</ele>
        <time>2018-10-14T06:51:29Z</time>
      </trkpt>
      <trkpt lat="46.43328" lon="2.59762">
        <ele>196.8</ele>
        <time>2018-10-14T06:51:30Z</time>
      </trkpt>
      <trkpt lat="46.43336" lon="2.59759">
        <ele>197.1</ele>
        <time>2018-10-14T06:51:32Z</time>
      </trkpt>
      <trkpt lat="46.43344" lon="2.59756">
        <ele>197.6</ele>
        <time>2018-10-14T06:51:34Z</time>
      </trkpt>
      <trkpt lat="46.43351" lon="2.59753">
        <ele>197.4</ele>
        <time>2018-10-14T06:51:36Z</time>
      </trkpt>
      <trkpt lat="46.43358" lon="2.5975">
        <ele>196.7</ele>
        <time>2018-10-14T06:51:38Z</time>
      </trkpt>
      <trkpt lat="46.43364" lon="2.5975">
        <ele>196.3</ele>
        <time>2018-10-14T06:51:40Z</time>
      </trkpt>
      <trkpt lat="46.43371" lon="2.59749">
        <ele>196.6</ele>
        <time>2018-10-14T06:51:42Z</time>
      </trkpt>
      <trkpt lat="46.43377" lon="2.59746">
        <ele>196.8</ele>
        <time>2018-10-14T06:51:44Z</time>
      </trkpt>
      <trkpt lat="46.43384" lon="2.59743">
        <ele>196.7</ele>
        <time>2018-10-14T06:51:46Z</time>
      </trkpt>
      <trkpt lat="46.43392" lon="2.59741">
        <ele>196.7</ele>
        <time>2018-10-14T06:51:48Z</time>
      </trkpt>
      <trkpt lat="46.43399" lon="2.5974">
        <ele>196.9</ele>
        <time>2018-10-14T06:51:50Z</time>
      </trkpt>
      <trkpt lat="46.43406" lon="2.59739">
        <ele>196.8</ele>
        <time>2018-10-14T06:51:52Z</time>
      </trkpt>
      <trkpt lat="46.43414" lon="2.59738">
        <ele>196.7</ele>
        <time>2018-10-14T06:51:54Z</time>
      </trkpt>
      <trkpt lat="46.4342" lon="2.59736">
        <ele>196.6</ele>
        <time>2018-10-14T06:51:56Z</time>
      </trkpt>
      <trkpt lat="46.43427" lon="2.59733">
        <ele>196.3</ele>
        <time>2018-10-14T06:51:58Z</time>
      </trkpt>
      <trkpt lat="46.43432" lon="2.59729">
        <ele>195.9</ele>
        <time>2018-10-14T06:52:00Z</time>
      </trkpt>
      <trkpt lat="46.43438" lon="2.59724">
        <ele>195.5</ele>
        <time>2018-10-14T06:52:02Z</time>
      </trkpt>
      <trkpt lat="46.43445" lon="2.59722">
        <ele>195.7</ele>
        <time>2018-10-14T06:52:04Z</time>
      </trkpt>
      <trkpt lat="46.43453" lon="2.5972">
        <ele>195.3</ele>
        <time>2018-10-14T06:52:07Z</time>
      </trkpt>
      <trkpt lat="46.4346" lon="2.59718">
        <ele>195.3</ele>
        <time>2018-10-14T06:52:09Z</time>
      </trkpt>
      <trkpt lat="46.43464" lon="2.59716">
        <ele>194.9</ele>
        <time>2018-10-14T06:52:10Z</time>
      </trkpt>
      <trkpt lat="46.43469" lon="2.59715">
        <ele>194.7</ele>
        <time>2018-10-14T06:52:11Z</time>
      </trkpt>
      <trkpt lat="46.43474" lon="2.59713">
        <ele>194.5</ele>
        <time>2018-10-14T06:52:12Z</time>
      </trkpt>
      <trkpt lat="46.43479" lon="2.59712">
        <ele>194.6</ele>
        <time>2018-10-14T06:52:13Z</time>
      </trkpt>
      <trkpt lat="46.43483" lon="2.5971">
        <ele>194.7</ele>
        <time>2018-10-14T06:52:14Z</time>
      </trkpt>
      <trkpt lat="46.43488" lon="2.59708">
        <ele>194.6</ele>
        <time>2018-10-14T06:52:15Z</time>
      </trkpt>
      <trkpt lat="46.43493" lon="2.59707">
        <ele>194.6</ele>
        <time>2018-10-14T06:52:16Z</time>
      </trkpt>
      <trkpt lat="46.43498" lon="2.59705">
        <ele>194.5</ele>
        <time>2018-10-14T06:52:17Z</time>
      </trkpt>
      <trkpt lat="46.43502" lon="2.59704">
        <ele>194.6</ele>
        <time>2018-10-14T06:52:18Z</time>
      </trkpt>
      <trkpt lat="46.43507" lon="2.59702">
        <ele>194.7</ele>
        <time>2018-10-14T06:52:19Z</time>
      </trkpt>
      <trkpt lat="46.43512" lon="2.59701">
        <ele>194.5</ele>
        <time>2018-10-14T06:52:20Z</time>
      </trkpt>
      <trkpt lat="46.43517" lon="2.59699">
        <ele>194.4</ele>
        <time>2018-10-14T06:52:21Z</time>
      </trkpt>
      <trkpt lat="46.43521" lon="2.59698">
        <ele>194</ele>
        <time>2018-10-14T06:52:22Z</time>
      </trkpt>
      <trkpt lat="46.43526" lon="2.59696">
        <ele>193.6</ele>
        <time>2018-10-14T06:52:23Z</time>
      </trkpt>
      <trkpt lat="46.43531" lon="2.59695">
        <ele>193.4</ele>
        <time>2018-10-14T06:52:24Z</time>
      </trkpt>
      <trkpt lat="46.43535" lon="2.59694">
        <ele>193.3</ele>
        <time>2018-10-14T06:52:25Z</time>
      </trkpt>
      <trkpt lat="46.4354" lon="2.59692">
        <ele>193.2</ele>
        <time>2018-10-14T06:52:26Z</time>
      </trkpt>
      <trkpt lat="46.43544" lon="2.59691">
        <ele>193.7</ele>
        <time>2018-10-14T06:52:27Z</time>
      </trkpt>
      <trkpt lat="46.43549" lon="2.59689">
        <ele>194</ele>
        <time>2018-10-14T06:52:28Z</time>
      </trkpt>
      <trkpt lat="46.43553" lon="2.59688">
        <ele>193.8</ele>
        <time>2018-10-14T06:52:29Z</time>
      </trkpt>
      <trkpt lat="46.43558" lon="2.59686">
        <ele>193.6</ele>
        <time>2018-10-14T06:52:30Z</time>
      </trkpt>
      <trkpt lat="46.43562" lon="2.59684">
        <ele>193.5</ele>
        <time>2018-10-14T06:52:31Z</time>
      </trkpt>
      <trkpt lat="46.43566" lon="2.59683">
        <ele>194.1</ele>
        <time>2018-10-14T06:52:32Z</time>
      </trkpt>
      <trkpt lat="46.43571" lon="2.59681">
        <ele>194.5</ele>
        <time>2018-10-14T06:52:33Z</time>
      </trkpt>
      <trkpt lat="46.4358" lon="2.59678">
        <ele>194.1</ele>
        <time>2018-10-14T06:52:35Z</time>
      </trkpt>
      <trkpt lat="46.43588" lon="2.59676">
        <ele>194.2</ele>
        <time>2018-10-14T06:52:37Z</time>
      </trkpt>
      <trkpt lat="46.43597" lon="2.59673">
        <ele>194.7</ele>
        <time>2018-10-14T06:52:39Z</time>
      </trkpt>
      <trkpt lat="46.43605" lon="2.5967">
        <ele>195</ele>
        <time>2018-10-14T06:52:41Z</time>
      </trkpt>
      <trkpt lat="46.4361" lon="2.59669">
        <ele>195.1</ele>
        <time>2018-10-14T06:52:42Z</time>
      </trkpt>
      <trkpt lat="46.43614" lon="2.59667">
        <ele>195.2</ele>
        <time>2018-10-14T06:52:43Z</time>
      </trkpt>
      <trkpt lat="46.43619" lon="2.59666">
        <ele>195</ele>
        <time>2018-10-14T06:52:44Z</time>
      </trkpt>
      <trkpt lat="46.43624" lon="2.59665">
        <ele>194.9</ele>
        <time>2018-10-14T06:52:45Z</time>
      </trkpt>
      <trkpt lat="46.43629" lon="2.59663">
        <ele>194.5</ele>
        <time>2018-10-14T06:52:46Z</time>
      </trkpt>
      <trkpt lat="46.43634" lon="2.59662">
        <ele>194.2</ele>
        <time>2018-10-14T06:52:47Z</time>
      </trkpt>
      <trkpt lat="46.43639" lon="2.5966">
        <ele>194.1</ele>
        <time>2018-10-14T06:52:48Z</time>
      </trkpt>
      <trkpt lat="46.43644" lon="2.59659">
        <ele>194.1</ele>
        <time>2018-10-14T06:52:49Z</time>
      </trkpt>
      <trkpt lat="46.43648" lon="2.59657">
        <ele>194</ele>
        <time>2018-10-14T06:52:50Z</time>
      </trkpt>
      <trkpt lat="46.43653" lon="2.59656">
        <ele>193.6</ele>
        <time>2018-10-14T06:52:51Z</time>
      </trkpt>
      <trkpt lat="46.43658" lon="2.59655">
        <ele>193.3</ele>
        <time>2018-10-14T06:52:52Z</time>
      </trkpt>
      <trkpt lat="46.43662" lon="2.59653">
        <ele>193.4</ele>
        <time>2018-10-14T06:52:53Z</time>
      </trkpt>
      <trkpt lat="46.43667" lon="2.59652">
        <ele>193.6</ele>
        <time>2018-10-14T06:52:54Z</time>
      </trkpt>
      <trkpt lat="46.43672" lon="2.59651">
        <ele>193.8</ele>
        <time>2018-10-14T06:52:55Z</time>
      </trkpt>
      <trkpt lat="46.43676" lon="2.59649">
        <ele>193.9</ele>
        <time>2018-10-14T06:52:56Z</time>
      </trkpt>
      <trkpt lat="46.43681" lon="2.59648">
        <ele>194</ele>
        <time>2018-10-14T06:52:57Z</time>
      </trkpt>
      <trkpt lat="46.43686" lon="2.59647">
        <ele>194.3</ele>
        <time>2018-10-14T06:52:58Z</time>
      </trkpt>
      <trkpt lat="46.43691" lon="2.59646">
        <ele>194.4</ele>
        <time>2018-10-14T06:52:59Z</time>
      </trkpt>
      <trkpt lat="46.43695" lon="2.59645">
        <ele>194.3</ele>
        <time>2018-10-14T06:53:00Z</time>
      </trkpt>
      <trkpt lat="46.437" lon="2.59643">
        <ele>194.3</ele>
        <time>2018-10-14T06:53:01Z</time>
      </trkpt>
      <trkpt lat="46.43705" lon="2.59642">
        <ele>194.2</ele>
        <time>2018-10-14T06:53:02Z</time>
      </trkpt>
      <trkpt lat="46.4371" lon="2.5964">
        <ele>194</ele>
        <time>2018-10-14T06:53:03Z</time>
      </trkpt>
      <trkpt lat="46.43714" lon="2.59639">
        <ele>193.8</ele>
        <time>2018-10-14T06:53:04Z</time>
      </trkpt>
      <trkpt lat="46.43719" lon="2.59637">
        <ele>194</ele>
        <time>2018-10-14T06:53:05Z</time>
      </trkpt>
      <trkpt lat="46.43724" lon="2.59636">
        <ele>194.2</ele>
        <time>2018-10-14T06:53:06Z</time>
      </trkpt>
      <trkpt lat="46.43729" lon="2.59634">
        <ele>194</ele>
        <time>2018-10-14T06:53:07Z</time>
      </trkpt>
      <trkpt lat="46.43734" lon="2.59632">
        <ele>193.8</ele>
        <time>2018-10-14T06:53:08Z</time>
      </trkpt>
      <trkpt lat="46.43738" lon="2.59631">
        <ele>193.7</ele>
        <time>2018-10-14T06:53:09Z</time>
      </trkpt>
      <trkpt lat="46.43743" lon="2.59629">
        <ele>193.8</ele>
        <time>2018-10-14T06:53:10Z</time>
      </trkpt>
      <trkpt lat="46.43748" lon="2.59628">
        <ele>193.9</ele>
        <time>2018-10-14T06:53:11Z</time>
      </trkpt>
      <trkpt lat="46.43752" lon="2.59626">
        <ele>194.1</ele>
        <time>2018-10-14T06:53:12Z</time>
      </trkpt>
      <trkpt lat="46.43757" lon="2.59625">
        <ele>194.2</ele>
        <time>2018-10-14T06:53:13Z</time>
      </trkpt>
      <trkpt lat="46.43762" lon="2.59624">
        <ele>193.8</ele>
        <time>2018-10-14T06:53:14Z</time>
      </trkpt>
      <trkpt lat="46.43766" lon="2.59622">
        <ele>193.5</ele>
        <time>2018-10-14T06:53:15Z</time>
      </trkpt>
      <trkpt lat="46.43771" lon="2.59621">
        <ele>193.3</ele>
        <time>2018-10-14T06:53:16Z</time>
      </trkpt>
      <trkpt lat="46.43776" lon="2.59619">
        <ele>193.4</ele>
        <time>2018-10-14T06:53:17Z</time>
      </trkpt>
      <trkpt lat="46.43781" lon="2.59618">
        <ele>193.5</ele>
        <time>2018-10-14T06:53:18Z</time>
      </trkpt>
      <trkpt lat="46.43786" lon="2.59616">
        <ele>193.3</ele>
        <time>2018-10-14T06:53:19Z</time>
      </trkpt>
      <trkpt lat="46.4379" lon="2.59615">
        <ele>193.1</ele>
        <time>2018-10-14T06:53:20Z</time>
      </trkpt>
      <trkpt lat="46.43795" lon="2.59613">
        <ele>193</ele>
        <time>2018-10-14T06:53:21Z</time>
      </trkpt>
      <trkpt lat="46.438" lon="2.59612">
        <ele>193.1</ele>
        <time>2018-10-14T06:53:22Z</time>
      </trkpt>
      <trkpt lat="46.43805" lon="2.5961">
        <ele>193.1</ele>
        <time>2018-10-14T06:53:23Z</time>
      </trkpt>
      <trkpt lat="46.4381" lon="2.59609">
        <ele>193.1</ele>
        <time>2018-10-14T06:53:24Z</time>
      </trkpt>
      <trkpt lat="46.43815" lon="2.59607">
        <ele>193.1</ele>
        <time>2018-10-14T06:53:25Z</time>
      </trkpt>
      <trkpt lat="46.43819" lon="2.59606">
        <ele>193.4</ele>
        <time>2018-10-14T06:53:26Z</time>
      </trkpt>
      <trkpt lat="46.43824" lon="2.59604">
        <ele>193.6</ele>
        <time>2018-10-14T06:53:27Z</time>
      </trkpt>
      <trkpt lat="46.43829" lon="2.59603">
        <ele>193.8</ele>
        <time>2018-10-14T06:53:28Z</time>
      </trkpt>
      <trkpt lat="46.43834" lon="2.59601">
        <ele>193.7</ele>
        <time>2018-10-14T06:53:29Z</time>
      </trkpt>
      <trkpt lat="46.43839" lon="2.596">
        <ele>193.7</ele>
        <time>2018-10-14T06:53:30Z</time>
      </trkpt>
      <trkpt lat="46.43844" lon="2.59598">
        <ele>193.4</ele>
        <time>2018-10-14T06:53:31Z</time>
      </trkpt>
      <trkpt lat="46.43848" lon="2.59596">
        <ele>193.2</ele>
        <time>2018-10-14T06:53:32Z</time>
      </trkpt>
      <trkpt lat="46.43853" lon="2.59595">
        <ele>193</ele>
        <time>2018-10-14T06:53:33Z</time>
      </trkpt>
      <trkpt lat="46.43858" lon="2.59594">
        <ele>193.7</ele>
        <time>2018-10-14T06:53:34Z</time>
      </trkpt>
      <trkpt lat="46.43863" lon="2.59592">
        <ele>194.2</ele>
        <time>2018-10-14T06:53:35Z</time>
      </trkpt>
      <trkpt lat="46.43868" lon="2.59591">
        <ele>193.8</ele>
        <time>2018-10-14T06:53:36Z</time>
      </trkpt>
      <trkpt lat="46.43872" lon="2.59589">
        <ele>193.5</ele>
        <time>2018-10-14T06:53:37Z</time>
      </trkpt>
      <trkpt lat="46.43877" lon="2.59588">
        <ele>193.3</ele>
        <time>2018-10-14T06:53:38Z</time>
      </trkpt>
      <trkpt lat="46.43882" lon="2.59586">
        <ele>193.2</ele>
        <time>2018-10-14T06:53:39Z</time>
      </trkpt>
      <trkpt lat="46.43887" lon="2.59585">
        <ele>193.1</ele>
        <time>2018-10-14T06:53:40Z</time>
      </trkpt>
      <trkpt lat="46.43891" lon="2.59583">
        <ele>193.1</ele>
        <time>2018-10-14T06:53:41Z</time>
      </trkpt>
      <trkpt lat="46.43896" lon="2.59582">
        <ele>193</ele>
        <time>2018-10-14T06:53:42Z</time>
      </trkpt>
      <trkpt lat="46.43901" lon="2.5958">
        <ele>193.1</ele>
        <time>2018-10-14T06:53:43Z</time>
      </trkpt>
      <trkpt lat="46.43905" lon="2.59578">
        <ele>193.2</ele>
        <time>2018-10-14T06:53:44Z</time>
      </trkpt>
      <trkpt lat="46.4391" lon="2.59577">
        <ele>193.2</ele>
        <time>2018-10-14T06:53:45Z</time>
      </trkpt>
      <trkpt lat="46.43915" lon="2.59575">
        <ele>193.2</ele>
        <time>2018-10-14T06:53:46Z</time>
      </trkpt>
      <trkpt lat="46.4392" lon="2.59574">
        <ele>193.3</ele>
        <time>2018-10-14T06:53:47Z</time>
      </trkpt>
      <trkpt lat="46.43924" lon="2.59573">
        <ele>192.9</ele>
        <time>2018-10-14T06:53:48Z</time>
      </trkpt>
      <trkpt lat="46.43929" lon="2.59571">
        <ele>192.6</ele>
        <time>2018-10-14T06:53:49Z</time>
      </trkpt>
      <trkpt lat="46.43934" lon="2.5957">
        <ele>192.7</ele>
        <time>2018-10-14T06:53:50Z</time>
      </trkpt>
      <trkpt lat="46.43939" lon="2.59568">
        <ele>192.8</ele>
        <time>2018-10-14T06:53:51Z</time>
      </trkpt>
      <trkpt lat="46.43943" lon="2.59567">
        <ele>193</ele>
        <time>2018-10-14T06:53:52Z</time>
      </trkpt>
      <trkpt lat="46.43948" lon="2.59565">
        <ele>193.2</ele>
        <time>2018-10-14T06:53:53Z</time>
      </trkpt>
      <trkpt lat="46.43953" lon="2.59564">
        <ele>193.3</ele>
        <time>2018-10-14T06:53:54Z</time>
      </trkpt>
      <trkpt lat="46.43958" lon="2.59562">
        <ele>193.3</ele>
        <time>2018-10-14T06:53:55Z</time>
      </trkpt>
      <trkpt lat="46.43963" lon="2.59561">
        <ele>193.4</ele>
        <time>2018-10-14T06:53:56Z</time>
      </trkpt>
      <trkpt lat="46.43967" lon="2.5956">
        <ele>193.3</ele>
        <time>2018-10-14T06:53:57Z</time>
      </trkpt>
      <trkpt lat="46.43972" lon="2.59558">
        <ele>193.3</ele>
        <time>2018-10-14T06:53:58Z</time>
      </trkpt>
      <trkpt lat="46.43977" lon="2.59556">
        <ele>193.2</ele>
        <time>2018-10-14T06:53:59Z</time>
      </trkpt>
      <trkpt lat="46.43982" lon="2.59555">
        <ele>193</ele>
        <time>2018-10-14T06:54:00Z</time>
      </trkpt>
      <trkpt lat="46.43987" lon="2.59553">
        <ele>192.9</ele>
        <time>2018-10-14T06:54:01Z</time>
      </trkpt>
      <trkpt lat="46.43992" lon="2.59552">
        <ele>192.8</ele>
        <time>2018-10-14T06:54:02Z</time>
      </trkpt>
      <trkpt lat="46.43996" lon="2.5955">
        <ele>192.7</ele>
        <time>2018-10-14T06:54:03Z</time>
      </trkpt>
      <trkpt lat="46.44001" lon="2.59549">
        <ele>192.7</ele>
        <time>2018-10-14T06:54:04Z</time>
      </trkpt>
      <trkpt lat="46.44006" lon="2.59548">
        <ele>192.7</ele>
        <time>2018-10-14T06:54:05Z</time>
      </trkpt>
      <trkpt lat="46.44011" lon="2.59546">
        <ele>192.7</ele>
        <time>2018-10-14T06:54:06Z</time>
      </trkpt>
      <trkpt lat="46.44016" lon="2.59544">
        <ele>192.8</ele>
        <time>2018-10-14T06:54:07Z</time>
      </trkpt>
      <trkpt lat="46.4402" lon="2.59543">
        <ele>192.8</ele>
        <time>2018-10-14T06:54:08Z</time>
      </trkpt>
      <trkpt lat="46.44025" lon="2.59541">
        <ele>193</ele>
        <time>2018-10-14T06:54:09Z</time>
      </trkpt>
      <trkpt lat="46.4403" lon="2.5954">
        <ele>193.2</ele>
        <time>2018-10-14T06:54:10Z</time>
      </trkpt>
      <trkpt lat="46.44035" lon="2.59538">
        <ele>193.2</ele>
        <time>2018-10-14T06:54:11Z</time>
      </trkpt>
      <trkpt lat="46.4404" lon="2.59537">
        <ele>193.3</ele>
        <time>2018-10-14T06:54:12Z</time>
      </trkpt>
      <trkpt lat="46.44045" lon="2.59535">
        <ele>193.3</ele>
        <time>2018-10-14T06:54:13Z</time>
      </trkpt>
      <trkpt lat="46.4405" lon="2.59534">
        <ele>193.4</ele>
        <time>2018-10-14T06:54:14Z</time>
      </trkpt>
      <trkpt lat="46.44055" lon="2.59532">
        <ele>193.4</ele>
        <time>2018-10-14T06:54:15Z</time>
      </trkpt>
      <trkpt lat="46.44059" lon="2.59531">
        <ele>193.2</ele>
        <time>2018-10-14T06:54:16Z</time>
      </trkpt>
      <trkpt lat="46.44064" lon="2.59529">
        <ele>192.9</ele>
        <time>2018-10-14T06:54:17Z</time>
      </trkpt>
      <trkpt lat="46.44069" lon="2.59528">
        <ele>192.8</ele>
        <time>2018-10-14T06:54:18Z</time>
      </trkpt>
      <trkpt lat="46.44074" lon="2.59526">
        <ele>193</ele>
        <time>2018-10-14T06:54:19Z</time>
      </trkpt>
      <trkpt lat="46.44079" lon="2.59525">
        <ele>193.3</ele>
        <time>2018-10-14T06:54:20Z</time>
      </trkpt>
      <trkpt lat="46.44084" lon="2.59523">
        <ele>193.6</ele>
        <time>2018-10-14T06:54:21Z</time>
      </trkpt>
      <trkpt lat="46.44088" lon="2.59521">
        <ele>193.8</ele>
        <time>2018-10-14T06:54:22Z</time>
      </trkpt>
      <trkpt lat="46.44093" lon="2.5952">
        <ele>193.5</ele>
        <time>2018-10-14T06:54:23Z</time>
      </trkpt>
      <trkpt lat="46.44098" lon="2.59519">
        <ele>193.3</ele>
        <time>2018-10-14T06:54:24Z</time>
      </trkpt>
      <trkpt lat="46.44102" lon="2.59517">
        <ele>193.2</ele>
        <time>2018-10-14T06:54:25Z</time>
      </trkpt>
      <trkpt lat="46.44107" lon="2.59516">
        <ele>193.2</ele>
        <time>2018-10-14T06:54:26Z</time>
      </trkpt>
      <trkpt lat="46.44112" lon="2.59515">
        <ele>193.3</ele>
        <time>2018-10-14T06:54:27Z</time>
      </trkpt>
      <trkpt lat="46.44116" lon="2.59513">
        <ele>193.2</ele>
        <time>2018-10-14T06:54:28Z</time>
      </trkpt>
      <trkpt lat="46.44121" lon="2.59511">
        <ele>193.2</ele>
        <time>2018-10-14T06:54:29Z</time>
      </trkpt>
      <trkpt lat="46.44125" lon="2.5951">
        <ele>193.4</ele>
        <time>2018-10-14T06:54:30Z</time>
      </trkpt>
      <trkpt lat="46.4413" lon="2.59509">
        <ele>193.5</ele>
        <time>2018-10-14T06:54:31Z</time>
      </trkpt>
      <trkpt lat="46.44134" lon="2.59507">
        <ele>193.6</ele>
        <time>2018-10-14T06:54:32Z</time>
      </trkpt>
      <trkpt lat="46.44139" lon="2.59506">
        <ele>193.5</ele>
        <time>2018-10-14T06:54:33Z</time>
      </trkpt>
      <trkpt lat="46.44143" lon="2.59505">
        <ele>193.5</ele>
        <time>2018-10-14T06:54:34Z</time>
      </trkpt>
      <trkpt lat="46.44148" lon="2.59504">
        <ele>193.4</ele>
        <time>2018-10-14T06:54:35Z</time>
      </trkpt>
      <trkpt lat="46.44152" lon="2.59502">
        <ele>193.3</ele>
        <time>2018-10-14T06:54:36Z</time>
      </trkpt>
      <trkpt lat="46.44157" lon="2.59501">
        <ele>193.3</ele>
        <time>2018-10-14T06:54:37Z</time>
      </trkpt>
      <trkpt lat="46.44161" lon="2.59499">
        <ele>193.1</ele>
        <time>2018-10-14T06:54:38Z</time>
      </trkpt>
      <trkpt lat="46.44166" lon="2.59498">
        <ele>193.1</ele>
        <time>2018-10-14T06:54:39Z</time>
      </trkpt>
      <trkpt lat="46.4417" lon="2.59497">
        <ele>193.4</ele>
        <time>2018-10-14T06:54:40Z</time>
      </trkpt>
      <trkpt lat="46.44175" lon="2.59495">
        <ele>193.6</ele>
        <time>2018-10-14T06:54:41Z</time>
      </trkpt>
      <trkpt lat="46.4418" lon="2.59494">
        <ele>193.7</ele>
        <time>2018-10-14T06:54:42Z</time>
      </trkpt>
      <trkpt lat="46.44184" lon="2.59493">
        <ele>193.8</ele>
        <time>2018-10-14T06:54:43Z</time>
      </trkpt>
      <trkpt lat="46.44189" lon="2.59491">
        <ele>193.8</ele>
        <time>2018-10-14T06:54:44Z</time>
      </trkpt>
      <trkpt lat="46.44194" lon="2.5949">
        <ele>193.6</ele>
        <time>2018-10-14T06:54:45Z</time>
      </trkpt>
      <trkpt lat="46.44199" lon="2.59488">
        <ele>193.4</ele>
        <time>2018-10-14T06:54:46Z</time>
      </trkpt>
      <trkpt lat="46.44203" lon="2.59487">
        <ele>193.7</ele>
        <time>2018-10-14T06:54:47Z</time>
      </trkpt>
      <trkpt lat="46.44208" lon="2.59485">
        <ele>193.9</ele>
        <time>2018-10-14T06:54:48Z</time>
      </trkpt>
      <trkpt lat="46.44213" lon="2.59484">
        <ele>193.5</ele>
        <time>2018-10-14T06:54:49Z</time>
      </trkpt>
      <trkpt lat="46.44218" lon="2.59483">
        <ele>193.2</ele>
        <time>2018-10-14T06:54:50Z</time>
      </trkpt>
      <trkpt lat="46.44222" lon="2.59481">
        <ele>193</ele>
        <time>2018-10-14T06:54:51Z</time>
      </trkpt>
      <trkpt lat="46.44227" lon="2.5948">
        <ele>192.9</ele>
        <time>2018-10-14T06:54:52Z</time>
      </trkpt>
      <trkpt lat="46.44232" lon="2.59478">
        <ele>192.8</ele>
        <time>2018-10-14T06:54:53Z</time>
      </trkpt>
      <trkpt lat="46.44236" lon="2.59477">
        <ele>193.2</ele>
        <time>2018-10-14T06:54:54Z</time>
      </trkpt>
      <trkpt lat="46.44241" lon="2.59476">
        <ele>193.4</ele>
        <time>2018-10-14T06:54:55Z</time>
      </trkpt>
      <trkpt lat="46.44246" lon="2.59474">
        <ele>193.6</ele>
        <time>2018-10-14T06:54:56Z</time>
      </trkpt>
      <trkpt lat="46.44251" lon="2.59473">
        <ele>193.5</ele>
        <time>2018-10-14T06:54:57Z</time>
      </trkpt>
      <trkpt lat="46.44255" lon="2.59472">
        <ele>193.5</ele>
        <time>2018-10-14T06:54:58Z</time>
      </trkpt>
      <trkpt lat="46.4426" lon="2.5947">
        <ele>193.4</ele>
        <time>2018-10-14T06:54:59Z</time>
      </trkpt>
      <trkpt lat="46.44264" lon="2.59469">
        <ele>193.3</ele>
        <time>2018-10-14T06:55:00Z</time>
      </trkpt>
      <trkpt lat="46.44269" lon="2.59468">
        <ele>193.5</ele>
        <time>2018-10-14T06:55:01Z</time>
      </trkpt>
      <trkpt lat="46.44274" lon="2.59466">
        <ele>193.7</ele>
        <time>2018-10-14T06:55:02Z</time>
      </trkpt>
      <trkpt lat="46.44279" lon="2.59465">
        <ele>193.9</ele>
        <time>2018-10-14T06:55:03Z</time>
      </trkpt>
      <trkpt lat="46.44284" lon="2.59463">
        <ele>193.5</ele>
        <time>2018-10-14T06:55:04Z</time>
      </trkpt>
      <trkpt lat="46.44288" lon="2.59462">
        <ele>193.1</ele>
        <time>2018-10-14T06:55:05Z</time>
      </trkpt>
      <trkpt lat="46.44293" lon="2.59461">
        <ele>193.2</ele>
        <time>2018-10-14T06:55:06Z</time>
      </trkpt>
      <trkpt lat="46.44298" lon="2.59459">
        <ele>193.2</ele>
        <time>2018-10-14T06:55:07Z</time>
      </trkpt>
      <trkpt lat="46.44303" lon="2.59458">
        <ele>193.1</ele>
        <time>2018-10-14T06:55:08Z</time>
      </trkpt>
      <trkpt lat="46.44307" lon="2.59456">
        <ele>192.9</ele>
        <time>2018-10-14T06:55:09Z</time>
      </trkpt>
      <trkpt lat="46.44312" lon="2.59455">
        <ele>192.9</ele>
        <time>2018-10-14T06:55:10Z</time>
      </trkpt>
      <trkpt lat="46.44317" lon="2.59453">
        <ele>192.9</ele>
        <time>2018-10-14T06:55:11Z</time>
      </trkpt>
      <trkpt lat="46.44321" lon="2.59452">
        <ele>193</ele>
        <time>2018-10-14T06:55:12Z</time>
      </trkpt>
      <trkpt lat="46.44326" lon="2.59451">
        <ele>193.4</ele>
        <time>2018-10-14T06:55:13Z</time>
      </trkpt>
      <trkpt lat="46.44331" lon="2.59449">
        <ele>193.7</ele>
        <time>2018-10-14T06:55:14Z</time>
      </trkpt>
      <trkpt lat="46.44335" lon="2.59448">
        <ele>193.7</ele>
        <time>2018-10-14T06:55:15Z</time>
      </trkpt>
      <trkpt lat="46.4434" lon="2.59446">
        <ele>193.7</ele>
        <time>2018-10-14T06:55:16Z</time>
      </trkpt>
      <trkpt lat="46.44345" lon="2.59445">
        <ele>193.6</ele>
        <time>2018-10-14T06:55:17Z</time>
      </trkpt>
      <trkpt lat="46.44349" lon="2.59444">
        <ele>193.6</ele>
        <time>2018-10-14T06:55:18Z</time>
      </trkpt>
      <trkpt lat="46.44354" lon="2.59442">
        <ele>193.5</ele>
        <time>2018-10-14T06:55:19Z</time>
      </trkpt>
      <trkpt lat="46.44359" lon="2.59441">
        <ele>193.5</ele>
        <time>2018-10-14T06:55:20Z</time>
      </trkpt>
      <trkpt lat="46.44363" lon="2.5944">
        <ele>193.5</ele>
        <time>2018-10-14T06:55:21Z</time>
      </trkpt>
      <trkpt lat="46.44368" lon="2.59438">
        <ele>193.5</ele>
        <time>2018-10-14T06:55:22Z</time>
      </trkpt>
      <trkpt lat="46.44373" lon="2.59437">
        <ele>193.4</ele>
        <time>2018-10-14T06:55:23Z</time>
      </trkpt>
      <trkpt lat="46.44377" lon="2.59436">
        <ele>193.3</ele>
        <time>2018-10-14T06:55:24Z</time>
      </trkpt>
      <trkpt lat="46.44382" lon="2.59434">
        <ele>193.7</ele>
        <time>2018-10-14T06:55:25Z</time>
      </trkpt>
      <trkpt lat="46.44387" lon="2.59433">
        <ele>193.9</ele>
        <time>2018-10-14T06:55:26Z</time>
      </trkpt>
      <trkpt lat="46.44392" lon="2.59431">
        <ele>193.9</ele>
        <time>2018-10-14T06:55:27Z</time>
      </trkpt>
      <trkpt lat="46.44397" lon="2.5943">
        <ele>193.9</ele>
        <time>2018-10-14T06:55:28Z</time>
      </trkpt>
      <trkpt lat="46.44401" lon="2.59428">
        <ele>193.9</ele>
        <time>2018-10-14T06:55:29Z</time>
      </trkpt>
      <trkpt lat="46.44406" lon="2.59427">
        <ele>194</ele>
        <time>2018-10-14T06:55:30Z</time>
      </trkpt>
      <trkpt lat="46.44411" lon="2.59425">
        <ele>194.2</ele>
        <time>2018-10-14T06:55:31Z</time>
      </trkpt>
      <trkpt lat="46.44415" lon="2.59424">
        <ele>193.8</ele>
        <time>2018-10-14T06:55:32Z</time>
      </trkpt>
      <trkpt lat="46.4442" lon="2.59423">
        <ele>193.5</ele>
        <time>2018-10-14T06:55:33Z</time>
      </trkpt>
      <trkpt lat="46.44425" lon="2.59421">
        <ele>193.8</ele>
        <time>2018-10-14T06:55:34Z</time>
      </trkpt>
      <trkpt lat="46.4443" lon="2.5942">
        <ele>194.1</ele>
        <time>2018-10-14T06:55:35Z</time>
      </trkpt>
      <trkpt lat="46.44434" lon="2.59418">
        <ele>194.2</ele>
        <time>2018-10-14T06:55:36Z</time>
      </trkpt>
      <trkpt lat="46.44439" lon="2.59417">
        <ele>194.2</ele>
        <time>2018-10-14T06:55:37Z</time>
      </trkpt>
      <trkpt lat="46.44444" lon="2.59415">
        <ele>194.2</ele>
        <time>2018-10-14T06:55:38Z</time>
      </trkpt>
      <trkpt lat="46.44449" lon="2.59414">
        <ele>194.3</ele>
        <time>2018-10-14T06:55:39Z</time>
      </trkpt>
      <trkpt lat="46.44453" lon="2.59412">
        <ele>194.3</ele>
        <time>2018-10-14T06:55:40Z</time>
      </trkpt>
      <trkpt lat="46.44458" lon="2.59411">
        <ele>194.4</ele>
        <time>2018-10-14T06:55:41Z</time>
      </trkpt>
      <trkpt lat="46.44463" lon="2.59409">
        <ele>194.1</ele>
        <time>2018-10-14T06:55:42Z</time>
      </trkpt>
      <trkpt lat="46.44467" lon="2.59408">
        <ele>193.8</ele>
        <time>2018-10-14T06:55:43Z</time>
      </trkpt>
      <trkpt lat="46.44472" lon="2.59406">
        <ele>193.7</ele>
        <time>2018-10-14T06:55:44Z</time>
      </trkpt>
      <trkpt lat="46.44477" lon="2.59405">
        <ele>193.7</ele>
        <time>2018-10-14T06:55:45Z</time>
      </trkpt>
      <trkpt lat="46.44481" lon="2.59404">
        <ele>193.3</ele>
        <time>2018-10-14T06:55:46Z</time>
      </trkpt>
      <trkpt lat="46.44486" lon="2.59402">
        <ele>193.1</ele>
        <time>2018-10-14T06:55:47Z</time>
      </trkpt>
      <trkpt lat="46.44491" lon="2.594">
        <ele>192.9</ele>
        <time>2018-10-14T06:55:48Z</time>
      </trkpt>
      <trkpt lat="46.44495" lon="2.59399">
        <ele>193</ele>
        <time>2018-10-14T06:55:49Z</time>
      </trkpt>
      <trkpt lat="46.445" lon="2.59398">
        <ele>193.1</ele>
        <time>2018-10-14T06:55:50Z</time>
      </trkpt>
      <trkpt lat="46.44505" lon="2.59396">
        <ele>193.2</ele>
        <time>2018-10-14T06:55:51Z</time>
      </trkpt>
      <trkpt lat="46.44509" lon="2.59395">
        <ele>193.2</ele>
        <time>2018-10-14T06:55:52Z</time>
      </trkpt>
      <trkpt lat="46.44514" lon="2.59393">
        <ele>193.3</ele>
        <time>2018-10-14T06:55:53Z</time>
      </trkpt>
      <trkpt lat="46.44518" lon="2.59392">
        <ele>193.6</ele>
        <time>2018-10-14T06:55:54Z</time>
      </trkpt>
      <trkpt lat="46.44523" lon="2.5939">
        <ele>193.8</ele>
        <time>2018-10-14T06:55:55Z</time>
      </trkpt>
      <trkpt lat="46.44528" lon="2.59389">
        <ele>193.3</ele>
        <time>2018-10-14T06:55:56Z</time>
      </trkpt>
      <trkpt lat="46.44532" lon="2.59387">
        <ele>193</ele>
        <time>2018-10-14T06:55:57Z</time>
      </trkpt>
      <trkpt lat="46.44537" lon="2.59386">
        <ele>192.9</ele>
        <time>2018-10-14T06:55:58Z</time>
      </trkpt>
      <trkpt lat="46.44542" lon="2.59384">
        <ele>192.8</ele>
        <time>2018-10-14T06:55:59Z</time>
      </trkpt>
      <trkpt lat="46.44546" lon="2.59383">
        <ele>192.8</ele>
        <time>2018-10-14T06:56:00Z</time>
      </trkpt>
      <trkpt lat="46.44551" lon="2.59382">
        <ele>192.9</ele>
        <time>2018-10-14T06:56:01Z</time>
      </trkpt>
      <trkpt lat="46.44555" lon="2.5938">
        <ele>193</ele>
        <time>2018-10-14T06:56:02Z</time>
      </trkpt>
      <trkpt lat="46.4456" lon="2.59379">
        <ele>193.1</ele>
        <time>2018-10-14T06:56:03Z</time>
      </trkpt>
      <trkpt lat="46.44564" lon="2.59378">
        <ele>193.1</ele>
        <time>2018-10-14T06:56:04Z</time>
      </trkpt>
      <trkpt lat="46.44569" lon="2.59377">
        <ele>192.9</ele>
        <time>2018-10-14T06:56:05Z</time>
      </trkpt>
      <trkpt lat="46.44574" lon="2.59375">
        <ele>192.7</ele>
        <time>2018-10-14T06:56:06Z</time>
      </trkpt>
      <trkpt lat="46.44578" lon="2.59374">
        <ele>192.6</ele>
        <time>2018-10-14T06:56:07Z</time>
      </trkpt>
      <trkpt lat="46.44583" lon="2.59372">
        <ele>192.9</ele>
        <time>2018-10-14T06:56:08Z</time>
      </trkpt>
      <trkpt lat="46.44587" lon="2.59371">
        <ele>193.1</ele>
        <time>2018-10-14T06:56:09Z</time>
      </trkpt>
      <trkpt lat="46.44592" lon="2.59369">
        <ele>193.4</ele>
        <time>2018-10-14T06:56:10Z</time>
      </trkpt>
      <trkpt lat="46.44596" lon="2.59368">
        <ele>193.6</ele>
        <time>2018-10-14T06:56:11Z</time>
      </trkpt>
      <trkpt lat="46.44601" lon="2.59366">
        <ele>193.4</ele>
        <time>2018-10-14T06:56:12Z</time>
      </trkpt>
      <trkpt lat="46.44605" lon="2.59365">
        <ele>193.3</ele>
        <time>2018-10-14T06:56:13Z</time>
      </trkpt>
      <trkpt lat="46.4461" lon="2.59364">
        <ele>193.2</ele>
        <time>2018-10-14T06:56:14Z</time>
      </trkpt>
      <trkpt lat="46.44614" lon="2.59362">
        <ele>193</ele>
        <time>2018-10-14T06:56:15Z</time>
      </trkpt>
      <trkpt lat="46.44619" lon="2.59361">
        <ele>192.9</ele>
        <time>2018-10-14T06:56:16Z</time>
      </trkpt>
      <trkpt lat="46.44623" lon="2.59359">
        <ele>193.2</ele>
        <time>2018-10-14T06:56:17Z</time>
      </trkpt>
      <trkpt lat="46.44628" lon="2.59358">
        <ele>193.5</ele>
        <time>2018-10-14T06:56:18Z</time>
      </trkpt>
      <trkpt lat="46.44632" lon="2.59357">
        <ele>193.7</ele>
        <time>2018-10-14T06:56:19Z</time>
      </trkpt>
      <trkpt lat="46.44637" lon="2.59355">
        <ele>193.5</ele>
        <time>2018-10-14T06:56:20Z</time>
      </trkpt>
      <trkpt lat="46.44641" lon="2.59354">
        <ele>193.4</ele>
        <time>2018-10-14T06:56:21Z</time>
      </trkpt>
      <trkpt lat="46.4465" lon="2.59351">
        <ele>193.3</ele>
        <time>2018-10-14T06:56:23Z</time>
      </trkpt>
      <trkpt lat="46.44654" lon="2.5935">
        <ele>193.3</ele>
        <time>2018-10-14T06:56:24Z</time>
      </trkpt>
      <trkpt lat="46.44659" lon="2.59348">
        <ele>193.3</ele>
        <time>2018-10-14T06:56:25Z</time>
      </trkpt>
      <trkpt lat="46.44663" lon="2.59347">
        <ele>193.3</ele>
        <time>2018-10-14T06:56:26Z</time>
      </trkpt>
      <trkpt lat="46.44668" lon="2.59345">
        <ele>193.3</ele>
        <time>2018-10-14T06:56:27Z</time>
      </trkpt>
      <trkpt lat="46.44672" lon="2.59344">
        <ele>193.2</ele>
        <time>2018-10-14T06:56:28Z</time>
      </trkpt>
      <trkpt lat="46.44677" lon="2.59343">
        <ele>193.4</ele>
        <time>2018-10-14T06:56:29Z</time>
      </trkpt>
      <trkpt lat="46.44681" lon="2.59341">
        <ele>193.6</ele>
        <time>2018-10-14T06:56:30Z</time>
      </trkpt>
      <trkpt lat="46.44686" lon="2.5934">
        <ele>193.4</ele>
        <time>2018-10-14T06:56:31Z</time>
      </trkpt>
      <trkpt lat="46.4469" lon="2.59339">
        <ele>193.2</ele>
        <time>2018-10-14T06:56:32Z</time>
      </trkpt>
      <trkpt lat="46.44699" lon="2.59335">
        <ele>192.9</ele>
        <time>2018-10-14T06:56:34Z</time>
      </trkpt>
      <trkpt lat="46.44708" lon="2.59333">
        <ele>192.5</ele>
        <time>2018-10-14T06:56:36Z</time>
      </trkpt>
      <trkpt lat="46.44716" lon="2.5933">
        <ele>192.3</ele>
        <time>2018-10-14T06:56:38Z</time>
      </trkpt>
      <trkpt lat="46.44725" lon="2.59327">
        <ele>193.1</ele>
        <time>2018-10-14T06:56:40Z</time>
      </trkpt>
      <trkpt lat="46.44733" lon="2.59324">
        <ele>193.3</ele>
        <time>2018-10-14T06:56:42Z</time>
      </trkpt>
      <trkpt lat="46.44742" lon="2.59322">
        <ele>192.6</ele>
        <time>2018-10-14T06:56:44Z</time>
      </trkpt>
      <trkpt lat="46.44751" lon="2.5932">
        <ele>192.5</ele>
        <time>2018-10-14T06:56:46Z</time>
      </trkpt>
      <trkpt lat="46.44759" lon="2.59317">
        <ele>192.9</ele>
        <time>2018-10-14T06:56:48Z</time>
      </trkpt>
      <trkpt lat="46.44768" lon="2.59314">
        <ele>193.2</ele>
        <time>2018-10-14T06:56:50Z</time>
      </trkpt>
      <trkpt lat="46.44776" lon="2.59311">
        <ele>193.1</ele>
        <time>2018-10-14T06:56:52Z</time>
      </trkpt>
      <trkpt lat="46.4478" lon="2.5931">
        <ele>192.6</ele>
        <time>2018-10-14T06:56:53Z</time>
      </trkpt>
      <trkpt lat="46.44785" lon="2.59309">
        <ele>192.3</ele>
        <time>2018-10-14T06:56:54Z</time>
      </trkpt>
      <trkpt lat="46.44789" lon="2.59307">
        <ele>192.8</ele>
        <time>2018-10-14T06:56:55Z</time>
      </trkpt>
      <trkpt lat="46.44794" lon="2.59306">
        <ele>193.2</ele>
        <time>2018-10-14T06:56:56Z</time>
      </trkpt>
      <trkpt lat="46.44798" lon="2.59305">
        <ele>193.5</ele>
        <time>2018-10-14T06:56:57Z</time>
      </trkpt>
      <trkpt lat="46.44807" lon="2.59302">
        <ele>193.4</ele>
        <time>2018-10-14T06:56:59Z</time>
      </trkpt>
      <trkpt lat="46.44814" lon="2.59299">
        <ele>193.8</ele>
        <time>2018-10-14T06:57:01Z</time>
      </trkpt>
      <trkpt lat="46.44821" lon="2.59297">
        <ele>193.7</ele>
        <time>2018-10-14T06:57:03Z</time>
      </trkpt>
      <trkpt lat="46.44829" lon="2.59294">
        <ele>193.9</ele>
        <time>2018-10-14T06:57:05Z</time>
      </trkpt>
      <trkpt lat="46.44836" lon="2.59291">
        <ele>193.6</ele>
        <time>2018-10-14T06:57:07Z</time>
      </trkpt>
      <trkpt lat="46.44844" lon="2.59288">
        <ele>193.3</ele>
        <time>2018-10-14T06:57:09Z</time>
      </trkpt>
      <trkpt lat="46.44851" lon="2.59285">
        <ele>193.3</ele>
        <time>2018-10-14T06:57:11Z</time>
      </trkpt>
      <trkpt lat="46.44857" lon="2.59284">
        <ele>193.6</ele>
        <time>2018-10-14T06:57:13Z</time>
      </trkpt>
      <trkpt lat="46.44863" lon="2.59283">
        <ele>193.4</ele>
        <time>2018-10-14T06:57:15Z</time>
      </trkpt>
      <trkpt lat="46.4487" lon="2.59281">
        <ele>193.3</ele>
        <time>2018-10-14T06:57:17Z</time>
      </trkpt>
      <trkpt lat="46.44874" lon="2.5928">
        <ele>193.2</ele>
        <time>2018-10-14T06:57:18Z</time>
      </trkpt>
      <trkpt lat="46.44884" lon="2.59277">
        <ele>193.2</ele>
        <time>2018-10-14T06:57:21Z</time>
      </trkpt>
      <trkpt lat="46.44889" lon="2.59275">
        <ele>192.8</ele>
        <time>2018-10-14T06:57:23Z</time>
      </trkpt>
      <trkpt lat="46.44894" lon="2.5927">
        <ele>192.9</ele>
        <time>2018-10-14T06:57:25Z</time>
      </trkpt>
      <trkpt lat="46.44897" lon="2.59261">
        <ele>193.6</ele>
        <time>2018-10-14T06:57:27Z</time>
      </trkpt>
      <trkpt lat="46.44896" lon="2.59252">
        <ele>193.4</ele>
        <time>2018-10-14T06:57:29Z</time>
      </trkpt>
      <trkpt lat="46.44895" lon="2.59242">
        <ele>193.5</ele>
        <time>2018-10-14T06:57:31Z</time>
      </trkpt>
      <trkpt lat="46.44894" lon="2.59233">
        <ele>194.1</ele>
        <time>2018-10-14T06:57:33Z</time>
      </trkpt>
      <trkpt lat="46.44893" lon="2.59223">
        <ele>194.7</ele>
        <time>2018-10-14T06:57:35Z</time>
      </trkpt>
      <trkpt lat="46.44891" lon="2.59213">
        <ele>194</ele>
        <time>2018-10-14T06:57:37Z</time>
      </trkpt>
      <trkpt lat="46.4489" lon="2.59201">
        <ele>193.6</ele>
        <time>2018-10-14T06:57:39Z</time>
      </trkpt>
      <trkpt lat="46.44888" lon="2.59189">
        <ele>193</ele>
        <time>2018-10-14T06:57:41Z</time>
      </trkpt>
      <trkpt lat="46.44887" lon="2.59182">
        <ele>192.7</ele>
        <time>2018-10-14T06:57:42Z</time>
      </trkpt>
      <trkpt lat="46.44886" lon="2.59175">
        <ele>192.9</ele>
        <time>2018-10-14T06:57:43Z</time>
      </trkpt>
      <trkpt lat="46.44885" lon="2.59167">
        <ele>193.1</ele>
        <time>2018-10-14T06:57:44Z</time>
      </trkpt>
      <trkpt lat="46.44884" lon="2.5916">
        <ele>192.7</ele>
        <time>2018-10-14T06:57:45Z</time>
      </trkpt>
      <trkpt lat="46.44883" lon="2.59152">
        <ele>192.4</ele>
        <time>2018-10-14T06:57:46Z</time>
      </trkpt>
      <trkpt lat="46.44882" lon="2.59144">
        <ele>191.9</ele>
        <time>2018-10-14T06:57:47Z</time>
      </trkpt>
      <trkpt lat="46.44881" lon="2.59136">
        <ele>191.6</ele>
        <time>2018-10-14T06:57:48Z</time>
      </trkpt>
      <trkpt lat="46.4488" lon="2.59128">
        <ele>191.4</ele>
        <time>2018-10-14T06:57:49Z</time>
      </trkpt>
      <trkpt lat="46.44878" lon="2.5912">
        <ele>190.9</ele>
        <time>2018-10-14T06:57:50Z</time>
      </trkpt>
      <trkpt lat="46.44877" lon="2.59112">
        <ele>190.6</ele>
        <time>2018-10-14T06:57:51Z</time>
      </trkpt>
      <trkpt lat="46.44876" lon="2.59105">
        <ele>190.7</ele>
        <time>2018-10-14T06:57:52Z</time>
      </trkpt>
      <trkpt lat="46.44874" lon="2.59097">
        <ele>190.9</ele>
        <time>2018-10-14T06:57:53Z</time>
      </trkpt>
      <trkpt lat="46.44873" lon="2.59089">
        <ele>190.9</ele>
        <time>2018-10-14T06:57:54Z</time>
      </trkpt>
      <trkpt lat="46.44872" lon="2.59082">
        <ele>191</ele>
        <time>2018-10-14T06:57:55Z</time>
      </trkpt>
      <trkpt lat="46.44871" lon="2.59075">
        <ele>191.1</ele>
        <time>2018-10-14T06:57:56Z</time>
      </trkpt>
      <trkpt lat="46.4487" lon="2.59068">
        <ele>191.1</ele>
        <time>2018-10-14T06:57:57Z</time>
      </trkpt>
      <trkpt lat="46.44869" lon="2.59062">
        <ele>191.2</ele>
        <time>2018-10-14T06:57:58Z</time>
      </trkpt>
      <trkpt lat="46.44868" lon="2.59055">
        <ele>191.1</ele>
        <time>2018-10-14T06:57:59Z</time>
      </trkpt>
      <trkpt lat="46.44866" lon="2.59042">
        <ele>190.9</ele>
        <time>2018-10-14T06:58:01Z</time>
      </trkpt>
      <trkpt lat="46.44864" lon="2.5903">
        <ele>191.3</ele>
        <time>2018-10-14T06:58:03Z</time>
      </trkpt>
      <trkpt lat="46.44862" lon="2.59018">
        <ele>191.3</ele>
        <time>2018-10-14T06:58:05Z</time>
      </trkpt>
      <trkpt lat="46.4486" lon="2.59006">
        <ele>192</ele>
        <time>2018-10-14T06:58:07Z</time>
      </trkpt>
      <trkpt lat="46.44858" lon="2.58994">
        <ele>192.7</ele>
        <time>2018-10-14T06:58:09Z</time>
      </trkpt>
      <trkpt lat="46.44856" lon="2.58983">
        <ele>193.5</ele>
        <time>2018-10-14T06:58:11Z</time>
      </trkpt>
      <trkpt lat="46.44854" lon="2.58972">
        <ele>193.9</ele>
        <time>2018-10-14T06:58:13Z</time>
      </trkpt>
      <trkpt lat="46.44852" lon="2.58961">
        <ele>194.3</ele>
        <time>2018-10-14T06:58:15Z</time>
      </trkpt>
      <trkpt lat="46.44851" lon="2.5895">
        <ele>194.1</ele>
        <time>2018-10-14T06:58:17Z</time>
      </trkpt>
      <trkpt lat="46.44849" lon="2.58939">
        <ele>194.1</ele>
        <time>2018-10-14T06:58:19Z</time>
      </trkpt>
      <trkpt lat="46.44848" lon="2.58934">
        <ele>194.1</ele>
        <time>2018-10-14T06:58:20Z</time>
      </trkpt>
      <trkpt lat="46.44846" lon="2.58918">
        <ele>194.9</ele>
        <time>2018-10-14T06:58:23Z</time>
      </trkpt>
      <trkpt lat="46.44846" lon="2.58908">
        <ele>195</ele>
        <time>2018-10-14T06:58:25Z</time>
      </trkpt>
      <trkpt lat="46.44847" lon="2.58899">
        <ele>195.1</ele>
        <time>2018-10-14T06:58:27Z</time>
      </trkpt>
      <trkpt lat="46.44849" lon="2.5889">
        <ele>195.9</ele>
        <time>2018-10-14T06:58:29Z</time>
      </trkpt>
      <trkpt lat="46.44851" lon="2.58882">
        <ele>196.4</ele>
        <time>2018-10-14T06:58:31Z</time>
      </trkpt>
      <trkpt lat="46.44854" lon="2.58874">
        <ele>196.7</ele>
        <time>2018-10-14T06:58:33Z</time>
      </trkpt>
      <trkpt lat="46.44858" lon="2.58867">
        <ele>197</ele>
        <time>2018-10-14T06:58:35Z</time>
      </trkpt>
      <trkpt lat="46.44865" lon="2.58858">
        <ele>198</ele>
        <time>2018-10-14T06:58:38Z</time>
      </trkpt>
      <trkpt lat="46.4487" lon="2.58854">
        <ele>198.4</ele>
        <time>2018-10-14T06:58:40Z</time>
      </trkpt>
      <trkpt lat="46.44876" lon="2.5885">
        <ele>199</ele>
        <time>2018-10-14T06:58:42Z</time>
      </trkpt>
      <trkpt lat="46.44882" lon="2.58848">
        <ele>199.5</ele>
        <time>2018-10-14T06:58:44Z</time>
      </trkpt>
      <trkpt lat="46.44888" lon="2.58846">
        <ele>199.9</ele>
        <time>2018-10-14T06:58:46Z</time>
      </trkpt>
      <trkpt lat="46.44895" lon="2.58844">
        <ele>200.9</ele>
        <time>2018-10-14T06:58:48Z</time>
      </trkpt>
      <trkpt lat="46.44902" lon="2.58843">
        <ele>201.5</ele>
        <time>2018-10-14T06:58:50Z</time>
      </trkpt>
      <trkpt lat="46.44908" lon="2.58842">
        <ele>201.9</ele>
        <time>2018-10-14T06:58:52Z</time>
      </trkpt>
      <trkpt lat="46.44914" lon="2.58841">
        <ele>202.1</ele>
        <time>2018-10-14T06:58:54Z</time>
      </trkpt>
      <trkpt lat="46.44921" lon="2.5884">
        <ele>202.2</ele>
        <time>2018-10-14T06:58:56Z</time>
      </trkpt>
      <trkpt lat="46.44928" lon="2.5884">
        <ele>202.4</ele>
        <time>2018-10-14T06:58:58Z</time>
      </trkpt>
      <trkpt lat="46.44935" lon="2.58839">
        <ele>203.4</ele>
        <time>2018-10-14T06:59:00Z</time>
      </trkpt>
      <trkpt lat="46.44941" lon="2.58839">
        <ele>204</ele>
        <time>2018-10-14T06:59:02Z</time>
      </trkpt>
      <trkpt lat="46.44948" lon="2.58839">
        <ele>204.5</ele>
        <time>2018-10-14T06:59:04Z</time>
      </trkpt>
      <trkpt lat="46.44955" lon="2.58837">
        <ele>204.7</ele>
        <time>2018-10-14T06:59:06Z</time>
      </trkpt>
      <trkpt lat="46.44962" lon="2.58835">
        <ele>205.5</ele>
        <time>2018-10-14T06:59:08Z</time>
      </trkpt>
      <trkpt lat="46.44969" lon="2.58832">
        <ele>206.4</ele>
        <time>2018-10-14T06:59:10Z</time>
      </trkpt>
      <trkpt lat="46.44976" lon="2.58828">
        <ele>206.8</ele>
        <time>2018-10-14T06:59:12Z</time>
      </trkpt>
      <trkpt lat="46.44984" lon="2.58826">
        <ele>207</ele>
        <time>2018-10-14T06:59:14Z</time>
      </trkpt>
      <trkpt lat="46.44991" lon="2.58825">
        <ele>207.4</ele>
        <time>2018-10-14T06:59:16Z</time>
      </trkpt>
      <trkpt lat="46.44998" lon="2.58826">
        <ele>208.5</ele>
        <time>2018-10-14T06:59:18Z</time>
      </trkpt>
      <trkpt lat="46.45006" lon="2.58827">
        <ele>209.7</ele>
        <time>2018-10-14T06:59:21Z</time>
      </trkpt>
      <trkpt lat="46.4501" lon="2.58828">
        <ele>209.9</ele>
        <time>2018-10-14T06:59:22Z</time>
      </trkpt>
      <trkpt lat="46.4502" lon="2.58827">
        <ele>210.4</ele>
        <time>2018-10-14T06:59:25Z</time>
      </trkpt>
      <trkpt lat="46.45026" lon="2.5883">
        <ele>210.5</ele>
        <time>2018-10-14T06:59:27Z</time>
      </trkpt>
      <trkpt lat="46.45032" lon="2.58837">
        <ele>211</ele>
        <time>2018-10-14T06:59:29Z</time>
      </trkpt>
      <trkpt lat="46.45038" lon="2.58846">
        <ele>211.7</ele>
        <time>2018-10-14T06:59:31Z</time>
      </trkpt>
      <trkpt lat="46.45044" lon="2.58854">
        <ele>212.1</ele>
        <time>2018-10-14T06:59:33Z</time>
      </trkpt>
      <trkpt lat="46.4505" lon="2.58864">
        <ele>212.1</ele>
        <time>2018-10-14T06:59:35Z</time>
      </trkpt>
      <trkpt lat="46.45053" lon="2.58868">
        <ele>212.1</ele>
        <time>2018-10-14T06:59:36Z</time>
      </trkpt>
      <trkpt lat="46.45056" lon="2.58873">
        <ele>212</ele>
        <time>2018-10-14T06:59:37Z</time>
      </trkpt>
      <trkpt lat="46.45059" lon="2.58878">
        <ele>211.9</ele>
        <time>2018-10-14T06:59:38Z</time>
      </trkpt>
      <trkpt lat="46.45062" lon="2.58883">
        <ele>211.8</ele>
        <time>2018-10-14T06:59:39Z</time>
      </trkpt>
      <trkpt lat="46.45065" lon="2.58888">
        <ele>211.7</ele>
        <time>2018-10-14T06:59:40Z</time>
      </trkpt>
      <trkpt lat="46.45069" lon="2.58893">
        <ele>211.5</ele>
        <time>2018-10-14T06:59:41Z</time>
      </trkpt>
      <trkpt lat="46.45072" lon="2.58898">
        <ele>211.3</ele>
        <time>2018-10-14T06:59:42Z</time>
      </trkpt>
      <trkpt lat="46.45075" lon="2.58903">
        <ele>211.2</ele>
        <time>2018-10-14T06:59:43Z</time>
      </trkpt>
      <trkpt lat="46.45078" lon="2.58908">
        <ele>211.4</ele>
        <time>2018-10-14T06:59:44Z</time>
      </trkpt>
      <trkpt lat="46.45082" lon="2.58914">
        <ele>211.6</ele>
        <time>2018-10-14T06:59:45Z</time>
      </trkpt>
      <trkpt lat="46.45086" lon="2.58919">
        <ele>211.2</ele>
        <time>2018-10-14T06:59:46Z</time>
      </trkpt>
      <trkpt lat="46.45089" lon="2.58925">
        <ele>210.8</ele>
        <time>2018-10-14T06:59:47Z</time>
      </trkpt>
      <trkpt lat="46.45093" lon="2.58931">
        <ele>210.4</ele>
        <time>2018-10-14T06:59:48Z</time>
      </trkpt>
      <trkpt lat="46.45097" lon="2.58937">
        <ele>210</ele>
        <time>2018-10-14T06:59:49Z</time>
      </trkpt>
      <trkpt lat="46.45101" lon="2.58944">
        <ele>209.8</ele>
        <time>2018-10-14T06:59:50Z</time>
      </trkpt>
      <trkpt lat="46.45105" lon="2.5895">
        <ele>209.8</ele>
        <time>2018-10-14T06:59:51Z</time>
      </trkpt>
      <trkpt lat="46.4511" lon="2.58958">
        <ele>209.8</ele>
        <time>2018-10-14T06:59:52Z</time>
      </trkpt>
      <trkpt lat="46.45115" lon="2.58965">
        <ele>209.3</ele>
        <time>2018-10-14T06:59:53Z</time>
      </trkpt>
      <trkpt lat="46.4512" lon="2.58973">
        <ele>208.9</ele>
        <time>2018-10-14T06:59:54Z</time>
      </trkpt>
      <trkpt lat="46.45126" lon="2.58981">
        <ele>208.2</ele>
        <time>2018-10-14T06:59:55Z</time>
      </trkpt>
      <trkpt lat="46.45132" lon="2.5899">
        <ele>207.7</ele>
        <time>2018-10-14T06:59:56Z</time>
      </trkpt>
      <trkpt lat="46.45139" lon="2.58998">
        <ele>207.3</ele>
        <time>2018-10-14T06:59:57Z</time>
      </trkpt>
      <trkpt lat="46.45145" lon="2.59006">
        <ele>206.6</ele>
        <time>2018-10-14T06:59:58Z</time>
      </trkpt>
      <trkpt lat="46.45153" lon="2.59014">
        <ele>206</ele>
        <time>2018-10-14T06:59:59Z</time>
      </trkpt>
      <trkpt lat="46.4516" lon="2.59021">
        <ele>205.4</ele>
        <time>2018-10-14T07:00:00Z</time>
      </trkpt>
      <trkpt lat="46.45168" lon="2.59029">
        <ele>204.9</ele>
        <time>2018-10-14T07:00:01Z</time>
      </trkpt>
      <trkpt lat="46.45175" lon="2.59037">
        <ele>204.5</ele>
        <time>2018-10-14T07:00:02Z</time>
      </trkpt>
      <trkpt lat="46.45184" lon="2.59045">
        <ele>203.8</ele>
        <time>2018-10-14T07:00:03Z</time>
      </trkpt>
      <trkpt lat="46.45192" lon="2.59053">
        <ele>203.2</ele>
        <time>2018-10-14T07:00:04Z</time>
      </trkpt>
      <trkpt lat="46.45199" lon="2.5906">
        <ele>202.1</ele>
        <time>2018-10-14T07:00:05Z</time>
      </trkpt>
      <trkpt lat="46.45207" lon="2.59068">
        <ele>201.3</ele>
        <time>2018-10-14T07:00:06Z</time>
      </trkpt>
      <trkpt lat="46.45214" lon="2.59076">
        <ele>200.9</ele>
        <time>2018-10-14T07:00:07Z</time>
      </trkpt>
      <trkpt lat="46.45222" lon="2.59085">
        <ele>200.6</ele>
        <time>2018-10-14T07:00:08Z</time>
      </trkpt>
      <trkpt lat="46.4523" lon="2.59094">
        <ele>200.3</ele>
        <time>2018-10-14T07:00:09Z</time>
      </trkpt>
      <trkpt lat="46.45238" lon="2.59102">
        <ele>199.7</ele>
        <time>2018-10-14T07:00:10Z</time>
      </trkpt>
      <trkpt lat="46.45245" lon="2.59112">
        <ele>199.2</ele>
        <time>2018-10-14T07:00:11Z</time>
      </trkpt>
      <trkpt lat="46.45251" lon="2.59122">
        <ele>198.2</ele>
        <time>2018-10-14T07:00:12Z</time>
      </trkpt>
      <trkpt lat="46.45257" lon="2.59133">
        <ele>197.4</ele>
        <time>2018-10-14T07:00:13Z</time>
      </trkpt>
      <trkpt lat="46.45261" lon="2.59143">
        <ele>196.9</ele>
        <time>2018-10-14T07:00:14Z</time>
      </trkpt>
      <trkpt lat="46.45265" lon="2.59152">
        <ele>196.6</ele>
        <time>2018-10-14T07:00:15Z</time>
      </trkpt>
      <trkpt lat="46.4527" lon="2.5916">
        <ele>196.4</ele>
        <time>2018-10-14T07:00:16Z</time>
      </trkpt>
      <trkpt lat="46.45275" lon="2.59166">
        <ele>196.3</ele>
        <time>2018-10-14T07:00:17Z</time>
      </trkpt>
      <trkpt lat="46.4528" lon="2.59172">
        <ele>196.3</ele>
        <time>2018-10-14T07:00:18Z</time>
      </trkpt>
      <trkpt lat="46.45284" lon="2.59177">
        <ele>196.3</ele>
        <time>2018-10-14T07:00:19Z</time>
      </trkpt>
      <trkpt lat="46.4529" lon="2.59186">
        <ele>196.4</ele>
        <time>2018-10-14T07:00:21Z</time>
      </trkpt>
      <trkpt lat="46.45295" lon="2.59193">
        <ele>197.6</ele>
        <time>2018-10-14T07:00:23Z</time>
      </trkpt>
      <trkpt lat="46.45299" lon="2.59193">
        <ele>198</ele>
        <time>2018-10-14T07:00:24Z</time>
      </trkpt>
      <trkpt lat="46.45297" lon="2.59176">
        <ele>198.8</ele>
        <time>2018-10-14T07:00:30Z</time>
      </trkpt>
      <trkpt lat="46.45292" lon="2.59167">
        <ele>199.6</ele>
        <time>2018-10-14T07:00:33Z</time>
      </trkpt>
      <trkpt lat="46.4529" lon="2.59155">
        <ele>200.2</ele>
        <time>2018-10-14T07:00:36Z</time>
      </trkpt>
      <trkpt lat="46.45288" lon="2.59146">
        <ele>200.6</ele>
        <time>2018-10-14T07:00:38Z</time>
      </trkpt>
      <trkpt lat="46.45287" lon="2.59137">
        <ele>200.9</ele>
        <time>2018-10-14T07:00:40Z</time>
      </trkpt>
      <trkpt lat="46.45286" lon="2.59127">
        <ele>200.9</ele>
        <time>2018-10-14T07:00:42Z</time>
      </trkpt>
      <trkpt lat="46.45286" lon="2.59117">
        <ele>200.8</ele>
        <time>2018-10-14T07:00:44Z</time>
      </trkpt>
      <trkpt lat="46.45286" lon="2.59108">
        <ele>201.1</ele>
        <time>2018-10-14T07:00:46Z</time>
      </trkpt>
      <trkpt lat="46.45285" lon="2.59098">
        <ele>201.5</ele>
        <time>2018-10-14T07:00:48Z</time>
      </trkpt>
      <trkpt lat="46.45285" lon="2.59087">
        <ele>201.8</ele>
        <time>2018-10-14T07:00:50Z</time>
      </trkpt>
      <trkpt lat="46.45285" lon="2.59078">
        <ele>202.1</ele>
        <time>2018-10-14T07:00:52Z</time>
      </trkpt>
      <trkpt lat="46.45285" lon="2.59068">
        <ele>202.5</ele>
        <time>2018-10-14T07:00:54Z</time>
      </trkpt>
      <trkpt lat="46.45285" lon="2.59059">
        <ele>202.5</ele>
        <time>2018-10-14T07:00:56Z</time>
      </trkpt>
      <trkpt lat="46.45285" lon="2.5905">
        <ele>202.2</ele>
        <time>2018-10-14T07:00:58Z</time>
      </trkpt>
      <trkpt lat="46.45285" lon="2.5904">
        <ele>202</ele>
        <time>2018-10-14T07:01:00Z</time>
      </trkpt>
      <trkpt lat="46.45285" lon="2.59031">
        <ele>202.2</ele>
        <time>2018-10-14T07:01:02Z</time>
      </trkpt>
      <trkpt lat="46.45285" lon="2.59021">
        <ele>202.9</ele>
        <time>2018-10-14T07:01:04Z</time>
      </trkpt>
      <trkpt lat="46.45285" lon="2.59011">
        <ele>203.3</ele>
        <time>2018-10-14T07:01:06Z</time>
      </trkpt>
      <trkpt lat="46.45285" lon="2.59001">
        <ele>203.1</ele>
        <time>2018-10-14T07:01:08Z</time>
      </trkpt>
      <trkpt lat="46.45285" lon="2.58992">
        <ele>203.4</ele>
        <time>2018-10-14T07:01:10Z</time>
      </trkpt>
      <trkpt lat="46.45286" lon="2.5898">
        <ele>204.2</ele>
        <time>2018-10-14T07:01:13Z</time>
      </trkpt>
      <trkpt lat="46.45288" lon="2.58969">
        <ele>205</ele>
        <time>2018-10-14T07:01:16Z</time>
      </trkpt>
      <trkpt lat="46.4529" lon="2.58957">
        <ele>204.7</ele>
        <time>2018-10-14T07:01:19Z</time>
      </trkpt>
      <trkpt lat="46.45291" lon="2.58948">
        <ele>204.8</ele>
        <time>2018-10-14T07:01:21Z</time>
      </trkpt>
      <trkpt lat="46.45293" lon="2.58939">
        <ele>205.3</ele>
        <time>2018-10-14T07:01:23Z</time>
      </trkpt>
      <trkpt lat="46.45294" lon="2.58929">
        <ele>205.9</ele>
        <time>2018-10-14T07:01:25Z</time>
      </trkpt>
      <trkpt lat="46.45295" lon="2.58925">
        <ele>205.7</ele>
        <time>2018-10-14T07:01:26Z</time>
      </trkpt>
      <trkpt lat="46.45297" lon="2.5891">
        <ele>205.5</ele>
        <time>2018-10-14T07:01:29Z</time>
      </trkpt>
      <trkpt lat="46.45299" lon="2.58899">
        <ele>205.8</ele>
        <time>2018-10-14T07:01:31Z</time>
      </trkpt>
      <trkpt lat="46.45299" lon="2.58889">
        <ele>206.1</ele>
        <time>2018-10-14T07:01:33Z</time>
      </trkpt>
      <trkpt lat="46.45299" lon="2.58879">
        <ele>206.3</ele>
        <time>2018-10-14T07:01:35Z</time>
      </trkpt>
      <trkpt lat="46.45298" lon="2.58868">
        <ele>206.3</ele>
        <time>2018-10-14T07:01:37Z</time>
      </trkpt>
      <trkpt lat="46.45296" lon="2.58857">
        <ele>205.8</ele>
        <time>2018-10-14T07:01:39Z</time>
      </trkpt>
      <trkpt lat="46.45294" lon="2.58845">
        <ele>206.6</ele>
        <time>2018-10-14T07:01:41Z</time>
      </trkpt>
      <trkpt lat="46.45292" lon="2.58835">
        <ele>206.5</ele>
        <time>2018-10-14T07:01:43Z</time>
      </trkpt>
      <trkpt lat="46.4529" lon="2.58825">
        <ele>206.8</ele>
        <time>2018-10-14T07:01:45Z</time>
      </trkpt>
      <trkpt lat="46.45288" lon="2.58815">
        <ele>207.4</ele>
        <time>2018-10-14T07:01:47Z</time>
      </trkpt>
      <trkpt lat="46.45286" lon="2.58806">
        <ele>207.9</ele>
        <time>2018-10-14T07:01:49Z</time>
      </trkpt>
      <trkpt lat="46.45284" lon="2.58796">
        <ele>208.2</ele>
        <time>2018-10-14T07:01:51Z</time>
      </trkpt>
      <trkpt lat="46.45282" lon="2.58785">
        <ele>208.2</ele>
        <time>2018-10-14T07:01:53Z</time>
      </trkpt>
      <trkpt lat="46.4528" lon="2.58775">
        <ele>208</ele>
        <time>2018-10-14T07:01:55Z</time>
      </trkpt>
      <trkpt lat="46.45277" lon="2.58765">
        <ele>207.9</ele>
        <time>2018-10-14T07:01:57Z</time>
      </trkpt>
      <trkpt lat="46.45275" lon="2.58754">
        <ele>208.3</ele>
        <time>2018-10-14T07:01:59Z</time>
      </trkpt>
      <trkpt lat="46.45273" lon="2.58744">
        <ele>208.5</ele>
        <time>2018-10-14T07:02:01Z</time>
      </trkpt>
      <trkpt lat="46.45271" lon="2.58733">
        <ele>208.3</ele>
        <time>2018-10-14T07:02:03Z</time>
      </trkpt>
      <trkpt lat="46.45269" lon="2.58721">
        <ele>207.9</ele>
        <time>2018-10-14T07:02:05Z</time>
      </trkpt>
      <trkpt lat="46.45267" lon="2.5871">
        <ele>207.9</ele>
        <time>2018-10-14T07:02:07Z</time>
      </trkpt>
      <trkpt lat="46.45266" lon="2.58698">
        <ele>207.9</ele>
        <time>2018-10-14T07:02:09Z</time>
      </trkpt>
      <trkpt lat="46.45264" lon="2.58687">
        <ele>208.4</ele>
        <time>2018-10-14T07:02:11Z</time>
      </trkpt>
      <trkpt lat="46.45264" lon="2.58675">
        <ele>208.9</ele>
        <time>2018-10-14T07:02:13Z</time>
      </trkpt>
      <trkpt lat="46.45263" lon="2.58663">
        <ele>209.2</ele>
        <time>2018-10-14T07:02:15Z</time>
      </trkpt>
      <trkpt lat="46.45263" lon="2.58652">
        <ele>209.6</ele>
        <time>2018-10-14T07:02:17Z</time>
      </trkpt>
      <trkpt lat="46.45263" lon="2.5864">
        <ele>209.7</ele>
        <time>2018-10-14T07:02:19Z</time>
      </trkpt>
      <trkpt lat="46.45263" lon="2.58629">
        <ele>210</ele>
        <time>2018-10-14T07:02:21Z</time>
      </trkpt>
      <trkpt lat="46.45265" lon="2.58619">
        <ele>209.6</ele>
        <time>2018-10-14T07:02:23Z</time>
      </trkpt>
      <trkpt lat="46.45271" lon="2.58613">
        <ele>209</ele>
        <time>2018-10-14T07:02:25Z</time>
      </trkpt>
      <trkpt lat="46.45278" lon="2.58613">
        <ele>209.3</ele>
        <time>2018-10-14T07:02:27Z</time>
      </trkpt>
      <trkpt lat="46.45282" lon="2.58613">
        <ele>209.7</ele>
        <time>2018-10-14T07:02:28Z</time>
      </trkpt>
      <trkpt lat="46.45294" lon="2.58614">
        <ele>210.1</ele>
        <time>2018-10-14T07:02:31Z</time>
      </trkpt>
      <trkpt lat="46.45301" lon="2.58615">
        <ele>211</ele>
        <time>2018-10-14T07:02:33Z</time>
      </trkpt>
      <trkpt lat="46.45309" lon="2.58616">
        <ele>211.3</ele>
        <time>2018-10-14T07:02:35Z</time>
      </trkpt>
      <trkpt lat="46.45316" lon="2.58617">
        <ele>211.6</ele>
        <time>2018-10-14T07:02:37Z</time>
      </trkpt>
      <trkpt lat="46.45324" lon="2.58617">
        <ele>211.8</ele>
        <time>2018-10-14T07:02:39Z</time>
      </trkpt>
      <trkpt lat="46.45331" lon="2.58618">
        <ele>211.9</ele>
        <time>2018-10-14T07:02:41Z</time>
      </trkpt>
      <trkpt lat="46.45339" lon="2.5862">
        <ele>211.9</ele>
        <time>2018-10-14T07:02:43Z</time>
      </trkpt>
      <trkpt lat="46.45346" lon="2.5862">
        <ele>212.3</ele>
        <time>2018-10-14T07:02:45Z</time>
      </trkpt>
      <trkpt lat="46.45354" lon="2.58622">
        <ele>212.2</ele>
        <time>2018-10-14T07:02:47Z</time>
      </trkpt>
      <trkpt lat="46.45361" lon="2.58623">
        <ele>212.1</ele>
        <time>2018-10-14T07:02:49Z</time>
      </trkpt>
      <trkpt lat="46.45369" lon="2.58624">
        <ele>212.4</ele>
        <time>2018-10-14T07:02:51Z</time>
      </trkpt>
      <trkpt lat="46.45377" lon="2.58625">
        <ele>212.8</ele>
        <time>2018-10-14T07:02:53Z</time>
      </trkpt>
      <trkpt lat="46.45385" lon="2.58626">
        <ele>213.1</ele>
        <time>2018-10-14T07:02:55Z</time>
      </trkpt>
      <trkpt lat="46.45392" lon="2.58627">
        <ele>213.7</ele>
        <time>2018-10-14T07:02:57Z</time>
      </trkpt>
      <trkpt lat="46.45399" lon="2.58628">
        <ele>213.8</ele>
        <time>2018-10-14T07:02:59Z</time>
      </trkpt>
      <trkpt lat="46.45407" lon="2.58629">
        <ele>213.8</ele>
        <time>2018-10-14T07:03:01Z</time>
      </trkpt>
      <trkpt lat="46.45415" lon="2.5863">
        <ele>213.8</ele>
        <time>2018-10-14T07:03:03Z</time>
      </trkpt>
      <trkpt lat="46.45423" lon="2.58631">
        <ele>214</ele>
        <time>2018-10-14T07:03:05Z</time>
      </trkpt>
      <trkpt lat="46.45431" lon="2.58632">
        <ele>214.3</ele>
        <time>2018-10-14T07:03:07Z</time>
      </trkpt>
      <trkpt lat="46.45439" lon="2.58634">
        <ele>214.1</ele>
        <time>2018-10-14T07:03:09Z</time>
      </trkpt>
      <trkpt lat="46.45444" lon="2.58635">
        <ele>214.1</ele>
        <time>2018-10-14T07:03:10Z</time>
      </trkpt>
      <trkpt lat="46.45448" lon="2.58636">
        <ele>214.1</ele>
        <time>2018-10-14T07:03:11Z</time>
      </trkpt>
      <trkpt lat="46.45453" lon="2.58637">
        <ele>214</ele>
        <time>2018-10-14T07:03:12Z</time>
      </trkpt>
      <trkpt lat="46.45458" lon="2.58638">
        <ele>213.9</ele>
        <time>2018-10-14T07:03:13Z</time>
      </trkpt>
      <trkpt lat="46.45463" lon="2.5864">
        <ele>213.8</ele>
        <time>2018-10-14T07:03:14Z</time>
      </trkpt>
      <trkpt lat="46.45469" lon="2.58641">
        <ele>213.7</ele>
        <time>2018-10-14T07:03:15Z</time>
      </trkpt>
      <trkpt lat="46.45474" lon="2.58642">
        <ele>213.7</ele>
        <time>2018-10-14T07:03:16Z</time>
      </trkpt>
      <trkpt lat="46.4548" lon="2.58643">
        <ele>213.5</ele>
        <time>2018-10-14T07:03:17Z</time>
      </trkpt>
      <trkpt lat="46.45486" lon="2.58644">
        <ele>213.4</ele>
        <time>2018-10-14T07:03:18Z</time>
      </trkpt>
      <trkpt lat="46.45492" lon="2.58645">
        <ele>213.3</ele>
        <time>2018-10-14T07:03:19Z</time>
      </trkpt>
      <trkpt lat="46.45498" lon="2.58646">
        <ele>213.3</ele>
        <time>2018-10-14T07:03:20Z</time>
      </trkpt>
      <trkpt lat="46.45504" lon="2.58647">
        <ele>213.2</ele>
        <time>2018-10-14T07:03:21Z</time>
      </trkpt>
      <trkpt lat="46.45509" lon="2.58649">
        <ele>213.1</ele>
        <time>2018-10-14T07:03:22Z</time>
      </trkpt>
      <trkpt lat="46.45515" lon="2.5865">
        <ele>213</ele>
        <time>2018-10-14T07:03:23Z</time>
      </trkpt>
      <trkpt lat="46.4552" lon="2.58652">
        <ele>212.5</ele>
        <time>2018-10-14T07:03:24Z</time>
      </trkpt>
      <trkpt lat="46.45526" lon="2.58654">
        <ele>212.2</ele>
        <time>2018-10-14T07:03:25Z</time>
      </trkpt>
      <trkpt lat="46.45532" lon="2.58656">
        <ele>211.9</ele>
        <time>2018-10-14T07:03:26Z</time>
      </trkpt>
      <trkpt lat="46.45537" lon="2.58658">
        <ele>211.7</ele>
        <time>2018-10-14T07:03:27Z</time>
      </trkpt>
      <trkpt lat="46.45543" lon="2.5866">
        <ele>211.5</ele>
        <time>2018-10-14T07:03:28Z</time>
      </trkpt>
      <trkpt lat="46.45549" lon="2.58663">
        <ele>211.7</ele>
        <time>2018-10-14T07:03:29Z</time>
      </trkpt>
      <trkpt lat="46.45555" lon="2.58667">
        <ele>211.8</ele>
        <time>2018-10-14T07:03:30Z</time>
      </trkpt>
      <trkpt lat="46.45561" lon="2.5867">
        <ele>211.3</ele>
        <time>2018-10-14T07:03:31Z</time>
      </trkpt>
      <trkpt lat="46.45566" lon="2.58674">
        <ele>210.9</ele>
        <time>2018-10-14T07:03:32Z</time>
      </trkpt>
      <trkpt lat="46.45572" lon="2.58677">
        <ele>210.6</ele>
        <time>2018-10-14T07:03:33Z</time>
      </trkpt>
      <trkpt lat="46.45578" lon="2.58681">
        <ele>210.8</ele>
        <time>2018-10-14T07:03:34Z</time>
      </trkpt>
      <trkpt lat="46.45584" lon="2.58684">
        <ele>210.9</ele>
        <time>2018-10-14T07:03:35Z</time>
      </trkpt>
      <trkpt lat="46.4559" lon="2.58686">
        <ele>211.2</ele>
        <time>2018-10-14T07:03:36Z</time>
      </trkpt>
      <trkpt lat="46.45596" lon="2.58689">
        <ele>211.4</ele>
        <time>2018-10-14T07:03:37Z</time>
      </trkpt>
      <trkpt lat="46.45603" lon="2.58691">
        <ele>211.6</ele>
        <time>2018-10-14T07:03:38Z</time>
      </trkpt>
      <trkpt lat="46.45609" lon="2.58692">
        <ele>211.1</ele>
        <time>2018-10-14T07:03:39Z</time>
      </trkpt>
      <trkpt lat="46.45616" lon="2.58693">
        <ele>210.8</ele>
        <time>2018-10-14T07:03:40Z</time>
      </trkpt>
      <trkpt lat="46.45623" lon="2.58693">
        <ele>210.3</ele>
        <time>2018-10-14T07:03:41Z</time>
      </trkpt>
      <trkpt lat="46.45629" lon="2.58693">
        <ele>210</ele>
        <time>2018-10-14T07:03:42Z</time>
      </trkpt>
      <trkpt lat="46.45636" lon="2.58694">
        <ele>209.7</ele>
        <time>2018-10-14T07:03:43Z</time>
      </trkpt>
      <trkpt lat="46.45643" lon="2.58694">
        <ele>209.4</ele>
        <time>2018-10-14T07:03:44Z</time>
      </trkpt>
      <trkpt lat="46.4565" lon="2.58693">
        <ele>209.3</ele>
        <time>2018-10-14T07:03:45Z</time>
      </trkpt>
      <trkpt lat="46.45657" lon="2.58693">
        <ele>209.2</ele>
        <time>2018-10-14T07:03:46Z</time>
      </trkpt>
      <trkpt lat="46.45665" lon="2.58691">
        <ele>209.2</ele>
        <time>2018-10-14T07:03:47Z</time>
      </trkpt>
      <trkpt lat="46.45672" lon="2.58688">
        <ele>209.1</ele>
        <time>2018-10-14T07:03:48Z</time>
      </trkpt>
      <trkpt lat="46.45678" lon="2.58683">
        <ele>209</ele>
        <time>2018-10-14T07:03:49Z</time>
      </trkpt>
      <trkpt lat="46.45684" lon="2.58678">
        <ele>209</ele>
        <time>2018-10-14T07:03:50Z</time>
      </trkpt>
      <trkpt lat="46.45689" lon="2.58672">
        <ele>209</ele>
        <time>2018-10-14T07:03:51Z</time>
      </trkpt>
      <trkpt lat="46.45694" lon="2.58666">
        <ele>209</ele>
        <time>2018-10-14T07:03:52Z</time>
      </trkpt>
      <trkpt lat="46.45699" lon="2.5866">
        <ele>209</ele>
        <time>2018-10-14T07:03:53Z</time>
      </trkpt>
      <trkpt lat="46.45703" lon="2.58654">
        <ele>208.9</ele>
        <time>2018-10-14T07:03:54Z</time>
      </trkpt>
      <trkpt lat="46.45708" lon="2.58648">
        <ele>208.9</ele>
        <time>2018-10-14T07:03:55Z</time>
      </trkpt>
      <trkpt lat="46.45713" lon="2.58642">
        <ele>208.9</ele>
        <time>2018-10-14T07:03:56Z</time>
      </trkpt>
      <trkpt lat="46.45717" lon="2.58637">
        <ele>208.9</ele>
        <time>2018-10-14T07:03:57Z</time>
      </trkpt>
      <trkpt lat="46.45722" lon="2.58632">
        <ele>208.9</ele>
        <time>2018-10-14T07:03:58Z</time>
      </trkpt>
      <trkpt lat="46.45727" lon="2.58627">
        <ele>208.9</ele>
        <time>2018-10-14T07:03:59Z</time>
      </trkpt>
      <trkpt lat="46.45732" lon="2.58624">
        <ele>209.1</ele>
        <time>2018-10-14T07:04:00Z</time>
      </trkpt>
      <trkpt lat="46.45736" lon="2.5862">
        <ele>209.3</ele>
        <time>2018-10-14T07:04:01Z</time>
      </trkpt>
      <trkpt lat="46.45741" lon="2.58617">
        <ele>209.8</ele>
        <time>2018-10-14T07:04:02Z</time>
      </trkpt>
      <trkpt lat="46.45745" lon="2.58614">
        <ele>210.1</ele>
        <time>2018-10-14T07:04:03Z</time>
      </trkpt>
      <trkpt lat="46.45749" lon="2.58611">
        <ele>210.4</ele>
        <time>2018-10-14T07:04:04Z</time>
      </trkpt>
      <trkpt lat="46.45754" lon="2.58609">
        <ele>210.8</ele>
        <time>2018-10-14T07:04:05Z</time>
      </trkpt>
      <trkpt lat="46.45758" lon="2.58606">
        <ele>211.1</ele>
        <time>2018-10-14T07:04:06Z</time>
      </trkpt>
      <trkpt lat="46.45762" lon="2.58603">
        <ele>211.3</ele>
        <time>2018-10-14T07:04:07Z</time>
      </trkpt>
      <trkpt lat="46.45766" lon="2.58601">
        <ele>211.4</ele>
        <time>2018-10-14T07:04:08Z</time>
      </trkpt>
      <trkpt lat="46.45771" lon="2.58599">
        <ele>211.7</ele>
        <time>2018-10-14T07:04:09Z</time>
      </trkpt>
      <trkpt lat="46.45775" lon="2.58596">
        <ele>212</ele>
        <time>2018-10-14T07:04:10Z</time>
      </trkpt>
      <trkpt lat="46.45779" lon="2.58594">
        <ele>212.2</ele>
        <time>2018-10-14T07:04:11Z</time>
      </trkpt>
      <trkpt lat="46.45788" lon="2.5859">
        <ele>212.6</ele>
        <time>2018-10-14T07:04:13Z</time>
      </trkpt>
      <trkpt lat="46.45796" lon="2.58587">
        <ele>213.4</ele>
        <time>2018-10-14T07:04:15Z</time>
      </trkpt>
      <trkpt lat="46.45804" lon="2.58583">
        <ele>214.3</ele>
        <time>2018-10-14T07:04:17Z</time>
      </trkpt>
      <trkpt lat="46.45811" lon="2.5858">
        <ele>214.9</ele>
        <time>2018-10-14T07:04:19Z</time>
      </trkpt>
      <trkpt lat="46.45819" lon="2.58577">
        <ele>215.3</ele>
        <time>2018-10-14T07:04:21Z</time>
      </trkpt>
      <trkpt lat="46.45827" lon="2.58573">
        <ele>215.7</ele>
        <time>2018-10-14T07:04:23Z</time>
      </trkpt>
      <trkpt lat="46.45835" lon="2.5857">
        <ele>215.8</ele>
        <time>2018-10-14T07:04:25Z</time>
      </trkpt>
      <trkpt lat="46.45842" lon="2.58567">
        <ele>216</ele>
        <time>2018-10-14T07:04:27Z</time>
      </trkpt>
      <trkpt lat="46.45849" lon="2.58564">
        <ele>216.5</ele>
        <time>2018-10-14T07:04:29Z</time>
      </trkpt>
      <trkpt lat="46.45853" lon="2.58562">
        <ele>216.6</ele>
        <time>2018-10-14T07:04:30Z</time>
      </trkpt>
      <trkpt lat="46.45864" lon="2.58557">
        <ele>217.5</ele>
        <time>2018-10-14T07:04:33Z</time>
      </trkpt>
      <trkpt lat="46.45872" lon="2.58553">
        <ele>218</ele>
        <time>2018-10-14T07:04:35Z</time>
      </trkpt>
      <trkpt lat="46.45879" lon="2.58549">
        <ele>218.8</ele>
        <time>2018-10-14T07:04:37Z</time>
      </trkpt>
      <trkpt lat="46.45887" lon="2.58546">
        <ele>218.5</ele>
        <time>2018-10-14T07:04:39Z</time>
      </trkpt>
      <trkpt lat="46.45895" lon="2.58542">
        <ele>218.9</ele>
        <time>2018-10-14T07:04:41Z</time>
      </trkpt>
      <trkpt lat="46.45903" lon="2.58538">
        <ele>219.3</ele>
        <time>2018-10-14T07:04:43Z</time>
      </trkpt>
      <trkpt lat="46.45911" lon="2.58535">
        <ele>219.6</ele>
        <time>2018-10-14T07:04:45Z</time>
      </trkpt>
      <trkpt lat="46.45918" lon="2.58531">
        <ele>219.7</ele>
        <time>2018-10-14T07:04:47Z</time>
      </trkpt>
      <trkpt lat="46.45925" lon="2.58527">
        <ele>219.9</ele>
        <time>2018-10-14T07:04:49Z</time>
      </trkpt>
      <trkpt lat="46.45932" lon="2.58524">
        <ele>220.3</ele>
        <time>2018-10-14T07:04:51Z</time>
      </trkpt>
      <trkpt lat="46.45939" lon="2.5852">
        <ele>220.8</ele>
        <time>2018-10-14T07:04:53Z</time>
      </trkpt>
      <trkpt lat="46.45945" lon="2.58518">
        <ele>221.3</ele>
        <time>2018-10-14T07:04:55Z</time>
      </trkpt>
      <trkpt lat="46.45953" lon="2.58517">
        <ele>222.1</ele>
        <time>2018-10-14T07:04:58Z</time>
      </trkpt>
      <trkpt lat="46.45962" lon="2.58514">
        <ele>222.9</ele>
        <time>2018-10-14T07:05:01Z</time>
      </trkpt>
      <trkpt lat="46.45968" lon="2.58509">
        <ele>222.7</ele>
        <time>2018-10-14T07:05:03Z</time>
      </trkpt>
      <trkpt lat="46.45974" lon="2.58504">
        <ele>223</ele>
        <time>2018-10-14T07:05:05Z</time>
      </trkpt>
      <trkpt lat="46.45981" lon="2.58499">
        <ele>222.3</ele>
        <time>2018-10-14T07:05:07Z</time>
      </trkpt>
      <trkpt lat="46.45988" lon="2.58494">
        <ele>222.4</ele>
        <time>2018-10-14T07:05:09Z</time>
      </trkpt>
      <trkpt lat="46.45995" lon="2.58489">
        <ele>222.7</ele>
        <time>2018-10-14T07:05:11Z</time>
      </trkpt>
      <trkpt lat="46.46002" lon="2.58484">
        <ele>223.3</ele>
        <time>2018-10-14T07:05:13Z</time>
      </trkpt>
      <trkpt lat="46.4601" lon="2.58479">
        <ele>223.9</ele>
        <time>2018-10-14T07:05:15Z</time>
      </trkpt>
      <trkpt lat="46.46018" lon="2.58475">
        <ele>223.5</ele>
        <time>2018-10-14T07:05:17Z</time>
      </trkpt>
      <trkpt lat="46.46026" lon="2.5847">
        <ele>223.8</ele>
        <time>2018-10-14T07:05:19Z</time>
      </trkpt>
      <trkpt lat="46.46034" lon="2.58465">
        <ele>224.2</ele>
        <time>2018-10-14T07:05:21Z</time>
      </trkpt>
      <trkpt lat="46.46042" lon="2.5846">
        <ele>224.6</ele>
        <time>2018-10-14T07:05:23Z</time>
      </trkpt>
      <trkpt lat="46.4605" lon="2.58456">
        <ele>224.4</ele>
        <time>2018-10-14T07:05:25Z</time>
      </trkpt>
      <trkpt lat="46.46055" lon="2.58454">
        <ele>224.1</ele>
        <time>2018-10-14T07:05:26Z</time>
      </trkpt>
      <trkpt lat="46.4606" lon="2.58453">
        <ele>223.8</ele>
        <time>2018-10-14T07:05:27Z</time>
      </trkpt>
      <trkpt lat="46.46065" lon="2.5845">
        <ele>224.4</ele>
        <time>2018-10-14T07:05:28Z</time>
      </trkpt>
      <trkpt lat="46.46071" lon="2.58448">
        <ele>224.9</ele>
        <time>2018-10-14T07:05:29Z</time>
      </trkpt>
      <trkpt lat="46.46076" lon="2.58446">
        <ele>224.9</ele>
        <time>2018-10-14T07:05:30Z</time>
      </trkpt>
      <trkpt lat="46.46081" lon="2.58444">
        <ele>224.9</ele>
        <time>2018-10-14T07:05:31Z</time>
      </trkpt>
      <trkpt lat="46.46086" lon="2.58442">
        <ele>225.7</ele>
        <time>2018-10-14T07:05:32Z</time>
      </trkpt>
      <trkpt lat="46.46091" lon="2.5844">
        <ele>226.2</ele>
        <time>2018-10-14T07:05:33Z</time>
      </trkpt>
      <trkpt lat="46.46099" lon="2.58436">
        <ele>226.1</ele>
        <time>2018-10-14T07:05:35Z</time>
      </trkpt>
      <trkpt lat="46.46104" lon="2.58434">
        <ele>225.6</ele>
        <time>2018-10-14T07:05:36Z</time>
      </trkpt>
      <trkpt lat="46.46108" lon="2.58432">
        <ele>225.6</ele>
        <time>2018-10-14T07:05:37Z</time>
      </trkpt>
      <trkpt lat="46.46113" lon="2.5843">
        <ele>225.6</ele>
        <time>2018-10-14T07:05:38Z</time>
      </trkpt>
      <trkpt lat="46.46118" lon="2.58428">
        <ele>225.6</ele>
        <time>2018-10-14T07:05:39Z</time>
      </trkpt>
      <trkpt lat="46.46122" lon="2.58425">
        <ele>225.6</ele>
        <time>2018-10-14T07:05:40Z</time>
      </trkpt>
      <trkpt lat="46.46128" lon="2.58423">
        <ele>225.7</ele>
        <time>2018-10-14T07:05:41Z</time>
      </trkpt>
      <trkpt lat="46.46133" lon="2.5842">
        <ele>225.7</ele>
        <time>2018-10-14T07:05:42Z</time>
      </trkpt>
      <trkpt lat="46.46139" lon="2.58418">
        <ele>225.7</ele>
        <time>2018-10-14T07:05:43Z</time>
      </trkpt>
      <trkpt lat="46.46145" lon="2.58416">
        <ele>225.3</ele>
        <time>2018-10-14T07:05:44Z</time>
      </trkpt>
      <trkpt lat="46.46151" lon="2.58413">
        <ele>225</ele>
        <time>2018-10-14T07:05:45Z</time>
      </trkpt>
      <trkpt lat="46.46157" lon="2.58411">
        <ele>224.8</ele>
        <time>2018-10-14T07:05:46Z</time>
      </trkpt>
      <trkpt lat="46.46164" lon="2.58409">
        <ele>224.5</ele>
        <time>2018-10-14T07:05:47Z</time>
      </trkpt>
      <trkpt lat="46.4617" lon="2.58407">
        <ele>224.3</ele>
        <time>2018-10-14T07:05:48Z</time>
      </trkpt>
      <trkpt lat="46.46176" lon="2.58406">
        <ele>224</ele>
        <time>2018-10-14T07:05:49Z</time>
      </trkpt>
      <trkpt lat="46.46183" lon="2.58404">
        <ele>223.8</ele>
        <time>2018-10-14T07:05:50Z</time>
      </trkpt>
      <trkpt lat="46.4619" lon="2.58402">
        <ele>223.6</ele>
        <time>2018-10-14T07:05:51Z</time>
      </trkpt>
      <trkpt lat="46.46197" lon="2.58399">
        <ele>223.5</ele>
        <time>2018-10-14T07:05:52Z</time>
      </trkpt>
      <trkpt lat="46.46205" lon="2.58397">
        <ele>223.4</ele>
        <time>2018-10-14T07:05:53Z</time>
      </trkpt>
      <trkpt lat="46.46213" lon="2.58395">
        <ele>222.7</ele>
        <time>2018-10-14T07:05:54Z</time>
      </trkpt>
      <trkpt lat="46.46222" lon="2.58394">
        <ele>222.2</ele>
        <time>2018-10-14T07:05:55Z</time>
      </trkpt>
      <trkpt lat="46.4623" lon="2.58394">
        <ele>221.8</ele>
        <time>2018-10-14T07:05:56Z</time>
      </trkpt>
      <trkpt lat="46.46239" lon="2.58394">
        <ele>221.6</ele>
        <time>2018-10-14T07:05:57Z</time>
      </trkpt>
      <trkpt lat="46.46248" lon="2.58395">
        <ele>221.4</ele>
        <time>2018-10-14T07:05:58Z</time>
      </trkpt>
      <trkpt lat="46.46256" lon="2.58396">
        <ele>221</ele>
        <time>2018-10-14T07:05:59Z</time>
      </trkpt>
      <trkpt lat="46.46265" lon="2.58399">
        <ele>220.7</ele>
        <time>2018-10-14T07:06:00Z</time>
      </trkpt>
      <trkpt lat="46.46274" lon="2.584">
        <ele>220.1</ele>
        <time>2018-10-14T07:06:01Z</time>
      </trkpt>
      <trkpt lat="46.46283" lon="2.58402">
        <ele>219.7</ele>
        <time>2018-10-14T07:06:02Z</time>
      </trkpt>
      <trkpt lat="46.46292" lon="2.58404">
        <ele>219</ele>
        <time>2018-10-14T07:06:03Z</time>
      </trkpt>
      <trkpt lat="46.46301" lon="2.58405">
        <ele>218.5</ele>
        <time>2018-10-14T07:06:04Z</time>
      </trkpt>
      <trkpt lat="46.46311" lon="2.58406">
        <ele>218.1</ele>
        <time>2018-10-14T07:06:05Z</time>
      </trkpt>
      <trkpt lat="46.4632" lon="2.58407">
        <ele>217.5</ele>
        <time>2018-10-14T07:06:06Z</time>
      </trkpt>
      <trkpt lat="46.46329" lon="2.58409">
        <ele>217</ele>
        <time>2018-10-14T07:06:07Z</time>
      </trkpt>
      <trkpt lat="46.46338" lon="2.5841">
        <ele>216.4</ele>
        <time>2018-10-14T07:06:08Z</time>
      </trkpt>
      <trkpt lat="46.46347" lon="2.58411">
        <ele>215.9</ele>
        <time>2018-10-14T07:06:09Z</time>
      </trkpt>
      <trkpt lat="46.46357" lon="2.58411">
        <ele>215.4</ele>
        <time>2018-10-14T07:06:10Z</time>
      </trkpt>
      <trkpt lat="46.46366" lon="2.5841">
        <ele>215</ele>
        <time>2018-10-14T07:06:11Z</time>
      </trkpt>
      <trkpt lat="46.46374" lon="2.58409">
        <ele>214.7</ele>
        <time>2018-10-14T07:06:12Z</time>
      </trkpt>
      <trkpt lat="46.46383" lon="2.58407">
        <ele>213.9</ele>
        <time>2018-10-14T07:06:13Z</time>
      </trkpt>
      <trkpt lat="46.46392" lon="2.58404">
        <ele>213.3</ele>
        <time>2018-10-14T07:06:14Z</time>
      </trkpt>
      <trkpt lat="46.464" lon="2.58401">
        <ele>213</ele>
        <time>2018-10-14T07:06:15Z</time>
      </trkpt>
      <trkpt lat="46.46409" lon="2.58398">
        <ele>212.8</ele>
        <time>2018-10-14T07:06:16Z</time>
      </trkpt>
      <trkpt lat="46.46417" lon="2.58396">
        <ele>212.6</ele>
        <time>2018-10-14T07:06:17Z</time>
      </trkpt>
      <trkpt lat="46.46425" lon="2.58393">
        <ele>212.4</ele>
        <time>2018-10-14T07:06:18Z</time>
      </trkpt>
      <trkpt lat="46.46433" lon="2.58389">
        <ele>212.2</ele>
        <time>2018-10-14T07:06:19Z</time>
      </trkpt>
      <trkpt lat="46.46441" lon="2.58386">
        <ele>211.9</ele>
        <time>2018-10-14T07:06:20Z</time>
      </trkpt>
      <trkpt lat="46.46449" lon="2.58382">
        <ele>211.7</ele>
        <time>2018-10-14T07:06:21Z</time>
      </trkpt>
      <trkpt lat="46.46457" lon="2.58378">
        <ele>211.2</ele>
        <time>2018-10-14T07:06:22Z</time>
      </trkpt>
      <trkpt lat="46.46464" lon="2.58375">
        <ele>210.9</ele>
        <time>2018-10-14T07:06:23Z</time>
      </trkpt>
      <trkpt lat="46.46472" lon="2.58371">
        <ele>210.6</ele>
        <time>2018-10-14T07:06:24Z</time>
      </trkpt>
      <trkpt lat="46.46479" lon="2.58367">
        <ele>210.3</ele>
        <time>2018-10-14T07:06:25Z</time>
      </trkpt>
      <trkpt lat="46.46485" lon="2.58364">
        <ele>210.2</ele>
        <time>2018-10-14T07:06:26Z</time>
      </trkpt>
      <trkpt lat="46.46492" lon="2.5836">
        <ele>209.8</ele>
        <time>2018-10-14T07:06:27Z</time>
      </trkpt>
      <trkpt lat="46.46498" lon="2.58357">
        <ele>209.6</ele>
        <time>2018-10-14T07:06:28Z</time>
      </trkpt>
      <trkpt lat="46.46505" lon="2.58353">
        <ele>209.8</ele>
        <time>2018-10-14T07:06:29Z</time>
      </trkpt>
      <trkpt lat="46.46511" lon="2.5835">
        <ele>209.9</ele>
        <time>2018-10-14T07:06:30Z</time>
      </trkpt>
      <trkpt lat="46.46517" lon="2.58346">
        <ele>210</ele>
        <time>2018-10-14T07:06:31Z</time>
      </trkpt>
      <trkpt lat="46.46523" lon="2.58343">
        <ele>209.9</ele>
        <time>2018-10-14T07:06:32Z</time>
      </trkpt>
      <trkpt lat="46.46529" lon="2.58339">
        <ele>209.8</ele>
        <time>2018-10-14T07:06:33Z</time>
      </trkpt>
      <trkpt lat="46.46536" lon="2.58336">
        <ele>209.5</ele>
        <time>2018-10-14T07:06:34Z</time>
      </trkpt>
      <trkpt lat="46.46542" lon="2.58332">
        <ele>209.2</ele>
        <time>2018-10-14T07:06:35Z</time>
      </trkpt>
      <trkpt lat="46.46548" lon="2.58329">
        <ele>209</ele>
        <time>2018-10-14T07:06:36Z</time>
      </trkpt>
      <trkpt lat="46.46553" lon="2.58326">
        <ele>209</ele>
        <time>2018-10-14T07:06:37Z</time>
      </trkpt>
      <trkpt lat="46.46559" lon="2.58323">
        <ele>209</ele>
        <time>2018-10-14T07:06:38Z</time>
      </trkpt>
      <trkpt lat="46.46565" lon="2.58319">
        <ele>208.8</ele>
        <time>2018-10-14T07:06:39Z</time>
      </trkpt>
      <trkpt lat="46.46571" lon="2.58316">
        <ele>208.7</ele>
        <time>2018-10-14T07:06:40Z</time>
      </trkpt>
      <trkpt lat="46.46576" lon="2.58313">
        <ele>208.8</ele>
        <time>2018-10-14T07:06:41Z</time>
      </trkpt>
      <trkpt lat="46.46582" lon="2.58311">
        <ele>208.8</ele>
        <time>2018-10-14T07:06:42Z</time>
      </trkpt>
      <trkpt lat="46.46587" lon="2.58308">
        <ele>208.8</ele>
        <time>2018-10-14T07:06:43Z</time>
      </trkpt>
      <trkpt lat="46.46592" lon="2.58305">
        <ele>208.6</ele>
        <time>2018-10-14T07:06:44Z</time>
      </trkpt>
      <trkpt lat="46.46597" lon="2.58303">
        <ele>208.4</ele>
        <time>2018-10-14T07:06:45Z</time>
      </trkpt>
      <trkpt lat="46.46603" lon="2.583">
        <ele>208.4</ele>
        <time>2018-10-14T07:06:46Z</time>
      </trkpt>
      <trkpt lat="46.46608" lon="2.58297">
        <ele>208.4</ele>
        <time>2018-10-14T07:06:47Z</time>
      </trkpt>
      <trkpt lat="46.46613" lon="2.58294">
        <ele>208.5</ele>
        <time>2018-10-14T07:06:48Z</time>
      </trkpt>
      <trkpt lat="46.46619" lon="2.58292">
        <ele>208.5</ele>
        <time>2018-10-14T07:06:49Z</time>
      </trkpt>
      <trkpt lat="46.46624" lon="2.58289">
        <ele>208.6</ele>
        <time>2018-10-14T07:06:50Z</time>
      </trkpt>
      <trkpt lat="46.46629" lon="2.58286">
        <ele>208.2</ele>
        <time>2018-10-14T07:06:51Z</time>
      </trkpt>
      <trkpt lat="46.46635" lon="2.58284">
        <ele>208</ele>
        <time>2018-10-14T07:06:52Z</time>
      </trkpt>
      <trkpt lat="46.4664" lon="2.5828">
        <ele>208.2</ele>
        <time>2018-10-14T07:06:53Z</time>
      </trkpt>
      <trkpt lat="46.46645" lon="2.58277">
        <ele>208.4</ele>
        <time>2018-10-14T07:06:54Z</time>
      </trkpt>
      <trkpt lat="46.4665" lon="2.58274">
        <ele>208.5</ele>
        <time>2018-10-14T07:06:55Z</time>
      </trkpt>
      <trkpt lat="46.46654" lon="2.5827">
        <ele>208.6</ele>
        <time>2018-10-14T07:06:56Z</time>
      </trkpt>
      <trkpt lat="46.46655" lon="2.58257">
        <ele>208.6</ele>
        <time>2018-10-14T07:06:58Z</time>
      </trkpt>
      <trkpt lat="46.46651" lon="2.58247">
        <ele>208.4</ele>
        <time>2018-10-14T07:07:00Z</time>
      </trkpt>
      <trkpt lat="46.46646" lon="2.58236">
        <ele>208.2</ele>
        <time>2018-10-14T07:07:02Z</time>
      </trkpt>
      <trkpt lat="46.46641" lon="2.58225">
        <ele>208.6</ele>
        <time>2018-10-14T07:07:04Z</time>
      </trkpt>
      <trkpt lat="46.46637" lon="2.58215">
        <ele>208.9</ele>
        <time>2018-10-14T07:07:06Z</time>
      </trkpt>
      <trkpt lat="46.46632" lon="2.58204">
        <ele>209.6</ele>
        <time>2018-10-14T07:07:08Z</time>
      </trkpt>
      <trkpt lat="46.46627" lon="2.58194">
        <ele>210.2</ele>
        <time>2018-10-14T07:07:10Z</time>
      </trkpt>
      <trkpt lat="46.46623" lon="2.58184">
        <ele>210.2</ele>
        <time>2018-10-14T07:07:12Z</time>
      </trkpt>
      <trkpt lat="46.46619" lon="2.58174">
        <ele>209.8</ele>
        <time>2018-10-14T07:07:14Z</time>
      </trkpt>
      <trkpt lat="46.46614" lon="2.58164">
        <ele>210.1</ele>
        <time>2018-10-14T07:07:16Z</time>
      </trkpt>
      <trkpt lat="46.4661" lon="2.58154">
        <ele>210.4</ele>
        <time>2018-10-14T07:07:18Z</time>
      </trkpt>
      <trkpt lat="46.46605" lon="2.58145">
        <ele>211.1</ele>
        <time>2018-10-14T07:07:20Z</time>
      </trkpt>
      <trkpt lat="46.466" lon="2.58136">
        <ele>211.7</ele>
        <time>2018-10-14T07:07:22Z</time>
      </trkpt>
      <trkpt lat="46.46595" lon="2.58128">
        <ele>212.3</ele>
        <time>2018-10-14T07:07:24Z</time>
      </trkpt>
      <trkpt lat="46.4659" lon="2.5812">
        <ele>212.4</ele>
        <time>2018-10-14T07:07:26Z</time>
      </trkpt>
      <trkpt lat="46.46585" lon="2.58113">
        <ele>212.4</ele>
        <time>2018-10-14T07:07:28Z</time>
      </trkpt>
      <trkpt lat="46.46579" lon="2.58106">
        <ele>212.9</ele>
        <time>2018-10-14T07:07:30Z</time>
      </trkpt>
      <trkpt lat="46.46573" lon="2.58099">
        <ele>213.7</ele>
        <time>2018-10-14T07:07:32Z</time>
      </trkpt>
      <trkpt lat="46.4657" lon="2.58096">
        <ele>214</ele>
        <time>2018-10-14T07:07:33Z</time>
      </trkpt>
      <trkpt lat="46.46561" lon="2.58087">
        <ele>215.1</ele>
        <time>2018-10-14T07:07:36Z</time>
      </trkpt>
      <trkpt lat="46.46556" lon="2.58081">
        <ele>215.7</ele>
        <time>2018-10-14T07:07:38Z</time>
      </trkpt>
      <trkpt lat="46.4655" lon="2.58075">
        <ele>216.3</ele>
        <time>2018-10-14T07:07:40Z</time>
      </trkpt>
      <trkpt lat="46.46544" lon="2.58068">
        <ele>216.8</ele>
        <time>2018-10-14T07:07:42Z</time>
      </trkpt>
      <trkpt lat="46.46539" lon="2.58061">
        <ele>216.8</ele>
        <time>2018-10-14T07:07:44Z</time>
      </trkpt>
      <trkpt lat="46.46533" lon="2.58053">
        <ele>217.2</ele>
        <time>2018-10-14T07:07:46Z</time>
      </trkpt>
      <trkpt lat="46.46528" lon="2.58046">
        <ele>217.8</ele>
        <time>2018-10-14T07:07:48Z</time>
      </trkpt>
      <trkpt lat="46.46523" lon="2.58038">
        <ele>218.3</ele>
        <time>2018-10-14T07:07:50Z</time>
      </trkpt>
      <trkpt lat="46.46518" lon="2.5803">
        <ele>218.5</ele>
        <time>2018-10-14T07:07:52Z</time>
      </trkpt>
      <trkpt lat="46.46512" lon="2.58022">
        <ele>218.5</ele>
        <time>2018-10-14T07:07:54Z</time>
      </trkpt>
      <trkpt lat="46.46507" lon="2.58014">
        <ele>218.7</ele>
        <time>2018-10-14T07:07:56Z</time>
      </trkpt>
      <trkpt lat="46.46503" lon="2.58006">
        <ele>219.3</ele>
        <time>2018-10-14T07:07:58Z</time>
      </trkpt>
      <trkpt lat="46.46499" lon="2.57998">
        <ele>219.2</ele>
        <time>2018-10-14T07:08:00Z</time>
      </trkpt>
      <trkpt lat="46.46495" lon="2.5799">
        <ele>219.3</ele>
        <time>2018-10-14T07:08:02Z</time>
      </trkpt>
      <trkpt lat="46.4649" lon="2.57982">
        <ele>219.5</ele>
        <time>2018-10-14T07:08:04Z</time>
      </trkpt>
      <trkpt lat="46.46486" lon="2.57973">
        <ele>219.5</ele>
        <time>2018-10-14T07:08:06Z</time>
      </trkpt>
      <trkpt lat="46.46482" lon="2.57965">
        <ele>219.8</ele>
        <time>2018-10-14T07:08:08Z</time>
      </trkpt>
      <trkpt lat="46.46478" lon="2.57957">
        <ele>220.6</ele>
        <time>2018-10-14T07:08:10Z</time>
      </trkpt>
      <trkpt lat="46.46474" lon="2.5795">
        <ele>220.6</ele>
        <time>2018-10-14T07:08:12Z</time>
      </trkpt>
      <trkpt lat="46.4647" lon="2.57941">
        <ele>220.3</ele>
        <time>2018-10-14T07:08:14Z</time>
      </trkpt>
      <trkpt lat="46.46465" lon="2.57933">
        <ele>220.5</ele>
        <time>2018-10-14T07:08:16Z</time>
      </trkpt>
      <trkpt lat="46.4646" lon="2.57925">
        <ele>221</ele>
        <time>2018-10-14T07:08:18Z</time>
      </trkpt>
      <trkpt lat="46.46456" lon="2.57917">
        <ele>221.1</ele>
        <time>2018-10-14T07:08:20Z</time>
      </trkpt>
      <trkpt lat="46.46451" lon="2.57909">
        <ele>221.8</ele>
        <time>2018-10-14T07:08:22Z</time>
      </trkpt>
      <trkpt lat="46.46447" lon="2.57902">
        <ele>223</ele>
        <time>2018-10-14T07:08:24Z</time>
      </trkpt>
      <trkpt lat="46.46442" lon="2.57896">
        <ele>224</ele>
        <time>2018-10-14T07:08:26Z</time>
      </trkpt>
      <trkpt lat="46.46438" lon="2.57889">
        <ele>224.3</ele>
        <time>2018-10-14T07:08:28Z</time>
      </trkpt>
      <trkpt lat="46.46432" lon="2.57884">
        <ele>224.1</ele>
        <time>2018-10-14T07:08:30Z</time>
      </trkpt>
      <trkpt lat="46.46427" lon="2.57878">
        <ele>224.1</ele>
        <time>2018-10-14T07:08:32Z</time>
      </trkpt>
      <trkpt lat="46.46421" lon="2.57871">
        <ele>225.3</ele>
        <time>2018-10-14T07:08:34Z</time>
      </trkpt>
      <trkpt lat="46.46418" lon="2.57868">
        <ele>225.9</ele>
        <time>2018-10-14T07:08:35Z</time>
      </trkpt>
      <trkpt lat="46.4641" lon="2.5786">
        <ele>226.5</ele>
        <time>2018-10-14T07:08:38Z</time>
      </trkpt>
      <trkpt lat="46.46405" lon="2.57854">
        <ele>226.9</ele>
        <time>2018-10-14T07:08:40Z</time>
      </trkpt>
      <trkpt lat="46.464" lon="2.57848">
        <ele>227.4</ele>
        <time>2018-10-14T07:08:42Z</time>
      </trkpt>
      <trkpt lat="46.46395" lon="2.57842">
        <ele>227.4</ele>
        <time>2018-10-14T07:08:44Z</time>
      </trkpt>
      <trkpt lat="46.46389" lon="2.57833">
        <ele>228.4</ele>
        <time>2018-10-14T07:08:47Z</time>
      </trkpt>
      <trkpt lat="46.46384" lon="2.57823">
        <ele>229.1</ele>
        <time>2018-10-14T07:08:50Z</time>
      </trkpt>
      <trkpt lat="46.46379" lon="2.57814">
        <ele>230.1</ele>
        <time>2018-10-14T07:08:53Z</time>
      </trkpt>
      <trkpt lat="46.46375" lon="2.57803">
        <ele>231.1</ele>
        <time>2018-10-14T07:08:56Z</time>
      </trkpt>
      <trkpt lat="46.46371" lon="2.57792">
        <ele>230.5</ele>
        <time>2018-10-14T07:08:59Z</time>
      </trkpt>
      <trkpt lat="46.46367" lon="2.57782">
        <ele>231.3</ele>
        <time>2018-10-14T07:09:02Z</time>
      </trkpt>
      <trkpt lat="46.46364" lon="2.57771">
        <ele>232.1</ele>
        <time>2018-10-14T07:09:05Z</time>
      </trkpt>
      <trkpt lat="46.4636" lon="2.57759">
        <ele>233</ele>
        <time>2018-10-14T07:09:08Z</time>
      </trkpt>
      <trkpt lat="46.46358" lon="2.57751">
        <ele>233.8</ele>
        <time>2018-10-14T07:09:10Z</time>
      </trkpt>
      <trkpt lat="46.46356" lon="2.57742">
        <ele>233.9</ele>
        <time>2018-10-14T07:09:12Z</time>
      </trkpt>
      <trkpt lat="46.46353" lon="2.57733">
        <ele>234.5</ele>
        <time>2018-10-14T07:09:14Z</time>
      </trkpt>
      <trkpt lat="46.4635" lon="2.57724">
        <ele>235.1</ele>
        <time>2018-10-14T07:09:16Z</time>
      </trkpt>
      <trkpt lat="46.46347" lon="2.57715">
        <ele>235.3</ele>
        <time>2018-10-14T07:09:18Z</time>
      </trkpt>
      <trkpt lat="46.46344" lon="2.57707">
        <ele>235</ele>
        <time>2018-10-14T07:09:20Z</time>
      </trkpt>
      <trkpt lat="46.46341" lon="2.57698">
        <ele>234.7</ele>
        <time>2018-10-14T07:09:22Z</time>
      </trkpt>
      <trkpt lat="46.46339" lon="2.57689">
        <ele>235</ele>
        <time>2018-10-14T07:09:24Z</time>
      </trkpt>
      <trkpt lat="46.46336" lon="2.57677">
        <ele>235.6</ele>
        <time>2018-10-14T07:09:27Z</time>
      </trkpt>
      <trkpt lat="46.46334" lon="2.57667">
        <ele>236.2</ele>
        <time>2018-10-14T07:09:29Z</time>
      </trkpt>
      <trkpt lat="46.46331" lon="2.57657">
        <ele>237.1</ele>
        <time>2018-10-14T07:09:31Z</time>
      </trkpt>
      <trkpt lat="46.46329" lon="2.57647">
        <ele>237.3</ele>
        <time>2018-10-14T07:09:33Z</time>
      </trkpt>
      <trkpt lat="46.46326" lon="2.57637">
        <ele>237.5</ele>
        <time>2018-10-14T07:09:35Z</time>
      </trkpt>
      <trkpt lat="46.46325" lon="2.57632">
        <ele>237.5</ele>
        <time>2018-10-14T07:09:36Z</time>
      </trkpt>
      <trkpt lat="46.46321" lon="2.57619">
        <ele>238.2</ele>
        <time>2018-10-14T07:09:39Z</time>
      </trkpt>
      <trkpt lat="46.46319" lon="2.5761">
        <ele>238.6</ele>
        <time>2018-10-14T07:09:41Z</time>
      </trkpt>
      <trkpt lat="46.46317" lon="2.57598">
        <ele>238.7</ele>
        <time>2018-10-14T07:09:44Z</time>
      </trkpt>
      <trkpt lat="46.46315" lon="2.57589">
        <ele>239.5</ele>
        <time>2018-10-14T07:09:46Z</time>
      </trkpt>
      <trkpt lat="46.46313" lon="2.5758">
        <ele>240.1</ele>
        <time>2018-10-14T07:09:48Z</time>
      </trkpt>
      <trkpt lat="46.4631" lon="2.57571">
        <ele>240.1</ele>
        <time>2018-10-14T07:09:50Z</time>
      </trkpt>
      <trkpt lat="46.46306" lon="2.57562">
        <ele>240.5</ele>
        <time>2018-10-14T07:09:52Z</time>
      </trkpt>
      <trkpt lat="46.46302" lon="2.57553">
        <ele>241</ele>
        <time>2018-10-14T07:09:54Z</time>
      </trkpt>
      <trkpt lat="46.46296" lon="2.57546">
        <ele>241.4</ele>
        <time>2018-10-14T07:09:56Z</time>
      </trkpt>
      <trkpt lat="46.46291" lon="2.57539">
        <ele>241.9</ele>
        <time>2018-10-14T07:09:58Z</time>
      </trkpt>
      <trkpt lat="46.46286" lon="2.57532">
        <ele>242.2</ele>
        <time>2018-10-14T07:10:00Z</time>
      </trkpt>
      <trkpt lat="46.46281" lon="2.57526">
        <ele>242.5</ele>
        <time>2018-10-14T07:10:02Z</time>
      </trkpt>
      <trkpt lat="46.46276" lon="2.5752">
        <ele>242.7</ele>
        <time>2018-10-14T07:10:04Z</time>
      </trkpt>
      <trkpt lat="46.4627" lon="2.57514">
        <ele>243.2</ele>
        <time>2018-10-14T07:10:06Z</time>
      </trkpt>
      <trkpt lat="46.46266" lon="2.57507">
        <ele>243.7</ele>
        <time>2018-10-14T07:10:08Z</time>
      </trkpt>
      <trkpt lat="46.46261" lon="2.575">
        <ele>244.6</ele>
        <time>2018-10-14T07:10:10Z</time>
      </trkpt>
      <trkpt lat="46.46255" lon="2.57492">
        <ele>245.5</ele>
        <time>2018-10-14T07:10:12Z</time>
      </trkpt>
      <trkpt lat="46.4625" lon="2.57485">
        <ele>245.5</ele>
        <time>2018-10-14T07:10:14Z</time>
      </trkpt>
      <trkpt lat="46.46245" lon="2.57478">
        <ele>245.4</ele>
        <time>2018-10-14T07:10:16Z</time>
      </trkpt>
      <trkpt lat="46.4624" lon="2.57472">
        <ele>245.6</ele>
        <time>2018-10-14T07:10:18Z</time>
      </trkpt>
      <trkpt lat="46.46236" lon="2.57466">
        <ele>245.7</ele>
        <time>2018-10-14T07:10:20Z</time>
      </trkpt>
      <trkpt lat="46.4623" lon="2.5746">
        <ele>245.9</ele>
        <time>2018-10-14T07:10:22Z</time>
      </trkpt>
      <trkpt lat="46.46224" lon="2.57454">
        <ele>246.4</ele>
        <time>2018-10-14T07:10:24Z</time>
      </trkpt>
      <trkpt lat="46.46219" lon="2.57447">
        <ele>247</ele>
        <time>2018-10-14T07:10:26Z</time>
      </trkpt>
      <trkpt lat="46.46214" lon="2.5744">
        <ele>247.2</ele>
        <time>2018-10-14T07:10:28Z</time>
      </trkpt>
      <trkpt lat="46.4621" lon="2.57433">
        <ele>247.9</ele>
        <time>2018-10-14T07:10:30Z</time>
      </trkpt>
      <trkpt lat="46.46205" lon="2.57425">
        <ele>248.5</ele>
        <time>2018-10-14T07:10:32Z</time>
      </trkpt>
      <trkpt lat="46.462" lon="2.57417">
        <ele>248.8</ele>
        <time>2018-10-14T07:10:34Z</time>
      </trkpt>
      <trkpt lat="46.46195" lon="2.57409">
        <ele>249.3</ele>
        <time>2018-10-14T07:10:36Z</time>
      </trkpt>
      <trkpt lat="46.46192" lon="2.57405">
        <ele>249.6</ele>
        <time>2018-10-14T07:10:37Z</time>
      </trkpt>
      <trkpt lat="46.46183" lon="2.57394">
        <ele>249.6</ele>
        <time>2018-10-14T07:10:40Z</time>
      </trkpt>
      <trkpt lat="46.46177" lon="2.57389">
        <ele>249.4</ele>
        <time>2018-10-14T07:10:42Z</time>
      </trkpt>
      <trkpt lat="46.4617" lon="2.57384">
        <ele>248.7</ele>
        <time>2018-10-14T07:10:44Z</time>
      </trkpt>
      <trkpt lat="46.46163" lon="2.57381">
        <ele>249</ele>
        <time>2018-10-14T07:10:46Z</time>
      </trkpt>
      <trkpt lat="46.46157" lon="2.57376">
        <ele>249.9</ele>
        <time>2018-10-14T07:10:48Z</time>
      </trkpt>
      <trkpt lat="46.4615" lon="2.57372">
        <ele>250.3</ele>
        <time>2018-10-14T07:10:50Z</time>
      </trkpt>
      <trkpt lat="46.46142" lon="2.57368">
        <ele>250.4</ele>
        <time>2018-10-14T07:10:52Z</time>
      </trkpt>
      <trkpt lat="46.46135" lon="2.57364">
        <ele>250.3</ele>
        <time>2018-10-14T07:10:54Z</time>
      </trkpt>
      <trkpt lat="46.46128" lon="2.5736">
        <ele>250.6</ele>
        <time>2018-10-14T07:10:56Z</time>
      </trkpt>
      <trkpt lat="46.46122" lon="2.57355">
        <ele>250.6</ele>
        <time>2018-10-14T07:10:58Z</time>
      </trkpt>
      <trkpt lat="46.46116" lon="2.57349">
        <ele>251</ele>
        <time>2018-10-14T07:11:00Z</time>
      </trkpt>
      <trkpt lat="46.4611" lon="2.57342">
        <ele>251.7</ele>
        <time>2018-10-14T07:11:02Z</time>
      </trkpt>
      <trkpt lat="46.46105" lon="2.57335">
        <ele>252.2</ele>
        <time>2018-10-14T07:11:04Z</time>
      </trkpt>
      <trkpt lat="46.461" lon="2.57328">
        <ele>253.1</ele>
        <time>2018-10-14T07:11:06Z</time>
      </trkpt>
      <trkpt lat="46.46094" lon="2.57322">
        <ele>253.6</ele>
        <time>2018-10-14T07:11:08Z</time>
      </trkpt>
      <trkpt lat="46.46089" lon="2.57315">
        <ele>253.5</ele>
        <time>2018-10-14T07:11:10Z</time>
      </trkpt>
      <trkpt lat="46.46083" lon="2.57308">
        <ele>253.6</ele>
        <time>2018-10-14T07:11:12Z</time>
      </trkpt>
      <trkpt lat="46.46078" lon="2.57302">
        <ele>254</ele>
        <time>2018-10-14T07:11:14Z</time>
      </trkpt>
      <trkpt lat="46.46072" lon="2.57294">
        <ele>254.4</ele>
        <time>2018-10-14T07:11:16Z</time>
      </trkpt>
      <trkpt lat="46.46067" lon="2.57287">
        <ele>255.2</ele>
        <time>2018-10-14T07:11:18Z</time>
      </trkpt>
      <trkpt lat="46.46061" lon="2.5728">
        <ele>255.9</ele>
        <time>2018-10-14T07:11:20Z</time>
      </trkpt>
      <trkpt lat="46.46055" lon="2.57272">
        <ele>256.5</ele>
        <time>2018-10-14T07:11:22Z</time>
      </trkpt>
      <trkpt lat="46.4605" lon="2.57265">
        <ele>256.8</ele>
        <time>2018-10-14T07:11:24Z</time>
      </trkpt>
      <trkpt lat="46.46044" lon="2.57257">
        <ele>257.7</ele>
        <time>2018-10-14T07:11:26Z</time>
      </trkpt>
      <trkpt lat="46.46038" lon="2.5725">
        <ele>258.5</ele>
        <time>2018-10-14T07:11:28Z</time>
      </trkpt>
      <trkpt lat="46.46032" lon="2.57242">
        <ele>258.9</ele>
        <time>2018-10-14T07:11:30Z</time>
      </trkpt>
      <trkpt lat="46.46027" lon="2.57235">
        <ele>259.1</ele>
        <time>2018-10-14T07:11:32Z</time>
      </trkpt>
      <trkpt lat="46.46021" lon="2.57228">
        <ele>259.8</ele>
        <time>2018-10-14T07:11:34Z</time>
      </trkpt>
      <trkpt lat="46.46015" lon="2.57221">
        <ele>260.7</ele>
        <time>2018-10-14T07:11:36Z</time>
      </trkpt>
      <trkpt lat="46.46008" lon="2.57215">
        <ele>261.4</ele>
        <time>2018-10-14T07:11:38Z</time>
      </trkpt>
      <trkpt lat="46.46005" lon="2.57212">
        <ele>261.7</ele>
        <time>2018-10-14T07:11:39Z</time>
      </trkpt>
      <trkpt lat="46.45997" lon="2.57201">
        <ele>261.8</ele>
        <time>2018-10-14T07:11:42Z</time>
      </trkpt>
      <trkpt lat="46.45991" lon="2.57194">
        <ele>262.7</ele>
        <time>2018-10-14T07:11:44Z</time>
      </trkpt>
      <trkpt lat="46.45985" lon="2.57187">
        <ele>263.6</ele>
        <time>2018-10-14T07:11:46Z</time>
      </trkpt>
      <trkpt lat="46.45978" lon="2.57181">
        <ele>264.2</ele>
        <time>2018-10-14T07:11:48Z</time>
      </trkpt>
      <trkpt lat="46.45972" lon="2.57175">
        <ele>264.4</ele>
        <time>2018-10-14T07:11:50Z</time>
      </trkpt>
      <trkpt lat="46.45966" lon="2.57169">
        <ele>264.3</ele>
        <time>2018-10-14T07:11:52Z</time>
      </trkpt>
      <trkpt lat="46.4596" lon="2.57163">
        <ele>264.3</ele>
        <time>2018-10-14T07:11:54Z</time>
      </trkpt>
      <trkpt lat="46.45954" lon="2.57157">
        <ele>265.2</ele>
        <time>2018-10-14T07:11:56Z</time>
      </trkpt>
      <trkpt lat="46.45948" lon="2.57151">
        <ele>265.3</ele>
        <time>2018-10-14T07:11:58Z</time>
      </trkpt>
      <trkpt lat="46.45942" lon="2.57145">
        <ele>265.6</ele>
        <time>2018-10-14T07:12:00Z</time>
      </trkpt>
      <trkpt lat="46.45936" lon="2.57139">
        <ele>265.8</ele>
        <time>2018-10-14T07:12:02Z</time>
      </trkpt>
      <trkpt lat="46.4593" lon="2.57133">
        <ele>266.3</ele>
        <time>2018-10-14T07:12:04Z</time>
      </trkpt>
      <trkpt lat="46.45924" lon="2.57127">
        <ele>266.8</ele>
        <time>2018-10-14T07:12:06Z</time>
      </trkpt>
      <trkpt lat="46.45918" lon="2.57121">
        <ele>267.1</ele>
        <time>2018-10-14T07:12:08Z</time>
      </trkpt>
      <trkpt lat="46.45912" lon="2.57115">
        <ele>267.9</ele>
        <time>2018-10-14T07:12:10Z</time>
      </trkpt>
      <trkpt lat="46.45905" lon="2.57109">
        <ele>267.8</ele>
        <time>2018-10-14T07:12:12Z</time>
      </trkpt>
      <trkpt lat="46.45899" lon="2.57103">
        <ele>268</ele>
        <time>2018-10-14T07:12:14Z</time>
      </trkpt>
      <trkpt lat="46.45893" lon="2.57097">
        <ele>268.5</ele>
        <time>2018-10-14T07:12:16Z</time>
      </trkpt>
      <trkpt lat="46.45888" lon="2.57092">
        <ele>268.8</ele>
        <time>2018-10-14T07:12:18Z</time>
      </trkpt>
      <trkpt lat="46.45883" lon="2.57086">
        <ele>268.9</ele>
        <time>2018-10-14T07:12:20Z</time>
      </trkpt>
      <trkpt lat="46.45877" lon="2.57081">
        <ele>269.3</ele>
        <time>2018-10-14T07:12:22Z</time>
      </trkpt>
      <trkpt lat="46.45872" lon="2.57076">
        <ele>270.3</ele>
        <time>2018-10-14T07:12:24Z</time>
      </trkpt>
      <trkpt lat="46.45866" lon="2.5707">
        <ele>270.9</ele>
        <time>2018-10-14T07:12:26Z</time>
      </trkpt>
      <trkpt lat="46.45861" lon="2.57065">
        <ele>271.3</ele>
        <time>2018-10-14T07:12:28Z</time>
      </trkpt>
      <trkpt lat="46.45855" lon="2.5706">
        <ele>271.7</ele>
        <time>2018-10-14T07:12:30Z</time>
      </trkpt>
      <trkpt lat="46.45849" lon="2.57055">
        <ele>271.8</ele>
        <time>2018-10-14T07:12:32Z</time>
      </trkpt>
      <trkpt lat="46.45842" lon="2.57048">
        <ele>272.2</ele>
        <time>2018-10-14T07:12:34Z</time>
      </trkpt>
      <trkpt lat="46.45836" lon="2.57042">
        <ele>272.3</ele>
        <time>2018-10-14T07:12:36Z</time>
      </trkpt>
      <trkpt lat="46.4583" lon="2.57035">
        <ele>271.7</ele>
        <time>2018-10-14T07:12:38Z</time>
      </trkpt>
      <trkpt lat="46.45823" lon="2.57028">
        <ele>272</ele>
        <time>2018-10-14T07:12:40Z</time>
      </trkpt>
      <trkpt lat="46.4582" lon="2.57024">
        <ele>272.4</ele>
        <time>2018-10-14T07:12:41Z</time>
      </trkpt>
      <trkpt lat="46.4581" lon="2.57012">
        <ele>272.8</ele>
        <time>2018-10-14T07:12:44Z</time>
      </trkpt>
      <trkpt lat="46.45804" lon="2.57003">
        <ele>273</ele>
        <time>2018-10-14T07:12:46Z</time>
      </trkpt>
      <trkpt lat="46.45797" lon="2.56996">
        <ele>273.1</ele>
        <time>2018-10-14T07:12:48Z</time>
      </trkpt>
      <trkpt lat="46.45791" lon="2.56987">
        <ele>273.4</ele>
        <time>2018-10-14T07:12:50Z</time>
      </trkpt>
      <trkpt lat="46.45784" lon="2.56979">
        <ele>273.6</ele>
        <time>2018-10-14T07:12:52Z</time>
      </trkpt>
      <trkpt lat="46.45777" lon="2.56971">
        <ele>273.9</ele>
        <time>2018-10-14T07:12:54Z</time>
      </trkpt>
      <trkpt lat="46.45772" lon="2.56963">
        <ele>274.7</ele>
        <time>2018-10-14T07:12:56Z</time>
      </trkpt>
      <trkpt lat="46.45765" lon="2.56954">
        <ele>275.5</ele>
        <time>2018-10-14T07:12:58Z</time>
      </trkpt>
      <trkpt lat="46.45762" lon="2.5695">
        <ele>275.4</ele>
        <time>2018-10-14T07:12:59Z</time>
      </trkpt>
      <trkpt lat="46.45758" lon="2.56945">
        <ele>275.3</ele>
        <time>2018-10-14T07:13:00Z</time>
      </trkpt>
      <trkpt lat="46.45755" lon="2.56941">
        <ele>274.9</ele>
        <time>2018-10-14T07:13:01Z</time>
      </trkpt>
      <trkpt lat="46.45751" lon="2.56936">
        <ele>274.5</ele>
        <time>2018-10-14T07:13:02Z</time>
      </trkpt>
      <trkpt lat="46.45748" lon="2.56932">
        <ele>274.7</ele>
        <time>2018-10-14T07:13:03Z</time>
      </trkpt>
      <trkpt lat="46.45745" lon="2.56927">
        <ele>274.8</ele>
        <time>2018-10-14T07:13:04Z</time>
      </trkpt>
      <trkpt lat="46.45741" lon="2.56922">
        <ele>274.8</ele>
        <time>2018-10-14T07:13:05Z</time>
      </trkpt>
      <trkpt lat="46.45737" lon="2.56918">
        <ele>274.9</ele>
        <time>2018-10-14T07:13:06Z</time>
      </trkpt>
      <trkpt lat="46.45733" lon="2.56914">
        <ele>275</ele>
        <time>2018-10-14T07:13:07Z</time>
      </trkpt>
      <trkpt lat="46.4573" lon="2.56909">
        <ele>274.9</ele>
        <time>2018-10-14T07:13:08Z</time>
      </trkpt>
      <trkpt lat="46.45726" lon="2.56905">
        <ele>274.9</ele>
        <time>2018-10-14T07:13:09Z</time>
      </trkpt>
      <trkpt lat="46.45722" lon="2.569">
        <ele>275.2</ele>
        <time>2018-10-14T07:13:10Z</time>
      </trkpt>
      <trkpt lat="46.45718" lon="2.56896">
        <ele>275.4</ele>
        <time>2018-10-14T07:13:11Z</time>
      </trkpt>
      <trkpt lat="46.45714" lon="2.56891">
        <ele>275.5</ele>
        <time>2018-10-14T07:13:12Z</time>
      </trkpt>
      <trkpt lat="46.4571" lon="2.56887">
        <ele>275.6</ele>
        <time>2018-10-14T07:13:13Z</time>
      </trkpt>
      <trkpt lat="46.45706" lon="2.56882">
        <ele>275.7</ele>
        <time>2018-10-14T07:13:14Z</time>
      </trkpt>
      <trkpt lat="46.45702" lon="2.56877">
        <ele>275.4</ele>
        <time>2018-10-14T07:13:15Z</time>
      </trkpt>
      <trkpt lat="46.45698" lon="2.56873">
        <ele>275.2</ele>
        <time>2018-10-14T07:13:16Z</time>
      </trkpt>
      <trkpt lat="46.45694" lon="2.56868">
        <ele>275</ele>
        <time>2018-10-14T07:13:17Z</time>
      </trkpt>
      <trkpt lat="46.4569" lon="2.56863">
        <ele>275</ele>
        <time>2018-10-14T07:13:18Z</time>
      </trkpt>
      <trkpt lat="46.45685" lon="2.56858">
        <ele>274.9</ele>
        <time>2018-10-14T07:13:19Z</time>
      </trkpt>
      <trkpt lat="46.45681" lon="2.56853">
        <ele>274.8</ele>
        <time>2018-10-14T07:13:20Z</time>
      </trkpt>
      <trkpt lat="46.45677" lon="2.56848">
        <ele>274.7</ele>
        <time>2018-10-14T07:13:21Z</time>
      </trkpt>
      <trkpt lat="46.45672" lon="2.56843">
        <ele>274.6</ele>
        <time>2018-10-14T07:13:22Z</time>
      </trkpt>
      <trkpt lat="46.45668" lon="2.56839">
        <ele>274.4</ele>
        <time>2018-10-14T07:13:23Z</time>
      </trkpt>
      <trkpt lat="46.45664" lon="2.56834">
        <ele>274.3</ele>
        <time>2018-10-14T07:13:24Z</time>
      </trkpt>
      <trkpt lat="46.4566" lon="2.5683">
        <ele>274.4</ele>
        <time>2018-10-14T07:13:25Z</time>
      </trkpt>
      <trkpt lat="46.45656" lon="2.56826">
        <ele>274.5</ele>
        <time>2018-10-14T07:13:26Z</time>
      </trkpt>
      <trkpt lat="46.45652" lon="2.56822">
        <ele>274.5</ele>
        <time>2018-10-14T07:13:27Z</time>
      </trkpt>
      <trkpt lat="46.45649" lon="2.56817">
        <ele>274.5</ele>
        <time>2018-10-14T07:13:28Z</time>
      </trkpt>
      <trkpt lat="46.45646" lon="2.56811">
        <ele>274.2</ele>
        <time>2018-10-14T07:13:29Z</time>
      </trkpt>
      <trkpt lat="46.45644" lon="2.56805">
        <ele>274</ele>
        <time>2018-10-14T07:13:30Z</time>
      </trkpt>
      <trkpt lat="46.4564" lon="2.56801">
        <ele>273.8</ele>
        <time>2018-10-14T07:13:31Z</time>
      </trkpt>
      <trkpt lat="46.45635" lon="2.56797">
        <ele>273.8</ele>
        <time>2018-10-14T07:13:32Z</time>
      </trkpt>
      <trkpt lat="46.45631" lon="2.56793">
        <ele>273.7</ele>
        <time>2018-10-14T07:13:33Z</time>
      </trkpt>
      <trkpt lat="46.45626" lon="2.56789">
        <ele>273.7</ele>
        <time>2018-10-14T07:13:34Z</time>
      </trkpt>
      <trkpt lat="46.45622" lon="2.56784">
        <ele>273.6</ele>
        <time>2018-10-14T07:13:35Z</time>
      </trkpt>
      <trkpt lat="46.45618" lon="2.56779">
        <ele>273.6</ele>
        <time>2018-10-14T07:13:36Z</time>
      </trkpt>
      <trkpt lat="46.45614" lon="2.56774">
        <ele>273.4</ele>
        <time>2018-10-14T07:13:37Z</time>
      </trkpt>
      <trkpt lat="46.4561" lon="2.56769">
        <ele>273.2</ele>
        <time>2018-10-14T07:13:38Z</time>
      </trkpt>
      <trkpt lat="46.45607" lon="2.56763">
        <ele>273.2</ele>
        <time>2018-10-14T07:13:39Z</time>
      </trkpt>
      <trkpt lat="46.45604" lon="2.56758">
        <ele>273.2</ele>
        <time>2018-10-14T07:13:40Z</time>
      </trkpt>
      <trkpt lat="46.45601" lon="2.56753">
        <ele>273.3</ele>
        <time>2018-10-14T07:13:41Z</time>
      </trkpt>
      <trkpt lat="46.45598" lon="2.56748">
        <ele>273.4</ele>
        <time>2018-10-14T07:13:42Z</time>
      </trkpt>
      <trkpt lat="46.45589" lon="2.56735">
        <ele>272.1</ele>
        <time>2018-10-14T07:13:45Z</time>
      </trkpt>
      <trkpt lat="46.45584" lon="2.56726">
        <ele>272.4</ele>
        <time>2018-10-14T07:13:48Z</time>
      </trkpt>
      <trkpt lat="46.45579" lon="2.5672">
        <ele>272.8</ele>
        <time>2018-10-14T07:13:50Z</time>
      </trkpt>
      <trkpt lat="46.45575" lon="2.56712">
        <ele>273.1</ele>
        <time>2018-10-14T07:13:52Z</time>
      </trkpt>
      <trkpt lat="46.45571" lon="2.56704">
        <ele>273.2</ele>
        <time>2018-10-14T07:13:54Z</time>
      </trkpt>
      <trkpt lat="46.45566" lon="2.56697">
        <ele>273.2</ele>
        <time>2018-10-14T07:13:56Z</time>
      </trkpt>
      <trkpt lat="46.45561" lon="2.56689">
        <ele>272.6</ele>
        <time>2018-10-14T07:13:58Z</time>
      </trkpt>
      <trkpt lat="46.45555" lon="2.56681">
        <ele>272.2</ele>
        <time>2018-10-14T07:14:00Z</time>
      </trkpt>
      <trkpt lat="46.45549" lon="2.56674">
        <ele>272.3</ele>
        <time>2018-10-14T07:14:02Z</time>
      </trkpt>
      <trkpt lat="46.45543" lon="2.56667">
        <ele>272.4</ele>
        <time>2018-10-14T07:14:04Z</time>
      </trkpt>
      <trkpt lat="46.45537" lon="2.5666">
        <ele>272.6</ele>
        <time>2018-10-14T07:14:06Z</time>
      </trkpt>
      <trkpt lat="46.45531" lon="2.56654">
        <ele>272.4</ele>
        <time>2018-10-14T07:14:08Z</time>
      </trkpt>
      <trkpt lat="46.45524" lon="2.56647">
        <ele>272.4</ele>
        <time>2018-10-14T07:14:10Z</time>
      </trkpt>
      <trkpt lat="46.45518" lon="2.56641">
        <ele>272.3</ele>
        <time>2018-10-14T07:14:12Z</time>
      </trkpt>
      <trkpt lat="46.45511" lon="2.56634">
        <ele>272</ele>
        <time>2018-10-14T07:14:14Z</time>
      </trkpt>
      <trkpt lat="46.45504" lon="2.56628">
        <ele>272</ele>
        <time>2018-10-14T07:14:16Z</time>
      </trkpt>
      <trkpt lat="46.455" lon="2.56624">
        <ele>271.9</ele>
        <time>2018-10-14T07:14:17Z</time>
      </trkpt>
      <trkpt lat="46.45496" lon="2.5662">
        <ele>271.8</ele>
        <time>2018-10-14T07:14:18Z</time>
      </trkpt>
      <trkpt lat="46.45492" lon="2.56616">
        <ele>272</ele>
        <time>2018-10-14T07:14:19Z</time>
      </trkpt>
      <trkpt lat="46.45489" lon="2.56611">
        <ele>272.2</ele>
        <time>2018-10-14T07:14:20Z</time>
      </trkpt>
      <trkpt lat="46.45486" lon="2.56607">
        <ele>272.3</ele>
        <time>2018-10-14T07:14:21Z</time>
      </trkpt>
      <trkpt lat="46.45482" lon="2.56602">
        <ele>272.4</ele>
        <time>2018-10-14T07:14:22Z</time>
      </trkpt>
      <trkpt lat="46.45479" lon="2.56597">
        <ele>272.4</ele>
        <time>2018-10-14T07:14:23Z</time>
      </trkpt>
      <trkpt lat="46.45475" lon="2.56592">
        <ele>272.7</ele>
        <time>2018-10-14T07:14:24Z</time>
      </trkpt>
      <trkpt lat="46.45472" lon="2.56588">
        <ele>272.9</ele>
        <time>2018-10-14T07:14:25Z</time>
      </trkpt>
      <trkpt lat="46.45469" lon="2.56583">
        <ele>272.8</ele>
        <time>2018-10-14T07:14:26Z</time>
      </trkpt>
      <trkpt lat="46.45461" lon="2.56576">
        <ele>272.7</ele>
        <time>2018-10-14T07:14:28Z</time>
      </trkpt>
      <trkpt lat="46.45458" lon="2.56571">
        <ele>272.6</ele>
        <time>2018-10-14T07:14:29Z</time>
      </trkpt>
      <trkpt lat="46.45454" lon="2.56567">
        <ele>272.5</ele>
        <time>2018-10-14T07:14:30Z</time>
      </trkpt>
      <trkpt lat="46.45451" lon="2.56563">
        <ele>272.5</ele>
        <time>2018-10-14T07:14:31Z</time>
      </trkpt>
      <trkpt lat="46.45447" lon="2.56559">
        <ele>272.6</ele>
        <time>2018-10-14T07:14:32Z</time>
      </trkpt>
      <trkpt lat="46.45443" lon="2.56555">
        <ele>272.6</ele>
        <time>2018-10-14T07:14:33Z</time>
      </trkpt>
      <trkpt lat="46.4544" lon="2.5655">
        <ele>272.7</ele>
        <time>2018-10-14T07:14:34Z</time>
      </trkpt>
      <trkpt lat="46.45436" lon="2.56546">
        <ele>272.7</ele>
        <time>2018-10-14T07:14:35Z</time>
      </trkpt>
      <trkpt lat="46.45432" lon="2.56542">
        <ele>272.4</ele>
        <time>2018-10-14T07:14:36Z</time>
      </trkpt>
      <trkpt lat="46.45429" lon="2.56537">
        <ele>272.1</ele>
        <time>2018-10-14T07:14:37Z</time>
      </trkpt>
      <trkpt lat="46.45425" lon="2.56533">
        <ele>272</ele>
        <time>2018-10-14T07:14:38Z</time>
      </trkpt>
      <trkpt lat="46.45421" lon="2.56528">
        <ele>271.9</ele>
        <time>2018-10-14T07:14:39Z</time>
      </trkpt>
      <trkpt lat="46.45417" lon="2.56524">
        <ele>271.8</ele>
        <time>2018-10-14T07:14:40Z</time>
      </trkpt>
      <trkpt lat="46.45413" lon="2.56519">
        <ele>271.9</ele>
        <time>2018-10-14T07:14:41Z</time>
      </trkpt>
      <trkpt lat="46.45409" lon="2.56514">
        <ele>272</ele>
        <time>2018-10-14T07:14:42Z</time>
      </trkpt>
      <trkpt lat="46.45405" lon="2.56509">
        <ele>271.8</ele>
        <time>2018-10-14T07:14:43Z</time>
      </trkpt>
      <trkpt lat="46.45401" lon="2.56504">
        <ele>271.7</ele>
        <time>2018-10-14T07:14:44Z</time>
      </trkpt>
      <trkpt lat="46.45397" lon="2.56499">
        <ele>272</ele>
        <time>2018-10-14T07:14:45Z</time>
      </trkpt>
      <trkpt lat="46.45393" lon="2.56494">
        <ele>272.2</ele>
        <time>2018-10-14T07:14:46Z</time>
      </trkpt>
      <trkpt lat="46.45389" lon="2.5649">
        <ele>272.3</ele>
        <time>2018-10-14T07:14:47Z</time>
      </trkpt>
      <trkpt lat="46.45385" lon="2.56485">
        <ele>272.1</ele>
        <time>2018-10-14T07:14:48Z</time>
      </trkpt>
      <trkpt lat="46.45381" lon="2.5648">
        <ele>272</ele>
        <time>2018-10-14T07:14:49Z</time>
      </trkpt>
      <trkpt lat="46.45377" lon="2.56475">
        <ele>271.7</ele>
        <time>2018-10-14T07:14:50Z</time>
      </trkpt>
      <trkpt lat="46.45372" lon="2.5647">
        <ele>271.5</ele>
        <time>2018-10-14T07:14:51Z</time>
      </trkpt>
      <trkpt lat="46.45368" lon="2.56465">
        <ele>271.3</ele>
        <time>2018-10-14T07:14:52Z</time>
      </trkpt>
      <trkpt lat="46.45364" lon="2.5646">
        <ele>271.4</ele>
        <time>2018-10-14T07:14:53Z</time>
      </trkpt>
      <trkpt lat="46.4536" lon="2.56455">
        <ele>271.5</ele>
        <time>2018-10-14T07:14:54Z</time>
      </trkpt>
      <trkpt lat="46.45356" lon="2.5645">
        <ele>271.3</ele>
        <time>2018-10-14T07:14:55Z</time>
      </trkpt>
      <trkpt lat="46.45353" lon="2.56445">
        <ele>271.1</ele>
        <time>2018-10-14T07:14:56Z</time>
      </trkpt>
      <trkpt lat="46.45349" lon="2.56439">
        <ele>271</ele>
        <time>2018-10-14T07:14:57Z</time>
      </trkpt>
      <trkpt lat="46.45345" lon="2.56434">
        <ele>271</ele>
        <time>2018-10-14T07:14:58Z</time>
      </trkpt>
      <trkpt lat="46.45341" lon="2.56428">
        <ele>271</ele>
        <time>2018-10-14T07:14:59Z</time>
      </trkpt>
      <trkpt lat="46.45338" lon="2.56422">
        <ele>271.1</ele>
        <time>2018-10-14T07:15:00Z</time>
      </trkpt>
      <trkpt lat="46.45334" lon="2.56417">
        <ele>271.3</ele>
        <time>2018-10-14T07:15:01Z</time>
      </trkpt>
      <trkpt lat="46.45331" lon="2.56411">
        <ele>271.4</ele>
        <time>2018-10-14T07:15:02Z</time>
      </trkpt>
      <trkpt lat="46.45328" lon="2.56405">
        <ele>271.4</ele>
        <time>2018-10-14T07:15:03Z</time>
      </trkpt>
      <trkpt lat="46.45325" lon="2.56398">
        <ele>271.5</ele>
        <time>2018-10-14T07:15:04Z</time>
      </trkpt>
      <trkpt lat="46.45322" lon="2.56392">
        <ele>271.5</ele>
        <time>2018-10-14T07:15:05Z</time>
      </trkpt>
      <trkpt lat="46.45319" lon="2.56385">
        <ele>271.5</ele>
        <time>2018-10-14T07:15:06Z</time>
      </trkpt>
      <trkpt lat="46.45316" lon="2.56379">
        <ele>271.5</ele>
        <time>2018-10-14T07:15:07Z</time>
      </trkpt>
      <trkpt lat="46.45313" lon="2.56373">
        <ele>271.6</ele>
        <time>2018-10-14T07:15:08Z</time>
      </trkpt>
      <trkpt lat="46.4531" lon="2.56366">
        <ele>271.9</ele>
        <time>2018-10-14T07:15:09Z</time>
      </trkpt>
      <trkpt lat="46.45307" lon="2.5636">
        <ele>272.2</ele>
        <time>2018-10-14T07:15:10Z</time>
      </trkpt>
      <trkpt lat="46.45304" lon="2.56353">
        <ele>271.9</ele>
        <time>2018-10-14T07:15:11Z</time>
      </trkpt>
      <trkpt lat="46.45301" lon="2.56346">
        <ele>271.7</ele>
        <time>2018-10-14T07:15:12Z</time>
      </trkpt>
      <trkpt lat="46.45299" lon="2.5634">
        <ele>271.5</ele>
        <time>2018-10-14T07:15:13Z</time>
      </trkpt>
      <trkpt lat="46.45296" lon="2.56333">
        <ele>271.5</ele>
        <time>2018-10-14T07:15:14Z</time>
      </trkpt>
      <trkpt lat="46.45294" lon="2.56326">
        <ele>271.6</ele>
        <time>2018-10-14T07:15:15Z</time>
      </trkpt>
      <trkpt lat="46.45292" lon="2.56319">
        <ele>271.4</ele>
        <time>2018-10-14T07:15:16Z</time>
      </trkpt>
      <trkpt lat="46.4529" lon="2.56313">
        <ele>271.2</ele>
        <time>2018-10-14T07:15:17Z</time>
      </trkpt>
      <trkpt lat="46.45288" lon="2.56306">
        <ele>271.1</ele>
        <time>2018-10-14T07:15:18Z</time>
      </trkpt>
      <trkpt lat="46.45285" lon="2.56299">
        <ele>271</ele>
        <time>2018-10-14T07:15:19Z</time>
      </trkpt>
      <trkpt lat="46.45283" lon="2.56293">
        <ele>270.9</ele>
        <time>2018-10-14T07:15:20Z</time>
      </trkpt>
      <trkpt lat="46.45281" lon="2.56286">
        <ele>271.3</ele>
        <time>2018-10-14T07:15:21Z</time>
      </trkpt>
      <trkpt lat="46.45278" lon="2.5628">
        <ele>271.7</ele>
        <time>2018-10-14T07:15:22Z</time>
      </trkpt>
      <trkpt lat="46.45276" lon="2.56273">
        <ele>271.6</ele>
        <time>2018-10-14T07:15:23Z</time>
      </trkpt>
      <trkpt lat="46.45274" lon="2.56267">
        <ele>271.6</ele>
        <time>2018-10-14T07:15:24Z</time>
      </trkpt>
      <trkpt lat="46.45272" lon="2.5626">
        <ele>271.5</ele>
        <time>2018-10-14T07:15:25Z</time>
      </trkpt>
      <trkpt lat="46.45269" lon="2.56254">
        <ele>271.6</ele>
        <time>2018-10-14T07:15:26Z</time>
      </trkpt>
      <trkpt lat="46.45267" lon="2.56247">
        <ele>271.7</ele>
        <time>2018-10-14T07:15:27Z</time>
      </trkpt>
      <trkpt lat="46.45265" lon="2.56241">
        <ele>271.4</ele>
        <time>2018-10-14T07:15:28Z</time>
      </trkpt>
      <trkpt lat="46.45262" lon="2.56234">
        <ele>271.1</ele>
        <time>2018-10-14T07:15:29Z</time>
      </trkpt>
      <trkpt lat="46.4526" lon="2.56228">
        <ele>271.2</ele>
        <time>2018-10-14T07:15:30Z</time>
      </trkpt>
      <trkpt lat="46.45258" lon="2.56222">
        <ele>271.3</ele>
        <time>2018-10-14T07:15:31Z</time>
      </trkpt>
      <trkpt lat="46.45256" lon="2.56215">
        <ele>271.4</ele>
        <time>2018-10-14T07:15:32Z</time>
      </trkpt>
      <trkpt lat="46.45253" lon="2.56208">
        <ele>271.6</ele>
        <time>2018-10-14T07:15:33Z</time>
      </trkpt>
      <trkpt lat="46.45251" lon="2.56202">
        <ele>271.8</ele>
        <time>2018-10-14T07:15:34Z</time>
      </trkpt>
      <trkpt lat="46.45249" lon="2.56195">
        <ele>271.6</ele>
        <time>2018-10-14T07:15:35Z</time>
      </trkpt>
      <trkpt lat="46.45246" lon="2.56188">
        <ele>271.5</ele>
        <time>2018-10-14T07:15:36Z</time>
      </trkpt>
      <trkpt lat="46.45243" lon="2.5618">
        <ele>271.4</ele>
        <time>2018-10-14T07:15:37Z</time>
      </trkpt>
      <trkpt lat="46.4524" lon="2.56173">
        <ele>271.7</ele>
        <time>2018-10-14T07:15:38Z</time>
      </trkpt>
      <trkpt lat="46.45238" lon="2.56166">
        <ele>271.9</ele>
        <time>2018-10-14T07:15:39Z</time>
      </trkpt>
      <trkpt lat="46.45235" lon="2.56159">
        <ele>272.4</ele>
        <time>2018-10-14T07:15:40Z</time>
      </trkpt>
      <trkpt lat="46.45232" lon="2.56152">
        <ele>272.7</ele>
        <time>2018-10-14T07:15:41Z</time>
      </trkpt>
      <trkpt lat="46.4523" lon="2.56145">
        <ele>272.6</ele>
        <time>2018-10-14T07:15:42Z</time>
      </trkpt>
      <trkpt lat="46.45227" lon="2.56138">
        <ele>272.5</ele>
        <time>2018-10-14T07:15:43Z</time>
      </trkpt>
      <trkpt lat="46.45224" lon="2.56131">
        <ele>272.5</ele>
        <time>2018-10-14T07:15:44Z</time>
      </trkpt>
      <trkpt lat="46.45221" lon="2.56124">
        <ele>272.7</ele>
        <time>2018-10-14T07:15:45Z</time>
      </trkpt>
      <trkpt lat="46.45219" lon="2.56117">
        <ele>272.9</ele>
        <time>2018-10-14T07:15:46Z</time>
      </trkpt>
      <trkpt lat="46.45216" lon="2.5611">
        <ele>273.1</ele>
        <time>2018-10-14T07:15:47Z</time>
      </trkpt>
      <trkpt lat="46.45213" lon="2.56103">
        <ele>273.3</ele>
        <time>2018-10-14T07:15:48Z</time>
      </trkpt>
      <trkpt lat="46.45211" lon="2.56096">
        <ele>272.9</ele>
        <time>2018-10-14T07:15:49Z</time>
      </trkpt>
      <trkpt lat="46.45208" lon="2.56089">
        <ele>272.5</ele>
        <time>2018-10-14T07:15:50Z</time>
      </trkpt>
      <trkpt lat="46.45206" lon="2.56082">
        <ele>272.3</ele>
        <time>2018-10-14T07:15:51Z</time>
      </trkpt>
      <trkpt lat="46.45203" lon="2.56076">
        <ele>272</ele>
        <time>2018-10-14T07:15:52Z</time>
      </trkpt>
      <trkpt lat="46.45201" lon="2.56069">
        <ele>271.8</ele>
        <time>2018-10-14T07:15:53Z</time>
      </trkpt>
      <trkpt lat="46.45198" lon="2.56063">
        <ele>272</ele>
        <time>2018-10-14T07:15:54Z</time>
      </trkpt>
      <trkpt lat="46.45195" lon="2.56056">
        <ele>272.1</ele>
        <time>2018-10-14T07:15:55Z</time>
      </trkpt>
      <trkpt lat="46.45193" lon="2.5605">
        <ele>272.3</ele>
        <time>2018-10-14T07:15:56Z</time>
      </trkpt>
      <trkpt lat="46.4519" lon="2.56044">
        <ele>272</ele>
        <time>2018-10-14T07:15:57Z</time>
      </trkpt>
      <trkpt lat="46.45187" lon="2.56037">
        <ele>271.8</ele>
        <time>2018-10-14T07:15:58Z</time>
      </trkpt>
      <trkpt lat="46.45185" lon="2.56031">
        <ele>272.3</ele>
        <time>2018-10-14T07:15:59Z</time>
      </trkpt>
      <trkpt lat="46.45182" lon="2.56025">
        <ele>272.7</ele>
        <time>2018-10-14T07:16:00Z</time>
      </trkpt>
      <trkpt lat="46.45179" lon="2.56018">
        <ele>272.7</ele>
        <time>2018-10-14T07:16:01Z</time>
      </trkpt>
      <trkpt lat="46.45177" lon="2.56012">
        <ele>272.7</ele>
        <time>2018-10-14T07:16:02Z</time>
      </trkpt>
      <trkpt lat="46.45174" lon="2.56005">
        <ele>272.6</ele>
        <time>2018-10-14T07:16:03Z</time>
      </trkpt>
      <trkpt lat="46.45172" lon="2.55999">
        <ele>272.4</ele>
        <time>2018-10-14T07:16:04Z</time>
      </trkpt>
      <trkpt lat="46.45169" lon="2.55992">
        <ele>272.2</ele>
        <time>2018-10-14T07:16:05Z</time>
      </trkpt>
      <trkpt lat="46.45166" lon="2.55986">
        <ele>272.1</ele>
        <time>2018-10-14T07:16:06Z</time>
      </trkpt>
      <trkpt lat="46.45164" lon="2.55979">
        <ele>272.1</ele>
        <time>2018-10-14T07:16:07Z</time>
      </trkpt>
      <trkpt lat="46.45161" lon="2.55972">
        <ele>272.1</ele>
        <time>2018-10-14T07:16:08Z</time>
      </trkpt>
      <trkpt lat="46.45158" lon="2.55965">
        <ele>272.1</ele>
        <time>2018-10-14T07:16:09Z</time>
      </trkpt>
      <trkpt lat="46.45155" lon="2.55957">
        <ele>272.2</ele>
        <time>2018-10-14T07:16:10Z</time>
      </trkpt>
      <trkpt lat="46.45152" lon="2.5595">
        <ele>271.8</ele>
        <time>2018-10-14T07:16:11Z</time>
      </trkpt>
      <trkpt lat="46.45149" lon="2.55943">
        <ele>271.5</ele>
        <time>2018-10-14T07:16:12Z</time>
      </trkpt>
      <trkpt lat="46.45146" lon="2.55936">
        <ele>271.4</ele>
        <time>2018-10-14T07:16:13Z</time>
      </trkpt>
      <trkpt lat="46.45143" lon="2.55929">
        <ele>271.3</ele>
        <time>2018-10-14T07:16:14Z</time>
      </trkpt>
      <trkpt lat="46.45141" lon="2.55923">
        <ele>271.2</ele>
        <time>2018-10-14T07:16:15Z</time>
      </trkpt>
      <trkpt lat="46.45138" lon="2.55916">
        <ele>271.3</ele>
        <time>2018-10-14T07:16:16Z</time>
      </trkpt>
      <trkpt lat="46.45136" lon="2.55908">
        <ele>271.4</ele>
        <time>2018-10-14T07:16:17Z</time>
      </trkpt>
      <trkpt lat="46.45133" lon="2.55901">
        <ele>271.7</ele>
        <time>2018-10-14T07:16:18Z</time>
      </trkpt>
      <trkpt lat="46.4513" lon="2.55894">
        <ele>271.9</ele>
        <time>2018-10-14T07:16:19Z</time>
      </trkpt>
      <trkpt lat="46.45128" lon="2.55887">
        <ele>271.6</ele>
        <time>2018-10-14T07:16:20Z</time>
      </trkpt>
      <trkpt lat="46.45125" lon="2.55881">
        <ele>271.4</ele>
        <time>2018-10-14T07:16:21Z</time>
      </trkpt>
      <trkpt lat="46.45123" lon="2.55875">
        <ele>271.3</ele>
        <time>2018-10-14T07:16:22Z</time>
      </trkpt>
      <trkpt lat="46.45121" lon="2.55869">
        <ele>271.4</ele>
        <time>2018-10-14T07:16:23Z</time>
      </trkpt>
      <trkpt lat="46.45117" lon="2.55857">
        <ele>271.8</ele>
        <time>2018-10-14T07:16:25Z</time>
      </trkpt>
      <trkpt lat="46.45115" lon="2.55847">
        <ele>271.7</ele>
        <time>2018-10-14T07:16:27Z</time>
      </trkpt>
      <trkpt lat="46.45118" lon="2.55839">
        <ele>271.3</ele>
        <time>2018-10-14T07:16:29Z</time>
      </trkpt>
      <trkpt lat="46.45125" lon="2.55833">
        <ele>271.3</ele>
        <time>2018-10-14T07:16:31Z</time>
      </trkpt>
      <trkpt lat="46.45133" lon="2.55828">
        <ele>271.7</ele>
        <time>2018-10-14T07:16:33Z</time>
      </trkpt>
      <trkpt lat="46.45138" lon="2.55825">
        <ele>271.8</ele>
        <time>2018-10-14T07:16:34Z</time>
      </trkpt>
      <trkpt lat="46.45143" lon="2.55822">
        <ele>271.6</ele>
        <time>2018-10-14T07:16:35Z</time>
      </trkpt>
      <trkpt lat="46.45149" lon="2.55819">
        <ele>271.4</ele>
        <time>2018-10-14T07:16:36Z</time>
      </trkpt>
      <trkpt lat="46.45154" lon="2.55814">
        <ele>272</ele>
        <time>2018-10-14T07:16:37Z</time>
      </trkpt>
      <trkpt lat="46.45157" lon="2.55808">
        <ele>272.5</ele>
        <time>2018-10-14T07:16:38Z</time>
      </trkpt>
      <trkpt lat="46.45157" lon="2.558">
        <ele>272.8</ele>
        <time>2018-10-14T07:16:39Z</time>
      </trkpt>
      <trkpt lat="46.45157" lon="2.55793">
        <ele>273.1</ele>
        <time>2018-10-14T07:16:40Z</time>
      </trkpt>
      <trkpt lat="46.45156" lon="2.55786">
        <ele>273.3</ele>
        <time>2018-10-14T07:16:41Z</time>
      </trkpt>
      <trkpt lat="46.45156" lon="2.5578">
        <ele>273.4</ele>
        <time>2018-10-14T07:16:42Z</time>
      </trkpt>
      <trkpt lat="46.45156" lon="2.55773">
        <ele>273.4</ele>
        <time>2018-10-14T07:16:43Z</time>
      </trkpt>
      <trkpt lat="46.45157" lon="2.55766">
        <ele>273.3</ele>
        <time>2018-10-14T07:16:44Z</time>
      </trkpt>
      <trkpt lat="46.45158" lon="2.5576">
        <ele>273.3</ele>
        <time>2018-10-14T07:16:45Z</time>
      </trkpt>
      <trkpt lat="46.45159" lon="2.55753">
        <ele>273.7</ele>
        <time>2018-10-14T07:16:46Z</time>
      </trkpt>
      <trkpt lat="46.45159" lon="2.55746">
        <ele>274.1</ele>
        <time>2018-10-14T07:16:47Z</time>
      </trkpt>
      <trkpt lat="46.45161" lon="2.5574">
        <ele>274.4</ele>
        <time>2018-10-14T07:16:48Z</time>
      </trkpt>
      <trkpt lat="46.45162" lon="2.55727">
        <ele>274.5</ele>
        <time>2018-10-14T07:16:50Z</time>
      </trkpt>
      <trkpt lat="46.45164" lon="2.55716">
        <ele>274.2</ele>
        <time>2018-10-14T07:16:52Z</time>
      </trkpt>
      <trkpt lat="46.45166" lon="2.55704">
        <ele>273.8</ele>
        <time>2018-10-14T07:16:54Z</time>
      </trkpt>
      <trkpt lat="46.45167" lon="2.55691">
        <ele>273.9</ele>
        <time>2018-10-14T07:16:56Z</time>
      </trkpt>
      <trkpt lat="46.45168" lon="2.55679">
        <ele>274.5</ele>
        <time>2018-10-14T07:16:58Z</time>
      </trkpt>
      <trkpt lat="46.4517" lon="2.55667">
        <ele>275</ele>
        <time>2018-10-14T07:17:00Z</time>
      </trkpt>
      <trkpt lat="46.45171" lon="2.55656">
        <ele>274.9</ele>
        <time>2018-10-14T07:17:02Z</time>
      </trkpt>
      <trkpt lat="46.45172" lon="2.55645">
        <ele>275.2</ele>
        <time>2018-10-14T07:17:04Z</time>
      </trkpt>
      <trkpt lat="46.45173" lon="2.55635">
        <ele>276</ele>
        <time>2018-10-14T07:17:06Z</time>
      </trkpt>
      <trkpt lat="46.45174" lon="2.55625">
        <ele>275.7</ele>
        <time>2018-10-14T07:17:08Z</time>
      </trkpt>
      <trkpt lat="46.45176" lon="2.55615">
        <ele>275.2</ele>
        <time>2018-10-14T07:17:10Z</time>
      </trkpt>
      <trkpt lat="46.45178" lon="2.55604">
        <ele>275.1</ele>
        <time>2018-10-14T07:17:12Z</time>
      </trkpt>
      <trkpt lat="46.4518" lon="2.55593">
        <ele>275.3</ele>
        <time>2018-10-14T07:17:14Z</time>
      </trkpt>
      <trkpt lat="46.45182" lon="2.55581">
        <ele>276.2</ele>
        <time>2018-10-14T07:17:16Z</time>
      </trkpt>
      <trkpt lat="46.45183" lon="2.55571">
        <ele>276.2</ele>
        <time>2018-10-14T07:17:18Z</time>
      </trkpt>
      <trkpt lat="46.45185" lon="2.55559">
        <ele>276</ele>
        <time>2018-10-14T07:17:20Z</time>
      </trkpt>
      <trkpt lat="46.45185" lon="2.55547">
        <ele>275.8</ele>
        <time>2018-10-14T07:17:22Z</time>
      </trkpt>
      <trkpt lat="46.45186" lon="2.55536">
        <ele>275.9</ele>
        <time>2018-10-14T07:17:24Z</time>
      </trkpt>
      <trkpt lat="46.45187" lon="2.55524">
        <ele>276.1</ele>
        <time>2018-10-14T07:17:26Z</time>
      </trkpt>
      <trkpt lat="46.45188" lon="2.55512">
        <ele>276.2</ele>
        <time>2018-10-14T07:17:28Z</time>
      </trkpt>
      <trkpt lat="46.45188" lon="2.555">
        <ele>276</ele>
        <time>2018-10-14T07:17:30Z</time>
      </trkpt>
      <trkpt lat="46.45187" lon="2.55489">
        <ele>276</ele>
        <time>2018-10-14T07:17:32Z</time>
      </trkpt>
      <trkpt lat="46.45187" lon="2.55482">
        <ele>276.1</ele>
        <time>2018-10-14T07:17:33Z</time>
      </trkpt>
      <trkpt lat="46.45186" lon="2.55469">
        <ele>276.6</ele>
        <time>2018-10-14T07:17:35Z</time>
      </trkpt>
      <trkpt lat="46.45185" lon="2.55463">
        <ele>276.4</ele>
        <time>2018-10-14T07:17:36Z</time>
      </trkpt>
      <trkpt lat="46.45184" lon="2.55456">
        <ele>276.3</ele>
        <time>2018-10-14T07:17:37Z</time>
      </trkpt>
      <trkpt lat="46.45184" lon="2.55449">
        <ele>276.3</ele>
        <time>2018-10-14T07:17:38Z</time>
      </trkpt>
      <trkpt lat="46.45183" lon="2.55437">
        <ele>277.2</ele>
        <time>2018-10-14T07:17:40Z</time>
      </trkpt>
      <trkpt lat="46.45183" lon="2.55424">
        <ele>277.4</ele>
        <time>2018-10-14T07:17:42Z</time>
      </trkpt>
      <trkpt lat="46.45183" lon="2.55411">
        <ele>277.1</ele>
        <time>2018-10-14T07:17:44Z</time>
      </trkpt>
      <trkpt lat="46.45182" lon="2.55398">
        <ele>277.3</ele>
        <time>2018-10-14T07:17:46Z</time>
      </trkpt>
      <trkpt lat="46.45182" lon="2.55391">
        <ele>277.5</ele>
        <time>2018-10-14T07:17:47Z</time>
      </trkpt>
      <trkpt lat="46.45182" lon="2.55373">
        <ele>278.6</ele>
        <time>2018-10-14T07:17:50Z</time>
      </trkpt>
      <trkpt lat="46.45181" lon="2.5536">
        <ele>279</ele>
        <time>2018-10-14T07:17:52Z</time>
      </trkpt>
      <trkpt lat="46.4518" lon="2.55348">
        <ele>279.9</ele>
        <time>2018-10-14T07:17:54Z</time>
      </trkpt>
      <trkpt lat="46.45179" lon="2.55335">
        <ele>279.3</ele>
        <time>2018-10-14T07:17:56Z</time>
      </trkpt>
      <trkpt lat="46.45178" lon="2.55323">
        <ele>279.1</ele>
        <time>2018-10-14T07:17:58Z</time>
      </trkpt>
      <trkpt lat="46.45177" lon="2.5531">
        <ele>279.6</ele>
        <time>2018-10-14T07:18:00Z</time>
      </trkpt>
      <trkpt lat="46.45175" lon="2.55297">
        <ele>280.3</ele>
        <time>2018-10-14T07:18:02Z</time>
      </trkpt>
      <trkpt lat="46.45174" lon="2.55291">
        <ele>280.5</ele>
        <time>2018-10-14T07:18:03Z</time>
      </trkpt>
      <trkpt lat="46.45173" lon="2.55284">
        <ele>280.7</ele>
        <time>2018-10-14T07:18:04Z</time>
      </trkpt>
      <trkpt lat="46.45171" lon="2.55277">
        <ele>280.7</ele>
        <time>2018-10-14T07:18:05Z</time>
      </trkpt>
      <trkpt lat="46.4517" lon="2.55265">
        <ele>280.9</ele>
        <time>2018-10-14T07:18:07Z</time>
      </trkpt>
      <trkpt lat="46.45168" lon="2.55253">
        <ele>281.4</ele>
        <time>2018-10-14T07:18:09Z</time>
      </trkpt>
      <trkpt lat="46.45166" lon="2.55246">
        <ele>281.6</ele>
        <time>2018-10-14T07:18:10Z</time>
      </trkpt>
      <trkpt lat="46.45164" lon="2.5524">
        <ele>281.7</ele>
        <time>2018-10-14T07:18:11Z</time>
      </trkpt>
      <trkpt lat="46.45163" lon="2.55233">
        <ele>281.8</ele>
        <time>2018-10-14T07:18:12Z</time>
      </trkpt>
      <trkpt lat="46.45161" lon="2.55227">
        <ele>281.8</ele>
        <time>2018-10-14T07:18:13Z</time>
      </trkpt>
      <trkpt lat="46.45159" lon="2.5522">
        <ele>281.6</ele>
        <time>2018-10-14T07:18:14Z</time>
      </trkpt>
      <trkpt lat="46.45158" lon="2.55213">
        <ele>281.4</ele>
        <time>2018-10-14T07:18:15Z</time>
      </trkpt>
      <trkpt lat="46.45158" lon="2.55202">
        <ele>281.6</ele>
        <time>2018-10-14T07:18:17Z</time>
      </trkpt>
      <trkpt lat="46.45158" lon="2.55191">
        <ele>281.9</ele>
        <time>2018-10-14T07:18:19Z</time>
      </trkpt>
      <trkpt lat="46.4516" lon="2.55181">
        <ele>282</ele>
        <time>2018-10-14T07:18:21Z</time>
      </trkpt>
      <trkpt lat="46.45162" lon="2.5517">
        <ele>282</ele>
        <time>2018-10-14T07:18:23Z</time>
      </trkpt>
      <trkpt lat="46.45164" lon="2.55158">
        <ele>282.6</ele>
        <time>2018-10-14T07:18:25Z</time>
      </trkpt>
      <trkpt lat="46.45165" lon="2.55151">
        <ele>282.5</ele>
        <time>2018-10-14T07:18:26Z</time>
      </trkpt>
      <trkpt lat="46.45167" lon="2.55139">
        <ele>282.3</ele>
        <time>2018-10-14T07:18:28Z</time>
      </trkpt>
      <trkpt lat="46.45168" lon="2.55132">
        <ele>282.3</ele>
        <time>2018-10-14T07:18:29Z</time>
      </trkpt>
      <trkpt lat="46.45169" lon="2.55125">
        <ele>282.3</ele>
        <time>2018-10-14T07:18:30Z</time>
      </trkpt>
      <trkpt lat="46.45171" lon="2.55118">
        <ele>282.3</ele>
        <time>2018-10-14T07:18:31Z</time>
      </trkpt>
      <trkpt lat="46.45172" lon="2.55112">
        <ele>282.3</ele>
        <time>2018-10-14T07:18:32Z</time>
      </trkpt>
      <trkpt lat="46.45173" lon="2.55105">
        <ele>282.2</ele>
        <time>2018-10-14T07:18:33Z</time>
      </trkpt>
      <trkpt lat="46.45174" lon="2.55099">
        <ele>282.2</ele>
        <time>2018-10-14T07:18:34Z</time>
      </trkpt>
      <trkpt lat="46.45175" lon="2.55092">
        <ele>282.1</ele>
        <time>2018-10-14T07:18:35Z</time>
      </trkpt>
      <trkpt lat="46.45177" lon="2.55086">
        <ele>282.3</ele>
        <time>2018-10-14T07:18:36Z</time>
      </trkpt>
      <trkpt lat="46.45178" lon="2.55079">
        <ele>282.3</ele>
        <time>2018-10-14T07:18:37Z</time>
      </trkpt>
      <trkpt lat="46.45179" lon="2.55072">
        <ele>282.1</ele>
        <time>2018-10-14T07:18:38Z</time>
      </trkpt>
      <trkpt lat="46.45179" lon="2.55064">
        <ele>282</ele>
        <time>2018-10-14T07:18:39Z</time>
      </trkpt>
      <trkpt lat="46.45179" lon="2.55056">
        <ele>282.6</ele>
        <time>2018-10-14T07:18:40Z</time>
      </trkpt>
      <trkpt lat="46.45179" lon="2.55049">
        <ele>283.1</ele>
        <time>2018-10-14T07:18:41Z</time>
      </trkpt>
      <trkpt lat="46.45179" lon="2.55042">
        <ele>283.5</ele>
        <time>2018-10-14T07:18:42Z</time>
      </trkpt>
      <trkpt lat="46.45179" lon="2.55035">
        <ele>283.7</ele>
        <time>2018-10-14T07:18:43Z</time>
      </trkpt>
      <trkpt lat="46.45179" lon="2.55027">
        <ele>283.8</ele>
        <time>2018-10-14T07:18:44Z</time>
      </trkpt>
      <trkpt lat="46.45179" lon="2.55021">
        <ele>283.7</ele>
        <time>2018-10-14T07:18:45Z</time>
      </trkpt>
      <trkpt lat="46.45178" lon="2.55014">
        <ele>283.6</ele>
        <time>2018-10-14T07:18:46Z</time>
      </trkpt>
      <trkpt lat="46.45178" lon="2.55007">
        <ele>283.4</ele>
        <time>2018-10-14T07:18:47Z</time>
      </trkpt>
      <trkpt lat="46.45178" lon="2.55">
        <ele>283.3</ele>
        <time>2018-10-14T07:18:48Z</time>
      </trkpt>
      <trkpt lat="46.45177" lon="2.54993">
        <ele>283.3</ele>
        <time>2018-10-14T07:18:49Z</time>
      </trkpt>
      <trkpt lat="46.45176" lon="2.54986">
        <ele>283.1</ele>
        <time>2018-10-14T07:18:50Z</time>
      </trkpt>
      <trkpt lat="46.45176" lon="2.54978">
        <ele>282.9</ele>
        <time>2018-10-14T07:18:51Z</time>
      </trkpt>
      <trkpt lat="46.45175" lon="2.54971">
        <ele>283.1</ele>
        <time>2018-10-14T07:18:52Z</time>
      </trkpt>
      <trkpt lat="46.45174" lon="2.54963">
        <ele>283.2</ele>
        <time>2018-10-14T07:18:53Z</time>
      </trkpt>
      <trkpt lat="46.45174" lon="2.54956">
        <ele>283.3</ele>
        <time>2018-10-14T07:18:54Z</time>
      </trkpt>
      <trkpt lat="46.45174" lon="2.54949">
        <ele>283.6</ele>
        <time>2018-10-14T07:18:55Z</time>
      </trkpt>
      <trkpt lat="46.45176" lon="2.54941">
        <ele>283.7</ele>
        <time>2018-10-14T07:18:56Z</time>
      </trkpt>
      <trkpt lat="46.45179" lon="2.54935">
        <ele>284.1</ele>
        <time>2018-10-14T07:18:57Z</time>
      </trkpt>
      <trkpt lat="46.45184" lon="2.5493">
        <ele>284.3</ele>
        <time>2018-10-14T07:18:58Z</time>
      </trkpt>
      <trkpt lat="46.45189" lon="2.54926">
        <ele>284</ele>
        <time>2018-10-14T07:18:59Z</time>
      </trkpt>
      <trkpt lat="46.45195" lon="2.54922">
        <ele>283.8</ele>
        <time>2018-10-14T07:19:00Z</time>
      </trkpt>
      <trkpt lat="46.45202" lon="2.54917">
        <ele>283.6</ele>
        <time>2018-10-14T07:19:01Z</time>
      </trkpt>
      <trkpt lat="46.45208" lon="2.54913">
        <ele>283.3</ele>
        <time>2018-10-14T07:19:02Z</time>
      </trkpt>
      <trkpt lat="46.45215" lon="2.54908">
        <ele>283.1</ele>
        <time>2018-10-14T07:19:03Z</time>
      </trkpt>
      <trkpt lat="46.45221" lon="2.54904">
        <ele>282.5</ele>
        <time>2018-10-14T07:19:04Z</time>
      </trkpt>
      <trkpt lat="46.45228" lon="2.54899">
        <ele>282.1</ele>
        <time>2018-10-14T07:19:05Z</time>
      </trkpt>
      <trkpt lat="46.45235" lon="2.54894">
        <ele>281.8</ele>
        <time>2018-10-14T07:19:06Z</time>
      </trkpt>
      <trkpt lat="46.45242" lon="2.5489">
        <ele>281.6</ele>
        <time>2018-10-14T07:19:07Z</time>
      </trkpt>
      <trkpt lat="46.45249" lon="2.54885">
        <ele>281.4</ele>
        <time>2018-10-14T07:19:08Z</time>
      </trkpt>
      <trkpt lat="46.45256" lon="2.54881">
        <ele>281.5</ele>
        <time>2018-10-14T07:19:09Z</time>
      </trkpt>
      <trkpt lat="46.45263" lon="2.54876">
        <ele>281.5</ele>
        <time>2018-10-14T07:19:10Z</time>
      </trkpt>
      <trkpt lat="46.4527" lon="2.54871">
        <ele>281.1</ele>
        <time>2018-10-14T07:19:11Z</time>
      </trkpt>
      <trkpt lat="46.45278" lon="2.54866">
        <ele>280.9</ele>
        <time>2018-10-14T07:19:12Z</time>
      </trkpt>
      <trkpt lat="46.45285" lon="2.54862">
        <ele>280.7</ele>
        <time>2018-10-14T07:19:13Z</time>
      </trkpt>
      <trkpt lat="46.45293" lon="2.54857">
        <ele>280</ele>
        <time>2018-10-14T07:19:14Z</time>
      </trkpt>
      <trkpt lat="46.45301" lon="2.54852">
        <ele>279.5</ele>
        <time>2018-10-14T07:19:15Z</time>
      </trkpt>
      <trkpt lat="46.45309" lon="2.54847">
        <ele>278.8</ele>
        <time>2018-10-14T07:19:16Z</time>
      </trkpt>
      <trkpt lat="46.45317" lon="2.54842">
        <ele>278.2</ele>
        <time>2018-10-14T07:19:17Z</time>
      </trkpt>
      <trkpt lat="46.45325" lon="2.54837">
        <ele>277.5</ele>
        <time>2018-10-14T07:19:18Z</time>
      </trkpt>
      <trkpt lat="46.45333" lon="2.54832">
        <ele>277</ele>
        <time>2018-10-14T07:19:19Z</time>
      </trkpt>
      <trkpt lat="46.45342" lon="2.54827">
        <ele>276.6</ele>
        <time>2018-10-14T07:19:20Z</time>
      </trkpt>
      <trkpt lat="46.4535" lon="2.54823">
        <ele>276.7</ele>
        <time>2018-10-14T07:19:21Z</time>
      </trkpt>
      <trkpt lat="46.45358" lon="2.54818">
        <ele>276.8</ele>
        <time>2018-10-14T07:19:22Z</time>
      </trkpt>
      <trkpt lat="46.45367" lon="2.54813">
        <ele>276.1</ele>
        <time>2018-10-14T07:19:23Z</time>
      </trkpt>
      <trkpt lat="46.45375" lon="2.54809">
        <ele>275.6</ele>
        <time>2018-10-14T07:19:24Z</time>
      </trkpt>
      <trkpt lat="46.45383" lon="2.54803">
        <ele>275.3</ele>
        <time>2018-10-14T07:19:25Z</time>
      </trkpt>
      <trkpt lat="46.4539" lon="2.54798">
        <ele>275</ele>
        <time>2018-10-14T07:19:26Z</time>
      </trkpt>
      <trkpt lat="46.45397" lon="2.54795">
        <ele>274.9</ele>
        <time>2018-10-14T07:19:27Z</time>
      </trkpt>
      <trkpt lat="46.45405" lon="2.54796">
        <ele>274.7</ele>
        <time>2018-10-14T07:19:28Z</time>
      </trkpt>
      <trkpt lat="46.45411" lon="2.548">
        <ele>274.5</ele>
        <time>2018-10-14T07:19:29Z</time>
      </trkpt>
      <trkpt lat="46.45417" lon="2.54806">
        <ele>274.3</ele>
        <time>2018-10-14T07:19:30Z</time>
      </trkpt>
      <trkpt lat="46.45423" lon="2.54811">
        <ele>274.2</ele>
        <time>2018-10-14T07:19:31Z</time>
      </trkpt>
      <trkpt lat="46.45429" lon="2.54817">
        <ele>274</ele>
        <time>2018-10-14T07:19:32Z</time>
      </trkpt>
      <trkpt lat="46.45436" lon="2.54823">
        <ele>273.8</ele>
        <time>2018-10-14T07:19:33Z</time>
      </trkpt>
      <trkpt lat="46.45442" lon="2.5483">
        <ele>273.6</ele>
        <time>2018-10-14T07:19:34Z</time>
      </trkpt>
      <trkpt lat="46.45449" lon="2.54837">
        <ele>272.9</ele>
        <time>2018-10-14T07:19:35Z</time>
      </trkpt>
      <trkpt lat="46.45455" lon="2.54845">
        <ele>272.4</ele>
        <time>2018-10-14T07:19:36Z</time>
      </trkpt>
      <trkpt lat="46.45461" lon="2.54853">
        <ele>272.1</ele>
        <time>2018-10-14T07:19:37Z</time>
      </trkpt>
      <trkpt lat="46.45467" lon="2.54861">
        <ele>271.8</ele>
        <time>2018-10-14T07:19:38Z</time>
      </trkpt>
      <trkpt lat="46.45472" lon="2.5487">
        <ele>271.6</ele>
        <time>2018-10-14T07:19:39Z</time>
      </trkpt>
      <trkpt lat="46.45477" lon="2.54879">
        <ele>271.6</ele>
        <time>2018-10-14T07:19:40Z</time>
      </trkpt>
      <trkpt lat="46.45481" lon="2.54888">
        <ele>271.5</ele>
        <time>2018-10-14T07:19:41Z</time>
      </trkpt>
      <trkpt lat="46.45486" lon="2.54897">
        <ele>271</ele>
        <time>2018-10-14T07:19:42Z</time>
      </trkpt>
      <trkpt lat="46.4549" lon="2.54906">
        <ele>270.5</ele>
        <time>2018-10-14T07:19:43Z</time>
      </trkpt>
      <trkpt lat="46.45493" lon="2.54915">
        <ele>270.2</ele>
        <time>2018-10-14T07:19:44Z</time>
      </trkpt>
      <trkpt lat="46.45497" lon="2.54924">
        <ele>270</ele>
        <time>2018-10-14T07:19:45Z</time>
      </trkpt>
      <trkpt lat="46.455" lon="2.54931">
        <ele>269.9</ele>
        <time>2018-10-14T07:19:46Z</time>
      </trkpt>
      <trkpt lat="46.45508" lon="2.54934">
        <ele>269.5</ele>
        <time>2018-10-14T07:19:48Z</time>
      </trkpt>
      <trkpt lat="46.45511" lon="2.5493">
        <ele>269.8</ele>
        <time>2018-10-14T07:19:49Z</time>
      </trkpt>
      <trkpt lat="46.45511" lon="2.54915">
        <ele>270.2</ele>
        <time>2018-10-14T07:19:52Z</time>
      </trkpt>
      <trkpt lat="46.45509" lon="2.54902">
        <ele>269.7</ele>
        <time>2018-10-14T07:19:54Z</time>
      </trkpt>
      <trkpt lat="46.45508" lon="2.54896">
        <ele>269.4</ele>
        <time>2018-10-14T07:19:55Z</time>
      </trkpt>
      <trkpt lat="46.45506" lon="2.5489">
        <ele>269.5</ele>
        <time>2018-10-14T07:19:56Z</time>
      </trkpt>
      <trkpt lat="46.45505" lon="2.54883">
        <ele>269.6</ele>
        <time>2018-10-14T07:19:57Z</time>
      </trkpt>
      <trkpt lat="46.45504" lon="2.54876">
        <ele>269.6</ele>
        <time>2018-10-14T07:19:58Z</time>
      </trkpt>
      <trkpt lat="46.45503" lon="2.54869">
        <ele>269.6</ele>
        <time>2018-10-14T07:19:59Z</time>
      </trkpt>
      <trkpt lat="46.45502" lon="2.54862">
        <ele>269.6</ele>
        <time>2018-10-14T07:20:00Z</time>
      </trkpt>
      <trkpt lat="46.45501" lon="2.54855">
        <ele>269.4</ele>
        <time>2018-10-14T07:20:01Z</time>
      </trkpt>
      <trkpt lat="46.455" lon="2.54848">
        <ele>269.3</ele>
        <time>2018-10-14T07:20:02Z</time>
      </trkpt>
      <trkpt lat="46.45499" lon="2.54841">
        <ele>269.5</ele>
        <time>2018-10-14T07:20:03Z</time>
      </trkpt>
      <trkpt lat="46.45498" lon="2.54834">
        <ele>269.7</ele>
        <time>2018-10-14T07:20:04Z</time>
      </trkpt>
      <trkpt lat="46.45497" lon="2.54826">
        <ele>269.9</ele>
        <time>2018-10-14T07:20:05Z</time>
      </trkpt>
      <trkpt lat="46.45496" lon="2.54819">
        <ele>269.5</ele>
        <time>2018-10-14T07:20:06Z</time>
      </trkpt>
      <trkpt lat="46.45495" lon="2.54812">
        <ele>269.2</ele>
        <time>2018-10-14T07:20:07Z</time>
      </trkpt>
      <trkpt lat="46.45494" lon="2.54805">
        <ele>269.2</ele>
        <time>2018-10-14T07:20:08Z</time>
      </trkpt>
      <trkpt lat="46.45493" lon="2.54798">
        <ele>269.1</ele>
        <time>2018-10-14T07:20:09Z</time>
      </trkpt>
      <trkpt lat="46.45492" lon="2.54791">
        <ele>269.3</ele>
        <time>2018-10-14T07:20:10Z</time>
      </trkpt>
      <trkpt lat="46.45491" lon="2.54783">
        <ele>269.4</ele>
        <time>2018-10-14T07:20:11Z</time>
      </trkpt>
      <trkpt lat="46.4549" lon="2.54776">
        <ele>269.5</ele>
        <time>2018-10-14T07:20:12Z</time>
      </trkpt>
      <trkpt lat="46.45489" lon="2.54769">
        <ele>269.5</ele>
        <time>2018-10-14T07:20:13Z</time>
      </trkpt>
      <trkpt lat="46.45488" lon="2.54762">
        <ele>269.5</ele>
        <time>2018-10-14T07:20:14Z</time>
      </trkpt>
      <trkpt lat="46.45487" lon="2.54754">
        <ele>269.2</ele>
        <time>2018-10-14T07:20:15Z</time>
      </trkpt>
      <trkpt lat="46.45486" lon="2.54747">
        <ele>269</ele>
        <time>2018-10-14T07:20:16Z</time>
      </trkpt>
      <trkpt lat="46.45485" lon="2.5474">
        <ele>268.9</ele>
        <time>2018-10-14T07:20:17Z</time>
      </trkpt>
      <trkpt lat="46.45484" lon="2.54733">
        <ele>269.3</ele>
        <time>2018-10-14T07:20:18Z</time>
      </trkpt>
      <trkpt lat="46.45483" lon="2.54726">
        <ele>269.7</ele>
        <time>2018-10-14T07:20:19Z</time>
      </trkpt>
      <trkpt lat="46.45481" lon="2.54718">
        <ele>270.3</ele>
        <time>2018-10-14T07:20:20Z</time>
      </trkpt>
      <trkpt lat="46.4548" lon="2.54711">
        <ele>270.7</ele>
        <time>2018-10-14T07:20:21Z</time>
      </trkpt>
      <trkpt lat="46.45479" lon="2.54703">
        <ele>270.8</ele>
        <time>2018-10-14T07:20:22Z</time>
      </trkpt>
      <trkpt lat="46.45478" lon="2.54696">
        <ele>270.9</ele>
        <time>2018-10-14T07:20:23Z</time>
      </trkpt>
      <trkpt lat="46.45476" lon="2.54688">
        <ele>270.9</ele>
        <time>2018-10-14T07:20:24Z</time>
      </trkpt>
      <trkpt lat="46.45475" lon="2.54681">
        <ele>270.4</ele>
        <time>2018-10-14T07:20:25Z</time>
      </trkpt>
      <trkpt lat="46.45473" lon="2.54674">
        <ele>270.1</ele>
        <time>2018-10-14T07:20:26Z</time>
      </trkpt>
      <trkpt lat="46.45472" lon="2.54666">
        <ele>270.1</ele>
        <time>2018-10-14T07:20:27Z</time>
      </trkpt>
      <trkpt lat="46.45471" lon="2.54659">
        <ele>270.1</ele>
        <time>2018-10-14T07:20:28Z</time>
      </trkpt>
      <trkpt lat="46.4547" lon="2.54652">
        <ele>270.6</ele>
        <time>2018-10-14T07:20:29Z</time>
      </trkpt>
      <trkpt lat="46.45468" lon="2.54646">
        <ele>271</ele>
        <time>2018-10-14T07:20:30Z</time>
      </trkpt>
      <trkpt lat="46.45467" lon="2.54639">
        <ele>271.3</ele>
        <time>2018-10-14T07:20:31Z</time>
      </trkpt>
      <trkpt lat="46.45466" lon="2.54632">
        <ele>271.1</ele>
        <time>2018-10-14T07:20:32Z</time>
      </trkpt>
      <trkpt lat="46.45465" lon="2.54626">
        <ele>271</ele>
        <time>2018-10-14T07:20:33Z</time>
      </trkpt>
      <trkpt lat="46.45464" lon="2.54619">
        <ele>271</ele>
        <time>2018-10-14T07:20:34Z</time>
      </trkpt>
      <trkpt lat="46.45462" lon="2.54613">
        <ele>271</ele>
        <time>2018-10-14T07:20:35Z</time>
      </trkpt>
      <trkpt lat="46.4546" lon="2.54607">
        <ele>271</ele>
        <time>2018-10-14T07:20:36Z</time>
      </trkpt>
      <trkpt lat="46.45459" lon="2.546">
        <ele>271.3</ele>
        <time>2018-10-14T07:20:37Z</time>
      </trkpt>
      <trkpt lat="46.45457" lon="2.54594">
        <ele>271.6</ele>
        <time>2018-10-14T07:20:38Z</time>
      </trkpt>
      <trkpt lat="46.45456" lon="2.54587">
        <ele>271.4</ele>
        <time>2018-10-14T07:20:39Z</time>
      </trkpt>
      <trkpt lat="46.45454" lon="2.54581">
        <ele>271.2</ele>
        <time>2018-10-14T07:20:40Z</time>
      </trkpt>
      <trkpt lat="46.45453" lon="2.54574">
        <ele>271.2</ele>
        <time>2018-10-14T07:20:41Z</time>
      </trkpt>
      <trkpt lat="46.45452" lon="2.54567">
        <ele>271.1</ele>
        <time>2018-10-14T07:20:42Z</time>
      </trkpt>
      <trkpt lat="46.4545" lon="2.5456">
        <ele>271.1</ele>
        <time>2018-10-14T07:20:43Z</time>
      </trkpt>
      <trkpt lat="46.45449" lon="2.54554">
        <ele>271.5</ele>
        <time>2018-10-14T07:20:44Z</time>
      </trkpt>
      <trkpt lat="46.45448" lon="2.54547">
        <ele>271.8</ele>
        <time>2018-10-14T07:20:45Z</time>
      </trkpt>
      <trkpt lat="46.45446" lon="2.5454">
        <ele>272.1</ele>
        <time>2018-10-14T07:20:46Z</time>
      </trkpt>
      <trkpt lat="46.45445" lon="2.54533">
        <ele>272.4</ele>
        <time>2018-10-14T07:20:47Z</time>
      </trkpt>
      <trkpt lat="46.45443" lon="2.54526">
        <ele>272.7</ele>
        <time>2018-10-14T07:20:48Z</time>
      </trkpt>
      <trkpt lat="46.45441" lon="2.54519">
        <ele>272.4</ele>
        <time>2018-10-14T07:20:49Z</time>
      </trkpt>
      <trkpt lat="46.45439" lon="2.54512">
        <ele>272.2</ele>
        <time>2018-10-14T07:20:50Z</time>
      </trkpt>
      <trkpt lat="46.45437" lon="2.54504">
        <ele>272.4</ele>
        <time>2018-10-14T07:20:51Z</time>
      </trkpt>
      <trkpt lat="46.45435" lon="2.54497">
        <ele>272.6</ele>
        <time>2018-10-14T07:20:52Z</time>
      </trkpt>
      <trkpt lat="46.45432" lon="2.54489">
        <ele>272.9</ele>
        <time>2018-10-14T07:20:53Z</time>
      </trkpt>
      <trkpt lat="46.45429" lon="2.54482">
        <ele>273.1</ele>
        <time>2018-10-14T07:20:54Z</time>
      </trkpt>
      <trkpt lat="46.45426" lon="2.54475">
        <ele>273.3</ele>
        <time>2018-10-14T07:20:55Z</time>
      </trkpt>
      <trkpt lat="46.45423" lon="2.54468">
        <ele>273.3</ele>
        <time>2018-10-14T07:20:56Z</time>
      </trkpt>
      <trkpt lat="46.4542" lon="2.54461">
        <ele>273.3</ele>
        <time>2018-10-14T07:20:57Z</time>
      </trkpt>
      <trkpt lat="46.45417" lon="2.54455">
        <ele>273.1</ele>
        <time>2018-10-14T07:20:58Z</time>
      </trkpt>
      <trkpt lat="46.45415" lon="2.54448">
        <ele>272.9</ele>
        <time>2018-10-14T07:20:59Z</time>
      </trkpt>
      <trkpt lat="46.45413" lon="2.54441">
        <ele>272.4</ele>
        <time>2018-10-14T07:21:00Z</time>
      </trkpt>
      <trkpt lat="46.45411" lon="2.54434">
        <ele>272.1</ele>
        <time>2018-10-14T07:21:01Z</time>
      </trkpt>
      <trkpt lat="46.45412" lon="2.54427">
        <ele>271.8</ele>
        <time>2018-10-14T07:21:02Z</time>
      </trkpt>
      <trkpt lat="46.45415" lon="2.5442">
        <ele>271.8</ele>
        <time>2018-10-14T07:21:03Z</time>
      </trkpt>
      <trkpt lat="46.4542" lon="2.54416">
        <ele>271.8</ele>
        <time>2018-10-14T07:21:04Z</time>
      </trkpt>
      <trkpt lat="46.45426" lon="2.54413">
        <ele>271.5</ele>
        <time>2018-10-14T07:21:05Z</time>
      </trkpt>
      <trkpt lat="46.45431" lon="2.54408">
        <ele>271.3</ele>
        <time>2018-10-14T07:21:06Z</time>
      </trkpt>
      <trkpt lat="46.45437" lon="2.54405">
        <ele>271.2</ele>
        <time>2018-10-14T07:21:07Z</time>
      </trkpt>
      <trkpt lat="46.45442" lon="2.54401">
        <ele>271.1</ele>
        <time>2018-10-14T07:21:08Z</time>
      </trkpt>
      <trkpt lat="46.45448" lon="2.54398">
        <ele>271</ele>
        <time>2018-10-14T07:21:09Z</time>
      </trkpt>
      <trkpt lat="46.45454" lon="2.54394">
        <ele>270.6</ele>
        <time>2018-10-14T07:21:10Z</time>
      </trkpt>
      <trkpt lat="46.45461" lon="2.5439">
        <ele>270.3</ele>
        <time>2018-10-14T07:21:11Z</time>
      </trkpt>
      <trkpt lat="46.45469" lon="2.54386">
        <ele>269.5</ele>
        <time>2018-10-14T07:21:12Z</time>
      </trkpt>
      <trkpt lat="46.45476" lon="2.54382">
        <ele>268.9</ele>
        <time>2018-10-14T07:21:13Z</time>
      </trkpt>
      <trkpt lat="46.45484" lon="2.54378">
        <ele>268.4</ele>
        <time>2018-10-14T07:21:14Z</time>
      </trkpt>
      <trkpt lat="46.45491" lon="2.54374">
        <ele>267.9</ele>
        <time>2018-10-14T07:21:15Z</time>
      </trkpt>
      <trkpt lat="46.45499" lon="2.54369">
        <ele>267.6</ele>
        <time>2018-10-14T07:21:16Z</time>
      </trkpt>
      <trkpt lat="46.45507" lon="2.54365">
        <ele>266.8</ele>
        <time>2018-10-14T07:21:17Z</time>
      </trkpt>
      <trkpt lat="46.45515" lon="2.54361">
        <ele>266.2</ele>
        <time>2018-10-14T07:21:18Z</time>
      </trkpt>
      <trkpt lat="46.45523" lon="2.54358">
        <ele>265.1</ele>
        <time>2018-10-14T07:21:19Z</time>
      </trkpt>
      <trkpt lat="46.45531" lon="2.54355">
        <ele>264.3</ele>
        <time>2018-10-14T07:21:20Z</time>
      </trkpt>
      <trkpt lat="46.45539" lon="2.54352">
        <ele>263.7</ele>
        <time>2018-10-14T07:21:21Z</time>
      </trkpt>
      <trkpt lat="46.45548" lon="2.54349">
        <ele>262.7</ele>
        <time>2018-10-14T07:21:22Z</time>
      </trkpt>
      <trkpt lat="46.45558" lon="2.54346">
        <ele>261.9</ele>
        <time>2018-10-14T07:21:23Z</time>
      </trkpt>
      <trkpt lat="46.45567" lon="2.54342">
        <ele>260.6</ele>
        <time>2018-10-14T07:21:24Z</time>
      </trkpt>
      <trkpt lat="46.45577" lon="2.54338">
        <ele>259.6</ele>
        <time>2018-10-14T07:21:25Z</time>
      </trkpt>
      <trkpt lat="46.45587" lon="2.54332">
        <ele>258.5</ele>
        <time>2018-10-14T07:21:26Z</time>
      </trkpt>
      <trkpt lat="46.45596" lon="2.54328">
        <ele>257.6</ele>
        <time>2018-10-14T07:21:27Z</time>
      </trkpt>
      <trkpt lat="46.45605" lon="2.54322">
        <ele>257</ele>
        <time>2018-10-14T07:21:28Z</time>
      </trkpt>
      <trkpt lat="46.45613" lon="2.54315">
        <ele>255.7</ele>
        <time>2018-10-14T07:21:29Z</time>
      </trkpt>
      <trkpt lat="46.45619" lon="2.54307">
        <ele>254.7</ele>
        <time>2018-10-14T07:21:30Z</time>
      </trkpt>
      <trkpt lat="46.45624" lon="2.54299">
        <ele>253.6</ele>
        <time>2018-10-14T07:21:31Z</time>
      </trkpt>
      <trkpt lat="46.45629" lon="2.54291">
        <ele>252.8</ele>
        <time>2018-10-14T07:21:32Z</time>
      </trkpt>
      <trkpt lat="46.45634" lon="2.54283">
        <ele>252.1</ele>
        <time>2018-10-14T07:21:33Z</time>
      </trkpt>
      <trkpt lat="46.45639" lon="2.54274">
        <ele>251.2</ele>
        <time>2018-10-14T07:21:34Z</time>
      </trkpt>
      <trkpt lat="46.45645" lon="2.54266">
        <ele>250.4</ele>
        <time>2018-10-14T07:21:35Z</time>
      </trkpt>
      <trkpt lat="46.45652" lon="2.54258">
        <ele>249.6</ele>
        <time>2018-10-14T07:21:36Z</time>
      </trkpt>
      <trkpt lat="46.45659" lon="2.54251">
        <ele>248.9</ele>
        <time>2018-10-14T07:21:37Z</time>
      </trkpt>
      <trkpt lat="46.45667" lon="2.54244">
        <ele>248.2</ele>
        <time>2018-10-14T07:21:38Z</time>
      </trkpt>
      <trkpt lat="46.45676" lon="2.54239">
        <ele>247.6</ele>
        <time>2018-10-14T07:21:39Z</time>
      </trkpt>
      <trkpt lat="46.45685" lon="2.54235">
        <ele>247.2</ele>
        <time>2018-10-14T07:21:40Z</time>
      </trkpt>
      <trkpt lat="46.45694" lon="2.54231">
        <ele>246</ele>
        <time>2018-10-14T07:21:41Z</time>
      </trkpt>
      <trkpt lat="46.45704" lon="2.54228">
        <ele>245.1</ele>
        <time>2018-10-14T07:21:42Z</time>
      </trkpt>
      <trkpt lat="46.45713" lon="2.54223">
        <ele>244.5</ele>
        <time>2018-10-14T07:21:43Z</time>
      </trkpt>
      <trkpt lat="46.45722" lon="2.54219">
        <ele>244</ele>
        <time>2018-10-14T07:21:44Z</time>
      </trkpt>
      <trkpt lat="46.4573" lon="2.54215">
        <ele>243.2</ele>
        <time>2018-10-14T07:21:45Z</time>
      </trkpt>
      <trkpt lat="46.45738" lon="2.5421">
        <ele>242.6</ele>
        <time>2018-10-14T07:21:46Z</time>
      </trkpt>
      <trkpt lat="46.45746" lon="2.54206">
        <ele>242.1</ele>
        <time>2018-10-14T07:21:47Z</time>
      </trkpt>
      <trkpt lat="46.45753" lon="2.54204">
        <ele>241.8</ele>
        <time>2018-10-14T07:21:48Z</time>
      </trkpt>
      <trkpt lat="46.45761" lon="2.54207">
        <ele>241.2</ele>
        <time>2018-10-14T07:21:50Z</time>
      </trkpt>
      <trkpt lat="46.45769" lon="2.54211">
        <ele>240.9</ele>
        <time>2018-10-14T07:21:52Z</time>
      </trkpt>
      <trkpt lat="46.45773" lon="2.54213">
        <ele>241.4</ele>
        <time>2018-10-14T07:21:53Z</time>
      </trkpt>
      <trkpt lat="46.45781" lon="2.5422">
        <ele>242.7</ele>
        <time>2018-10-14T07:21:56Z</time>
      </trkpt>
      <trkpt lat="46.45787" lon="2.54224">
        <ele>243.3</ele>
        <time>2018-10-14T07:21:58Z</time>
      </trkpt>
      <trkpt lat="46.45794" lon="2.54227">
        <ele>243.8</ele>
        <time>2018-10-14T07:22:00Z</time>
      </trkpt>
      <trkpt lat="46.458" lon="2.5423">
        <ele>244.6</ele>
        <time>2018-10-14T07:22:02Z</time>
      </trkpt>
      <trkpt lat="46.45808" lon="2.54234">
        <ele>245.2</ele>
        <time>2018-10-14T07:22:05Z</time>
      </trkpt>
      <trkpt lat="46.45817" lon="2.54234">
        <ele>246.9</ele>
        <time>2018-10-14T07:22:08Z</time>
      </trkpt>
      <trkpt lat="46.45824" lon="2.54233">
        <ele>247.9</ele>
        <time>2018-10-14T07:22:11Z</time>
      </trkpt>
      <trkpt lat="46.45831" lon="2.54231">
        <ele>248.8</ele>
        <time>2018-10-14T07:22:14Z</time>
      </trkpt>
      <trkpt lat="46.45837" lon="2.54227">
        <ele>249.4</ele>
        <time>2018-10-14T07:22:17Z</time>
      </trkpt>
      <trkpt lat="46.45844" lon="2.54223">
        <ele>250.4</ele>
        <time>2018-10-14T07:22:20Z</time>
      </trkpt>
      <trkpt lat="46.45851" lon="2.54217">
        <ele>251.8</ele>
        <time>2018-10-14T07:22:24Z</time>
      </trkpt>
      <trkpt lat="46.45856" lon="2.54211">
        <ele>252.7</ele>
        <time>2018-10-14T07:22:27Z</time>
      </trkpt>
      <trkpt lat="46.45863" lon="2.54203">
        <ele>254</ele>
        <time>2018-10-14T07:22:31Z</time>
      </trkpt>
      <trkpt lat="46.45868" lon="2.54196">
        <ele>255.2</ele>
        <time>2018-10-14T07:22:34Z</time>
      </trkpt>
      <trkpt lat="46.45873" lon="2.54188">
        <ele>256</ele>
        <time>2018-10-14T07:22:37Z</time>
      </trkpt>
      <trkpt lat="46.45878" lon="2.54178">
        <ele>257.6</ele>
        <time>2018-10-14T07:22:41Z</time>
      </trkpt>
      <trkpt lat="46.45882" lon="2.5417">
        <ele>258.5</ele>
        <time>2018-10-14T07:22:44Z</time>
      </trkpt>
      <trkpt lat="46.45886" lon="2.54161">
        <ele>258.9</ele>
        <time>2018-10-14T07:22:47Z</time>
      </trkpt>
      <trkpt lat="46.4589" lon="2.54153">
        <ele>260</ele>
        <time>2018-10-14T07:22:50Z</time>
      </trkpt>
      <trkpt lat="46.45894" lon="2.54144">
        <ele>261.3</ele>
        <time>2018-10-14T07:22:53Z</time>
      </trkpt>
      <trkpt lat="46.45895" lon="2.54141">
        <ele>261.3</ele>
        <time>2018-10-14T07:22:54Z</time>
      </trkpt>
      <trkpt lat="46.45901" lon="2.54126">
        <ele>262.3</ele>
        <time>2018-10-14T07:22:59Z</time>
      </trkpt>
      <trkpt lat="46.45905" lon="2.54117">
        <ele>263.7</ele>
        <time>2018-10-14T07:23:02Z</time>
      </trkpt>
      <trkpt lat="46.45907" lon="2.54107">
        <ele>264.4</ele>
        <time>2018-10-14T07:23:05Z</time>
      </trkpt>
      <trkpt lat="46.4591" lon="2.54096">
        <ele>265</ele>
        <time>2018-10-14T07:23:08Z</time>
      </trkpt>
      <trkpt lat="46.45913" lon="2.54084">
        <ele>265.4</ele>
        <time>2018-10-14T07:23:11Z</time>
      </trkpt>
      <trkpt lat="46.45914" lon="2.54072">
        <ele>265.8</ele>
        <time>2018-10-14T07:23:14Z</time>
      </trkpt>
      <trkpt lat="46.45915" lon="2.54059">
        <ele>266.4</ele>
        <time>2018-10-14T07:23:17Z</time>
      </trkpt>
      <trkpt lat="46.45916" lon="2.5405">
        <ele>267.1</ele>
        <time>2018-10-14T07:23:19Z</time>
      </trkpt>
      <trkpt lat="46.45916" lon="2.54041">
        <ele>267.7</ele>
        <time>2018-10-14T07:23:21Z</time>
      </trkpt>
      <trkpt lat="46.45913" lon="2.54033">
        <ele>267.8</ele>
        <time>2018-10-14T07:23:23Z</time>
      </trkpt>
      <trkpt lat="46.45911" lon="2.54024">
        <ele>267.9</ele>
        <time>2018-10-14T07:23:25Z</time>
      </trkpt>
      <trkpt lat="46.45909" lon="2.54014">
        <ele>267.8</ele>
        <time>2018-10-14T07:23:27Z</time>
      </trkpt>
      <trkpt lat="46.45907" lon="2.54005">
        <ele>267.6</ele>
        <time>2018-10-14T07:23:29Z</time>
      </trkpt>
      <trkpt lat="46.45905" lon="2.53995">
        <ele>268.6</ele>
        <time>2018-10-14T07:23:31Z</time>
      </trkpt>
      <trkpt lat="46.45904" lon="2.53984">
        <ele>268.3</ele>
        <time>2018-10-14T07:23:33Z</time>
      </trkpt>
      <trkpt lat="46.45906" lon="2.53972">
        <ele>268.5</ele>
        <time>2018-10-14T07:23:35Z</time>
      </trkpt>
      <trkpt lat="46.4591" lon="2.53961">
        <ele>268.3</ele>
        <time>2018-10-14T07:23:37Z</time>
      </trkpt>
      <trkpt lat="46.45913" lon="2.53956">
        <ele>267.9</ele>
        <time>2018-10-14T07:23:38Z</time>
      </trkpt>
      <trkpt lat="46.45917" lon="2.53951">
        <ele>267.4</ele>
        <time>2018-10-14T07:23:39Z</time>
      </trkpt>
      <trkpt lat="46.4592" lon="2.53946">
        <ele>267.1</ele>
        <time>2018-10-14T07:23:40Z</time>
      </trkpt>
      <trkpt lat="46.45924" lon="2.53941">
        <ele>266.8</ele>
        <time>2018-10-14T07:23:41Z</time>
      </trkpt>
      <trkpt lat="46.45928" lon="2.53935">
        <ele>266.7</ele>
        <time>2018-10-14T07:23:42Z</time>
      </trkpt>
      <trkpt lat="46.45932" lon="2.5393">
        <ele>266.5</ele>
        <time>2018-10-14T07:23:43Z</time>
      </trkpt>
      <trkpt lat="46.45937" lon="2.53924">
        <ele>266.7</ele>
        <time>2018-10-14T07:23:44Z</time>
      </trkpt>
      <trkpt lat="46.45941" lon="2.53919">
        <ele>266.8</ele>
        <time>2018-10-14T07:23:45Z</time>
      </trkpt>
      <trkpt lat="46.45945" lon="2.53914">
        <ele>266.8</ele>
        <time>2018-10-14T07:23:46Z</time>
      </trkpt>
      <trkpt lat="46.4595" lon="2.53909">
        <ele>266.8</ele>
        <time>2018-10-14T07:23:47Z</time>
      </trkpt>
      <trkpt lat="46.45954" lon="2.53903">
        <ele>266.8</ele>
        <time>2018-10-14T07:23:48Z</time>
      </trkpt>
      <trkpt lat="46.45959" lon="2.53898">
        <ele>266.9</ele>
        <time>2018-10-14T07:23:49Z</time>
      </trkpt>
      <trkpt lat="46.45963" lon="2.53893">
        <ele>266.9</ele>
        <time>2018-10-14T07:23:50Z</time>
      </trkpt>
      <trkpt lat="46.45967" lon="2.53888">
        <ele>267</ele>
        <time>2018-10-14T07:23:51Z</time>
      </trkpt>
      <trkpt lat="46.45971" lon="2.53882">
        <ele>267.1</ele>
        <time>2018-10-14T07:23:52Z</time>
      </trkpt>
      <trkpt lat="46.45974" lon="2.53875">
        <ele>267.2</ele>
        <time>2018-10-14T07:23:53Z</time>
      </trkpt>
      <trkpt lat="46.45976" lon="2.53867">
        <ele>267.3</ele>
        <time>2018-10-14T07:23:54Z</time>
      </trkpt>
      <trkpt lat="46.45979" lon="2.53859">
        <ele>267.4</ele>
        <time>2018-10-14T07:23:55Z</time>
      </trkpt>
      <trkpt lat="46.45981" lon="2.53851">
        <ele>267</ele>
        <time>2018-10-14T07:23:56Z</time>
      </trkpt>
      <trkpt lat="46.45982" lon="2.53843">
        <ele>266.8</ele>
        <time>2018-10-14T07:23:57Z</time>
      </trkpt>
      <trkpt lat="46.45984" lon="2.53834">
        <ele>266.6</ele>
        <time>2018-10-14T07:23:58Z</time>
      </trkpt>
      <trkpt lat="46.45985" lon="2.53826">
        <ele>266.5</ele>
        <time>2018-10-14T07:23:59Z</time>
      </trkpt>
      <trkpt lat="46.45986" lon="2.53818">
        <ele>266.4</ele>
        <time>2018-10-14T07:24:00Z</time>
      </trkpt>
      <trkpt lat="46.45987" lon="2.5381">
        <ele>266.3</ele>
        <time>2018-10-14T07:24:01Z</time>
      </trkpt>
      <trkpt lat="46.45989" lon="2.53802">
        <ele>266.3</ele>
        <time>2018-10-14T07:24:02Z</time>
      </trkpt>
      <trkpt lat="46.4599" lon="2.53796">
        <ele>266.3</ele>
        <time>2018-10-14T07:24:03Z</time>
      </trkpt>
      <trkpt lat="46.45991" lon="2.53788">
        <ele>266.3</ele>
        <time>2018-10-14T07:24:04Z</time>
      </trkpt>
      <trkpt lat="46.45992" lon="2.53782">
        <ele>266.5</ele>
        <time>2018-10-14T07:24:05Z</time>
      </trkpt>
      <trkpt lat="46.45995" lon="2.5377">
        <ele>266.9</ele>
        <time>2018-10-14T07:24:07Z</time>
      </trkpt>
      <trkpt lat="46.45996" lon="2.53764">
        <ele>266.9</ele>
        <time>2018-10-14T07:24:08Z</time>
      </trkpt>
      <trkpt lat="46.45998" lon="2.53757">
        <ele>266.8</ele>
        <time>2018-10-14T07:24:09Z</time>
      </trkpt>
      <trkpt lat="46.45999" lon="2.53751">
        <ele>266.9</ele>
        <time>2018-10-14T07:24:10Z</time>
      </trkpt>
      <trkpt lat="46.46001" lon="2.53745">
        <ele>267</ele>
        <time>2018-10-14T07:24:11Z</time>
      </trkpt>
      <trkpt lat="46.46003" lon="2.53739">
        <ele>267.1</ele>
        <time>2018-10-14T07:24:12Z</time>
      </trkpt>
      <trkpt lat="46.46005" lon="2.53733">
        <ele>267.2</ele>
        <time>2018-10-14T07:24:13Z</time>
      </trkpt>
      <trkpt lat="46.46006" lon="2.53726">
        <ele>267.2</ele>
        <time>2018-10-14T07:24:14Z</time>
      </trkpt>
      <trkpt lat="46.46008" lon="2.53714">
        <ele>267.5</ele>
        <time>2018-10-14T07:24:16Z</time>
      </trkpt>
      <trkpt lat="46.4601" lon="2.53702">
        <ele>268.1</ele>
        <time>2018-10-14T07:24:18Z</time>
      </trkpt>
      <trkpt lat="46.46011" lon="2.53689">
        <ele>268.5</ele>
        <time>2018-10-14T07:24:20Z</time>
      </trkpt>
      <trkpt lat="46.46011" lon="2.53683">
        <ele>268.6</ele>
        <time>2018-10-14T07:24:21Z</time>
      </trkpt>
      <trkpt lat="46.46011" lon="2.53676">
        <ele>268.7</ele>
        <time>2018-10-14T07:24:22Z</time>
      </trkpt>
      <trkpt lat="46.46011" lon="2.53669">
        <ele>268.8</ele>
        <time>2018-10-14T07:24:23Z</time>
      </trkpt>
      <trkpt lat="46.46011" lon="2.53663">
        <ele>269</ele>
        <time>2018-10-14T07:24:24Z</time>
      </trkpt>
      <trkpt lat="46.46011" lon="2.53656">
        <ele>269.1</ele>
        <time>2018-10-14T07:24:25Z</time>
      </trkpt>
      <trkpt lat="46.46012" lon="2.53643">
        <ele>269.1</ele>
        <time>2018-10-14T07:24:27Z</time>
      </trkpt>
      <trkpt lat="46.46014" lon="2.53631">
        <ele>269.4</ele>
        <time>2018-10-14T07:24:29Z</time>
      </trkpt>
      <trkpt lat="46.46016" lon="2.53619">
        <ele>269.7</ele>
        <time>2018-10-14T07:24:31Z</time>
      </trkpt>
      <trkpt lat="46.46017" lon="2.53608">
        <ele>270.2</ele>
        <time>2018-10-14T07:24:33Z</time>
      </trkpt>
      <trkpt lat="46.46018" lon="2.53597">
        <ele>271</ele>
        <time>2018-10-14T07:24:35Z</time>
      </trkpt>
      <trkpt lat="46.46018" lon="2.53584">
        <ele>271.1</ele>
        <time>2018-10-14T07:24:37Z</time>
      </trkpt>
      <trkpt lat="46.46019" lon="2.53571">
        <ele>271.1</ele>
        <time>2018-10-14T07:24:39Z</time>
      </trkpt>
      <trkpt lat="46.46019" lon="2.53565">
        <ele>271.2</ele>
        <time>2018-10-14T07:24:40Z</time>
      </trkpt>
      <trkpt lat="46.46019" lon="2.53558">
        <ele>271.7</ele>
        <time>2018-10-14T07:24:41Z</time>
      </trkpt>
      <trkpt lat="46.46019" lon="2.53551">
        <ele>272</ele>
        <time>2018-10-14T07:24:42Z</time>
      </trkpt>
      <trkpt lat="46.46019" lon="2.53545">
        <ele>272.3</ele>
        <time>2018-10-14T07:24:43Z</time>
      </trkpt>
      <trkpt lat="46.46019" lon="2.53532">
        <ele>272.7</ele>
        <time>2018-10-14T07:24:45Z</time>
      </trkpt>
      <trkpt lat="46.46019" lon="2.53519">
        <ele>272</ele>
        <time>2018-10-14T07:24:47Z</time>
      </trkpt>
      <trkpt lat="46.46019" lon="2.53512">
        <ele>272.5</ele>
        <time>2018-10-14T07:24:48Z</time>
      </trkpt>
      <trkpt lat="46.4602" lon="2.53506">
        <ele>272.8</ele>
        <time>2018-10-14T07:24:49Z</time>
      </trkpt>
      <trkpt lat="46.4602" lon="2.53499">
        <ele>272.9</ele>
        <time>2018-10-14T07:24:50Z</time>
      </trkpt>
      <trkpt lat="46.4602" lon="2.53492">
        <ele>273</ele>
        <time>2018-10-14T07:24:51Z</time>
      </trkpt>
      <trkpt lat="46.4602" lon="2.53485">
        <ele>273.1</ele>
        <time>2018-10-14T07:24:52Z</time>
      </trkpt>
      <trkpt lat="46.46019" lon="2.53477">
        <ele>273.3</ele>
        <time>2018-10-14T07:24:53Z</time>
      </trkpt>
      <trkpt lat="46.46019" lon="2.53469">
        <ele>273.4</ele>
        <time>2018-10-14T07:24:54Z</time>
      </trkpt>
      <trkpt lat="46.46019" lon="2.53461">
        <ele>273.3</ele>
        <time>2018-10-14T07:24:55Z</time>
      </trkpt>
      <trkpt lat="46.46018" lon="2.53453">
        <ele>273.3</ele>
        <time>2018-10-14T07:24:56Z</time>
      </trkpt>
      <trkpt lat="46.46018" lon="2.53445">
        <ele>273.3</ele>
        <time>2018-10-14T07:24:57Z</time>
      </trkpt>
      <trkpt lat="46.46017" lon="2.53436">
        <ele>272.8</ele>
        <time>2018-10-14T07:24:58Z</time>
      </trkpt>
      <trkpt lat="46.46016" lon="2.53426">
        <ele>272.4</ele>
        <time>2018-10-14T07:24:59Z</time>
      </trkpt>
      <trkpt lat="46.46016" lon="2.53417">
        <ele>272.2</ele>
        <time>2018-10-14T07:25:00Z</time>
      </trkpt>
      <trkpt lat="46.46015" lon="2.53407">
        <ele>272</ele>
        <time>2018-10-14T07:25:01Z</time>
      </trkpt>
      <trkpt lat="46.46016" lon="2.53396">
        <ele>272.1</ele>
        <time>2018-10-14T07:25:02Z</time>
      </trkpt>
      <trkpt lat="46.46017" lon="2.53385">
        <ele>272.1</ele>
        <time>2018-10-14T07:25:03Z</time>
      </trkpt>
      <trkpt lat="46.46018" lon="2.53373">
        <ele>272.1</ele>
        <time>2018-10-14T07:25:04Z</time>
      </trkpt>
      <trkpt lat="46.4602" lon="2.53361">
        <ele>271.3</ele>
        <time>2018-10-14T07:25:05Z</time>
      </trkpt>
      <trkpt lat="46.46022" lon="2.53349">
        <ele>270.8</ele>
        <time>2018-10-14T07:25:06Z</time>
      </trkpt>
      <trkpt lat="46.46024" lon="2.53336">
        <ele>269.9</ele>
        <time>2018-10-14T07:25:07Z</time>
      </trkpt>
      <trkpt lat="46.46025" lon="2.53323">
        <ele>269.3</ele>
        <time>2018-10-14T07:25:08Z</time>
      </trkpt>
      <trkpt lat="46.46025" lon="2.53311">
        <ele>268.8</ele>
        <time>2018-10-14T07:25:09Z</time>
      </trkpt>
      <trkpt lat="46.46027" lon="2.53298">
        <ele>268.4</ele>
        <time>2018-10-14T07:25:10Z</time>
      </trkpt>
      <trkpt lat="46.46027" lon="2.53288">
        <ele>268</ele>
        <time>2018-10-14T07:25:11Z</time>
      </trkpt>
      <trkpt lat="46.46027" lon="2.53278">
        <ele>267.9</ele>
        <time>2018-10-14T07:25:12Z</time>
      </trkpt>
      <trkpt lat="46.46028" lon="2.53269">
        <ele>267.7</ele>
        <time>2018-10-14T07:25:13Z</time>
      </trkpt>
      <trkpt lat="46.46028" lon="2.5326">
        <ele>267.5</ele>
        <time>2018-10-14T07:25:14Z</time>
      </trkpt>
      <trkpt lat="46.46028" lon="2.53252">
        <ele>267.4</ele>
        <time>2018-10-14T07:25:15Z</time>
      </trkpt>
      <trkpt lat="46.46029" lon="2.53244">
        <ele>267.3</ele>
        <time>2018-10-14T07:25:16Z</time>
      </trkpt>
      <trkpt lat="46.46029" lon="2.53235">
        <ele>267.5</ele>
        <time>2018-10-14T07:25:17Z</time>
      </trkpt>
      <trkpt lat="46.46029" lon="2.53227">
        <ele>267.7</ele>
        <time>2018-10-14T07:25:18Z</time>
      </trkpt>
      <trkpt lat="46.4603" lon="2.5322">
        <ele>268.2</ele>
        <time>2018-10-14T07:25:19Z</time>
      </trkpt>
      <trkpt lat="46.4603" lon="2.53207">
        <ele>269.2</ele>
        <time>2018-10-14T07:25:21Z</time>
      </trkpt>
      <trkpt lat="46.46031" lon="2.53194">
        <ele>270</ele>
        <time>2018-10-14T07:25:23Z</time>
      </trkpt>
      <trkpt lat="46.46032" lon="2.53182">
        <ele>270.2</ele>
        <time>2018-10-14T07:25:25Z</time>
      </trkpt>
      <trkpt lat="46.46033" lon="2.53171">
        <ele>271.5</ele>
        <time>2018-10-14T07:25:27Z</time>
      </trkpt>
      <trkpt lat="46.46034" lon="2.5316">
        <ele>271.3</ele>
        <time>2018-10-14T07:25:29Z</time>
      </trkpt>
      <trkpt lat="46.46035" lon="2.53151">
        <ele>271.7</ele>
        <time>2018-10-14T07:25:31Z</time>
      </trkpt>
      <trkpt lat="46.46037" lon="2.53141">
        <ele>272.2</ele>
        <time>2018-10-14T07:25:33Z</time>
      </trkpt>
      <trkpt lat="46.4604" lon="2.53132">
        <ele>272.3</ele>
        <time>2018-10-14T07:25:35Z</time>
      </trkpt>
      <trkpt lat="46.46042" lon="2.53124">
        <ele>273.1</ele>
        <time>2018-10-14T07:25:37Z</time>
      </trkpt>
      <trkpt lat="46.46046" lon="2.53116">
        <ele>273.5</ele>
        <time>2018-10-14T07:25:39Z</time>
      </trkpt>
      <trkpt lat="46.46049" lon="2.53108">
        <ele>273.9</ele>
        <time>2018-10-14T07:25:41Z</time>
      </trkpt>
      <trkpt lat="46.46052" lon="2.531">
        <ele>274.7</ele>
        <time>2018-10-14T07:25:43Z</time>
      </trkpt>
      <trkpt lat="46.46056" lon="2.53093">
        <ele>275.7</ele>
        <time>2018-10-14T07:25:45Z</time>
      </trkpt>
      <trkpt lat="46.4606" lon="2.53085">
        <ele>276.2</ele>
        <time>2018-10-14T07:25:47Z</time>
      </trkpt>
      <trkpt lat="46.46064" lon="2.53077">
        <ele>276.3</ele>
        <time>2018-10-14T07:25:49Z</time>
      </trkpt>
      <trkpt lat="46.46069" lon="2.53068">
        <ele>277.1</ele>
        <time>2018-10-14T07:25:51Z</time>
      </trkpt>
      <trkpt lat="46.46073" lon="2.5306">
        <ele>278.2</ele>
        <time>2018-10-14T07:25:53Z</time>
      </trkpt>
      <trkpt lat="46.46078" lon="2.53052">
        <ele>278.8</ele>
        <time>2018-10-14T07:25:55Z</time>
      </trkpt>
      <trkpt lat="46.46083" lon="2.53044">
        <ele>279.4</ele>
        <time>2018-10-14T07:25:57Z</time>
      </trkpt>
      <trkpt lat="46.46085" lon="2.53041">
        <ele>279.8</ele>
        <time>2018-10-14T07:25:58Z</time>
      </trkpt>
      <trkpt lat="46.46092" lon="2.53029">
        <ele>279.6</ele>
        <time>2018-10-14T07:26:01Z</time>
      </trkpt>
      <trkpt lat="46.46096" lon="2.53021">
        <ele>279.7</ele>
        <time>2018-10-14T07:26:03Z</time>
      </trkpt>
      <trkpt lat="46.46101" lon="2.53013">
        <ele>280.1</ele>
        <time>2018-10-14T07:26:05Z</time>
      </trkpt>
      <trkpt lat="46.46106" lon="2.53005">
        <ele>281.6</ele>
        <time>2018-10-14T07:26:07Z</time>
      </trkpt>
      <trkpt lat="46.46111" lon="2.52997">
        <ele>282</ele>
        <time>2018-10-14T07:26:09Z</time>
      </trkpt>
      <trkpt lat="46.46116" lon="2.52989">
        <ele>282.4</ele>
        <time>2018-10-14T07:26:11Z</time>
      </trkpt>
      <trkpt lat="46.46121" lon="2.52981">
        <ele>283</ele>
        <time>2018-10-14T07:26:13Z</time>
      </trkpt>
      <trkpt lat="46.46125" lon="2.52973">
        <ele>282.8</ele>
        <time>2018-10-14T07:26:15Z</time>
      </trkpt>
      <trkpt lat="46.46129" lon="2.52964">
        <ele>284</ele>
        <time>2018-10-14T07:26:17Z</time>
      </trkpt>
      <trkpt lat="46.46134" lon="2.52955">
        <ele>284</ele>
        <time>2018-10-14T07:26:19Z</time>
      </trkpt>
      <trkpt lat="46.46138" lon="2.52946">
        <ele>283.7</ele>
        <time>2018-10-14T07:26:21Z</time>
      </trkpt>
      <trkpt lat="46.46142" lon="2.52937">
        <ele>283.7</ele>
        <time>2018-10-14T07:26:23Z</time>
      </trkpt>
      <trkpt lat="46.46146" lon="2.52928">
        <ele>284.4</ele>
        <time>2018-10-14T07:26:25Z</time>
      </trkpt>
      <trkpt lat="46.46151" lon="2.52919">
        <ele>285</ele>
        <time>2018-10-14T07:26:27Z</time>
      </trkpt>
      <trkpt lat="46.46155" lon="2.5291">
        <ele>284.8</ele>
        <time>2018-10-14T07:26:29Z</time>
      </trkpt>
      <trkpt lat="46.46159" lon="2.52901">
        <ele>285.3</ele>
        <time>2018-10-14T07:26:31Z</time>
      </trkpt>
      <trkpt lat="46.46164" lon="2.52891">
        <ele>285</ele>
        <time>2018-10-14T07:26:33Z</time>
      </trkpt>
      <trkpt lat="46.46168" lon="2.52881">
        <ele>284.7</ele>
        <time>2018-10-14T07:26:35Z</time>
      </trkpt>
      <trkpt lat="46.46173" lon="2.52871">
        <ele>284.7</ele>
        <time>2018-10-14T07:26:37Z</time>
      </trkpt>
      <trkpt lat="46.46177" lon="2.52861">
        <ele>284.6</ele>
        <time>2018-10-14T07:26:39Z</time>
      </trkpt>
      <trkpt lat="46.46182" lon="2.52853">
        <ele>284.4</ele>
        <time>2018-10-14T07:26:41Z</time>
      </trkpt>
      <trkpt lat="46.46187" lon="2.52845">
        <ele>284.3</ele>
        <time>2018-10-14T07:26:43Z</time>
      </trkpt>
      <trkpt lat="46.46192" lon="2.52836">
        <ele>285.3</ele>
        <time>2018-10-14T07:26:45Z</time>
      </trkpt>
      <trkpt lat="46.46197" lon="2.52827">
        <ele>285.4</ele>
        <time>2018-10-14T07:26:47Z</time>
      </trkpt>
      <trkpt lat="46.46201" lon="2.52818">
        <ele>285.3</ele>
        <time>2018-10-14T07:26:49Z</time>
      </trkpt>
      <trkpt lat="46.46205" lon="2.5281">
        <ele>285.4</ele>
        <time>2018-10-14T07:26:51Z</time>
      </trkpt>
      <trkpt lat="46.4621" lon="2.52803">
        <ele>286.5</ele>
        <time>2018-10-14T07:26:53Z</time>
      </trkpt>
      <trkpt lat="46.46213" lon="2.52795">
        <ele>287.2</ele>
        <time>2018-10-14T07:26:55Z</time>
      </trkpt>
      <trkpt lat="46.46217" lon="2.52787">
        <ele>288.2</ele>
        <time>2018-10-14T07:26:57Z</time>
      </trkpt>
      <trkpt lat="46.46221" lon="2.5278">
        <ele>288.5</ele>
        <time>2018-10-14T07:26:59Z</time>
      </trkpt>
      <trkpt lat="46.46223" lon="2.52775">
        <ele>288.5</ele>
        <time>2018-10-14T07:27:00Z</time>
      </trkpt>
      <trkpt lat="46.46229" lon="2.52763">
        <ele>289.2</ele>
        <time>2018-10-14T07:27:03Z</time>
      </trkpt>
      <trkpt lat="46.46233" lon="2.52753">
        <ele>289.5</ele>
        <time>2018-10-14T07:27:05Z</time>
      </trkpt>
      <trkpt lat="46.46237" lon="2.52744">
        <ele>289.8</ele>
        <time>2018-10-14T07:27:07Z</time>
      </trkpt>
      <trkpt lat="46.46241" lon="2.52735">
        <ele>290</ele>
        <time>2018-10-14T07:27:09Z</time>
      </trkpt>
      <trkpt lat="46.46245" lon="2.52726">
        <ele>290.2</ele>
        <time>2018-10-14T07:27:11Z</time>
      </trkpt>
      <trkpt lat="46.46248" lon="2.52718">
        <ele>290.2</ele>
        <time>2018-10-14T07:27:13Z</time>
      </trkpt>
      <trkpt lat="46.46252" lon="2.5271">
        <ele>290.8</ele>
        <time>2018-10-14T07:27:15Z</time>
      </trkpt>
      <trkpt lat="46.46255" lon="2.52701">
        <ele>291.6</ele>
        <time>2018-10-14T07:27:17Z</time>
      </trkpt>
      <trkpt lat="46.46258" lon="2.52692">
        <ele>291.4</ele>
        <time>2018-10-14T07:27:19Z</time>
      </trkpt>
      <trkpt lat="46.46261" lon="2.52683">
        <ele>292</ele>
        <time>2018-10-14T07:27:21Z</time>
      </trkpt>
      <trkpt lat="46.46265" lon="2.52674">
        <ele>292.2</ele>
        <time>2018-10-14T07:27:23Z</time>
      </trkpt>
      <trkpt lat="46.46268" lon="2.52664">
        <ele>292.6</ele>
        <time>2018-10-14T07:27:25Z</time>
      </trkpt>
      <trkpt lat="46.46272" lon="2.52655">
        <ele>293.1</ele>
        <time>2018-10-14T07:27:27Z</time>
      </trkpt>
      <trkpt lat="46.46275" lon="2.52646">
        <ele>293.8</ele>
        <time>2018-10-14T07:27:29Z</time>
      </trkpt>
      <trkpt lat="46.46279" lon="2.52637">
        <ele>294.4</ele>
        <time>2018-10-14T07:27:31Z</time>
      </trkpt>
      <trkpt lat="46.46282" lon="2.52628">
        <ele>294.5</ele>
        <time>2018-10-14T07:27:33Z</time>
      </trkpt>
      <trkpt lat="46.46286" lon="2.52618">
        <ele>294.9</ele>
        <time>2018-10-14T07:27:35Z</time>
      </trkpt>
      <trkpt lat="46.46289" lon="2.5261">
        <ele>295.2</ele>
        <time>2018-10-14T07:27:37Z</time>
      </trkpt>
      <trkpt lat="46.46292" lon="2.52601">
        <ele>295.5</ele>
        <time>2018-10-14T07:27:39Z</time>
      </trkpt>
      <trkpt lat="46.46297" lon="2.52593">
        <ele>295.6</ele>
        <time>2018-10-14T07:27:41Z</time>
      </trkpt>
      <trkpt lat="46.46301" lon="2.52585">
        <ele>295.7</ele>
        <time>2018-10-14T07:27:43Z</time>
      </trkpt>
      <trkpt lat="46.46305" lon="2.52576">
        <ele>295.7</ele>
        <time>2018-10-14T07:27:45Z</time>
      </trkpt>
      <trkpt lat="46.46309" lon="2.52569">
        <ele>296.1</ele>
        <time>2018-10-14T07:27:47Z</time>
      </trkpt>
      <trkpt lat="46.46313" lon="2.5256">
        <ele>297.1</ele>
        <time>2018-10-14T07:27:49Z</time>
      </trkpt>
      <trkpt lat="46.46316" lon="2.5255">
        <ele>297.6</ele>
        <time>2018-10-14T07:27:51Z</time>
      </trkpt>
      <trkpt lat="46.4632" lon="2.5254">
        <ele>297.6</ele>
        <time>2018-10-14T07:27:53Z</time>
      </trkpt>
      <trkpt lat="46.46324" lon="2.5253">
        <ele>297.4</ele>
        <time>2018-10-14T07:27:55Z</time>
      </trkpt>
      <trkpt lat="46.46328" lon="2.52519">
        <ele>297</ele>
        <time>2018-10-14T07:27:57Z</time>
      </trkpt>
      <trkpt lat="46.46332" lon="2.52508">
        <ele>296.7</ele>
        <time>2018-10-14T07:27:59Z</time>
      </trkpt>
      <trkpt lat="46.46336" lon="2.52497">
        <ele>297.1</ele>
        <time>2018-10-14T07:28:01Z</time>
      </trkpt>
      <trkpt lat="46.46338" lon="2.52491">
        <ele>297.3</ele>
        <time>2018-10-14T07:28:02Z</time>
      </trkpt>
      <trkpt lat="46.4634" lon="2.52485">
        <ele>297.1</ele>
        <time>2018-10-14T07:28:03Z</time>
      </trkpt>
      <trkpt lat="46.46341" lon="2.52479">
        <ele>297</ele>
        <time>2018-10-14T07:28:04Z</time>
      </trkpt>
      <trkpt lat="46.46342" lon="2.52472">
        <ele>297.2</ele>
        <time>2018-10-14T07:28:05Z</time>
      </trkpt>
      <trkpt lat="46.46343" lon="2.52465">
        <ele>297.3</ele>
        <time>2018-10-14T07:28:06Z</time>
      </trkpt>
      <trkpt lat="46.46344" lon="2.52458">
        <ele>297.1</ele>
        <time>2018-10-14T07:28:07Z</time>
      </trkpt>
      <trkpt lat="46.46345" lon="2.52452">
        <ele>296.9</ele>
        <time>2018-10-14T07:28:08Z</time>
      </trkpt>
      <trkpt lat="46.46346" lon="2.52445">
        <ele>296.8</ele>
        <time>2018-10-14T07:28:09Z</time>
      </trkpt>
      <trkpt lat="46.46347" lon="2.52438">
        <ele>297</ele>
        <time>2018-10-14T07:28:10Z</time>
      </trkpt>
      <trkpt lat="46.46348" lon="2.52431">
        <ele>297.3</ele>
        <time>2018-10-14T07:28:11Z</time>
      </trkpt>
      <trkpt lat="46.4635" lon="2.52424">
        <ele>297.2</ele>
        <time>2018-10-14T07:28:12Z</time>
      </trkpt>
      <trkpt lat="46.46351" lon="2.52418">
        <ele>297.2</ele>
        <time>2018-10-14T07:28:13Z</time>
      </trkpt>
      <trkpt lat="46.46352" lon="2.52411">
        <ele>297.2</ele>
        <time>2018-10-14T07:28:14Z</time>
      </trkpt>
      <trkpt lat="46.46353" lon="2.52404">
        <ele>297.5</ele>
        <time>2018-10-14T07:28:15Z</time>
      </trkpt>
      <trkpt lat="46.46354" lon="2.52396">
        <ele>297.7</ele>
        <time>2018-10-14T07:28:16Z</time>
      </trkpt>
      <trkpt lat="46.46355" lon="2.52389">
        <ele>297.2</ele>
        <time>2018-10-14T07:28:17Z</time>
      </trkpt>
      <trkpt lat="46.46356" lon="2.52382">
        <ele>296.8</ele>
        <time>2018-10-14T07:28:18Z</time>
      </trkpt>
      <trkpt lat="46.46357" lon="2.52374">
        <ele>297</ele>
        <time>2018-10-14T07:28:19Z</time>
      </trkpt>
      <trkpt lat="46.46358" lon="2.52367">
        <ele>297.1</ele>
        <time>2018-10-14T07:28:20Z</time>
      </trkpt>
      <trkpt lat="46.46359" lon="2.52359">
        <ele>297.2</ele>
        <time>2018-10-14T07:28:21Z</time>
      </trkpt>
      <trkpt lat="46.4636" lon="2.52351">
        <ele>297.3</ele>
        <time>2018-10-14T07:28:22Z</time>
      </trkpt>
      <trkpt lat="46.46361" lon="2.52344">
        <ele>297.4</ele>
        <time>2018-10-14T07:28:23Z</time>
      </trkpt>
      <trkpt lat="46.46362" lon="2.52336">
        <ele>297.4</ele>
        <time>2018-10-14T07:28:24Z</time>
      </trkpt>
      <trkpt lat="46.46363" lon="2.52328">
        <ele>297.4</ele>
        <time>2018-10-14T07:28:25Z</time>
      </trkpt>
      <trkpt lat="46.46364" lon="2.5232">
        <ele>297.7</ele>
        <time>2018-10-14T07:28:26Z</time>
      </trkpt>
      <trkpt lat="46.46364" lon="2.52313">
        <ele>297.8</ele>
        <time>2018-10-14T07:28:27Z</time>
      </trkpt>
      <trkpt lat="46.46365" lon="2.52306">
        <ele>298</ele>
        <time>2018-10-14T07:28:28Z</time>
      </trkpt>
      <trkpt lat="46.46366" lon="2.52299">
        <ele>297.9</ele>
        <time>2018-10-14T07:28:29Z</time>
      </trkpt>
      <trkpt lat="46.46367" lon="2.52292">
        <ele>297.8</ele>
        <time>2018-10-14T07:28:30Z</time>
      </trkpt>
      <trkpt lat="46.46368" lon="2.52284">
        <ele>298.3</ele>
        <time>2018-10-14T07:28:31Z</time>
      </trkpt>
      <trkpt lat="46.46369" lon="2.52277">
        <ele>298.6</ele>
        <time>2018-10-14T07:28:32Z</time>
      </trkpt>
      <trkpt lat="46.4637" lon="2.5227">
        <ele>298.8</ele>
        <time>2018-10-14T07:28:33Z</time>
      </trkpt>
      <trkpt lat="46.46371" lon="2.52262">
        <ele>298.4</ele>
        <time>2018-10-14T07:28:34Z</time>
      </trkpt>
      <trkpt lat="46.46372" lon="2.52255">
        <ele>298.1</ele>
        <time>2018-10-14T07:28:35Z</time>
      </trkpt>
      <trkpt lat="46.46373" lon="2.52248">
        <ele>298.1</ele>
        <time>2018-10-14T07:28:36Z</time>
      </trkpt>
      <trkpt lat="46.46374" lon="2.5224">
        <ele>298</ele>
        <time>2018-10-14T07:28:37Z</time>
      </trkpt>
      <trkpt lat="46.46375" lon="2.52233">
        <ele>297.8</ele>
        <time>2018-10-14T07:28:38Z</time>
      </trkpt>
      <trkpt lat="46.46376" lon="2.52225">
        <ele>297.6</ele>
        <time>2018-10-14T07:28:39Z</time>
      </trkpt>
      <trkpt lat="46.46377" lon="2.52218">
        <ele>297.4</ele>
        <time>2018-10-14T07:28:40Z</time>
      </trkpt>
      <trkpt lat="46.46379" lon="2.52211">
        <ele>297.7</ele>
        <time>2018-10-14T07:28:41Z</time>
      </trkpt>
      <trkpt lat="46.4638" lon="2.52203">
        <ele>297.8</ele>
        <time>2018-10-14T07:28:42Z</time>
      </trkpt>
      <trkpt lat="46.46382" lon="2.52196">
        <ele>298</ele>
        <time>2018-10-14T07:28:43Z</time>
      </trkpt>
      <trkpt lat="46.46383" lon="2.5219">
        <ele>298.1</ele>
        <time>2018-10-14T07:28:44Z</time>
      </trkpt>
      <trkpt lat="46.46385" lon="2.52183">
        <ele>298.2</ele>
        <time>2018-10-14T07:28:45Z</time>
      </trkpt>
      <trkpt lat="46.46387" lon="2.52176">
        <ele>298.3</ele>
        <time>2018-10-14T07:28:46Z</time>
      </trkpt>
      <trkpt lat="46.46389" lon="2.5217">
        <ele>298.4</ele>
        <time>2018-10-14T07:28:47Z</time>
      </trkpt>
      <trkpt lat="46.46391" lon="2.52164">
        <ele>298.8</ele>
        <time>2018-10-14T07:28:48Z</time>
      </trkpt>
      <trkpt lat="46.46393" lon="2.52157">
        <ele>299.1</ele>
        <time>2018-10-14T07:28:49Z</time>
      </trkpt>
      <trkpt lat="46.46395" lon="2.52151">
        <ele>299</ele>
        <time>2018-10-14T07:28:50Z</time>
      </trkpt>
      <trkpt lat="46.46397" lon="2.52144">
        <ele>299</ele>
        <time>2018-10-14T07:28:51Z</time>
      </trkpt>
      <trkpt lat="46.46399" lon="2.52138">
        <ele>299</ele>
        <time>2018-10-14T07:28:52Z</time>
      </trkpt>
      <trkpt lat="46.46401" lon="2.52132">
        <ele>298.9</ele>
        <time>2018-10-14T07:28:53Z</time>
      </trkpt>
      <trkpt lat="46.46403" lon="2.52125">
        <ele>298.9</ele>
        <time>2018-10-14T07:28:54Z</time>
      </trkpt>
      <trkpt lat="46.46406" lon="2.52119">
        <ele>299</ele>
        <time>2018-10-14T07:28:55Z</time>
      </trkpt>
      <trkpt lat="46.46408" lon="2.52112">
        <ele>299.1</ele>
        <time>2018-10-14T07:28:56Z</time>
      </trkpt>
      <trkpt lat="46.4641" lon="2.52106">
        <ele>299</ele>
        <time>2018-10-14T07:28:57Z</time>
      </trkpt>
      <trkpt lat="46.46412" lon="2.521">
        <ele>298.9</ele>
        <time>2018-10-14T07:28:58Z</time>
      </trkpt>
      <trkpt lat="46.46414" lon="2.52093">
        <ele>298.8</ele>
        <time>2018-10-14T07:28:59Z</time>
      </trkpt>
      <trkpt lat="46.46416" lon="2.52087">
        <ele>299.1</ele>
        <time>2018-10-14T07:29:00Z</time>
      </trkpt>
      <trkpt lat="46.46419" lon="2.52081">
        <ele>299.4</ele>
        <time>2018-10-14T07:29:01Z</time>
      </trkpt>
      <trkpt lat="46.46421" lon="2.52074">
        <ele>299.7</ele>
        <time>2018-10-14T07:29:02Z</time>
      </trkpt>
      <trkpt lat="46.46423" lon="2.52068">
        <ele>300</ele>
        <time>2018-10-14T07:29:03Z</time>
      </trkpt>
      <trkpt lat="46.46425" lon="2.52062">
        <ele>300.1</ele>
        <time>2018-10-14T07:29:04Z</time>
      </trkpt>
      <trkpt lat="46.46427" lon="2.52055">
        <ele>300.2</ele>
        <time>2018-10-14T07:29:05Z</time>
      </trkpt>
      <trkpt lat="46.46429" lon="2.52049">
        <ele>300.2</ele>
        <time>2018-10-14T07:29:06Z</time>
      </trkpt>
      <trkpt lat="46.46431" lon="2.52042">
        <ele>300.2</ele>
        <time>2018-10-14T07:29:07Z</time>
      </trkpt>
      <trkpt lat="46.46434" lon="2.52036">
        <ele>300.2</ele>
        <time>2018-10-14T07:29:08Z</time>
      </trkpt>
      <trkpt lat="46.46436" lon="2.52029">
        <ele>300</ele>
        <time>2018-10-14T07:29:09Z</time>
      </trkpt>
      <trkpt lat="46.46438" lon="2.52022">
        <ele>300</ele>
        <time>2018-10-14T07:29:10Z</time>
      </trkpt>
      <trkpt lat="46.4644" lon="2.52016">
        <ele>299.9</ele>
        <time>2018-10-14T07:29:11Z</time>
      </trkpt>
      <trkpt lat="46.46442" lon="2.52009">
        <ele>300.3</ele>
        <time>2018-10-14T07:29:12Z</time>
      </trkpt>
      <trkpt lat="46.46445" lon="2.52003">
        <ele>300.7</ele>
        <time>2018-10-14T07:29:13Z</time>
      </trkpt>
      <trkpt lat="46.46447" lon="2.51996">
        <ele>300.2</ele>
        <time>2018-10-14T07:29:14Z</time>
      </trkpt>
      <trkpt lat="46.46449" lon="2.51989">
        <ele>299.8</ele>
        <time>2018-10-14T07:29:15Z</time>
      </trkpt>
      <trkpt lat="46.46452" lon="2.51983">
        <ele>299.8</ele>
        <time>2018-10-14T07:29:16Z</time>
      </trkpt>
      <trkpt lat="46.46454" lon="2.51976">
        <ele>299.8</ele>
        <time>2018-10-14T07:29:17Z</time>
      </trkpt>
      <trkpt lat="46.46456" lon="2.51969">
        <ele>299.7</ele>
        <time>2018-10-14T07:29:18Z</time>
      </trkpt>
      <trkpt lat="46.46459" lon="2.51961">
        <ele>299.4</ele>
        <time>2018-10-14T07:29:19Z</time>
      </trkpt>
      <trkpt lat="46.46461" lon="2.51954">
        <ele>299.1</ele>
        <time>2018-10-14T07:29:20Z</time>
      </trkpt>
      <trkpt lat="46.46464" lon="2.51948">
        <ele>299.3</ele>
        <time>2018-10-14T07:29:21Z</time>
      </trkpt>
      <trkpt lat="46.46466" lon="2.51941">
        <ele>299.4</ele>
        <time>2018-10-14T07:29:22Z</time>
      </trkpt>
      <trkpt lat="46.46469" lon="2.51935">
        <ele>299.5</ele>
        <time>2018-10-14T07:29:23Z</time>
      </trkpt>
      <trkpt lat="46.46472" lon="2.51924">
        <ele>299.8</ele>
        <time>2018-10-14T07:29:25Z</time>
      </trkpt>
      <trkpt lat="46.4648" lon="2.51917">
        <ele>300</ele>
        <time>2018-10-14T07:29:27Z</time>
      </trkpt>
      <trkpt lat="46.46484" lon="2.51917">
        <ele>299.6</ele>
        <time>2018-10-14T07:29:28Z</time>
      </trkpt>
      <trkpt lat="46.46489" lon="2.51916">
        <ele>299.3</ele>
        <time>2018-10-14T07:29:29Z</time>
      </trkpt>
      <trkpt lat="46.46493" lon="2.51916">
        <ele>299.2</ele>
        <time>2018-10-14T07:29:30Z</time>
      </trkpt>
      <trkpt lat="46.46498" lon="2.51916">
        <ele>299.1</ele>
        <time>2018-10-14T07:29:31Z</time>
      </trkpt>
      <trkpt lat="46.46503" lon="2.51916">
        <ele>299</ele>
        <time>2018-10-14T07:29:32Z</time>
      </trkpt>
      <trkpt lat="46.46511" lon="2.51916">
        <ele>299.7</ele>
        <time>2018-10-14T07:29:34Z</time>
      </trkpt>
      <trkpt lat="46.46519" lon="2.51913">
        <ele>300.1</ele>
        <time>2018-10-14T07:29:36Z</time>
      </trkpt>
      <trkpt lat="46.46524" lon="2.51902">
        <ele>300.2</ele>
        <time>2018-10-14T07:29:38Z</time>
      </trkpt>
      <trkpt lat="46.46524" lon="2.51895">
        <ele>300.2</ele>
        <time>2018-10-14T07:29:39Z</time>
      </trkpt>
      <trkpt lat="46.46524" lon="2.51888">
        <ele>300.2</ele>
        <time>2018-10-14T07:29:40Z</time>
      </trkpt>
      <trkpt lat="46.46525" lon="2.5188">
        <ele>300.2</ele>
        <time>2018-10-14T07:29:41Z</time>
      </trkpt>
      <trkpt lat="46.46525" lon="2.51871">
        <ele>300.1</ele>
        <time>2018-10-14T07:29:42Z</time>
      </trkpt>
      <trkpt lat="46.46525" lon="2.51863">
        <ele>299.9</ele>
        <time>2018-10-14T07:29:43Z</time>
      </trkpt>
      <trkpt lat="46.46524" lon="2.51854">
        <ele>299.8</ele>
        <time>2018-10-14T07:29:44Z</time>
      </trkpt>
      <trkpt lat="46.46523" lon="2.51845">
        <ele>299.6</ele>
        <time>2018-10-14T07:29:45Z</time>
      </trkpt>
      <trkpt lat="46.46522" lon="2.51836">
        <ele>299.4</ele>
        <time>2018-10-14T07:29:46Z</time>
      </trkpt>
      <trkpt lat="46.46521" lon="2.51827">
        <ele>299.1</ele>
        <time>2018-10-14T07:29:47Z</time>
      </trkpt>
      <trkpt lat="46.46519" lon="2.51819">
        <ele>298.9</ele>
        <time>2018-10-14T07:29:48Z</time>
      </trkpt>
      <trkpt lat="46.46518" lon="2.5181">
        <ele>299.1</ele>
        <time>2018-10-14T07:29:49Z</time>
      </trkpt>
      <trkpt lat="46.46517" lon="2.51802">
        <ele>299.3</ele>
        <time>2018-10-14T07:29:50Z</time>
      </trkpt>
      <trkpt lat="46.46516" lon="2.51794">
        <ele>299.5</ele>
        <time>2018-10-14T07:29:51Z</time>
      </trkpt>
      <trkpt lat="46.46515" lon="2.51786">
        <ele>299.6</ele>
        <time>2018-10-14T07:29:52Z</time>
      </trkpt>
      <trkpt lat="46.46514" lon="2.51778">
        <ele>299.7</ele>
        <time>2018-10-14T07:29:53Z</time>
      </trkpt>
      <trkpt lat="46.46513" lon="2.5177">
        <ele>299.5</ele>
        <time>2018-10-14T07:29:54Z</time>
      </trkpt>
      <trkpt lat="46.46511" lon="2.51762">
        <ele>299.3</ele>
        <time>2018-10-14T07:29:55Z</time>
      </trkpt>
      <trkpt lat="46.4651" lon="2.51754">
        <ele>299.2</ele>
        <time>2018-10-14T07:29:56Z</time>
      </trkpt>
      <trkpt lat="46.46509" lon="2.51746">
        <ele>299.1</ele>
        <time>2018-10-14T07:29:57Z</time>
      </trkpt>
      <trkpt lat="46.46508" lon="2.51738">
        <ele>299</ele>
        <time>2018-10-14T07:29:58Z</time>
      </trkpt>
      <trkpt lat="46.46507" lon="2.5173">
        <ele>299.1</ele>
        <time>2018-10-14T07:29:59Z</time>
      </trkpt>
      <trkpt lat="46.46506" lon="2.51722">
        <ele>299.1</ele>
        <time>2018-10-14T07:30:00Z</time>
      </trkpt>
      <trkpt lat="46.46505" lon="2.51714">
        <ele>298.9</ele>
        <time>2018-10-14T07:30:01Z</time>
      </trkpt>
      <trkpt lat="46.46504" lon="2.51707">
        <ele>298.7</ele>
        <time>2018-10-14T07:30:02Z</time>
      </trkpt>
      <trkpt lat="46.46503" lon="2.51699">
        <ele>298.6</ele>
        <time>2018-10-14T07:30:03Z</time>
      </trkpt>
      <trkpt lat="46.46502" lon="2.51691">
        <ele>298.8</ele>
        <time>2018-10-14T07:30:04Z</time>
      </trkpt>
      <trkpt lat="46.46501" lon="2.51683">
        <ele>298.9</ele>
        <time>2018-10-14T07:30:05Z</time>
      </trkpt>
      <trkpt lat="46.465" lon="2.51675">
        <ele>298.8</ele>
        <time>2018-10-14T07:30:06Z</time>
      </trkpt>
      <trkpt lat="46.46499" lon="2.51667">
        <ele>298.7</ele>
        <time>2018-10-14T07:30:07Z</time>
      </trkpt>
      <trkpt lat="46.46498" lon="2.51659">
        <ele>298.4</ele>
        <time>2018-10-14T07:30:08Z</time>
      </trkpt>
      <trkpt lat="46.46497" lon="2.51651">
        <ele>298.2</ele>
        <time>2018-10-14T07:30:09Z</time>
      </trkpt>
      <trkpt lat="46.46496" lon="2.51643">
        <ele>298</ele>
        <time>2018-10-14T07:30:10Z</time>
      </trkpt>
      <trkpt lat="46.46495" lon="2.51634">
        <ele>298.5</ele>
        <time>2018-10-14T07:30:11Z</time>
      </trkpt>
      <trkpt lat="46.46494" lon="2.51626">
        <ele>298.9</ele>
        <time>2018-10-14T07:30:12Z</time>
      </trkpt>
      <trkpt lat="46.46493" lon="2.51618">
        <ele>299</ele>
        <time>2018-10-14T07:30:13Z</time>
      </trkpt>
      <trkpt lat="46.46492" lon="2.51609">
        <ele>299.1</ele>
        <time>2018-10-14T07:30:14Z</time>
      </trkpt>
      <trkpt lat="46.46491" lon="2.51601">
        <ele>299.2</ele>
        <time>2018-10-14T07:30:15Z</time>
      </trkpt>
      <trkpt lat="46.4649" lon="2.51593">
        <ele>299.2</ele>
        <time>2018-10-14T07:30:16Z</time>
      </trkpt>
      <trkpt lat="46.46489" lon="2.51585">
        <ele>299.1</ele>
        <time>2018-10-14T07:30:17Z</time>
      </trkpt>
      <trkpt lat="46.46488" lon="2.51576">
        <ele>299.2</ele>
        <time>2018-10-14T07:30:18Z</time>
      </trkpt>
      <trkpt lat="46.46486" lon="2.51568">
        <ele>299.3</ele>
        <time>2018-10-14T07:30:19Z</time>
      </trkpt>
      <trkpt lat="46.46485" lon="2.5156">
        <ele>299.2</ele>
        <time>2018-10-14T07:30:20Z</time>
      </trkpt>
      <trkpt lat="46.46484" lon="2.51552">
        <ele>299.1</ele>
        <time>2018-10-14T07:30:21Z</time>
      </trkpt>
      <trkpt lat="46.46482" lon="2.51544">
        <ele>299</ele>
        <time>2018-10-14T07:30:22Z</time>
      </trkpt>
      <trkpt lat="46.46481" lon="2.51536">
        <ele>299.1</ele>
        <time>2018-10-14T07:30:23Z</time>
      </trkpt>
      <trkpt lat="46.46479" lon="2.51527">
        <ele>299.2</ele>
        <time>2018-10-14T07:30:24Z</time>
      </trkpt>
      <trkpt lat="46.46478" lon="2.51518">
        <ele>299.4</ele>
        <time>2018-10-14T07:30:25Z</time>
      </trkpt>
      <trkpt lat="46.46477" lon="2.51509">
        <ele>299.5</ele>
        <time>2018-10-14T07:30:26Z</time>
      </trkpt>
      <trkpt lat="46.46476" lon="2.51499">
        <ele>299.6</ele>
        <time>2018-10-14T07:30:27Z</time>
      </trkpt>
      <trkpt lat="46.46474" lon="2.5149">
        <ele>299.9</ele>
        <time>2018-10-14T07:30:28Z</time>
      </trkpt>
      <trkpt lat="46.46472" lon="2.51481">
        <ele>300.2</ele>
        <time>2018-10-14T07:30:29Z</time>
      </trkpt>
      <trkpt lat="46.46471" lon="2.51473">
        <ele>300.1</ele>
        <time>2018-10-14T07:30:30Z</time>
      </trkpt>
      <trkpt lat="46.4647" lon="2.51465">
        <ele>300.1</ele>
        <time>2018-10-14T07:30:31Z</time>
      </trkpt>
      <trkpt lat="46.46468" lon="2.51456">
        <ele>299.8</ele>
        <time>2018-10-14T07:30:32Z</time>
      </trkpt>
      <trkpt lat="46.46467" lon="2.51448">
        <ele>299.7</ele>
        <time>2018-10-14T07:30:33Z</time>
      </trkpt>
      <trkpt lat="46.46465" lon="2.5144">
        <ele>299.6</ele>
        <time>2018-10-14T07:30:34Z</time>
      </trkpt>
      <trkpt lat="46.46464" lon="2.51433">
        <ele>300</ele>
        <time>2018-10-14T07:30:35Z</time>
      </trkpt>
      <trkpt lat="46.46463" lon="2.51425">
        <ele>300.4</ele>
        <time>2018-10-14T07:30:36Z</time>
      </trkpt>
      <trkpt lat="46.46461" lon="2.51417">
        <ele>300.6</ele>
        <time>2018-10-14T07:30:37Z</time>
      </trkpt>
      <trkpt lat="46.4646" lon="2.5141">
        <ele>300.7</ele>
        <time>2018-10-14T07:30:38Z</time>
      </trkpt>
      <trkpt lat="46.46459" lon="2.51402">
        <ele>300.7</ele>
        <time>2018-10-14T07:30:39Z</time>
      </trkpt>
      <trkpt lat="46.46457" lon="2.51394">
        <ele>300.7</ele>
        <time>2018-10-14T07:30:40Z</time>
      </trkpt>
      <trkpt lat="46.46456" lon="2.51387">
        <ele>300.7</ele>
        <time>2018-10-14T07:30:41Z</time>
      </trkpt>
      <trkpt lat="46.46455" lon="2.51379">
        <ele>300.6</ele>
        <time>2018-10-14T07:30:42Z</time>
      </trkpt>
      <trkpt lat="46.46453" lon="2.51371">
        <ele>300.6</ele>
        <time>2018-10-14T07:30:43Z</time>
      </trkpt>
      <trkpt lat="46.46452" lon="2.51364">
        <ele>301.1</ele>
        <time>2018-10-14T07:30:44Z</time>
      </trkpt>
      <trkpt lat="46.4645" lon="2.51357">
        <ele>301.4</ele>
        <time>2018-10-14T07:30:45Z</time>
      </trkpt>
      <trkpt lat="46.46447" lon="2.51351">
        <ele>301.4</ele>
        <time>2018-10-14T07:30:46Z</time>
      </trkpt>
      <trkpt lat="46.46443" lon="2.51347">
        <ele>301.3</ele>
        <time>2018-10-14T07:30:47Z</time>
      </trkpt>
      <trkpt lat="46.46438" lon="2.51345">
        <ele>301.3</ele>
        <time>2018-10-14T07:30:48Z</time>
      </trkpt>
      <trkpt lat="46.46433" lon="2.51344">
        <ele>301.3</ele>
        <time>2018-10-14T07:30:49Z</time>
      </trkpt>
      <trkpt lat="46.46428" lon="2.51344">
        <ele>301.3</ele>
        <time>2018-10-14T07:30:50Z</time>
      </trkpt>
      <trkpt lat="46.46423" lon="2.51345">
        <ele>301.6</ele>
        <time>2018-10-14T07:30:51Z</time>
      </trkpt>
      <trkpt lat="46.46418" lon="2.51346">
        <ele>301.8</ele>
        <time>2018-10-14T07:30:52Z</time>
      </trkpt>
      <trkpt lat="46.46413" lon="2.51347">
        <ele>302</ele>
        <time>2018-10-14T07:30:53Z</time>
      </trkpt>
      <trkpt lat="46.46408" lon="2.51348">
        <ele>302.5</ele>
        <time>2018-10-14T07:30:54Z</time>
      </trkpt>
      <trkpt lat="46.46403" lon="2.51349">
        <ele>302.8</ele>
        <time>2018-10-14T07:30:55Z</time>
      </trkpt>
      <trkpt lat="46.46398" lon="2.5135">
        <ele>302.7</ele>
        <time>2018-10-14T07:30:56Z</time>
      </trkpt>
      <trkpt lat="46.46393" lon="2.51352">
        <ele>302.7</ele>
        <time>2018-10-14T07:30:57Z</time>
      </trkpt>
      <trkpt lat="46.46387" lon="2.51353">
        <ele>303.1</ele>
        <time>2018-10-14T07:30:58Z</time>
      </trkpt>
      <trkpt lat="46.46382" lon="2.51356">
        <ele>303.5</ele>
        <time>2018-10-14T07:30:59Z</time>
      </trkpt>
      <trkpt lat="46.46377" lon="2.51359">
        <ele>303.7</ele>
        <time>2018-10-14T07:31:00Z</time>
      </trkpt>
      <trkpt lat="46.46372" lon="2.51362">
        <ele>303.6</ele>
        <time>2018-10-14T07:31:01Z</time>
      </trkpt>
      <trkpt lat="46.46367" lon="2.51365">
        <ele>303.5</ele>
        <time>2018-10-14T07:31:02Z</time>
      </trkpt>
      <trkpt lat="46.46362" lon="2.51368">
        <ele>303.2</ele>
        <time>2018-10-14T07:31:03Z</time>
      </trkpt>
      <trkpt lat="46.46357" lon="2.51371">
        <ele>303</ele>
        <time>2018-10-14T07:31:04Z</time>
      </trkpt>
      <trkpt lat="46.46353" lon="2.51374">
        <ele>302.7</ele>
        <time>2018-10-14T07:31:05Z</time>
      </trkpt>
      <trkpt lat="46.46348" lon="2.51377">
        <ele>302.5</ele>
        <time>2018-10-14T07:31:06Z</time>
      </trkpt>
      <trkpt lat="46.46343" lon="2.5138">
        <ele>302.4</ele>
        <time>2018-10-14T07:31:07Z</time>
      </trkpt>
      <trkpt lat="46.46338" lon="2.51383">
        <ele>302.8</ele>
        <time>2018-10-14T07:31:08Z</time>
      </trkpt>
      <trkpt lat="46.46332" lon="2.51385">
        <ele>303.1</ele>
        <time>2018-10-14T07:31:09Z</time>
      </trkpt>
      <trkpt lat="46.46327" lon="2.51387">
        <ele>303.4</ele>
        <time>2018-10-14T07:31:10Z</time>
      </trkpt>
      <trkpt lat="46.46322" lon="2.51389">
        <ele>303.6</ele>
        <time>2018-10-14T07:31:11Z</time>
      </trkpt>
      <trkpt lat="46.46317" lon="2.51391">
        <ele>303.8</ele>
        <time>2018-10-14T07:31:12Z</time>
      </trkpt>
      <trkpt lat="46.46311" lon="2.51394">
        <ele>303.3</ele>
        <time>2018-10-14T07:31:13Z</time>
      </trkpt>
      <trkpt lat="46.46305" lon="2.51396">
        <ele>302.9</ele>
        <time>2018-10-14T07:31:14Z</time>
      </trkpt>
      <trkpt lat="46.46299" lon="2.51398">
        <ele>303</ele>
        <time>2018-10-14T07:31:15Z</time>
      </trkpt>
      <trkpt lat="46.46293" lon="2.514">
        <ele>303.1</ele>
        <time>2018-10-14T07:31:16Z</time>
      </trkpt>
      <trkpt lat="46.46287" lon="2.51403">
        <ele>302.8</ele>
        <time>2018-10-14T07:31:17Z</time>
      </trkpt>
      <trkpt lat="46.46281" lon="2.51405">
        <ele>302.6</ele>
        <time>2018-10-14T07:31:18Z</time>
      </trkpt>
      <trkpt lat="46.46275" lon="2.51408">
        <ele>302.4</ele>
        <time>2018-10-14T07:31:19Z</time>
      </trkpt>
      <trkpt lat="46.46269" lon="2.51411">
        <ele>302</ele>
        <time>2018-10-14T07:31:20Z</time>
      </trkpt>
      <trkpt lat="46.46262" lon="2.51416">
        <ele>301.7</ele>
        <time>2018-10-14T07:31:21Z</time>
      </trkpt>
      <trkpt lat="46.46257" lon="2.51421">
        <ele>301.2</ele>
        <time>2018-10-14T07:31:22Z</time>
      </trkpt>
      <trkpt lat="46.46251" lon="2.51427">
        <ele>300.8</ele>
        <time>2018-10-14T07:31:23Z</time>
      </trkpt>
      <trkpt lat="46.46246" lon="2.51433">
        <ele>300.1</ele>
        <time>2018-10-14T07:31:24Z</time>
      </trkpt>
      <trkpt lat="46.46241" lon="2.5144">
        <ele>299.6</ele>
        <time>2018-10-14T07:31:25Z</time>
      </trkpt>
      <trkpt lat="46.46234" lon="2.51445">
        <ele>299.2</ele>
        <time>2018-10-14T07:31:26Z</time>
      </trkpt>
      <trkpt lat="46.46227" lon="2.51449">
        <ele>298.7</ele>
        <time>2018-10-14T07:31:27Z</time>
      </trkpt>
      <trkpt lat="46.4622" lon="2.51452">
        <ele>298.3</ele>
        <time>2018-10-14T07:31:28Z</time>
      </trkpt>
      <trkpt lat="46.46212" lon="2.51456">
        <ele>297.4</ele>
        <time>2018-10-14T07:31:29Z</time>
      </trkpt>
      <trkpt lat="46.46205" lon="2.5146">
        <ele>296.8</ele>
        <time>2018-10-14T07:31:30Z</time>
      </trkpt>
      <trkpt lat="46.46198" lon="2.51464">
        <ele>296.3</ele>
        <time>2018-10-14T07:31:31Z</time>
      </trkpt>
      <trkpt lat="46.4619" lon="2.51468">
        <ele>296</ele>
        <time>2018-10-14T07:31:32Z</time>
      </trkpt>
      <trkpt lat="46.46182" lon="2.51472">
        <ele>295.8</ele>
        <time>2018-10-14T07:31:33Z</time>
      </trkpt>
      <trkpt lat="46.46174" lon="2.51476">
        <ele>294.7</ele>
        <time>2018-10-14T07:31:34Z</time>
      </trkpt>
      <trkpt lat="46.46165" lon="2.5148">
        <ele>293.9</ele>
        <time>2018-10-14T07:31:35Z</time>
      </trkpt>
      <trkpt lat="46.46157" lon="2.51484">
        <ele>292.9</ele>
        <time>2018-10-14T07:31:36Z</time>
      </trkpt>
      <trkpt lat="46.46149" lon="2.51487">
        <ele>292.2</ele>
        <time>2018-10-14T07:31:37Z</time>
      </trkpt>
      <trkpt lat="46.4614" lon="2.51489">
        <ele>291.7</ele>
        <time>2018-10-14T07:31:38Z</time>
      </trkpt>
      <trkpt lat="46.46133" lon="2.51491">
        <ele>290.8</ele>
        <time>2018-10-14T07:31:39Z</time>
      </trkpt>
      <trkpt lat="46.46125" lon="2.51495">
        <ele>290.1</ele>
        <time>2018-10-14T07:31:40Z</time>
      </trkpt>
      <trkpt lat="46.46118" lon="2.515">
        <ele>289.1</ele>
        <time>2018-10-14T07:31:41Z</time>
      </trkpt>
      <trkpt lat="46.46111" lon="2.51506">
        <ele>288.4</ele>
        <time>2018-10-14T07:31:42Z</time>
      </trkpt>
      <trkpt lat="46.46104" lon="2.51514">
        <ele>287.3</ele>
        <time>2018-10-14T07:31:43Z</time>
      </trkpt>
      <trkpt lat="46.46097" lon="2.5152">
        <ele>286.5</ele>
        <time>2018-10-14T07:31:44Z</time>
      </trkpt>
      <trkpt lat="46.46089" lon="2.51526">
        <ele>285.8</ele>
        <time>2018-10-14T07:31:45Z</time>
      </trkpt>
      <trkpt lat="46.46081" lon="2.51532">
        <ele>285.1</ele>
        <time>2018-10-14T07:31:46Z</time>
      </trkpt>
      <trkpt lat="46.46074" lon="2.51538">
        <ele>284.5</ele>
        <time>2018-10-14T07:31:47Z</time>
      </trkpt>
      <trkpt lat="46.46067" lon="2.51544">
        <ele>283.6</ele>
        <time>2018-10-14T07:31:48Z</time>
      </trkpt>
      <trkpt lat="46.4606" lon="2.5155">
        <ele>283</ele>
        <time>2018-10-14T07:31:49Z</time>
      </trkpt>
      <trkpt lat="46.46053" lon="2.51557">
        <ele>282.4</ele>
        <time>2018-10-14T07:31:50Z</time>
      </trkpt>
      <trkpt lat="46.46047" lon="2.51563">
        <ele>281.3</ele>
        <time>2018-10-14T07:31:51Z</time>
      </trkpt>
      <trkpt lat="46.46042" lon="2.51567">
        <ele>280.5</ele>
        <time>2018-10-14T07:31:52Z</time>
      </trkpt>
      <trkpt lat="46.46038" lon="2.51572">
        <ele>279.7</ele>
        <time>2018-10-14T07:31:53Z</time>
      </trkpt>
      <trkpt lat="46.4603" lon="2.51574">
        <ele>278.6</ele>
        <time>2018-10-14T07:31:55Z</time>
      </trkpt>
      <trkpt lat="46.46026" lon="2.51566">
        <ele>277.8</ele>
        <time>2018-10-14T07:31:57Z</time>
      </trkpt>
      <trkpt lat="46.46025" lon="2.51556">
        <ele>278.2</ele>
        <time>2018-10-14T07:31:59Z</time>
      </trkpt>
      <trkpt lat="46.46025" lon="2.51545">
        <ele>277.8</ele>
        <time>2018-10-14T07:32:01Z</time>
      </trkpt>
      <trkpt lat="46.46025" lon="2.51533">
        <ele>277.6</ele>
        <time>2018-10-14T07:32:03Z</time>
      </trkpt>
      <trkpt lat="46.46025" lon="2.51521">
        <ele>277.7</ele>
        <time>2018-10-14T07:32:05Z</time>
      </trkpt>
      <trkpt lat="46.46025" lon="2.5151">
        <ele>278.2</ele>
        <time>2018-10-14T07:32:07Z</time>
      </trkpt>
      <trkpt lat="46.46025" lon="2.51505">
        <ele>278.5</ele>
        <time>2018-10-14T07:32:08Z</time>
      </trkpt>
      <trkpt lat="46.46025" lon="2.51488">
        <ele>279</ele>
        <time>2018-10-14T07:32:11Z</time>
      </trkpt>
      <trkpt lat="46.46026" lon="2.51477">
        <ele>280.7</ele>
        <time>2018-10-14T07:32:13Z</time>
      </trkpt>
      <trkpt lat="46.46026" lon="2.51466">
        <ele>280.2</ele>
        <time>2018-10-14T07:32:15Z</time>
      </trkpt>
      <trkpt lat="46.46026" lon="2.51455">
        <ele>280.5</ele>
        <time>2018-10-14T07:32:17Z</time>
      </trkpt>
      <trkpt lat="46.46027" lon="2.51444">
        <ele>281</ele>
        <time>2018-10-14T07:32:19Z</time>
      </trkpt>
      <trkpt lat="46.46029" lon="2.51433">
        <ele>281.5</ele>
        <time>2018-10-14T07:32:21Z</time>
      </trkpt>
      <trkpt lat="46.46031" lon="2.51422">
        <ele>281.8</ele>
        <time>2018-10-14T07:32:23Z</time>
      </trkpt>
      <trkpt lat="46.46034" lon="2.51411">
        <ele>282.6</ele>
        <time>2018-10-14T07:32:25Z</time>
      </trkpt>
      <trkpt lat="46.46038" lon="2.51401">
        <ele>283</ele>
        <time>2018-10-14T07:32:27Z</time>
      </trkpt>
      <trkpt lat="46.46043" lon="2.51392">
        <ele>283.9</ele>
        <time>2018-10-14T07:32:29Z</time>
      </trkpt>
      <trkpt lat="46.46048" lon="2.51383">
        <ele>284.7</ele>
        <time>2018-10-14T07:32:31Z</time>
      </trkpt>
      <trkpt lat="46.46052" lon="2.51375">
        <ele>285.4</ele>
        <time>2018-10-14T07:32:33Z</time>
      </trkpt>
      <trkpt lat="46.46057" lon="2.51366">
        <ele>285.8</ele>
        <time>2018-10-14T07:32:35Z</time>
      </trkpt>
      <trkpt lat="46.46062" lon="2.51357">
        <ele>285.9</ele>
        <time>2018-10-14T07:32:37Z</time>
      </trkpt>
      <trkpt lat="46.46066" lon="2.51348">
        <ele>286.8</ele>
        <time>2018-10-14T07:32:39Z</time>
      </trkpt>
      <trkpt lat="46.46071" lon="2.5134">
        <ele>287.1</ele>
        <time>2018-10-14T07:32:41Z</time>
      </trkpt>
      <trkpt lat="46.46076" lon="2.51332">
        <ele>287.6</ele>
        <time>2018-10-14T07:32:43Z</time>
      </trkpt>
      <trkpt lat="46.4608" lon="2.51323">
        <ele>288.3</ele>
        <time>2018-10-14T07:32:45Z</time>
      </trkpt>
      <trkpt lat="46.46085" lon="2.51315">
        <ele>288.8</ele>
        <time>2018-10-14T07:32:47Z</time>
      </trkpt>
      <trkpt lat="46.46089" lon="2.51307">
        <ele>289.2</ele>
        <time>2018-10-14T07:32:49Z</time>
      </trkpt>
      <trkpt lat="46.46094" lon="2.51299">
        <ele>289.7</ele>
        <time>2018-10-14T07:32:51Z</time>
      </trkpt>
      <trkpt lat="46.46099" lon="2.5129">
        <ele>289.9</ele>
        <time>2018-10-14T07:32:53Z</time>
      </trkpt>
      <trkpt lat="46.46103" lon="2.51282">
        <ele>290.5</ele>
        <time>2018-10-14T07:32:55Z</time>
      </trkpt>
      <trkpt lat="46.46108" lon="2.51274">
        <ele>291.4</ele>
        <time>2018-10-14T07:32:57Z</time>
      </trkpt>
      <trkpt lat="46.46112" lon="2.51266">
        <ele>292</ele>
        <time>2018-10-14T07:32:59Z</time>
      </trkpt>
      <trkpt lat="46.46117" lon="2.51257">
        <ele>292.3</ele>
        <time>2018-10-14T07:33:01Z</time>
      </trkpt>
      <trkpt lat="46.46121" lon="2.51249">
        <ele>293.2</ele>
        <time>2018-10-14T07:33:03Z</time>
      </trkpt>
      <trkpt lat="46.46125" lon="2.5124">
        <ele>293.7</ele>
        <time>2018-10-14T07:33:05Z</time>
      </trkpt>
      <trkpt lat="46.46128" lon="2.5123">
        <ele>294</ele>
        <time>2018-10-14T07:33:07Z</time>
      </trkpt>
      <trkpt lat="46.46131" lon="2.51221">
        <ele>294.5</ele>
        <time>2018-10-14T07:33:09Z</time>
      </trkpt>
      <trkpt lat="46.46132" lon="2.51216">
        <ele>294.7</ele>
        <time>2018-10-14T07:33:10Z</time>
      </trkpt>
      <trkpt lat="46.46135" lon="2.51201">
        <ele>294.7</ele>
        <time>2018-10-14T07:33:13Z</time>
      </trkpt>
      <trkpt lat="46.46138" lon="2.5119">
        <ele>294.8</ele>
        <time>2018-10-14T07:33:15Z</time>
      </trkpt>
      <trkpt lat="46.46139" lon="2.5118">
        <ele>295.7</ele>
        <time>2018-10-14T07:33:17Z</time>
      </trkpt>
      <trkpt lat="46.46141" lon="2.5117">
        <ele>296.1</ele>
        <time>2018-10-14T07:33:19Z</time>
      </trkpt>
      <trkpt lat="46.46143" lon="2.5116">
        <ele>296.8</ele>
        <time>2018-10-14T07:33:21Z</time>
      </trkpt>
      <trkpt lat="46.46144" lon="2.5115">
        <ele>297.4</ele>
        <time>2018-10-14T07:33:23Z</time>
      </trkpt>
      <trkpt lat="46.46146" lon="2.51139">
        <ele>297.9</ele>
        <time>2018-10-14T07:33:25Z</time>
      </trkpt>
      <trkpt lat="46.46148" lon="2.51129">
        <ele>298.4</ele>
        <time>2018-10-14T07:33:27Z</time>
      </trkpt>
      <trkpt lat="46.46151" lon="2.51119">
        <ele>298.5</ele>
        <time>2018-10-14T07:33:29Z</time>
      </trkpt>
      <trkpt lat="46.46153" lon="2.51108">
        <ele>299</ele>
        <time>2018-10-14T07:33:31Z</time>
      </trkpt>
      <trkpt lat="46.46155" lon="2.51098">
        <ele>299.4</ele>
        <time>2018-10-14T07:33:33Z</time>
      </trkpt>
      <trkpt lat="46.46158" lon="2.51088">
        <ele>299.7</ele>
        <time>2018-10-14T07:33:35Z</time>
      </trkpt>
      <trkpt lat="46.46161" lon="2.51078">
        <ele>299.7</ele>
        <time>2018-10-14T07:33:37Z</time>
      </trkpt>
      <trkpt lat="46.46165" lon="2.51067">
        <ele>299.5</ele>
        <time>2018-10-14T07:33:39Z</time>
      </trkpt>
      <trkpt lat="46.46168" lon="2.51057">
        <ele>300.4</ele>
        <time>2018-10-14T07:33:41Z</time>
      </trkpt>
      <trkpt lat="46.46171" lon="2.51047">
        <ele>301</ele>
        <time>2018-10-14T07:33:43Z</time>
      </trkpt>
      <trkpt lat="46.46174" lon="2.51036">
        <ele>301.4</ele>
        <time>2018-10-14T07:33:45Z</time>
      </trkpt>
      <trkpt lat="46.46177" lon="2.51026">
        <ele>301.6</ele>
        <time>2018-10-14T07:33:47Z</time>
      </trkpt>
      <trkpt lat="46.4618" lon="2.51016">
        <ele>301.6</ele>
        <time>2018-10-14T07:33:49Z</time>
      </trkpt>
      <trkpt lat="46.46184" lon="2.51005">
        <ele>301.4</ele>
        <time>2018-10-14T07:33:51Z</time>
      </trkpt>
      <trkpt lat="46.46187" lon="2.50995">
        <ele>302.4</ele>
        <time>2018-10-14T07:33:53Z</time>
      </trkpt>
      <trkpt lat="46.46191" lon="2.50984">
        <ele>302.7</ele>
        <time>2018-10-14T07:33:55Z</time>
      </trkpt>
      <trkpt lat="46.46194" lon="2.50973">
        <ele>302.4</ele>
        <time>2018-10-14T07:33:57Z</time>
      </trkpt>
      <trkpt lat="46.46197" lon="2.50961">
        <ele>302.3</ele>
        <time>2018-10-14T07:33:59Z</time>
      </trkpt>
      <trkpt lat="46.46199" lon="2.50949">
        <ele>302.4</ele>
        <time>2018-10-14T07:34:01Z</time>
      </trkpt>
      <trkpt lat="46.46201" lon="2.50937">
        <ele>302.6</ele>
        <time>2018-10-14T07:34:03Z</time>
      </trkpt>
      <trkpt lat="46.46203" lon="2.50925">
        <ele>302.7</ele>
        <time>2018-10-14T07:34:05Z</time>
      </trkpt>
      <trkpt lat="46.46205" lon="2.50913">
        <ele>302.8</ele>
        <time>2018-10-14T07:34:07Z</time>
      </trkpt>
      <trkpt lat="46.46207" lon="2.509">
        <ele>303.3</ele>
        <time>2018-10-14T07:34:09Z</time>
      </trkpt>
      <trkpt lat="46.46208" lon="2.50887">
        <ele>303.1</ele>
        <time>2018-10-14T07:34:11Z</time>
      </trkpt>
      <trkpt lat="46.46208" lon="2.50881">
        <ele>303.1</ele>
        <time>2018-10-14T07:34:12Z</time>
      </trkpt>
      <trkpt lat="46.46209" lon="2.50868">
        <ele>303.1</ele>
        <time>2018-10-14T07:34:14Z</time>
      </trkpt>
      <trkpt lat="46.4621" lon="2.50861">
        <ele>303</ele>
        <time>2018-10-14T07:34:15Z</time>
      </trkpt>
      <trkpt lat="46.4621" lon="2.50855">
        <ele>302.9</ele>
        <time>2018-10-14T07:34:16Z</time>
      </trkpt>
      <trkpt lat="46.46211" lon="2.50848">
        <ele>302.9</ele>
        <time>2018-10-14T07:34:17Z</time>
      </trkpt>
      <trkpt lat="46.46211" lon="2.50841">
        <ele>302.7</ele>
        <time>2018-10-14T07:34:18Z</time>
      </trkpt>
      <trkpt lat="46.46212" lon="2.50834">
        <ele>302.6</ele>
        <time>2018-10-14T07:34:19Z</time>
      </trkpt>
      <trkpt lat="46.46213" lon="2.50827">
        <ele>302.4</ele>
        <time>2018-10-14T07:34:20Z</time>
      </trkpt>
      <trkpt lat="46.46213" lon="2.5082">
        <ele>302.3</ele>
        <time>2018-10-14T07:34:21Z</time>
      </trkpt>
      <trkpt lat="46.46214" lon="2.50813">
        <ele>302.7</ele>
        <time>2018-10-14T07:34:22Z</time>
      </trkpt>
      <trkpt lat="46.46215" lon="2.50806">
        <ele>303</ele>
        <time>2018-10-14T07:34:23Z</time>
      </trkpt>
      <trkpt lat="46.46215" lon="2.50799">
        <ele>303.3</ele>
        <time>2018-10-14T07:34:24Z</time>
      </trkpt>
      <trkpt lat="46.46216" lon="2.50791">
        <ele>303.1</ele>
        <time>2018-10-14T07:34:25Z</time>
      </trkpt>
      <trkpt lat="46.46217" lon="2.50784">
        <ele>302.9</ele>
        <time>2018-10-14T07:34:26Z</time>
      </trkpt>
      <trkpt lat="46.46218" lon="2.50777">
        <ele>302.9</ele>
        <time>2018-10-14T07:34:27Z</time>
      </trkpt>
      <trkpt lat="46.46219" lon="2.5077">
        <ele>302.8</ele>
        <time>2018-10-14T07:34:28Z</time>
      </trkpt>
      <trkpt lat="46.4622" lon="2.50763">
        <ele>302.8</ele>
        <time>2018-10-14T07:34:29Z</time>
      </trkpt>
      <trkpt lat="46.46221" lon="2.50756">
        <ele>303.1</ele>
        <time>2018-10-14T07:34:30Z</time>
      </trkpt>
      <trkpt lat="46.46222" lon="2.50749">
        <ele>303.3</ele>
        <time>2018-10-14T07:34:31Z</time>
      </trkpt>
      <trkpt lat="46.46223" lon="2.50743">
        <ele>303.1</ele>
        <time>2018-10-14T07:34:32Z</time>
      </trkpt>
      <trkpt lat="46.46224" lon="2.50736">
        <ele>302.9</ele>
        <time>2018-10-14T07:34:33Z</time>
      </trkpt>
      <trkpt lat="46.46225" lon="2.50729">
        <ele>303.6</ele>
        <time>2018-10-14T07:34:34Z</time>
      </trkpt>
      <trkpt lat="46.46226" lon="2.50723">
        <ele>304.1</ele>
        <time>2018-10-14T07:34:35Z</time>
      </trkpt>
      <trkpt lat="46.46228" lon="2.50716">
        <ele>304.5</ele>
        <time>2018-10-14T07:34:36Z</time>
      </trkpt>
      <trkpt lat="46.46229" lon="2.50709">
        <ele>304.2</ele>
        <time>2018-10-14T07:34:37Z</time>
      </trkpt>
      <trkpt lat="46.4623" lon="2.50702">
        <ele>303.9</ele>
        <time>2018-10-14T07:34:38Z</time>
      </trkpt>
      <trkpt lat="46.46232" lon="2.50696">
        <ele>304.4</ele>
        <time>2018-10-14T07:34:39Z</time>
      </trkpt>
      <trkpt lat="46.46234" lon="2.50683">
        <ele>304.9</ele>
        <time>2018-10-14T07:34:41Z</time>
      </trkpt>
      <trkpt lat="46.46236" lon="2.50671">
        <ele>305.1</ele>
        <time>2018-10-14T07:34:43Z</time>
      </trkpt>
      <trkpt lat="46.46237" lon="2.5066">
        <ele>305.1</ele>
        <time>2018-10-14T07:34:45Z</time>
      </trkpt>
      <trkpt lat="46.46238" lon="2.5065">
        <ele>304.9</ele>
        <time>2018-10-14T07:34:47Z</time>
      </trkpt>
      <trkpt lat="46.46234" lon="2.50641">
        <ele>304.9</ele>
        <time>2018-10-14T07:34:50Z</time>
      </trkpt>
      <trkpt lat="46.46227" lon="2.50641">
        <ele>304.5</ele>
        <time>2018-10-14T07:34:52Z</time>
      </trkpt>
      <trkpt lat="46.4622" lon="2.50645">
        <ele>304.8</ele>
        <time>2018-10-14T07:34:54Z</time>
      </trkpt>
      <trkpt lat="46.46215" lon="2.50647">
        <ele>304.9</ele>
        <time>2018-10-14T07:34:55Z</time>
      </trkpt>
      <trkpt lat="46.46211" lon="2.5065">
        <ele>305</ele>
        <time>2018-10-14T07:34:56Z</time>
      </trkpt>
      <trkpt lat="46.46207" lon="2.50653">
        <ele>305.1</ele>
        <time>2018-10-14T07:34:57Z</time>
      </trkpt>
      <trkpt lat="46.46202" lon="2.50657">
        <ele>304.9</ele>
        <time>2018-10-14T07:34:58Z</time>
      </trkpt>
      <trkpt lat="46.46198" lon="2.50662">
        <ele>304.7</ele>
        <time>2018-10-14T07:34:59Z</time>
      </trkpt>
      <trkpt lat="46.46193" lon="2.50667">
        <ele>304.4</ele>
        <time>2018-10-14T07:35:00Z</time>
      </trkpt>
      <trkpt lat="46.46188" lon="2.50672">
        <ele>304.1</ele>
        <time>2018-10-14T07:35:01Z</time>
      </trkpt>
      <trkpt lat="46.46183" lon="2.50677">
        <ele>304</ele>
        <time>2018-10-14T07:35:02Z</time>
      </trkpt>
      <trkpt lat="46.46178" lon="2.50682">
        <ele>303.5</ele>
        <time>2018-10-14T07:35:03Z</time>
      </trkpt>
      <trkpt lat="46.46172" lon="2.50689">
        <ele>303.2</ele>
        <time>2018-10-14T07:35:04Z</time>
      </trkpt>
      <trkpt lat="46.46167" lon="2.50696">
        <ele>302.4</ele>
        <time>2018-10-14T07:35:05Z</time>
      </trkpt>
      <trkpt lat="46.46161" lon="2.50703">
        <ele>301.8</ele>
        <time>2018-10-14T07:35:06Z</time>
      </trkpt>
      <trkpt lat="46.46155" lon="2.5071">
        <ele>301.2</ele>
        <time>2018-10-14T07:35:07Z</time>
      </trkpt>
      <trkpt lat="46.46149" lon="2.50718">
        <ele>300.7</ele>
        <time>2018-10-14T07:35:08Z</time>
      </trkpt>
      <trkpt lat="46.46142" lon="2.50725">
        <ele>300.3</ele>
        <time>2018-10-14T07:35:09Z</time>
      </trkpt>
      <trkpt lat="46.46134" lon="2.50731">
        <ele>299.7</ele>
        <time>2018-10-14T07:35:10Z</time>
      </trkpt>
      <trkpt lat="46.46125" lon="2.50736">
        <ele>299.3</ele>
        <time>2018-10-14T07:35:11Z</time>
      </trkpt>
      <trkpt lat="46.46116" lon="2.50741">
        <ele>297.8</ele>
        <time>2018-10-14T07:35:12Z</time>
      </trkpt>
      <trkpt lat="46.46107" lon="2.50745">
        <ele>296.7</ele>
        <time>2018-10-14T07:35:13Z</time>
      </trkpt>
      <trkpt lat="46.46098" lon="2.50749">
        <ele>295.9</ele>
        <time>2018-10-14T07:35:14Z</time>
      </trkpt>
      <trkpt lat="46.46088" lon="2.50753">
        <ele>294.4</ele>
        <time>2018-10-14T07:35:15Z</time>
      </trkpt>
      <trkpt lat="46.46078" lon="2.50758">
        <ele>293.3</ele>
        <time>2018-10-14T07:35:16Z</time>
      </trkpt>
      <trkpt lat="46.46068" lon="2.50764">
        <ele>291.6</ele>
        <time>2018-10-14T07:35:17Z</time>
      </trkpt>
      <trkpt lat="46.46057" lon="2.5077">
        <ele>290.3</ele>
        <time>2018-10-14T07:35:18Z</time>
      </trkpt>
      <trkpt lat="46.46046" lon="2.50775">
        <ele>288.2</ele>
        <time>2018-10-14T07:35:19Z</time>
      </trkpt>
      <trkpt lat="46.46034" lon="2.50779">
        <ele>286.6</ele>
        <time>2018-10-14T07:35:20Z</time>
      </trkpt>
      <trkpt lat="46.46021" lon="2.50782">
        <ele>285.5</ele>
        <time>2018-10-14T07:35:21Z</time>
      </trkpt>
      <trkpt lat="46.46009" lon="2.50785">
        <ele>284</ele>
        <time>2018-10-14T07:35:22Z</time>
      </trkpt>
      <trkpt lat="46.45996" lon="2.50787">
        <ele>283</ele>
        <time>2018-10-14T07:35:23Z</time>
      </trkpt>
      <trkpt lat="46.45983" lon="2.5079">
        <ele>280.4</ele>
        <time>2018-10-14T07:35:24Z</time>
      </trkpt>
      <trkpt lat="46.45972" lon="2.50792">
        <ele>278.4</ele>
        <time>2018-10-14T07:35:25Z</time>
      </trkpt>
      <trkpt lat="46.45961" lon="2.50794">
        <ele>276.9</ele>
        <time>2018-10-14T07:35:26Z</time>
      </trkpt>
      <trkpt lat="46.45951" lon="2.50796">
        <ele>275.7</ele>
        <time>2018-10-14T07:35:27Z</time>
      </trkpt>
      <trkpt lat="46.45941" lon="2.50795">
        <ele>274.9</ele>
        <time>2018-10-14T07:35:28Z</time>
      </trkpt>
      <trkpt lat="46.45933" lon="2.50792">
        <ele>274.3</ele>
        <time>2018-10-14T07:35:29Z</time>
      </trkpt>
      <trkpt lat="46.45925" lon="2.50787">
        <ele>273.8</ele>
        <time>2018-10-14T07:35:30Z</time>
      </trkpt>
      <trkpt lat="46.45918" lon="2.5078">
        <ele>273.5</ele>
        <time>2018-10-14T07:35:31Z</time>
      </trkpt>
      <trkpt lat="46.45912" lon="2.50773">
        <ele>273.2</ele>
        <time>2018-10-14T07:35:32Z</time>
      </trkpt>
      <trkpt lat="46.45906" lon="2.50768">
        <ele>273.1</ele>
        <time>2018-10-14T07:35:33Z</time>
      </trkpt>
      <trkpt lat="46.45899" lon="2.50763">
        <ele>273.1</ele>
        <time>2018-10-14T07:35:34Z</time>
      </trkpt>
      <trkpt lat="46.45893" lon="2.50759">
        <ele>273.2</ele>
        <time>2018-10-14T07:35:35Z</time>
      </trkpt>
      <trkpt lat="46.45887" lon="2.50755">
        <ele>273.9</ele>
        <time>2018-10-14T07:35:36Z</time>
      </trkpt>
      <trkpt lat="46.45882" lon="2.50751">
        <ele>274.5</ele>
        <time>2018-10-14T07:35:37Z</time>
      </trkpt>
      <trkpt lat="46.45877" lon="2.50748">
        <ele>275.5</ele>
        <time>2018-10-14T07:35:38Z</time>
      </trkpt>
      <trkpt lat="46.45872" lon="2.50747">
        <ele>276.2</ele>
        <time>2018-10-14T07:35:39Z</time>
      </trkpt>
      <trkpt lat="46.45863" lon="2.50744">
        <ele>277</ele>
        <time>2018-10-14T07:35:41Z</time>
      </trkpt>
      <trkpt lat="46.45855" lon="2.50743">
        <ele>277.3</ele>
        <time>2018-10-14T07:35:43Z</time>
      </trkpt>
      <trkpt lat="46.45846" lon="2.50743">
        <ele>277.7</ele>
        <time>2018-10-14T07:35:45Z</time>
      </trkpt>
      <trkpt lat="46.45838" lon="2.50744">
        <ele>278.1</ele>
        <time>2018-10-14T07:35:47Z</time>
      </trkpt>
      <trkpt lat="46.45829" lon="2.50746">
        <ele>278</ele>
        <time>2018-10-14T07:35:49Z</time>
      </trkpt>
      <trkpt lat="46.4582" lon="2.50749">
        <ele>277.9</ele>
        <time>2018-10-14T07:35:51Z</time>
      </trkpt>
      <trkpt lat="46.45816" lon="2.50751">
        <ele>277.9</ele>
        <time>2018-10-14T07:35:52Z</time>
      </trkpt>
      <trkpt lat="46.45807" lon="2.50755">
        <ele>278.2</ele>
        <time>2018-10-14T07:35:54Z</time>
      </trkpt>
      <trkpt lat="46.45799" lon="2.50759">
        <ele>278.9</ele>
        <time>2018-10-14T07:35:56Z</time>
      </trkpt>
      <trkpt lat="46.45791" lon="2.50763">
        <ele>278.9</ele>
        <time>2018-10-14T07:35:58Z</time>
      </trkpt>
      <trkpt lat="46.45782" lon="2.50767">
        <ele>279.1</ele>
        <time>2018-10-14T07:36:00Z</time>
      </trkpt>
      <trkpt lat="46.45774" lon="2.5077">
        <ele>278.9</ele>
        <time>2018-10-14T07:36:02Z</time>
      </trkpt>
      <trkpt lat="46.45766" lon="2.50772">
        <ele>279.2</ele>
        <time>2018-10-14T07:36:04Z</time>
      </trkpt>
      <trkpt lat="46.45758" lon="2.50774">
        <ele>279.9</ele>
        <time>2018-10-14T07:36:06Z</time>
      </trkpt>
      <trkpt lat="46.45749" lon="2.50776">
        <ele>279.6</ele>
        <time>2018-10-14T07:36:08Z</time>
      </trkpt>
      <trkpt lat="46.45741" lon="2.50776">
        <ele>280.8</ele>
        <time>2018-10-14T07:36:10Z</time>
      </trkpt>
      <trkpt lat="46.45733" lon="2.50776">
        <ele>280.8</ele>
        <time>2018-10-14T07:36:12Z</time>
      </trkpt>
      <trkpt lat="46.45725" lon="2.50776">
        <ele>280.4</ele>
        <time>2018-10-14T07:36:14Z</time>
      </trkpt>
      <trkpt lat="46.45721" lon="2.50776">
        <ele>280.3</ele>
        <time>2018-10-14T07:36:15Z</time>
      </trkpt>
      <trkpt lat="46.45709" lon="2.50775">
        <ele>280.7</ele>
        <time>2018-10-14T07:36:18Z</time>
      </trkpt>
      <trkpt lat="46.45702" lon="2.50775">
        <ele>280.6</ele>
        <time>2018-10-14T07:36:20Z</time>
      </trkpt>
      <trkpt lat="46.45694" lon="2.50775">
        <ele>280.5</ele>
        <time>2018-10-14T07:36:22Z</time>
      </trkpt>
      <trkpt lat="46.45687" lon="2.50774">
        <ele>280.5</ele>
        <time>2018-10-14T07:36:24Z</time>
      </trkpt>
      <trkpt lat="46.45679" lon="2.50774">
        <ele>281.1</ele>
        <time>2018-10-14T07:36:26Z</time>
      </trkpt>
      <trkpt lat="46.45672" lon="2.50774">
        <ele>281.7</ele>
        <time>2018-10-14T07:36:28Z</time>
      </trkpt>
      <trkpt lat="46.45665" lon="2.50773">
        <ele>282</ele>
        <time>2018-10-14T07:36:30Z</time>
      </trkpt>
      <trkpt lat="46.45658" lon="2.50773">
        <ele>282.3</ele>
        <time>2018-10-14T07:36:32Z</time>
      </trkpt>
      <trkpt lat="46.4565" lon="2.50773">
        <ele>282.7</ele>
        <time>2018-10-14T07:36:34Z</time>
      </trkpt>
      <trkpt lat="46.45643" lon="2.50773">
        <ele>283.7</ele>
        <time>2018-10-14T07:36:36Z</time>
      </trkpt>
      <trkpt lat="46.45635" lon="2.50773">
        <ele>284.5</ele>
        <time>2018-10-14T07:36:38Z</time>
      </trkpt>
      <trkpt lat="46.45627" lon="2.50773">
        <ele>284.9</ele>
        <time>2018-10-14T07:36:40Z</time>
      </trkpt>
      <trkpt lat="46.45619" lon="2.50773">
        <ele>284.7</ele>
        <time>2018-10-14T07:36:42Z</time>
      </trkpt>
      <trkpt lat="46.45611" lon="2.50773">
        <ele>284.5</ele>
        <time>2018-10-14T07:36:44Z</time>
      </trkpt>
      <trkpt lat="46.45603" lon="2.50773">
        <ele>284.8</ele>
        <time>2018-10-14T07:36:46Z</time>
      </trkpt>
      <trkpt lat="46.45595" lon="2.50772">
        <ele>284.2</ele>
        <time>2018-10-14T07:36:48Z</time>
      </trkpt>
      <trkpt lat="46.45587" lon="2.50772">
        <ele>284.4</ele>
        <time>2018-10-14T07:36:50Z</time>
      </trkpt>
      <trkpt lat="46.45579" lon="2.50771">
        <ele>284.6</ele>
        <time>2018-10-14T07:36:52Z</time>
      </trkpt>
      <trkpt lat="46.45571" lon="2.5077">
        <ele>284.4</ele>
        <time>2018-10-14T07:36:54Z</time>
      </trkpt>
      <trkpt lat="46.45563" lon="2.50768">
        <ele>284.4</ele>
        <time>2018-10-14T07:36:56Z</time>
      </trkpt>
      <trkpt lat="46.45555" lon="2.50767">
        <ele>284.9</ele>
        <time>2018-10-14T07:36:58Z</time>
      </trkpt>
      <trkpt lat="46.45546" lon="2.50766">
        <ele>284.8</ele>
        <time>2018-10-14T07:37:00Z</time>
      </trkpt>
      <trkpt lat="46.45538" lon="2.50765">
        <ele>285.1</ele>
        <time>2018-10-14T07:37:02Z</time>
      </trkpt>
      <trkpt lat="46.4553" lon="2.50764">
        <ele>285.2</ele>
        <time>2018-10-14T07:37:04Z</time>
      </trkpt>
      <trkpt lat="46.45521" lon="2.50765">
        <ele>285.7</ele>
        <time>2018-10-14T07:37:06Z</time>
      </trkpt>
      <trkpt lat="46.45517" lon="2.50765">
        <ele>286.1</ele>
        <time>2018-10-14T07:37:07Z</time>
      </trkpt>
      <trkpt lat="46.45512" lon="2.50765">
        <ele>286.4</ele>
        <time>2018-10-14T07:37:08Z</time>
      </trkpt>
      <trkpt lat="46.45507" lon="2.50765">
        <ele>286.1</ele>
        <time>2018-10-14T07:37:09Z</time>
      </trkpt>
      <trkpt lat="46.45502" lon="2.50765">
        <ele>285.9</ele>
        <time>2018-10-14T07:37:10Z</time>
      </trkpt>
      <trkpt lat="46.45497" lon="2.50764">
        <ele>285.8</ele>
        <time>2018-10-14T07:37:11Z</time>
      </trkpt>
      <trkpt lat="46.45492" lon="2.50764">
        <ele>285.8</ele>
        <time>2018-10-14T07:37:12Z</time>
      </trkpt>
      <trkpt lat="46.45487" lon="2.50763">
        <ele>285.9</ele>
        <time>2018-10-14T07:37:13Z</time>
      </trkpt>
      <trkpt lat="46.45482" lon="2.50763">
        <ele>286.1</ele>
        <time>2018-10-14T07:37:14Z</time>
      </trkpt>
      <trkpt lat="46.45477" lon="2.50763">
        <ele>286.2</ele>
        <time>2018-10-14T07:37:15Z</time>
      </trkpt>
      <trkpt lat="46.45472" lon="2.50763">
        <ele>285.7</ele>
        <time>2018-10-14T07:37:16Z</time>
      </trkpt>
      <trkpt lat="46.45466" lon="2.50763">
        <ele>285.4</ele>
        <time>2018-10-14T07:37:17Z</time>
      </trkpt>
      <trkpt lat="46.45461" lon="2.50763">
        <ele>285.7</ele>
        <time>2018-10-14T07:37:18Z</time>
      </trkpt>
      <trkpt lat="46.45455" lon="2.50764">
        <ele>286</ele>
        <time>2018-10-14T07:37:19Z</time>
      </trkpt>
      <trkpt lat="46.4545" lon="2.50765">
        <ele>285.8</ele>
        <time>2018-10-14T07:37:20Z</time>
      </trkpt>
      <trkpt lat="46.45445" lon="2.50765">
        <ele>285.7</ele>
        <time>2018-10-14T07:37:21Z</time>
      </trkpt>
      <trkpt lat="46.45439" lon="2.50766">
        <ele>285.6</ele>
        <time>2018-10-14T07:37:22Z</time>
      </trkpt>
      <trkpt lat="46.45433" lon="2.50767">
        <ele>285.4</ele>
        <time>2018-10-14T07:37:23Z</time>
      </trkpt>
      <trkpt lat="46.45427" lon="2.50768">
        <ele>285.2</ele>
        <time>2018-10-14T07:37:24Z</time>
      </trkpt>
      <trkpt lat="46.45421" lon="2.50769">
        <ele>284.6</ele>
        <time>2018-10-14T07:37:25Z</time>
      </trkpt>
      <trkpt lat="46.45414" lon="2.50769">
        <ele>284</ele>
        <time>2018-10-14T07:37:26Z</time>
      </trkpt>
      <trkpt lat="46.45408" lon="2.5077">
        <ele>283.7</ele>
        <time>2018-10-14T07:37:27Z</time>
      </trkpt>
      <trkpt lat="46.45402" lon="2.5077">
        <ele>283.8</ele>
        <time>2018-10-14T07:37:28Z</time>
      </trkpt>
      <trkpt lat="46.45397" lon="2.50771">
        <ele>284</ele>
        <time>2018-10-14T07:37:29Z</time>
      </trkpt>
      <trkpt lat="46.45391" lon="2.50772">
        <ele>283.5</ele>
        <time>2018-10-14T07:37:30Z</time>
      </trkpt>
      <trkpt lat="46.45386" lon="2.50773">
        <ele>283.2</ele>
        <time>2018-10-14T07:37:31Z</time>
      </trkpt>
      <trkpt lat="46.4538" lon="2.50774">
        <ele>283.1</ele>
        <time>2018-10-14T07:37:32Z</time>
      </trkpt>
      <trkpt lat="46.45375" lon="2.50775">
        <ele>283.1</ele>
        <time>2018-10-14T07:37:33Z</time>
      </trkpt>
      <trkpt lat="46.45369" lon="2.50775">
        <ele>283</ele>
        <time>2018-10-14T07:37:34Z</time>
      </trkpt>
      <trkpt lat="46.45364" lon="2.50776">
        <ele>282.9</ele>
        <time>2018-10-14T07:37:35Z</time>
      </trkpt>
      <trkpt lat="46.45359" lon="2.50777">
        <ele>282.7</ele>
        <time>2018-10-14T07:37:36Z</time>
      </trkpt>
      <trkpt lat="46.45353" lon="2.50778">
        <ele>283.2</ele>
        <time>2018-10-14T07:37:37Z</time>
      </trkpt>
      <trkpt lat="46.45348" lon="2.50778">
        <ele>283.5</ele>
        <time>2018-10-14T07:37:38Z</time>
      </trkpt>
      <trkpt lat="46.45342" lon="2.50779">
        <ele>283.7</ele>
        <time>2018-10-14T07:37:39Z</time>
      </trkpt>
      <trkpt lat="46.45337" lon="2.5078">
        <ele>283.8</ele>
        <time>2018-10-14T07:37:40Z</time>
      </trkpt>
      <trkpt lat="46.45331" lon="2.50781">
        <ele>283.9</ele>
        <time>2018-10-14T07:37:41Z</time>
      </trkpt>
      <trkpt lat="46.45326" lon="2.50782">
        <ele>283.5</ele>
        <time>2018-10-14T07:37:42Z</time>
      </trkpt>
      <trkpt lat="46.4532" lon="2.50782">
        <ele>283.2</ele>
        <time>2018-10-14T07:37:43Z</time>
      </trkpt>
      <trkpt lat="46.45314" lon="2.50783">
        <ele>283.2</ele>
        <time>2018-10-14T07:37:44Z</time>
      </trkpt>
      <trkpt lat="46.45309" lon="2.50783">
        <ele>283.3</ele>
        <time>2018-10-14T07:37:45Z</time>
      </trkpt>
      <trkpt lat="46.45303" lon="2.50784">
        <ele>283.2</ele>
        <time>2018-10-14T07:37:46Z</time>
      </trkpt>
      <trkpt lat="46.45298" lon="2.50784">
        <ele>283.2</ele>
        <time>2018-10-14T07:37:47Z</time>
      </trkpt>
      <trkpt lat="46.45293" lon="2.50785">
        <ele>283.1</ele>
        <time>2018-10-14T07:37:48Z</time>
      </trkpt>
      <trkpt lat="46.45287" lon="2.50785">
        <ele>282.6</ele>
        <time>2018-10-14T07:37:49Z</time>
      </trkpt>
      <trkpt lat="46.45282" lon="2.50786">
        <ele>282.3</ele>
        <time>2018-10-14T07:37:50Z</time>
      </trkpt>
      <trkpt lat="46.45277" lon="2.50787">
        <ele>282.5</ele>
        <time>2018-10-14T07:37:51Z</time>
      </trkpt>
      <trkpt lat="46.45272" lon="2.50787">
        <ele>282.7</ele>
        <time>2018-10-14T07:37:52Z</time>
      </trkpt>
      <trkpt lat="46.45267" lon="2.50788">
        <ele>282.8</ele>
        <time>2018-10-14T07:37:53Z</time>
      </trkpt>
      <trkpt lat="46.45262" lon="2.50788">
        <ele>282.6</ele>
        <time>2018-10-14T07:37:54Z</time>
      </trkpt>
      <trkpt lat="46.45256" lon="2.50788">
        <ele>282.5</ele>
        <time>2018-10-14T07:37:55Z</time>
      </trkpt>
      <trkpt lat="46.4525" lon="2.50788">
        <ele>282.9</ele>
        <time>2018-10-14T07:37:56Z</time>
      </trkpt>
      <trkpt lat="46.45245" lon="2.50787">
        <ele>283.2</ele>
        <time>2018-10-14T07:37:57Z</time>
      </trkpt>
      <trkpt lat="46.45239" lon="2.50786">
        <ele>282.7</ele>
        <time>2018-10-14T07:37:58Z</time>
      </trkpt>
      <trkpt lat="46.45234" lon="2.50785">
        <ele>282.4</ele>
        <time>2018-10-14T07:37:59Z</time>
      </trkpt>
      <trkpt lat="46.45228" lon="2.50784">
        <ele>282.2</ele>
        <time>2018-10-14T07:38:00Z</time>
      </trkpt>
      <trkpt lat="46.45223" lon="2.50782">
        <ele>282.3</ele>
        <time>2018-10-14T07:38:01Z</time>
      </trkpt>
      <trkpt lat="46.45218" lon="2.50781">
        <ele>282.4</ele>
        <time>2018-10-14T07:38:02Z</time>
      </trkpt>
      <trkpt lat="46.45212" lon="2.50779">
        <ele>282.1</ele>
        <time>2018-10-14T07:38:03Z</time>
      </trkpt>
      <trkpt lat="46.45207" lon="2.50777">
        <ele>281.9</ele>
        <time>2018-10-14T07:38:04Z</time>
      </trkpt>
      <trkpt lat="46.45201" lon="2.50775">
        <ele>281.9</ele>
        <time>2018-10-14T07:38:05Z</time>
      </trkpt>
      <trkpt lat="46.45196" lon="2.50773">
        <ele>282</ele>
        <time>2018-10-14T07:38:06Z</time>
      </trkpt>
      <trkpt lat="46.4519" lon="2.50771">
        <ele>282.1</ele>
        <time>2018-10-14T07:38:07Z</time>
      </trkpt>
      <trkpt lat="46.45185" lon="2.50768">
        <ele>281.8</ele>
        <time>2018-10-14T07:38:08Z</time>
      </trkpt>
      <trkpt lat="46.45179" lon="2.50766">
        <ele>281.6</ele>
        <time>2018-10-14T07:38:09Z</time>
      </trkpt>
      <trkpt lat="46.45173" lon="2.50765">
        <ele>280.9</ele>
        <time>2018-10-14T07:38:10Z</time>
      </trkpt>
      <trkpt lat="46.45167" lon="2.50763">
        <ele>280.5</ele>
        <time>2018-10-14T07:38:11Z</time>
      </trkpt>
      <trkpt lat="46.45161" lon="2.50761">
        <ele>280.1</ele>
        <time>2018-10-14T07:38:12Z</time>
      </trkpt>
      <trkpt lat="46.45154" lon="2.5076">
        <ele>279.9</ele>
        <time>2018-10-14T07:38:13Z</time>
      </trkpt>
      <trkpt lat="46.45148" lon="2.50758">
        <ele>279.8</ele>
        <time>2018-10-14T07:38:14Z</time>
      </trkpt>
      <trkpt lat="46.45141" lon="2.50755">
        <ele>279.6</ele>
        <time>2018-10-14T07:38:15Z</time>
      </trkpt>
      <trkpt lat="46.45136" lon="2.50752">
        <ele>279.4</ele>
        <time>2018-10-14T07:38:16Z</time>
      </trkpt>
      <trkpt lat="46.45132" lon="2.50747">
        <ele>279.3</ele>
        <time>2018-10-14T07:38:17Z</time>
      </trkpt>
      <trkpt lat="46.45128" lon="2.50741">
        <ele>279.2</ele>
        <time>2018-10-14T07:38:18Z</time>
      </trkpt>
      <trkpt lat="46.45124" lon="2.50734">
        <ele>279.2</ele>
        <time>2018-10-14T07:38:19Z</time>
      </trkpt>
      <trkpt lat="46.4512" lon="2.50727">
        <ele>279.2</ele>
        <time>2018-10-14T07:38:20Z</time>
      </trkpt>
      <trkpt lat="46.45115" lon="2.50721">
        <ele>279.2</ele>
        <time>2018-10-14T07:38:21Z</time>
      </trkpt>
      <trkpt lat="46.45111" lon="2.50714">
        <ele>279.2</ele>
        <time>2018-10-14T07:38:22Z</time>
      </trkpt>
      <trkpt lat="46.45106" lon="2.50709">
        <ele>279.1</ele>
        <time>2018-10-14T07:38:23Z</time>
      </trkpt>
      <trkpt lat="46.45101" lon="2.50705">
        <ele>279</ele>
        <time>2018-10-14T07:38:24Z</time>
      </trkpt>
      <trkpt lat="46.45096" lon="2.50701">
        <ele>278.8</ele>
        <time>2018-10-14T07:38:25Z</time>
      </trkpt>
      <trkpt lat="46.45091" lon="2.50698">
        <ele>278.7</ele>
        <time>2018-10-14T07:38:26Z</time>
      </trkpt>
      <trkpt lat="46.45087" lon="2.50694">
        <ele>278.5</ele>
        <time>2018-10-14T07:38:27Z</time>
      </trkpt>
      <trkpt lat="46.45082" lon="2.5069">
        <ele>278.3</ele>
        <time>2018-10-14T07:38:28Z</time>
      </trkpt>
      <trkpt lat="46.45077" lon="2.50686">
        <ele>278.5</ele>
        <time>2018-10-14T07:38:29Z</time>
      </trkpt>
      <trkpt lat="46.45072" lon="2.50682">
        <ele>278.6</ele>
        <time>2018-10-14T07:38:30Z</time>
      </trkpt>
      <trkpt lat="46.45067" lon="2.50678">
        <ele>278.6</ele>
        <time>2018-10-14T07:38:31Z</time>
      </trkpt>
      <trkpt lat="46.45063" lon="2.50674">
        <ele>278.4</ele>
        <time>2018-10-14T07:38:32Z</time>
      </trkpt>
      <trkpt lat="46.45058" lon="2.5067">
        <ele>278.2</ele>
        <time>2018-10-14T07:38:33Z</time>
      </trkpt>
      <trkpt lat="46.45053" lon="2.50667">
        <ele>278.2</ele>
        <time>2018-10-14T07:38:34Z</time>
      </trkpt>
      <trkpt lat="46.45048" lon="2.50665">
        <ele>278.3</ele>
        <time>2018-10-14T07:38:35Z</time>
      </trkpt>
      <trkpt lat="46.45043" lon="2.50663">
        <ele>278.5</ele>
        <time>2018-10-14T07:38:36Z</time>
      </trkpt>
      <trkpt lat="46.45038" lon="2.50662">
        <ele>278.7</ele>
        <time>2018-10-14T07:38:37Z</time>
      </trkpt>
      <trkpt lat="46.45033" lon="2.50661">
        <ele>278.9</ele>
        <time>2018-10-14T07:38:38Z</time>
      </trkpt>
      <trkpt lat="46.45028" lon="2.5066">
        <ele>278.7</ele>
        <time>2018-10-14T07:38:39Z</time>
      </trkpt>
      <trkpt lat="46.45023" lon="2.50659">
        <ele>278.6</ele>
        <time>2018-10-14T07:38:40Z</time>
      </trkpt>
      <trkpt lat="46.45018" lon="2.50658">
        <ele>278.6</ele>
        <time>2018-10-14T07:38:41Z</time>
      </trkpt>
      <trkpt lat="46.45014" lon="2.50658">
        <ele>278.6</ele>
        <time>2018-10-14T07:38:42Z</time>
      </trkpt>
      <trkpt lat="46.45009" lon="2.50657">
        <ele>278.9</ele>
        <time>2018-10-14T07:38:43Z</time>
      </trkpt>
      <trkpt lat="46.45" lon="2.50655">
        <ele>279.3</ele>
        <time>2018-10-14T07:38:45Z</time>
      </trkpt>
      <trkpt lat="46.44992" lon="2.50654">
        <ele>279.3</ele>
        <time>2018-10-14T07:38:47Z</time>
      </trkpt>
      <trkpt lat="46.44983" lon="2.50653">
        <ele>279.7</ele>
        <time>2018-10-14T07:38:49Z</time>
      </trkpt>
      <trkpt lat="46.44979" lon="2.50651">
        <ele>279.9</ele>
        <time>2018-10-14T07:38:50Z</time>
      </trkpt>
      <trkpt lat="46.44975" lon="2.5065">
        <ele>279.1</ele>
        <time>2018-10-14T07:38:51Z</time>
      </trkpt>
      <trkpt lat="46.4497" lon="2.50649">
        <ele>278.6</ele>
        <time>2018-10-14T07:38:52Z</time>
      </trkpt>
      <trkpt lat="46.44966" lon="2.5065">
        <ele>279.1</ele>
        <time>2018-10-14T07:38:53Z</time>
      </trkpt>
      <trkpt lat="46.44957" lon="2.5065">
        <ele>279.9</ele>
        <time>2018-10-14T07:38:55Z</time>
      </trkpt>
      <trkpt lat="46.44948" lon="2.5065">
        <ele>280.4</ele>
        <time>2018-10-14T07:38:57Z</time>
      </trkpt>
      <trkpt lat="46.4494" lon="2.50651">
        <ele>280.9</ele>
        <time>2018-10-14T07:38:59Z</time>
      </trkpt>
      <trkpt lat="46.44932" lon="2.50651">
        <ele>281.6</ele>
        <time>2018-10-14T07:39:01Z</time>
      </trkpt>
      <trkpt lat="46.44924" lon="2.5065">
        <ele>282.1</ele>
        <time>2018-10-14T07:39:03Z</time>
      </trkpt>
      <trkpt lat="46.44916" lon="2.50649">
        <ele>282.7</ele>
        <time>2018-10-14T07:39:05Z</time>
      </trkpt>
      <trkpt lat="46.44909" lon="2.50648">
        <ele>283.6</ele>
        <time>2018-10-14T07:39:07Z</time>
      </trkpt>
      <trkpt lat="46.44902" lon="2.50648">
        <ele>283.9</ele>
        <time>2018-10-14T07:39:09Z</time>
      </trkpt>
      <trkpt lat="46.44894" lon="2.50649">
        <ele>284.7</ele>
        <time>2018-10-14T07:39:12Z</time>
      </trkpt>
      <trkpt lat="46.44886" lon="2.50648">
        <ele>285.5</ele>
        <time>2018-10-14T07:39:15Z</time>
      </trkpt>
      <trkpt lat="46.44879" lon="2.50648">
        <ele>286.1</ele>
        <time>2018-10-14T07:39:17Z</time>
      </trkpt>
      <trkpt lat="46.44876" lon="2.50648">
        <ele>286.5</ele>
        <time>2018-10-14T07:39:18Z</time>
      </trkpt>
      <trkpt lat="46.44867" lon="2.50647">
        <ele>287.6</ele>
        <time>2018-10-14T07:39:21Z</time>
      </trkpt>
      <trkpt lat="46.44861" lon="2.50647">
        <ele>287.8</ele>
        <time>2018-10-14T07:39:23Z</time>
      </trkpt>
      <trkpt lat="46.44855" lon="2.50647">
        <ele>288.5</ele>
        <time>2018-10-14T07:39:25Z</time>
      </trkpt>
      <trkpt lat="46.44849" lon="2.50646">
        <ele>289.5</ele>
        <time>2018-10-14T07:39:27Z</time>
      </trkpt>
      <trkpt lat="46.44842" lon="2.50645">
        <ele>289.8</ele>
        <time>2018-10-14T07:39:29Z</time>
      </trkpt>
      <trkpt lat="46.44835" lon="2.50643">
        <ele>290</ele>
        <time>2018-10-14T07:39:31Z</time>
      </trkpt>
      <trkpt lat="46.44828" lon="2.50642">
        <ele>290.4</ele>
        <time>2018-10-14T07:39:33Z</time>
      </trkpt>
      <trkpt lat="46.44821" lon="2.5064">
        <ele>290.7</ele>
        <time>2018-10-14T07:39:35Z</time>
      </trkpt>
      <trkpt lat="46.44815" lon="2.50638">
        <ele>290.7</ele>
        <time>2018-10-14T07:39:37Z</time>
      </trkpt>
      <trkpt lat="46.44808" lon="2.50636">
        <ele>290.4</ele>
        <time>2018-10-14T07:39:39Z</time>
      </trkpt>
      <trkpt lat="46.44801" lon="2.50634">
        <ele>290.4</ele>
        <time>2018-10-14T07:39:41Z</time>
      </trkpt>
      <trkpt lat="46.44795" lon="2.50631">
        <ele>290.6</ele>
        <time>2018-10-14T07:39:43Z</time>
      </trkpt>
      <trkpt lat="46.44788" lon="2.50629">
        <ele>290.7</ele>
        <time>2018-10-14T07:39:45Z</time>
      </trkpt>
      <trkpt lat="46.4478" lon="2.50627">
        <ele>291</ele>
        <time>2018-10-14T07:39:47Z</time>
      </trkpt>
      <trkpt lat="46.44773" lon="2.50625">
        <ele>291.5</ele>
        <time>2018-10-14T07:39:49Z</time>
      </trkpt>
      <trkpt lat="46.44765" lon="2.50623">
        <ele>291</ele>
        <time>2018-10-14T07:39:51Z</time>
      </trkpt>
      <trkpt lat="46.44757" lon="2.5062">
        <ele>291.3</ele>
        <time>2018-10-14T07:39:53Z</time>
      </trkpt>
      <trkpt lat="46.4475" lon="2.50617">
        <ele>291.2</ele>
        <time>2018-10-14T07:39:55Z</time>
      </trkpt>
      <trkpt lat="46.44742" lon="2.50614">
        <ele>291.3</ele>
        <time>2018-10-14T07:39:57Z</time>
      </trkpt>
      <trkpt lat="46.44735" lon="2.50612">
        <ele>291.8</ele>
        <time>2018-10-14T07:39:59Z</time>
      </trkpt>
      <trkpt lat="46.44726" lon="2.50609">
        <ele>292.2</ele>
        <time>2018-10-14T07:40:01Z</time>
      </trkpt>
      <trkpt lat="46.44718" lon="2.50606">
        <ele>291.8</ele>
        <time>2018-10-14T07:40:03Z</time>
      </trkpt>
      <trkpt lat="46.44713" lon="2.50604">
        <ele>291.3</ele>
        <time>2018-10-14T07:40:04Z</time>
      </trkpt>
      <trkpt lat="46.44708" lon="2.50603">
        <ele>290.9</ele>
        <time>2018-10-14T07:40:05Z</time>
      </trkpt>
      <trkpt lat="46.44702" lon="2.506">
        <ele>290.4</ele>
        <time>2018-10-14T07:40:06Z</time>
      </trkpt>
      <trkpt lat="46.44697" lon="2.50598">
        <ele>290</ele>
        <time>2018-10-14T07:40:07Z</time>
      </trkpt>
      <trkpt lat="46.44692" lon="2.50595">
        <ele>289.7</ele>
        <time>2018-10-14T07:40:08Z</time>
      </trkpt>
      <trkpt lat="46.44686" lon="2.50593">
        <ele>289.8</ele>
        <time>2018-10-14T07:40:09Z</time>
      </trkpt>
      <trkpt lat="46.4468" lon="2.50591">
        <ele>289.9</ele>
        <time>2018-10-14T07:40:10Z</time>
      </trkpt>
      <trkpt lat="46.44675" lon="2.50589">
        <ele>289.8</ele>
        <time>2018-10-14T07:40:11Z</time>
      </trkpt>
      <trkpt lat="46.44669" lon="2.50587">
        <ele>289.8</ele>
        <time>2018-10-14T07:40:12Z</time>
      </trkpt>
      <trkpt lat="46.44663" lon="2.50584">
        <ele>289.7</ele>
        <time>2018-10-14T07:40:13Z</time>
      </trkpt>
      <trkpt lat="46.44657" lon="2.50582">
        <ele>289.6</ele>
        <time>2018-10-14T07:40:14Z</time>
      </trkpt>
      <trkpt lat="46.44651" lon="2.5058">
        <ele>289.5</ele>
        <time>2018-10-14T07:40:15Z</time>
      </trkpt>
      <trkpt lat="46.44645" lon="2.50578">
        <ele>289.3</ele>
        <time>2018-10-14T07:40:16Z</time>
      </trkpt>
      <trkpt lat="46.4464" lon="2.50576">
        <ele>289.1</ele>
        <time>2018-10-14T07:40:17Z</time>
      </trkpt>
      <trkpt lat="46.44634" lon="2.50574">
        <ele>288.5</ele>
        <time>2018-10-14T07:40:18Z</time>
      </trkpt>
      <trkpt lat="46.44629" lon="2.50571">
        <ele>288.1</ele>
        <time>2018-10-14T07:40:19Z</time>
      </trkpt>
      <trkpt lat="46.44623" lon="2.50569">
        <ele>287.7</ele>
        <time>2018-10-14T07:40:20Z</time>
      </trkpt>
      <trkpt lat="46.44618" lon="2.50566">
        <ele>288.1</ele>
        <time>2018-10-14T07:40:21Z</time>
      </trkpt>
      <trkpt lat="46.44612" lon="2.50564">
        <ele>288.5</ele>
        <time>2018-10-14T07:40:22Z</time>
      </trkpt>
      <trkpt lat="46.44607" lon="2.50562">
        <ele>288.7</ele>
        <time>2018-10-14T07:40:23Z</time>
      </trkpt>
      <trkpt lat="46.44601" lon="2.50559">
        <ele>288.9</ele>
        <time>2018-10-14T07:40:24Z</time>
      </trkpt>
      <trkpt lat="46.44595" lon="2.50558">
        <ele>288.8</ele>
        <time>2018-10-14T07:40:25Z</time>
      </trkpt>
      <trkpt lat="46.4459" lon="2.50556">
        <ele>288.7</ele>
        <time>2018-10-14T07:40:26Z</time>
      </trkpt>
      <trkpt lat="46.44584" lon="2.50556">
        <ele>288.6</ele>
        <time>2018-10-14T07:40:27Z</time>
      </trkpt>
      <trkpt lat="46.44579" lon="2.50555">
        <ele>288.1</ele>
        <time>2018-10-14T07:40:28Z</time>
      </trkpt>
      <trkpt lat="46.44573" lon="2.50554">
        <ele>287.7</ele>
        <time>2018-10-14T07:40:29Z</time>
      </trkpt>
      <trkpt lat="46.44568" lon="2.50553">
        <ele>288</ele>
        <time>2018-10-14T07:40:30Z</time>
      </trkpt>
      <trkpt lat="46.44562" lon="2.50554">
        <ele>288.2</ele>
        <time>2018-10-14T07:40:31Z</time>
      </trkpt>
      <trkpt lat="46.44557" lon="2.50554">
        <ele>288.3</ele>
        <time>2018-10-14T07:40:32Z</time>
      </trkpt>
      <trkpt lat="46.44551" lon="2.50555">
        <ele>288.6</ele>
        <time>2018-10-14T07:40:33Z</time>
      </trkpt>
      <trkpt lat="46.44545" lon="2.50554">
        <ele>288.8</ele>
        <time>2018-10-14T07:40:34Z</time>
      </trkpt>
      <trkpt lat="46.44539" lon="2.50555">
        <ele>288.5</ele>
        <time>2018-10-14T07:40:35Z</time>
      </trkpt>
      <trkpt lat="46.44533" lon="2.50554">
        <ele>288.3</ele>
        <time>2018-10-14T07:40:36Z</time>
      </trkpt>
      <trkpt lat="46.44527" lon="2.50554">
        <ele>288.2</ele>
        <time>2018-10-14T07:40:37Z</time>
      </trkpt>
      <trkpt lat="46.44521" lon="2.50553">
        <ele>288.1</ele>
        <time>2018-10-14T07:40:38Z</time>
      </trkpt>
      <trkpt lat="46.44515" lon="2.50552">
        <ele>288</ele>
        <time>2018-10-14T07:40:39Z</time>
      </trkpt>
      <trkpt lat="46.44509" lon="2.5055">
        <ele>287.8</ele>
        <time>2018-10-14T07:40:40Z</time>
      </trkpt>
      <trkpt lat="46.44504" lon="2.50549">
        <ele>287.6</ele>
        <time>2018-10-14T07:40:41Z</time>
      </trkpt>
      <trkpt lat="46.44498" lon="2.5055">
        <ele>287.5</ele>
        <time>2018-10-14T07:40:42Z</time>
      </trkpt>
      <trkpt lat="46.44492" lon="2.5055">
        <ele>287.5</ele>
        <time>2018-10-14T07:40:43Z</time>
      </trkpt>
      <trkpt lat="46.44486" lon="2.50549">
        <ele>287.3</ele>
        <time>2018-10-14T07:40:44Z</time>
      </trkpt>
      <trkpt lat="46.4448" lon="2.50549">
        <ele>287.2</ele>
        <time>2018-10-14T07:40:45Z</time>
      </trkpt>
      <trkpt lat="46.44474" lon="2.50549">
        <ele>287.1</ele>
        <time>2018-10-14T07:40:46Z</time>
      </trkpt>
      <trkpt lat="46.44468" lon="2.50548">
        <ele>287.2</ele>
        <time>2018-10-14T07:40:47Z</time>
      </trkpt>
      <trkpt lat="46.44461" lon="2.50547">
        <ele>287.3</ele>
        <time>2018-10-14T07:40:48Z</time>
      </trkpt>
      <trkpt lat="46.44455" lon="2.50546">
        <ele>286.8</ele>
        <time>2018-10-14T07:40:49Z</time>
      </trkpt>
      <trkpt lat="46.44449" lon="2.50545">
        <ele>286.5</ele>
        <time>2018-10-14T07:40:50Z</time>
      </trkpt>
      <trkpt lat="46.44443" lon="2.50545">
        <ele>286.2</ele>
        <time>2018-10-14T07:40:51Z</time>
      </trkpt>
      <trkpt lat="46.44437" lon="2.50544">
        <ele>285.9</ele>
        <time>2018-10-14T07:40:52Z</time>
      </trkpt>
      <trkpt lat="46.44431" lon="2.50545">
        <ele>285.7</ele>
        <time>2018-10-14T07:40:53Z</time>
      </trkpt>
      <trkpt lat="46.44425" lon="2.50546">
        <ele>286</ele>
        <time>2018-10-14T07:40:54Z</time>
      </trkpt>
      <trkpt lat="46.44419" lon="2.50548">
        <ele>286.2</ele>
        <time>2018-10-14T07:40:55Z</time>
      </trkpt>
      <trkpt lat="46.44413" lon="2.50549">
        <ele>286.1</ele>
        <time>2018-10-14T07:40:56Z</time>
      </trkpt>
      <trkpt lat="46.44407" lon="2.50551">
        <ele>286</ele>
        <time>2018-10-14T07:40:57Z</time>
      </trkpt>
      <trkpt lat="46.44401" lon="2.50552">
        <ele>285.9</ele>
        <time>2018-10-14T07:40:58Z</time>
      </trkpt>
      <trkpt lat="46.44396" lon="2.50554">
        <ele>286.2</ele>
        <time>2018-10-14T07:40:59Z</time>
      </trkpt>
      <trkpt lat="46.4439" lon="2.50556">
        <ele>286.4</ele>
        <time>2018-10-14T07:41:00Z</time>
      </trkpt>
      <trkpt lat="46.44384" lon="2.50559">
        <ele>286</ele>
        <time>2018-10-14T07:41:01Z</time>
      </trkpt>
      <trkpt lat="46.44379" lon="2.50561">
        <ele>285.8</ele>
        <time>2018-10-14T07:41:02Z</time>
      </trkpt>
      <trkpt lat="46.44373" lon="2.50563">
        <ele>286</ele>
        <time>2018-10-14T07:41:03Z</time>
      </trkpt>
      <trkpt lat="46.44368" lon="2.50565">
        <ele>286.2</ele>
        <time>2018-10-14T07:41:04Z</time>
      </trkpt>
      <trkpt lat="46.44363" lon="2.50566">
        <ele>286.3</ele>
        <time>2018-10-14T07:41:05Z</time>
      </trkpt>
      <trkpt lat="46.44358" lon="2.50568">
        <ele>286.3</ele>
        <time>2018-10-14T07:41:06Z</time>
      </trkpt>
      <trkpt lat="46.44353" lon="2.50569">
        <ele>286.2</ele>
        <time>2018-10-14T07:41:07Z</time>
      </trkpt>
      <trkpt lat="46.44349" lon="2.5057">
        <ele>286.3</ele>
        <time>2018-10-14T07:41:08Z</time>
      </trkpt>
      <trkpt lat="46.44344" lon="2.50571">
        <ele>286.3</ele>
        <time>2018-10-14T07:41:09Z</time>
      </trkpt>
      <trkpt lat="46.4434" lon="2.50571">
        <ele>286.6</ele>
        <time>2018-10-14T07:41:10Z</time>
      </trkpt>
      <trkpt lat="46.44335" lon="2.50572">
        <ele>286.8</ele>
        <time>2018-10-14T07:41:11Z</time>
      </trkpt>
      <trkpt lat="46.44331" lon="2.50572">
        <ele>287</ele>
        <time>2018-10-14T07:41:12Z</time>
      </trkpt>
      <trkpt lat="46.44326" lon="2.50572">
        <ele>287</ele>
        <time>2018-10-14T07:41:13Z</time>
      </trkpt>
      <trkpt lat="46.44322" lon="2.50572">
        <ele>287</ele>
        <time>2018-10-14T07:41:14Z</time>
      </trkpt>
      <trkpt lat="46.44317" lon="2.50573">
        <ele>287.1</ele>
        <time>2018-10-14T07:41:15Z</time>
      </trkpt>
      <trkpt lat="46.44312" lon="2.50573">
        <ele>287.1</ele>
        <time>2018-10-14T07:41:16Z</time>
      </trkpt>
      <trkpt lat="46.44303" lon="2.50572">
        <ele>287.6</ele>
        <time>2018-10-14T07:41:18Z</time>
      </trkpt>
      <trkpt lat="46.44295" lon="2.50572">
        <ele>288.1</ele>
        <time>2018-10-14T07:41:20Z</time>
      </trkpt>
      <trkpt lat="46.4429" lon="2.50571">
        <ele>288.2</ele>
        <time>2018-10-14T07:41:21Z</time>
      </trkpt>
      <trkpt lat="46.44277" lon="2.5057">
        <ele>287.5</ele>
        <time>2018-10-14T07:41:24Z</time>
      </trkpt>
      <trkpt lat="46.44268" lon="2.5057">
        <ele>287.4</ele>
        <time>2018-10-14T07:41:26Z</time>
      </trkpt>
      <trkpt lat="46.44264" lon="2.5057">
        <ele>288.1</ele>
        <time>2018-10-14T07:41:27Z</time>
      </trkpt>
      <trkpt lat="46.44259" lon="2.50569">
        <ele>288.7</ele>
        <time>2018-10-14T07:41:28Z</time>
      </trkpt>
      <trkpt lat="46.44254" lon="2.50569">
        <ele>289.1</ele>
        <time>2018-10-14T07:41:29Z</time>
      </trkpt>
      <trkpt lat="46.4425" lon="2.50569">
        <ele>289.1</ele>
        <time>2018-10-14T07:41:30Z</time>
      </trkpt>
      <trkpt lat="46.44245" lon="2.50569">
        <ele>289.1</ele>
        <time>2018-10-14T07:41:31Z</time>
      </trkpt>
      <trkpt lat="46.4424" lon="2.50569">
        <ele>289.3</ele>
        <time>2018-10-14T07:41:32Z</time>
      </trkpt>
      <trkpt lat="46.44236" lon="2.50569">
        <ele>289.4</ele>
        <time>2018-10-14T07:41:33Z</time>
      </trkpt>
      <trkpt lat="46.44231" lon="2.50568">
        <ele>289.3</ele>
        <time>2018-10-14T07:41:34Z</time>
      </trkpt>
      <trkpt lat="46.44226" lon="2.50568">
        <ele>289.3</ele>
        <time>2018-10-14T07:41:35Z</time>
      </trkpt>
      <trkpt lat="46.4422" lon="2.50567">
        <ele>289.3</ele>
        <time>2018-10-14T07:41:36Z</time>
      </trkpt>
      <trkpt lat="46.44214" lon="2.50566">
        <ele>289.6</ele>
        <time>2018-10-14T07:41:37Z</time>
      </trkpt>
      <trkpt lat="46.44208" lon="2.50565">
        <ele>289.8</ele>
        <time>2018-10-14T07:41:38Z</time>
      </trkpt>
      <trkpt lat="46.44202" lon="2.50565">
        <ele>289.6</ele>
        <time>2018-10-14T07:41:39Z</time>
      </trkpt>
      <trkpt lat="46.44195" lon="2.50565">
        <ele>289.5</ele>
        <time>2018-10-14T07:41:40Z</time>
      </trkpt>
      <trkpt lat="46.44189" lon="2.50564">
        <ele>289.7</ele>
        <time>2018-10-14T07:41:41Z</time>
      </trkpt>
      <trkpt lat="46.44183" lon="2.50564">
        <ele>289.9</ele>
        <time>2018-10-14T07:41:42Z</time>
      </trkpt>
      <trkpt lat="46.44177" lon="2.50563">
        <ele>290.1</ele>
        <time>2018-10-14T07:41:43Z</time>
      </trkpt>
      <trkpt lat="46.44171" lon="2.50563">
        <ele>289.7</ele>
        <time>2018-10-14T07:41:44Z</time>
      </trkpt>
      <trkpt lat="46.44165" lon="2.50563">
        <ele>289.4</ele>
        <time>2018-10-14T07:41:45Z</time>
      </trkpt>
      <trkpt lat="46.44159" lon="2.50562">
        <ele>289.1</ele>
        <time>2018-10-14T07:41:46Z</time>
      </trkpt>
      <trkpt lat="46.44153" lon="2.50562">
        <ele>288.9</ele>
        <time>2018-10-14T07:41:47Z</time>
      </trkpt>
      <trkpt lat="46.44148" lon="2.50561">
        <ele>288.6</ele>
        <time>2018-10-14T07:41:48Z</time>
      </trkpt>
      <trkpt lat="46.44142" lon="2.5056">
        <ele>288.4</ele>
        <time>2018-10-14T07:41:49Z</time>
      </trkpt>
      <trkpt lat="46.44136" lon="2.50559">
        <ele>288.3</ele>
        <time>2018-10-14T07:41:50Z</time>
      </trkpt>
      <trkpt lat="46.4413" lon="2.50558">
        <ele>288.1</ele>
        <time>2018-10-14T07:41:51Z</time>
      </trkpt>
      <trkpt lat="46.44124" lon="2.50556">
        <ele>288</ele>
        <time>2018-10-14T07:41:52Z</time>
      </trkpt>
      <trkpt lat="46.44118" lon="2.50554">
        <ele>288</ele>
        <time>2018-10-14T07:41:53Z</time>
      </trkpt>
      <trkpt lat="46.44111" lon="2.50553">
        <ele>288</ele>
        <time>2018-10-14T07:41:54Z</time>
      </trkpt>
      <trkpt lat="46.44105" lon="2.50551">
        <ele>288</ele>
        <time>2018-10-14T07:41:55Z</time>
      </trkpt>
      <trkpt lat="46.44099" lon="2.5055">
        <ele>287.5</ele>
        <time>2018-10-14T07:41:56Z</time>
      </trkpt>
      <trkpt lat="46.44093" lon="2.50548">
        <ele>287.2</ele>
        <time>2018-10-14T07:41:57Z</time>
      </trkpt>
      <trkpt lat="46.44086" lon="2.50546">
        <ele>287.1</ele>
        <time>2018-10-14T07:41:58Z</time>
      </trkpt>
      <trkpt lat="46.4408" lon="2.50543">
        <ele>287</ele>
        <time>2018-10-14T07:41:59Z</time>
      </trkpt>
      <trkpt lat="46.44073" lon="2.50541">
        <ele>286.6</ele>
        <time>2018-10-14T07:42:00Z</time>
      </trkpt>
      <trkpt lat="46.44067" lon="2.5054">
        <ele>286.3</ele>
        <time>2018-10-14T07:42:01Z</time>
      </trkpt>
      <trkpt lat="46.44061" lon="2.50538">
        <ele>286</ele>
        <time>2018-10-14T07:42:02Z</time>
      </trkpt>
      <trkpt lat="46.44054" lon="2.50537">
        <ele>286.3</ele>
        <time>2018-10-14T07:42:03Z</time>
      </trkpt>
      <trkpt lat="46.44049" lon="2.50535">
        <ele>286.5</ele>
        <time>2018-10-14T07:42:04Z</time>
      </trkpt>
      <trkpt lat="46.44043" lon="2.50534">
        <ele>286.3</ele>
        <time>2018-10-14T07:42:05Z</time>
      </trkpt>
      <trkpt lat="46.44037" lon="2.50533">
        <ele>286.1</ele>
        <time>2018-10-14T07:42:06Z</time>
      </trkpt>
      <trkpt lat="46.44031" lon="2.50532">
        <ele>286</ele>
        <time>2018-10-14T07:42:07Z</time>
      </trkpt>
      <trkpt lat="46.44026" lon="2.5053">
        <ele>285.7</ele>
        <time>2018-10-14T07:42:08Z</time>
      </trkpt>
      <trkpt lat="46.4402" lon="2.50529">
        <ele>285.5</ele>
        <time>2018-10-14T07:42:09Z</time>
      </trkpt>
      <trkpt lat="46.44015" lon="2.50527">
        <ele>285.2</ele>
        <time>2018-10-14T07:42:10Z</time>
      </trkpt>
      <trkpt lat="46.44009" lon="2.50525">
        <ele>285</ele>
        <time>2018-10-14T07:42:11Z</time>
      </trkpt>
      <trkpt lat="46.44004" lon="2.50523">
        <ele>285</ele>
        <time>2018-10-14T07:42:12Z</time>
      </trkpt>
      <trkpt lat="46.43998" lon="2.50521">
        <ele>285</ele>
        <time>2018-10-14T07:42:13Z</time>
      </trkpt>
      <trkpt lat="46.43993" lon="2.5052">
        <ele>285.1</ele>
        <time>2018-10-14T07:42:14Z</time>
      </trkpt>
      <trkpt lat="46.43987" lon="2.50519">
        <ele>284.7</ele>
        <time>2018-10-14T07:42:15Z</time>
      </trkpt>
      <trkpt lat="46.43981" lon="2.50519">
        <ele>284.5</ele>
        <time>2018-10-14T07:42:16Z</time>
      </trkpt>
      <trkpt lat="46.43976" lon="2.50518">
        <ele>284.8</ele>
        <time>2018-10-14T07:42:17Z</time>
      </trkpt>
      <trkpt lat="46.4397" lon="2.50517">
        <ele>284.9</ele>
        <time>2018-10-14T07:42:18Z</time>
      </trkpt>
      <trkpt lat="46.43965" lon="2.50517">
        <ele>285.1</ele>
        <time>2018-10-14T07:42:19Z</time>
      </trkpt>
      <trkpt lat="46.43959" lon="2.50516">
        <ele>285.3</ele>
        <time>2018-10-14T07:42:20Z</time>
      </trkpt>
      <trkpt lat="46.43954" lon="2.50516">
        <ele>285.4</ele>
        <time>2018-10-14T07:42:21Z</time>
      </trkpt>
      <trkpt lat="46.43949" lon="2.50515">
        <ele>285.4</ele>
        <time>2018-10-14T07:42:22Z</time>
      </trkpt>
      <trkpt lat="46.43942" lon="2.50511">
        <ele>285.3</ele>
        <time>2018-10-14T07:42:24Z</time>
      </trkpt>
      <trkpt lat="46.43939" lon="2.50502">
        <ele>285.7</ele>
        <time>2018-10-14T07:42:26Z</time>
      </trkpt>
      <trkpt lat="46.43938" lon="2.50491">
        <ele>286.4</ele>
        <time>2018-10-14T07:42:28Z</time>
      </trkpt>
      <trkpt lat="46.43936" lon="2.50479">
        <ele>286.3</ele>
        <time>2018-10-14T07:42:30Z</time>
      </trkpt>
      <trkpt lat="46.43935" lon="2.50467">
        <ele>286.7</ele>
        <time>2018-10-14T07:42:32Z</time>
      </trkpt>
      <trkpt lat="46.43934" lon="2.50454">
        <ele>286.8</ele>
        <time>2018-10-14T07:42:34Z</time>
      </trkpt>
      <trkpt lat="46.43932" lon="2.50442">
        <ele>286.8</ele>
        <time>2018-10-14T07:42:36Z</time>
      </trkpt>
      <trkpt lat="46.43931" lon="2.50436">
        <ele>286.9</ele>
        <time>2018-10-14T07:42:37Z</time>
      </trkpt>
      <trkpt lat="46.43931" lon="2.50429">
        <ele>287</ele>
        <time>2018-10-14T07:42:38Z</time>
      </trkpt>
      <trkpt lat="46.4393" lon="2.50422">
        <ele>287</ele>
        <time>2018-10-14T07:42:39Z</time>
      </trkpt>
      <trkpt lat="46.43929" lon="2.50415">
        <ele>287.1</ele>
        <time>2018-10-14T07:42:40Z</time>
      </trkpt>
      <trkpt lat="46.43928" lon="2.50407">
        <ele>287.3</ele>
        <time>2018-10-14T07:42:41Z</time>
      </trkpt>
      <trkpt lat="46.43928" lon="2.504">
        <ele>287.5</ele>
        <time>2018-10-14T07:42:42Z</time>
      </trkpt>
      <trkpt lat="46.43927" lon="2.50393">
        <ele>287.8</ele>
        <time>2018-10-14T07:42:43Z</time>
      </trkpt>
      <trkpt lat="46.43926" lon="2.50386">
        <ele>288.1</ele>
        <time>2018-10-14T07:42:44Z</time>
      </trkpt>
      <trkpt lat="46.43926" lon="2.50379">
        <ele>288</ele>
        <time>2018-10-14T07:42:45Z</time>
      </trkpt>
      <trkpt lat="46.43925" lon="2.50371">
        <ele>288</ele>
        <time>2018-10-14T07:42:46Z</time>
      </trkpt>
      <trkpt lat="46.43924" lon="2.50364">
        <ele>287.9</ele>
        <time>2018-10-14T07:42:47Z</time>
      </trkpt>
      <trkpt lat="46.43923" lon="2.50357">
        <ele>287.6</ele>
        <time>2018-10-14T07:42:48Z</time>
      </trkpt>
      <trkpt lat="46.43923" lon="2.5035">
        <ele>287.4</ele>
        <time>2018-10-14T07:42:49Z</time>
      </trkpt>
      <trkpt lat="46.43922" lon="2.50343">
        <ele>287.4</ele>
        <time>2018-10-14T07:42:50Z</time>
      </trkpt>
      <trkpt lat="46.43922" lon="2.50336">
        <ele>287.4</ele>
        <time>2018-10-14T07:42:51Z</time>
      </trkpt>
      <trkpt lat="46.43922" lon="2.50329">
        <ele>287.4</ele>
        <time>2018-10-14T07:42:52Z</time>
      </trkpt>
      <trkpt lat="46.43921" lon="2.50321">
        <ele>288</ele>
        <time>2018-10-14T07:42:53Z</time>
      </trkpt>
      <trkpt lat="46.4392" lon="2.50314">
        <ele>288.4</ele>
        <time>2018-10-14T07:42:54Z</time>
      </trkpt>
      <trkpt lat="46.4392" lon="2.50307">
        <ele>288.1</ele>
        <time>2018-10-14T07:42:55Z</time>
      </trkpt>
      <trkpt lat="46.43919" lon="2.50299">
        <ele>287.8</ele>
        <time>2018-10-14T07:42:56Z</time>
      </trkpt>
      <trkpt lat="46.43918" lon="2.50292">
        <ele>287.9</ele>
        <time>2018-10-14T07:42:57Z</time>
      </trkpt>
      <trkpt lat="46.43918" lon="2.50284">
        <ele>288</ele>
        <time>2018-10-14T07:42:58Z</time>
      </trkpt>
      <trkpt lat="46.43917" lon="2.50277">
        <ele>288</ele>
        <time>2018-10-14T07:42:59Z</time>
      </trkpt>
      <trkpt lat="46.43916" lon="2.5027">
        <ele>288.3</ele>
        <time>2018-10-14T07:43:00Z</time>
      </trkpt>
      <trkpt lat="46.43916" lon="2.50262">
        <ele>288.5</ele>
        <time>2018-10-14T07:43:01Z</time>
      </trkpt>
      <trkpt lat="46.43915" lon="2.50255">
        <ele>288.5</ele>
        <time>2018-10-14T07:43:02Z</time>
      </trkpt>
      <trkpt lat="46.43914" lon="2.50247">
        <ele>288.5</ele>
        <time>2018-10-14T07:43:03Z</time>
      </trkpt>
      <trkpt lat="46.43914" lon="2.5024">
        <ele>288.9</ele>
        <time>2018-10-14T07:43:04Z</time>
      </trkpt>
      <trkpt lat="46.43913" lon="2.50233">
        <ele>289.2</ele>
        <time>2018-10-14T07:43:05Z</time>
      </trkpt>
      <trkpt lat="46.43912" lon="2.50225">
        <ele>289.5</ele>
        <time>2018-10-14T07:43:06Z</time>
      </trkpt>
      <trkpt lat="46.43912" lon="2.50218">
        <ele>289.7</ele>
        <time>2018-10-14T07:43:07Z</time>
      </trkpt>
      <trkpt lat="46.43911" lon="2.50211">
        <ele>289.8</ele>
        <time>2018-10-14T07:43:08Z</time>
      </trkpt>
      <trkpt lat="46.4391" lon="2.50203">
        <ele>289.8</ele>
        <time>2018-10-14T07:43:09Z</time>
      </trkpt>
      <trkpt lat="46.4391" lon="2.50196">
        <ele>289.8</ele>
        <time>2018-10-14T07:43:10Z</time>
      </trkpt>
      <trkpt lat="46.43909" lon="2.50189">
        <ele>289.8</ele>
        <time>2018-10-14T07:43:11Z</time>
      </trkpt>
      <trkpt lat="46.43909" lon="2.50182">
        <ele>289.8</ele>
        <time>2018-10-14T07:43:12Z</time>
      </trkpt>
      <trkpt lat="46.43908" lon="2.50175">
        <ele>289.7</ele>
        <time>2018-10-14T07:43:13Z</time>
      </trkpt>
      <trkpt lat="46.43907" lon="2.50168">
        <ele>289.9</ele>
        <time>2018-10-14T07:43:14Z</time>
      </trkpt>
      <trkpt lat="46.43907" lon="2.50161">
        <ele>290.1</ele>
        <time>2018-10-14T07:43:15Z</time>
      </trkpt>
      <trkpt lat="46.43906" lon="2.50154">
        <ele>289.8</ele>
        <time>2018-10-14T07:43:16Z</time>
      </trkpt>
      <trkpt lat="46.43905" lon="2.50146">
        <ele>289.6</ele>
        <time>2018-10-14T07:43:17Z</time>
      </trkpt>
      <trkpt lat="46.43905" lon="2.50139">
        <ele>289.4</ele>
        <time>2018-10-14T07:43:18Z</time>
      </trkpt>
      <trkpt lat="46.43904" lon="2.50131">
        <ele>289.3</ele>
        <time>2018-10-14T07:43:19Z</time>
      </trkpt>
      <trkpt lat="46.43903" lon="2.50124">
        <ele>289.2</ele>
        <time>2018-10-14T07:43:20Z</time>
      </trkpt>
      <trkpt lat="46.43902" lon="2.50117">
        <ele>289.7</ele>
        <time>2018-10-14T07:43:21Z</time>
      </trkpt>
      <trkpt lat="46.43902" lon="2.5011">
        <ele>290</ele>
        <time>2018-10-14T07:43:22Z</time>
      </trkpt>
      <trkpt lat="46.43901" lon="2.50103">
        <ele>290.4</ele>
        <time>2018-10-14T07:43:23Z</time>
      </trkpt>
      <trkpt lat="46.43901" lon="2.50096">
        <ele>290.6</ele>
        <time>2018-10-14T07:43:24Z</time>
      </trkpt>
      <trkpt lat="46.439" lon="2.50089">
        <ele>290.8</ele>
        <time>2018-10-14T07:43:25Z</time>
      </trkpt>
      <trkpt lat="46.43899" lon="2.50082">
        <ele>291</ele>
        <time>2018-10-14T07:43:26Z</time>
      </trkpt>
      <trkpt lat="46.43899" lon="2.50075">
        <ele>291.1</ele>
        <time>2018-10-14T07:43:27Z</time>
      </trkpt>
      <trkpt lat="46.43898" lon="2.50068">
        <ele>290.9</ele>
        <time>2018-10-14T07:43:28Z</time>
      </trkpt>
      <trkpt lat="46.43898" lon="2.50061">
        <ele>290.8</ele>
        <time>2018-10-14T07:43:29Z</time>
      </trkpt>
      <trkpt lat="46.43897" lon="2.50054">
        <ele>290.8</ele>
        <time>2018-10-14T07:43:30Z</time>
      </trkpt>
      <trkpt lat="46.43897" lon="2.50047">
        <ele>291.3</ele>
        <time>2018-10-14T07:43:31Z</time>
      </trkpt>
      <trkpt lat="46.43896" lon="2.5004">
        <ele>291.7</ele>
        <time>2018-10-14T07:43:32Z</time>
      </trkpt>
      <trkpt lat="46.43895" lon="2.50034">
        <ele>292.1</ele>
        <time>2018-10-14T07:43:33Z</time>
      </trkpt>
      <trkpt lat="46.43892" lon="2.50027">
        <ele>292.4</ele>
        <time>2018-10-14T07:43:34Z</time>
      </trkpt>
      <trkpt lat="46.43889" lon="2.50022">
        <ele>292.1</ele>
        <time>2018-10-14T07:43:35Z</time>
      </trkpt>
      <trkpt lat="46.43885" lon="2.50019">
        <ele>291.8</ele>
        <time>2018-10-14T07:43:36Z</time>
      </trkpt>
      <trkpt lat="46.4388" lon="2.50017">
        <ele>291.6</ele>
        <time>2018-10-14T07:43:37Z</time>
      </trkpt>
      <trkpt lat="46.43875" lon="2.50016">
        <ele>291.9</ele>
        <time>2018-10-14T07:43:38Z</time>
      </trkpt>
      <trkpt lat="46.4387" lon="2.50015">
        <ele>292.1</ele>
        <time>2018-10-14T07:43:39Z</time>
      </trkpt>
      <trkpt lat="46.43866" lon="2.50015">
        <ele>292.5</ele>
        <time>2018-10-14T07:43:40Z</time>
      </trkpt>
      <trkpt lat="46.43861" lon="2.50014">
        <ele>292.9</ele>
        <time>2018-10-14T07:43:41Z</time>
      </trkpt>
      <trkpt lat="46.43856" lon="2.50014">
        <ele>293.2</ele>
        <time>2018-10-14T07:43:42Z</time>
      </trkpt>
      <trkpt lat="46.43852" lon="2.50013">
        <ele>293.4</ele>
        <time>2018-10-14T07:43:43Z</time>
      </trkpt>
      <trkpt lat="46.43847" lon="2.50013">
        <ele>293.5</ele>
        <time>2018-10-14T07:43:44Z</time>
      </trkpt>
      <trkpt lat="46.43842" lon="2.50012">
        <ele>293.6</ele>
        <time>2018-10-14T07:43:45Z</time>
      </trkpt>
      <trkpt lat="46.43837" lon="2.50011">
        <ele>293.6</ele>
        <time>2018-10-14T07:43:46Z</time>
      </trkpt>
      <trkpt lat="46.43833" lon="2.50011">
        <ele>293.7</ele>
        <time>2018-10-14T07:43:47Z</time>
      </trkpt>
      <trkpt lat="46.43828" lon="2.5001">
        <ele>293.8</ele>
        <time>2018-10-14T07:43:48Z</time>
      </trkpt>
      <trkpt lat="46.43823" lon="2.5001">
        <ele>293.9</ele>
        <time>2018-10-14T07:43:49Z</time>
      </trkpt>
      <trkpt lat="46.43818" lon="2.50009">
        <ele>294.3</ele>
        <time>2018-10-14T07:43:50Z</time>
      </trkpt>
      <trkpt lat="46.43814" lon="2.50009">
        <ele>294.6</ele>
        <time>2018-10-14T07:43:51Z</time>
      </trkpt>
      <trkpt lat="46.43809" lon="2.50008">
        <ele>294.3</ele>
        <time>2018-10-14T07:43:52Z</time>
      </trkpt>
      <trkpt lat="46.43804" lon="2.50008">
        <ele>294</ele>
        <time>2018-10-14T07:43:53Z</time>
      </trkpt>
      <trkpt lat="46.438" lon="2.50007">
        <ele>294.6</ele>
        <time>2018-10-14T07:43:54Z</time>
      </trkpt>
      <trkpt lat="46.43795" lon="2.50007">
        <ele>295.1</ele>
        <time>2018-10-14T07:43:55Z</time>
      </trkpt>
      <trkpt lat="46.4379" lon="2.50006">
        <ele>295.5</ele>
        <time>2018-10-14T07:43:56Z</time>
      </trkpt>
      <trkpt lat="46.43786" lon="2.50005">
        <ele>295.2</ele>
        <time>2018-10-14T07:43:57Z</time>
      </trkpt>
      <trkpt lat="46.43781" lon="2.50005">
        <ele>295</ele>
        <time>2018-10-14T07:43:58Z</time>
      </trkpt>
      <trkpt lat="46.43777" lon="2.50005">
        <ele>295.4</ele>
        <time>2018-10-14T07:43:59Z</time>
      </trkpt>
      <trkpt lat="46.43772" lon="2.50004">
        <ele>295.6</ele>
        <time>2018-10-14T07:44:00Z</time>
      </trkpt>
      <trkpt lat="46.43767" lon="2.50003">
        <ele>295.6</ele>
        <time>2018-10-14T07:44:01Z</time>
      </trkpt>
      <trkpt lat="46.43762" lon="2.50003">
        <ele>295.6</ele>
        <time>2018-10-14T07:44:02Z</time>
      </trkpt>
      <trkpt lat="46.43758" lon="2.50003">
        <ele>295.6</ele>
        <time>2018-10-14T07:44:03Z</time>
      </trkpt>
      <trkpt lat="46.43753" lon="2.50002">
        <ele>295.4</ele>
        <time>2018-10-14T07:44:04Z</time>
      </trkpt>
      <trkpt lat="46.43748" lon="2.50001">
        <ele>295.2</ele>
        <time>2018-10-14T07:44:05Z</time>
      </trkpt>
      <trkpt lat="46.43743" lon="2.50001">
        <ele>295.7</ele>
        <time>2018-10-14T07:44:06Z</time>
      </trkpt>
      <trkpt lat="46.43738" lon="2.5">
        <ele>296.1</ele>
        <time>2018-10-14T07:44:07Z</time>
      </trkpt>
      <trkpt lat="46.43733" lon="2.5">
        <ele>296.4</ele>
        <time>2018-10-14T07:44:08Z</time>
      </trkpt>
      <trkpt lat="46.43728" lon="2.49999">
        <ele>296.2</ele>
        <time>2018-10-14T07:44:09Z</time>
      </trkpt>
      <trkpt lat="46.43723" lon="2.49999">
        <ele>296.1</ele>
        <time>2018-10-14T07:44:10Z</time>
      </trkpt>
      <trkpt lat="46.43718" lon="2.49998">
        <ele>296.1</ele>
        <time>2018-10-14T07:44:11Z</time>
      </trkpt>
      <trkpt lat="46.43713" lon="2.49998">
        <ele>296.1</ele>
        <time>2018-10-14T07:44:12Z</time>
      </trkpt>
      <trkpt lat="46.43708" lon="2.49997">
        <ele>296.2</ele>
        <time>2018-10-14T07:44:13Z</time>
      </trkpt>
      <trkpt lat="46.43703" lon="2.49997">
        <ele>296.4</ele>
        <time>2018-10-14T07:44:14Z</time>
      </trkpt>
      <trkpt lat="46.43697" lon="2.49996">
        <ele>296.4</ele>
        <time>2018-10-14T07:44:15Z</time>
      </trkpt>
      <trkpt lat="46.43692" lon="2.49995">
        <ele>296.1</ele>
        <time>2018-10-14T07:44:16Z</time>
      </trkpt>
      <trkpt lat="46.43687" lon="2.49995">
        <ele>295.9</ele>
        <time>2018-10-14T07:44:17Z</time>
      </trkpt>
      <trkpt lat="46.43681" lon="2.49994">
        <ele>296</ele>
        <time>2018-10-14T07:44:18Z</time>
      </trkpt>
      <trkpt lat="46.43676" lon="2.49994">
        <ele>296</ele>
        <time>2018-10-14T07:44:19Z</time>
      </trkpt>
      <trkpt lat="46.43671" lon="2.49993">
        <ele>295.9</ele>
        <time>2018-10-14T07:44:20Z</time>
      </trkpt>
      <trkpt lat="46.43665" lon="2.49992">
        <ele>295.7</ele>
        <time>2018-10-14T07:44:21Z</time>
      </trkpt>
      <trkpt lat="46.4366" lon="2.49992">
        <ele>295.7</ele>
        <time>2018-10-14T07:44:22Z</time>
      </trkpt>
      <trkpt lat="46.43654" lon="2.49991">
        <ele>295.9</ele>
        <time>2018-10-14T07:44:23Z</time>
      </trkpt>
      <trkpt lat="46.43648" lon="2.4999">
        <ele>296</ele>
        <time>2018-10-14T07:44:24Z</time>
      </trkpt>
      <trkpt lat="46.43642" lon="2.4999">
        <ele>296.2</ele>
        <time>2018-10-14T07:44:25Z</time>
      </trkpt>
      <trkpt lat="46.43637" lon="2.49989">
        <ele>296.3</ele>
        <time>2018-10-14T07:44:26Z</time>
      </trkpt>
      <trkpt lat="46.43631" lon="2.49988">
        <ele>296.4</ele>
        <time>2018-10-14T07:44:27Z</time>
      </trkpt>
      <trkpt lat="46.43625" lon="2.49988">
        <ele>296.5</ele>
        <time>2018-10-14T07:44:28Z</time>
      </trkpt>
      <trkpt lat="46.4362" lon="2.49987">
        <ele>296.5</ele>
        <time>2018-10-14T07:44:29Z</time>
      </trkpt>
      <trkpt lat="46.43614" lon="2.49986">
        <ele>296.1</ele>
        <time>2018-10-14T07:44:30Z</time>
      </trkpt>
      <trkpt lat="46.43608" lon="2.49986">
        <ele>295.7</ele>
        <time>2018-10-14T07:44:31Z</time>
      </trkpt>
      <trkpt lat="46.43602" lon="2.49985">
        <ele>295.5</ele>
        <time>2018-10-14T07:44:32Z</time>
      </trkpt>
      <trkpt lat="46.43596" lon="2.49984">
        <ele>295.3</ele>
        <time>2018-10-14T07:44:33Z</time>
      </trkpt>
      <trkpt lat="46.4359" lon="2.49984">
        <ele>295.1</ele>
        <time>2018-10-14T07:44:34Z</time>
      </trkpt>
      <trkpt lat="46.43584" lon="2.49983">
        <ele>294.9</ele>
        <time>2018-10-14T07:44:35Z</time>
      </trkpt>
      <trkpt lat="46.43578" lon="2.49982">
        <ele>294.8</ele>
        <time>2018-10-14T07:44:36Z</time>
      </trkpt>
      <trkpt lat="46.43572" lon="2.49982">
        <ele>294.1</ele>
        <time>2018-10-14T07:44:37Z</time>
      </trkpt>
      <trkpt lat="46.43566" lon="2.49981">
        <ele>293.5</ele>
        <time>2018-10-14T07:44:38Z</time>
      </trkpt>
      <trkpt lat="46.4356" lon="2.49981">
        <ele>293.4</ele>
        <time>2018-10-14T07:44:39Z</time>
      </trkpt>
      <trkpt lat="46.43554" lon="2.4998">
        <ele>293.3</ele>
        <time>2018-10-14T07:44:40Z</time>
      </trkpt>
      <trkpt lat="46.43548" lon="2.49978">
        <ele>293.3</ele>
        <time>2018-10-14T07:44:41Z</time>
      </trkpt>
      <trkpt lat="46.43543" lon="2.49974">
        <ele>292.9</ele>
        <time>2018-10-14T07:44:42Z</time>
      </trkpt>
      <trkpt lat="46.4354" lon="2.49968">
        <ele>292.5</ele>
        <time>2018-10-14T07:44:43Z</time>
      </trkpt>
      <trkpt lat="46.43538" lon="2.4996">
        <ele>292.8</ele>
        <time>2018-10-14T07:44:44Z</time>
      </trkpt>
      <trkpt lat="46.43537" lon="2.49952">
        <ele>293</ele>
        <time>2018-10-14T07:44:45Z</time>
      </trkpt>
      <trkpt lat="46.43536" lon="2.49945">
        <ele>293.2</ele>
        <time>2018-10-14T07:44:46Z</time>
      </trkpt>
      <trkpt lat="46.43536" lon="2.49937">
        <ele>293.4</ele>
        <time>2018-10-14T07:44:47Z</time>
      </trkpt>
      <trkpt lat="46.43536" lon="2.4993">
        <ele>293.5</ele>
        <time>2018-10-14T07:44:48Z</time>
      </trkpt>
      <trkpt lat="46.43535" lon="2.49923">
        <ele>293.4</ele>
        <time>2018-10-14T07:44:49Z</time>
      </trkpt>
      <trkpt lat="46.43535" lon="2.49916">
        <ele>293.3</ele>
        <time>2018-10-14T07:44:50Z</time>
      </trkpt>
      <trkpt lat="46.43534" lon="2.49909">
        <ele>293.2</ele>
        <time>2018-10-14T07:44:51Z</time>
      </trkpt>
      <trkpt lat="46.43534" lon="2.49902">
        <ele>293</ele>
        <time>2018-10-14T07:44:52Z</time>
      </trkpt>
      <trkpt lat="46.43534" lon="2.49895">
        <ele>293</ele>
        <time>2018-10-14T07:44:53Z</time>
      </trkpt>
      <trkpt lat="46.43533" lon="2.49888">
        <ele>293.3</ele>
        <time>2018-10-14T07:44:54Z</time>
      </trkpt>
      <trkpt lat="46.43533" lon="2.49882">
        <ele>293.5</ele>
        <time>2018-10-14T07:44:55Z</time>
      </trkpt>
      <trkpt lat="46.43533" lon="2.49875">
        <ele>293.8</ele>
        <time>2018-10-14T07:44:56Z</time>
      </trkpt>
      <trkpt lat="46.43532" lon="2.49869">
        <ele>294</ele>
        <time>2018-10-14T07:44:57Z</time>
      </trkpt>
      <trkpt lat="46.43532" lon="2.49862">
        <ele>294.5</ele>
        <time>2018-10-14T07:44:58Z</time>
      </trkpt>
      <trkpt lat="46.43532" lon="2.49855">
        <ele>294.9</ele>
        <time>2018-10-14T07:44:59Z</time>
      </trkpt>
      <trkpt lat="46.43531" lon="2.49849">
        <ele>295.2</ele>
        <time>2018-10-14T07:45:00Z</time>
      </trkpt>
      <trkpt lat="46.43531" lon="2.49842">
        <ele>295.7</ele>
        <time>2018-10-14T07:45:01Z</time>
      </trkpt>
      <trkpt lat="46.43531" lon="2.49835">
        <ele>296</ele>
        <time>2018-10-14T07:45:02Z</time>
      </trkpt>
      <trkpt lat="46.43531" lon="2.49829">
        <ele>296.3</ele>
        <time>2018-10-14T07:45:03Z</time>
      </trkpt>
      <trkpt lat="46.4353" lon="2.49822">
        <ele>296.5</ele>
        <time>2018-10-14T07:45:04Z</time>
      </trkpt>
      <trkpt lat="46.4353" lon="2.49815">
        <ele>296.6</ele>
        <time>2018-10-14T07:45:05Z</time>
      </trkpt>
      <trkpt lat="46.4353" lon="2.49809">
        <ele>296.6</ele>
        <time>2018-10-14T07:45:06Z</time>
      </trkpt>
      <trkpt lat="46.43529" lon="2.49802">
        <ele>296.6</ele>
        <time>2018-10-14T07:45:07Z</time>
      </trkpt>
      <trkpt lat="46.43529" lon="2.49795">
        <ele>296.9</ele>
        <time>2018-10-14T07:45:08Z</time>
      </trkpt>
      <trkpt lat="46.43529" lon="2.49789">
        <ele>297</ele>
        <time>2018-10-14T07:45:09Z</time>
      </trkpt>
      <trkpt lat="46.43528" lon="2.49782">
        <ele>297.2</ele>
        <time>2018-10-14T07:45:10Z</time>
      </trkpt>
      <trkpt lat="46.43528" lon="2.49775">
        <ele>297.4</ele>
        <time>2018-10-14T07:45:11Z</time>
      </trkpt>
      <trkpt lat="46.43528" lon="2.49769">
        <ele>297.5</ele>
        <time>2018-10-14T07:45:12Z</time>
      </trkpt>
      <trkpt lat="46.43527" lon="2.49762">
        <ele>297.8</ele>
        <time>2018-10-14T07:45:13Z</time>
      </trkpt>
      <trkpt lat="46.43527" lon="2.49756">
        <ele>298</ele>
        <time>2018-10-14T07:45:14Z</time>
      </trkpt>
      <trkpt lat="46.43527" lon="2.49749">
        <ele>298</ele>
        <time>2018-10-14T07:45:15Z</time>
      </trkpt>
      <trkpt lat="46.43526" lon="2.49742">
        <ele>298</ele>
        <time>2018-10-14T07:45:16Z</time>
      </trkpt>
      <trkpt lat="46.43526" lon="2.49736">
        <ele>298.3</ele>
        <time>2018-10-14T07:45:17Z</time>
      </trkpt>
      <trkpt lat="46.43526" lon="2.49729">
        <ele>298.4</ele>
        <time>2018-10-14T07:45:18Z</time>
      </trkpt>
      <trkpt lat="46.43525" lon="2.49716">
        <ele>299</ele>
        <time>2018-10-14T07:45:20Z</time>
      </trkpt>
      <trkpt lat="46.43524" lon="2.49703">
        <ele>299.8</ele>
        <time>2018-10-14T07:45:22Z</time>
      </trkpt>
      <trkpt lat="46.43524" lon="2.49697">
        <ele>300</ele>
        <time>2018-10-14T07:45:23Z</time>
      </trkpt>
      <trkpt lat="46.43524" lon="2.4969">
        <ele>300.5</ele>
        <time>2018-10-14T07:45:24Z</time>
      </trkpt>
      <trkpt lat="46.43523" lon="2.49683">
        <ele>300.9</ele>
        <time>2018-10-14T07:45:25Z</time>
      </trkpt>
      <trkpt lat="46.43523" lon="2.49677">
        <ele>301.1</ele>
        <time>2018-10-14T07:45:26Z</time>
      </trkpt>
      <trkpt lat="46.43523" lon="2.4967">
        <ele>301.5</ele>
        <time>2018-10-14T07:45:27Z</time>
      </trkpt>
      <trkpt lat="46.43522" lon="2.49657">
        <ele>302</ele>
        <time>2018-10-14T07:45:29Z</time>
      </trkpt>
      <trkpt lat="46.43521" lon="2.49644">
        <ele>302.3</ele>
        <time>2018-10-14T07:45:31Z</time>
      </trkpt>
      <trkpt lat="46.43521" lon="2.49631">
        <ele>303</ele>
        <time>2018-10-14T07:45:33Z</time>
      </trkpt>
      <trkpt lat="46.4352" lon="2.49619">
        <ele>302.8</ele>
        <time>2018-10-14T07:45:35Z</time>
      </trkpt>
      <trkpt lat="46.43519" lon="2.49606">
        <ele>303.2</ele>
        <time>2018-10-14T07:45:37Z</time>
      </trkpt>
      <trkpt lat="46.43519" lon="2.49594">
        <ele>303.5</ele>
        <time>2018-10-14T07:45:39Z</time>
      </trkpt>
      <trkpt lat="46.43518" lon="2.49581">
        <ele>303.9</ele>
        <time>2018-10-14T07:45:41Z</time>
      </trkpt>
      <trkpt lat="46.43517" lon="2.49569">
        <ele>304.5</ele>
        <time>2018-10-14T07:45:43Z</time>
      </trkpt>
      <trkpt lat="46.43516" lon="2.49556">
        <ele>305</ele>
        <time>2018-10-14T07:45:45Z</time>
      </trkpt>
      <trkpt lat="46.43516" lon="2.49544">
        <ele>304.7</ele>
        <time>2018-10-14T07:45:47Z</time>
      </trkpt>
      <trkpt lat="46.43515" lon="2.49533">
        <ele>304.9</ele>
        <time>2018-10-14T07:45:49Z</time>
      </trkpt>
      <trkpt lat="46.43515" lon="2.49521">
        <ele>304.9</ele>
        <time>2018-10-14T07:45:51Z</time>
      </trkpt>
      <trkpt lat="46.43514" lon="2.4951">
        <ele>305</ele>
        <time>2018-10-14T07:45:53Z</time>
      </trkpt>
      <trkpt lat="46.43514" lon="2.49498">
        <ele>305.6</ele>
        <time>2018-10-14T07:45:55Z</time>
      </trkpt>
      <trkpt lat="46.43513" lon="2.49487">
        <ele>306.1</ele>
        <time>2018-10-14T07:45:57Z</time>
      </trkpt>
      <trkpt lat="46.43513" lon="2.49475">
        <ele>305.8</ele>
        <time>2018-10-14T07:45:59Z</time>
      </trkpt>
      <trkpt lat="46.43512" lon="2.49464">
        <ele>306.2</ele>
        <time>2018-10-14T07:46:01Z</time>
      </trkpt>
      <trkpt lat="46.43512" lon="2.49452">
        <ele>306.1</ele>
        <time>2018-10-14T07:46:03Z</time>
      </trkpt>
      <trkpt lat="46.43511" lon="2.49441">
        <ele>306.1</ele>
        <time>2018-10-14T07:46:05Z</time>
      </trkpt>
      <trkpt lat="46.4351" lon="2.4943">
        <ele>306.4</ele>
        <time>2018-10-14T07:46:07Z</time>
      </trkpt>
      <trkpt lat="46.4351" lon="2.49418">
        <ele>306.8</ele>
        <time>2018-10-14T07:46:09Z</time>
      </trkpt>
      <trkpt lat="46.43509" lon="2.49406">
        <ele>306.8</ele>
        <time>2018-10-14T07:46:11Z</time>
      </trkpt>
      <trkpt lat="46.43509" lon="2.49394">
        <ele>306.2</ele>
        <time>2018-10-14T07:46:13Z</time>
      </trkpt>
      <trkpt lat="46.43509" lon="2.49383">
        <ele>305.8</ele>
        <time>2018-10-14T07:46:15Z</time>
      </trkpt>
      <trkpt lat="46.4351" lon="2.49373">
        <ele>305.5</ele>
        <time>2018-10-14T07:46:17Z</time>
      </trkpt>
      <trkpt lat="46.43513" lon="2.49363">
        <ele>305.8</ele>
        <time>2018-10-14T07:46:19Z</time>
      </trkpt>
      <trkpt lat="46.43518" lon="2.49355">
        <ele>306</ele>
        <time>2018-10-14T07:46:21Z</time>
      </trkpt>
      <trkpt lat="46.43525" lon="2.4935">
        <ele>305.9</ele>
        <time>2018-10-14T07:46:23Z</time>
      </trkpt>
      <trkpt lat="46.43534" lon="2.49348">
        <ele>306.1</ele>
        <time>2018-10-14T07:46:25Z</time>
      </trkpt>
      <trkpt lat="46.43539" lon="2.49347">
        <ele>306</ele>
        <time>2018-10-14T07:46:26Z</time>
      </trkpt>
      <trkpt lat="46.43543" lon="2.49346">
        <ele>306</ele>
        <time>2018-10-14T07:46:27Z</time>
      </trkpt>
      <trkpt lat="46.43548" lon="2.49346">
        <ele>305.9</ele>
        <time>2018-10-14T07:46:28Z</time>
      </trkpt>
      <trkpt lat="46.43553" lon="2.49345">
        <ele>305.8</ele>
        <time>2018-10-14T07:46:29Z</time>
      </trkpt>
      <trkpt lat="46.43558" lon="2.49345">
        <ele>305.7</ele>
        <time>2018-10-14T07:46:30Z</time>
      </trkpt>
      <trkpt lat="46.43563" lon="2.49344">
        <ele>305.4</ele>
        <time>2018-10-14T07:46:31Z</time>
      </trkpt>
      <trkpt lat="46.43569" lon="2.49343">
        <ele>305.2</ele>
        <time>2018-10-14T07:46:32Z</time>
      </trkpt>
      <trkpt lat="46.43574" lon="2.49342">
        <ele>305</ele>
        <time>2018-10-14T07:46:33Z</time>
      </trkpt>
      <trkpt lat="46.4358" lon="2.49342">
        <ele>304.8</ele>
        <time>2018-10-14T07:46:34Z</time>
      </trkpt>
      <trkpt lat="46.43586" lon="2.49341">
        <ele>304.7</ele>
        <time>2018-10-14T07:46:35Z</time>
      </trkpt>
      <trkpt lat="46.43592" lon="2.4934">
        <ele>305</ele>
        <time>2018-10-14T07:46:36Z</time>
      </trkpt>
      <trkpt lat="46.43597" lon="2.49339">
        <ele>305.3</ele>
        <time>2018-10-14T07:46:37Z</time>
      </trkpt>
      <trkpt lat="46.43603" lon="2.49338">
        <ele>305.2</ele>
        <time>2018-10-14T07:46:38Z</time>
      </trkpt>
      <trkpt lat="46.43608" lon="2.49337">
        <ele>305.2</ele>
        <time>2018-10-14T07:46:39Z</time>
      </trkpt>
      <trkpt lat="46.43614" lon="2.49336">
        <ele>305.1</ele>
        <time>2018-10-14T07:46:40Z</time>
      </trkpt>
      <trkpt lat="46.43619" lon="2.49335">
        <ele>305.1</ele>
        <time>2018-10-14T07:46:41Z</time>
      </trkpt>
      <trkpt lat="46.43625" lon="2.49334">
        <ele>305</ele>
        <time>2018-10-14T07:46:42Z</time>
      </trkpt>
      <trkpt lat="46.4363" lon="2.49334">
        <ele>305.1</ele>
        <time>2018-10-14T07:46:43Z</time>
      </trkpt>
      <trkpt lat="46.43636" lon="2.49333">
        <ele>305.2</ele>
        <time>2018-10-14T07:46:44Z</time>
      </trkpt>
      <trkpt lat="46.43641" lon="2.49333">
        <ele>304.9</ele>
        <time>2018-10-14T07:46:45Z</time>
      </trkpt>
      <trkpt lat="46.43647" lon="2.49332">
        <ele>304.7</ele>
        <time>2018-10-14T07:46:46Z</time>
      </trkpt>
      <trkpt lat="46.43653" lon="2.49331">
        <ele>304.5</ele>
        <time>2018-10-14T07:46:47Z</time>
      </trkpt>
      <trkpt lat="46.4366" lon="2.4933">
        <ele>304.5</ele>
        <time>2018-10-14T07:46:48Z</time>
      </trkpt>
      <trkpt lat="46.43666" lon="2.49329">
        <ele>304.5</ele>
        <time>2018-10-14T07:46:49Z</time>
      </trkpt>
      <trkpt lat="46.43672" lon="2.49328">
        <ele>304.3</ele>
        <time>2018-10-14T07:46:50Z</time>
      </trkpt>
      <trkpt lat="46.43679" lon="2.49327">
        <ele>304.2</ele>
        <time>2018-10-14T07:46:51Z</time>
      </trkpt>
      <trkpt lat="46.43685" lon="2.49326">
        <ele>304</ele>
        <time>2018-10-14T07:46:52Z</time>
      </trkpt>
      <trkpt lat="46.43692" lon="2.49325">
        <ele>303.9</ele>
        <time>2018-10-14T07:46:53Z</time>
      </trkpt>
      <trkpt lat="46.43698" lon="2.49324">
        <ele>303.8</ele>
        <time>2018-10-14T07:46:54Z</time>
      </trkpt>
      <trkpt lat="46.43704" lon="2.49324">
        <ele>303.7</ele>
        <time>2018-10-14T07:46:55Z</time>
      </trkpt>
      <trkpt lat="46.43711" lon="2.49323">
        <ele>303.6</ele>
        <time>2018-10-14T07:46:56Z</time>
      </trkpt>
      <trkpt lat="46.43717" lon="2.49322">
        <ele>303.6</ele>
        <time>2018-10-14T07:46:57Z</time>
      </trkpt>
      <trkpt lat="46.43723" lon="2.49321">
        <ele>303.6</ele>
        <time>2018-10-14T07:46:58Z</time>
      </trkpt>
      <trkpt lat="46.43729" lon="2.4932">
        <ele>303.6</ele>
        <time>2018-10-14T07:46:59Z</time>
      </trkpt>
      <trkpt lat="46.43735" lon="2.4932">
        <ele>303.6</ele>
        <time>2018-10-14T07:47:00Z</time>
      </trkpt>
      <trkpt lat="46.43741" lon="2.49319">
        <ele>303.6</ele>
        <time>2018-10-14T07:47:01Z</time>
      </trkpt>
      <trkpt lat="46.43747" lon="2.49318">
        <ele>303.2</ele>
        <time>2018-10-14T07:47:02Z</time>
      </trkpt>
      <trkpt lat="46.43753" lon="2.49317">
        <ele>303</ele>
        <time>2018-10-14T07:47:03Z</time>
      </trkpt>
      <trkpt lat="46.43759" lon="2.49317">
        <ele>302.6</ele>
        <time>2018-10-14T07:47:04Z</time>
      </trkpt>
      <trkpt lat="46.43765" lon="2.49316">
        <ele>302.3</ele>
        <time>2018-10-14T07:47:05Z</time>
      </trkpt>
      <trkpt lat="46.43771" lon="2.49315">
        <ele>302.5</ele>
        <time>2018-10-14T07:47:06Z</time>
      </trkpt>
      <trkpt lat="46.43778" lon="2.49314">
        <ele>302.6</ele>
        <time>2018-10-14T07:47:07Z</time>
      </trkpt>
      <trkpt lat="46.43784" lon="2.49313">
        <ele>302.6</ele>
        <time>2018-10-14T07:47:08Z</time>
      </trkpt>
      <trkpt lat="46.4379" lon="2.49312">
        <ele>302.4</ele>
        <time>2018-10-14T07:47:09Z</time>
      </trkpt>
      <trkpt lat="46.43796" lon="2.49311">
        <ele>302.2</ele>
        <time>2018-10-14T07:47:10Z</time>
      </trkpt>
      <trkpt lat="46.43802" lon="2.4931">
        <ele>302</ele>
        <time>2018-10-14T07:47:11Z</time>
      </trkpt>
      <trkpt lat="46.43809" lon="2.49309">
        <ele>301.9</ele>
        <time>2018-10-14T07:47:12Z</time>
      </trkpt>
      <trkpt lat="46.43815" lon="2.49308">
        <ele>301.8</ele>
        <time>2018-10-14T07:47:13Z</time>
      </trkpt>
      <trkpt lat="46.43822" lon="2.49307">
        <ele>301.6</ele>
        <time>2018-10-14T07:47:14Z</time>
      </trkpt>
      <trkpt lat="46.43829" lon="2.49306">
        <ele>301.4</ele>
        <time>2018-10-14T07:47:15Z</time>
      </trkpt>
      <trkpt lat="46.43836" lon="2.49305">
        <ele>300.7</ele>
        <time>2018-10-14T07:47:16Z</time>
      </trkpt>
      <trkpt lat="46.43843" lon="2.49304">
        <ele>300.2</ele>
        <time>2018-10-14T07:47:17Z</time>
      </trkpt>
      <trkpt lat="46.4385" lon="2.49303">
        <ele>299.8</ele>
        <time>2018-10-14T07:47:18Z</time>
      </trkpt>
      <trkpt lat="46.43857" lon="2.49303">
        <ele>299.5</ele>
        <time>2018-10-14T07:47:19Z</time>
      </trkpt>
      <trkpt lat="46.43863" lon="2.49302">
        <ele>299.2</ele>
        <time>2018-10-14T07:47:20Z</time>
      </trkpt>
      <trkpt lat="46.4387" lon="2.49301">
        <ele>299.2</ele>
        <time>2018-10-14T07:47:21Z</time>
      </trkpt>
      <trkpt lat="46.43876" lon="2.49301">
        <ele>299.3</ele>
        <time>2018-10-14T07:47:22Z</time>
      </trkpt>
      <trkpt lat="46.43883" lon="2.493">
        <ele>299.5</ele>
        <time>2018-10-14T07:47:23Z</time>
      </trkpt>
      <trkpt lat="46.43889" lon="2.49299">
        <ele>299.7</ele>
        <time>2018-10-14T07:47:24Z</time>
      </trkpt>
      <trkpt lat="46.43895" lon="2.49299">
        <ele>299.5</ele>
        <time>2018-10-14T07:47:25Z</time>
      </trkpt>
      <trkpt lat="46.43901" lon="2.49299">
        <ele>299.3</ele>
        <time>2018-10-14T07:47:26Z</time>
      </trkpt>
      <trkpt lat="46.43907" lon="2.49299">
        <ele>299.2</ele>
        <time>2018-10-14T07:47:27Z</time>
      </trkpt>
      <trkpt lat="46.43913" lon="2.49299">
        <ele>299.1</ele>
        <time>2018-10-14T07:47:28Z</time>
      </trkpt>
      <trkpt lat="46.43918" lon="2.49299">
        <ele>299</ele>
        <time>2018-10-14T07:47:29Z</time>
      </trkpt>
      <trkpt lat="46.43923" lon="2.49299">
        <ele>298.6</ele>
        <time>2018-10-14T07:47:30Z</time>
      </trkpt>
      <trkpt lat="46.43929" lon="2.49299">
        <ele>298.3</ele>
        <time>2018-10-14T07:47:31Z</time>
      </trkpt>
      <trkpt lat="46.43934" lon="2.493">
        <ele>298</ele>
        <time>2018-10-14T07:47:32Z</time>
      </trkpt>
      <trkpt lat="46.43939" lon="2.493">
        <ele>298.5</ele>
        <time>2018-10-14T07:47:33Z</time>
      </trkpt>
      <trkpt lat="46.43944" lon="2.49301">
        <ele>298.8</ele>
        <time>2018-10-14T07:47:34Z</time>
      </trkpt>
      <trkpt lat="46.4395" lon="2.49301">
        <ele>299.2</ele>
        <time>2018-10-14T07:47:35Z</time>
      </trkpt>
      <trkpt lat="46.43955" lon="2.49302">
        <ele>299.5</ele>
        <time>2018-10-14T07:47:36Z</time>
      </trkpt>
      <trkpt lat="46.4396" lon="2.49302">
        <ele>299.5</ele>
        <time>2018-10-14T07:47:37Z</time>
      </trkpt>
      <trkpt lat="46.43965" lon="2.49303">
        <ele>299.4</ele>
        <time>2018-10-14T07:47:38Z</time>
      </trkpt>
      <trkpt lat="46.4397" lon="2.49303">
        <ele>299.4</ele>
        <time>2018-10-14T07:47:39Z</time>
      </trkpt>
      <trkpt lat="46.43975" lon="2.49303">
        <ele>299.8</ele>
        <time>2018-10-14T07:47:40Z</time>
      </trkpt>
      <trkpt lat="46.4398" lon="2.49303">
        <ele>300.1</ele>
        <time>2018-10-14T07:47:41Z</time>
      </trkpt>
      <trkpt lat="46.43985" lon="2.49304">
        <ele>300.4</ele>
        <time>2018-10-14T07:47:42Z</time>
      </trkpt>
      <trkpt lat="46.43991" lon="2.49305">
        <ele>300.6</ele>
        <time>2018-10-14T07:47:43Z</time>
      </trkpt>
      <trkpt lat="46.43996" lon="2.49305">
        <ele>300.9</ele>
        <time>2018-10-14T07:47:44Z</time>
      </trkpt>
      <trkpt lat="46.44001" lon="2.49306">
        <ele>301.2</ele>
        <time>2018-10-14T07:47:45Z</time>
      </trkpt>
      <trkpt lat="46.44006" lon="2.49306">
        <ele>301.4</ele>
        <time>2018-10-14T07:47:46Z</time>
      </trkpt>
      <trkpt lat="46.44011" lon="2.49307">
        <ele>301.5</ele>
        <time>2018-10-14T07:47:47Z</time>
      </trkpt>
      <trkpt lat="46.44016" lon="2.49307">
        <ele>301.5</ele>
        <time>2018-10-14T07:47:48Z</time>
      </trkpt>
      <trkpt lat="46.44021" lon="2.49308">
        <ele>301.4</ele>
        <time>2018-10-14T07:47:49Z</time>
      </trkpt>
      <trkpt lat="46.44026" lon="2.49309">
        <ele>301.3</ele>
        <time>2018-10-14T07:47:50Z</time>
      </trkpt>
      <trkpt lat="46.44031" lon="2.49309">
        <ele>301.2</ele>
        <time>2018-10-14T07:47:51Z</time>
      </trkpt>
      <trkpt lat="46.44036" lon="2.49309">
        <ele>301.5</ele>
        <time>2018-10-14T07:47:52Z</time>
      </trkpt>
      <trkpt lat="46.44041" lon="2.49309">
        <ele>301.8</ele>
        <time>2018-10-14T07:47:53Z</time>
      </trkpt>
      <trkpt lat="46.44046" lon="2.4931">
        <ele>301.9</ele>
        <time>2018-10-14T07:47:54Z</time>
      </trkpt>
      <trkpt lat="46.44051" lon="2.49311">
        <ele>302</ele>
        <time>2018-10-14T07:47:55Z</time>
      </trkpt>
      <trkpt lat="46.44056" lon="2.49313">
        <ele>301.8</ele>
        <time>2018-10-14T07:47:56Z</time>
      </trkpt>
      <trkpt lat="46.44062" lon="2.49315">
        <ele>301.7</ele>
        <time>2018-10-14T07:47:57Z</time>
      </trkpt>
      <trkpt lat="46.44068" lon="2.49316">
        <ele>301.5</ele>
        <time>2018-10-14T07:47:58Z</time>
      </trkpt>
      <trkpt lat="46.44074" lon="2.49318">
        <ele>301.2</ele>
        <time>2018-10-14T07:47:59Z</time>
      </trkpt>
      <trkpt lat="46.4408" lon="2.49319">
        <ele>301</ele>
        <time>2018-10-14T07:48:00Z</time>
      </trkpt>
      <trkpt lat="46.44086" lon="2.4932">
        <ele>301</ele>
        <time>2018-10-14T07:48:01Z</time>
      </trkpt>
      <trkpt lat="46.44092" lon="2.49321">
        <ele>301</ele>
        <time>2018-10-14T07:48:02Z</time>
      </trkpt>
      <trkpt lat="46.44099" lon="2.49322">
        <ele>300.7</ele>
        <time>2018-10-14T07:48:03Z</time>
      </trkpt>
      <trkpt lat="46.44105" lon="2.49322">
        <ele>300.4</ele>
        <time>2018-10-14T07:48:04Z</time>
      </trkpt>
      <trkpt lat="46.44112" lon="2.49323">
        <ele>300.3</ele>
        <time>2018-10-14T07:48:05Z</time>
      </trkpt>
      <trkpt lat="46.44118" lon="2.49324">
        <ele>300.1</ele>
        <time>2018-10-14T07:48:06Z</time>
      </trkpt>
      <trkpt lat="46.44125" lon="2.49324">
        <ele>300</ele>
        <time>2018-10-14T07:48:07Z</time>
      </trkpt>
      <trkpt lat="46.44132" lon="2.49326">
        <ele>299.5</ele>
        <time>2018-10-14T07:48:08Z</time>
      </trkpt>
      <trkpt lat="46.44139" lon="2.49327">
        <ele>299.1</ele>
        <time>2018-10-14T07:48:09Z</time>
      </trkpt>
      <trkpt lat="46.44146" lon="2.49329">
        <ele>298.8</ele>
        <time>2018-10-14T07:48:10Z</time>
      </trkpt>
      <trkpt lat="46.44152" lon="2.4933">
        <ele>298.3</ele>
        <time>2018-10-14T07:48:11Z</time>
      </trkpt>
      <trkpt lat="46.44159" lon="2.49331">
        <ele>297.9</ele>
        <time>2018-10-14T07:48:12Z</time>
      </trkpt>
      <trkpt lat="46.44164" lon="2.49332">
        <ele>298</ele>
        <time>2018-10-14T07:48:13Z</time>
      </trkpt>
      <trkpt lat="46.44169" lon="2.49333">
        <ele>298.1</ele>
        <time>2018-10-14T07:48:14Z</time>
      </trkpt>
      <trkpt lat="46.44173" lon="2.49333">
        <ele>298.2</ele>
        <time>2018-10-14T07:48:15Z</time>
      </trkpt>
      <trkpt lat="46.44178" lon="2.49332">
        <ele>298.4</ele>
        <time>2018-10-14T07:48:16Z</time>
      </trkpt>
      <trkpt lat="46.44182" lon="2.49331">
        <ele>298.5</ele>
        <time>2018-10-14T07:48:17Z</time>
      </trkpt>
      <trkpt lat="46.44191" lon="2.49329">
        <ele>298</ele>
        <time>2018-10-14T07:48:19Z</time>
      </trkpt>
      <trkpt lat="46.44199" lon="2.49327">
        <ele>298.3</ele>
        <time>2018-10-14T07:48:21Z</time>
      </trkpt>
      <trkpt lat="46.44207" lon="2.49326">
        <ele>298.7</ele>
        <time>2018-10-14T07:48:23Z</time>
      </trkpt>
      <trkpt lat="46.44213" lon="2.49325">
        <ele>299.4</ele>
        <time>2018-10-14T07:48:25Z</time>
      </trkpt>
      <trkpt lat="46.4422" lon="2.49324">
        <ele>300</ele>
        <time>2018-10-14T07:48:27Z</time>
      </trkpt>
      <trkpt lat="46.44227" lon="2.49323">
        <ele>300.2</ele>
        <time>2018-10-14T07:48:29Z</time>
      </trkpt>
      <trkpt lat="46.4423" lon="2.49322">
        <ele>300.6</ele>
        <time>2018-10-14T07:48:30Z</time>
      </trkpt>
      <trkpt lat="46.44242" lon="2.49321">
        <ele>302.4</ele>
        <time>2018-10-14T07:48:33Z</time>
      </trkpt>
      <trkpt lat="46.44249" lon="2.4932">
        <ele>302.4</ele>
        <time>2018-10-14T07:48:35Z</time>
      </trkpt>
      <trkpt lat="46.44256" lon="2.49321">
        <ele>303</ele>
        <time>2018-10-14T07:48:37Z</time>
      </trkpt>
      <trkpt lat="46.44264" lon="2.4932">
        <ele>303.7</ele>
        <time>2018-10-14T07:48:39Z</time>
      </trkpt>
      <trkpt lat="46.44272" lon="2.4932">
        <ele>304.1</ele>
        <time>2018-10-14T07:48:41Z</time>
      </trkpt>
      <trkpt lat="46.44279" lon="2.49319">
        <ele>304.2</ele>
        <time>2018-10-14T07:48:43Z</time>
      </trkpt>
      <trkpt lat="46.44287" lon="2.49318">
        <ele>304.8</ele>
        <time>2018-10-14T07:48:45Z</time>
      </trkpt>
      <trkpt lat="46.44294" lon="2.49315">
        <ele>304.8</ele>
        <time>2018-10-14T07:48:47Z</time>
      </trkpt>
      <trkpt lat="46.44301" lon="2.49313">
        <ele>305.1</ele>
        <time>2018-10-14T07:48:49Z</time>
      </trkpt>
      <trkpt lat="46.44308" lon="2.49311">
        <ele>306.1</ele>
        <time>2018-10-14T07:48:51Z</time>
      </trkpt>
      <trkpt lat="46.44315" lon="2.49308">
        <ele>306.7</ele>
        <time>2018-10-14T07:48:53Z</time>
      </trkpt>
      <trkpt lat="46.44321" lon="2.49307">
        <ele>307</ele>
        <time>2018-10-14T07:48:55Z</time>
      </trkpt>
      <trkpt lat="46.44328" lon="2.49307">
        <ele>306.4</ele>
        <time>2018-10-14T07:48:57Z</time>
      </trkpt>
      <trkpt lat="46.44335" lon="2.49308">
        <ele>307.5</ele>
        <time>2018-10-14T07:48:59Z</time>
      </trkpt>
      <trkpt lat="46.44343" lon="2.49309">
        <ele>308.7</ele>
        <time>2018-10-14T07:49:01Z</time>
      </trkpt>
      <trkpt lat="46.4435" lon="2.4931">
        <ele>309.1</ele>
        <time>2018-10-14T07:49:03Z</time>
      </trkpt>
      <trkpt lat="46.44358" lon="2.49311">
        <ele>309.4</ele>
        <time>2018-10-14T07:49:05Z</time>
      </trkpt>
      <trkpt lat="46.44365" lon="2.49313">
        <ele>310.1</ele>
        <time>2018-10-14T07:49:07Z</time>
      </trkpt>
      <trkpt lat="46.44374" lon="2.49316">
        <ele>310.6</ele>
        <time>2018-10-14T07:49:09Z</time>
      </trkpt>
      <trkpt lat="46.44382" lon="2.49318">
        <ele>310.5</ele>
        <time>2018-10-14T07:49:11Z</time>
      </trkpt>
      <trkpt lat="46.44389" lon="2.49319">
        <ele>310.4</ele>
        <time>2018-10-14T07:49:13Z</time>
      </trkpt>
      <trkpt lat="46.44395" lon="2.49321">
        <ele>310.1</ele>
        <time>2018-10-14T07:49:15Z</time>
      </trkpt>
      <trkpt lat="46.44402" lon="2.49323">
        <ele>310.1</ele>
        <time>2018-10-14T07:49:17Z</time>
      </trkpt>
      <trkpt lat="46.44408" lon="2.49325">
        <ele>310.1</ele>
        <time>2018-10-14T07:49:19Z</time>
      </trkpt>
      <trkpt lat="46.44415" lon="2.49327">
        <ele>310.1</ele>
        <time>2018-10-14T07:49:21Z</time>
      </trkpt>
      <trkpt lat="46.44422" lon="2.49328">
        <ele>309.8</ele>
        <time>2018-10-14T07:49:23Z</time>
      </trkpt>
      <trkpt lat="46.44429" lon="2.4933">
        <ele>310</ele>
        <time>2018-10-14T07:49:25Z</time>
      </trkpt>
      <trkpt lat="46.44437" lon="2.49331">
        <ele>310.3</ele>
        <time>2018-10-14T07:49:27Z</time>
      </trkpt>
      <trkpt lat="46.44445" lon="2.49333">
        <ele>310.4</ele>
        <time>2018-10-14T07:49:29Z</time>
      </trkpt>
      <trkpt lat="46.44449" lon="2.49334">
        <ele>310.3</ele>
        <time>2018-10-14T07:49:30Z</time>
      </trkpt>
      <trkpt lat="46.44453" lon="2.49336">
        <ele>310</ele>
        <time>2018-10-14T07:49:31Z</time>
      </trkpt>
      <trkpt lat="46.44458" lon="2.49338">
        <ele>309.9</ele>
        <time>2018-10-14T07:49:32Z</time>
      </trkpt>
      <trkpt lat="46.44462" lon="2.4934">
        <ele>309.7</ele>
        <time>2018-10-14T07:49:33Z</time>
      </trkpt>
      <trkpt lat="46.44467" lon="2.49343">
        <ele>309.3</ele>
        <time>2018-10-14T07:49:34Z</time>
      </trkpt>
      <trkpt lat="46.44472" lon="2.49344">
        <ele>308.9</ele>
        <time>2018-10-14T07:49:35Z</time>
      </trkpt>
      <trkpt lat="46.44477" lon="2.49345">
        <ele>308.8</ele>
        <time>2018-10-14T07:49:36Z</time>
      </trkpt>
      <trkpt lat="46.44481" lon="2.49346">
        <ele>308.8</ele>
        <time>2018-10-14T07:49:37Z</time>
      </trkpt>
      <trkpt lat="46.44486" lon="2.49348">
        <ele>308.4</ele>
        <time>2018-10-14T07:49:38Z</time>
      </trkpt>
      <trkpt lat="46.44491" lon="2.49349">
        <ele>308</ele>
        <time>2018-10-14T07:49:39Z</time>
      </trkpt>
      <trkpt lat="46.44495" lon="2.4935">
        <ele>307.8</ele>
        <time>2018-10-14T07:49:40Z</time>
      </trkpt>
      <trkpt lat="46.445" lon="2.49352">
        <ele>307.6</ele>
        <time>2018-10-14T07:49:41Z</time>
      </trkpt>
      <trkpt lat="46.44505" lon="2.49354">
        <ele>307.5</ele>
        <time>2018-10-14T07:49:42Z</time>
      </trkpt>
      <trkpt lat="46.4451" lon="2.49356">
        <ele>307.7</ele>
        <time>2018-10-14T07:49:43Z</time>
      </trkpt>
      <trkpt lat="46.44515" lon="2.49359">
        <ele>307.9</ele>
        <time>2018-10-14T07:49:44Z</time>
      </trkpt>
      <trkpt lat="46.4452" lon="2.4936">
        <ele>307.4</ele>
        <time>2018-10-14T07:49:45Z</time>
      </trkpt>
      <trkpt lat="46.44528" lon="2.49356">
        <ele>306.7</ele>
        <time>2018-10-14T07:49:47Z</time>
      </trkpt>
      <trkpt lat="46.4453" lon="2.49344">
        <ele>306.9</ele>
        <time>2018-10-14T07:49:50Z</time>
      </trkpt>
      <trkpt lat="46.44527" lon="2.49334">
        <ele>306.8</ele>
        <time>2018-10-14T07:49:52Z</time>
      </trkpt>
      <trkpt lat="46.44524" lon="2.49324">
        <ele>306.5</ele>
        <time>2018-10-14T07:49:54Z</time>
      </trkpt>
      <trkpt lat="46.44522" lon="2.49314">
        <ele>306.2</ele>
        <time>2018-10-14T07:49:56Z</time>
      </trkpt>
      <trkpt lat="46.4452" lon="2.49303">
        <ele>306.7</ele>
        <time>2018-10-14T07:49:58Z</time>
      </trkpt>
      <trkpt lat="46.44519" lon="2.49291">
        <ele>307.3</ele>
        <time>2018-10-14T07:50:00Z</time>
      </trkpt>
      <trkpt lat="46.44517" lon="2.4928">
        <ele>307.5</ele>
        <time>2018-10-14T07:50:02Z</time>
      </trkpt>
      <trkpt lat="46.44517" lon="2.4927">
        <ele>307.5</ele>
        <time>2018-10-14T07:50:04Z</time>
      </trkpt>
      <trkpt lat="46.44517" lon="2.4926">
        <ele>307.7</ele>
        <time>2018-10-14T07:50:06Z</time>
      </trkpt>
      <trkpt lat="46.44516" lon="2.4925">
        <ele>308.2</ele>
        <time>2018-10-14T07:50:08Z</time>
      </trkpt>
      <trkpt lat="46.44516" lon="2.49238">
        <ele>308.6</ele>
        <time>2018-10-14T07:50:10Z</time>
      </trkpt>
      <trkpt lat="46.44515" lon="2.49228">
        <ele>308.6</ele>
        <time>2018-10-14T07:50:12Z</time>
      </trkpt>
      <trkpt lat="46.44515" lon="2.49216">
        <ele>308.5</ele>
        <time>2018-10-14T07:50:14Z</time>
      </trkpt>
      <trkpt lat="46.44514" lon="2.49209">
        <ele>308.6</ele>
        <time>2018-10-14T07:50:15Z</time>
      </trkpt>
      <trkpt lat="46.44512" lon="2.49197">
        <ele>309.6</ele>
        <time>2018-10-14T07:50:17Z</time>
      </trkpt>
      <trkpt lat="46.44512" lon="2.49186">
        <ele>309.6</ele>
        <time>2018-10-14T07:50:19Z</time>
      </trkpt>
      <trkpt lat="46.44511" lon="2.49173">
        <ele>309.6</ele>
        <time>2018-10-14T07:50:21Z</time>
      </trkpt>
      <trkpt lat="46.4451" lon="2.49161">
        <ele>309.7</ele>
        <time>2018-10-14T07:50:23Z</time>
      </trkpt>
      <trkpt lat="46.44509" lon="2.4915">
        <ele>309.7</ele>
        <time>2018-10-14T07:50:25Z</time>
      </trkpt>
      <trkpt lat="46.44507" lon="2.49138">
        <ele>309.7</ele>
        <time>2018-10-14T07:50:27Z</time>
      </trkpt>
      <trkpt lat="46.44505" lon="2.49127">
        <ele>309.7</ele>
        <time>2018-10-14T07:50:29Z</time>
      </trkpt>
      <trkpt lat="46.44502" lon="2.49117">
        <ele>309.8</ele>
        <time>2018-10-14T07:50:31Z</time>
      </trkpt>
      <trkpt lat="46.44501" lon="2.49112">
        <ele>309.9</ele>
        <time>2018-10-14T07:50:32Z</time>
      </trkpt>
      <trkpt lat="46.44496" lon="2.49096">
        <ele>310.2</ele>
        <time>2018-10-14T07:50:35Z</time>
      </trkpt>
      <trkpt lat="46.44492" lon="2.49085">
        <ele>309.9</ele>
        <time>2018-10-14T07:50:37Z</time>
      </trkpt>
      <trkpt lat="46.4449" lon="2.49075">
        <ele>310.4</ele>
        <time>2018-10-14T07:50:39Z</time>
      </trkpt>
      <trkpt lat="46.44487" lon="2.49065">
        <ele>311.4</ele>
        <time>2018-10-14T07:50:41Z</time>
      </trkpt>
      <trkpt lat="46.44483" lon="2.49054">
        <ele>311.7</ele>
        <time>2018-10-14T07:50:43Z</time>
      </trkpt>
      <trkpt lat="46.4448" lon="2.49043">
        <ele>312.1</ele>
        <time>2018-10-14T07:50:45Z</time>
      </trkpt>
      <trkpt lat="46.44477" lon="2.49032">
        <ele>312.6</ele>
        <time>2018-10-14T07:50:47Z</time>
      </trkpt>
      <trkpt lat="46.44474" lon="2.49022">
        <ele>312.9</ele>
        <time>2018-10-14T07:50:49Z</time>
      </trkpt>
      <trkpt lat="46.4447" lon="2.49011">
        <ele>313</ele>
        <time>2018-10-14T07:50:51Z</time>
      </trkpt>
      <trkpt lat="46.44467" lon="2.49">
        <ele>313.1</ele>
        <time>2018-10-14T07:50:53Z</time>
      </trkpt>
      <trkpt lat="46.44464" lon="2.48989">
        <ele>313.7</ele>
        <time>2018-10-14T07:50:55Z</time>
      </trkpt>
      <trkpt lat="46.4446" lon="2.48978">
        <ele>313.9</ele>
        <time>2018-10-14T07:50:57Z</time>
      </trkpt>
      <trkpt lat="46.44456" lon="2.48967">
        <ele>313.6</ele>
        <time>2018-10-14T07:50:59Z</time>
      </trkpt>
      <trkpt lat="46.44453" lon="2.48956">
        <ele>313.6</ele>
        <time>2018-10-14T07:51:01Z</time>
      </trkpt>
      <trkpt lat="46.44449" lon="2.48945">
        <ele>314</ele>
        <time>2018-10-14T07:51:03Z</time>
      </trkpt>
      <trkpt lat="46.44445" lon="2.48933">
        <ele>313.7</ele>
        <time>2018-10-14T07:51:05Z</time>
      </trkpt>
      <trkpt lat="46.44441" lon="2.48922">
        <ele>314.8</ele>
        <time>2018-10-14T07:51:07Z</time>
      </trkpt>
      <trkpt lat="46.44437" lon="2.4891">
        <ele>315.1</ele>
        <time>2018-10-14T07:51:09Z</time>
      </trkpt>
      <trkpt lat="46.44434" lon="2.48899">
        <ele>315.2</ele>
        <time>2018-10-14T07:51:11Z</time>
      </trkpt>
      <trkpt lat="46.4443" lon="2.48887">
        <ele>315</ele>
        <time>2018-10-14T07:51:13Z</time>
      </trkpt>
      <trkpt lat="46.44426" lon="2.48876">
        <ele>314.7</ele>
        <time>2018-10-14T07:51:15Z</time>
      </trkpt>
      <trkpt lat="46.44422" lon="2.48865">
        <ele>315</ele>
        <time>2018-10-14T07:51:17Z</time>
      </trkpt>
      <trkpt lat="46.44418" lon="2.48853">
        <ele>315.1</ele>
        <time>2018-10-14T07:51:19Z</time>
      </trkpt>
      <trkpt lat="46.44416" lon="2.48847">
        <ele>315.1</ele>
        <time>2018-10-14T07:51:20Z</time>
      </trkpt>
      <trkpt lat="46.44412" lon="2.48835">
        <ele>315</ele>
        <time>2018-10-14T07:51:22Z</time>
      </trkpt>
      <trkpt lat="46.44409" lon="2.48824">
        <ele>314.3</ele>
        <time>2018-10-14T07:51:24Z</time>
      </trkpt>
      <trkpt lat="46.44405" lon="2.48812">
        <ele>314.7</ele>
        <time>2018-10-14T07:51:26Z</time>
      </trkpt>
      <trkpt lat="46.44401" lon="2.488">
        <ele>314.9</ele>
        <time>2018-10-14T07:51:28Z</time>
      </trkpt>
      <trkpt lat="46.44398" lon="2.48789">
        <ele>315.2</ele>
        <time>2018-10-14T07:51:30Z</time>
      </trkpt>
      <trkpt lat="46.44396" lon="2.48783">
        <ele>315.4</ele>
        <time>2018-10-14T07:51:31Z</time>
      </trkpt>
      <trkpt lat="46.44394" lon="2.48777">
        <ele>315.3</ele>
        <time>2018-10-14T07:51:32Z</time>
      </trkpt>
      <trkpt lat="46.44392" lon="2.48771">
        <ele>315.2</ele>
        <time>2018-10-14T07:51:33Z</time>
      </trkpt>
      <trkpt lat="46.4439" lon="2.48765">
        <ele>315.1</ele>
        <time>2018-10-14T07:51:34Z</time>
      </trkpt>
      <trkpt lat="46.44388" lon="2.48759">
        <ele>315.3</ele>
        <time>2018-10-14T07:51:35Z</time>
      </trkpt>
      <trkpt lat="46.44386" lon="2.48753">
        <ele>315.5</ele>
        <time>2018-10-14T07:51:36Z</time>
      </trkpt>
      <trkpt lat="46.44384" lon="2.48747">
        <ele>315.7</ele>
        <time>2018-10-14T07:51:37Z</time>
      </trkpt>
      <trkpt lat="46.44383" lon="2.4874">
        <ele>315.9</ele>
        <time>2018-10-14T07:51:38Z</time>
      </trkpt>
      <trkpt lat="46.44381" lon="2.48734">
        <ele>315.8</ele>
        <time>2018-10-14T07:51:39Z</time>
      </trkpt>
      <trkpt lat="46.44379" lon="2.48728">
        <ele>315.8</ele>
        <time>2018-10-14T07:51:40Z</time>
      </trkpt>
      <trkpt lat="46.44377" lon="2.48721">
        <ele>315.7</ele>
        <time>2018-10-14T07:51:41Z</time>
      </trkpt>
      <trkpt lat="46.44375" lon="2.48715">
        <ele>315.7</ele>
        <time>2018-10-14T07:51:42Z</time>
      </trkpt>
      <trkpt lat="46.44373" lon="2.48709">
        <ele>315.7</ele>
        <time>2018-10-14T07:51:43Z</time>
      </trkpt>
      <trkpt lat="46.44371" lon="2.48702">
        <ele>315.9</ele>
        <time>2018-10-14T07:51:44Z</time>
      </trkpt>
      <trkpt lat="46.44369" lon="2.48696">
        <ele>316</ele>
        <time>2018-10-14T07:51:45Z</time>
      </trkpt>
      <trkpt lat="46.44367" lon="2.48689">
        <ele>316</ele>
        <time>2018-10-14T07:51:46Z</time>
      </trkpt>
      <trkpt lat="46.44364" lon="2.48683">
        <ele>315.7</ele>
        <time>2018-10-14T07:51:47Z</time>
      </trkpt>
      <trkpt lat="46.44362" lon="2.48677">
        <ele>315.4</ele>
        <time>2018-10-14T07:51:48Z</time>
      </trkpt>
      <trkpt lat="46.4436" lon="2.4867">
        <ele>315.5</ele>
        <time>2018-10-14T07:51:49Z</time>
      </trkpt>
      <trkpt lat="46.44358" lon="2.48664">
        <ele>315.7</ele>
        <time>2018-10-14T07:51:50Z</time>
      </trkpt>
      <trkpt lat="46.44356" lon="2.48658">
        <ele>315.7</ele>
        <time>2018-10-14T07:51:51Z</time>
      </trkpt>
      <trkpt lat="46.44354" lon="2.48651">
        <ele>315.7</ele>
        <time>2018-10-14T07:51:52Z</time>
      </trkpt>
      <trkpt lat="46.44352" lon="2.48645">
        <ele>315.8</ele>
        <time>2018-10-14T07:51:53Z</time>
      </trkpt>
      <trkpt lat="46.4435" lon="2.48639">
        <ele>315.6</ele>
        <time>2018-10-14T07:51:54Z</time>
      </trkpt>
      <trkpt lat="46.44348" lon="2.48633">
        <ele>315.5</ele>
        <time>2018-10-14T07:51:55Z</time>
      </trkpt>
      <trkpt lat="46.44346" lon="2.48627">
        <ele>315.5</ele>
        <time>2018-10-14T07:51:56Z</time>
      </trkpt>
      <trkpt lat="46.44342" lon="2.48615">
        <ele>315.6</ele>
        <time>2018-10-14T07:51:58Z</time>
      </trkpt>
      <trkpt lat="46.44338" lon="2.48604">
        <ele>315.9</ele>
        <time>2018-10-14T07:52:00Z</time>
      </trkpt>
      <trkpt lat="46.44334" lon="2.48592">
        <ele>316.4</ele>
        <time>2018-10-14T07:52:02Z</time>
      </trkpt>
      <trkpt lat="46.44333" lon="2.48586">
        <ele>316.4</ele>
        <time>2018-10-14T07:52:03Z</time>
      </trkpt>
      <trkpt lat="46.44331" lon="2.4858">
        <ele>316.5</ele>
        <time>2018-10-14T07:52:04Z</time>
      </trkpt>
      <trkpt lat="46.44329" lon="2.48574">
        <ele>316.4</ele>
        <time>2018-10-14T07:52:05Z</time>
      </trkpt>
      <trkpt lat="46.44327" lon="2.48568">
        <ele>316.2</ele>
        <time>2018-10-14T07:52:06Z</time>
      </trkpt>
      <trkpt lat="46.44325" lon="2.48562">
        <ele>316.2</ele>
        <time>2018-10-14T07:52:07Z</time>
      </trkpt>
      <trkpt lat="46.44321" lon="2.4855">
        <ele>315.9</ele>
        <time>2018-10-14T07:52:09Z</time>
      </trkpt>
      <trkpt lat="46.44319" lon="2.48544">
        <ele>316.3</ele>
        <time>2018-10-14T07:52:10Z</time>
      </trkpt>
      <trkpt lat="46.44317" lon="2.48537">
        <ele>316.6</ele>
        <time>2018-10-14T07:52:11Z</time>
      </trkpt>
      <trkpt lat="46.44315" lon="2.48531">
        <ele>316.8</ele>
        <time>2018-10-14T07:52:12Z</time>
      </trkpt>
      <trkpt lat="46.44313" lon="2.48525">
        <ele>316.5</ele>
        <time>2018-10-14T07:52:13Z</time>
      </trkpt>
      <trkpt lat="46.4431" lon="2.48518">
        <ele>316.3</ele>
        <time>2018-10-14T07:52:14Z</time>
      </trkpt>
      <trkpt lat="46.44309" lon="2.48512">
        <ele>316.4</ele>
        <time>2018-10-14T07:52:15Z</time>
      </trkpt>
      <trkpt lat="46.44307" lon="2.48505">
        <ele>316.4</ele>
        <time>2018-10-14T07:52:16Z</time>
      </trkpt>
      <trkpt lat="46.44305" lon="2.48499">
        <ele>316.3</ele>
        <time>2018-10-14T07:52:17Z</time>
      </trkpt>
      <trkpt lat="46.44303" lon="2.48493">
        <ele>316.3</ele>
        <time>2018-10-14T07:52:18Z</time>
      </trkpt>
      <trkpt lat="46.443" lon="2.48487">
        <ele>316.2</ele>
        <time>2018-10-14T07:52:19Z</time>
      </trkpt>
      <trkpt lat="46.44298" lon="2.4848">
        <ele>316.3</ele>
        <time>2018-10-14T07:52:20Z</time>
      </trkpt>
      <trkpt lat="46.44296" lon="2.48474">
        <ele>316.4</ele>
        <time>2018-10-14T07:52:21Z</time>
      </trkpt>
      <trkpt lat="46.44294" lon="2.48468">
        <ele>316.3</ele>
        <time>2018-10-14T07:52:22Z</time>
      </trkpt>
      <trkpt lat="46.44292" lon="2.48462">
        <ele>316.3</ele>
        <time>2018-10-14T07:52:23Z</time>
      </trkpt>
      <trkpt lat="46.4429" lon="2.48456">
        <ele>316.8</ele>
        <time>2018-10-14T07:52:24Z</time>
      </trkpt>
      <trkpt lat="46.44287" lon="2.48444">
        <ele>317.5</ele>
        <time>2018-10-14T07:52:26Z</time>
      </trkpt>
      <trkpt lat="46.44283" lon="2.48433">
        <ele>317.7</ele>
        <time>2018-10-14T07:52:28Z</time>
      </trkpt>
      <trkpt lat="46.44279" lon="2.48421">
        <ele>318.3</ele>
        <time>2018-10-14T07:52:30Z</time>
      </trkpt>
      <trkpt lat="46.44276" lon="2.48409">
        <ele>318.6</ele>
        <time>2018-10-14T07:52:32Z</time>
      </trkpt>
      <trkpt lat="46.44272" lon="2.48398">
        <ele>318.7</ele>
        <time>2018-10-14T07:52:34Z</time>
      </trkpt>
      <trkpt lat="46.4427" lon="2.48393">
        <ele>318.8</ele>
        <time>2018-10-14T07:52:35Z</time>
      </trkpt>
      <trkpt lat="46.44265" lon="2.48376">
        <ele>319</ele>
        <time>2018-10-14T07:52:38Z</time>
      </trkpt>
      <trkpt lat="46.44261" lon="2.48365">
        <ele>319.4</ele>
        <time>2018-10-14T07:52:40Z</time>
      </trkpt>
      <trkpt lat="46.44258" lon="2.48354">
        <ele>320.5</ele>
        <time>2018-10-14T07:52:42Z</time>
      </trkpt>
      <trkpt lat="46.44254" lon="2.48343">
        <ele>319.8</ele>
        <time>2018-10-14T07:52:44Z</time>
      </trkpt>
      <trkpt lat="46.44251" lon="2.48331">
        <ele>319.5</ele>
        <time>2018-10-14T07:52:46Z</time>
      </trkpt>
      <trkpt lat="46.44247" lon="2.4832">
        <ele>319.4</ele>
        <time>2018-10-14T07:52:48Z</time>
      </trkpt>
      <trkpt lat="46.44245" lon="2.48314">
        <ele>319.4</ele>
        <time>2018-10-14T07:52:49Z</time>
      </trkpt>
      <trkpt lat="46.44243" lon="2.48308">
        <ele>319.4</ele>
        <time>2018-10-14T07:52:50Z</time>
      </trkpt>
      <trkpt lat="46.44241" lon="2.48302">
        <ele>319.8</ele>
        <time>2018-10-14T07:52:51Z</time>
      </trkpt>
      <trkpt lat="46.44238" lon="2.4829">
        <ele>320.3</ele>
        <time>2018-10-14T07:52:53Z</time>
      </trkpt>
      <trkpt lat="46.44234" lon="2.4828">
        <ele>320.8</ele>
        <time>2018-10-14T07:52:55Z</time>
      </trkpt>
      <trkpt lat="46.4423" lon="2.48269">
        <ele>321.2</ele>
        <time>2018-10-14T07:52:57Z</time>
      </trkpt>
      <trkpt lat="46.44227" lon="2.48258">
        <ele>321.8</ele>
        <time>2018-10-14T07:52:59Z</time>
      </trkpt>
      <trkpt lat="46.44224" lon="2.48248">
        <ele>322.2</ele>
        <time>2018-10-14T07:53:01Z</time>
      </trkpt>
      <trkpt lat="46.4422" lon="2.48237">
        <ele>323.2</ele>
        <time>2018-10-14T07:53:03Z</time>
      </trkpt>
      <trkpt lat="46.44216" lon="2.48227">
        <ele>323.4</ele>
        <time>2018-10-14T07:53:05Z</time>
      </trkpt>
      <trkpt lat="46.44212" lon="2.48216">
        <ele>323.1</ele>
        <time>2018-10-14T07:53:07Z</time>
      </trkpt>
      <trkpt lat="46.44209" lon="2.48206">
        <ele>322.9</ele>
        <time>2018-10-14T07:53:09Z</time>
      </trkpt>
      <trkpt lat="46.44205" lon="2.48195">
        <ele>322.7</ele>
        <time>2018-10-14T07:53:11Z</time>
      </trkpt>
      <trkpt lat="46.44201" lon="2.48184">
        <ele>322.4</ele>
        <time>2018-10-14T07:53:13Z</time>
      </trkpt>
      <trkpt lat="46.44196" lon="2.48174">
        <ele>322.7</ele>
        <time>2018-10-14T07:53:15Z</time>
      </trkpt>
      <trkpt lat="46.44192" lon="2.48163">
        <ele>323</ele>
        <time>2018-10-14T07:53:17Z</time>
      </trkpt>
      <trkpt lat="46.44188" lon="2.48152">
        <ele>323.2</ele>
        <time>2018-10-14T07:53:19Z</time>
      </trkpt>
      <trkpt lat="46.44184" lon="2.48141">
        <ele>323.2</ele>
        <time>2018-10-14T07:53:21Z</time>
      </trkpt>
      <trkpt lat="46.44179" lon="2.4813">
        <ele>323.2</ele>
        <time>2018-10-14T07:53:23Z</time>
      </trkpt>
      <trkpt lat="46.44175" lon="2.4812">
        <ele>323.5</ele>
        <time>2018-10-14T07:53:25Z</time>
      </trkpt>
      <trkpt lat="46.44171" lon="2.4811">
        <ele>323.5</ele>
        <time>2018-10-14T07:53:27Z</time>
      </trkpt>
      <trkpt lat="46.44166" lon="2.48099">
        <ele>323.9</ele>
        <time>2018-10-14T07:53:29Z</time>
      </trkpt>
      <trkpt lat="46.44161" lon="2.48089">
        <ele>324.3</ele>
        <time>2018-10-14T07:53:31Z</time>
      </trkpt>
      <trkpt lat="46.44157" lon="2.48078">
        <ele>324.7</ele>
        <time>2018-10-14T07:53:33Z</time>
      </trkpt>
      <trkpt lat="46.44152" lon="2.48068">
        <ele>325.1</ele>
        <time>2018-10-14T07:53:35Z</time>
      </trkpt>
      <trkpt lat="46.4415" lon="2.48063">
        <ele>325.2</ele>
        <time>2018-10-14T07:53:36Z</time>
      </trkpt>
      <trkpt lat="46.44143" lon="2.48047">
        <ele>325.1</ele>
        <time>2018-10-14T07:53:39Z</time>
      </trkpt>
      <trkpt lat="46.44138" lon="2.48037">
        <ele>325.4</ele>
        <time>2018-10-14T07:53:41Z</time>
      </trkpt>
      <trkpt lat="46.44134" lon="2.48027">
        <ele>325.5</ele>
        <time>2018-10-14T07:53:43Z</time>
      </trkpt>
      <trkpt lat="46.44129" lon="2.48017">
        <ele>325.6</ele>
        <time>2018-10-14T07:53:45Z</time>
      </trkpt>
      <trkpt lat="46.44125" lon="2.48007">
        <ele>325.8</ele>
        <time>2018-10-14T07:53:47Z</time>
      </trkpt>
      <trkpt lat="46.4412" lon="2.47996">
        <ele>325.6</ele>
        <time>2018-10-14T07:53:49Z</time>
      </trkpt>
      <trkpt lat="46.44116" lon="2.47985">
        <ele>325.3</ele>
        <time>2018-10-14T07:53:51Z</time>
      </trkpt>
      <trkpt lat="46.44112" lon="2.47975">
        <ele>325.7</ele>
        <time>2018-10-14T07:53:53Z</time>
      </trkpt>
      <trkpt lat="46.44108" lon="2.47965">
        <ele>326.1</ele>
        <time>2018-10-14T07:53:55Z</time>
      </trkpt>
      <trkpt lat="46.44104" lon="2.47957">
        <ele>326.2</ele>
        <time>2018-10-14T07:53:57Z</time>
      </trkpt>
      <trkpt lat="46.44101" lon="2.47949">
        <ele>326.3</ele>
        <time>2018-10-14T07:53:59Z</time>
      </trkpt>
      <trkpt lat="46.44098" lon="2.4794">
        <ele>326.6</ele>
        <time>2018-10-14T07:54:01Z</time>
      </trkpt>
      <trkpt lat="46.44094" lon="2.47932">
        <ele>326.8</ele>
        <time>2018-10-14T07:54:03Z</time>
      </trkpt>
      <trkpt lat="46.4409" lon="2.47922">
        <ele>326.6</ele>
        <time>2018-10-14T07:54:07Z</time>
      </trkpt>
      <trkpt lat="46.44085" lon="2.47912">
        <ele>325.4</ele>
        <time>2018-10-14T07:54:12Z</time>
      </trkpt>
      <trkpt lat="46.44081" lon="2.47902">
        <ele>325.1</ele>
        <time>2018-10-14T07:54:15Z</time>
      </trkpt>
      <trkpt lat="46.44078" lon="2.47894">
        <ele>325.1</ele>
        <time>2018-10-14T07:54:17Z</time>
      </trkpt>
      <trkpt lat="46.44076" lon="2.47885">
        <ele>326.3</ele>
        <time>2018-10-14T07:54:19Z</time>
      </trkpt>
      <trkpt lat="46.44072" lon="2.47876">
        <ele>326.3</ele>
        <time>2018-10-14T07:54:21Z</time>
      </trkpt>
      <trkpt lat="46.44068" lon="2.47867">
        <ele>326.5</ele>
        <time>2018-10-14T07:54:23Z</time>
      </trkpt>
      <trkpt lat="46.44064" lon="2.47859">
        <ele>327.1</ele>
        <time>2018-10-14T07:54:25Z</time>
      </trkpt>
      <trkpt lat="46.4406" lon="2.4785">
        <ele>327.7</ele>
        <time>2018-10-14T07:54:27Z</time>
      </trkpt>
      <trkpt lat="46.44056" lon="2.47841">
        <ele>328.5</ele>
        <time>2018-10-14T07:54:29Z</time>
      </trkpt>
      <trkpt lat="46.44052" lon="2.47831">
        <ele>328.6</ele>
        <time>2018-10-14T07:54:31Z</time>
      </trkpt>
      <trkpt lat="46.44048" lon="2.47821">
        <ele>329</ele>
        <time>2018-10-14T07:54:33Z</time>
      </trkpt>
      <trkpt lat="46.44044" lon="2.47811">
        <ele>329.7</ele>
        <time>2018-10-14T07:54:35Z</time>
      </trkpt>
      <trkpt lat="46.44041" lon="2.47799">
        <ele>330</ele>
        <time>2018-10-14T07:54:37Z</time>
      </trkpt>
      <trkpt lat="46.44039" lon="2.47794">
        <ele>330.1</ele>
        <time>2018-10-14T07:54:38Z</time>
      </trkpt>
      <trkpt lat="46.44032" lon="2.47778">
        <ele>330.1</ele>
        <time>2018-10-14T07:54:41Z</time>
      </trkpt>
      <trkpt lat="46.44028" lon="2.47767">
        <ele>330.2</ele>
        <time>2018-10-14T07:54:43Z</time>
      </trkpt>
      <trkpt lat="46.44023" lon="2.47756">
        <ele>330.4</ele>
        <time>2018-10-14T07:54:45Z</time>
      </trkpt>
      <trkpt lat="46.44018" lon="2.47746">
        <ele>330.1</ele>
        <time>2018-10-14T07:54:47Z</time>
      </trkpt>
      <trkpt lat="46.44014" lon="2.47736">
        <ele>330</ele>
        <time>2018-10-14T07:54:49Z</time>
      </trkpt>
      <trkpt lat="46.4401" lon="2.47725">
        <ele>330.2</ele>
        <time>2018-10-14T07:54:51Z</time>
      </trkpt>
      <trkpt lat="46.44005" lon="2.47715">
        <ele>330.2</ele>
        <time>2018-10-14T07:54:53Z</time>
      </trkpt>
      <trkpt lat="46.44" lon="2.47706">
        <ele>331.1</ele>
        <time>2018-10-14T07:54:55Z</time>
      </trkpt>
      <trkpt lat="46.43994" lon="2.47697">
        <ele>331.3</ele>
        <time>2018-10-14T07:54:57Z</time>
      </trkpt>
      <trkpt lat="46.43989" lon="2.47688">
        <ele>331.6</ele>
        <time>2018-10-14T07:54:59Z</time>
      </trkpt>
      <trkpt lat="46.43984" lon="2.4768">
        <ele>331.8</ele>
        <time>2018-10-14T07:55:01Z</time>
      </trkpt>
      <trkpt lat="46.43978" lon="2.47672">
        <ele>332.4</ele>
        <time>2018-10-14T07:55:03Z</time>
      </trkpt>
      <trkpt lat="46.43972" lon="2.47664">
        <ele>333.1</ele>
        <time>2018-10-14T07:55:05Z</time>
      </trkpt>
      <trkpt lat="46.43967" lon="2.47656">
        <ele>333</ele>
        <time>2018-10-14T07:55:07Z</time>
      </trkpt>
      <trkpt lat="46.43961" lon="2.47648">
        <ele>333.3</ele>
        <time>2018-10-14T07:55:09Z</time>
      </trkpt>
      <trkpt lat="46.43956" lon="2.47639">
        <ele>333.5</ele>
        <time>2018-10-14T07:55:11Z</time>
      </trkpt>
      <trkpt lat="46.4395" lon="2.4763">
        <ele>333.4</ele>
        <time>2018-10-14T07:55:13Z</time>
      </trkpt>
      <trkpt lat="46.43945" lon="2.47622">
        <ele>333.8</ele>
        <time>2018-10-14T07:55:15Z</time>
      </trkpt>
      <trkpt lat="46.43938" lon="2.47615">
        <ele>334.4</ele>
        <time>2018-10-14T07:55:17Z</time>
      </trkpt>
      <trkpt lat="46.43931" lon="2.47611">
        <ele>334.6</ele>
        <time>2018-10-14T07:55:19Z</time>
      </trkpt>
      <trkpt lat="46.43923" lon="2.47609">
        <ele>334.6</ele>
        <time>2018-10-14T07:55:21Z</time>
      </trkpt>
      <trkpt lat="46.43915" lon="2.47608">
        <ele>334.8</ele>
        <time>2018-10-14T07:55:23Z</time>
      </trkpt>
      <trkpt lat="46.43907" lon="2.47607">
        <ele>335.1</ele>
        <time>2018-10-14T07:55:25Z</time>
      </trkpt>
      <trkpt lat="46.43899" lon="2.47606">
        <ele>335.7</ele>
        <time>2018-10-14T07:55:27Z</time>
      </trkpt>
      <trkpt lat="46.43891" lon="2.47605">
        <ele>336.2</ele>
        <time>2018-10-14T07:55:29Z</time>
      </trkpt>
      <trkpt lat="46.43882" lon="2.47604">
        <ele>335.4</ele>
        <time>2018-10-14T07:55:31Z</time>
      </trkpt>
      <trkpt lat="46.43873" lon="2.47603">
        <ele>336.1</ele>
        <time>2018-10-14T07:55:33Z</time>
      </trkpt>
      <trkpt lat="46.43869" lon="2.47602">
        <ele>336.2</ele>
        <time>2018-10-14T07:55:34Z</time>
      </trkpt>
      <trkpt lat="46.43864" lon="2.47602">
        <ele>336.3</ele>
        <time>2018-10-14T07:55:35Z</time>
      </trkpt>
      <trkpt lat="46.43859" lon="2.47601">
        <ele>336.3</ele>
        <time>2018-10-14T07:55:36Z</time>
      </trkpt>
      <trkpt lat="46.43855" lon="2.47601">
        <ele>335.4</ele>
        <time>2018-10-14T07:55:37Z</time>
      </trkpt>
      <trkpt lat="46.4385" lon="2.47601">
        <ele>334.7</ele>
        <time>2018-10-14T07:55:38Z</time>
      </trkpt>
      <trkpt lat="46.43845" lon="2.476">
        <ele>335.1</ele>
        <time>2018-10-14T07:55:39Z</time>
      </trkpt>
      <trkpt lat="46.43841" lon="2.476">
        <ele>335.4</ele>
        <time>2018-10-14T07:55:40Z</time>
      </trkpt>
      <trkpt lat="46.43836" lon="2.47599">
        <ele>335.4</ele>
        <time>2018-10-14T07:55:41Z</time>
      </trkpt>
      <trkpt lat="46.43832" lon="2.47598">
        <ele>335.4</ele>
        <time>2018-10-14T07:55:42Z</time>
      </trkpt>
      <trkpt lat="46.43827" lon="2.47597">
        <ele>335.4</ele>
        <time>2018-10-14T07:55:43Z</time>
      </trkpt>
      <trkpt lat="46.43822" lon="2.47596">
        <ele>334.9</ele>
        <time>2018-10-14T07:55:44Z</time>
      </trkpt>
      <trkpt lat="46.43817" lon="2.47595">
        <ele>334.6</ele>
        <time>2018-10-14T07:55:45Z</time>
      </trkpt>
      <trkpt lat="46.43812" lon="2.47595">
        <ele>334.5</ele>
        <time>2018-10-14T07:55:46Z</time>
      </trkpt>
      <trkpt lat="46.43807" lon="2.47595">
        <ele>334.5</ele>
        <time>2018-10-14T07:55:47Z</time>
      </trkpt>
      <trkpt lat="46.43801" lon="2.47594">
        <ele>334.4</ele>
        <time>2018-10-14T07:55:48Z</time>
      </trkpt>
      <trkpt lat="46.43796" lon="2.47594">
        <ele>334</ele>
        <time>2018-10-14T07:55:49Z</time>
      </trkpt>
      <trkpt lat="46.43791" lon="2.47593">
        <ele>333.6</ele>
        <time>2018-10-14T07:55:50Z</time>
      </trkpt>
      <trkpt lat="46.43772" lon="2.47591">
        <ele>333</ele>
        <time>2018-10-14T07:55:53Z</time>
      </trkpt>
      <trkpt lat="46.43765" lon="2.4759">
        <ele>333.6</ele>
        <time>2018-10-14T07:55:55Z</time>
      </trkpt>
      <trkpt lat="46.4376" lon="2.47589">
        <ele>333.8</ele>
        <time>2018-10-14T07:55:56Z</time>
      </trkpt>
      <trkpt lat="46.43756" lon="2.47588">
        <ele>334</ele>
        <time>2018-10-14T07:55:57Z</time>
      </trkpt>
      <trkpt lat="46.43751" lon="2.47587">
        <ele>333.9</ele>
        <time>2018-10-14T07:55:58Z</time>
      </trkpt>
      <trkpt lat="46.43746" lon="2.47586">
        <ele>333.9</ele>
        <time>2018-10-14T07:55:59Z</time>
      </trkpt>
      <trkpt lat="46.43742" lon="2.47586">
        <ele>333.8</ele>
        <time>2018-10-14T07:56:00Z</time>
      </trkpt>
      <trkpt lat="46.43737" lon="2.47585">
        <ele>333.7</ele>
        <time>2018-10-14T07:56:01Z</time>
      </trkpt>
      <trkpt lat="46.43733" lon="2.47585">
        <ele>333.7</ele>
        <time>2018-10-14T07:56:02Z</time>
      </trkpt>
      <trkpt lat="46.43728" lon="2.47584">
        <ele>333.7</ele>
        <time>2018-10-14T07:56:03Z</time>
      </trkpt>
      <trkpt lat="46.43719" lon="2.47583">
        <ele>333.8</ele>
        <time>2018-10-14T07:56:05Z</time>
      </trkpt>
      <trkpt lat="46.43711" lon="2.47582">
        <ele>333.9</ele>
        <time>2018-10-14T07:56:07Z</time>
      </trkpt>
      <trkpt lat="46.43703" lon="2.4758">
        <ele>333.9</ele>
        <time>2018-10-14T07:56:09Z</time>
      </trkpt>
      <trkpt lat="46.43695" lon="2.47579">
        <ele>333.7</ele>
        <time>2018-10-14T07:56:11Z</time>
      </trkpt>
      <trkpt lat="46.43688" lon="2.47577">
        <ele>333</ele>
        <time>2018-10-14T07:56:13Z</time>
      </trkpt>
      <trkpt lat="46.43682" lon="2.47575">
        <ele>332.6</ele>
        <time>2018-10-14T07:56:15Z</time>
      </trkpt>
      <trkpt lat="46.43674" lon="2.47574">
        <ele>332.5</ele>
        <time>2018-10-14T07:56:17Z</time>
      </trkpt>
      <trkpt lat="46.43668" lon="2.47574">
        <ele>332.5</ele>
        <time>2018-10-14T07:56:18Z</time>
      </trkpt>
      <trkpt lat="46.43662" lon="2.47573">
        <ele>332.1</ele>
        <time>2018-10-14T07:56:19Z</time>
      </trkpt>
      <trkpt lat="46.43656" lon="2.47573">
        <ele>331.8</ele>
        <time>2018-10-14T07:56:20Z</time>
      </trkpt>
      <trkpt lat="46.43651" lon="2.47573">
        <ele>331.6</ele>
        <time>2018-10-14T07:56:21Z</time>
      </trkpt>
      <trkpt lat="46.43646" lon="2.47573">
        <ele>331.6</ele>
        <time>2018-10-14T07:56:22Z</time>
      </trkpt>
      <trkpt lat="46.4364" lon="2.47574">
        <ele>331.6</ele>
        <time>2018-10-14T07:56:23Z</time>
      </trkpt>
      <trkpt lat="46.43635" lon="2.47573">
        <ele>331.8</ele>
        <time>2018-10-14T07:56:24Z</time>
      </trkpt>
      <trkpt lat="46.4363" lon="2.47573">
        <ele>331.9</ele>
        <time>2018-10-14T07:56:25Z</time>
      </trkpt>
      <trkpt lat="46.43622" lon="2.47572">
        <ele>332.3</ele>
        <time>2018-10-14T07:56:27Z</time>
      </trkpt>
      <trkpt lat="46.43616" lon="2.47573">
        <ele>332.5</ele>
        <time>2018-10-14T07:56:28Z</time>
      </trkpt>
      <trkpt lat="46.43609" lon="2.47574">
        <ele>332.9</ele>
        <time>2018-10-14T07:56:29Z</time>
      </trkpt>
      <trkpt lat="46.43605" lon="2.47573">
        <ele>333.3</ele>
        <time>2018-10-14T07:56:30Z</time>
      </trkpt>
      <trkpt lat="46.436" lon="2.47574">
        <ele>333.3</ele>
        <time>2018-10-14T07:56:31Z</time>
      </trkpt>
      <trkpt lat="46.43596" lon="2.47573">
        <ele>333.4</ele>
        <time>2018-10-14T07:56:32Z</time>
      </trkpt>
      <trkpt lat="46.43591" lon="2.47573">
        <ele>333.4</ele>
        <time>2018-10-14T07:56:33Z</time>
      </trkpt>
      <trkpt lat="46.43586" lon="2.47573">
        <ele>333.8</ele>
        <time>2018-10-14T07:56:34Z</time>
      </trkpt>
      <trkpt lat="46.43581" lon="2.47572">
        <ele>334</ele>
        <time>2018-10-14T07:56:35Z</time>
      </trkpt>
      <trkpt lat="46.43577" lon="2.47572">
        <ele>334.3</ele>
        <time>2018-10-14T07:56:36Z</time>
      </trkpt>
      <trkpt lat="46.43568" lon="2.47573">
        <ele>335.1</ele>
        <time>2018-10-14T07:56:38Z</time>
      </trkpt>
      <trkpt lat="46.43559" lon="2.47574">
        <ele>335.9</ele>
        <time>2018-10-14T07:56:40Z</time>
      </trkpt>
      <trkpt lat="46.43555" lon="2.47574">
        <ele>335.9</ele>
        <time>2018-10-14T07:56:41Z</time>
      </trkpt>
      <trkpt lat="46.43543" lon="2.47574">
        <ele>336.2</ele>
        <time>2018-10-14T07:56:44Z</time>
      </trkpt>
      <trkpt lat="46.43536" lon="2.47574">
        <ele>336.1</ele>
        <time>2018-10-14T07:56:46Z</time>
      </trkpt>
      <trkpt lat="46.43528" lon="2.47574">
        <ele>336.4</ele>
        <time>2018-10-14T07:56:48Z</time>
      </trkpt>
      <trkpt lat="46.43521" lon="2.47574">
        <ele>336.8</ele>
        <time>2018-10-14T07:56:50Z</time>
      </trkpt>
      <trkpt lat="46.43514" lon="2.47574">
        <ele>337.1</ele>
        <time>2018-10-14T07:56:52Z</time>
      </trkpt>
      <trkpt lat="46.43507" lon="2.47574">
        <ele>337.2</ele>
        <time>2018-10-14T07:56:54Z</time>
      </trkpt>
      <trkpt lat="46.435" lon="2.47574">
        <ele>337.5</ele>
        <time>2018-10-14T07:56:56Z</time>
      </trkpt>
      <trkpt lat="46.43493" lon="2.47573">
        <ele>338.3</ele>
        <time>2018-10-14T07:56:58Z</time>
      </trkpt>
      <trkpt lat="46.43487" lon="2.47573">
        <ele>338.7</ele>
        <time>2018-10-14T07:57:00Z</time>
      </trkpt>
      <trkpt lat="46.43478" lon="2.47573">
        <ele>338.6</ele>
        <time>2018-10-14T07:57:03Z</time>
      </trkpt>
      <trkpt lat="46.43469" lon="2.47573">
        <ele>338.6</ele>
        <time>2018-10-14T07:57:06Z</time>
      </trkpt>
      <trkpt lat="46.43461" lon="2.47573">
        <ele>339.1</ele>
        <time>2018-10-14T07:57:09Z</time>
      </trkpt>
      <trkpt lat="46.43455" lon="2.47572">
        <ele>339</ele>
        <time>2018-10-14T07:57:11Z</time>
      </trkpt>
      <trkpt lat="46.43448" lon="2.47572">
        <ele>339.6</ele>
        <time>2018-10-14T07:57:13Z</time>
      </trkpt>
      <trkpt lat="46.43442" lon="2.47572">
        <ele>339.5</ele>
        <time>2018-10-14T07:57:15Z</time>
      </trkpt>
      <trkpt lat="46.43436" lon="2.47572">
        <ele>340</ele>
        <time>2018-10-14T07:57:17Z</time>
      </trkpt>
      <trkpt lat="46.43429" lon="2.47571">
        <ele>340.5</ele>
        <time>2018-10-14T07:57:19Z</time>
      </trkpt>
      <trkpt lat="46.43423" lon="2.4757">
        <ele>340.7</ele>
        <time>2018-10-14T07:57:21Z</time>
      </trkpt>
      <trkpt lat="46.43416" lon="2.4757">
        <ele>340.8</ele>
        <time>2018-10-14T07:57:23Z</time>
      </trkpt>
      <trkpt lat="46.4341" lon="2.47567">
        <ele>341</ele>
        <time>2018-10-14T07:57:25Z</time>
      </trkpt>
      <trkpt lat="46.43403" lon="2.47566">
        <ele>340.5</ele>
        <time>2018-10-14T07:57:27Z</time>
      </trkpt>
      <trkpt lat="46.43397" lon="2.47566">
        <ele>341.4</ele>
        <time>2018-10-14T07:57:29Z</time>
      </trkpt>
      <trkpt lat="46.4339" lon="2.47565">
        <ele>341.7</ele>
        <time>2018-10-14T07:57:31Z</time>
      </trkpt>
      <trkpt lat="46.43382" lon="2.47565">
        <ele>341.8</ele>
        <time>2018-10-14T07:57:33Z</time>
      </trkpt>
      <trkpt lat="46.43375" lon="2.47564">
        <ele>341.8</ele>
        <time>2018-10-14T07:57:35Z</time>
      </trkpt>
      <trkpt lat="46.43368" lon="2.47564">
        <ele>341.7</ele>
        <time>2018-10-14T07:57:37Z</time>
      </trkpt>
      <trkpt lat="46.4336" lon="2.47564">
        <ele>342.2</ele>
        <time>2018-10-14T07:57:39Z</time>
      </trkpt>
      <trkpt lat="46.43353" lon="2.47563">
        <ele>342.3</ele>
        <time>2018-10-14T07:57:41Z</time>
      </trkpt>
      <trkpt lat="46.43349" lon="2.47563">
        <ele>342.1</ele>
        <time>2018-10-14T07:57:42Z</time>
      </trkpt>
      <trkpt lat="46.43338" lon="2.47561">
        <ele>342.2</ele>
        <time>2018-10-14T07:57:45Z</time>
      </trkpt>
      <trkpt lat="46.4333" lon="2.47559">
        <ele>342.8</ele>
        <time>2018-10-14T07:57:47Z</time>
      </trkpt>
      <trkpt lat="46.43323" lon="2.47555">
        <ele>343.3</ele>
        <time>2018-10-14T07:57:49Z</time>
      </trkpt>
      <trkpt lat="46.43316" lon="2.47551">
        <ele>343.2</ele>
        <time>2018-10-14T07:57:51Z</time>
      </trkpt>
      <trkpt lat="46.4331" lon="2.47546">
        <ele>342.9</ele>
        <time>2018-10-14T07:57:53Z</time>
      </trkpt>
      <trkpt lat="46.43304" lon="2.47542">
        <ele>343.4</ele>
        <time>2018-10-14T07:57:55Z</time>
      </trkpt>
      <trkpt lat="46.43298" lon="2.47537">
        <ele>343.3</ele>
        <time>2018-10-14T07:57:57Z</time>
      </trkpt>
      <trkpt lat="46.43292" lon="2.47532">
        <ele>343.6</ele>
        <time>2018-10-14T07:57:59Z</time>
      </trkpt>
      <trkpt lat="46.43285" lon="2.47527">
        <ele>344</ele>
        <time>2018-10-14T07:58:01Z</time>
      </trkpt>
      <trkpt lat="46.43278" lon="2.47522">
        <ele>344.1</ele>
        <time>2018-10-14T07:58:03Z</time>
      </trkpt>
      <trkpt lat="46.43272" lon="2.47517">
        <ele>344.6</ele>
        <time>2018-10-14T07:58:05Z</time>
      </trkpt>
      <trkpt lat="46.43266" lon="2.47512">
        <ele>345.4</ele>
        <time>2018-10-14T07:58:07Z</time>
      </trkpt>
      <trkpt lat="46.43259" lon="2.47507">
        <ele>346.1</ele>
        <time>2018-10-14T07:58:09Z</time>
      </trkpt>
      <trkpt lat="46.43253" lon="2.47502">
        <ele>346.3</ele>
        <time>2018-10-14T07:58:11Z</time>
      </trkpt>
      <trkpt lat="46.43247" lon="2.47497">
        <ele>346.1</ele>
        <time>2018-10-14T07:58:13Z</time>
      </trkpt>
      <trkpt lat="46.4324" lon="2.47492">
        <ele>345.9</ele>
        <time>2018-10-14T07:58:15Z</time>
      </trkpt>
      <trkpt lat="46.43233" lon="2.47487">
        <ele>345.9</ele>
        <time>2018-10-14T07:58:17Z</time>
      </trkpt>
      <trkpt lat="46.43226" lon="2.47481">
        <ele>345.8</ele>
        <time>2018-10-14T07:58:19Z</time>
      </trkpt>
      <trkpt lat="46.43219" lon="2.47476">
        <ele>345.7</ele>
        <time>2018-10-14T07:58:21Z</time>
      </trkpt>
      <trkpt lat="46.43212" lon="2.4747">
        <ele>346.2</ele>
        <time>2018-10-14T07:58:23Z</time>
      </trkpt>
      <trkpt lat="46.43205" lon="2.47465">
        <ele>346.6</ele>
        <time>2018-10-14T07:58:25Z</time>
      </trkpt>
      <trkpt lat="46.43199" lon="2.47459">
        <ele>346.9</ele>
        <time>2018-10-14T07:58:27Z</time>
      </trkpt>
      <trkpt lat="46.43192" lon="2.47454">
        <ele>347.1</ele>
        <time>2018-10-14T07:58:29Z</time>
      </trkpt>
      <trkpt lat="46.43185" lon="2.47448">
        <ele>347.5</ele>
        <time>2018-10-14T07:58:31Z</time>
      </trkpt>
      <trkpt lat="46.43179" lon="2.47443">
        <ele>347.3</ele>
        <time>2018-10-14T07:58:33Z</time>
      </trkpt>
      <trkpt lat="46.43172" lon="2.47438">
        <ele>347</ele>
        <time>2018-10-14T07:58:35Z</time>
      </trkpt>
      <trkpt lat="46.43165" lon="2.47433">
        <ele>347.5</ele>
        <time>2018-10-14T07:58:37Z</time>
      </trkpt>
      <trkpt lat="46.43158" lon="2.47427">
        <ele>347.8</ele>
        <time>2018-10-14T07:58:39Z</time>
      </trkpt>
      <trkpt lat="46.43151" lon="2.47422">
        <ele>347.6</ele>
        <time>2018-10-14T07:58:41Z</time>
      </trkpt>
      <trkpt lat="46.43144" lon="2.47416">
        <ele>348.1</ele>
        <time>2018-10-14T07:58:43Z</time>
      </trkpt>
      <trkpt lat="46.4314" lon="2.47413">
        <ele>348.2</ele>
        <time>2018-10-14T07:58:44Z</time>
      </trkpt>
      <trkpt lat="46.43129" lon="2.47405">
        <ele>347.6</ele>
        <time>2018-10-14T07:58:47Z</time>
      </trkpt>
      <trkpt lat="46.43122" lon="2.47399">
        <ele>348</ele>
        <time>2018-10-14T07:58:49Z</time>
      </trkpt>
      <trkpt lat="46.43114" lon="2.47393">
        <ele>348.2</ele>
        <time>2018-10-14T07:58:51Z</time>
      </trkpt>
      <trkpt lat="46.43106" lon="2.47387">
        <ele>348</ele>
        <time>2018-10-14T07:58:53Z</time>
      </trkpt>
      <trkpt lat="46.43099" lon="2.47381">
        <ele>348.6</ele>
        <time>2018-10-14T07:58:55Z</time>
      </trkpt>
      <trkpt lat="46.43091" lon="2.47375">
        <ele>348.7</ele>
        <time>2018-10-14T07:58:57Z</time>
      </trkpt>
      <trkpt lat="46.43083" lon="2.47369">
        <ele>348.3</ele>
        <time>2018-10-14T07:58:59Z</time>
      </trkpt>
      <trkpt lat="46.43077" lon="2.47364">
        <ele>348.2</ele>
        <time>2018-10-14T07:59:01Z</time>
      </trkpt>
      <trkpt lat="46.43071" lon="2.47358">
        <ele>348.6</ele>
        <time>2018-10-14T07:59:03Z</time>
      </trkpt>
      <trkpt lat="46.43064" lon="2.47353">
        <ele>348.8</ele>
        <time>2018-10-14T07:59:05Z</time>
      </trkpt>
      <trkpt lat="46.43058" lon="2.47347">
        <ele>348.8</ele>
        <time>2018-10-14T07:59:07Z</time>
      </trkpt>
      <trkpt lat="46.43052" lon="2.47341">
        <ele>348.3</ele>
        <time>2018-10-14T07:59:09Z</time>
      </trkpt>
      <trkpt lat="46.43045" lon="2.47335">
        <ele>349.1</ele>
        <time>2018-10-14T07:59:11Z</time>
      </trkpt>
      <trkpt lat="46.43039" lon="2.47329">
        <ele>349.2</ele>
        <time>2018-10-14T07:59:13Z</time>
      </trkpt>
      <trkpt lat="46.43032" lon="2.47324">
        <ele>349.4</ele>
        <time>2018-10-14T07:59:15Z</time>
      </trkpt>
      <trkpt lat="46.43026" lon="2.47318">
        <ele>349.3</ele>
        <time>2018-10-14T07:59:17Z</time>
      </trkpt>
      <trkpt lat="46.4302" lon="2.47313">
        <ele>348.7</ele>
        <time>2018-10-14T07:59:19Z</time>
      </trkpt>
      <trkpt lat="46.43014" lon="2.47309">
        <ele>348.6</ele>
        <time>2018-10-14T07:59:21Z</time>
      </trkpt>
      <trkpt lat="46.43007" lon="2.47305">
        <ele>349.2</ele>
        <time>2018-10-14T07:59:23Z</time>
      </trkpt>
      <trkpt lat="46.43001" lon="2.47301">
        <ele>350</ele>
        <time>2018-10-14T07:59:25Z</time>
      </trkpt>
      <trkpt lat="46.42994" lon="2.47298">
        <ele>350.2</ele>
        <time>2018-10-14T07:59:27Z</time>
      </trkpt>
      <trkpt lat="46.42987" lon="2.47295">
        <ele>350.4</ele>
        <time>2018-10-14T07:59:29Z</time>
      </trkpt>
      <trkpt lat="46.42979" lon="2.47293">
        <ele>350.6</ele>
        <time>2018-10-14T07:59:31Z</time>
      </trkpt>
      <trkpt lat="46.42972" lon="2.47292">
        <ele>351.1</ele>
        <time>2018-10-14T07:59:33Z</time>
      </trkpt>
      <trkpt lat="46.42965" lon="2.47291">
        <ele>351.2</ele>
        <time>2018-10-14T07:59:35Z</time>
      </trkpt>
      <trkpt lat="46.42958" lon="2.47291">
        <ele>351.7</ele>
        <time>2018-10-14T07:59:37Z</time>
      </trkpt>
      <trkpt lat="46.42951" lon="2.47292">
        <ele>352.3</ele>
        <time>2018-10-14T07:59:39Z</time>
      </trkpt>
      <trkpt lat="46.42944" lon="2.47292">
        <ele>352.7</ele>
        <time>2018-10-14T07:59:41Z</time>
      </trkpt>
      <trkpt lat="46.42937" lon="2.47293">
        <ele>353</ele>
        <time>2018-10-14T07:59:43Z</time>
      </trkpt>
      <trkpt lat="46.4293" lon="2.47293">
        <ele>353.2</ele>
        <time>2018-10-14T07:59:45Z</time>
      </trkpt>
      <trkpt lat="46.42927" lon="2.47294">
        <ele>353.2</ele>
        <time>2018-10-14T07:59:46Z</time>
      </trkpt>
      <trkpt lat="46.42917" lon="2.47295">
        <ele>354.4</ele>
        <time>2018-10-14T07:59:49Z</time>
      </trkpt>
      <trkpt lat="46.42911" lon="2.47296">
        <ele>354.6</ele>
        <time>2018-10-14T07:59:51Z</time>
      </trkpt>
      <trkpt lat="46.42904" lon="2.47297">
        <ele>355.1</ele>
        <time>2018-10-14T07:59:53Z</time>
      </trkpt>
      <trkpt lat="46.42897" lon="2.47298">
        <ele>355.4</ele>
        <time>2018-10-14T07:59:55Z</time>
      </trkpt>
      <trkpt lat="46.42891" lon="2.47299">
        <ele>355.3</ele>
        <time>2018-10-14T07:59:57Z</time>
      </trkpt>
      <trkpt lat="46.42885" lon="2.473">
        <ele>355.6</ele>
        <time>2018-10-14T07:59:59Z</time>
      </trkpt>
      <trkpt lat="46.42878" lon="2.47302">
        <ele>355.5</ele>
        <time>2018-10-14T08:00:01Z</time>
      </trkpt>
      <trkpt lat="46.42871" lon="2.47304">
        <ele>356.5</ele>
        <time>2018-10-14T08:00:03Z</time>
      </trkpt>
      <trkpt lat="46.42864" lon="2.47306">
        <ele>356.6</ele>
        <time>2018-10-14T08:00:05Z</time>
      </trkpt>
      <trkpt lat="46.42857" lon="2.47308">
        <ele>357</ele>
        <time>2018-10-14T08:00:07Z</time>
      </trkpt>
      <trkpt lat="46.42851" lon="2.4731">
        <ele>357.2</ele>
        <time>2018-10-14T08:00:09Z</time>
      </trkpt>
      <trkpt lat="46.42844" lon="2.47312">
        <ele>356.9</ele>
        <time>2018-10-14T08:00:11Z</time>
      </trkpt>
      <trkpt lat="46.42837" lon="2.47314">
        <ele>358.1</ele>
        <time>2018-10-14T08:00:13Z</time>
      </trkpt>
      <trkpt lat="46.42831" lon="2.47317">
        <ele>358.2</ele>
        <time>2018-10-14T08:00:15Z</time>
      </trkpt>
      <trkpt lat="46.42824" lon="2.4732">
        <ele>358.6</ele>
        <time>2018-10-14T08:00:17Z</time>
      </trkpt>
      <trkpt lat="46.42818" lon="2.47323">
        <ele>358.9</ele>
        <time>2018-10-14T08:00:19Z</time>
      </trkpt>
      <trkpt lat="46.42811" lon="2.47325">
        <ele>359.1</ele>
        <time>2018-10-14T08:00:21Z</time>
      </trkpt>
      <trkpt lat="46.42805" lon="2.47326">
        <ele>359.4</ele>
        <time>2018-10-14T08:00:23Z</time>
      </trkpt>
      <trkpt lat="46.42798" lon="2.47329">
        <ele>360.2</ele>
        <time>2018-10-14T08:00:25Z</time>
      </trkpt>
      <trkpt lat="46.42792" lon="2.47332">
        <ele>359.5</ele>
        <time>2018-10-14T08:00:27Z</time>
      </trkpt>
      <trkpt lat="46.42785" lon="2.47335">
        <ele>360.1</ele>
        <time>2018-10-14T08:00:29Z</time>
      </trkpt>
      <trkpt lat="46.42779" lon="2.47339">
        <ele>360.5</ele>
        <time>2018-10-14T08:00:31Z</time>
      </trkpt>
      <trkpt lat="46.42773" lon="2.47342">
        <ele>360.8</ele>
        <time>2018-10-14T08:00:33Z</time>
      </trkpt>
      <trkpt lat="46.42766" lon="2.47347">
        <ele>361</ele>
        <time>2018-10-14T08:00:35Z</time>
      </trkpt>
      <trkpt lat="46.4276" lon="2.47351">
        <ele>361</ele>
        <time>2018-10-14T08:00:37Z</time>
      </trkpt>
      <trkpt lat="46.42753" lon="2.47356">
        <ele>361</ele>
        <time>2018-10-14T08:00:39Z</time>
      </trkpt>
      <trkpt lat="46.42747" lon="2.47361">
        <ele>361.4</ele>
        <time>2018-10-14T08:00:41Z</time>
      </trkpt>
      <trkpt lat="46.4274" lon="2.47366">
        <ele>361.8</ele>
        <time>2018-10-14T08:00:43Z</time>
      </trkpt>
      <trkpt lat="46.42733" lon="2.47371">
        <ele>361.8</ele>
        <time>2018-10-14T08:00:45Z</time>
      </trkpt>
      <trkpt lat="46.42726" lon="2.47376">
        <ele>361.5</ele>
        <time>2018-10-14T08:00:47Z</time>
      </trkpt>
      <trkpt lat="46.42722" lon="2.47379">
        <ele>361.3</ele>
        <time>2018-10-14T08:00:48Z</time>
      </trkpt>
      <trkpt lat="46.42712" lon="2.47389">
        <ele>361.4</ele>
        <time>2018-10-14T08:00:51Z</time>
      </trkpt>
      <trkpt lat="46.42704" lon="2.47395">
        <ele>361.9</ele>
        <time>2018-10-14T08:00:53Z</time>
      </trkpt>
      <trkpt lat="46.42697" lon="2.47402">
        <ele>361.7</ele>
        <time>2018-10-14T08:00:55Z</time>
      </trkpt>
      <trkpt lat="46.4269" lon="2.47409">
        <ele>361.3</ele>
        <time>2018-10-14T08:00:57Z</time>
      </trkpt>
      <trkpt lat="46.42683" lon="2.47417">
        <ele>360.8</ele>
        <time>2018-10-14T08:00:59Z</time>
      </trkpt>
      <trkpt lat="46.42676" lon="2.47424">
        <ele>360.2</ele>
        <time>2018-10-14T08:01:01Z</time>
      </trkpt>
      <trkpt lat="46.42669" lon="2.47432">
        <ele>360.2</ele>
        <time>2018-10-14T08:01:03Z</time>
      </trkpt>
      <trkpt lat="46.42665" lon="2.47436">
        <ele>360.5</ele>
        <time>2018-10-14T08:01:04Z</time>
      </trkpt>
      <trkpt lat="46.42661" lon="2.47439">
        <ele>360.7</ele>
        <time>2018-10-14T08:01:05Z</time>
      </trkpt>
      <trkpt lat="46.42657" lon="2.47442">
        <ele>360.4</ele>
        <time>2018-10-14T08:01:06Z</time>
      </trkpt>
      <trkpt lat="46.42653" lon="2.47446">
        <ele>360.1</ele>
        <time>2018-10-14T08:01:07Z</time>
      </trkpt>
      <trkpt lat="46.4265" lon="2.4745">
        <ele>359.9</ele>
        <time>2018-10-14T08:01:08Z</time>
      </trkpt>
      <trkpt lat="46.42646" lon="2.47454">
        <ele>359.9</ele>
        <time>2018-10-14T08:01:09Z</time>
      </trkpt>
      <trkpt lat="46.42642" lon="2.47458">
        <ele>359.9</ele>
        <time>2018-10-14T08:01:10Z</time>
      </trkpt>
      <trkpt lat="46.42638" lon="2.47462">
        <ele>359.9</ele>
        <time>2018-10-14T08:01:11Z</time>
      </trkpt>
      <trkpt lat="46.42634" lon="2.47466">
        <ele>359.8</ele>
        <time>2018-10-14T08:01:12Z</time>
      </trkpt>
      <trkpt lat="46.4263" lon="2.4747">
        <ele>359.8</ele>
        <time>2018-10-14T08:01:13Z</time>
      </trkpt>
      <trkpt lat="46.42626" lon="2.47474">
        <ele>359.8</ele>
        <time>2018-10-14T08:01:14Z</time>
      </trkpt>
      <trkpt lat="46.42623" lon="2.47479">
        <ele>359.8</ele>
        <time>2018-10-14T08:01:15Z</time>
      </trkpt>
      <trkpt lat="46.42619" lon="2.47483">
        <ele>359.7</ele>
        <time>2018-10-14T08:01:16Z</time>
      </trkpt>
      <trkpt lat="46.42615" lon="2.47488">
        <ele>359.6</ele>
        <time>2018-10-14T08:01:17Z</time>
      </trkpt>
      <trkpt lat="46.42611" lon="2.47492">
        <ele>359.4</ele>
        <time>2018-10-14T08:01:18Z</time>
      </trkpt>
      <trkpt lat="46.42607" lon="2.47496">
        <ele>359.3</ele>
        <time>2018-10-14T08:01:19Z</time>
      </trkpt>
      <trkpt lat="46.42602" lon="2.47499">
        <ele>359.2</ele>
        <time>2018-10-14T08:01:20Z</time>
      </trkpt>
      <trkpt lat="46.42598" lon="2.47502">
        <ele>358.9</ele>
        <time>2018-10-14T08:01:21Z</time>
      </trkpt>
      <trkpt lat="46.42593" lon="2.47505">
        <ele>358.8</ele>
        <time>2018-10-14T08:01:22Z</time>
      </trkpt>
      <trkpt lat="46.42588" lon="2.47507">
        <ele>358.8</ele>
        <time>2018-10-14T08:01:23Z</time>
      </trkpt>
      <trkpt lat="46.42583" lon="2.47509">
        <ele>358.8</ele>
        <time>2018-10-14T08:01:24Z</time>
      </trkpt>
      <trkpt lat="46.42578" lon="2.47511">
        <ele>358.9</ele>
        <time>2018-10-14T08:01:25Z</time>
      </trkpt>
      <trkpt lat="46.42573" lon="2.47512">
        <ele>359</ele>
        <time>2018-10-14T08:01:26Z</time>
      </trkpt>
      <trkpt lat="46.42568" lon="2.47514">
        <ele>359.1</ele>
        <time>2018-10-14T08:01:27Z</time>
      </trkpt>
      <trkpt lat="46.42563" lon="2.47515">
        <ele>358.7</ele>
        <time>2018-10-14T08:01:28Z</time>
      </trkpt>
      <trkpt lat="46.42558" lon="2.47517">
        <ele>358.4</ele>
        <time>2018-10-14T08:01:29Z</time>
      </trkpt>
      <trkpt lat="46.42553" lon="2.47519">
        <ele>357.9</ele>
        <time>2018-10-14T08:01:30Z</time>
      </trkpt>
      <trkpt lat="46.42548" lon="2.4752">
        <ele>357.5</ele>
        <time>2018-10-14T08:01:31Z</time>
      </trkpt>
      <trkpt lat="46.42543" lon="2.47522">
        <ele>357.3</ele>
        <time>2018-10-14T08:01:32Z</time>
      </trkpt>
      <trkpt lat="46.42538" lon="2.47524">
        <ele>357.1</ele>
        <time>2018-10-14T08:01:33Z</time>
      </trkpt>
      <trkpt lat="46.42533" lon="2.47526">
        <ele>357.1</ele>
        <time>2018-10-14T08:01:34Z</time>
      </trkpt>
      <trkpt lat="46.42528" lon="2.47529">
        <ele>357</ele>
        <time>2018-10-14T08:01:35Z</time>
      </trkpt>
      <trkpt lat="46.42523" lon="2.47531">
        <ele>357</ele>
        <time>2018-10-14T08:01:36Z</time>
      </trkpt>
      <trkpt lat="46.42517" lon="2.47533">
        <ele>357</ele>
        <time>2018-10-14T08:01:37Z</time>
      </trkpt>
      <trkpt lat="46.42512" lon="2.47536">
        <ele>357.1</ele>
        <time>2018-10-14T08:01:38Z</time>
      </trkpt>
      <trkpt lat="46.42507" lon="2.47538">
        <ele>357.1</ele>
        <time>2018-10-14T08:01:39Z</time>
      </trkpt>
      <trkpt lat="46.42501" lon="2.4754">
        <ele>356.6</ele>
        <time>2018-10-14T08:01:40Z</time>
      </trkpt>
      <trkpt lat="46.42496" lon="2.47542">
        <ele>356.2</ele>
        <time>2018-10-14T08:01:41Z</time>
      </trkpt>
      <trkpt lat="46.42491" lon="2.47543">
        <ele>355.5</ele>
        <time>2018-10-14T08:01:42Z</time>
      </trkpt>
      <trkpt lat="46.42485" lon="2.47543">
        <ele>354.9</ele>
        <time>2018-10-14T08:01:43Z</time>
      </trkpt>
      <trkpt lat="46.4248" lon="2.47542">
        <ele>355</ele>
        <time>2018-10-14T08:01:44Z</time>
      </trkpt>
      <trkpt lat="46.42474" lon="2.47541">
        <ele>355</ele>
        <time>2018-10-14T08:01:45Z</time>
      </trkpt>
      <trkpt lat="46.42469" lon="2.47539">
        <ele>355.1</ele>
        <time>2018-10-14T08:01:46Z</time>
      </trkpt>
      <trkpt lat="46.42464" lon="2.47538">
        <ele>354.8</ele>
        <time>2018-10-14T08:01:47Z</time>
      </trkpt>
      <trkpt lat="46.42459" lon="2.47535">
        <ele>354.6</ele>
        <time>2018-10-14T08:01:48Z</time>
      </trkpt>
      <trkpt lat="46.42454" lon="2.47533">
        <ele>354.7</ele>
        <time>2018-10-14T08:01:49Z</time>
      </trkpt>
      <trkpt lat="46.42449" lon="2.47531">
        <ele>354.8</ele>
        <time>2018-10-14T08:01:50Z</time>
      </trkpt>
      <trkpt lat="46.42444" lon="2.47529">
        <ele>354.9</ele>
        <time>2018-10-14T08:01:51Z</time>
      </trkpt>
      <trkpt lat="46.42439" lon="2.47527">
        <ele>354.5</ele>
        <time>2018-10-14T08:01:52Z</time>
      </trkpt>
      <trkpt lat="46.42434" lon="2.47525">
        <ele>354.2</ele>
        <time>2018-10-14T08:01:53Z</time>
      </trkpt>
      <trkpt lat="46.42429" lon="2.47523">
        <ele>353.7</ele>
        <time>2018-10-14T08:01:54Z</time>
      </trkpt>
      <trkpt lat="46.42424" lon="2.47521">
        <ele>353.4</ele>
        <time>2018-10-14T08:01:55Z</time>
      </trkpt>
      <trkpt lat="46.42419" lon="2.47519">
        <ele>353.4</ele>
        <time>2018-10-14T08:01:56Z</time>
      </trkpt>
      <trkpt lat="46.42414" lon="2.47518">
        <ele>353.4</ele>
        <time>2018-10-14T08:01:57Z</time>
      </trkpt>
      <trkpt lat="46.42408" lon="2.47517">
        <ele>353.3</ele>
        <time>2018-10-14T08:01:58Z</time>
      </trkpt>
      <trkpt lat="46.42403" lon="2.47516">
        <ele>352.9</ele>
        <time>2018-10-14T08:01:59Z</time>
      </trkpt>
      <trkpt lat="46.42397" lon="2.47515">
        <ele>352.5</ele>
        <time>2018-10-14T08:02:00Z</time>
      </trkpt>
      <trkpt lat="46.42391" lon="2.47515">
        <ele>352.2</ele>
        <time>2018-10-14T08:02:01Z</time>
      </trkpt>
      <trkpt lat="46.42385" lon="2.47515">
        <ele>352</ele>
        <time>2018-10-14T08:02:02Z</time>
      </trkpt>
      <trkpt lat="46.4238" lon="2.47514">
        <ele>352.3</ele>
        <time>2018-10-14T08:02:03Z</time>
      </trkpt>
      <trkpt lat="46.42374" lon="2.47514">
        <ele>352.5</ele>
        <time>2018-10-14T08:02:04Z</time>
      </trkpt>
      <trkpt lat="46.42368" lon="2.47513">
        <ele>352.6</ele>
        <time>2018-10-14T08:02:05Z</time>
      </trkpt>
      <trkpt lat="46.42362" lon="2.47513">
        <ele>352</ele>
        <time>2018-10-14T08:02:06Z</time>
      </trkpt>
      <trkpt lat="46.42357" lon="2.47513">
        <ele>351.6</ele>
        <time>2018-10-14T08:02:07Z</time>
      </trkpt>
      <trkpt lat="46.42351" lon="2.47513">
        <ele>351.3</ele>
        <time>2018-10-14T08:02:08Z</time>
      </trkpt>
      <trkpt lat="46.42345" lon="2.47512">
        <ele>351.2</ele>
        <time>2018-10-14T08:02:09Z</time>
      </trkpt>
      <trkpt lat="46.42339" lon="2.47512">
        <ele>350.7</ele>
        <time>2018-10-14T08:02:10Z</time>
      </trkpt>
      <trkpt lat="46.42334" lon="2.47512">
        <ele>350.4</ele>
        <time>2018-10-14T08:02:11Z</time>
      </trkpt>
      <trkpt lat="46.42328" lon="2.47512">
        <ele>350.2</ele>
        <time>2018-10-14T08:02:12Z</time>
      </trkpt>
      <trkpt lat="46.42322" lon="2.47511">
        <ele>349.9</ele>
        <time>2018-10-14T08:02:13Z</time>
      </trkpt>
      <trkpt lat="46.42317" lon="2.47511">
        <ele>349.6</ele>
        <time>2018-10-14T08:02:14Z</time>
      </trkpt>
      <trkpt lat="46.42311" lon="2.47511">
        <ele>349.5</ele>
        <time>2018-10-14T08:02:15Z</time>
      </trkpt>
      <trkpt lat="46.42305" lon="2.4751">
        <ele>349.4</ele>
        <time>2018-10-14T08:02:16Z</time>
      </trkpt>
      <trkpt lat="46.423" lon="2.4751">
        <ele>349.3</ele>
        <time>2018-10-14T08:02:17Z</time>
      </trkpt>
      <trkpt lat="46.42294" lon="2.4751">
        <ele>349</ele>
        <time>2018-10-14T08:02:18Z</time>
      </trkpt>
      <trkpt lat="46.42289" lon="2.4751">
        <ele>348.7</ele>
        <time>2018-10-14T08:02:19Z</time>
      </trkpt>
      <trkpt lat="46.42283" lon="2.47509">
        <ele>348.5</ele>
        <time>2018-10-14T08:02:20Z</time>
      </trkpt>
      <trkpt lat="46.42278" lon="2.47509">
        <ele>348.4</ele>
        <time>2018-10-14T08:02:21Z</time>
      </trkpt>
      <trkpt lat="46.42273" lon="2.47509">
        <ele>348.2</ele>
        <time>2018-10-14T08:02:22Z</time>
      </trkpt>
      <trkpt lat="46.42268" lon="2.47508">
        <ele>348</ele>
        <time>2018-10-14T08:02:23Z</time>
      </trkpt>
      <trkpt lat="46.42262" lon="2.47508">
        <ele>347.9</ele>
        <time>2018-10-14T08:02:24Z</time>
      </trkpt>
      <trkpt lat="46.42257" lon="2.47508">
        <ele>348</ele>
        <time>2018-10-14T08:02:25Z</time>
      </trkpt>
      <trkpt lat="46.42251" lon="2.47508">
        <ele>348.1</ele>
        <time>2018-10-14T08:02:26Z</time>
      </trkpt>
      <trkpt lat="46.42246" lon="2.47508">
        <ele>348.1</ele>
        <time>2018-10-14T08:02:27Z</time>
      </trkpt>
      <trkpt lat="46.4224" lon="2.47508">
        <ele>348</ele>
        <time>2018-10-14T08:02:28Z</time>
      </trkpt>
      <trkpt lat="46.42235" lon="2.47508">
        <ele>348</ele>
        <time>2018-10-14T08:02:29Z</time>
      </trkpt>
      <trkpt lat="46.42229" lon="2.47508">
        <ele>347.9</ele>
        <time>2018-10-14T08:02:30Z</time>
      </trkpt>
      <trkpt lat="46.42223" lon="2.47508">
        <ele>347.8</ele>
        <time>2018-10-14T08:02:31Z</time>
      </trkpt>
      <trkpt lat="46.42218" lon="2.47508">
        <ele>347.6</ele>
        <time>2018-10-14T08:02:32Z</time>
      </trkpt>
      <trkpt lat="46.42209" lon="2.47507">
        <ele>347.2</ele>
        <time>2018-10-14T08:02:34Z</time>
      </trkpt>
      <trkpt lat="46.42201" lon="2.47503">
        <ele>346.8</ele>
        <time>2018-10-14T08:02:36Z</time>
      </trkpt>
      <trkpt lat="46.42193" lon="2.47497">
        <ele>346.6</ele>
        <time>2018-10-14T08:02:38Z</time>
      </trkpt>
      <trkpt lat="46.4219" lon="2.47492">
        <ele>346.2</ele>
        <time>2018-10-14T08:02:39Z</time>
      </trkpt>
      <trkpt lat="46.42186" lon="2.47488">
        <ele>345.9</ele>
        <time>2018-10-14T08:02:40Z</time>
      </trkpt>
      <trkpt lat="46.42183" lon="2.47483">
        <ele>345.7</ele>
        <time>2018-10-14T08:02:41Z</time>
      </trkpt>
      <trkpt lat="46.42178" lon="2.4748">
        <ele>345.6</ele>
        <time>2018-10-14T08:02:42Z</time>
      </trkpt>
      <trkpt lat="46.42173" lon="2.47477">
        <ele>345.5</ele>
        <time>2018-10-14T08:02:43Z</time>
      </trkpt>
      <trkpt lat="46.42168" lon="2.47474">
        <ele>345.2</ele>
        <time>2018-10-14T08:02:44Z</time>
      </trkpt>
      <trkpt lat="46.42162" lon="2.47471">
        <ele>344.9</ele>
        <time>2018-10-14T08:02:45Z</time>
      </trkpt>
      <trkpt lat="46.42157" lon="2.47467">
        <ele>344.4</ele>
        <time>2018-10-14T08:02:46Z</time>
      </trkpt>
      <trkpt lat="46.42151" lon="2.47464">
        <ele>344</ele>
        <time>2018-10-14T08:02:47Z</time>
      </trkpt>
      <trkpt lat="46.42145" lon="2.47461">
        <ele>343.7</ele>
        <time>2018-10-14T08:02:48Z</time>
      </trkpt>
      <trkpt lat="46.42139" lon="2.47458">
        <ele>343.2</ele>
        <time>2018-10-14T08:02:49Z</time>
      </trkpt>
      <trkpt lat="46.42134" lon="2.47452">
        <ele>342.8</ele>
        <time>2018-10-14T08:02:50Z</time>
      </trkpt>
      <trkpt lat="46.42132" lon="2.47445">
        <ele>342.7</ele>
        <time>2018-10-14T08:02:51Z</time>
      </trkpt>
      <trkpt lat="46.4213" lon="2.47436">
        <ele>342.6</ele>
        <time>2018-10-14T08:02:52Z</time>
      </trkpt>
      <trkpt lat="46.42129" lon="2.47428">
        <ele>341.9</ele>
        <time>2018-10-14T08:02:53Z</time>
      </trkpt>
      <trkpt lat="46.42127" lon="2.47419">
        <ele>341.4</ele>
        <time>2018-10-14T08:02:54Z</time>
      </trkpt>
      <trkpt lat="46.42123" lon="2.47412">
        <ele>341</ele>
        <time>2018-10-14T08:02:55Z</time>
      </trkpt>
      <trkpt lat="46.42117" lon="2.47408">
        <ele>340.6</ele>
        <time>2018-10-14T08:02:56Z</time>
      </trkpt>
      <trkpt lat="46.42111" lon="2.47406">
        <ele>340.3</ele>
        <time>2018-10-14T08:02:57Z</time>
      </trkpt>
      <trkpt lat="46.42105" lon="2.47406">
        <ele>340.4</ele>
        <time>2018-10-14T08:02:58Z</time>
      </trkpt>
      <trkpt lat="46.42099" lon="2.47406">
        <ele>340.5</ele>
        <time>2018-10-14T08:02:59Z</time>
      </trkpt>
      <trkpt lat="46.42093" lon="2.47406">
        <ele>339.9</ele>
        <time>2018-10-14T08:03:00Z</time>
      </trkpt>
      <trkpt lat="46.42087" lon="2.47406">
        <ele>339.5</ele>
        <time>2018-10-14T08:03:01Z</time>
      </trkpt>
      <trkpt lat="46.4208" lon="2.47405">
        <ele>339.1</ele>
        <time>2018-10-14T08:03:02Z</time>
      </trkpt>
      <trkpt lat="46.42075" lon="2.47404">
        <ele>339.4</ele>
        <time>2018-10-14T08:03:03Z</time>
      </trkpt>
      <trkpt lat="46.42069" lon="2.47404">
        <ele>339.6</ele>
        <time>2018-10-14T08:03:04Z</time>
      </trkpt>
      <trkpt lat="46.42063" lon="2.47403">
        <ele>339.7</ele>
        <time>2018-10-14T08:03:05Z</time>
      </trkpt>
      <trkpt lat="46.42057" lon="2.47403">
        <ele>339.7</ele>
        <time>2018-10-14T08:03:06Z</time>
      </trkpt>
      <trkpt lat="46.42052" lon="2.47403">
        <ele>339.3</ele>
        <time>2018-10-14T08:03:07Z</time>
      </trkpt>
      <trkpt lat="46.42046" lon="2.47402">
        <ele>339</ele>
        <time>2018-10-14T08:03:08Z</time>
      </trkpt>
      <trkpt lat="46.42041" lon="2.47403">
        <ele>338.7</ele>
        <time>2018-10-14T08:03:09Z</time>
      </trkpt>
      <trkpt lat="46.42036" lon="2.47405">
        <ele>338.9</ele>
        <time>2018-10-14T08:03:10Z</time>
      </trkpt>
      <trkpt lat="46.42031" lon="2.4741">
        <ele>339.1</ele>
        <time>2018-10-14T08:03:11Z</time>
      </trkpt>
      <trkpt lat="46.42026" lon="2.47416">
        <ele>338</ele>
        <time>2018-10-14T08:03:12Z</time>
      </trkpt>
      <trkpt lat="46.42021" lon="2.47423">
        <ele>337.3</ele>
        <time>2018-10-14T08:03:13Z</time>
      </trkpt>
      <trkpt lat="46.42015" lon="2.4743">
        <ele>336.7</ele>
        <time>2018-10-14T08:03:14Z</time>
      </trkpt>
      <trkpt lat="46.42011" lon="2.47436">
        <ele>336.2</ele>
        <time>2018-10-14T08:03:15Z</time>
      </trkpt>
      <trkpt lat="46.42007" lon="2.47441">
        <ele>335.8</ele>
        <time>2018-10-14T08:03:16Z</time>
      </trkpt>
      <trkpt lat="46.42002" lon="2.47446">
        <ele>335.1</ele>
        <time>2018-10-14T08:03:17Z</time>
      </trkpt>
      <trkpt lat="46.41995" lon="2.47449">
        <ele>334.6</ele>
        <time>2018-10-14T08:03:18Z</time>
      </trkpt>
      <trkpt lat="46.41989" lon="2.4745">
        <ele>334.4</ele>
        <time>2018-10-14T08:03:19Z</time>
      </trkpt>
      <trkpt lat="46.41981" lon="2.4745">
        <ele>334.3</ele>
        <time>2018-10-14T08:03:20Z</time>
      </trkpt>
      <trkpt lat="46.41974" lon="2.4745">
        <ele>334.2</ele>
        <time>2018-10-14T08:03:21Z</time>
      </trkpt>
      <trkpt lat="46.41966" lon="2.47451">
        <ele>333.9</ele>
        <time>2018-10-14T08:03:22Z</time>
      </trkpt>
      <trkpt lat="46.41958" lon="2.47455">
        <ele>333.7</ele>
        <time>2018-10-14T08:03:23Z</time>
      </trkpt>
      <trkpt lat="46.41951" lon="2.4746">
        <ele>333.1</ele>
        <time>2018-10-14T08:03:24Z</time>
      </trkpt>
      <trkpt lat="46.41944" lon="2.47465">
        <ele>332.6</ele>
        <time>2018-10-14T08:03:25Z</time>
      </trkpt>
      <trkpt lat="46.41937" lon="2.4747">
        <ele>331.7</ele>
        <time>2018-10-14T08:03:26Z</time>
      </trkpt>
      <trkpt lat="46.41929" lon="2.47476">
        <ele>331</ele>
        <time>2018-10-14T08:03:27Z</time>
      </trkpt>
      <trkpt lat="46.41922" lon="2.47482">
        <ele>330.5</ele>
        <time>2018-10-14T08:03:28Z</time>
      </trkpt>
      <trkpt lat="46.41914" lon="2.47489">
        <ele>329.8</ele>
        <time>2018-10-14T08:03:29Z</time>
      </trkpt>
      <trkpt lat="46.41906" lon="2.47495">
        <ele>329.3</ele>
        <time>2018-10-14T08:03:30Z</time>
      </trkpt>
      <trkpt lat="46.41898" lon="2.47502">
        <ele>328.4</ele>
        <time>2018-10-14T08:03:31Z</time>
      </trkpt>
      <trkpt lat="46.41889" lon="2.47508">
        <ele>327.8</ele>
        <time>2018-10-14T08:03:32Z</time>
      </trkpt>
      <trkpt lat="46.4188" lon="2.47515">
        <ele>327.3</ele>
        <time>2018-10-14T08:03:33Z</time>
      </trkpt>
      <trkpt lat="46.41871" lon="2.47523">
        <ele>326</ele>
        <time>2018-10-14T08:03:34Z</time>
      </trkpt>
      <trkpt lat="46.41862" lon="2.4753">
        <ele>325.1</ele>
        <time>2018-10-14T08:03:35Z</time>
      </trkpt>
      <trkpt lat="46.41852" lon="2.47538">
        <ele>323.9</ele>
        <time>2018-10-14T08:03:36Z</time>
      </trkpt>
      <trkpt lat="46.41843" lon="2.47546">
        <ele>323</ele>
        <time>2018-10-14T08:03:37Z</time>
      </trkpt>
      <trkpt lat="46.41833" lon="2.47553">
        <ele>321.7</ele>
        <time>2018-10-14T08:03:38Z</time>
      </trkpt>
      <trkpt lat="46.41824" lon="2.4756">
        <ele>320.6</ele>
        <time>2018-10-14T08:03:39Z</time>
      </trkpt>
      <trkpt lat="46.41815" lon="2.47566">
        <ele>319.8</ele>
        <time>2018-10-14T08:03:40Z</time>
      </trkpt>
      <trkpt lat="46.41806" lon="2.47569">
        <ele>317.9</ele>
        <time>2018-10-14T08:03:41Z</time>
      </trkpt>
      <trkpt lat="46.41795" lon="2.47572">
        <ele>316.5</ele>
        <time>2018-10-14T08:03:42Z</time>
      </trkpt>
      <trkpt lat="46.41785" lon="2.47574">
        <ele>315.5</ele>
        <time>2018-10-14T08:03:43Z</time>
      </trkpt>
      <trkpt lat="46.41775" lon="2.47576">
        <ele>314.7</ele>
        <time>2018-10-14T08:03:44Z</time>
      </trkpt>
      <trkpt lat="46.41764" lon="2.47578">
        <ele>312.6</ele>
        <time>2018-10-14T08:03:45Z</time>
      </trkpt>
      <trkpt lat="46.41754" lon="2.47579">
        <ele>311</ele>
        <time>2018-10-14T08:03:46Z</time>
      </trkpt>
      <trkpt lat="46.41743" lon="2.4758">
        <ele>309.8</ele>
        <time>2018-10-14T08:03:47Z</time>
      </trkpt>
      <trkpt lat="46.41733" lon="2.47581">
        <ele>307.7</ele>
        <time>2018-10-14T08:03:48Z</time>
      </trkpt>
      <trkpt lat="46.41722" lon="2.47582">
        <ele>306.2</ele>
        <time>2018-10-14T08:03:49Z</time>
      </trkpt>
      <trkpt lat="46.41712" lon="2.47584">
        <ele>303.7</ele>
        <time>2018-10-14T08:03:50Z</time>
      </trkpt>
      <trkpt lat="46.41701" lon="2.47586">
        <ele>301.8</ele>
        <time>2018-10-14T08:03:51Z</time>
      </trkpt>
      <trkpt lat="46.41691" lon="2.47587">
        <ele>300.4</ele>
        <time>2018-10-14T08:03:52Z</time>
      </trkpt>
      <trkpt lat="46.41681" lon="2.47588">
        <ele>298.4</ele>
        <time>2018-10-14T08:03:53Z</time>
      </trkpt>
      <trkpt lat="46.41672" lon="2.47588">
        <ele>297</ele>
        <time>2018-10-14T08:03:54Z</time>
      </trkpt>
      <trkpt lat="46.41664" lon="2.47589">
        <ele>294.9</ele>
        <time>2018-10-14T08:03:55Z</time>
      </trkpt>
      <trkpt lat="46.41655" lon="2.47591">
        <ele>293.4</ele>
        <time>2018-10-14T08:03:56Z</time>
      </trkpt>
      <trkpt lat="46.41646" lon="2.47593">
        <ele>291</ele>
        <time>2018-10-14T08:03:57Z</time>
      </trkpt>
      <trkpt lat="46.41638" lon="2.47595">
        <ele>289.2</ele>
        <time>2018-10-14T08:03:58Z</time>
      </trkpt>
      <trkpt lat="46.4163" lon="2.47599">
        <ele>287.8</ele>
        <time>2018-10-14T08:03:59Z</time>
      </trkpt>
      <trkpt lat="46.41623" lon="2.47603">
        <ele>285.7</ele>
        <time>2018-10-14T08:04:00Z</time>
      </trkpt>
      <trkpt lat="46.41616" lon="2.47608">
        <ele>284.2</ele>
        <time>2018-10-14T08:04:01Z</time>
      </trkpt>
      <trkpt lat="46.4161" lon="2.47612">
        <ele>282.6</ele>
        <time>2018-10-14T08:04:02Z</time>
      </trkpt>
      <trkpt lat="46.41604" lon="2.47617">
        <ele>281.5</ele>
        <time>2018-10-14T08:04:03Z</time>
      </trkpt>
      <trkpt lat="46.41599" lon="2.4762">
        <ele>279.8</ele>
        <time>2018-10-14T08:04:04Z</time>
      </trkpt>
      <trkpt lat="46.4159" lon="2.47622">
        <ele>277.7</ele>
        <time>2018-10-14T08:04:06Z</time>
      </trkpt>
      <trkpt lat="46.41586" lon="2.47617">
        <ele>275.7</ele>
        <time>2018-10-14T08:04:08Z</time>
      </trkpt>
      <trkpt lat="46.41582" lon="2.47605">
        <ele>273.1</ele>
        <time>2018-10-14T08:04:10Z</time>
      </trkpt>
      <trkpt lat="46.41581" lon="2.47598">
        <ele>272.3</ele>
        <time>2018-10-14T08:04:11Z</time>
      </trkpt>
      <trkpt lat="46.41579" lon="2.4759">
        <ele>271.9</ele>
        <time>2018-10-14T08:04:12Z</time>
      </trkpt>
      <trkpt lat="46.41578" lon="2.4758">
        <ele>271.7</ele>
        <time>2018-10-14T08:04:13Z</time>
      </trkpt>
      <trkpt lat="46.41576" lon="2.47571">
        <ele>271.2</ele>
        <time>2018-10-14T08:04:14Z</time>
      </trkpt>
      <trkpt lat="46.41574" lon="2.47562">
        <ele>270.9</ele>
        <time>2018-10-14T08:04:15Z</time>
      </trkpt>
      <trkpt lat="46.41573" lon="2.47553">
        <ele>270.3</ele>
        <time>2018-10-14T08:04:16Z</time>
      </trkpt>
      <trkpt lat="46.41572" lon="2.47544">
        <ele>269.8</ele>
        <time>2018-10-14T08:04:17Z</time>
      </trkpt>
      <trkpt lat="46.4157" lon="2.47537">
        <ele>269.5</ele>
        <time>2018-10-14T08:04:18Z</time>
      </trkpt>
      <trkpt lat="46.41569" lon="2.47529">
        <ele>269.6</ele>
        <time>2018-10-14T08:04:19Z</time>
      </trkpt>
      <trkpt lat="46.41568" lon="2.47522">
        <ele>269.6</ele>
        <time>2018-10-14T08:04:20Z</time>
      </trkpt>
      <trkpt lat="46.41568" lon="2.47515">
        <ele>269.7</ele>
        <time>2018-10-14T08:04:21Z</time>
      </trkpt>
      <trkpt lat="46.41567" lon="2.47509">
        <ele>269.8</ele>
        <time>2018-10-14T08:04:22Z</time>
      </trkpt>
      <trkpt lat="46.41565" lon="2.47496">
        <ele>270.2</ele>
        <time>2018-10-14T08:04:24Z</time>
      </trkpt>
      <trkpt lat="46.41564" lon="2.47485">
        <ele>270.8</ele>
        <time>2018-10-14T08:04:26Z</time>
      </trkpt>
      <trkpt lat="46.41562" lon="2.47475">
        <ele>270.8</ele>
        <time>2018-10-14T08:04:28Z</time>
      </trkpt>
      <trkpt lat="46.41556" lon="2.4747">
        <ele>270.3</ele>
        <time>2018-10-14T08:04:30Z</time>
      </trkpt>
      <trkpt lat="46.41551" lon="2.47471">
        <ele>270.1</ele>
        <time>2018-10-14T08:04:31Z</time>
      </trkpt>
      <trkpt lat="46.41545" lon="2.47473">
        <ele>270</ele>
        <time>2018-10-14T08:04:32Z</time>
      </trkpt>
      <trkpt lat="46.41538" lon="2.47476">
        <ele>269.2</ele>
        <time>2018-10-14T08:04:33Z</time>
      </trkpt>
      <trkpt lat="46.41531" lon="2.47479">
        <ele>268.5</ele>
        <time>2018-10-14T08:04:34Z</time>
      </trkpt>
      <trkpt lat="46.41524" lon="2.47482">
        <ele>268</ele>
        <time>2018-10-14T08:04:35Z</time>
      </trkpt>
      <trkpt lat="46.41516" lon="2.47485">
        <ele>267.6</ele>
        <time>2018-10-14T08:04:36Z</time>
      </trkpt>
      <trkpt lat="46.41509" lon="2.47488">
        <ele>267.3</ele>
        <time>2018-10-14T08:04:37Z</time>
      </trkpt>
      <trkpt lat="46.41503" lon="2.4749">
        <ele>266.7</ele>
        <time>2018-10-14T08:04:38Z</time>
      </trkpt>
      <trkpt lat="46.41495" lon="2.47492">
        <ele>266</ele>
        <time>2018-10-14T08:04:40Z</time>
      </trkpt>
      <trkpt lat="46.41487" lon="2.47492">
        <ele>265.7</ele>
        <time>2018-10-14T08:04:42Z</time>
      </trkpt>
      <trkpt lat="46.41479" lon="2.47492">
        <ele>265.6</ele>
        <time>2018-10-14T08:04:44Z</time>
      </trkpt>
      <trkpt lat="46.4147" lon="2.47492">
        <ele>265.4</ele>
        <time>2018-10-14T08:04:47Z</time>
      </trkpt>
      <trkpt lat="46.41461" lon="2.4749">
        <ele>265.1</ele>
        <time>2018-10-14T08:04:50Z</time>
      </trkpt>
      <trkpt lat="46.41455" lon="2.47489">
        <ele>265.2</ele>
        <time>2018-10-14T08:04:52Z</time>
      </trkpt>
      <trkpt lat="46.41452" lon="2.47489">
        <ele>265.4</ele>
        <time>2018-10-14T08:04:53Z</time>
      </trkpt>
      <trkpt lat="46.41438" lon="2.47486">
        <ele>265.4</ele>
        <time>2018-10-14T08:04:58Z</time>
      </trkpt>
      <trkpt lat="46.41431" lon="2.47485">
        <ele>265.7</ele>
        <time>2018-10-14T08:05:01Z</time>
      </trkpt>
      <trkpt lat="46.41423" lon="2.47484">
        <ele>266.2</ele>
        <time>2018-10-14T08:05:04Z</time>
      </trkpt>
      <trkpt lat="46.41415" lon="2.47483">
        <ele>266.7</ele>
        <time>2018-10-14T08:05:07Z</time>
      </trkpt>
      <trkpt lat="46.41407" lon="2.47484">
        <ele>267.5</ele>
        <time>2018-10-14T08:05:11Z</time>
      </trkpt>
      <trkpt lat="46.41402" lon="2.47494">
        <ele>270.6</ele>
        <time>2018-10-14T08:05:19Z</time>
      </trkpt>
      <trkpt lat="46.41398" lon="2.47505">
        <ele>271.7</ele>
        <time>2018-10-14T08:05:26Z</time>
      </trkpt>
      <trkpt lat="46.41397" lon="2.47517">
        <ele>273.9</ele>
        <time>2018-10-14T08:05:34Z</time>
      </trkpt>
      <trkpt lat="46.41395" lon="2.4753">
        <ele>275.5</ele>
        <time>2018-10-14T08:05:42Z</time>
      </trkpt>
      <trkpt lat="46.41394" lon="2.47541">
        <ele>276.9</ele>
        <time>2018-10-14T08:05:49Z</time>
      </trkpt>
      <trkpt lat="46.41392" lon="2.47553">
        <ele>277.8</ele>
        <time>2018-10-14T08:05:58Z</time>
      </trkpt>
      <trkpt lat="46.41392" lon="2.47554">
        <ele>278</ele>
        <time>2018-10-14T08:05:59Z</time>
      </trkpt>
      <trkpt lat="46.41395" lon="2.47576">
        <ele>279</ele>
        <time>2018-10-14T08:06:09Z</time>
      </trkpt>
      <trkpt lat="46.41397" lon="2.47587">
        <ele>280.1</ele>
        <time>2018-10-14T08:06:13Z</time>
      </trkpt>
      <trkpt lat="46.41397" lon="2.47599">
        <ele>281.2</ele>
        <time>2018-10-14T08:06:17Z</time>
      </trkpt>
      <trkpt lat="46.41395" lon="2.47608">
        <ele>281.1</ele>
        <time>2018-10-14T08:06:20Z</time>
      </trkpt>
      <trkpt lat="46.41392" lon="2.47618">
        <ele>281.7</ele>
        <time>2018-10-14T08:06:23Z</time>
      </trkpt>
      <trkpt lat="46.41389" lon="2.47627">
        <ele>281.7</ele>
        <time>2018-10-14T08:06:26Z</time>
      </trkpt>
      <trkpt lat="46.41387" lon="2.47637">
        <ele>282.2</ele>
        <time>2018-10-14T08:06:29Z</time>
      </trkpt>
      <trkpt lat="46.41386" lon="2.47648">
        <ele>282.9</ele>
        <time>2018-10-14T08:06:32Z</time>
      </trkpt>
      <trkpt lat="46.41386" lon="2.47658">
        <ele>283.1</ele>
        <time>2018-10-14T08:06:35Z</time>
      </trkpt>
      <trkpt lat="46.41386" lon="2.4767">
        <ele>283.8</ele>
        <time>2018-10-14T08:06:38Z</time>
      </trkpt>
      <trkpt lat="46.41385" lon="2.47681">
        <ele>283.8</ele>
        <time>2018-10-14T08:06:41Z</time>
      </trkpt>
      <trkpt lat="46.41382" lon="2.47691">
        <ele>284.2</ele>
        <time>2018-10-14T08:06:44Z</time>
      </trkpt>
      <trkpt lat="46.41382" lon="2.47702">
        <ele>285</ele>
        <time>2018-10-14T08:06:48Z</time>
      </trkpt>
      <trkpt lat="46.41382" lon="2.47714">
        <ele>286.5</ele>
        <time>2018-10-14T08:06:53Z</time>
      </trkpt>
      <trkpt lat="46.41381" lon="2.47727">
        <ele>287.5</ele>
        <time>2018-10-14T08:06:59Z</time>
      </trkpt>
      <trkpt lat="46.41381" lon="2.47728">
        <ele>288.1</ele>
        <time>2018-10-14T08:07:00Z</time>
      </trkpt>
      <trkpt lat="46.41375" lon="2.4775">
        <ele>291.1</ele>
        <time>2018-10-14T08:07:14Z</time>
      </trkpt>
      <trkpt lat="46.41371" lon="2.47762">
        <ele>293</ele>
        <time>2018-10-14T08:07:25Z</time>
      </trkpt>
      <trkpt lat="46.41365" lon="2.47772">
        <ele>295</ele>
        <time>2018-10-14T08:07:35Z</time>
      </trkpt>
      <trkpt lat="46.41359" lon="2.4778">
        <ele>296.9</ele>
        <time>2018-10-14T08:07:45Z</time>
      </trkpt>
      <trkpt lat="46.41352" lon="2.47786">
        <ele>299.1</ele>
        <time>2018-10-14T08:07:56Z</time>
      </trkpt>
      <trkpt lat="46.41344" lon="2.47791">
        <ele>300.7</ele>
        <time>2018-10-14T08:08:06Z</time>
      </trkpt>
      <trkpt lat="46.41343" lon="2.47792">
        <ele>300.7</ele>
        <time>2018-10-14T08:08:07Z</time>
      </trkpt>
      <trkpt lat="46.41327" lon="2.47796">
        <ele>305</ele>
        <time>2018-10-14T08:08:26Z</time>
      </trkpt>
      <trkpt lat="46.41318" lon="2.47796">
        <ele>307.4</ele>
        <time>2018-10-14T08:08:38Z</time>
      </trkpt>
      <trkpt lat="46.4131" lon="2.47796">
        <ele>309.4</ele>
        <time>2018-10-14T08:08:49Z</time>
      </trkpt>
      <trkpt lat="46.41301" lon="2.47798">
        <ele>310.1</ele>
        <time>2018-10-14T08:09:00Z</time>
      </trkpt>
      <trkpt lat="46.41293" lon="2.47798">
        <ele>311.9</ele>
        <time>2018-10-14T08:09:10Z</time>
      </trkpt>
      <trkpt lat="46.41292" lon="2.47798">
        <ele>312.1</ele>
        <time>2018-10-14T08:09:11Z</time>
      </trkpt>
      <trkpt lat="46.41277" lon="2.478">
        <ele>316.6</ele>
        <time>2018-10-14T08:09:29Z</time>
      </trkpt>
      <trkpt lat="46.41269" lon="2.47803">
        <ele>317.6</ele>
        <time>2018-10-14T08:09:39Z</time>
      </trkpt>
      <trkpt lat="46.41261" lon="2.47806">
        <ele>319.3</ele>
        <time>2018-10-14T08:09:48Z</time>
      </trkpt>
      <trkpt lat="46.41253" lon="2.47806">
        <ele>321.3</ele>
        <time>2018-10-14T08:09:56Z</time>
      </trkpt>
      <trkpt lat="46.41245" lon="2.47801">
        <ele>322</ele>
        <time>2018-10-14T08:10:05Z</time>
      </trkpt>
      <trkpt lat="46.41239" lon="2.47793">
        <ele>324.3</ele>
        <time>2018-10-14T08:10:14Z</time>
      </trkpt>
      <trkpt lat="46.41238" lon="2.47792">
        <ele>324.4</ele>
        <time>2018-10-14T08:10:15Z</time>
      </trkpt>
      <trkpt lat="46.41228" lon="2.47775">
        <ele>326.8</ele>
        <time>2018-10-14T08:10:29Z</time>
      </trkpt>
      <trkpt lat="46.41221" lon="2.47767">
        <ele>327.4</ele>
        <time>2018-10-14T08:10:36Z</time>
      </trkpt>
      <trkpt lat="46.41216" lon="2.47757">
        <ele>327.6</ele>
        <time>2018-10-14T08:10:42Z</time>
      </trkpt>
      <trkpt lat="46.41211" lon="2.47749">
        <ele>328.6</ele>
        <time>2018-10-14T08:10:46Z</time>
      </trkpt>
      <trkpt lat="46.41207" lon="2.4774">
        <ele>329</ele>
        <time>2018-10-14T08:10:49Z</time>
      </trkpt>
      <trkpt lat="46.41201" lon="2.47732">
        <ele>329.3</ele>
        <time>2018-10-14T08:10:52Z</time>
      </trkpt>
      <trkpt lat="46.41196" lon="2.47724">
        <ele>329.7</ele>
        <time>2018-10-14T08:10:55Z</time>
      </trkpt>
      <trkpt lat="46.41189" lon="2.47718">
        <ele>329.8</ele>
        <time>2018-10-14T08:10:58Z</time>
      </trkpt>
      <trkpt lat="46.41182" lon="2.47719">
        <ele>330</ele>
        <time>2018-10-14T08:11:01Z</time>
      </trkpt>
      <trkpt lat="46.41174" lon="2.47722">
        <ele>330.7</ele>
        <time>2018-10-14T08:11:04Z</time>
      </trkpt>
      <trkpt lat="46.41166" lon="2.47726">
        <ele>330.9</ele>
        <time>2018-10-14T08:11:07Z</time>
      </trkpt>
      <trkpt lat="46.41158" lon="2.47729">
        <ele>331.3</ele>
        <time>2018-10-14T08:11:10Z</time>
      </trkpt>
      <trkpt lat="46.41149" lon="2.47732">
        <ele>331.4</ele>
        <time>2018-10-14T08:11:13Z</time>
      </trkpt>
      <trkpt lat="46.41141" lon="2.47736">
        <ele>332</ele>
        <time>2018-10-14T08:11:16Z</time>
      </trkpt>
      <trkpt lat="46.41138" lon="2.47737">
        <ele>332.2</ele>
        <time>2018-10-14T08:11:17Z</time>
      </trkpt>
      <trkpt lat="46.41125" lon="2.47743">
        <ele>332.2</ele>
        <time>2018-10-14T08:11:22Z</time>
      </trkpt>
      <trkpt lat="46.41119" lon="2.47745">
        <ele>332.2</ele>
        <time>2018-10-14T08:11:24Z</time>
      </trkpt>
      <trkpt lat="46.41113" lon="2.47748">
        <ele>332.3</ele>
        <time>2018-10-14T08:11:26Z</time>
      </trkpt>
      <trkpt lat="46.41107" lon="2.4775">
        <ele>332.5</ele>
        <time>2018-10-14T08:11:28Z</time>
      </trkpt>
      <trkpt lat="46.411" lon="2.47753">
        <ele>332.7</ele>
        <time>2018-10-14T08:11:30Z</time>
      </trkpt>
      <trkpt lat="46.41094" lon="2.47755">
        <ele>333</ele>
        <time>2018-10-14T08:11:32Z</time>
      </trkpt>
      <trkpt lat="46.41088" lon="2.47758">
        <ele>332.9</ele>
        <time>2018-10-14T08:11:34Z</time>
      </trkpt>
      <trkpt lat="46.41082" lon="2.47761">
        <ele>333.2</ele>
        <time>2018-10-14T08:11:36Z</time>
      </trkpt>
      <trkpt lat="46.41075" lon="2.47763">
        <ele>333.6</ele>
        <time>2018-10-14T08:11:38Z</time>
      </trkpt>
      <trkpt lat="46.41069" lon="2.47766">
        <ele>333.8</ele>
        <time>2018-10-14T08:11:40Z</time>
      </trkpt>
      <trkpt lat="46.41062" lon="2.47768">
        <ele>333.6</ele>
        <time>2018-10-14T08:11:42Z</time>
      </trkpt>
      <trkpt lat="46.41056" lon="2.47771">
        <ele>333.3</ele>
        <time>2018-10-14T08:11:44Z</time>
      </trkpt>
      <trkpt lat="46.4105" lon="2.47773">
        <ele>333.7</ele>
        <time>2018-10-14T08:11:46Z</time>
      </trkpt>
      <trkpt lat="46.41043" lon="2.47775">
        <ele>333.3</ele>
        <time>2018-10-14T08:11:48Z</time>
      </trkpt>
      <trkpt lat="46.41036" lon="2.47778">
        <ele>333.7</ele>
        <time>2018-10-14T08:11:50Z</time>
      </trkpt>
      <trkpt lat="46.41029" lon="2.47781">
        <ele>334.1</ele>
        <time>2018-10-14T08:11:52Z</time>
      </trkpt>
      <trkpt lat="46.41023" lon="2.47784">
        <ele>334.5</ele>
        <time>2018-10-14T08:11:54Z</time>
      </trkpt>
      <trkpt lat="46.41016" lon="2.47786">
        <ele>334.8</ele>
        <time>2018-10-14T08:11:56Z</time>
      </trkpt>
      <trkpt lat="46.41009" lon="2.47789">
        <ele>334.1</ele>
        <time>2018-10-14T08:11:58Z</time>
      </trkpt>
      <trkpt lat="46.41001" lon="2.47793">
        <ele>334.1</ele>
        <time>2018-10-14T08:12:01Z</time>
      </trkpt>
      <trkpt lat="46.41" lon="2.47805">
        <ele>334.1</ele>
        <time>2018-10-14T08:12:04Z</time>
      </trkpt>
      <trkpt lat="46.41003" lon="2.47814">
        <ele>334</ele>
        <time>2018-10-14T08:12:06Z</time>
      </trkpt>
      <trkpt lat="46.41006" lon="2.47824">
        <ele>333.9</ele>
        <time>2018-10-14T08:12:08Z</time>
      </trkpt>
      <trkpt lat="46.41009" lon="2.47835">
        <ele>334</ele>
        <time>2018-10-14T08:12:10Z</time>
      </trkpt>
      <trkpt lat="46.41012" lon="2.47847">
        <ele>333.4</ele>
        <time>2018-10-14T08:12:12Z</time>
      </trkpt>
      <trkpt lat="46.41014" lon="2.47858">
        <ele>333.6</ele>
        <time>2018-10-14T08:12:14Z</time>
      </trkpt>
      <trkpt lat="46.41017" lon="2.47871">
        <ele>333.7</ele>
        <time>2018-10-14T08:12:16Z</time>
      </trkpt>
      <trkpt lat="46.41018" lon="2.47883">
        <ele>333.9</ele>
        <time>2018-10-14T08:12:18Z</time>
      </trkpt>
      <trkpt lat="46.41019" lon="2.4789">
        <ele>334</ele>
        <time>2018-10-14T08:12:19Z</time>
      </trkpt>
      <trkpt lat="46.41019" lon="2.47896">
        <ele>334</ele>
        <time>2018-10-14T08:12:20Z</time>
      </trkpt>
      <trkpt lat="46.41019" lon="2.47903">
        <ele>334</ele>
        <time>2018-10-14T08:12:21Z</time>
      </trkpt>
      <trkpt lat="46.4102" lon="2.4791">
        <ele>334</ele>
        <time>2018-10-14T08:12:22Z</time>
      </trkpt>
      <trkpt lat="46.4102" lon="2.47916">
        <ele>333.8</ele>
        <time>2018-10-14T08:12:23Z</time>
      </trkpt>
      <trkpt lat="46.41021" lon="2.47923">
        <ele>333.7</ele>
        <time>2018-10-14T08:12:24Z</time>
      </trkpt>
      <trkpt lat="46.41021" lon="2.4793">
        <ele>333.8</ele>
        <time>2018-10-14T08:12:25Z</time>
      </trkpt>
      <trkpt lat="46.41022" lon="2.47936">
        <ele>333.8</ele>
        <time>2018-10-14T08:12:26Z</time>
      </trkpt>
      <trkpt lat="46.41022" lon="2.47943">
        <ele>334.1</ele>
        <time>2018-10-14T08:12:27Z</time>
      </trkpt>
      <trkpt lat="46.41022" lon="2.4795">
        <ele>334.2</ele>
        <time>2018-10-14T08:12:28Z</time>
      </trkpt>
      <trkpt lat="46.41023" lon="2.47957">
        <ele>334.4</ele>
        <time>2018-10-14T08:12:29Z</time>
      </trkpt>
      <trkpt lat="46.41023" lon="2.47964">
        <ele>334.2</ele>
        <time>2018-10-14T08:12:30Z</time>
      </trkpt>
      <trkpt lat="46.41024" lon="2.47971">
        <ele>334.1</ele>
        <time>2018-10-14T08:12:31Z</time>
      </trkpt>
      <trkpt lat="46.41025" lon="2.47978">
        <ele>333.9</ele>
        <time>2018-10-14T08:12:32Z</time>
      </trkpt>
      <trkpt lat="46.41026" lon="2.47986">
        <ele>333.9</ele>
        <time>2018-10-14T08:12:33Z</time>
      </trkpt>
      <trkpt lat="46.41026" lon="2.47993">
        <ele>333.8</ele>
        <time>2018-10-14T08:12:34Z</time>
      </trkpt>
      <trkpt lat="46.41027" lon="2.48">
        <ele>333.5</ele>
        <time>2018-10-14T08:12:35Z</time>
      </trkpt>
      <trkpt lat="46.41028" lon="2.48007">
        <ele>333.2</ele>
        <time>2018-10-14T08:12:36Z</time>
      </trkpt>
      <trkpt lat="46.41029" lon="2.48015">
        <ele>333.2</ele>
        <time>2018-10-14T08:12:37Z</time>
      </trkpt>
      <trkpt lat="46.4103" lon="2.48022">
        <ele>333.1</ele>
        <time>2018-10-14T08:12:38Z</time>
      </trkpt>
      <trkpt lat="46.41031" lon="2.4803">
        <ele>333</ele>
        <time>2018-10-14T08:12:39Z</time>
      </trkpt>
      <trkpt lat="46.41031" lon="2.48037">
        <ele>332.9</ele>
        <time>2018-10-14T08:12:40Z</time>
      </trkpt>
      <trkpt lat="46.41032" lon="2.48045">
        <ele>332.8</ele>
        <time>2018-10-14T08:12:41Z</time>
      </trkpt>
      <trkpt lat="46.41033" lon="2.48053">
        <ele>332.9</ele>
        <time>2018-10-14T08:12:42Z</time>
      </trkpt>
      <trkpt lat="46.41034" lon="2.4806">
        <ele>332.9</ele>
        <time>2018-10-14T08:12:43Z</time>
      </trkpt>
      <trkpt lat="46.41035" lon="2.48068">
        <ele>333.2</ele>
        <time>2018-10-14T08:12:44Z</time>
      </trkpt>
      <trkpt lat="46.41036" lon="2.48075">
        <ele>333.5</ele>
        <time>2018-10-14T08:12:45Z</time>
      </trkpt>
      <trkpt lat="46.41037" lon="2.48082">
        <ele>333.4</ele>
        <time>2018-10-14T08:12:46Z</time>
      </trkpt>
      <trkpt lat="46.41037" lon="2.4809">
        <ele>333.3</ele>
        <time>2018-10-14T08:12:47Z</time>
      </trkpt>
      <trkpt lat="46.41038" lon="2.48097">
        <ele>333.2</ele>
        <time>2018-10-14T08:12:48Z</time>
      </trkpt>
      <trkpt lat="46.41039" lon="2.48105">
        <ele>333</ele>
        <time>2018-10-14T08:12:49Z</time>
      </trkpt>
      <trkpt lat="46.4104" lon="2.48112">
        <ele>332.9</ele>
        <time>2018-10-14T08:12:50Z</time>
      </trkpt>
      <trkpt lat="46.41041" lon="2.4812">
        <ele>332.8</ele>
        <time>2018-10-14T08:12:51Z</time>
      </trkpt>
      <trkpt lat="46.41042" lon="2.48127">
        <ele>332.7</ele>
        <time>2018-10-14T08:12:52Z</time>
      </trkpt>
      <trkpt lat="46.41043" lon="2.48135">
        <ele>332.7</ele>
        <time>2018-10-14T08:12:53Z</time>
      </trkpt>
      <trkpt lat="46.41044" lon="2.48142">
        <ele>332.6</ele>
        <time>2018-10-14T08:12:54Z</time>
      </trkpt>
      <trkpt lat="46.41046" lon="2.4815">
        <ele>332.5</ele>
        <time>2018-10-14T08:12:55Z</time>
      </trkpt>
      <trkpt lat="46.41047" lon="2.48157">
        <ele>332.2</ele>
        <time>2018-10-14T08:12:56Z</time>
      </trkpt>
      <trkpt lat="46.41049" lon="2.48165">
        <ele>332</ele>
        <time>2018-10-14T08:12:57Z</time>
      </trkpt>
      <trkpt lat="46.4105" lon="2.48172">
        <ele>332.1</ele>
        <time>2018-10-14T08:12:58Z</time>
      </trkpt>
      <trkpt lat="46.41052" lon="2.4818">
        <ele>332.2</ele>
        <time>2018-10-14T08:12:59Z</time>
      </trkpt>
      <trkpt lat="46.41054" lon="2.48187">
        <ele>332.2</ele>
        <time>2018-10-14T08:13:00Z</time>
      </trkpt>
      <trkpt lat="46.41056" lon="2.48195">
        <ele>331.9</ele>
        <time>2018-10-14T08:13:01Z</time>
      </trkpt>
      <trkpt lat="46.41057" lon="2.48203">
        <ele>331.7</ele>
        <time>2018-10-14T08:13:02Z</time>
      </trkpt>
      <trkpt lat="46.41059" lon="2.48211">
        <ele>331.5</ele>
        <time>2018-10-14T08:13:03Z</time>
      </trkpt>
      <trkpt lat="46.41061" lon="2.48219">
        <ele>331.4</ele>
        <time>2018-10-14T08:13:04Z</time>
      </trkpt>
      <trkpt lat="46.41063" lon="2.48226">
        <ele>331.6</ele>
        <time>2018-10-14T08:13:05Z</time>
      </trkpt>
      <trkpt lat="46.41065" lon="2.48234">
        <ele>331.7</ele>
        <time>2018-10-14T08:13:06Z</time>
      </trkpt>
      <trkpt lat="46.41067" lon="2.48242">
        <ele>331.8</ele>
        <time>2018-10-14T08:13:07Z</time>
      </trkpt>
      <trkpt lat="46.41069" lon="2.4825">
        <ele>331.5</ele>
        <time>2018-10-14T08:13:08Z</time>
      </trkpt>
      <trkpt lat="46.41072" lon="2.48257">
        <ele>331.2</ele>
        <time>2018-10-14T08:13:09Z</time>
      </trkpt>
      <trkpt lat="46.41075" lon="2.48264">
        <ele>331.2</ele>
        <time>2018-10-14T08:13:10Z</time>
      </trkpt>
      <trkpt lat="46.41078" lon="2.48271">
        <ele>331.2</ele>
        <time>2018-10-14T08:13:11Z</time>
      </trkpt>
      <trkpt lat="46.41082" lon="2.48278">
        <ele>331.2</ele>
        <time>2018-10-14T08:13:12Z</time>
      </trkpt>
      <trkpt lat="46.41086" lon="2.48284">
        <ele>331.3</ele>
        <time>2018-10-14T08:13:13Z</time>
      </trkpt>
      <trkpt lat="46.4109" lon="2.4829">
        <ele>331.4</ele>
        <time>2018-10-14T08:13:14Z</time>
      </trkpt>
      <trkpt lat="46.41094" lon="2.48296">
        <ele>331.2</ele>
        <time>2018-10-14T08:13:15Z</time>
      </trkpt>
      <trkpt lat="46.41099" lon="2.48301">
        <ele>331</ele>
        <time>2018-10-14T08:13:16Z</time>
      </trkpt>
      <trkpt lat="46.41103" lon="2.48306">
        <ele>331</ele>
        <time>2018-10-14T08:13:17Z</time>
      </trkpt>
      <trkpt lat="46.41108" lon="2.48312">
        <ele>331</ele>
        <time>2018-10-14T08:13:18Z</time>
      </trkpt>
      <trkpt lat="46.41112" lon="2.48317">
        <ele>331</ele>
        <time>2018-10-14T08:13:19Z</time>
      </trkpt>
      <trkpt lat="46.41117" lon="2.48322">
        <ele>330.8</ele>
        <time>2018-10-14T08:13:20Z</time>
      </trkpt>
      <trkpt lat="46.41123" lon="2.48327">
        <ele>330.7</ele>
        <time>2018-10-14T08:13:21Z</time>
      </trkpt>
      <trkpt lat="46.41128" lon="2.48332">
        <ele>330.5</ele>
        <time>2018-10-14T08:13:22Z</time>
      </trkpt>
      <trkpt lat="46.41134" lon="2.48336">
        <ele>330.4</ele>
        <time>2018-10-14T08:13:23Z</time>
      </trkpt>
      <trkpt lat="46.41139" lon="2.48339">
        <ele>330.1</ele>
        <time>2018-10-14T08:13:24Z</time>
      </trkpt>
      <trkpt lat="46.41145" lon="2.48342">
        <ele>329.9</ele>
        <time>2018-10-14T08:13:25Z</time>
      </trkpt>
      <trkpt lat="46.41152" lon="2.48344">
        <ele>329.8</ele>
        <time>2018-10-14T08:13:26Z</time>
      </trkpt>
      <trkpt lat="46.41158" lon="2.48346">
        <ele>329.5</ele>
        <time>2018-10-14T08:13:27Z</time>
      </trkpt>
      <trkpt lat="46.41164" lon="2.48347">
        <ele>329.3</ele>
        <time>2018-10-14T08:13:28Z</time>
      </trkpt>
      <trkpt lat="46.4117" lon="2.48347">
        <ele>329.6</ele>
        <time>2018-10-14T08:13:29Z</time>
      </trkpt>
      <trkpt lat="46.41177" lon="2.48348">
        <ele>329.9</ele>
        <time>2018-10-14T08:13:30Z</time>
      </trkpt>
      <trkpt lat="46.41183" lon="2.48349">
        <ele>330</ele>
        <time>2018-10-14T08:13:31Z</time>
      </trkpt>
      <trkpt lat="46.41189" lon="2.48351">
        <ele>329.7</ele>
        <time>2018-10-14T08:13:32Z</time>
      </trkpt>
      <trkpt lat="46.41196" lon="2.48354">
        <ele>329.4</ele>
        <time>2018-10-14T08:13:33Z</time>
      </trkpt>
      <trkpt lat="46.41202" lon="2.48358">
        <ele>328.6</ele>
        <time>2018-10-14T08:13:34Z</time>
      </trkpt>
      <trkpt lat="46.41207" lon="2.48363">
        <ele>328</ele>
        <time>2018-10-14T08:13:35Z</time>
      </trkpt>
      <trkpt lat="46.41212" lon="2.48369">
        <ele>328.2</ele>
        <time>2018-10-14T08:13:36Z</time>
      </trkpt>
      <trkpt lat="46.41217" lon="2.48376">
        <ele>328.3</ele>
        <time>2018-10-14T08:13:37Z</time>
      </trkpt>
      <trkpt lat="46.41221" lon="2.48383">
        <ele>328.4</ele>
        <time>2018-10-14T08:13:38Z</time>
      </trkpt>
      <trkpt lat="46.41225" lon="2.4839">
        <ele>327.9</ele>
        <time>2018-10-14T08:13:39Z</time>
      </trkpt>
      <trkpt lat="46.4123" lon="2.48397">
        <ele>327.5</ele>
        <time>2018-10-14T08:13:40Z</time>
      </trkpt>
      <trkpt lat="46.41234" lon="2.48404">
        <ele>327.4</ele>
        <time>2018-10-14T08:13:41Z</time>
      </trkpt>
      <trkpt lat="46.41238" lon="2.48411">
        <ele>327.4</ele>
        <time>2018-10-14T08:13:42Z</time>
      </trkpt>
      <trkpt lat="46.41243" lon="2.48418">
        <ele>327.4</ele>
        <time>2018-10-14T08:13:43Z</time>
      </trkpt>
      <trkpt lat="46.41247" lon="2.48425">
        <ele>327.4</ele>
        <time>2018-10-14T08:13:44Z</time>
      </trkpt>
      <trkpt lat="46.41251" lon="2.48432">
        <ele>327.4</ele>
        <time>2018-10-14T08:13:45Z</time>
      </trkpt>
      <trkpt lat="46.41255" lon="2.4844">
        <ele>326.9</ele>
        <time>2018-10-14T08:13:46Z</time>
      </trkpt>
      <trkpt lat="46.41259" lon="2.48447">
        <ele>326.6</ele>
        <time>2018-10-14T08:13:47Z</time>
      </trkpt>
      <trkpt lat="46.41263" lon="2.48455">
        <ele>326.5</ele>
        <time>2018-10-14T08:13:48Z</time>
      </trkpt>
      <trkpt lat="46.41268" lon="2.48463">
        <ele>326.4</ele>
        <time>2018-10-14T08:13:49Z</time>
      </trkpt>
      <trkpt lat="46.41272" lon="2.4847">
        <ele>326.1</ele>
        <time>2018-10-14T08:13:50Z</time>
      </trkpt>
      <trkpt lat="46.41278" lon="2.48479">
        <ele>325.7</ele>
        <time>2018-10-14T08:13:52Z</time>
      </trkpt>
      <trkpt lat="46.41286" lon="2.4848">
        <ele>323.9</ele>
        <time>2018-10-14T08:14:19Z</time>
      </trkpt>
      <trkpt lat="46.41282" lon="2.4849">
        <ele>324.7</ele>
        <time>2018-10-14T08:17:36Z</time>
      </trkpt>
      <trkpt lat="46.41281" lon="2.48491">
        <ele>324.8</ele>
        <time>2018-10-14T08:17:37Z</time>
      </trkpt>
      <trkpt lat="46.41271" lon="2.48506">
        <ele>324.6</ele>
        <time>2018-10-14T08:17:43Z</time>
      </trkpt>
      <trkpt lat="46.41264" lon="2.48513">
        <ele>325.2</ele>
        <time>2018-10-14T08:17:46Z</time>
      </trkpt>
      <trkpt lat="46.41273" lon="2.48513">
        <ele>324.5</ele>
        <time>2018-10-14T08:17:53Z</time>
      </trkpt>
      <trkpt lat="46.41278" lon="2.48521">
        <ele>324.3</ele>
        <time>2018-10-14T08:17:55Z</time>
      </trkpt>
      <trkpt lat="46.4128" lon="2.48527">
        <ele>324.2</ele>
        <time>2018-10-14T08:17:56Z</time>
      </trkpt>
      <trkpt lat="46.41283" lon="2.48532">
        <ele>323.7</ele>
        <time>2018-10-14T08:17:57Z</time>
      </trkpt>
      <trkpt lat="46.41285" lon="2.48538">
        <ele>323.4</ele>
        <time>2018-10-14T08:17:58Z</time>
      </trkpt>
      <trkpt lat="46.41288" lon="2.48545">
        <ele>323.1</ele>
        <time>2018-10-14T08:17:59Z</time>
      </trkpt>
      <trkpt lat="46.41291" lon="2.48551">
        <ele>323.5</ele>
        <time>2018-10-14T08:18:00Z</time>
      </trkpt>
      <trkpt lat="46.41295" lon="2.48557">
        <ele>323.8</ele>
        <time>2018-10-14T08:18:01Z</time>
      </trkpt>
      <trkpt lat="46.41299" lon="2.48563">
        <ele>323.2</ele>
        <time>2018-10-14T08:18:02Z</time>
      </trkpt>
      <trkpt lat="46.41303" lon="2.48571">
        <ele>322.7</ele>
        <time>2018-10-14T08:18:03Z</time>
      </trkpt>
      <trkpt lat="46.41307" lon="2.48578">
        <ele>322.4</ele>
        <time>2018-10-14T08:18:04Z</time>
      </trkpt>
      <trkpt lat="46.41312" lon="2.48588">
        <ele>322</ele>
        <time>2018-10-14T08:18:06Z</time>
      </trkpt>
      <trkpt lat="46.4132" lon="2.48592">
        <ele>321.3</ele>
        <time>2018-10-14T08:18:10Z</time>
      </trkpt>
      <trkpt lat="46.41327" lon="2.486">
        <ele>321</ele>
        <time>2018-10-14T08:18:14Z</time>
      </trkpt>
      <trkpt lat="46.4132" lon="2.48593">
        <ele>319.7</ele>
        <time>2018-10-14T08:18:22Z</time>
      </trkpt>
      <trkpt lat="46.41321" lon="2.48581">
        <ele>320.3</ele>
        <time>2018-10-14T08:18:31Z</time>
      </trkpt>
      <trkpt lat="46.41319" lon="2.4857">
        <ele>321.4</ele>
        <time>2018-10-14T08:18:36Z</time>
      </trkpt>
      <trkpt lat="46.41312" lon="2.48561">
        <ele>322.5</ele>
        <time>2018-10-14T08:22:19Z</time>
      </trkpt>
      <trkpt lat="46.41311" lon="2.48561">
        <ele>322.3</ele>
        <time>2018-10-14T08:22:20Z</time>
      </trkpt>
      <trkpt lat="46.41302" lon="2.48544">
        <ele>323.4</ele>
        <time>2018-10-14T08:22:27Z</time>
      </trkpt>
      <trkpt lat="46.41298" lon="2.48535">
        <ele>323.5</ele>
        <time>2018-10-14T08:22:29Z</time>
      </trkpt>
      <trkpt lat="46.41293" lon="2.48526">
        <ele>323.5</ele>
        <time>2018-10-14T08:22:31Z</time>
      </trkpt>
      <trkpt lat="46.41289" lon="2.48518">
        <ele>323.4</ele>
        <time>2018-10-14T08:22:33Z</time>
      </trkpt>
      <trkpt lat="46.41286" lon="2.4851">
        <ele>323.5</ele>
        <time>2018-10-14T08:22:35Z</time>
      </trkpt>
      <trkpt lat="46.41282" lon="2.48502">
        <ele>324.3</ele>
        <time>2018-10-14T08:22:37Z</time>
      </trkpt>
      <trkpt lat="46.41275" lon="2.48501">
        <ele>325.2</ele>
        <time>2018-10-14T08:22:39Z</time>
      </trkpt>
      <trkpt lat="46.41269" lon="2.48507">
        <ele>325.5</ele>
        <time>2018-10-14T08:22:41Z</time>
      </trkpt>
      <trkpt lat="46.41263" lon="2.48513">
        <ele>325.2</ele>
        <time>2018-10-14T08:22:43Z</time>
      </trkpt>
      <trkpt lat="46.41256" lon="2.48518">
        <ele>325.6</ele>
        <time>2018-10-14T08:22:45Z</time>
      </trkpt>
      <trkpt lat="46.4125" lon="2.48523">
        <ele>325.7</ele>
        <time>2018-10-14T08:22:47Z</time>
      </trkpt>
      <trkpt lat="46.41244" lon="2.48529">
        <ele>325.7</ele>
        <time>2018-10-14T08:22:49Z</time>
      </trkpt>
      <trkpt lat="46.41237" lon="2.48533">
        <ele>325.9</ele>
        <time>2018-10-14T08:22:51Z</time>
      </trkpt>
      <trkpt lat="46.41232" lon="2.48537">
        <ele>325.3</ele>
        <time>2018-10-14T08:23:02Z</time>
      </trkpt>
      <trkpt lat="46.41225" lon="2.48537">
        <ele>326.1</ele>
        <time>2018-10-14T08:23:04Z</time>
      </trkpt>
      <trkpt lat="46.41218" lon="2.48535">
        <ele>326</ele>
        <time>2018-10-14T08:23:06Z</time>
      </trkpt>
      <trkpt lat="46.41211" lon="2.48532">
        <ele>325.5</ele>
        <time>2018-10-14T08:23:08Z</time>
      </trkpt>
      <trkpt lat="46.41205" lon="2.48528">
        <ele>325.3</ele>
        <time>2018-10-14T08:23:10Z</time>
      </trkpt>
      <trkpt lat="46.41199" lon="2.48523">
        <ele>326.3</ele>
        <time>2018-10-14T08:23:12Z</time>
      </trkpt>
      <trkpt lat="46.41193" lon="2.48519">
        <ele>326.1</ele>
        <time>2018-10-14T08:23:14Z</time>
      </trkpt>
      <trkpt lat="46.41186" lon="2.48515">
        <ele>326.4</ele>
        <time>2018-10-14T08:23:16Z</time>
      </trkpt>
      <trkpt lat="46.4118" lon="2.48511">
        <ele>326.7</ele>
        <time>2018-10-14T08:23:18Z</time>
      </trkpt>
      <trkpt lat="46.41173" lon="2.48509">
        <ele>327.4</ele>
        <time>2018-10-14T08:23:20Z</time>
      </trkpt>
      <trkpt lat="46.41166" lon="2.48509">
        <ele>328</ele>
        <time>2018-10-14T08:23:22Z</time>
      </trkpt>
      <trkpt lat="46.41162" lon="2.4851">
        <ele>328.2</ele>
        <time>2018-10-14T08:23:23Z</time>
      </trkpt>
      <trkpt lat="46.41152" lon="2.48513">
        <ele>328.4</ele>
        <time>2018-10-14T08:23:26Z</time>
      </trkpt>
      <trkpt lat="46.41144" lon="2.48515">
        <ele>328.9</ele>
        <time>2018-10-14T08:23:28Z</time>
      </trkpt>
      <trkpt lat="46.41137" lon="2.48518">
        <ele>329.4</ele>
        <time>2018-10-14T08:23:30Z</time>
      </trkpt>
      <trkpt lat="46.41129" lon="2.48521">
        <ele>329.6</ele>
        <time>2018-10-14T08:23:32Z</time>
      </trkpt>
      <trkpt lat="46.41121" lon="2.48525">
        <ele>329.5</ele>
        <time>2018-10-14T08:23:34Z</time>
      </trkpt>
      <trkpt lat="46.41112" lon="2.48528">
        <ele>329.2</ele>
        <time>2018-10-14T08:23:36Z</time>
      </trkpt>
      <trkpt lat="46.41104" lon="2.48531">
        <ele>329.5</ele>
        <time>2018-10-14T08:23:38Z</time>
      </trkpt>
      <trkpt lat="46.41095" lon="2.48534">
        <ele>329.7</ele>
        <time>2018-10-14T08:23:40Z</time>
      </trkpt>
      <trkpt lat="46.41091" lon="2.48536">
        <ele>329.6</ele>
        <time>2018-10-14T08:23:41Z</time>
      </trkpt>
      <trkpt lat="46.41087" lon="2.48538">
        <ele>329.6</ele>
        <time>2018-10-14T08:23:42Z</time>
      </trkpt>
      <trkpt lat="46.41082" lon="2.4854">
        <ele>329.5</ele>
        <time>2018-10-14T08:23:43Z</time>
      </trkpt>
      <trkpt lat="46.41078" lon="2.48543">
        <ele>329.2</ele>
        <time>2018-10-14T08:23:44Z</time>
      </trkpt>
      <trkpt lat="46.41073" lon="2.48547">
        <ele>328.9</ele>
        <time>2018-10-14T08:23:45Z</time>
      </trkpt>
      <trkpt lat="46.41069" lon="2.4855">
        <ele>329.1</ele>
        <time>2018-10-14T08:23:46Z</time>
      </trkpt>
      <trkpt lat="46.41065" lon="2.48555">
        <ele>329.2</ele>
        <time>2018-10-14T08:23:47Z</time>
      </trkpt>
      <trkpt lat="46.41061" lon="2.48559">
        <ele>328.8</ele>
        <time>2018-10-14T08:23:48Z</time>
      </trkpt>
      <trkpt lat="46.41057" lon="2.48563">
        <ele>328.6</ele>
        <time>2018-10-14T08:23:49Z</time>
      </trkpt>
      <trkpt lat="46.41053" lon="2.48568">
        <ele>328.4</ele>
        <time>2018-10-14T08:23:50Z</time>
      </trkpt>
      <trkpt lat="46.41049" lon="2.48572">
        <ele>328.1</ele>
        <time>2018-10-14T08:23:51Z</time>
      </trkpt>
      <trkpt lat="46.41045" lon="2.48577">
        <ele>327.8</ele>
        <time>2018-10-14T08:23:52Z</time>
      </trkpt>
      <trkpt lat="46.41042" lon="2.48581">
        <ele>327.7</ele>
        <time>2018-10-14T08:23:53Z</time>
      </trkpt>
      <trkpt lat="46.41038" lon="2.48586">
        <ele>327.6</ele>
        <time>2018-10-14T08:23:54Z</time>
      </trkpt>
      <trkpt lat="46.41034" lon="2.4859">
        <ele>327.5</ele>
        <time>2018-10-14T08:23:55Z</time>
      </trkpt>
      <trkpt lat="46.4103" lon="2.48595">
        <ele>327.9</ele>
        <time>2018-10-14T08:23:56Z</time>
      </trkpt>
      <trkpt lat="46.41026" lon="2.486">
        <ele>328.1</ele>
        <time>2018-10-14T08:23:57Z</time>
      </trkpt>
      <trkpt lat="46.41022" lon="2.48605">
        <ele>327.5</ele>
        <time>2018-10-14T08:23:58Z</time>
      </trkpt>
      <trkpt lat="46.41018" lon="2.4861">
        <ele>326.9</ele>
        <time>2018-10-14T08:23:59Z</time>
      </trkpt>
      <trkpt lat="46.41014" lon="2.48615">
        <ele>326.8</ele>
        <time>2018-10-14T08:24:00Z</time>
      </trkpt>
      <trkpt lat="46.4101" lon="2.4862">
        <ele>326.7</ele>
        <time>2018-10-14T08:24:01Z</time>
      </trkpt>
      <trkpt lat="46.41006" lon="2.48625">
        <ele>326.7</ele>
        <time>2018-10-14T08:24:02Z</time>
      </trkpt>
      <trkpt lat="46.41001" lon="2.4863">
        <ele>326.3</ele>
        <time>2018-10-14T08:24:03Z</time>
      </trkpt>
      <trkpt lat="46.40997" lon="2.48635">
        <ele>326</ele>
        <time>2018-10-14T08:24:04Z</time>
      </trkpt>
      <trkpt lat="46.40993" lon="2.4864">
        <ele>325.9</ele>
        <time>2018-10-14T08:24:05Z</time>
      </trkpt>
      <trkpt lat="46.40989" lon="2.48645">
        <ele>325.8</ele>
        <time>2018-10-14T08:24:06Z</time>
      </trkpt>
      <trkpt lat="46.40984" lon="2.48651">
        <ele>326.2</ele>
        <time>2018-10-14T08:24:07Z</time>
      </trkpt>
      <trkpt lat="46.40979" lon="2.48658">
        <ele>326.4</ele>
        <time>2018-10-14T08:24:08Z</time>
      </trkpt>
      <trkpt lat="46.40974" lon="2.48664">
        <ele>326.6</ele>
        <time>2018-10-14T08:24:09Z</time>
      </trkpt>
      <trkpt lat="46.40969" lon="2.4867">
        <ele>326.2</ele>
        <time>2018-10-14T08:24:10Z</time>
      </trkpt>
      <trkpt lat="46.40964" lon="2.48676">
        <ele>325.9</ele>
        <time>2018-10-14T08:24:11Z</time>
      </trkpt>
      <trkpt lat="46.40959" lon="2.48682">
        <ele>325.4</ele>
        <time>2018-10-14T08:24:12Z</time>
      </trkpt>
      <trkpt lat="46.40954" lon="2.48689">
        <ele>325.1</ele>
        <time>2018-10-14T08:24:13Z</time>
      </trkpt>
      <trkpt lat="46.40948" lon="2.48695">
        <ele>324.9</ele>
        <time>2018-10-14T08:24:14Z</time>
      </trkpt>
      <trkpt lat="46.40943" lon="2.48702">
        <ele>324.4</ele>
        <time>2018-10-14T08:24:15Z</time>
      </trkpt>
      <trkpt lat="46.40937" lon="2.48709">
        <ele>324</ele>
        <time>2018-10-14T08:24:16Z</time>
      </trkpt>
      <trkpt lat="46.40931" lon="2.48715">
        <ele>323.4</ele>
        <time>2018-10-14T08:24:17Z</time>
      </trkpt>
      <trkpt lat="46.40924" lon="2.4872">
        <ele>322.9</ele>
        <time>2018-10-14T08:24:18Z</time>
      </trkpt>
      <trkpt lat="46.40916" lon="2.48723">
        <ele>322.6</ele>
        <time>2018-10-14T08:24:19Z</time>
      </trkpt>
      <trkpt lat="46.40907" lon="2.48725">
        <ele>322.4</ele>
        <time>2018-10-14T08:24:20Z</time>
      </trkpt>
      <trkpt lat="46.40899" lon="2.48727">
        <ele>322.2</ele>
        <time>2018-10-14T08:24:21Z</time>
      </trkpt>
      <trkpt lat="46.40891" lon="2.48728">
        <ele>321.4</ele>
        <time>2018-10-14T08:24:22Z</time>
      </trkpt>
      <trkpt lat="46.40884" lon="2.48729">
        <ele>320.8</ele>
        <time>2018-10-14T08:24:23Z</time>
      </trkpt>
      <trkpt lat="46.40876" lon="2.4873">
        <ele>320.7</ele>
        <time>2018-10-14T08:24:24Z</time>
      </trkpt>
      <trkpt lat="46.40869" lon="2.48731">
        <ele>320.6</ele>
        <time>2018-10-14T08:24:25Z</time>
      </trkpt>
      <trkpt lat="46.40863" lon="2.48733">
        <ele>320.8</ele>
        <time>2018-10-14T08:24:26Z</time>
      </trkpt>
      <trkpt lat="46.40856" lon="2.48734">
        <ele>321</ele>
        <time>2018-10-14T08:24:27Z</time>
      </trkpt>
      <trkpt lat="46.4085" lon="2.48735">
        <ele>321.1</ele>
        <time>2018-10-14T08:24:28Z</time>
      </trkpt>
      <trkpt lat="46.40843" lon="2.48736">
        <ele>320.9</ele>
        <time>2018-10-14T08:24:29Z</time>
      </trkpt>
      <trkpt lat="46.40837" lon="2.48736">
        <ele>320.7</ele>
        <time>2018-10-14T08:24:30Z</time>
      </trkpt>
      <trkpt lat="46.40832" lon="2.48737">
        <ele>320.8</ele>
        <time>2018-10-14T08:24:31Z</time>
      </trkpt>
      <trkpt lat="46.40826" lon="2.48738">
        <ele>320.8</ele>
        <time>2018-10-14T08:24:32Z</time>
      </trkpt>
      <trkpt lat="46.40821" lon="2.48739">
        <ele>320.9</ele>
        <time>2018-10-14T08:24:33Z</time>
      </trkpt>
      <trkpt lat="46.40816" lon="2.4874">
        <ele>320.7</ele>
        <time>2018-10-14T08:24:34Z</time>
      </trkpt>
      <trkpt lat="46.40811" lon="2.4874">
        <ele>320.6</ele>
        <time>2018-10-14T08:24:35Z</time>
      </trkpt>
      <trkpt lat="46.40806" lon="2.48741">
        <ele>321.2</ele>
        <time>2018-10-14T08:24:36Z</time>
      </trkpt>
      <trkpt lat="46.40801" lon="2.48742">
        <ele>321.7</ele>
        <time>2018-10-14T08:24:37Z</time>
      </trkpt>
      <trkpt lat="46.40796" lon="2.48742">
        <ele>322.2</ele>
        <time>2018-10-14T08:24:38Z</time>
      </trkpt>
      <trkpt lat="46.40792" lon="2.48743">
        <ele>322.5</ele>
        <time>2018-10-14T08:24:39Z</time>
      </trkpt>
      <trkpt lat="46.40783" lon="2.48744">
        <ele>323.4</ele>
        <time>2018-10-14T08:24:41Z</time>
      </trkpt>
      <trkpt lat="46.40775" lon="2.48745">
        <ele>323.3</ele>
        <time>2018-10-14T08:24:43Z</time>
      </trkpt>
      <trkpt lat="46.40766" lon="2.48746">
        <ele>323.2</ele>
        <time>2018-10-14T08:24:45Z</time>
      </trkpt>
      <trkpt lat="46.40757" lon="2.48748">
        <ele>323.4</ele>
        <time>2018-10-14T08:24:47Z</time>
      </trkpt>
      <trkpt lat="46.40753" lon="2.48748">
        <ele>323.5</ele>
        <time>2018-10-14T08:24:48Z</time>
      </trkpt>
      <trkpt lat="46.40748" lon="2.48749">
        <ele>323.5</ele>
        <time>2018-10-14T08:24:49Z</time>
      </trkpt>
      <trkpt lat="46.40743" lon="2.4875">
        <ele>323.5</ele>
        <time>2018-10-14T08:24:50Z</time>
      </trkpt>
      <trkpt lat="46.40739" lon="2.4875">
        <ele>323.5</ele>
        <time>2018-10-14T08:24:51Z</time>
      </trkpt>
      <trkpt lat="46.40734" lon="2.48751">
        <ele>323.5</ele>
        <time>2018-10-14T08:24:52Z</time>
      </trkpt>
      <trkpt lat="46.40729" lon="2.48751">
        <ele>323.3</ele>
        <time>2018-10-14T08:24:53Z</time>
      </trkpt>
      <trkpt lat="46.40723" lon="2.48752">
        <ele>323.2</ele>
        <time>2018-10-14T08:24:54Z</time>
      </trkpt>
      <trkpt lat="46.40718" lon="2.48753">
        <ele>323.1</ele>
        <time>2018-10-14T08:24:55Z</time>
      </trkpt>
      <trkpt lat="46.40713" lon="2.48753">
        <ele>323.1</ele>
        <time>2018-10-14T08:24:56Z</time>
      </trkpt>
      <trkpt lat="46.40708" lon="2.48754">
        <ele>322.7</ele>
        <time>2018-10-14T08:24:57Z</time>
      </trkpt>
      <trkpt lat="46.40703" lon="2.48754">
        <ele>322.5</ele>
        <time>2018-10-14T08:24:58Z</time>
      </trkpt>
      <trkpt lat="46.40697" lon="2.48755">
        <ele>322.3</ele>
        <time>2018-10-14T08:24:59Z</time>
      </trkpt>
      <trkpt lat="46.40692" lon="2.48756">
        <ele>322.4</ele>
        <time>2018-10-14T08:25:00Z</time>
      </trkpt>
      <trkpt lat="46.40687" lon="2.48757">
        <ele>322.4</ele>
        <time>2018-10-14T08:25:01Z</time>
      </trkpt>
      <trkpt lat="46.40682" lon="2.48758">
        <ele>322.7</ele>
        <time>2018-10-14T08:25:02Z</time>
      </trkpt>
      <trkpt lat="46.40674" lon="2.4876">
        <ele>323</ele>
        <time>2018-10-14T08:25:04Z</time>
      </trkpt>
      <trkpt lat="46.40669" lon="2.48761">
        <ele>323</ele>
        <time>2018-10-14T08:25:05Z</time>
      </trkpt>
      <trkpt lat="46.40665" lon="2.48763">
        <ele>323</ele>
        <time>2018-10-14T08:25:06Z</time>
      </trkpt>
      <trkpt lat="46.4066" lon="2.48766">
        <ele>322.9</ele>
        <time>2018-10-14T08:25:07Z</time>
      </trkpt>
      <trkpt lat="46.40655" lon="2.48769">
        <ele>322.8</ele>
        <time>2018-10-14T08:25:08Z</time>
      </trkpt>
      <trkpt lat="46.4065" lon="2.48771">
        <ele>323</ele>
        <time>2018-10-14T08:25:09Z</time>
      </trkpt>
      <trkpt lat="46.40645" lon="2.48774">
        <ele>323.1</ele>
        <time>2018-10-14T08:25:10Z</time>
      </trkpt>
      <trkpt lat="46.4064" lon="2.48777">
        <ele>323.2</ele>
        <time>2018-10-14T08:25:11Z</time>
      </trkpt>
      <trkpt lat="46.40635" lon="2.48779">
        <ele>323.7</ele>
        <time>2018-10-14T08:25:12Z</time>
      </trkpt>
      <trkpt lat="46.40631" lon="2.48782">
        <ele>324</ele>
        <time>2018-10-14T08:25:13Z</time>
      </trkpt>
      <trkpt lat="46.40622" lon="2.48785">
        <ele>324.8</ele>
        <time>2018-10-14T08:25:15Z</time>
      </trkpt>
      <trkpt lat="46.40614" lon="2.48789">
        <ele>325.5</ele>
        <time>2018-10-14T08:25:17Z</time>
      </trkpt>
      <trkpt lat="46.40606" lon="2.48794">
        <ele>326.3</ele>
        <time>2018-10-14T08:25:19Z</time>
      </trkpt>
      <trkpt lat="46.40599" lon="2.488">
        <ele>326.7</ele>
        <time>2018-10-14T08:25:21Z</time>
      </trkpt>
      <trkpt lat="46.40594" lon="2.48802">
        <ele>326.6</ele>
        <time>2018-10-14T08:25:22Z</time>
      </trkpt>
      <trkpt lat="46.4059" lon="2.48805">
        <ele>326.6</ele>
        <time>2018-10-14T08:25:23Z</time>
      </trkpt>
      <trkpt lat="46.40586" lon="2.48807">
        <ele>326.3</ele>
        <time>2018-10-14T08:25:24Z</time>
      </trkpt>
      <trkpt lat="46.40582" lon="2.48809">
        <ele>326.1</ele>
        <time>2018-10-14T08:25:25Z</time>
      </trkpt>
      <trkpt lat="46.40577" lon="2.48812">
        <ele>326.4</ele>
        <time>2018-10-14T08:25:26Z</time>
      </trkpt>
      <trkpt lat="46.40573" lon="2.48814">
        <ele>326.7</ele>
        <time>2018-10-14T08:25:27Z</time>
      </trkpt>
      <trkpt lat="46.40568" lon="2.48817">
        <ele>326.8</ele>
        <time>2018-10-14T08:25:28Z</time>
      </trkpt>
      <trkpt lat="46.40563" lon="2.48818">
        <ele>326.9</ele>
        <time>2018-10-14T08:25:29Z</time>
      </trkpt>
      <trkpt lat="46.40559" lon="2.4882">
        <ele>326.9</ele>
        <time>2018-10-14T08:25:30Z</time>
      </trkpt>
      <trkpt lat="46.40555" lon="2.48822">
        <ele>327.1</ele>
        <time>2018-10-14T08:25:31Z</time>
      </trkpt>
      <trkpt lat="46.40546" lon="2.48827">
        <ele>327.7</ele>
        <time>2018-10-14T08:25:33Z</time>
      </trkpt>
      <trkpt lat="46.40539" lon="2.48831">
        <ele>328</ele>
        <time>2018-10-14T08:25:35Z</time>
      </trkpt>
      <trkpt lat="46.40531" lon="2.48836">
        <ele>327.8</ele>
        <time>2018-10-14T08:25:37Z</time>
      </trkpt>
      <trkpt lat="46.40524" lon="2.4884">
        <ele>327.9</ele>
        <time>2018-10-14T08:25:39Z</time>
      </trkpt>
      <trkpt lat="46.40517" lon="2.48844">
        <ele>328.5</ele>
        <time>2018-10-14T08:25:41Z</time>
      </trkpt>
      <trkpt lat="46.40511" lon="2.48847">
        <ele>329</ele>
        <time>2018-10-14T08:25:43Z</time>
      </trkpt>
      <trkpt lat="46.40503" lon="2.48849">
        <ele>329</ele>
        <time>2018-10-14T08:25:45Z</time>
      </trkpt>
      <trkpt lat="46.40497" lon="2.4885">
        <ele>328.7</ele>
        <time>2018-10-14T08:25:47Z</time>
      </trkpt>
      <trkpt lat="46.4049" lon="2.48852">
        <ele>328.4</ele>
        <time>2018-10-14T08:25:49Z</time>
      </trkpt>
      <trkpt lat="46.40483" lon="2.48854">
        <ele>328.7</ele>
        <time>2018-10-14T08:25:51Z</time>
      </trkpt>
      <trkpt lat="46.40476" lon="2.48856">
        <ele>329.1</ele>
        <time>2018-10-14T08:25:53Z</time>
      </trkpt>
      <trkpt lat="46.40468" lon="2.48859">
        <ele>329.4</ele>
        <time>2018-10-14T08:25:55Z</time>
      </trkpt>
      <trkpt lat="46.40461" lon="2.48861">
        <ele>329.3</ele>
        <time>2018-10-14T08:25:57Z</time>
      </trkpt>
      <trkpt lat="46.40454" lon="2.48864">
        <ele>329.1</ele>
        <time>2018-10-14T08:25:59Z</time>
      </trkpt>
      <trkpt lat="46.40446" lon="2.48867">
        <ele>328.9</ele>
        <time>2018-10-14T08:26:01Z</time>
      </trkpt>
      <trkpt lat="46.40442" lon="2.48868">
        <ele>328.8</ele>
        <time>2018-10-14T08:26:02Z</time>
      </trkpt>
      <trkpt lat="46.40437" lon="2.4887">
        <ele>328.7</ele>
        <time>2018-10-14T08:26:03Z</time>
      </trkpt>
      <trkpt lat="46.40433" lon="2.48871">
        <ele>328.9</ele>
        <time>2018-10-14T08:26:04Z</time>
      </trkpt>
      <trkpt lat="46.40428" lon="2.48873">
        <ele>329</ele>
        <time>2018-10-14T08:26:05Z</time>
      </trkpt>
      <trkpt lat="46.40423" lon="2.48873">
        <ele>329.1</ele>
        <time>2018-10-14T08:26:06Z</time>
      </trkpt>
      <trkpt lat="46.40415" lon="2.48875">
        <ele>329.2</ele>
        <time>2018-10-14T08:26:08Z</time>
      </trkpt>
      <trkpt lat="46.40407" lon="2.48877">
        <ele>329.9</ele>
        <time>2018-10-14T08:26:10Z</time>
      </trkpt>
      <trkpt lat="46.404" lon="2.48879">
        <ele>329.1</ele>
        <time>2018-10-14T08:26:12Z</time>
      </trkpt>
      <trkpt lat="46.40392" lon="2.4888">
        <ele>329</ele>
        <time>2018-10-14T08:26:14Z</time>
      </trkpt>
      <trkpt lat="46.40386" lon="2.48882">
        <ele>329.1</ele>
        <time>2018-10-14T08:26:16Z</time>
      </trkpt>
      <trkpt lat="46.40382" lon="2.48891">
        <ele>329.3</ele>
        <time>2018-10-14T08:26:18Z</time>
      </trkpt>
      <trkpt lat="46.40383" lon="2.48903">
        <ele>328.9</ele>
        <time>2018-10-14T08:26:20Z</time>
      </trkpt>
      <trkpt lat="46.40383" lon="2.48911">
        <ele>328.7</ele>
        <time>2018-10-14T08:26:21Z</time>
      </trkpt>
      <trkpt lat="46.40384" lon="2.48918">
        <ele>328.5</ele>
        <time>2018-10-14T08:26:22Z</time>
      </trkpt>
      <trkpt lat="46.40384" lon="2.48927">
        <ele>328</ele>
        <time>2018-10-14T08:26:23Z</time>
      </trkpt>
      <trkpt lat="46.40385" lon="2.48935">
        <ele>327.7</ele>
        <time>2018-10-14T08:26:24Z</time>
      </trkpt>
      <trkpt lat="46.40385" lon="2.48943">
        <ele>327.9</ele>
        <time>2018-10-14T08:26:25Z</time>
      </trkpt>
      <trkpt lat="46.40386" lon="2.48951">
        <ele>328.1</ele>
        <time>2018-10-14T08:26:26Z</time>
      </trkpt>
      <trkpt lat="46.40386" lon="2.48959">
        <ele>328.2</ele>
        <time>2018-10-14T08:26:27Z</time>
      </trkpt>
      <trkpt lat="46.40386" lon="2.48968">
        <ele>328</ele>
        <time>2018-10-14T08:26:28Z</time>
      </trkpt>
      <trkpt lat="46.40386" lon="2.48976">
        <ele>327.9</ele>
        <time>2018-10-14T08:26:29Z</time>
      </trkpt>
      <trkpt lat="46.40386" lon="2.48984">
        <ele>327.6</ele>
        <time>2018-10-14T08:26:30Z</time>
      </trkpt>
      <trkpt lat="46.40387" lon="2.48992">
        <ele>327.4</ele>
        <time>2018-10-14T08:26:31Z</time>
      </trkpt>
      <trkpt lat="46.40387" lon="2.49">
        <ele>326.7</ele>
        <time>2018-10-14T08:26:32Z</time>
      </trkpt>
      <trkpt lat="46.40387" lon="2.49009">
        <ele>326.3</ele>
        <time>2018-10-14T08:26:33Z</time>
      </trkpt>
      <trkpt lat="46.40388" lon="2.49017">
        <ele>325.9</ele>
        <time>2018-10-14T08:26:34Z</time>
      </trkpt>
      <trkpt lat="46.40388" lon="2.49024">
        <ele>326.3</ele>
        <time>2018-10-14T08:26:35Z</time>
      </trkpt>
      <trkpt lat="46.40388" lon="2.49032">
        <ele>326.6</ele>
        <time>2018-10-14T08:26:36Z</time>
      </trkpt>
      <trkpt lat="46.40388" lon="2.4904">
        <ele>326</ele>
        <time>2018-10-14T08:26:37Z</time>
      </trkpt>
      <trkpt lat="46.40389" lon="2.49047">
        <ele>325.5</ele>
        <time>2018-10-14T08:26:38Z</time>
      </trkpt>
      <trkpt lat="46.40389" lon="2.49054">
        <ele>325</ele>
        <time>2018-10-14T08:26:39Z</time>
      </trkpt>
      <trkpt lat="46.40389" lon="2.49062">
        <ele>324.7</ele>
        <time>2018-10-14T08:26:40Z</time>
      </trkpt>
      <trkpt lat="46.4039" lon="2.4907">
        <ele>324.4</ele>
        <time>2018-10-14T08:26:41Z</time>
      </trkpt>
      <trkpt lat="46.4039" lon="2.49077">
        <ele>324.5</ele>
        <time>2018-10-14T08:26:42Z</time>
      </trkpt>
      <trkpt lat="46.40391" lon="2.49085">
        <ele>324.5</ele>
        <time>2018-10-14T08:26:43Z</time>
      </trkpt>
      <trkpt lat="46.40391" lon="2.49093">
        <ele>324.4</ele>
        <time>2018-10-14T08:26:44Z</time>
      </trkpt>
      <trkpt lat="46.40391" lon="2.49101">
        <ele>324.3</ele>
        <time>2018-10-14T08:26:45Z</time>
      </trkpt>
      <trkpt lat="46.40392" lon="2.49109">
        <ele>324.2</ele>
        <time>2018-10-14T08:26:46Z</time>
      </trkpt>
      <trkpt lat="46.40392" lon="2.49117">
        <ele>323.8</ele>
        <time>2018-10-14T08:26:47Z</time>
      </trkpt>
      <trkpt lat="46.40393" lon="2.49125">
        <ele>323.4</ele>
        <time>2018-10-14T08:26:48Z</time>
      </trkpt>
      <trkpt lat="46.40393" lon="2.49133">
        <ele>323</ele>
        <time>2018-10-14T08:26:49Z</time>
      </trkpt>
      <trkpt lat="46.40394" lon="2.49142">
        <ele>322.6</ele>
        <time>2018-10-14T08:26:50Z</time>
      </trkpt>
      <trkpt lat="46.40394" lon="2.4915">
        <ele>322.2</ele>
        <time>2018-10-14T08:26:51Z</time>
      </trkpt>
      <trkpt lat="46.40395" lon="2.49158">
        <ele>321.9</ele>
        <time>2018-10-14T08:26:52Z</time>
      </trkpt>
      <trkpt lat="46.40395" lon="2.49166">
        <ele>321.6</ele>
        <time>2018-10-14T08:26:53Z</time>
      </trkpt>
      <trkpt lat="46.40395" lon="2.49175">
        <ele>321.2</ele>
        <time>2018-10-14T08:26:54Z</time>
      </trkpt>
      <trkpt lat="46.40395" lon="2.49182">
        <ele>320.8</ele>
        <time>2018-10-14T08:26:55Z</time>
      </trkpt>
      <trkpt lat="46.40397" lon="2.49194">
        <ele>321.3</ele>
        <time>2018-10-14T08:26:57Z</time>
      </trkpt>
      <trkpt lat="46.404" lon="2.49203">
        <ele>320.4</ele>
        <time>2018-10-14T08:26:59Z</time>
      </trkpt>
      <trkpt lat="46.40404" lon="2.49211">
        <ele>320.3</ele>
        <time>2018-10-14T08:27:01Z</time>
      </trkpt>
      <trkpt lat="46.40406" lon="2.49221">
        <ele>320.1</ele>
        <time>2018-10-14T08:27:03Z</time>
      </trkpt>
      <trkpt lat="46.40407" lon="2.49228">
        <ele>319.9</ele>
        <time>2018-10-14T08:27:04Z</time>
      </trkpt>
      <trkpt lat="46.40407" lon="2.49235">
        <ele>319.8</ele>
        <time>2018-10-14T08:27:05Z</time>
      </trkpt>
      <trkpt lat="46.40408" lon="2.49243">
        <ele>319.7</ele>
        <time>2018-10-14T08:27:06Z</time>
      </trkpt>
      <trkpt lat="46.4041" lon="2.49251">
        <ele>319.7</ele>
        <time>2018-10-14T08:27:07Z</time>
      </trkpt>
      <trkpt lat="46.40411" lon="2.4926">
        <ele>319</ele>
        <time>2018-10-14T08:27:08Z</time>
      </trkpt>
      <trkpt lat="46.40412" lon="2.49269">
        <ele>318.5</ele>
        <time>2018-10-14T08:27:09Z</time>
      </trkpt>
      <trkpt lat="46.40413" lon="2.49278">
        <ele>318.7</ele>
        <time>2018-10-14T08:27:10Z</time>
      </trkpt>
      <trkpt lat="46.40414" lon="2.49287">
        <ele>318.8</ele>
        <time>2018-10-14T08:27:11Z</time>
      </trkpt>
      <trkpt lat="46.40415" lon="2.49297">
        <ele>318.8</ele>
        <time>2018-10-14T08:27:12Z</time>
      </trkpt>
      <trkpt lat="46.40416" lon="2.49307">
        <ele>318.4</ele>
        <time>2018-10-14T08:27:13Z</time>
      </trkpt>
      <trkpt lat="46.40417" lon="2.49317">
        <ele>318</ele>
        <time>2018-10-14T08:27:14Z</time>
      </trkpt>
      <trkpt lat="46.40419" lon="2.49327">
        <ele>318</ele>
        <time>2018-10-14T08:27:15Z</time>
      </trkpt>
      <trkpt lat="46.4042" lon="2.49337">
        <ele>318.1</ele>
        <time>2018-10-14T08:27:16Z</time>
      </trkpt>
      <trkpt lat="46.40421" lon="2.49347">
        <ele>317.9</ele>
        <time>2018-10-14T08:27:17Z</time>
      </trkpt>
      <trkpt lat="46.40423" lon="2.49356">
        <ele>317.7</ele>
        <time>2018-10-14T08:27:18Z</time>
      </trkpt>
      <trkpt lat="46.40424" lon="2.49366">
        <ele>317.6</ele>
        <time>2018-10-14T08:27:19Z</time>
      </trkpt>
      <trkpt lat="46.40425" lon="2.49376">
        <ele>317.2</ele>
        <time>2018-10-14T08:27:20Z</time>
      </trkpt>
      <trkpt lat="46.40425" lon="2.49387">
        <ele>316.9</ele>
        <time>2018-10-14T08:27:21Z</time>
      </trkpt>
      <trkpt lat="46.40425" lon="2.49397">
        <ele>316.6</ele>
        <time>2018-10-14T08:27:22Z</time>
      </trkpt>
      <trkpt lat="46.40425" lon="2.49407">
        <ele>316.3</ele>
        <time>2018-10-14T08:27:23Z</time>
      </trkpt>
      <trkpt lat="46.40424" lon="2.49417">
        <ele>316.2</ele>
        <time>2018-10-14T08:27:24Z</time>
      </trkpt>
      <trkpt lat="46.40424" lon="2.49427">
        <ele>315.9</ele>
        <time>2018-10-14T08:27:25Z</time>
      </trkpt>
      <trkpt lat="46.40424" lon="2.49437">
        <ele>315.7</ele>
        <time>2018-10-14T08:27:26Z</time>
      </trkpt>
      <trkpt lat="46.40423" lon="2.49447">
        <ele>314.9</ele>
        <time>2018-10-14T08:27:27Z</time>
      </trkpt>
      <trkpt lat="46.40423" lon="2.49458">
        <ele>314.4</ele>
        <time>2018-10-14T08:27:28Z</time>
      </trkpt>
      <trkpt lat="46.40423" lon="2.49468">
        <ele>313.6</ele>
        <time>2018-10-14T08:27:29Z</time>
      </trkpt>
      <trkpt lat="46.40422" lon="2.49479">
        <ele>313</ele>
        <time>2018-10-14T08:27:30Z</time>
      </trkpt>
      <trkpt lat="46.40422" lon="2.4949">
        <ele>312.5</ele>
        <time>2018-10-14T08:27:31Z</time>
      </trkpt>
      <trkpt lat="46.40422" lon="2.49501">
        <ele>311.7</ele>
        <time>2018-10-14T08:27:32Z</time>
      </trkpt>
      <trkpt lat="46.40421" lon="2.49513">
        <ele>311.1</ele>
        <time>2018-10-14T08:27:33Z</time>
      </trkpt>
      <trkpt lat="46.40421" lon="2.49524">
        <ele>310.9</ele>
        <time>2018-10-14T08:27:34Z</time>
      </trkpt>
      <trkpt lat="46.40421" lon="2.49535">
        <ele>310.7</ele>
        <time>2018-10-14T08:27:35Z</time>
      </trkpt>
      <trkpt lat="46.4042" lon="2.49546">
        <ele>310.1</ele>
        <time>2018-10-14T08:27:36Z</time>
      </trkpt>
      <trkpt lat="46.4042" lon="2.49558">
        <ele>309.6</ele>
        <time>2018-10-14T08:27:37Z</time>
      </trkpt>
      <trkpt lat="46.4042" lon="2.4957">
        <ele>309.3</ele>
        <time>2018-10-14T08:27:38Z</time>
      </trkpt>
      <trkpt lat="46.4042" lon="2.49582">
        <ele>309</ele>
        <time>2018-10-14T08:27:39Z</time>
      </trkpt>
      <trkpt lat="46.40419" lon="2.49593">
        <ele>308.8</ele>
        <time>2018-10-14T08:27:40Z</time>
      </trkpt>
      <trkpt lat="46.40419" lon="2.49605">
        <ele>308.4</ele>
        <time>2018-10-14T08:27:41Z</time>
      </trkpt>
      <trkpt lat="46.40418" lon="2.49617">
        <ele>308</ele>
        <time>2018-10-14T08:27:42Z</time>
      </trkpt>
      <trkpt lat="46.40418" lon="2.49629">
        <ele>307.6</ele>
        <time>2018-10-14T08:27:43Z</time>
      </trkpt>
      <trkpt lat="46.40417" lon="2.49642">
        <ele>307.3</ele>
        <time>2018-10-14T08:27:44Z</time>
      </trkpt>
      <trkpt lat="46.40417" lon="2.49654">
        <ele>307</ele>
        <time>2018-10-14T08:27:45Z</time>
      </trkpt>
      <trkpt lat="46.40417" lon="2.49667">
        <ele>306.2</ele>
        <time>2018-10-14T08:27:46Z</time>
      </trkpt>
      <trkpt lat="46.40416" lon="2.49679">
        <ele>305.5</ele>
        <time>2018-10-14T08:27:47Z</time>
      </trkpt>
      <trkpt lat="46.40416" lon="2.49692">
        <ele>305.3</ele>
        <time>2018-10-14T08:27:48Z</time>
      </trkpt>
      <trkpt lat="46.40416" lon="2.49704">
        <ele>305.1</ele>
        <time>2018-10-14T08:27:49Z</time>
      </trkpt>
      <trkpt lat="46.40415" lon="2.49717">
        <ele>305</ele>
        <time>2018-10-14T08:27:50Z</time>
      </trkpt>
      <trkpt lat="46.40416" lon="2.49729">
        <ele>304</ele>
        <time>2018-10-14T08:27:51Z</time>
      </trkpt>
      <trkpt lat="46.40416" lon="2.49742">
        <ele>303.3</ele>
        <time>2018-10-14T08:27:52Z</time>
      </trkpt>
      <trkpt lat="46.40416" lon="2.49755">
        <ele>302.4</ele>
        <time>2018-10-14T08:27:53Z</time>
      </trkpt>
      <trkpt lat="46.40416" lon="2.49767">
        <ele>301.6</ele>
        <time>2018-10-14T08:27:54Z</time>
      </trkpt>
      <trkpt lat="46.40416" lon="2.49779">
        <ele>301.2</ele>
        <time>2018-10-14T08:27:55Z</time>
      </trkpt>
      <trkpt lat="46.40415" lon="2.49791">
        <ele>301</ele>
        <time>2018-10-14T08:27:56Z</time>
      </trkpt>
      <trkpt lat="46.40413" lon="2.49804">
        <ele>300.7</ele>
        <time>2018-10-14T08:27:57Z</time>
      </trkpt>
      <trkpt lat="46.40412" lon="2.49816">
        <ele>300.6</ele>
        <time>2018-10-14T08:27:58Z</time>
      </trkpt>
      <trkpt lat="46.40412" lon="2.49828">
        <ele>300.5</ele>
        <time>2018-10-14T08:27:59Z</time>
      </trkpt>
      <trkpt lat="46.40412" lon="2.4984">
        <ele>299.8</ele>
        <time>2018-10-14T08:28:00Z</time>
      </trkpt>
      <trkpt lat="46.40413" lon="2.4985">
        <ele>299.3</ele>
        <time>2018-10-14T08:28:01Z</time>
      </trkpt>
      <trkpt lat="46.40413" lon="2.49859">
        <ele>299.2</ele>
        <time>2018-10-14T08:28:02Z</time>
      </trkpt>
      <trkpt lat="46.40412" lon="2.49868">
        <ele>299.1</ele>
        <time>2018-10-14T08:28:03Z</time>
      </trkpt>
      <trkpt lat="46.40412" lon="2.49875">
        <ele>299</ele>
        <time>2018-10-14T08:28:04Z</time>
      </trkpt>
      <trkpt lat="46.40408" lon="2.49885">
        <ele>298.8</ele>
        <time>2018-10-14T08:28:06Z</time>
      </trkpt>
      <trkpt lat="46.404" lon="2.49886">
        <ele>297.8</ele>
        <time>2018-10-14T08:28:08Z</time>
      </trkpt>
      <trkpt lat="46.40391" lon="2.49885">
        <ele>297.5</ele>
        <time>2018-10-14T08:28:10Z</time>
      </trkpt>
      <trkpt lat="46.40387" lon="2.49885">
        <ele>297.6</ele>
        <time>2018-10-14T08:28:11Z</time>
      </trkpt>
      <trkpt lat="46.40382" lon="2.49884">
        <ele>297.3</ele>
        <time>2018-10-14T08:28:12Z</time>
      </trkpt>
      <trkpt lat="46.40377" lon="2.49883">
        <ele>297</ele>
        <time>2018-10-14T08:28:13Z</time>
      </trkpt>
      <trkpt lat="46.40372" lon="2.49883">
        <ele>296.8</ele>
        <time>2018-10-14T08:28:14Z</time>
      </trkpt>
      <trkpt lat="46.40366" lon="2.49882">
        <ele>296.6</ele>
        <time>2018-10-14T08:28:15Z</time>
      </trkpt>
      <trkpt lat="46.40361" lon="2.49881">
        <ele>296.5</ele>
        <time>2018-10-14T08:28:16Z</time>
      </trkpt>
      <trkpt lat="46.40356" lon="2.4988">
        <ele>296</ele>
        <time>2018-10-14T08:28:17Z</time>
      </trkpt>
      <trkpt lat="46.40351" lon="2.49879">
        <ele>295.6</ele>
        <time>2018-10-14T08:28:18Z</time>
      </trkpt>
      <trkpt lat="46.40345" lon="2.49877">
        <ele>295.8</ele>
        <time>2018-10-14T08:28:19Z</time>
      </trkpt>
      <trkpt lat="46.4034" lon="2.49876">
        <ele>295.9</ele>
        <time>2018-10-14T08:28:20Z</time>
      </trkpt>
      <trkpt lat="46.40334" lon="2.49875">
        <ele>296.1</ele>
        <time>2018-10-14T08:28:21Z</time>
      </trkpt>
      <trkpt lat="46.40329" lon="2.49873">
        <ele>296.2</ele>
        <time>2018-10-14T08:28:22Z</time>
      </trkpt>
      <trkpt lat="46.40324" lon="2.49871">
        <ele>296.3</ele>
        <time>2018-10-14T08:28:23Z</time>
      </trkpt>
      <trkpt lat="46.40318" lon="2.4987">
        <ele>296.2</ele>
        <time>2018-10-14T08:28:24Z</time>
      </trkpt>
      <trkpt lat="46.40313" lon="2.49868">
        <ele>296</ele>
        <time>2018-10-14T08:28:25Z</time>
      </trkpt>
      <trkpt lat="46.40308" lon="2.49866">
        <ele>296</ele>
        <time>2018-10-14T08:28:26Z</time>
      </trkpt>
      <trkpt lat="46.40304" lon="2.49865">
        <ele>296</ele>
        <time>2018-10-14T08:28:27Z</time>
      </trkpt>
      <trkpt lat="46.40299" lon="2.49863">
        <ele>296</ele>
        <time>2018-10-14T08:28:28Z</time>
      </trkpt>
      <trkpt lat="46.40294" lon="2.49861">
        <ele>296.1</ele>
        <time>2018-10-14T08:28:29Z</time>
      </trkpt>
      <trkpt lat="46.40289" lon="2.49861">
        <ele>296.1</ele>
        <time>2018-10-14T08:28:30Z</time>
      </trkpt>
      <trkpt lat="46.40283" lon="2.49862">
        <ele>296.1</ele>
        <time>2018-10-14T08:28:31Z</time>
      </trkpt>
      <trkpt lat="46.40278" lon="2.49865">
        <ele>296.1</ele>
        <time>2018-10-14T08:28:32Z</time>
      </trkpt>
      <trkpt lat="46.40273" lon="2.49871">
        <ele>295.7</ele>
        <time>2018-10-14T08:28:33Z</time>
      </trkpt>
      <trkpt lat="46.4027" lon="2.49879">
        <ele>295.4</ele>
        <time>2018-10-14T08:28:34Z</time>
      </trkpt>
      <trkpt lat="46.40267" lon="2.49888">
        <ele>295.2</ele>
        <time>2018-10-14T08:28:35Z</time>
      </trkpt>
      <trkpt lat="46.40264" lon="2.49897">
        <ele>295.2</ele>
        <time>2018-10-14T08:28:36Z</time>
      </trkpt>
      <trkpt lat="46.40261" lon="2.49906">
        <ele>295.2</ele>
        <time>2018-10-14T08:28:37Z</time>
      </trkpt>
      <trkpt lat="46.40259" lon="2.49915">
        <ele>294.4</ele>
        <time>2018-10-14T08:28:38Z</time>
      </trkpt>
      <trkpt lat="46.40256" lon="2.49924">
        <ele>293.8</ele>
        <time>2018-10-14T08:28:39Z</time>
      </trkpt>
      <trkpt lat="46.40254" lon="2.49934">
        <ele>293.3</ele>
        <time>2018-10-14T08:28:40Z</time>
      </trkpt>
      <trkpt lat="46.40251" lon="2.49944">
        <ele>293</ele>
        <time>2018-10-14T08:28:41Z</time>
      </trkpt>
      <trkpt lat="46.40248" lon="2.49954">
        <ele>292.8</ele>
        <time>2018-10-14T08:28:42Z</time>
      </trkpt>
      <trkpt lat="46.40246" lon="2.49965">
        <ele>292.4</ele>
        <time>2018-10-14T08:28:43Z</time>
      </trkpt>
      <trkpt lat="46.40244" lon="2.49978">
        <ele>292.2</ele>
        <time>2018-10-14T08:28:44Z</time>
      </trkpt>
      <trkpt lat="46.40243" lon="2.49991">
        <ele>291.1</ele>
        <time>2018-10-14T08:28:45Z</time>
      </trkpt>
      <trkpt lat="46.40242" lon="2.50004">
        <ele>290.3</ele>
        <time>2018-10-14T08:28:46Z</time>
      </trkpt>
      <trkpt lat="46.40241" lon="2.50018">
        <ele>289.7</ele>
        <time>2018-10-14T08:28:47Z</time>
      </trkpt>
      <trkpt lat="46.40241" lon="2.50033">
        <ele>288.7</ele>
        <time>2018-10-14T08:28:48Z</time>
      </trkpt>
      <trkpt lat="46.4024" lon="2.50048">
        <ele>287.9</ele>
        <time>2018-10-14T08:28:49Z</time>
      </trkpt>
      <trkpt lat="46.40239" lon="2.50063">
        <ele>287.2</ele>
        <time>2018-10-14T08:28:50Z</time>
      </trkpt>
      <trkpt lat="46.40238" lon="2.50078">
        <ele>286.6</ele>
        <time>2018-10-14T08:28:51Z</time>
      </trkpt>
      <trkpt lat="46.40237" lon="2.50092">
        <ele>285.6</ele>
        <time>2018-10-14T08:28:52Z</time>
      </trkpt>
      <trkpt lat="46.40237" lon="2.50106">
        <ele>284.8</ele>
        <time>2018-10-14T08:28:53Z</time>
      </trkpt>
      <trkpt lat="46.40237" lon="2.5012">
        <ele>284.2</ele>
        <time>2018-10-14T08:28:54Z</time>
      </trkpt>
      <trkpt lat="46.40238" lon="2.50134">
        <ele>283.8</ele>
        <time>2018-10-14T08:28:55Z</time>
      </trkpt>
      <trkpt lat="46.4024" lon="2.50146">
        <ele>283.4</ele>
        <time>2018-10-14T08:28:56Z</time>
      </trkpt>
      <trkpt lat="46.40244" lon="2.50158">
        <ele>282.8</ele>
        <time>2018-10-14T08:28:57Z</time>
      </trkpt>
      <trkpt lat="46.40247" lon="2.5017">
        <ele>282.3</ele>
        <time>2018-10-14T08:28:58Z</time>
      </trkpt>
      <trkpt lat="46.4025" lon="2.50182">
        <ele>282.2</ele>
        <time>2018-10-14T08:28:59Z</time>
      </trkpt>
      <trkpt lat="46.40254" lon="2.50193">
        <ele>282.1</ele>
        <time>2018-10-14T08:29:00Z</time>
      </trkpt>
      <trkpt lat="46.40257" lon="2.50205">
        <ele>282</ele>
        <time>2018-10-14T08:29:01Z</time>
      </trkpt>
      <trkpt lat="46.4026" lon="2.50216">
        <ele>281.3</ele>
        <time>2018-10-14T08:29:02Z</time>
      </trkpt>
      <trkpt lat="46.40264" lon="2.50227">
        <ele>280.9</ele>
        <time>2018-10-14T08:29:03Z</time>
      </trkpt>
      <trkpt lat="46.40267" lon="2.50237">
        <ele>280.2</ele>
        <time>2018-10-14T08:29:04Z</time>
      </trkpt>
      <trkpt lat="46.40269" lon="2.50247">
        <ele>279.7</ele>
        <time>2018-10-14T08:29:05Z</time>
      </trkpt>
      <trkpt lat="46.40267" lon="2.50256">
        <ele>279.3</ele>
        <time>2018-10-14T08:29:06Z</time>
      </trkpt>
      <trkpt lat="46.40263" lon="2.50262">
        <ele>278.8</ele>
        <time>2018-10-14T08:29:07Z</time>
      </trkpt>
      <trkpt lat="46.40258" lon="2.50266">
        <ele>278.4</ele>
        <time>2018-10-14T08:29:08Z</time>
      </trkpt>
      <trkpt lat="46.40251" lon="2.5027">
        <ele>278.1</ele>
        <time>2018-10-14T08:29:09Z</time>
      </trkpt>
      <trkpt lat="46.40244" lon="2.50273">
        <ele>277.9</ele>
        <time>2018-10-14T08:29:10Z</time>
      </trkpt>
      <trkpt lat="46.40237" lon="2.50276">
        <ele>277.6</ele>
        <time>2018-10-14T08:29:11Z</time>
      </trkpt>
      <trkpt lat="46.4023" lon="2.5028">
        <ele>277.3</ele>
        <time>2018-10-14T08:29:12Z</time>
      </trkpt>
      <trkpt lat="46.40223" lon="2.50284">
        <ele>277.2</ele>
        <time>2018-10-14T08:29:13Z</time>
      </trkpt>
      <trkpt lat="46.40216" lon="2.50287">
        <ele>277</ele>
        <time>2018-10-14T08:29:14Z</time>
      </trkpt>
      <trkpt lat="46.40209" lon="2.5029">
        <ele>276.9</ele>
        <time>2018-10-14T08:29:15Z</time>
      </trkpt>
      <trkpt lat="46.40203" lon="2.50294">
        <ele>277.3</ele>
        <time>2018-10-14T08:29:16Z</time>
      </trkpt>
      <trkpt lat="46.40198" lon="2.50297">
        <ele>277.6</ele>
        <time>2018-10-14T08:29:17Z</time>
      </trkpt>
      <trkpt lat="46.40192" lon="2.503">
        <ele>277.3</ele>
        <time>2018-10-14T08:29:18Z</time>
      </trkpt>
      <trkpt lat="46.40187" lon="2.50303">
        <ele>277</ele>
        <time>2018-10-14T08:29:19Z</time>
      </trkpt>
      <trkpt lat="46.4018" lon="2.50308">
        <ele>276.9</ele>
        <time>2018-10-14T08:29:21Z</time>
      </trkpt>
      <trkpt lat="46.40175" lon="2.50316">
        <ele>277.5</ele>
        <time>2018-10-14T08:29:24Z</time>
      </trkpt>
      <trkpt lat="46.40177" lon="2.50327">
        <ele>277.6</ele>
        <time>2018-10-14T08:29:26Z</time>
      </trkpt>
      <trkpt lat="46.40178" lon="2.50334">
        <ele>277.6</ele>
        <time>2018-10-14T08:29:27Z</time>
      </trkpt>
      <trkpt lat="46.40179" lon="2.50341">
        <ele>277.5</ele>
        <time>2018-10-14T08:29:28Z</time>
      </trkpt>
      <trkpt lat="46.40181" lon="2.50348">
        <ele>277.5</ele>
        <time>2018-10-14T08:29:29Z</time>
      </trkpt>
      <trkpt lat="46.40182" lon="2.50357">
        <ele>277.6</ele>
        <time>2018-10-14T08:29:30Z</time>
      </trkpt>
      <trkpt lat="46.40183" lon="2.50366">
        <ele>277.6</ele>
        <time>2018-10-14T08:29:31Z</time>
      </trkpt>
      <trkpt lat="46.40185" lon="2.50376">
        <ele>277.7</ele>
        <time>2018-10-14T08:29:32Z</time>
      </trkpt>
      <trkpt lat="46.40186" lon="2.50385">
        <ele>277.5</ele>
        <time>2018-10-14T08:29:33Z</time>
      </trkpt>
      <trkpt lat="46.40187" lon="2.50396">
        <ele>277.4</ele>
        <time>2018-10-14T08:29:34Z</time>
      </trkpt>
      <trkpt lat="46.40188" lon="2.50407">
        <ele>276.7</ele>
        <time>2018-10-14T08:29:35Z</time>
      </trkpt>
      <trkpt lat="46.40188" lon="2.50419">
        <ele>276.3</ele>
        <time>2018-10-14T08:29:36Z</time>
      </trkpt>
      <trkpt lat="46.40189" lon="2.5043">
        <ele>275.8</ele>
        <time>2018-10-14T08:29:37Z</time>
      </trkpt>
      <trkpt lat="46.40189" lon="2.50441">
        <ele>275.5</ele>
        <time>2018-10-14T08:29:38Z</time>
      </trkpt>
      <trkpt lat="46.40191" lon="2.50453">
        <ele>275.3</ele>
        <time>2018-10-14T08:29:39Z</time>
      </trkpt>
      <trkpt lat="46.40192" lon="2.50465">
        <ele>274.6</ele>
        <time>2018-10-14T08:29:40Z</time>
      </trkpt>
      <trkpt lat="46.40193" lon="2.50477">
        <ele>274.2</ele>
        <time>2018-10-14T08:29:41Z</time>
      </trkpt>
      <trkpt lat="46.40194" lon="2.5049">
        <ele>273.9</ele>
        <time>2018-10-14T08:29:42Z</time>
      </trkpt>
      <trkpt lat="46.40195" lon="2.50503">
        <ele>273.7</ele>
        <time>2018-10-14T08:29:43Z</time>
      </trkpt>
      <trkpt lat="46.40197" lon="2.50516">
        <ele>273</ele>
        <time>2018-10-14T08:29:44Z</time>
      </trkpt>
      <trkpt lat="46.40198" lon="2.50528">
        <ele>272.5</ele>
        <time>2018-10-14T08:29:45Z</time>
      </trkpt>
      <trkpt lat="46.402" lon="2.5054">
        <ele>272.1</ele>
        <time>2018-10-14T08:29:46Z</time>
      </trkpt>
      <trkpt lat="46.40201" lon="2.50553">
        <ele>272</ele>
        <time>2018-10-14T08:29:47Z</time>
      </trkpt>
      <trkpt lat="46.40202" lon="2.50565">
        <ele>271.9</ele>
        <time>2018-10-14T08:29:48Z</time>
      </trkpt>
      <trkpt lat="46.40203" lon="2.50578">
        <ele>271.7</ele>
        <time>2018-10-14T08:29:49Z</time>
      </trkpt>
      <trkpt lat="46.40204" lon="2.5059">
        <ele>271.6</ele>
        <time>2018-10-14T08:29:50Z</time>
      </trkpt>
      <trkpt lat="46.40204" lon="2.50603">
        <ele>271.6</ele>
        <time>2018-10-14T08:29:51Z</time>
      </trkpt>
      <trkpt lat="46.40203" lon="2.50615">
        <ele>271.2</ele>
        <time>2018-10-14T08:29:52Z</time>
      </trkpt>
      <trkpt lat="46.402" lon="2.50627">
        <ele>270.9</ele>
        <time>2018-10-14T08:29:53Z</time>
      </trkpt>
      <trkpt lat="46.40196" lon="2.50637">
        <ele>270.3</ele>
        <time>2018-10-14T08:29:54Z</time>
      </trkpt>
      <trkpt lat="46.40192" lon="2.50647">
        <ele>269.7</ele>
        <time>2018-10-14T08:29:55Z</time>
      </trkpt>
      <trkpt lat="46.40188" lon="2.50656">
        <ele>269.7</ele>
        <time>2018-10-14T08:29:56Z</time>
      </trkpt>
      <trkpt lat="46.40183" lon="2.50664">
        <ele>269.7</ele>
        <time>2018-10-14T08:29:57Z</time>
      </trkpt>
      <trkpt lat="46.40179" lon="2.50672">
        <ele>269.7</ele>
        <time>2018-10-14T08:29:58Z</time>
      </trkpt>
      <trkpt lat="46.40174" lon="2.50681">
        <ele>269.7</ele>
        <time>2018-10-14T08:29:59Z</time>
      </trkpt>
      <trkpt lat="46.40169" lon="2.50689">
        <ele>269.7</ele>
        <time>2018-10-14T08:30:00Z</time>
      </trkpt>
      <trkpt lat="46.40164" lon="2.50697">
        <ele>269.3</ele>
        <time>2018-10-14T08:30:01Z</time>
      </trkpt>
      <trkpt lat="46.40159" lon="2.50704">
        <ele>269.1</ele>
        <time>2018-10-14T08:30:02Z</time>
      </trkpt>
      <trkpt lat="46.40154" lon="2.50712">
        <ele>268.9</ele>
        <time>2018-10-14T08:30:03Z</time>
      </trkpt>
      <trkpt lat="46.40149" lon="2.50719">
        <ele>269</ele>
        <time>2018-10-14T08:30:04Z</time>
      </trkpt>
      <trkpt lat="46.40144" lon="2.50727">
        <ele>269.1</ele>
        <time>2018-10-14T08:30:05Z</time>
      </trkpt>
      <trkpt lat="46.40139" lon="2.50734">
        <ele>268.8</ele>
        <time>2018-10-14T08:30:06Z</time>
      </trkpt>
      <trkpt lat="46.40134" lon="2.50741">
        <ele>268.6</ele>
        <time>2018-10-14T08:30:07Z</time>
      </trkpt>
      <trkpt lat="46.40129" lon="2.50748">
        <ele>268.4</ele>
        <time>2018-10-14T08:30:08Z</time>
      </trkpt>
      <trkpt lat="46.40124" lon="2.50755">
        <ele>268.3</ele>
        <time>2018-10-14T08:30:09Z</time>
      </trkpt>
      <trkpt lat="46.40119" lon="2.50763">
        <ele>268.3</ele>
        <time>2018-10-14T08:30:10Z</time>
      </trkpt>
      <trkpt lat="46.40115" lon="2.50771">
        <ele>267.7</ele>
        <time>2018-10-14T08:30:11Z</time>
      </trkpt>
      <trkpt lat="46.4011" lon="2.50779">
        <ele>267.2</ele>
        <time>2018-10-14T08:30:12Z</time>
      </trkpt>
      <trkpt lat="46.40105" lon="2.50787">
        <ele>267.1</ele>
        <time>2018-10-14T08:30:13Z</time>
      </trkpt>
      <trkpt lat="46.401" lon="2.50796">
        <ele>267</ele>
        <time>2018-10-14T08:30:14Z</time>
      </trkpt>
      <trkpt lat="46.40096" lon="2.50806">
        <ele>266.8</ele>
        <time>2018-10-14T08:30:15Z</time>
      </trkpt>
      <trkpt lat="46.40092" lon="2.50816">
        <ele>266.7</ele>
        <time>2018-10-14T08:30:16Z</time>
      </trkpt>
      <trkpt lat="46.40089" lon="2.50826">
        <ele>266.7</ele>
        <time>2018-10-14T08:30:17Z</time>
      </trkpt>
      <trkpt lat="46.40086" lon="2.50836">
        <ele>266.5</ele>
        <time>2018-10-14T08:30:18Z</time>
      </trkpt>
      <trkpt lat="46.40084" lon="2.50847">
        <ele>266.4</ele>
        <time>2018-10-14T08:30:19Z</time>
      </trkpt>
      <trkpt lat="46.40082" lon="2.50859">
        <ele>266.3</ele>
        <time>2018-10-14T08:30:20Z</time>
      </trkpt>
      <trkpt lat="46.4008" lon="2.50871">
        <ele>266.2</ele>
        <time>2018-10-14T08:30:21Z</time>
      </trkpt>
      <trkpt lat="46.40078" lon="2.50882">
        <ele>265.7</ele>
        <time>2018-10-14T08:30:22Z</time>
      </trkpt>
      <trkpt lat="46.40076" lon="2.50894">
        <ele>265.3</ele>
        <time>2018-10-14T08:30:23Z</time>
      </trkpt>
      <trkpt lat="46.40074" lon="2.50906">
        <ele>265.1</ele>
        <time>2018-10-14T08:30:24Z</time>
      </trkpt>
      <trkpt lat="46.40072" lon="2.50917">
        <ele>264.5</ele>
        <time>2018-10-14T08:30:25Z</time>
      </trkpt>
      <trkpt lat="46.40068" lon="2.50929">
        <ele>264</ele>
        <time>2018-10-14T08:30:26Z</time>
      </trkpt>
      <trkpt lat="46.40065" lon="2.5094">
        <ele>263.4</ele>
        <time>2018-10-14T08:30:27Z</time>
      </trkpt>
      <trkpt lat="46.40061" lon="2.50951">
        <ele>262.9</ele>
        <time>2018-10-14T08:30:28Z</time>
      </trkpt>
      <trkpt lat="46.40057" lon="2.50961">
        <ele>262.5</ele>
        <time>2018-10-14T08:30:29Z</time>
      </trkpt>
      <trkpt lat="46.40053" lon="2.50972">
        <ele>262.5</ele>
        <time>2018-10-14T08:30:30Z</time>
      </trkpt>
      <trkpt lat="46.40049" lon="2.50982">
        <ele>262.4</ele>
        <time>2018-10-14T08:30:31Z</time>
      </trkpt>
      <trkpt lat="46.40045" lon="2.50993">
        <ele>262.4</ele>
        <time>2018-10-14T08:30:32Z</time>
      </trkpt>
      <trkpt lat="46.40042" lon="2.51004">
        <ele>262.5</ele>
        <time>2018-10-14T08:30:33Z</time>
      </trkpt>
      <trkpt lat="46.4004" lon="2.51015">
        <ele>262</ele>
        <time>2018-10-14T08:30:34Z</time>
      </trkpt>
      <trkpt lat="46.40038" lon="2.51026">
        <ele>261.6</ele>
        <time>2018-10-14T08:30:35Z</time>
      </trkpt>
      <trkpt lat="46.40036" lon="2.51038">
        <ele>261.3</ele>
        <time>2018-10-14T08:30:36Z</time>
      </trkpt>
      <trkpt lat="46.40034" lon="2.5105">
        <ele>260.7</ele>
        <time>2018-10-14T08:30:37Z</time>
      </trkpt>
      <trkpt lat="46.40032" lon="2.51061">
        <ele>260.2</ele>
        <time>2018-10-14T08:30:38Z</time>
      </trkpt>
      <trkpt lat="46.4003" lon="2.51073">
        <ele>260</ele>
        <time>2018-10-14T08:30:39Z</time>
      </trkpt>
      <trkpt lat="46.40029" lon="2.51085">
        <ele>259.9</ele>
        <time>2018-10-14T08:30:40Z</time>
      </trkpt>
      <trkpt lat="46.40027" lon="2.51097">
        <ele>259.7</ele>
        <time>2018-10-14T08:30:41Z</time>
      </trkpt>
      <trkpt lat="46.40025" lon="2.51109">
        <ele>259.6</ele>
        <time>2018-10-14T08:30:42Z</time>
      </trkpt>
      <trkpt lat="46.40023" lon="2.5112">
        <ele>259.5</ele>
        <time>2018-10-14T08:30:43Z</time>
      </trkpt>
      <trkpt lat="46.40021" lon="2.51132">
        <ele>259.1</ele>
        <time>2018-10-14T08:30:44Z</time>
      </trkpt>
      <trkpt lat="46.40018" lon="2.51143">
        <ele>258.8</ele>
        <time>2018-10-14T08:30:45Z</time>
      </trkpt>
      <trkpt lat="46.40016" lon="2.51155">
        <ele>258.4</ele>
        <time>2018-10-14T08:30:46Z</time>
      </trkpt>
      <trkpt lat="46.40013" lon="2.51166">
        <ele>258</ele>
        <time>2018-10-14T08:30:47Z</time>
      </trkpt>
      <trkpt lat="46.4001" lon="2.51177">
        <ele>257.8</ele>
        <time>2018-10-14T08:30:48Z</time>
      </trkpt>
      <trkpt lat="46.40007" lon="2.51187">
        <ele>257.6</ele>
        <time>2018-10-14T08:30:49Z</time>
      </trkpt>
      <trkpt lat="46.40003" lon="2.51198">
        <ele>257.4</ele>
        <time>2018-10-14T08:30:50Z</time>
      </trkpt>
      <trkpt lat="46.4" lon="2.51209">
        <ele>256.9</ele>
        <time>2018-10-14T08:30:51Z</time>
      </trkpt>
      <trkpt lat="46.39997" lon="2.51219">
        <ele>256.4</ele>
        <time>2018-10-14T08:30:52Z</time>
      </trkpt>
      <trkpt lat="46.39994" lon="2.5123">
        <ele>256.2</ele>
        <time>2018-10-14T08:30:53Z</time>
      </trkpt>
      <trkpt lat="46.39991" lon="2.51241">
        <ele>256.1</ele>
        <time>2018-10-14T08:30:54Z</time>
      </trkpt>
      <trkpt lat="46.39988" lon="2.51252">
        <ele>256</ele>
        <time>2018-10-14T08:30:55Z</time>
      </trkpt>
      <trkpt lat="46.39985" lon="2.51263">
        <ele>255.8</ele>
        <time>2018-10-14T08:30:56Z</time>
      </trkpt>
      <trkpt lat="46.39981" lon="2.51274">
        <ele>255.7</ele>
        <time>2018-10-14T08:30:57Z</time>
      </trkpt>
      <trkpt lat="46.39978" lon="2.51285">
        <ele>254.9</ele>
        <time>2018-10-14T08:30:58Z</time>
      </trkpt>
      <trkpt lat="46.39975" lon="2.51296">
        <ele>254.3</ele>
        <time>2018-10-14T08:30:59Z</time>
      </trkpt>
      <trkpt lat="46.39972" lon="2.51308">
        <ele>253.7</ele>
        <time>2018-10-14T08:31:00Z</time>
      </trkpt>
      <trkpt lat="46.39969" lon="2.51319">
        <ele>253.3</ele>
        <time>2018-10-14T08:31:01Z</time>
      </trkpt>
      <trkpt lat="46.39966" lon="2.5133">
        <ele>253</ele>
        <time>2018-10-14T08:31:02Z</time>
      </trkpt>
      <trkpt lat="46.39963" lon="2.5134">
        <ele>253.1</ele>
        <time>2018-10-14T08:31:03Z</time>
      </trkpt>
      <trkpt lat="46.39961" lon="2.51351">
        <ele>253.1</ele>
        <time>2018-10-14T08:31:04Z</time>
      </trkpt>
      <trkpt lat="46.39959" lon="2.51362">
        <ele>253</ele>
        <time>2018-10-14T08:31:05Z</time>
      </trkpt>
      <trkpt lat="46.39956" lon="2.51374">
        <ele>252.9</ele>
        <time>2018-10-14T08:31:06Z</time>
      </trkpt>
      <trkpt lat="46.39954" lon="2.51386">
        <ele>252.8</ele>
        <time>2018-10-14T08:31:07Z</time>
      </trkpt>
      <trkpt lat="46.39952" lon="2.51398">
        <ele>252.2</ele>
        <time>2018-10-14T08:31:08Z</time>
      </trkpt>
      <trkpt lat="46.3995" lon="2.5141">
        <ele>251.8</ele>
        <time>2018-10-14T08:31:09Z</time>
      </trkpt>
      <trkpt lat="46.39947" lon="2.51422">
        <ele>251.4</ele>
        <time>2018-10-14T08:31:10Z</time>
      </trkpt>
      <trkpt lat="46.39945" lon="2.51433">
        <ele>251.1</ele>
        <time>2018-10-14T08:31:11Z</time>
      </trkpt>
      <trkpt lat="46.39942" lon="2.51443">
        <ele>250.6</ele>
        <time>2018-10-14T08:31:12Z</time>
      </trkpt>
      <trkpt lat="46.39939" lon="2.51453">
        <ele>250.2</ele>
        <time>2018-10-14T08:31:13Z</time>
      </trkpt>
      <trkpt lat="46.39936" lon="2.51463">
        <ele>249.9</ele>
        <time>2018-10-14T08:31:14Z</time>
      </trkpt>
      <trkpt lat="46.39933" lon="2.51473">
        <ele>249.7</ele>
        <time>2018-10-14T08:31:15Z</time>
      </trkpt>
      <trkpt lat="46.39929" lon="2.51484">
        <ele>249.6</ele>
        <time>2018-10-14T08:31:16Z</time>
      </trkpt>
      <trkpt lat="46.39925" lon="2.51494">
        <ele>249.2</ele>
        <time>2018-10-14T08:31:17Z</time>
      </trkpt>
      <trkpt lat="46.39921" lon="2.51504">
        <ele>248.8</ele>
        <time>2018-10-14T08:31:18Z</time>
      </trkpt>
      <trkpt lat="46.39917" lon="2.51514">
        <ele>248.9</ele>
        <time>2018-10-14T08:31:19Z</time>
      </trkpt>
      <trkpt lat="46.39912" lon="2.51524">
        <ele>249</ele>
        <time>2018-10-14T08:31:20Z</time>
      </trkpt>
      <trkpt lat="46.39908" lon="2.51533">
        <ele>249</ele>
        <time>2018-10-14T08:31:21Z</time>
      </trkpt>
      <trkpt lat="46.39904" lon="2.51542">
        <ele>248.8</ele>
        <time>2018-10-14T08:31:22Z</time>
      </trkpt>
      <trkpt lat="46.399" lon="2.51552">
        <ele>248.7</ele>
        <time>2018-10-14T08:31:23Z</time>
      </trkpt>
      <trkpt lat="46.39896" lon="2.51561">
        <ele>247.9</ele>
        <time>2018-10-14T08:31:24Z</time>
      </trkpt>
      <trkpt lat="46.39892" lon="2.5157">
        <ele>247.3</ele>
        <time>2018-10-14T08:31:25Z</time>
      </trkpt>
      <trkpt lat="46.39887" lon="2.51579">
        <ele>246.8</ele>
        <time>2018-10-14T08:31:26Z</time>
      </trkpt>
      <trkpt lat="46.39884" lon="2.51588">
        <ele>246.6</ele>
        <time>2018-10-14T08:31:27Z</time>
      </trkpt>
      <trkpt lat="46.3988" lon="2.51597">
        <ele>246.4</ele>
        <time>2018-10-14T08:31:28Z</time>
      </trkpt>
      <trkpt lat="46.39876" lon="2.51606">
        <ele>246.7</ele>
        <time>2018-10-14T08:31:29Z</time>
      </trkpt>
      <trkpt lat="46.39872" lon="2.51615">
        <ele>247</ele>
        <time>2018-10-14T08:31:30Z</time>
      </trkpt>
      <trkpt lat="46.39869" lon="2.51624">
        <ele>246.8</ele>
        <time>2018-10-14T08:31:31Z</time>
      </trkpt>
      <trkpt lat="46.39866" lon="2.51633">
        <ele>246.7</ele>
        <time>2018-10-14T08:31:32Z</time>
      </trkpt>
      <trkpt lat="46.39863" lon="2.51643">
        <ele>246.6</ele>
        <time>2018-10-14T08:31:33Z</time>
      </trkpt>
      <trkpt lat="46.39861" lon="2.51653">
        <ele>246.5</ele>
        <time>2018-10-14T08:31:34Z</time>
      </trkpt>
      <trkpt lat="46.39858" lon="2.51662">
        <ele>246.4</ele>
        <time>2018-10-14T08:31:35Z</time>
      </trkpt>
      <trkpt lat="46.39856" lon="2.51672">
        <ele>246.4</ele>
        <time>2018-10-14T08:31:36Z</time>
      </trkpt>
      <trkpt lat="46.39854" lon="2.51682">
        <ele>246.4</ele>
        <time>2018-10-14T08:31:37Z</time>
      </trkpt>
      <trkpt lat="46.39853" lon="2.51692">
        <ele>246.5</ele>
        <time>2018-10-14T08:31:38Z</time>
      </trkpt>
      <trkpt lat="46.39851" lon="2.51702">
        <ele>246.5</ele>
        <time>2018-10-14T08:31:39Z</time>
      </trkpt>
      <trkpt lat="46.39849" lon="2.51713">
        <ele>246.5</ele>
        <time>2018-10-14T08:31:40Z</time>
      </trkpt>
      <trkpt lat="46.39847" lon="2.51724">
        <ele>246.5</ele>
        <time>2018-10-14T08:31:41Z</time>
      </trkpt>
      <trkpt lat="46.39845" lon="2.51735">
        <ele>246.4</ele>
        <time>2018-10-14T08:31:42Z</time>
      </trkpt>
      <trkpt lat="46.39843" lon="2.51747">
        <ele>246</ele>
        <time>2018-10-14T08:31:43Z</time>
      </trkpt>
      <trkpt lat="46.39841" lon="2.5176">
        <ele>245.7</ele>
        <time>2018-10-14T08:31:44Z</time>
      </trkpt>
      <trkpt lat="46.3984" lon="2.51772">
        <ele>245.1</ele>
        <time>2018-10-14T08:31:45Z</time>
      </trkpt>
      <trkpt lat="46.39838" lon="2.51785">
        <ele>244.7</ele>
        <time>2018-10-14T08:31:46Z</time>
      </trkpt>
      <trkpt lat="46.39836" lon="2.51798">
        <ele>244.5</ele>
        <time>2018-10-14T08:31:47Z</time>
      </trkpt>
      <trkpt lat="46.39835" lon="2.51811">
        <ele>243.7</ele>
        <time>2018-10-14T08:31:48Z</time>
      </trkpt>
      <trkpt lat="46.39834" lon="2.51824">
        <ele>243.2</ele>
        <time>2018-10-14T08:31:49Z</time>
      </trkpt>
      <trkpt lat="46.39833" lon="2.51837">
        <ele>242.9</ele>
        <time>2018-10-14T08:31:50Z</time>
      </trkpt>
      <trkpt lat="46.39832" lon="2.51851">
        <ele>242.6</ele>
        <time>2018-10-14T08:31:51Z</time>
      </trkpt>
      <trkpt lat="46.39831" lon="2.51864">
        <ele>242.5</ele>
        <time>2018-10-14T08:31:52Z</time>
      </trkpt>
      <trkpt lat="46.39831" lon="2.51878">
        <ele>242.5</ele>
        <time>2018-10-14T08:31:53Z</time>
      </trkpt>
      <trkpt lat="46.3983" lon="2.51891">
        <ele>242.5</ele>
        <time>2018-10-14T08:31:54Z</time>
      </trkpt>
      <trkpt lat="46.3983" lon="2.51905">
        <ele>242.1</ele>
        <time>2018-10-14T08:31:55Z</time>
      </trkpt>
      <trkpt lat="46.3983" lon="2.51919">
        <ele>241.9</ele>
        <time>2018-10-14T08:31:56Z</time>
      </trkpt>
      <trkpt lat="46.3983" lon="2.51933">
        <ele>240.8</ele>
        <time>2018-10-14T08:31:57Z</time>
      </trkpt>
      <trkpt lat="46.3983" lon="2.51947">
        <ele>239.9</ele>
        <time>2018-10-14T08:31:58Z</time>
      </trkpt>
      <trkpt lat="46.3983" lon="2.51961">
        <ele>239.3</ele>
        <time>2018-10-14T08:31:59Z</time>
      </trkpt>
      <trkpt lat="46.3983" lon="2.51975">
        <ele>239</ele>
        <time>2018-10-14T08:32:00Z</time>
      </trkpt>
      <trkpt lat="46.39831" lon="2.5199">
        <ele>238.8</ele>
        <time>2018-10-14T08:32:01Z</time>
      </trkpt>
      <trkpt lat="46.39831" lon="2.52005">
        <ele>238.2</ele>
        <time>2018-10-14T08:32:02Z</time>
      </trkpt>
      <trkpt lat="46.39831" lon="2.5202">
        <ele>237.7</ele>
        <time>2018-10-14T08:32:03Z</time>
      </trkpt>
      <trkpt lat="46.39831" lon="2.52036">
        <ele>237.3</ele>
        <time>2018-10-14T08:32:04Z</time>
      </trkpt>
      <trkpt lat="46.39832" lon="2.52051">
        <ele>236.7</ele>
        <time>2018-10-14T08:32:05Z</time>
      </trkpt>
      <trkpt lat="46.39832" lon="2.52066">
        <ele>236.3</ele>
        <time>2018-10-14T08:32:06Z</time>
      </trkpt>
      <trkpt lat="46.39833" lon="2.5208">
        <ele>235.7</ele>
        <time>2018-10-14T08:32:07Z</time>
      </trkpt>
      <trkpt lat="46.39833" lon="2.52095">
        <ele>235.3</ele>
        <time>2018-10-14T08:32:08Z</time>
      </trkpt>
      <trkpt lat="46.39833" lon="2.52109">
        <ele>234.9</ele>
        <time>2018-10-14T08:32:09Z</time>
      </trkpt>
      <trkpt lat="46.39833" lon="2.52123">
        <ele>234.7</ele>
        <time>2018-10-14T08:32:10Z</time>
      </trkpt>
      <trkpt lat="46.39833" lon="2.52136">
        <ele>234.5</ele>
        <time>2018-10-14T08:32:11Z</time>
      </trkpt>
      <trkpt lat="46.39832" lon="2.52149">
        <ele>234.2</ele>
        <time>2018-10-14T08:32:12Z</time>
      </trkpt>
      <trkpt lat="46.3983" lon="2.52161">
        <ele>233.9</ele>
        <time>2018-10-14T08:32:13Z</time>
      </trkpt>
      <trkpt lat="46.39825" lon="2.52172">
        <ele>233.6</ele>
        <time>2018-10-14T08:32:14Z</time>
      </trkpt>
      <trkpt lat="46.3982" lon="2.52181">
        <ele>233.4</ele>
        <time>2018-10-14T08:32:15Z</time>
      </trkpt>
      <trkpt lat="46.39815" lon="2.52189">
        <ele>233.2</ele>
        <time>2018-10-14T08:32:16Z</time>
      </trkpt>
      <trkpt lat="46.39809" lon="2.52195">
        <ele>233.1</ele>
        <time>2018-10-14T08:32:17Z</time>
      </trkpt>
      <trkpt lat="46.39803" lon="2.522">
        <ele>233</ele>
        <time>2018-10-14T08:32:18Z</time>
      </trkpt>
      <trkpt lat="46.39797" lon="2.52204">
        <ele>233</ele>
        <time>2018-10-14T08:32:19Z</time>
      </trkpt>
      <trkpt lat="46.3979" lon="2.52208">
        <ele>233</ele>
        <time>2018-10-14T08:32:20Z</time>
      </trkpt>
      <trkpt lat="46.39784" lon="2.52212">
        <ele>233.1</ele>
        <time>2018-10-14T08:32:21Z</time>
      </trkpt>
      <trkpt lat="46.39778" lon="2.52216">
        <ele>233.1</ele>
        <time>2018-10-14T08:32:22Z</time>
      </trkpt>
      <trkpt lat="46.39771" lon="2.52219">
        <ele>233.5</ele>
        <time>2018-10-14T08:32:23Z</time>
      </trkpt>
      <trkpt lat="46.39765" lon="2.52223">
        <ele>233.7</ele>
        <time>2018-10-14T08:32:24Z</time>
      </trkpt>
      <trkpt lat="46.39759" lon="2.52225">
        <ele>233.9</ele>
        <time>2018-10-14T08:32:25Z</time>
      </trkpt>
      <trkpt lat="46.39752" lon="2.52228">
        <ele>233.8</ele>
        <time>2018-10-14T08:32:26Z</time>
      </trkpt>
      <trkpt lat="46.39746" lon="2.5223">
        <ele>233.7</ele>
        <time>2018-10-14T08:32:27Z</time>
      </trkpt>
      <trkpt lat="46.3974" lon="2.52233">
        <ele>233.9</ele>
        <time>2018-10-14T08:32:28Z</time>
      </trkpt>
      <trkpt lat="46.39734" lon="2.52235">
        <ele>234</ele>
        <time>2018-10-14T08:32:29Z</time>
      </trkpt>
      <trkpt lat="46.39728" lon="2.52237">
        <ele>234.1</ele>
        <time>2018-10-14T08:32:30Z</time>
      </trkpt>
      <trkpt lat="46.39722" lon="2.52239">
        <ele>234.3</ele>
        <time>2018-10-14T08:32:31Z</time>
      </trkpt>
      <trkpt lat="46.39716" lon="2.52241">
        <ele>234.4</ele>
        <time>2018-10-14T08:32:32Z</time>
      </trkpt>
      <trkpt lat="46.3971" lon="2.52243">
        <ele>234.6</ele>
        <time>2018-10-14T08:32:33Z</time>
      </trkpt>
      <trkpt lat="46.39705" lon="2.52244">
        <ele>234.7</ele>
        <time>2018-10-14T08:32:34Z</time>
      </trkpt>
      <trkpt lat="46.39699" lon="2.52246">
        <ele>235.1</ele>
        <time>2018-10-14T08:32:35Z</time>
      </trkpt>
      <trkpt lat="46.39694" lon="2.52247">
        <ele>235.4</ele>
        <time>2018-10-14T08:32:36Z</time>
      </trkpt>
      <trkpt lat="46.39688" lon="2.52249">
        <ele>235.6</ele>
        <time>2018-10-14T08:32:37Z</time>
      </trkpt>
      <trkpt lat="46.39683" lon="2.5225">
        <ele>236.4</ele>
        <time>2018-10-14T08:32:38Z</time>
      </trkpt>
      <trkpt lat="46.39678" lon="2.52252">
        <ele>236.9</ele>
        <time>2018-10-14T08:32:39Z</time>
      </trkpt>
      <trkpt lat="46.39673" lon="2.52252">
        <ele>236.8</ele>
        <time>2018-10-14T08:32:40Z</time>
      </trkpt>
      <trkpt lat="46.39665" lon="2.52247">
        <ele>237.2</ele>
        <time>2018-10-14T08:32:42Z</time>
      </trkpt>
      <trkpt lat="46.39659" lon="2.52241">
        <ele>237.9</ele>
        <time>2018-10-14T08:32:44Z</time>
      </trkpt>
      <trkpt lat="46.39654" lon="2.52234">
        <ele>238.8</ele>
        <time>2018-10-14T08:32:46Z</time>
      </trkpt>
      <trkpt lat="46.39647" lon="2.52228">
        <ele>238.6</ele>
        <time>2018-10-14T08:32:48Z</time>
      </trkpt>
      <trkpt lat="46.39641" lon="2.52221">
        <ele>238.3</ele>
        <time>2018-10-14T08:32:50Z</time>
      </trkpt>
      <trkpt lat="46.39634" lon="2.52214">
        <ele>238.4</ele>
        <time>2018-10-14T08:32:52Z</time>
      </trkpt>
      <trkpt lat="46.39628" lon="2.52207">
        <ele>238.6</ele>
        <time>2018-10-14T08:32:54Z</time>
      </trkpt>
      <trkpt lat="46.39621" lon="2.52199">
        <ele>238.6</ele>
        <time>2018-10-14T08:32:56Z</time>
      </trkpt>
      <trkpt lat="46.39615" lon="2.52192">
        <ele>239.4</ele>
        <time>2018-10-14T08:32:58Z</time>
      </trkpt>
      <trkpt lat="46.39608" lon="2.52184">
        <ele>239.7</ele>
        <time>2018-10-14T08:33:00Z</time>
      </trkpt>
      <trkpt lat="46.39603" lon="2.52176">
        <ele>240</ele>
        <time>2018-10-14T08:33:02Z</time>
      </trkpt>
      <trkpt lat="46.39599" lon="2.52166">
        <ele>240</ele>
        <time>2018-10-14T08:33:04Z</time>
      </trkpt>
      <trkpt lat="46.39596" lon="2.52156">
        <ele>240.2</ele>
        <time>2018-10-14T08:33:06Z</time>
      </trkpt>
      <trkpt lat="46.39593" lon="2.52146">
        <ele>240.5</ele>
        <time>2018-10-14T08:33:08Z</time>
      </trkpt>
      <trkpt lat="46.3959" lon="2.52135">
        <ele>240.7</ele>
        <time>2018-10-14T08:33:10Z</time>
      </trkpt>
      <trkpt lat="46.39587" lon="2.52124">
        <ele>241</ele>
        <time>2018-10-14T08:33:12Z</time>
      </trkpt>
      <trkpt lat="46.39583" lon="2.52113">
        <ele>241.7</ele>
        <time>2018-10-14T08:33:14Z</time>
      </trkpt>
      <trkpt lat="46.3958" lon="2.52102">
        <ele>241.9</ele>
        <time>2018-10-14T08:33:16Z</time>
      </trkpt>
      <trkpt lat="46.39577" lon="2.52091">
        <ele>241.9</ele>
        <time>2018-10-14T08:33:18Z</time>
      </trkpt>
      <trkpt lat="46.39574" lon="2.5208">
        <ele>242</ele>
        <time>2018-10-14T08:33:20Z</time>
      </trkpt>
      <trkpt lat="46.39571" lon="2.52069">
        <ele>242.1</ele>
        <time>2018-10-14T08:33:22Z</time>
      </trkpt>
      <trkpt lat="46.39567" lon="2.52058">
        <ele>242.6</ele>
        <time>2018-10-14T08:33:24Z</time>
      </trkpt>
      <trkpt lat="46.39564" lon="2.52048">
        <ele>242.6</ele>
        <time>2018-10-14T08:33:26Z</time>
      </trkpt>
      <trkpt lat="46.39562" lon="2.52037">
        <ele>242.8</ele>
        <time>2018-10-14T08:33:28Z</time>
      </trkpt>
      <trkpt lat="46.39559" lon="2.52027">
        <ele>242.6</ele>
        <time>2018-10-14T08:33:30Z</time>
      </trkpt>
      <trkpt lat="46.39557" lon="2.52017">
        <ele>242.3</ele>
        <time>2018-10-14T08:33:32Z</time>
      </trkpt>
      <trkpt lat="46.39555" lon="2.52007">
        <ele>242.5</ele>
        <time>2018-10-14T08:33:34Z</time>
      </trkpt>
      <trkpt lat="46.39552" lon="2.51997">
        <ele>243</ele>
        <time>2018-10-14T08:33:36Z</time>
      </trkpt>
      <trkpt lat="46.3955" lon="2.51987">
        <ele>243.1</ele>
        <time>2018-10-14T08:33:38Z</time>
      </trkpt>
      <trkpt lat="46.39547" lon="2.51977">
        <ele>243.6</ele>
        <time>2018-10-14T08:33:40Z</time>
      </trkpt>
      <trkpt lat="46.39546" lon="2.51972">
        <ele>243.8</ele>
        <time>2018-10-14T08:33:41Z</time>
      </trkpt>
      <trkpt lat="46.39543" lon="2.51956">
        <ele>244.6</ele>
        <time>2018-10-14T08:33:44Z</time>
      </trkpt>
      <trkpt lat="46.3954" lon="2.51946">
        <ele>244.9</ele>
        <time>2018-10-14T08:33:46Z</time>
      </trkpt>
      <trkpt lat="46.39538" lon="2.51936">
        <ele>245.2</ele>
        <time>2018-10-14T08:33:48Z</time>
      </trkpt>
      <trkpt lat="46.39535" lon="2.51925">
        <ele>245.7</ele>
        <time>2018-10-14T08:33:50Z</time>
      </trkpt>
      <trkpt lat="46.39533" lon="2.51915">
        <ele>245.9</ele>
        <time>2018-10-14T08:33:52Z</time>
      </trkpt>
      <trkpt lat="46.39531" lon="2.51905">
        <ele>246.2</ele>
        <time>2018-10-14T08:33:54Z</time>
      </trkpt>
      <trkpt lat="46.39529" lon="2.51895">
        <ele>246</ele>
        <time>2018-10-14T08:33:56Z</time>
      </trkpt>
      <trkpt lat="46.39527" lon="2.51884">
        <ele>245.9</ele>
        <time>2018-10-14T08:33:58Z</time>
      </trkpt>
      <trkpt lat="46.39525" lon="2.51874">
        <ele>246.1</ele>
        <time>2018-10-14T08:34:00Z</time>
      </trkpt>
      <trkpt lat="46.39522" lon="2.51864">
        <ele>246.8</ele>
        <time>2018-10-14T08:34:02Z</time>
      </trkpt>
      <trkpt lat="46.3952" lon="2.51855">
        <ele>248.2</ele>
        <time>2018-10-14T08:34:04Z</time>
      </trkpt>
      <trkpt lat="46.39518" lon="2.51845">
        <ele>248.3</ele>
        <time>2018-10-14T08:34:06Z</time>
      </trkpt>
      <trkpt lat="46.39517" lon="2.51835">
        <ele>248.1</ele>
        <time>2018-10-14T08:34:08Z</time>
      </trkpt>
      <trkpt lat="46.39514" lon="2.51825">
        <ele>247.6</ele>
        <time>2018-10-14T08:34:10Z</time>
      </trkpt>
      <trkpt lat="46.39512" lon="2.51814">
        <ele>247.3</ele>
        <time>2018-10-14T08:34:12Z</time>
      </trkpt>
      <trkpt lat="46.39509" lon="2.51803">
        <ele>247.6</ele>
        <time>2018-10-14T08:34:14Z</time>
      </trkpt>
      <trkpt lat="46.39506" lon="2.51792">
        <ele>248.4</ele>
        <time>2018-10-14T08:34:16Z</time>
      </trkpt>
      <trkpt lat="46.39504" lon="2.51781">
        <ele>249.6</ele>
        <time>2018-10-14T08:34:18Z</time>
      </trkpt>
      <trkpt lat="46.39502" lon="2.51772">
        <ele>250.1</ele>
        <time>2018-10-14T08:34:20Z</time>
      </trkpt>
      <trkpt lat="46.39499" lon="2.51762">
        <ele>250.5</ele>
        <time>2018-10-14T08:34:22Z</time>
      </trkpt>
      <trkpt lat="46.39497" lon="2.51752">
        <ele>250.7</ele>
        <time>2018-10-14T08:34:24Z</time>
      </trkpt>
      <trkpt lat="46.39494" lon="2.51742">
        <ele>250.6</ele>
        <time>2018-10-14T08:34:26Z</time>
      </trkpt>
      <trkpt lat="46.39491" lon="2.51732">
        <ele>250.3</ele>
        <time>2018-10-14T08:34:28Z</time>
      </trkpt>
      <trkpt lat="46.39487" lon="2.51721">
        <ele>250.7</ele>
        <time>2018-10-14T08:34:30Z</time>
      </trkpt>
      <trkpt lat="46.39484" lon="2.5171">
        <ele>251.3</ele>
        <time>2018-10-14T08:34:32Z</time>
      </trkpt>
      <trkpt lat="46.3948" lon="2.517">
        <ele>251.8</ele>
        <time>2018-10-14T08:34:34Z</time>
      </trkpt>
      <trkpt lat="46.39477" lon="2.5169">
        <ele>251.9</ele>
        <time>2018-10-14T08:34:36Z</time>
      </trkpt>
      <trkpt lat="46.39474" lon="2.51681">
        <ele>251.9</ele>
        <time>2018-10-14T08:34:38Z</time>
      </trkpt>
      <trkpt lat="46.3947" lon="2.51671">
        <ele>252.9</ele>
        <time>2018-10-14T08:34:40Z</time>
      </trkpt>
      <trkpt lat="46.39466" lon="2.5166">
        <ele>252.6</ele>
        <time>2018-10-14T08:34:42Z</time>
      </trkpt>
      <trkpt lat="46.39464" lon="2.51655">
        <ele>252.5</ele>
        <time>2018-10-14T08:34:43Z</time>
      </trkpt>
      <trkpt lat="46.39457" lon="2.5164">
        <ele>252.6</ele>
        <time>2018-10-14T08:34:46Z</time>
      </trkpt>
      <trkpt lat="46.39453" lon="2.5163">
        <ele>253</ele>
        <time>2018-10-14T08:34:48Z</time>
      </trkpt>
      <trkpt lat="46.39449" lon="2.51621">
        <ele>253.1</ele>
        <time>2018-10-14T08:34:50Z</time>
      </trkpt>
      <trkpt lat="46.39445" lon="2.51611">
        <ele>253.4</ele>
        <time>2018-10-14T08:34:52Z</time>
      </trkpt>
      <trkpt lat="46.39442" lon="2.51602">
        <ele>253.5</ele>
        <time>2018-10-14T08:34:54Z</time>
      </trkpt>
      <trkpt lat="46.39437" lon="2.51592">
        <ele>254.4</ele>
        <time>2018-10-14T08:34:56Z</time>
      </trkpt>
      <trkpt lat="46.39434" lon="2.51584">
        <ele>254.8</ele>
        <time>2018-10-14T08:34:58Z</time>
      </trkpt>
      <trkpt lat="46.39431" lon="2.51576">
        <ele>255.1</ele>
        <time>2018-10-14T08:35:00Z</time>
      </trkpt>
      <trkpt lat="46.39428" lon="2.51566">
        <ele>255.2</ele>
        <time>2018-10-14T08:35:02Z</time>
      </trkpt>
      <trkpt lat="46.39424" lon="2.51557">
        <ele>255.4</ele>
        <time>2018-10-14T08:35:04Z</time>
      </trkpt>
      <trkpt lat="46.39421" lon="2.51547">
        <ele>255.2</ele>
        <time>2018-10-14T08:35:06Z</time>
      </trkpt>
      <trkpt lat="46.39417" lon="2.51537">
        <ele>255.8</ele>
        <time>2018-10-14T08:35:08Z</time>
      </trkpt>
      <trkpt lat="46.39413" lon="2.51527">
        <ele>256.4</ele>
        <time>2018-10-14T08:35:10Z</time>
      </trkpt>
      <trkpt lat="46.3941" lon="2.51518">
        <ele>256.7</ele>
        <time>2018-10-14T08:35:12Z</time>
      </trkpt>
      <trkpt lat="46.39407" lon="2.51507">
        <ele>256.4</ele>
        <time>2018-10-14T08:35:14Z</time>
      </trkpt>
      <trkpt lat="46.39403" lon="2.51498">
        <ele>255.9</ele>
        <time>2018-10-14T08:35:16Z</time>
      </trkpt>
      <trkpt lat="46.39398" lon="2.51487">
        <ele>255.8</ele>
        <time>2018-10-14T08:35:18Z</time>
      </trkpt>
      <trkpt lat="46.39393" lon="2.51477">
        <ele>256.2</ele>
        <time>2018-10-14T08:35:20Z</time>
      </trkpt>
      <trkpt lat="46.39388" lon="2.51466">
        <ele>255.9</ele>
        <time>2018-10-14T08:35:22Z</time>
      </trkpt>
      <trkpt lat="46.39382" lon="2.51456">
        <ele>255.8</ele>
        <time>2018-10-14T08:35:24Z</time>
      </trkpt>
      <trkpt lat="46.39377" lon="2.51445">
        <ele>256.1</ele>
        <time>2018-10-14T08:35:26Z</time>
      </trkpt>
      <trkpt lat="46.39373" lon="2.51435">
        <ele>256.6</ele>
        <time>2018-10-14T08:35:28Z</time>
      </trkpt>
      <trkpt lat="46.39368" lon="2.51424">
        <ele>257</ele>
        <time>2018-10-14T08:35:30Z</time>
      </trkpt>
      <trkpt lat="46.39363" lon="2.51413">
        <ele>257.2</ele>
        <time>2018-10-14T08:35:32Z</time>
      </trkpt>
      <trkpt lat="46.39359" lon="2.51402">
        <ele>257</ele>
        <time>2018-10-14T08:35:34Z</time>
      </trkpt>
      <trkpt lat="46.39355" lon="2.51391">
        <ele>257.2</ele>
        <time>2018-10-14T08:35:36Z</time>
      </trkpt>
      <trkpt lat="46.39351" lon="2.51379">
        <ele>257.5</ele>
        <time>2018-10-14T08:35:38Z</time>
      </trkpt>
      <trkpt lat="46.39347" lon="2.51368">
        <ele>257.5</ele>
        <time>2018-10-14T08:35:40Z</time>
      </trkpt>
      <trkpt lat="46.39343" lon="2.51356">
        <ele>257.2</ele>
        <time>2018-10-14T08:35:42Z</time>
      </trkpt>
      <trkpt lat="46.39339" lon="2.51345">
        <ele>257.7</ele>
        <time>2018-10-14T08:35:44Z</time>
      </trkpt>
      <trkpt lat="46.39337" lon="2.51339">
        <ele>258</ele>
        <time>2018-10-14T08:35:45Z</time>
      </trkpt>
      <trkpt lat="46.39331" lon="2.51322">
        <ele>258.2</ele>
        <time>2018-10-14T08:35:48Z</time>
      </trkpt>
      <trkpt lat="46.39326" lon="2.51311">
        <ele>258.3</ele>
        <time>2018-10-14T08:35:50Z</time>
      </trkpt>
      <trkpt lat="46.39322" lon="2.513">
        <ele>259</ele>
        <time>2018-10-14T08:35:52Z</time>
      </trkpt>
      <trkpt lat="46.39318" lon="2.51289">
        <ele>259.7</ele>
        <time>2018-10-14T08:35:54Z</time>
      </trkpt>
      <trkpt lat="46.39313" lon="2.51278">
        <ele>259.4</ele>
        <time>2018-10-14T08:35:56Z</time>
      </trkpt>
      <trkpt lat="46.39308" lon="2.51268">
        <ele>259.7</ele>
        <time>2018-10-14T08:35:58Z</time>
      </trkpt>
      <trkpt lat="46.39303" lon="2.51257">
        <ele>260.1</ele>
        <time>2018-10-14T08:36:00Z</time>
      </trkpt>
      <trkpt lat="46.39297" lon="2.51248">
        <ele>260.4</ele>
        <time>2018-10-14T08:36:02Z</time>
      </trkpt>
      <trkpt lat="46.39292" lon="2.51237">
        <ele>260.4</ele>
        <time>2018-10-14T08:36:04Z</time>
      </trkpt>
      <trkpt lat="46.39286" lon="2.51227">
        <ele>260.2</ele>
        <time>2018-10-14T08:36:06Z</time>
      </trkpt>
      <trkpt lat="46.39284" lon="2.51222">
        <ele>260.6</ele>
        <time>2018-10-14T08:36:07Z</time>
      </trkpt>
      <trkpt lat="46.39278" lon="2.51212">
        <ele>260.9</ele>
        <time>2018-10-14T08:36:09Z</time>
      </trkpt>
      <trkpt lat="46.39273" lon="2.51201">
        <ele>261</ele>
        <time>2018-10-14T08:36:11Z</time>
      </trkpt>
      <trkpt lat="46.39271" lon="2.51196">
        <ele>261</ele>
        <time>2018-10-14T08:36:12Z</time>
      </trkpt>
      <trkpt lat="46.39268" lon="2.5119">
        <ele>261</ele>
        <time>2018-10-14T08:36:13Z</time>
      </trkpt>
      <trkpt lat="46.39265" lon="2.51185">
        <ele>261.1</ele>
        <time>2018-10-14T08:36:14Z</time>
      </trkpt>
      <trkpt lat="46.39262" lon="2.5118">
        <ele>261.3</ele>
        <time>2018-10-14T08:36:15Z</time>
      </trkpt>
      <trkpt lat="46.39259" lon="2.51175">
        <ele>261.6</ele>
        <time>2018-10-14T08:36:16Z</time>
      </trkpt>
      <trkpt lat="46.39256" lon="2.5117">
        <ele>261.9</ele>
        <time>2018-10-14T08:36:17Z</time>
      </trkpt>
      <trkpt lat="46.39253" lon="2.51165">
        <ele>262.1</ele>
        <time>2018-10-14T08:36:18Z</time>
      </trkpt>
      <trkpt lat="46.39251" lon="2.5116">
        <ele>262.2</ele>
        <time>2018-10-14T08:36:19Z</time>
      </trkpt>
      <trkpt lat="46.39248" lon="2.51155">
        <ele>262.3</ele>
        <time>2018-10-14T08:36:20Z</time>
      </trkpt>
      <trkpt lat="46.39242" lon="2.51145">
        <ele>262.9</ele>
        <time>2018-10-14T08:36:22Z</time>
      </trkpt>
      <trkpt lat="46.39237" lon="2.51135">
        <ele>262.3</ele>
        <time>2018-10-14T08:36:24Z</time>
      </trkpt>
      <trkpt lat="46.39232" lon="2.51126">
        <ele>262.8</ele>
        <time>2018-10-14T08:36:26Z</time>
      </trkpt>
      <trkpt lat="46.39226" lon="2.51116">
        <ele>263.1</ele>
        <time>2018-10-14T08:36:28Z</time>
      </trkpt>
      <trkpt lat="46.39221" lon="2.51107">
        <ele>263.6</ele>
        <time>2018-10-14T08:36:30Z</time>
      </trkpt>
      <trkpt lat="46.39216" lon="2.51097">
        <ele>264.3</ele>
        <time>2018-10-14T08:36:32Z</time>
      </trkpt>
      <trkpt lat="46.3921" lon="2.51087">
        <ele>263.5</ele>
        <time>2018-10-14T08:36:34Z</time>
      </trkpt>
      <trkpt lat="46.39205" lon="2.51077">
        <ele>263.6</ele>
        <time>2018-10-14T08:36:36Z</time>
      </trkpt>
      <trkpt lat="46.39199" lon="2.51067">
        <ele>263.9</ele>
        <time>2018-10-14T08:36:38Z</time>
      </trkpt>
      <trkpt lat="46.39194" lon="2.51057">
        <ele>264.3</ele>
        <time>2018-10-14T08:36:40Z</time>
      </trkpt>
      <trkpt lat="46.39188" lon="2.51047">
        <ele>264.6</ele>
        <time>2018-10-14T08:36:42Z</time>
      </trkpt>
      <trkpt lat="46.39185" lon="2.51042">
        <ele>264.7</ele>
        <time>2018-10-14T08:36:43Z</time>
      </trkpt>
      <trkpt lat="46.39179" lon="2.51032">
        <ele>264.6</ele>
        <time>2018-10-14T08:36:45Z</time>
      </trkpt>
      <trkpt lat="46.39177" lon="2.51027">
        <ele>264.6</ele>
        <time>2018-10-14T08:36:46Z</time>
      </trkpt>
      <trkpt lat="46.39174" lon="2.51022">
        <ele>265.2</ele>
        <time>2018-10-14T08:36:47Z</time>
      </trkpt>
      <trkpt lat="46.39168" lon="2.51012">
        <ele>265.6</ele>
        <time>2018-10-14T08:36:49Z</time>
      </trkpt>
      <trkpt lat="46.39163" lon="2.51002">
        <ele>265.5</ele>
        <time>2018-10-14T08:36:51Z</time>
      </trkpt>
      <trkpt lat="46.3916" lon="2.50997">
        <ele>265.7</ele>
        <time>2018-10-14T08:36:52Z</time>
      </trkpt>
      <trkpt lat="46.39157" lon="2.50992">
        <ele>265.9</ele>
        <time>2018-10-14T08:36:53Z</time>
      </trkpt>
      <trkpt lat="46.39154" lon="2.50987">
        <ele>265.5</ele>
        <time>2018-10-14T08:36:54Z</time>
      </trkpt>
      <trkpt lat="46.39148" lon="2.50977">
        <ele>265.3</ele>
        <time>2018-10-14T08:36:56Z</time>
      </trkpt>
      <trkpt lat="46.39143" lon="2.50968">
        <ele>265.4</ele>
        <time>2018-10-14T08:36:58Z</time>
      </trkpt>
      <trkpt lat="46.39137" lon="2.50961">
        <ele>266.2</ele>
        <time>2018-10-14T08:37:00Z</time>
      </trkpt>
      <trkpt lat="46.39131" lon="2.50956">
        <ele>266.3</ele>
        <time>2018-10-14T08:37:02Z</time>
      </trkpt>
      <trkpt lat="46.39124" lon="2.50952">
        <ele>266.6</ele>
        <time>2018-10-14T08:37:04Z</time>
      </trkpt>
      <trkpt lat="46.39117" lon="2.50949">
        <ele>267.4</ele>
        <time>2018-10-14T08:37:06Z</time>
      </trkpt>
      <trkpt lat="46.39109" lon="2.50946">
        <ele>267.8</ele>
        <time>2018-10-14T08:37:08Z</time>
      </trkpt>
      <trkpt lat="46.39101" lon="2.50943">
        <ele>267.4</ele>
        <time>2018-10-14T08:37:10Z</time>
      </trkpt>
      <trkpt lat="46.39093" lon="2.5094">
        <ele>267.8</ele>
        <time>2018-10-14T08:37:12Z</time>
      </trkpt>
      <trkpt lat="46.39084" lon="2.50938">
        <ele>267.6</ele>
        <time>2018-10-14T08:37:14Z</time>
      </trkpt>
      <trkpt lat="46.39076" lon="2.50934">
        <ele>267.3</ele>
        <time>2018-10-14T08:37:16Z</time>
      </trkpt>
      <trkpt lat="46.39068" lon="2.50931">
        <ele>267.7</ele>
        <time>2018-10-14T08:37:18Z</time>
      </trkpt>
      <trkpt lat="46.3906" lon="2.50928">
        <ele>267.6</ele>
        <time>2018-10-14T08:37:20Z</time>
      </trkpt>
      <trkpt lat="46.39052" lon="2.50925">
        <ele>267.4</ele>
        <time>2018-10-14T08:37:22Z</time>
      </trkpt>
      <trkpt lat="46.39044" lon="2.50921">
        <ele>267.5</ele>
        <time>2018-10-14T08:37:24Z</time>
      </trkpt>
      <trkpt lat="46.39037" lon="2.50918">
        <ele>267.6</ele>
        <time>2018-10-14T08:37:26Z</time>
      </trkpt>
      <trkpt lat="46.39028" lon="2.50918">
        <ele>268</ele>
        <time>2018-10-14T08:37:28Z</time>
      </trkpt>
      <trkpt lat="46.3902" lon="2.50921">
        <ele>268.3</ele>
        <time>2018-10-14T08:37:30Z</time>
      </trkpt>
      <trkpt lat="46.39016" lon="2.50924">
        <ele>268.3</ele>
        <time>2018-10-14T08:37:31Z</time>
      </trkpt>
      <trkpt lat="46.39008" lon="2.5093">
        <ele>268.6</ele>
        <time>2018-10-14T08:37:33Z</time>
      </trkpt>
      <trkpt lat="46.39004" lon="2.50933">
        <ele>268.5</ele>
        <time>2018-10-14T08:37:34Z</time>
      </trkpt>
      <trkpt lat="46.39" lon="2.50936">
        <ele>268.5</ele>
        <time>2018-10-14T08:37:35Z</time>
      </trkpt>
      <trkpt lat="46.38996" lon="2.50939">
        <ele>268.5</ele>
        <time>2018-10-14T08:37:36Z</time>
      </trkpt>
      <trkpt lat="46.38992" lon="2.50942">
        <ele>268.4</ele>
        <time>2018-10-14T08:37:37Z</time>
      </trkpt>
      <trkpt lat="46.38984" lon="2.50948">
        <ele>268.4</ele>
        <time>2018-10-14T08:37:39Z</time>
      </trkpt>
      <trkpt lat="46.3898" lon="2.50951">
        <ele>268.5</ele>
        <time>2018-10-14T08:37:40Z</time>
      </trkpt>
      <trkpt lat="46.38976" lon="2.50954">
        <ele>268.6</ele>
        <time>2018-10-14T08:37:41Z</time>
      </trkpt>
      <trkpt lat="46.38972" lon="2.50957">
        <ele>268.7</ele>
        <time>2018-10-14T08:37:42Z</time>
      </trkpt>
      <trkpt lat="46.38967" lon="2.50959">
        <ele>268.8</ele>
        <time>2018-10-14T08:37:43Z</time>
      </trkpt>
      <trkpt lat="46.38963" lon="2.50962">
        <ele>269.4</ele>
        <time>2018-10-14T08:37:44Z</time>
      </trkpt>
      <trkpt lat="46.38959" lon="2.50965">
        <ele>269.9</ele>
        <time>2018-10-14T08:37:45Z</time>
      </trkpt>
      <trkpt lat="46.38954" lon="2.50968">
        <ele>269.4</ele>
        <time>2018-10-14T08:37:46Z</time>
      </trkpt>
      <trkpt lat="46.3895" lon="2.50971">
        <ele>269.1</ele>
        <time>2018-10-14T08:37:47Z</time>
      </trkpt>
      <trkpt lat="46.38945" lon="2.50974">
        <ele>268.8</ele>
        <time>2018-10-14T08:37:48Z</time>
      </trkpt>
      <trkpt lat="46.38941" lon="2.50977">
        <ele>269.1</ele>
        <time>2018-10-14T08:37:49Z</time>
      </trkpt>
      <trkpt lat="46.38937" lon="2.5098">
        <ele>269.3</ele>
        <time>2018-10-14T08:37:50Z</time>
      </trkpt>
      <trkpt lat="46.38932" lon="2.50983">
        <ele>269.1</ele>
        <time>2018-10-14T08:37:51Z</time>
      </trkpt>
      <trkpt lat="46.38928" lon="2.50986">
        <ele>269</ele>
        <time>2018-10-14T08:37:52Z</time>
      </trkpt>
      <trkpt lat="46.38923" lon="2.5099">
        <ele>268.8</ele>
        <time>2018-10-14T08:37:53Z</time>
      </trkpt>
      <trkpt lat="46.38918" lon="2.50992">
        <ele>268.7</ele>
        <time>2018-10-14T08:37:54Z</time>
      </trkpt>
      <trkpt lat="46.38913" lon="2.50995">
        <ele>268.6</ele>
        <time>2018-10-14T08:37:55Z</time>
      </trkpt>
      <trkpt lat="46.38909" lon="2.50997">
        <ele>268.8</ele>
        <time>2018-10-14T08:37:56Z</time>
      </trkpt>
      <trkpt lat="46.38904" lon="2.51">
        <ele>268.9</ele>
        <time>2018-10-14T08:37:57Z</time>
      </trkpt>
      <trkpt lat="46.38899" lon="2.51002">
        <ele>269.3</ele>
        <time>2018-10-14T08:37:58Z</time>
      </trkpt>
      <trkpt lat="46.38895" lon="2.51004">
        <ele>269.5</ele>
        <time>2018-10-14T08:37:59Z</time>
      </trkpt>
      <trkpt lat="46.3889" lon="2.51007">
        <ele>269.5</ele>
        <time>2018-10-14T08:38:00Z</time>
      </trkpt>
      <trkpt lat="46.38886" lon="2.5101">
        <ele>269.6</ele>
        <time>2018-10-14T08:38:01Z</time>
      </trkpt>
      <trkpt lat="46.38881" lon="2.51012">
        <ele>269.6</ele>
        <time>2018-10-14T08:38:02Z</time>
      </trkpt>
      <trkpt lat="46.38877" lon="2.51015">
        <ele>269.6</ele>
        <time>2018-10-14T08:38:03Z</time>
      </trkpt>
      <trkpt lat="46.38872" lon="2.51019">
        <ele>269.6</ele>
        <time>2018-10-14T08:38:04Z</time>
      </trkpt>
      <trkpt lat="46.38867" lon="2.51022">
        <ele>270.2</ele>
        <time>2018-10-14T08:38:05Z</time>
      </trkpt>
      <trkpt lat="46.38862" lon="2.51025">
        <ele>270.6</ele>
        <time>2018-10-14T08:38:06Z</time>
      </trkpt>
      <trkpt lat="46.38858" lon="2.51028">
        <ele>270.9</ele>
        <time>2018-10-14T08:38:07Z</time>
      </trkpt>
      <trkpt lat="46.38853" lon="2.51031">
        <ele>270.6</ele>
        <time>2018-10-14T08:38:08Z</time>
      </trkpt>
      <trkpt lat="46.38849" lon="2.51033">
        <ele>270.4</ele>
        <time>2018-10-14T08:38:09Z</time>
      </trkpt>
      <trkpt lat="46.38845" lon="2.51037">
        <ele>270</ele>
        <time>2018-10-14T08:38:10Z</time>
      </trkpt>
      <trkpt lat="46.38841" lon="2.5104">
        <ele>269.6</ele>
        <time>2018-10-14T08:38:11Z</time>
      </trkpt>
      <trkpt lat="46.38837" lon="2.51045">
        <ele>269.1</ele>
        <time>2018-10-14T08:38:12Z</time>
      </trkpt>
      <trkpt lat="46.38833" lon="2.51049">
        <ele>268.7</ele>
        <time>2018-10-14T08:38:13Z</time>
      </trkpt>
      <trkpt lat="46.38828" lon="2.51054">
        <ele>268.4</ele>
        <time>2018-10-14T08:38:14Z</time>
      </trkpt>
      <trkpt lat="46.38824" lon="2.51059">
        <ele>268.7</ele>
        <time>2018-10-14T08:38:15Z</time>
      </trkpt>
      <trkpt lat="46.38819" lon="2.51063">
        <ele>269</ele>
        <time>2018-10-14T08:38:16Z</time>
      </trkpt>
      <trkpt lat="46.38814" lon="2.51067">
        <ele>268.4</ele>
        <time>2018-10-14T08:38:17Z</time>
      </trkpt>
      <trkpt lat="46.38808" lon="2.5107">
        <ele>268</ele>
        <time>2018-10-14T08:38:18Z</time>
      </trkpt>
      <trkpt lat="46.38802" lon="2.51072">
        <ele>267.9</ele>
        <time>2018-10-14T08:38:19Z</time>
      </trkpt>
      <trkpt lat="46.38796" lon="2.51074">
        <ele>267.7</ele>
        <time>2018-10-14T08:38:20Z</time>
      </trkpt>
      <trkpt lat="46.3879" lon="2.51074">
        <ele>267.7</ele>
        <time>2018-10-14T08:38:21Z</time>
      </trkpt>
      <trkpt lat="46.38785" lon="2.51073">
        <ele>267.6</ele>
        <time>2018-10-14T08:38:22Z</time>
      </trkpt>
      <trkpt lat="46.38779" lon="2.51072">
        <ele>267.5</ele>
        <time>2018-10-14T08:38:23Z</time>
      </trkpt>
      <trkpt lat="46.38774" lon="2.51071">
        <ele>267.3</ele>
        <time>2018-10-14T08:38:24Z</time>
      </trkpt>
      <trkpt lat="46.38769" lon="2.5107">
        <ele>267.2</ele>
        <time>2018-10-14T08:38:25Z</time>
      </trkpt>
      <trkpt lat="46.38763" lon="2.51069">
        <ele>267.1</ele>
        <time>2018-10-14T08:38:26Z</time>
      </trkpt>
      <trkpt lat="46.38758" lon="2.51068">
        <ele>267.1</ele>
        <time>2018-10-14T08:38:27Z</time>
      </trkpt>
      <trkpt lat="46.38752" lon="2.51067">
        <ele>267.2</ele>
        <time>2018-10-14T08:38:28Z</time>
      </trkpt>
      <trkpt lat="46.38747" lon="2.51067">
        <ele>267.1</ele>
        <time>2018-10-14T08:38:29Z</time>
      </trkpt>
      <trkpt lat="46.38741" lon="2.51067">
        <ele>267</ele>
        <time>2018-10-14T08:38:30Z</time>
      </trkpt>
      <trkpt lat="46.38735" lon="2.51067">
        <ele>267.2</ele>
        <time>2018-10-14T08:38:31Z</time>
      </trkpt>
      <trkpt lat="46.38729" lon="2.51068">
        <ele>267.4</ele>
        <time>2018-10-14T08:38:32Z</time>
      </trkpt>
      <trkpt lat="46.38723" lon="2.51068">
        <ele>267.5</ele>
        <time>2018-10-14T08:38:33Z</time>
      </trkpt>
      <trkpt lat="46.38716" lon="2.51069">
        <ele>266.9</ele>
        <time>2018-10-14T08:38:34Z</time>
      </trkpt>
      <trkpt lat="46.3871" lon="2.5107">
        <ele>266.4</ele>
        <time>2018-10-14T08:38:35Z</time>
      </trkpt>
      <trkpt lat="46.38704" lon="2.51071">
        <ele>266.3</ele>
        <time>2018-10-14T08:38:36Z</time>
      </trkpt>
      <trkpt lat="46.38698" lon="2.51072">
        <ele>266.1</ele>
        <time>2018-10-14T08:38:37Z</time>
      </trkpt>
      <trkpt lat="46.38692" lon="2.51074">
        <ele>265.9</ele>
        <time>2018-10-14T08:38:38Z</time>
      </trkpt>
      <trkpt lat="46.38686" lon="2.51076">
        <ele>265.7</ele>
        <time>2018-10-14T08:38:39Z</time>
      </trkpt>
      <trkpt lat="46.3868" lon="2.51078">
        <ele>265.5</ele>
        <time>2018-10-14T08:38:40Z</time>
      </trkpt>
      <trkpt lat="46.38675" lon="2.51081">
        <ele>265.3</ele>
        <time>2018-10-14T08:38:41Z</time>
      </trkpt>
      <trkpt lat="46.38669" lon="2.51084">
        <ele>265.2</ele>
        <time>2018-10-14T08:38:42Z</time>
      </trkpt>
      <trkpt lat="46.38663" lon="2.51087">
        <ele>265</ele>
        <time>2018-10-14T08:38:43Z</time>
      </trkpt>
      <trkpt lat="46.38658" lon="2.5109">
        <ele>264.9</ele>
        <time>2018-10-14T08:38:44Z</time>
      </trkpt>
      <trkpt lat="46.38652" lon="2.51093">
        <ele>264.7</ele>
        <time>2018-10-14T08:38:45Z</time>
      </trkpt>
      <trkpt lat="46.38646" lon="2.51096">
        <ele>264.6</ele>
        <time>2018-10-14T08:38:46Z</time>
      </trkpt>
      <trkpt lat="46.38641" lon="2.51099">
        <ele>264.5</ele>
        <time>2018-10-14T08:38:47Z</time>
      </trkpt>
      <trkpt lat="46.38635" lon="2.51102">
        <ele>264.4</ele>
        <time>2018-10-14T08:38:48Z</time>
      </trkpt>
      <trkpt lat="46.3863" lon="2.51105">
        <ele>264.3</ele>
        <time>2018-10-14T08:38:49Z</time>
      </trkpt>
      <trkpt lat="46.38626" lon="2.51108">
        <ele>264.2</ele>
        <time>2018-10-14T08:38:50Z</time>
      </trkpt>
      <trkpt lat="46.38621" lon="2.5111">
        <ele>264.1</ele>
        <time>2018-10-14T08:38:51Z</time>
      </trkpt>
      <trkpt lat="46.38616" lon="2.51112">
        <ele>264</ele>
        <time>2018-10-14T08:38:52Z</time>
      </trkpt>
      <trkpt lat="46.38611" lon="2.5111">
        <ele>264</ele>
        <time>2018-10-14T08:38:53Z</time>
      </trkpt>
      <trkpt lat="46.38605" lon="2.511">
        <ele>263.8</ele>
        <time>2018-10-14T08:38:55Z</time>
      </trkpt>
      <trkpt lat="46.38606" lon="2.51088">
        <ele>264</ele>
        <time>2018-10-14T08:38:57Z</time>
      </trkpt>
      <trkpt lat="46.38606" lon="2.51075">
        <ele>264.3</ele>
        <time>2018-10-14T08:38:59Z</time>
      </trkpt>
      <trkpt lat="46.38607" lon="2.51063">
        <ele>264.2</ele>
        <time>2018-10-14T08:39:01Z</time>
      </trkpt>
      <trkpt lat="46.38609" lon="2.51051">
        <ele>264.7</ele>
        <time>2018-10-14T08:39:03Z</time>
      </trkpt>
      <trkpt lat="46.3861" lon="2.51038">
        <ele>264.7</ele>
        <time>2018-10-14T08:39:05Z</time>
      </trkpt>
      <trkpt lat="46.38611" lon="2.51026">
        <ele>264.7</ele>
        <time>2018-10-14T08:39:07Z</time>
      </trkpt>
      <trkpt lat="46.38612" lon="2.51013">
        <ele>264.5</ele>
        <time>2018-10-14T08:39:09Z</time>
      </trkpt>
      <trkpt lat="46.38607" lon="2.51003">
        <ele>264.3</ele>
        <time>2018-10-14T08:39:11Z</time>
      </trkpt>
      <trkpt lat="46.38602" lon="2.50994">
        <ele>264.7</ele>
        <time>2018-10-14T08:39:13Z</time>
      </trkpt>
      <trkpt lat="46.38601" lon="2.50983">
        <ele>265.6</ele>
        <time>2018-10-14T08:39:15Z</time>
      </trkpt>
      <trkpt lat="46.38601" lon="2.50971">
        <ele>265.2</ele>
        <time>2018-10-14T08:39:17Z</time>
      </trkpt>
      <trkpt lat="46.386" lon="2.50959">
        <ele>265.2</ele>
        <time>2018-10-14T08:39:19Z</time>
      </trkpt>
      <trkpt lat="46.38599" lon="2.50948">
        <ele>265.1</ele>
        <time>2018-10-14T08:39:21Z</time>
      </trkpt>
      <trkpt lat="46.38597" lon="2.50937">
        <ele>265.2</ele>
        <time>2018-10-14T08:39:23Z</time>
      </trkpt>
      <trkpt lat="46.38595" lon="2.50925">
        <ele>265.5</ele>
        <time>2018-10-14T08:39:25Z</time>
      </trkpt>
      <trkpt lat="46.38593" lon="2.50915">
        <ele>266.1</ele>
        <time>2018-10-14T08:39:27Z</time>
      </trkpt>
      <trkpt lat="46.3859" lon="2.50905">
        <ele>266.3</ele>
        <time>2018-10-14T08:39:29Z</time>
      </trkpt>
      <trkpt lat="46.38584" lon="2.50898">
        <ele>266.5</ele>
        <time>2018-10-14T08:39:31Z</time>
      </trkpt>
      <trkpt lat="46.38578" lon="2.50894">
        <ele>266.5</ele>
        <time>2018-10-14T08:39:33Z</time>
      </trkpt>
      <trkpt lat="46.38571" lon="2.50891">
        <ele>266.7</ele>
        <time>2018-10-14T08:39:35Z</time>
      </trkpt>
      <trkpt lat="46.38564" lon="2.50889">
        <ele>266.9</ele>
        <time>2018-10-14T08:39:37Z</time>
      </trkpt>
      <trkpt lat="46.38556" lon="2.50887">
        <ele>267.2</ele>
        <time>2018-10-14T08:39:39Z</time>
      </trkpt>
      <trkpt lat="46.38549" lon="2.50885">
        <ele>267.3</ele>
        <time>2018-10-14T08:39:41Z</time>
      </trkpt>
      <trkpt lat="46.3854" lon="2.50883">
        <ele>267.3</ele>
        <time>2018-10-14T08:39:43Z</time>
      </trkpt>
      <trkpt lat="46.38532" lon="2.5088">
        <ele>266.7</ele>
        <time>2018-10-14T08:39:45Z</time>
      </trkpt>
      <trkpt lat="46.38523" lon="2.50876">
        <ele>266.6</ele>
        <time>2018-10-14T08:39:47Z</time>
      </trkpt>
      <trkpt lat="46.38515" lon="2.50872">
        <ele>267</ele>
        <time>2018-10-14T08:39:49Z</time>
      </trkpt>
      <trkpt lat="46.38509" lon="2.50863">
        <ele>267.2</ele>
        <time>2018-10-14T08:39:51Z</time>
      </trkpt>
      <trkpt lat="46.38506" lon="2.50858">
        <ele>266.7</ele>
        <time>2018-10-14T08:39:52Z</time>
      </trkpt>
      <trkpt lat="46.38499" lon="2.50842">
        <ele>266.9</ele>
        <time>2018-10-14T08:39:55Z</time>
      </trkpt>
      <trkpt lat="46.38495" lon="2.50831">
        <ele>266.7</ele>
        <time>2018-10-14T08:39:57Z</time>
      </trkpt>
      <trkpt lat="46.3849" lon="2.50822">
        <ele>266.3</ele>
        <time>2018-10-14T08:39:59Z</time>
      </trkpt>
      <trkpt lat="46.38487" lon="2.50812">
        <ele>266.6</ele>
        <time>2018-10-14T08:40:01Z</time>
      </trkpt>
      <trkpt lat="46.38484" lon="2.50801">
        <ele>267.2</ele>
        <time>2018-10-14T08:40:03Z</time>
      </trkpt>
      <trkpt lat="46.38481" lon="2.50789">
        <ele>268.8</ele>
        <time>2018-10-14T08:40:05Z</time>
      </trkpt>
      <trkpt lat="46.38479" lon="2.50777">
        <ele>269</ele>
        <time>2018-10-14T08:40:07Z</time>
      </trkpt>
      <trkpt lat="46.38478" lon="2.50765">
        <ele>269.3</ele>
        <time>2018-10-14T08:40:09Z</time>
      </trkpt>
      <trkpt lat="46.38477" lon="2.50752">
        <ele>269.4</ele>
        <time>2018-10-14T08:40:11Z</time>
      </trkpt>
      <trkpt lat="46.38477" lon="2.50746">
        <ele>269.3</ele>
        <time>2018-10-14T08:40:12Z</time>
      </trkpt>
      <trkpt lat="46.38476" lon="2.50739">
        <ele>269.9</ele>
        <time>2018-10-14T08:40:13Z</time>
      </trkpt>
      <trkpt lat="46.38476" lon="2.50732">
        <ele>270.4</ele>
        <time>2018-10-14T08:40:14Z</time>
      </trkpt>
      <trkpt lat="46.38475" lon="2.50726">
        <ele>270.7</ele>
        <time>2018-10-14T08:40:15Z</time>
      </trkpt>
      <trkpt lat="46.38474" lon="2.50719">
        <ele>270.6</ele>
        <time>2018-10-14T08:40:16Z</time>
      </trkpt>
      <trkpt lat="46.38472" lon="2.50713">
        <ele>270.6</ele>
        <time>2018-10-14T08:40:17Z</time>
      </trkpt>
      <trkpt lat="46.38471" lon="2.50707">
        <ele>270.4</ele>
        <time>2018-10-14T08:40:18Z</time>
      </trkpt>
      <trkpt lat="46.38469" lon="2.50701">
        <ele>270.3</ele>
        <time>2018-10-14T08:40:19Z</time>
      </trkpt>
      <trkpt lat="46.38467" lon="2.50695">
        <ele>270.3</ele>
        <time>2018-10-14T08:40:20Z</time>
      </trkpt>
      <trkpt lat="46.38465" lon="2.50689">
        <ele>270.3</ele>
        <time>2018-10-14T08:40:21Z</time>
      </trkpt>
      <trkpt lat="46.38462" lon="2.50682">
        <ele>270.3</ele>
        <time>2018-10-14T08:40:22Z</time>
      </trkpt>
      <trkpt lat="46.3846" lon="2.50676">
        <ele>270.1</ele>
        <time>2018-10-14T08:40:23Z</time>
      </trkpt>
      <trkpt lat="46.38458" lon="2.50671">
        <ele>270</ele>
        <time>2018-10-14T08:40:24Z</time>
      </trkpt>
      <trkpt lat="46.38454" lon="2.50659">
        <ele>269.6</ele>
        <time>2018-10-14T08:40:26Z</time>
      </trkpt>
      <trkpt lat="46.38452" lon="2.50653">
        <ele>269.4</ele>
        <time>2018-10-14T08:40:27Z</time>
      </trkpt>
      <trkpt lat="46.3845" lon="2.50647">
        <ele>269.6</ele>
        <time>2018-10-14T08:40:28Z</time>
      </trkpt>
      <trkpt lat="46.38448" lon="2.50635">
        <ele>270.5</ele>
        <time>2018-10-14T08:40:30Z</time>
      </trkpt>
      <trkpt lat="46.38446" lon="2.50622">
        <ele>271.1</ele>
        <time>2018-10-14T08:40:32Z</time>
      </trkpt>
      <trkpt lat="46.38444" lon="2.5061">
        <ele>271.1</ele>
        <time>2018-10-14T08:40:34Z</time>
      </trkpt>
      <trkpt lat="46.38443" lon="2.50599">
        <ele>271</ele>
        <time>2018-10-14T08:40:36Z</time>
      </trkpt>
      <trkpt lat="46.38442" lon="2.50586">
        <ele>271.7</ele>
        <time>2018-10-14T08:40:38Z</time>
      </trkpt>
      <trkpt lat="46.3844" lon="2.50574">
        <ele>272</ele>
        <time>2018-10-14T08:40:40Z</time>
      </trkpt>
      <trkpt lat="46.38439" lon="2.50562">
        <ele>272.1</ele>
        <time>2018-10-14T08:40:42Z</time>
      </trkpt>
      <trkpt lat="46.38438" lon="2.5055">
        <ele>272</ele>
        <time>2018-10-14T08:40:44Z</time>
      </trkpt>
      <trkpt lat="46.38437" lon="2.50537">
        <ele>271.9</ele>
        <time>2018-10-14T08:40:46Z</time>
      </trkpt>
      <trkpt lat="46.38435" lon="2.50524">
        <ele>272.6</ele>
        <time>2018-10-14T08:40:48Z</time>
      </trkpt>
      <trkpt lat="46.38435" lon="2.50518">
        <ele>273</ele>
        <time>2018-10-14T08:40:49Z</time>
      </trkpt>
      <trkpt lat="46.38434" lon="2.50511">
        <ele>273.3</ele>
        <time>2018-10-14T08:40:50Z</time>
      </trkpt>
      <trkpt lat="46.38434" lon="2.50505">
        <ele>273.4</ele>
        <time>2018-10-14T08:40:51Z</time>
      </trkpt>
      <trkpt lat="46.38433" lon="2.50498">
        <ele>273.5</ele>
        <time>2018-10-14T08:40:52Z</time>
      </trkpt>
      <trkpt lat="46.38433" lon="2.50492">
        <ele>273.6</ele>
        <time>2018-10-14T08:40:53Z</time>
      </trkpt>
      <trkpt lat="46.38431" lon="2.50479">
        <ele>273.9</ele>
        <time>2018-10-14T08:40:55Z</time>
      </trkpt>
      <trkpt lat="46.3843" lon="2.50467">
        <ele>274.9</ele>
        <time>2018-10-14T08:40:57Z</time>
      </trkpt>
      <trkpt lat="46.38428" lon="2.50456">
        <ele>274.6</ele>
        <time>2018-10-14T08:40:59Z</time>
      </trkpt>
      <trkpt lat="46.38427" lon="2.50444">
        <ele>274.8</ele>
        <time>2018-10-14T08:41:01Z</time>
      </trkpt>
      <trkpt lat="46.38425" lon="2.50433">
        <ele>275.3</ele>
        <time>2018-10-14T08:41:03Z</time>
      </trkpt>
      <trkpt lat="46.38423" lon="2.50422">
        <ele>276.1</ele>
        <time>2018-10-14T08:41:05Z</time>
      </trkpt>
      <trkpt lat="46.38421" lon="2.50412">
        <ele>276.8</ele>
        <time>2018-10-14T08:41:07Z</time>
      </trkpt>
      <trkpt lat="46.38421" lon="2.50401">
        <ele>276.9</ele>
        <time>2018-10-14T08:41:09Z</time>
      </trkpt>
      <trkpt lat="46.38422" lon="2.50391">
        <ele>277.2</ele>
        <time>2018-10-14T08:41:11Z</time>
      </trkpt>
      <trkpt lat="46.38425" lon="2.50382">
        <ele>277.3</ele>
        <time>2018-10-14T08:41:13Z</time>
      </trkpt>
      <trkpt lat="46.38428" lon="2.50372">
        <ele>277.5</ele>
        <time>2018-10-14T08:41:15Z</time>
      </trkpt>
      <trkpt lat="46.38431" lon="2.50362">
        <ele>278.3</ele>
        <time>2018-10-14T08:41:17Z</time>
      </trkpt>
      <trkpt lat="46.38434" lon="2.50352">
        <ele>279.1</ele>
        <time>2018-10-14T08:41:19Z</time>
      </trkpt>
      <trkpt lat="46.38437" lon="2.50342">
        <ele>278.7</ele>
        <time>2018-10-14T08:41:21Z</time>
      </trkpt>
      <trkpt lat="46.3844" lon="2.50332">
        <ele>278.6</ele>
        <time>2018-10-14T08:41:23Z</time>
      </trkpt>
      <trkpt lat="46.38443" lon="2.50322">
        <ele>278.6</ele>
        <time>2018-10-14T08:41:25Z</time>
      </trkpt>
      <trkpt lat="46.38446" lon="2.50311">
        <ele>278.3</ele>
        <time>2018-10-14T08:41:27Z</time>
      </trkpt>
      <trkpt lat="46.3845" lon="2.50301">
        <ele>278.1</ele>
        <time>2018-10-14T08:41:29Z</time>
      </trkpt>
      <trkpt lat="46.38453" lon="2.5029">
        <ele>278.2</ele>
        <time>2018-10-14T08:41:31Z</time>
      </trkpt>
      <trkpt lat="46.38456" lon="2.5028">
        <ele>278.8</ele>
        <time>2018-10-14T08:41:33Z</time>
      </trkpt>
      <trkpt lat="46.3846" lon="2.50269">
        <ele>278.8</ele>
        <time>2018-10-14T08:41:35Z</time>
      </trkpt>
      <trkpt lat="46.38463" lon="2.50259">
        <ele>279</ele>
        <time>2018-10-14T08:41:37Z</time>
      </trkpt>
      <trkpt lat="46.38466" lon="2.50248">
        <ele>278.9</ele>
        <time>2018-10-14T08:41:39Z</time>
      </trkpt>
      <trkpt lat="46.38469" lon="2.50238">
        <ele>278.8</ele>
        <time>2018-10-14T08:41:41Z</time>
      </trkpt>
      <trkpt lat="46.38472" lon="2.50227">
        <ele>279</ele>
        <time>2018-10-14T08:41:43Z</time>
      </trkpt>
      <trkpt lat="46.38475" lon="2.50217">
        <ele>279.2</ele>
        <time>2018-10-14T08:41:45Z</time>
      </trkpt>
      <trkpt lat="46.38479" lon="2.50207">
        <ele>279.5</ele>
        <time>2018-10-14T08:41:47Z</time>
      </trkpt>
      <trkpt lat="46.38482" lon="2.50197">
        <ele>279.5</ele>
        <time>2018-10-14T08:41:49Z</time>
      </trkpt>
      <trkpt lat="46.38484" lon="2.50187">
        <ele>279.8</ele>
        <time>2018-10-14T08:41:51Z</time>
      </trkpt>
      <trkpt lat="46.38486" lon="2.50177">
        <ele>280.4</ele>
        <time>2018-10-14T08:41:53Z</time>
      </trkpt>
      <trkpt lat="46.38487" lon="2.50173">
        <ele>280.6</ele>
        <time>2018-10-14T08:41:54Z</time>
      </trkpt>
      <trkpt lat="46.38489" lon="2.50159">
        <ele>280.2</ele>
        <time>2018-10-14T08:41:57Z</time>
      </trkpt>
      <trkpt lat="46.3849" lon="2.50149">
        <ele>281</ele>
        <time>2018-10-14T08:41:59Z</time>
      </trkpt>
      <trkpt lat="46.38491" lon="2.50138">
        <ele>281.3</ele>
        <time>2018-10-14T08:42:01Z</time>
      </trkpt>
      <trkpt lat="46.38492" lon="2.50128">
        <ele>282.1</ele>
        <time>2018-10-14T08:42:03Z</time>
      </trkpt>
      <trkpt lat="46.38493" lon="2.50118">
        <ele>282.3</ele>
        <time>2018-10-14T08:42:05Z</time>
      </trkpt>
      <trkpt lat="46.38493" lon="2.50109">
        <ele>282.3</ele>
        <time>2018-10-14T08:42:07Z</time>
      </trkpt>
      <trkpt lat="46.38495" lon="2.501">
        <ele>282.2</ele>
        <time>2018-10-14T08:42:09Z</time>
      </trkpt>
      <trkpt lat="46.38496" lon="2.5009">
        <ele>283.2</ele>
        <time>2018-10-14T08:42:11Z</time>
      </trkpt>
      <trkpt lat="46.38497" lon="2.50081">
        <ele>284.1</ele>
        <time>2018-10-14T08:42:13Z</time>
      </trkpt>
      <trkpt lat="46.38498" lon="2.50071">
        <ele>283.6</ele>
        <time>2018-10-14T08:42:15Z</time>
      </trkpt>
      <trkpt lat="46.38498" lon="2.5006">
        <ele>283.3</ele>
        <time>2018-10-14T08:42:17Z</time>
      </trkpt>
      <trkpt lat="46.38498" lon="2.5005">
        <ele>283.4</ele>
        <time>2018-10-14T08:42:19Z</time>
      </trkpt>
      <trkpt lat="46.38497" lon="2.5004">
        <ele>284.2</ele>
        <time>2018-10-14T08:42:21Z</time>
      </trkpt>
      <trkpt lat="46.38496" lon="2.5003">
        <ele>284.9</ele>
        <time>2018-10-14T08:42:23Z</time>
      </trkpt>
      <trkpt lat="46.38495" lon="2.50019">
        <ele>284.4</ele>
        <time>2018-10-14T08:42:25Z</time>
      </trkpt>
      <trkpt lat="46.38494" lon="2.50009">
        <ele>285</ele>
        <time>2018-10-14T08:42:27Z</time>
      </trkpt>
      <trkpt lat="46.38493" lon="2.49998">
        <ele>285.5</ele>
        <time>2018-10-14T08:42:29Z</time>
      </trkpt>
      <trkpt lat="46.38492" lon="2.49989">
        <ele>285.8</ele>
        <time>2018-10-14T08:42:31Z</time>
      </trkpt>
      <trkpt lat="46.38491" lon="2.49979">
        <ele>286.8</ele>
        <time>2018-10-14T08:42:33Z</time>
      </trkpt>
      <trkpt lat="46.38491" lon="2.4997">
        <ele>287.9</ele>
        <time>2018-10-14T08:42:35Z</time>
      </trkpt>
      <trkpt lat="46.3849" lon="2.4996">
        <ele>287.5</ele>
        <time>2018-10-14T08:42:37Z</time>
      </trkpt>
      <trkpt lat="46.3849" lon="2.49951">
        <ele>288.9</ele>
        <time>2018-10-14T08:42:39Z</time>
      </trkpt>
      <trkpt lat="46.38489" lon="2.49941">
        <ele>288.6</ele>
        <time>2018-10-14T08:42:41Z</time>
      </trkpt>
      <trkpt lat="46.38488" lon="2.49932">
        <ele>288.9</ele>
        <time>2018-10-14T08:42:43Z</time>
      </trkpt>
      <trkpt lat="46.38488" lon="2.49922">
        <ele>289.6</ele>
        <time>2018-10-14T08:42:45Z</time>
      </trkpt>
      <trkpt lat="46.38487" lon="2.49913">
        <ele>290</ele>
        <time>2018-10-14T08:42:47Z</time>
      </trkpt>
      <trkpt lat="46.38486" lon="2.49903">
        <ele>290.6</ele>
        <time>2018-10-14T08:42:49Z</time>
      </trkpt>
      <trkpt lat="46.38485" lon="2.49893">
        <ele>291.1</ele>
        <time>2018-10-14T08:42:51Z</time>
      </trkpt>
      <trkpt lat="46.38483" lon="2.49884">
        <ele>291</ele>
        <time>2018-10-14T08:42:53Z</time>
      </trkpt>
      <trkpt lat="46.38482" lon="2.49874">
        <ele>291.9</ele>
        <time>2018-10-14T08:42:55Z</time>
      </trkpt>
      <trkpt lat="46.38481" lon="2.49869">
        <ele>292.6</ele>
        <time>2018-10-14T08:42:56Z</time>
      </trkpt>
      <trkpt lat="46.3848" lon="2.49855">
        <ele>292.2</ele>
        <time>2018-10-14T08:42:59Z</time>
      </trkpt>
      <trkpt lat="46.38479" lon="2.49842">
        <ele>292.7</ele>
        <time>2018-10-14T08:43:02Z</time>
      </trkpt>
      <trkpt lat="46.38478" lon="2.49833">
        <ele>293.2</ele>
        <time>2018-10-14T08:43:04Z</time>
      </trkpt>
      <trkpt lat="46.38477" lon="2.49822">
        <ele>293.4</ele>
        <time>2018-10-14T08:43:06Z</time>
      </trkpt>
      <trkpt lat="46.38475" lon="2.49811">
        <ele>294.1</ele>
        <time>2018-10-14T08:43:08Z</time>
      </trkpt>
      <trkpt lat="46.38474" lon="2.49798">
        <ele>294</ele>
        <time>2018-10-14T08:43:10Z</time>
      </trkpt>
      <trkpt lat="46.38473" lon="2.49787">
        <ele>294.4</ele>
        <time>2018-10-14T08:43:12Z</time>
      </trkpt>
      <trkpt lat="46.38472" lon="2.49775">
        <ele>294.8</ele>
        <time>2018-10-14T08:43:14Z</time>
      </trkpt>
      <trkpt lat="46.3847" lon="2.49764">
        <ele>295.1</ele>
        <time>2018-10-14T08:43:16Z</time>
      </trkpt>
      <trkpt lat="46.38469" lon="2.49752">
        <ele>295.5</ele>
        <time>2018-10-14T08:43:18Z</time>
      </trkpt>
      <trkpt lat="46.38468" lon="2.4974">
        <ele>295.8</ele>
        <time>2018-10-14T08:43:20Z</time>
      </trkpt>
      <trkpt lat="46.38467" lon="2.49728">
        <ele>295.7</ele>
        <time>2018-10-14T08:43:22Z</time>
      </trkpt>
      <trkpt lat="46.38466" lon="2.49721">
        <ele>295.8</ele>
        <time>2018-10-14T08:43:23Z</time>
      </trkpt>
      <trkpt lat="46.38466" lon="2.49715">
        <ele>295.9</ele>
        <time>2018-10-14T08:43:24Z</time>
      </trkpt>
      <trkpt lat="46.38465" lon="2.49708">
        <ele>296.2</ele>
        <time>2018-10-14T08:43:25Z</time>
      </trkpt>
      <trkpt lat="46.38465" lon="2.49701">
        <ele>296.4</ele>
        <time>2018-10-14T08:43:26Z</time>
      </trkpt>
      <trkpt lat="46.38464" lon="2.49694">
        <ele>296.5</ele>
        <time>2018-10-14T08:43:27Z</time>
      </trkpt>
      <trkpt lat="46.38464" lon="2.49687">
        <ele>296.2</ele>
        <time>2018-10-14T08:43:28Z</time>
      </trkpt>
      <trkpt lat="46.38463" lon="2.49679">
        <ele>295.9</ele>
        <time>2018-10-14T08:43:29Z</time>
      </trkpt>
      <trkpt lat="46.38461" lon="2.49672">
        <ele>295.9</ele>
        <time>2018-10-14T08:43:30Z</time>
      </trkpt>
      <trkpt lat="46.38459" lon="2.49664">
        <ele>295.8</ele>
        <time>2018-10-14T08:43:31Z</time>
      </trkpt>
      <trkpt lat="46.38458" lon="2.49657">
        <ele>295.8</ele>
        <time>2018-10-14T08:43:32Z</time>
      </trkpt>
      <trkpt lat="46.38456" lon="2.4965">
        <ele>295.6</ele>
        <time>2018-10-14T08:43:33Z</time>
      </trkpt>
      <trkpt lat="46.38454" lon="2.49644">
        <ele>295.5</ele>
        <time>2018-10-14T08:43:34Z</time>
      </trkpt>
      <trkpt lat="46.38451" lon="2.49637">
        <ele>295.8</ele>
        <time>2018-10-14T08:43:35Z</time>
      </trkpt>
      <trkpt lat="46.38449" lon="2.49631">
        <ele>296.1</ele>
        <time>2018-10-14T08:43:36Z</time>
      </trkpt>
      <trkpt lat="46.38448" lon="2.49624">
        <ele>296.3</ele>
        <time>2018-10-14T08:43:37Z</time>
      </trkpt>
      <trkpt lat="46.38446" lon="2.49618">
        <ele>296.4</ele>
        <time>2018-10-14T08:43:38Z</time>
      </trkpt>
      <trkpt lat="46.38443" lon="2.49606">
        <ele>296.5</ele>
        <time>2018-10-14T08:43:40Z</time>
      </trkpt>
      <trkpt lat="46.38441" lon="2.49594">
        <ele>296.8</ele>
        <time>2018-10-14T08:43:42Z</time>
      </trkpt>
      <trkpt lat="46.3844" lon="2.49583">
        <ele>296.9</ele>
        <time>2018-10-14T08:43:44Z</time>
      </trkpt>
      <trkpt lat="46.38438" lon="2.49573">
        <ele>296.7</ele>
        <time>2018-10-14T08:43:46Z</time>
      </trkpt>
      <trkpt lat="46.38437" lon="2.49561">
        <ele>296.9</ele>
        <time>2018-10-14T08:43:48Z</time>
      </trkpt>
      <trkpt lat="46.38436" lon="2.4955">
        <ele>297.4</ele>
        <time>2018-10-14T08:43:50Z</time>
      </trkpt>
      <trkpt lat="46.38434" lon="2.49538">
        <ele>297.4</ele>
        <time>2018-10-14T08:43:52Z</time>
      </trkpt>
      <trkpt lat="46.38433" lon="2.49531">
        <ele>297.3</ele>
        <time>2018-10-14T08:43:53Z</time>
      </trkpt>
      <trkpt lat="46.38432" lon="2.49524">
        <ele>297</ele>
        <time>2018-10-14T08:43:54Z</time>
      </trkpt>
      <trkpt lat="46.3843" lon="2.49516">
        <ele>296.9</ele>
        <time>2018-10-14T08:43:55Z</time>
      </trkpt>
      <trkpt lat="46.38428" lon="2.49509">
        <ele>296</ele>
        <time>2018-10-14T08:43:56Z</time>
      </trkpt>
      <trkpt lat="46.38424" lon="2.49504">
        <ele>295.3</ele>
        <time>2018-10-14T08:43:57Z</time>
      </trkpt>
      <trkpt lat="46.38419" lon="2.495">
        <ele>294.8</ele>
        <time>2018-10-14T08:43:58Z</time>
      </trkpt>
      <trkpt lat="46.38414" lon="2.49499">
        <ele>294.2</ele>
        <time>2018-10-14T08:43:59Z</time>
      </trkpt>
      <trkpt lat="46.38408" lon="2.49499">
        <ele>293.8</ele>
        <time>2018-10-14T08:44:00Z</time>
      </trkpt>
      <trkpt lat="46.38402" lon="2.495">
        <ele>293</ele>
        <time>2018-10-14T08:44:01Z</time>
      </trkpt>
      <trkpt lat="46.38396" lon="2.49501">
        <ele>292.4</ele>
        <time>2018-10-14T08:44:02Z</time>
      </trkpt>
      <trkpt lat="46.3839" lon="2.49502">
        <ele>292</ele>
        <time>2018-10-14T08:44:03Z</time>
      </trkpt>
      <trkpt lat="46.38384" lon="2.49504">
        <ele>291.8</ele>
        <time>2018-10-14T08:44:04Z</time>
      </trkpt>
      <trkpt lat="46.38378" lon="2.49505">
        <ele>291.6</ele>
        <time>2018-10-14T08:44:05Z</time>
      </trkpt>
      <trkpt lat="46.38371" lon="2.49507">
        <ele>291.1</ele>
        <time>2018-10-14T08:44:06Z</time>
      </trkpt>
      <trkpt lat="46.38364" lon="2.49508">
        <ele>290.7</ele>
        <time>2018-10-14T08:44:07Z</time>
      </trkpt>
      <trkpt lat="46.38357" lon="2.4951">
        <ele>290.3</ele>
        <time>2018-10-14T08:44:08Z</time>
      </trkpt>
      <trkpt lat="46.3835" lon="2.49511">
        <ele>290</ele>
        <time>2018-10-14T08:44:09Z</time>
      </trkpt>
      <trkpt lat="46.38342" lon="2.49513">
        <ele>289.8</ele>
        <time>2018-10-14T08:44:10Z</time>
      </trkpt>
      <trkpt lat="46.38334" lon="2.49515">
        <ele>289.2</ele>
        <time>2018-10-14T08:44:11Z</time>
      </trkpt>
      <trkpt lat="46.38327" lon="2.49518">
        <ele>288.8</ele>
        <time>2018-10-14T08:44:12Z</time>
      </trkpt>
      <trkpt lat="46.38319" lon="2.49521">
        <ele>288.4</ele>
        <time>2018-10-14T08:44:13Z</time>
      </trkpt>
      <trkpt lat="46.3831" lon="2.49524">
        <ele>288.2</ele>
        <time>2018-10-14T08:44:14Z</time>
      </trkpt>
      <trkpt lat="46.38302" lon="2.49528">
        <ele>287.4</ele>
        <time>2018-10-14T08:44:15Z</time>
      </trkpt>
      <trkpt lat="46.38293" lon="2.49531">
        <ele>286.8</ele>
        <time>2018-10-14T08:44:16Z</time>
      </trkpt>
      <trkpt lat="46.38284" lon="2.49535">
        <ele>286.3</ele>
        <time>2018-10-14T08:44:17Z</time>
      </trkpt>
      <trkpt lat="46.38275" lon="2.49538">
        <ele>285.6</ele>
        <time>2018-10-14T08:44:18Z</time>
      </trkpt>
      <trkpt lat="46.38267" lon="2.49539">
        <ele>285.1</ele>
        <time>2018-10-14T08:44:19Z</time>
      </trkpt>
      <trkpt lat="46.38258" lon="2.49538">
        <ele>283.8</ele>
        <time>2018-10-14T08:44:20Z</time>
      </trkpt>
      <trkpt lat="46.3825" lon="2.49534">
        <ele>282.9</ele>
        <time>2018-10-14T08:44:21Z</time>
      </trkpt>
      <trkpt lat="46.38243" lon="2.49528">
        <ele>281.5</ele>
        <time>2018-10-14T08:44:22Z</time>
      </trkpt>
      <trkpt lat="46.38237" lon="2.49521">
        <ele>280.4</ele>
        <time>2018-10-14T08:44:23Z</time>
      </trkpt>
      <trkpt lat="46.38232" lon="2.49516">
        <ele>279.6</ele>
        <time>2018-10-14T08:44:24Z</time>
      </trkpt>
      <trkpt lat="46.38227" lon="2.49512">
        <ele>278.4</ele>
        <time>2018-10-14T08:44:25Z</time>
      </trkpt>
      <trkpt lat="46.38221" lon="2.49512">
        <ele>277.4</ele>
        <time>2018-10-14T08:44:26Z</time>
      </trkpt>
      <trkpt lat="46.38215" lon="2.49516">
        <ele>276.5</ele>
        <time>2018-10-14T08:44:27Z</time>
      </trkpt>
      <trkpt lat="46.3821" lon="2.49523">
        <ele>275.9</ele>
        <time>2018-10-14T08:44:28Z</time>
      </trkpt>
      <trkpt lat="46.38204" lon="2.49531">
        <ele>275.4</ele>
        <time>2018-10-14T08:44:29Z</time>
      </trkpt>
      <trkpt lat="46.38198" lon="2.49539">
        <ele>274.2</ele>
        <time>2018-10-14T08:44:30Z</time>
      </trkpt>
      <trkpt lat="46.38191" lon="2.49547">
        <ele>273.4</ele>
        <time>2018-10-14T08:44:31Z</time>
      </trkpt>
      <trkpt lat="46.38184" lon="2.49554">
        <ele>271.7</ele>
        <time>2018-10-14T08:44:32Z</time>
      </trkpt>
      <trkpt lat="46.38177" lon="2.49558">
        <ele>270.4</ele>
        <time>2018-10-14T08:44:33Z</time>
      </trkpt>
      <trkpt lat="46.3817" lon="2.4956">
        <ele>269.6</ele>
        <time>2018-10-14T08:44:34Z</time>
      </trkpt>
      <trkpt lat="46.38164" lon="2.49564">
        <ele>269</ele>
        <time>2018-10-14T08:44:35Z</time>
      </trkpt>
      <trkpt lat="46.38158" lon="2.4957">
        <ele>268.6</ele>
        <time>2018-10-14T08:44:36Z</time>
      </trkpt>
      <trkpt lat="46.38154" lon="2.49575">
        <ele>267.6</ele>
        <time>2018-10-14T08:44:37Z</time>
      </trkpt>
      <trkpt lat="46.38147" lon="2.49577">
        <ele>266.1</ele>
        <time>2018-10-14T08:44:39Z</time>
      </trkpt>
      <trkpt lat="46.3814" lon="2.49576">
        <ele>265.6</ele>
        <time>2018-10-14T08:44:41Z</time>
      </trkpt>
      <trkpt lat="46.38132" lon="2.49576">
        <ele>265.6</ele>
        <time>2018-10-14T08:44:43Z</time>
      </trkpt>
      <trkpt lat="46.38123" lon="2.49575">
        <ele>265</ele>
        <time>2018-10-14T08:44:45Z</time>
      </trkpt>
      <trkpt lat="46.38114" lon="2.49573">
        <ele>265</ele>
        <time>2018-10-14T08:44:47Z</time>
      </trkpt>
      <trkpt lat="46.38107" lon="2.49573">
        <ele>265.5</ele>
        <time>2018-10-14T08:44:49Z</time>
      </trkpt>
      <trkpt lat="46.38099" lon="2.49574">
        <ele>266.4</ele>
        <time>2018-10-14T08:44:52Z</time>
      </trkpt>
      <trkpt lat="46.38091" lon="2.49575">
        <ele>268.2</ele>
        <time>2018-10-14T08:44:55Z</time>
      </trkpt>
      <trkpt lat="46.38084" lon="2.49577">
        <ele>269.1</ele>
        <time>2018-10-14T08:44:58Z</time>
      </trkpt>
      <trkpt lat="46.38082" lon="2.49578">
        <ele>269.4</ele>
        <time>2018-10-14T08:44:59Z</time>
      </trkpt>
      <trkpt lat="46.38067" lon="2.49583">
        <ele>270.9</ele>
        <time>2018-10-14T08:45:06Z</time>
      </trkpt>
      <trkpt lat="46.38059" lon="2.49587">
        <ele>272.5</ele>
        <time>2018-10-14T08:45:10Z</time>
      </trkpt>
      <trkpt lat="46.38053" lon="2.49591">
        <ele>273.5</ele>
        <time>2018-10-14T08:45:13Z</time>
      </trkpt>
      <trkpt lat="46.38046" lon="2.49595">
        <ele>274.2</ele>
        <time>2018-10-14T08:45:16Z</time>
      </trkpt>
      <trkpt lat="46.3804" lon="2.496">
        <ele>275.2</ele>
        <time>2018-10-14T08:45:19Z</time>
      </trkpt>
      <trkpt lat="46.38034" lon="2.49606">
        <ele>276</ele>
        <time>2018-10-14T08:45:22Z</time>
      </trkpt>
      <trkpt lat="46.38028" lon="2.49613">
        <ele>276.5</ele>
        <time>2018-10-14T08:45:25Z</time>
      </trkpt>
      <trkpt lat="46.38021" lon="2.4962">
        <ele>277.4</ele>
        <time>2018-10-14T08:45:29Z</time>
      </trkpt>
      <trkpt lat="46.38015" lon="2.49628">
        <ele>278.2</ele>
        <time>2018-10-14T08:45:34Z</time>
      </trkpt>
      <trkpt lat="46.38007" lon="2.49635">
        <ele>279.6</ele>
        <time>2018-10-14T08:45:40Z</time>
      </trkpt>
      <trkpt lat="46.38001" lon="2.49642">
        <ele>281.5</ele>
        <time>2018-10-14T08:45:46Z</time>
      </trkpt>
      <trkpt lat="46.37994" lon="2.49649">
        <ele>282.6</ele>
        <time>2018-10-14T08:45:52Z</time>
      </trkpt>
      <trkpt lat="46.37987" lon="2.49657">
        <ele>283.7</ele>
        <time>2018-10-14T08:45:59Z</time>
      </trkpt>
      <trkpt lat="46.37986" lon="2.49658">
        <ele>283.7</ele>
        <time>2018-10-14T08:46:00Z</time>
      </trkpt>
      <trkpt lat="46.37975" lon="2.49671">
        <ele>286.2</ele>
        <time>2018-10-14T08:46:11Z</time>
      </trkpt>
      <trkpt lat="46.37968" lon="2.49678">
        <ele>286.6</ele>
        <time>2018-10-14T08:46:18Z</time>
      </trkpt>
      <trkpt lat="46.37961" lon="2.49687">
        <ele>287.8</ele>
        <time>2018-10-14T08:46:25Z</time>
      </trkpt>
      <trkpt lat="46.37954" lon="2.49696">
        <ele>289.8</ele>
        <time>2018-10-14T08:46:32Z</time>
      </trkpt>
      <trkpt lat="46.3795" lon="2.49704">
        <ele>289.1</ele>
        <time>2018-10-14T08:46:37Z</time>
      </trkpt>
      <trkpt lat="46.37945" lon="2.49711">
        <ele>289.8</ele>
        <time>2018-10-14T08:46:40Z</time>
      </trkpt>
      <trkpt lat="46.3794" lon="2.4972">
        <ele>290</ele>
        <time>2018-10-14T08:46:43Z</time>
      </trkpt>
      <trkpt lat="46.37934" lon="2.4973">
        <ele>289.8</ele>
        <time>2018-10-14T08:46:46Z</time>
      </trkpt>
      <trkpt lat="46.37929" lon="2.49739">
        <ele>290.7</ele>
        <time>2018-10-14T08:46:49Z</time>
      </trkpt>
      <trkpt lat="46.37924" lon="2.49747">
        <ele>291.1</ele>
        <time>2018-10-14T08:46:52Z</time>
      </trkpt>
      <trkpt lat="46.37919" lon="2.49756">
        <ele>291.7</ele>
        <time>2018-10-14T08:46:55Z</time>
      </trkpt>
      <trkpt lat="46.37914" lon="2.49764">
        <ele>291.8</ele>
        <time>2018-10-14T08:46:58Z</time>
      </trkpt>
      <trkpt lat="46.37908" lon="2.49772">
        <ele>292.4</ele>
        <time>2018-10-14T08:47:01Z</time>
      </trkpt>
      <trkpt lat="46.37906" lon="2.49775">
        <ele>292.5</ele>
        <time>2018-10-14T08:47:02Z</time>
      </trkpt>
      <trkpt lat="46.37897" lon="2.49789">
        <ele>293.1</ele>
        <time>2018-10-14T08:47:07Z</time>
      </trkpt>
      <trkpt lat="46.37891" lon="2.49797">
        <ele>293.5</ele>
        <time>2018-10-14T08:47:10Z</time>
      </trkpt>
      <trkpt lat="46.37885" lon="2.49804">
        <ele>294.4</ele>
        <time>2018-10-14T08:47:13Z</time>
      </trkpt>
      <trkpt lat="46.37879" lon="2.49812">
        <ele>294.7</ele>
        <time>2018-10-14T08:47:16Z</time>
      </trkpt>
      <trkpt lat="46.37874" lon="2.4982">
        <ele>294.8</ele>
        <time>2018-10-14T08:47:19Z</time>
      </trkpt>
      <trkpt lat="46.37869" lon="2.49828">
        <ele>295.1</ele>
        <time>2018-10-14T08:47:22Z</time>
      </trkpt>
      <trkpt lat="46.37862" lon="2.49834">
        <ele>295.5</ele>
        <time>2018-10-14T08:47:26Z</time>
      </trkpt>
      <trkpt lat="46.37854" lon="2.49835">
        <ele>295.6</ele>
        <time>2018-10-14T08:47:29Z</time>
      </trkpt>
      <trkpt lat="46.37845" lon="2.49836">
        <ele>296.1</ele>
        <time>2018-10-14T08:47:32Z</time>
      </trkpt>
      <trkpt lat="46.37837" lon="2.49838">
        <ele>297.1</ele>
        <time>2018-10-14T08:47:35Z</time>
      </trkpt>
      <trkpt lat="46.37829" lon="2.49841">
        <ele>297.4</ele>
        <time>2018-10-14T08:47:38Z</time>
      </trkpt>
      <trkpt lat="46.37823" lon="2.49844">
        <ele>298.2</ele>
        <time>2018-10-14T08:47:40Z</time>
      </trkpt>
      <trkpt lat="46.37817" lon="2.49846">
        <ele>298.8</ele>
        <time>2018-10-14T08:47:42Z</time>
      </trkpt>
      <trkpt lat="46.37811" lon="2.49848">
        <ele>299.1</ele>
        <time>2018-10-14T08:47:44Z</time>
      </trkpt>
      <trkpt lat="46.37805" lon="2.4985">
        <ele>299</ele>
        <time>2018-10-14T08:47:46Z</time>
      </trkpt>
      <trkpt lat="46.37798" lon="2.49852">
        <ele>299.6</ele>
        <time>2018-10-14T08:47:48Z</time>
      </trkpt>
      <trkpt lat="46.37792" lon="2.49854">
        <ele>300.7</ele>
        <time>2018-10-14T08:47:50Z</time>
      </trkpt>
      <trkpt lat="46.37785" lon="2.49856">
        <ele>301.4</ele>
        <time>2018-10-14T08:47:52Z</time>
      </trkpt>
      <trkpt lat="46.37779" lon="2.49858">
        <ele>302.1</ele>
        <time>2018-10-14T08:47:54Z</time>
      </trkpt>
      <trkpt lat="46.37773" lon="2.49862">
        <ele>302.5</ele>
        <time>2018-10-14T08:47:56Z</time>
      </trkpt>
      <trkpt lat="46.37767" lon="2.49865">
        <ele>302.8</ele>
        <time>2018-10-14T08:47:58Z</time>
      </trkpt>
      <trkpt lat="46.37761" lon="2.49868">
        <ele>303</ele>
        <time>2018-10-14T08:48:00Z</time>
      </trkpt>
      <trkpt lat="46.37755" lon="2.49869">
        <ele>302.6</ele>
        <time>2018-10-14T08:48:02Z</time>
      </trkpt>
      <trkpt lat="46.37751" lon="2.49869">
        <ele>302.9</ele>
        <time>2018-10-14T08:48:03Z</time>
      </trkpt>
      <trkpt lat="46.37742" lon="2.49872">
        <ele>303</ele>
        <time>2018-10-14T08:48:06Z</time>
      </trkpt>
      <trkpt lat="46.37736" lon="2.49874">
        <ele>302.9</ele>
        <time>2018-10-14T08:48:08Z</time>
      </trkpt>
      <trkpt lat="46.37729" lon="2.49876">
        <ele>303.4</ele>
        <time>2018-10-14T08:48:10Z</time>
      </trkpt>
      <trkpt lat="46.37723" lon="2.49879">
        <ele>304.1</ele>
        <time>2018-10-14T08:48:12Z</time>
      </trkpt>
      <trkpt lat="46.37716" lon="2.49881">
        <ele>304.7</ele>
        <time>2018-10-14T08:48:14Z</time>
      </trkpt>
      <trkpt lat="46.3771" lon="2.49883">
        <ele>303.7</ele>
        <time>2018-10-14T08:48:16Z</time>
      </trkpt>
      <trkpt lat="46.37703" lon="2.49886">
        <ele>304.6</ele>
        <time>2018-10-14T08:48:18Z</time>
      </trkpt>
      <trkpt lat="46.37696" lon="2.49888">
        <ele>305</ele>
        <time>2018-10-14T08:48:20Z</time>
      </trkpt>
      <trkpt lat="46.37689" lon="2.49891">
        <ele>305</ele>
        <time>2018-10-14T08:48:22Z</time>
      </trkpt>
      <trkpt lat="46.37683" lon="2.49892">
        <ele>305</ele>
        <time>2018-10-14T08:48:24Z</time>
      </trkpt>
      <trkpt lat="46.37676" lon="2.49894">
        <ele>305.6</ele>
        <time>2018-10-14T08:48:26Z</time>
      </trkpt>
      <trkpt lat="46.37669" lon="2.49894">
        <ele>305.5</ele>
        <time>2018-10-14T08:48:28Z</time>
      </trkpt>
      <trkpt lat="46.37661" lon="2.49896">
        <ele>305.9</ele>
        <time>2018-10-14T08:48:30Z</time>
      </trkpt>
      <trkpt lat="46.37654" lon="2.49897">
        <ele>305.5</ele>
        <time>2018-10-14T08:48:32Z</time>
      </trkpt>
      <trkpt lat="46.37647" lon="2.49898">
        <ele>305.1</ele>
        <time>2018-10-14T08:48:34Z</time>
      </trkpt>
      <trkpt lat="46.3764" lon="2.49899">
        <ele>305.1</ele>
        <time>2018-10-14T08:48:36Z</time>
      </trkpt>
      <trkpt lat="46.37632" lon="2.49899">
        <ele>305.3</ele>
        <time>2018-10-14T08:48:38Z</time>
      </trkpt>
      <trkpt lat="46.37625" lon="2.49899">
        <ele>305.2</ele>
        <time>2018-10-14T08:48:40Z</time>
      </trkpt>
      <trkpt lat="46.37619" lon="2.49894">
        <ele>305.6</ele>
        <time>2018-10-14T08:48:42Z</time>
      </trkpt>
      <trkpt lat="46.37616" lon="2.49885">
        <ele>305.8</ele>
        <time>2018-10-14T08:48:44Z</time>
      </trkpt>
      <trkpt lat="46.37613" lon="2.49876">
        <ele>306</ele>
        <time>2018-10-14T08:48:46Z</time>
      </trkpt>
      <trkpt lat="46.37606" lon="2.49869">
        <ele>306.7</ele>
        <time>2018-10-14T08:48:49Z</time>
      </trkpt>
      <trkpt lat="46.37598" lon="2.49873">
        <ele>307.2</ele>
        <time>2018-10-14T08:48:52Z</time>
      </trkpt>
      <trkpt lat="46.37592" lon="2.49875">
        <ele>307</ele>
        <time>2018-10-14T08:48:54Z</time>
      </trkpt>
      <trkpt lat="46.37586" lon="2.49879">
        <ele>307.1</ele>
        <time>2018-10-14T08:48:56Z</time>
      </trkpt>
      <trkpt lat="46.37581" lon="2.49884">
        <ele>307.2</ele>
        <time>2018-10-14T08:48:58Z</time>
      </trkpt>
      <trkpt lat="46.37575" lon="2.49889">
        <ele>307.3</ele>
        <time>2018-10-14T08:49:00Z</time>
      </trkpt>
      <trkpt lat="46.37569" lon="2.49894">
        <ele>307.7</ele>
        <time>2018-10-14T08:49:02Z</time>
      </trkpt>
      <trkpt lat="46.37563" lon="2.49899">
        <ele>308.4</ele>
        <time>2018-10-14T08:49:04Z</time>
      </trkpt>
      <trkpt lat="46.37561" lon="2.49902">
        <ele>308.1</ele>
        <time>2018-10-14T08:49:05Z</time>
      </trkpt>
      <trkpt lat="46.37552" lon="2.49912">
        <ele>307.3</ele>
        <time>2018-10-14T08:49:08Z</time>
      </trkpt>
      <trkpt lat="46.37546" lon="2.49919">
        <ele>307.7</ele>
        <time>2018-10-14T08:49:10Z</time>
      </trkpt>
      <trkpt lat="46.37539" lon="2.49926">
        <ele>308.2</ele>
        <time>2018-10-14T08:49:12Z</time>
      </trkpt>
      <trkpt lat="46.37533" lon="2.49933">
        <ele>308.5</ele>
        <time>2018-10-14T08:49:14Z</time>
      </trkpt>
      <trkpt lat="46.37527" lon="2.49939">
        <ele>308.9</ele>
        <time>2018-10-14T08:49:16Z</time>
      </trkpt>
      <trkpt lat="46.37521" lon="2.49946">
        <ele>308.7</ele>
        <time>2018-10-14T08:49:18Z</time>
      </trkpt>
      <trkpt lat="46.37514" lon="2.49953">
        <ele>308.5</ele>
        <time>2018-10-14T08:49:20Z</time>
      </trkpt>
      <trkpt lat="46.37508" lon="2.4996">
        <ele>308.3</ele>
        <time>2018-10-14T08:49:22Z</time>
      </trkpt>
      <trkpt lat="46.37501" lon="2.49967">
        <ele>307.9</ele>
        <time>2018-10-14T08:49:24Z</time>
      </trkpt>
      <trkpt lat="46.37494" lon="2.49975">
        <ele>308</ele>
        <time>2018-10-14T08:49:26Z</time>
      </trkpt>
      <trkpt lat="46.37488" lon="2.49982">
        <ele>308.4</ele>
        <time>2018-10-14T08:49:28Z</time>
      </trkpt>
      <trkpt lat="46.37481" lon="2.49989">
        <ele>307.6</ele>
        <time>2018-10-14T08:49:30Z</time>
      </trkpt>
      <trkpt lat="46.37473" lon="2.49995">
        <ele>307.8</ele>
        <time>2018-10-14T08:49:32Z</time>
      </trkpt>
      <trkpt lat="46.37469" lon="2.49998">
        <ele>306.9</ele>
        <time>2018-10-14T08:49:33Z</time>
      </trkpt>
      <trkpt lat="46.37464" lon="2.50001">
        <ele>306.3</ele>
        <time>2018-10-14T08:49:34Z</time>
      </trkpt>
      <trkpt lat="46.3746" lon="2.50003">
        <ele>305.9</ele>
        <time>2018-10-14T08:49:35Z</time>
      </trkpt>
      <trkpt lat="46.37456" lon="2.50006">
        <ele>305.8</ele>
        <time>2018-10-14T08:49:36Z</time>
      </trkpt>
      <trkpt lat="46.37448" lon="2.50011">
        <ele>305.9</ele>
        <time>2018-10-14T08:49:38Z</time>
      </trkpt>
      <trkpt lat="46.3744" lon="2.50016">
        <ele>305.9</ele>
        <time>2018-10-14T08:49:40Z</time>
      </trkpt>
      <trkpt lat="46.37436" lon="2.50019">
        <ele>305.8</ele>
        <time>2018-10-14T08:49:41Z</time>
      </trkpt>
      <trkpt lat="46.37432" lon="2.50022">
        <ele>305.7</ele>
        <time>2018-10-14T08:49:42Z</time>
      </trkpt>
      <trkpt lat="46.37428" lon="2.50025">
        <ele>305.6</ele>
        <time>2018-10-14T08:49:43Z</time>
      </trkpt>
      <trkpt lat="46.37423" lon="2.50028">
        <ele>305.5</ele>
        <time>2018-10-14T08:49:44Z</time>
      </trkpt>
      <trkpt lat="46.37419" lon="2.50031">
        <ele>305.1</ele>
        <time>2018-10-14T08:49:45Z</time>
      </trkpt>
      <trkpt lat="46.37415" lon="2.50034">
        <ele>304.8</ele>
        <time>2018-10-14T08:49:46Z</time>
      </trkpt>
      <trkpt lat="46.37407" lon="2.50039">
        <ele>304.9</ele>
        <time>2018-10-14T08:49:48Z</time>
      </trkpt>
      <trkpt lat="46.374" lon="2.50044">
        <ele>305.3</ele>
        <time>2018-10-14T08:49:50Z</time>
      </trkpt>
      <trkpt lat="46.37392" lon="2.50049">
        <ele>306.1</ele>
        <time>2018-10-14T08:49:52Z</time>
      </trkpt>
      <trkpt lat="46.37386" lon="2.50055">
        <ele>306.9</ele>
        <time>2018-10-14T08:49:54Z</time>
      </trkpt>
      <trkpt lat="46.37379" lon="2.50059">
        <ele>306.6</ele>
        <time>2018-10-14T08:49:56Z</time>
      </trkpt>
      <trkpt lat="46.37373" lon="2.50063">
        <ele>306.8</ele>
        <time>2018-10-14T08:49:58Z</time>
      </trkpt>
      <trkpt lat="46.37367" lon="2.50068">
        <ele>306.9</ele>
        <time>2018-10-14T08:50:00Z</time>
      </trkpt>
      <trkpt lat="46.3736" lon="2.50071">
        <ele>307.5</ele>
        <time>2018-10-14T08:50:02Z</time>
      </trkpt>
      <trkpt lat="46.37355" lon="2.50075">
        <ele>307.8</ele>
        <time>2018-10-14T08:50:04Z</time>
      </trkpt>
      <trkpt lat="46.37349" lon="2.50079">
        <ele>307.8</ele>
        <time>2018-10-14T08:50:06Z</time>
      </trkpt>
      <trkpt lat="46.37347" lon="2.50081">
        <ele>307.8</ele>
        <time>2018-10-14T08:50:07Z</time>
      </trkpt>
      <trkpt lat="46.37334" lon="2.5009">
        <ele>307.9</ele>
        <time>2018-10-14T08:50:12Z</time>
      </trkpt>
      <trkpt lat="46.37328" lon="2.50094">
        <ele>308.3</ele>
        <time>2018-10-14T08:50:14Z</time>
      </trkpt>
      <trkpt lat="46.37323" lon="2.50098">
        <ele>308.7</ele>
        <time>2018-10-14T08:50:16Z</time>
      </trkpt>
      <trkpt lat="46.37317" lon="2.50102">
        <ele>309.2</ele>
        <time>2018-10-14T08:50:18Z</time>
      </trkpt>
      <trkpt lat="46.37309" lon="2.50108">
        <ele>310.5</ele>
        <time>2018-10-14T08:50:21Z</time>
      </trkpt>
      <trkpt lat="46.37301" lon="2.50113">
        <ele>311.5</ele>
        <time>2018-10-14T08:50:24Z</time>
      </trkpt>
      <trkpt lat="46.37293" lon="2.50117">
        <ele>311.8</ele>
        <time>2018-10-14T08:50:27Z</time>
      </trkpt>
      <trkpt lat="46.37286" lon="2.50123">
        <ele>312.1</ele>
        <time>2018-10-14T08:50:30Z</time>
      </trkpt>
      <trkpt lat="46.3728" lon="2.50127">
        <ele>312.6</ele>
        <time>2018-10-14T08:50:32Z</time>
      </trkpt>
      <trkpt lat="46.37274" lon="2.50132">
        <ele>313.5</ele>
        <time>2018-10-14T08:50:34Z</time>
      </trkpt>
      <trkpt lat="46.37269" lon="2.50136">
        <ele>313.6</ele>
        <time>2018-10-14T08:50:36Z</time>
      </trkpt>
      <trkpt lat="46.37264" lon="2.5014">
        <ele>313.5</ele>
        <time>2018-10-14T08:50:38Z</time>
      </trkpt>
      <trkpt lat="46.37258" lon="2.50145">
        <ele>313.9</ele>
        <time>2018-10-14T08:50:40Z</time>
      </trkpt>
      <trkpt lat="46.37252" lon="2.5015">
        <ele>314.5</ele>
        <time>2018-10-14T08:50:42Z</time>
      </trkpt>
      <trkpt lat="46.37245" lon="2.50154">
        <ele>314</ele>
        <time>2018-10-14T08:50:44Z</time>
      </trkpt>
      <trkpt lat="46.37238" lon="2.5016">
        <ele>313.1</ele>
        <time>2018-10-14T08:50:46Z</time>
      </trkpt>
      <trkpt lat="46.37234" lon="2.50163">
        <ele>313</ele>
        <time>2018-10-14T08:50:47Z</time>
      </trkpt>
      <trkpt lat="46.37229" lon="2.50167">
        <ele>313</ele>
        <time>2018-10-14T08:50:48Z</time>
      </trkpt>
      <trkpt lat="46.37224" lon="2.50171">
        <ele>313.1</ele>
        <time>2018-10-14T08:50:49Z</time>
      </trkpt>
      <trkpt lat="46.37219" lon="2.50175">
        <ele>313.3</ele>
        <time>2018-10-14T08:50:50Z</time>
      </trkpt>
      <trkpt lat="46.37214" lon="2.5018">
        <ele>313.4</ele>
        <time>2018-10-14T08:50:51Z</time>
      </trkpt>
      <trkpt lat="46.37207" lon="2.50185">
        <ele>312.8</ele>
        <time>2018-10-14T08:50:52Z</time>
      </trkpt>
      <trkpt lat="46.372" lon="2.5019">
        <ele>312.4</ele>
        <time>2018-10-14T08:50:53Z</time>
      </trkpt>
      <trkpt lat="46.37193" lon="2.50195">
        <ele>311.6</ele>
        <time>2018-10-14T08:50:54Z</time>
      </trkpt>
      <trkpt lat="46.37185" lon="2.502">
        <ele>311</ele>
        <time>2018-10-14T08:50:55Z</time>
      </trkpt>
      <trkpt lat="46.37176" lon="2.50205">
        <ele>309.8</ele>
        <time>2018-10-14T08:50:56Z</time>
      </trkpt>
      <trkpt lat="46.37166" lon="2.5021">
        <ele>308.9</ele>
        <time>2018-10-14T08:50:57Z</time>
      </trkpt>
      <trkpt lat="46.37157" lon="2.50216">
        <ele>308.2</ele>
        <time>2018-10-14T08:50:58Z</time>
      </trkpt>
      <trkpt lat="46.37147" lon="2.50221">
        <ele>306.9</ele>
        <time>2018-10-14T08:50:59Z</time>
      </trkpt>
      <trkpt lat="46.37136" lon="2.50227">
        <ele>305.9</ele>
        <time>2018-10-14T08:51:00Z</time>
      </trkpt>
      <trkpt lat="46.37125" lon="2.50232">
        <ele>304.2</ele>
        <time>2018-10-14T08:51:01Z</time>
      </trkpt>
      <trkpt lat="46.37114" lon="2.50239">
        <ele>303</ele>
        <time>2018-10-14T08:51:02Z</time>
      </trkpt>
      <trkpt lat="46.37104" lon="2.50246">
        <ele>302</ele>
        <time>2018-10-14T08:51:03Z</time>
      </trkpt>
      <trkpt lat="46.37095" lon="2.50254">
        <ele>300.9</ele>
        <time>2018-10-14T08:51:04Z</time>
      </trkpt>
      <trkpt lat="46.37087" lon="2.50264">
        <ele>300.1</ele>
        <time>2018-10-14T08:51:05Z</time>
      </trkpt>
      <trkpt lat="46.37079" lon="2.50273">
        <ele>299.7</ele>
        <time>2018-10-14T08:51:06Z</time>
      </trkpt>
      <trkpt lat="46.37071" lon="2.5028">
        <ele>299.4</ele>
        <time>2018-10-14T08:51:07Z</time>
      </trkpt>
      <trkpt lat="46.37064" lon="2.50285">
        <ele>299.1</ele>
        <time>2018-10-14T08:51:08Z</time>
      </trkpt>
      <trkpt lat="46.37057" lon="2.50288">
        <ele>298.9</ele>
        <time>2018-10-14T08:51:09Z</time>
      </trkpt>
      <trkpt lat="46.37051" lon="2.5029">
        <ele>298.7</ele>
        <time>2018-10-14T08:51:10Z</time>
      </trkpt>
      <trkpt lat="46.37045" lon="2.50292">
        <ele>298.6</ele>
        <time>2018-10-14T08:51:11Z</time>
      </trkpt>
      <trkpt lat="46.37039" lon="2.50294">
        <ele>298.5</ele>
        <time>2018-10-14T08:51:12Z</time>
      </trkpt>
      <trkpt lat="46.37034" lon="2.50296">
        <ele>299.3</ele>
        <time>2018-10-14T08:51:13Z</time>
      </trkpt>
      <trkpt lat="46.37029" lon="2.50298">
        <ele>300</ele>
        <time>2018-10-14T08:51:14Z</time>
      </trkpt>
      <trkpt lat="46.37025" lon="2.503">
        <ele>300.3</ele>
        <time>2018-10-14T08:51:15Z</time>
      </trkpt>
      <trkpt lat="46.3702" lon="2.50303">
        <ele>300.5</ele>
        <time>2018-10-14T08:51:16Z</time>
      </trkpt>
      <trkpt lat="46.37016" lon="2.50306">
        <ele>300.7</ele>
        <time>2018-10-14T08:51:17Z</time>
      </trkpt>
      <trkpt lat="46.37012" lon="2.50308">
        <ele>301.1</ele>
        <time>2018-10-14T08:51:18Z</time>
      </trkpt>
      <trkpt lat="46.37007" lon="2.50311">
        <ele>301.4</ele>
        <time>2018-10-14T08:51:19Z</time>
      </trkpt>
      <trkpt lat="46.37003" lon="2.50312">
        <ele>301.5</ele>
        <time>2018-10-14T08:51:20Z</time>
      </trkpt>
      <trkpt lat="46.36999" lon="2.50313">
        <ele>301.6</ele>
        <time>2018-10-14T08:51:21Z</time>
      </trkpt>
      <trkpt lat="46.3699" lon="2.50315">
        <ele>301.5</ele>
        <time>2018-10-14T08:51:23Z</time>
      </trkpt>
      <trkpt lat="46.36981" lon="2.50316">
        <ele>301.8</ele>
        <time>2018-10-14T08:51:25Z</time>
      </trkpt>
      <trkpt lat="46.36973" lon="2.50315">
        <ele>302.3</ele>
        <time>2018-10-14T08:51:27Z</time>
      </trkpt>
      <trkpt lat="46.36967" lon="2.50312">
        <ele>302.6</ele>
        <time>2018-10-14T08:51:29Z</time>
      </trkpt>
      <trkpt lat="46.36962" lon="2.50306">
        <ele>302.6</ele>
        <time>2018-10-14T08:51:31Z</time>
      </trkpt>
      <trkpt lat="46.36956" lon="2.50301">
        <ele>302.8</ele>
        <time>2018-10-14T08:51:33Z</time>
      </trkpt>
      <trkpt lat="46.3695" lon="2.50302">
        <ele>302.6</ele>
        <time>2018-10-14T08:51:35Z</time>
      </trkpt>
      <trkpt lat="46.36945" lon="2.50309">
        <ele>302.7</ele>
        <time>2018-10-14T08:51:37Z</time>
      </trkpt>
      <trkpt lat="46.36942" lon="2.50318">
        <ele>302.7</ele>
        <time>2018-10-14T08:51:39Z</time>
      </trkpt>
      <trkpt lat="46.36938" lon="2.50326">
        <ele>302.5</ele>
        <time>2018-10-14T08:51:41Z</time>
      </trkpt>
      <trkpt lat="46.36933" lon="2.50334">
        <ele>302.4</ele>
        <time>2018-10-14T08:51:43Z</time>
      </trkpt>
      <trkpt lat="46.36929" lon="2.50342">
        <ele>302.1</ele>
        <time>2018-10-14T08:51:45Z</time>
      </trkpt>
      <trkpt lat="46.36925" lon="2.50349">
        <ele>302.4</ele>
        <time>2018-10-14T08:51:47Z</time>
      </trkpt>
      <trkpt lat="46.3692" lon="2.50357">
        <ele>303</ele>
        <time>2018-10-14T08:51:49Z</time>
      </trkpt>
      <trkpt lat="46.36914" lon="2.50364">
        <ele>303.3</ele>
        <time>2018-10-14T08:51:51Z</time>
      </trkpt>
      <trkpt lat="46.36909" lon="2.5037">
        <ele>303.5</ele>
        <time>2018-10-14T08:51:53Z</time>
      </trkpt>
      <trkpt lat="46.36903" lon="2.50377">
        <ele>303.7</ele>
        <time>2018-10-14T08:51:55Z</time>
      </trkpt>
      <trkpt lat="46.36898" lon="2.50384">
        <ele>303.8</ele>
        <time>2018-10-14T08:51:57Z</time>
      </trkpt>
      <trkpt lat="46.36893" lon="2.50391">
        <ele>303.7</ele>
        <time>2018-10-14T08:51:59Z</time>
      </trkpt>
      <trkpt lat="46.36888" lon="2.50399">
        <ele>304.9</ele>
        <time>2018-10-14T08:52:01Z</time>
      </trkpt>
      <trkpt lat="46.36882" lon="2.50407">
        <ele>305.2</ele>
        <time>2018-10-14T08:52:03Z</time>
      </trkpt>
      <trkpt lat="46.36876" lon="2.50414">
        <ele>305.7</ele>
        <time>2018-10-14T08:52:05Z</time>
      </trkpt>
      <trkpt lat="46.36873" lon="2.50419">
        <ele>306</ele>
        <time>2018-10-14T08:52:06Z</time>
      </trkpt>
      <trkpt lat="46.36869" lon="2.50423">
        <ele>306.3</ele>
        <time>2018-10-14T08:52:07Z</time>
      </trkpt>
      <trkpt lat="46.36865" lon="2.50426">
        <ele>305.8</ele>
        <time>2018-10-14T08:52:08Z</time>
      </trkpt>
      <trkpt lat="46.36861" lon="2.5043">
        <ele>305.5</ele>
        <time>2018-10-14T08:52:09Z</time>
      </trkpt>
      <trkpt lat="46.3685" lon="2.50438">
        <ele>304.7</ele>
        <time>2018-10-14T08:52:12Z</time>
      </trkpt>
      <trkpt lat="46.36842" lon="2.5044">
        <ele>304.6</ele>
        <time>2018-10-14T08:52:14Z</time>
      </trkpt>
      <trkpt lat="46.36834" lon="2.50442">
        <ele>305.2</ele>
        <time>2018-10-14T08:52:16Z</time>
      </trkpt>
      <trkpt lat="46.36827" lon="2.50444">
        <ele>305.9</ele>
        <time>2018-10-14T08:52:18Z</time>
      </trkpt>
      <trkpt lat="46.36819" lon="2.50445">
        <ele>305.2</ele>
        <time>2018-10-14T08:52:20Z</time>
      </trkpt>
      <trkpt lat="46.36811" lon="2.50446">
        <ele>304.6</ele>
        <time>2018-10-14T08:52:22Z</time>
      </trkpt>
      <trkpt lat="46.36804" lon="2.50447">
        <ele>304.2</ele>
        <time>2018-10-14T08:52:24Z</time>
      </trkpt>
      <trkpt lat="46.36796" lon="2.50449">
        <ele>304</ele>
        <time>2018-10-14T08:52:26Z</time>
      </trkpt>
      <trkpt lat="46.36788" lon="2.50451">
        <ele>304.9</ele>
        <time>2018-10-14T08:52:28Z</time>
      </trkpt>
      <trkpt lat="46.3678" lon="2.50454">
        <ele>305.3</ele>
        <time>2018-10-14T08:52:30Z</time>
      </trkpt>
      <trkpt lat="46.36773" lon="2.50457">
        <ele>305.4</ele>
        <time>2018-10-14T08:52:32Z</time>
      </trkpt>
      <trkpt lat="46.36766" lon="2.50461">
        <ele>305.7</ele>
        <time>2018-10-14T08:52:34Z</time>
      </trkpt>
      <trkpt lat="46.36759" lon="2.50465">
        <ele>306.5</ele>
        <time>2018-10-14T08:52:36Z</time>
      </trkpt>
      <trkpt lat="46.36752" lon="2.50469">
        <ele>306.9</ele>
        <time>2018-10-14T08:52:38Z</time>
      </trkpt>
      <trkpt lat="46.36746" lon="2.50473">
        <ele>307.1</ele>
        <time>2018-10-14T08:52:40Z</time>
      </trkpt>
      <trkpt lat="46.36739" lon="2.50477">
        <ele>308.2</ele>
        <time>2018-10-14T08:52:42Z</time>
      </trkpt>
      <trkpt lat="46.36732" lon="2.50482">
        <ele>308.4</ele>
        <time>2018-10-14T08:52:44Z</time>
      </trkpt>
      <trkpt lat="46.36726" lon="2.50486">
        <ele>307.6</ele>
        <time>2018-10-14T08:52:46Z</time>
      </trkpt>
      <trkpt lat="46.36719" lon="2.50491">
        <ele>307.6</ele>
        <time>2018-10-14T08:52:48Z</time>
      </trkpt>
      <trkpt lat="46.36713" lon="2.50495">
        <ele>307.5</ele>
        <time>2018-10-14T08:52:50Z</time>
      </trkpt>
      <trkpt lat="46.36707" lon="2.50499">
        <ele>307.2</ele>
        <time>2018-10-14T08:52:52Z</time>
      </trkpt>
      <trkpt lat="46.36701" lon="2.50503">
        <ele>307.9</ele>
        <time>2018-10-14T08:52:54Z</time>
      </trkpt>
      <trkpt lat="46.36695" lon="2.50507">
        <ele>309.3</ele>
        <time>2018-10-14T08:52:56Z</time>
      </trkpt>
      <trkpt lat="46.36688" lon="2.5051">
        <ele>309.8</ele>
        <time>2018-10-14T08:52:58Z</time>
      </trkpt>
      <trkpt lat="46.36682" lon="2.50513">
        <ele>310.2</ele>
        <time>2018-10-14T08:53:00Z</time>
      </trkpt>
      <trkpt lat="46.36675" lon="2.50516">
        <ele>310.9</ele>
        <time>2018-10-14T08:53:02Z</time>
      </trkpt>
      <trkpt lat="46.36668" lon="2.50518">
        <ele>311.8</ele>
        <time>2018-10-14T08:53:04Z</time>
      </trkpt>
      <trkpt lat="46.36662" lon="2.50521">
        <ele>311.1</ele>
        <time>2018-10-14T08:53:06Z</time>
      </trkpt>
      <trkpt lat="46.36655" lon="2.50523">
        <ele>311</ele>
        <time>2018-10-14T08:53:08Z</time>
      </trkpt>
      <trkpt lat="46.36648" lon="2.50526">
        <ele>311.4</ele>
        <time>2018-10-14T08:53:10Z</time>
      </trkpt>
      <trkpt lat="46.36645" lon="2.50528">
        <ele>311.5</ele>
        <time>2018-10-14T08:53:11Z</time>
      </trkpt>
      <trkpt lat="46.36635" lon="2.50533">
        <ele>312.4</ele>
        <time>2018-10-14T08:53:14Z</time>
      </trkpt>
      <trkpt lat="46.36629" lon="2.50538">
        <ele>312.4</ele>
        <time>2018-10-14T08:53:16Z</time>
      </trkpt>
      <trkpt lat="46.36623" lon="2.50544">
        <ele>312.3</ele>
        <time>2018-10-14T08:53:18Z</time>
      </trkpt>
      <trkpt lat="46.36617" lon="2.5055">
        <ele>312.6</ele>
        <time>2018-10-14T08:53:20Z</time>
      </trkpt>
      <trkpt lat="46.36611" lon="2.50556">
        <ele>312.9</ele>
        <time>2018-10-14T08:53:22Z</time>
      </trkpt>
      <trkpt lat="46.36605" lon="2.50563">
        <ele>313.7</ele>
        <time>2018-10-14T08:53:24Z</time>
      </trkpt>
      <trkpt lat="46.36599" lon="2.50569">
        <ele>314</ele>
        <time>2018-10-14T08:53:26Z</time>
      </trkpt>
      <trkpt lat="46.36593" lon="2.50576">
        <ele>314.4</ele>
        <time>2018-10-14T08:53:28Z</time>
      </trkpt>
      <trkpt lat="46.36588" lon="2.50583">
        <ele>314.9</ele>
        <time>2018-10-14T08:53:30Z</time>
      </trkpt>
      <trkpt lat="46.36582" lon="2.5059">
        <ele>315</ele>
        <time>2018-10-14T08:53:32Z</time>
      </trkpt>
      <trkpt lat="46.36576" lon="2.50597">
        <ele>314.8</ele>
        <time>2018-10-14T08:53:34Z</time>
      </trkpt>
      <trkpt lat="46.36569" lon="2.50604">
        <ele>314.9</ele>
        <time>2018-10-14T08:53:36Z</time>
      </trkpt>
      <trkpt lat="46.36563" lon="2.5061">
        <ele>314.7</ele>
        <time>2018-10-14T08:53:38Z</time>
      </trkpt>
      <trkpt lat="46.36557" lon="2.50618">
        <ele>315.1</ele>
        <time>2018-10-14T08:53:40Z</time>
      </trkpt>
      <trkpt lat="46.3655" lon="2.50625">
        <ele>315.6</ele>
        <time>2018-10-14T08:53:42Z</time>
      </trkpt>
      <trkpt lat="46.36544" lon="2.50632">
        <ele>315.8</ele>
        <time>2018-10-14T08:53:44Z</time>
      </trkpt>
      <trkpt lat="46.36537" lon="2.5064">
        <ele>315.4</ele>
        <time>2018-10-14T08:53:46Z</time>
      </trkpt>
      <trkpt lat="46.36531" lon="2.50648">
        <ele>315.1</ele>
        <time>2018-10-14T08:53:48Z</time>
      </trkpt>
      <trkpt lat="46.36524" lon="2.50655">
        <ele>314.8</ele>
        <time>2018-10-14T08:53:50Z</time>
      </trkpt>
      <trkpt lat="46.36518" lon="2.50663">
        <ele>314.5</ele>
        <time>2018-10-14T08:53:52Z</time>
      </trkpt>
      <trkpt lat="46.36511" lon="2.5067">
        <ele>314.4</ele>
        <time>2018-10-14T08:53:54Z</time>
      </trkpt>
      <trkpt lat="46.36505" lon="2.50677">
        <ele>314.4</ele>
        <time>2018-10-14T08:53:56Z</time>
      </trkpt>
      <trkpt lat="46.36498" lon="2.50682">
        <ele>313.8</ele>
        <time>2018-10-14T08:53:58Z</time>
      </trkpt>
      <trkpt lat="46.36491" lon="2.50687">
        <ele>314</ele>
        <time>2018-10-14T08:54:07Z</time>
      </trkpt>
      <trkpt lat="46.36486" lon="2.50694">
        <ele>313.7</ele>
        <time>2018-10-14T08:54:11Z</time>
      </trkpt>
      <trkpt lat="46.36484" lon="2.50697">
        <ele>313.1</ele>
        <time>2018-10-14T08:54:12Z</time>
      </trkpt>
      <trkpt lat="46.36475" lon="2.50701">
        <ele>312.6</ele>
        <time>2018-10-14T08:54:15Z</time>
      </trkpt>
      <trkpt lat="46.36467" lon="2.50701">
        <ele>312.3</ele>
        <time>2018-10-14T08:54:17Z</time>
      </trkpt>
      <trkpt lat="46.36461" lon="2.507">
        <ele>311.9</ele>
        <time>2018-10-14T08:54:19Z</time>
      </trkpt>
      <trkpt lat="46.36454" lon="2.50698">
        <ele>312.8</ele>
        <time>2018-10-14T08:54:21Z</time>
      </trkpt>
      <trkpt lat="46.36447" lon="2.50695">
        <ele>313.3</ele>
        <time>2018-10-14T08:54:23Z</time>
      </trkpt>
      <trkpt lat="46.36441" lon="2.50692">
        <ele>313.8</ele>
        <time>2018-10-14T08:54:25Z</time>
      </trkpt>
      <trkpt lat="46.36434" lon="2.50688">
        <ele>314.3</ele>
        <time>2018-10-14T08:54:27Z</time>
      </trkpt>
      <trkpt lat="46.36427" lon="2.50685">
        <ele>314.2</ele>
        <time>2018-10-14T08:54:29Z</time>
      </trkpt>
      <trkpt lat="46.36419" lon="2.50682">
        <ele>314.2</ele>
        <time>2018-10-14T08:54:31Z</time>
      </trkpt>
      <trkpt lat="46.3641" lon="2.50678">
        <ele>313.7</ele>
        <time>2018-10-14T08:54:33Z</time>
      </trkpt>
      <trkpt lat="46.36403" lon="2.50674">
        <ele>313.7</ele>
        <time>2018-10-14T08:54:35Z</time>
      </trkpt>
      <trkpt lat="46.36395" lon="2.50671">
        <ele>313.6</ele>
        <time>2018-10-14T08:54:37Z</time>
      </trkpt>
      <trkpt lat="46.36387" lon="2.50668">
        <ele>313.8</ele>
        <time>2018-10-14T08:54:39Z</time>
      </trkpt>
      <trkpt lat="46.3638" lon="2.50663">
        <ele>314.2</ele>
        <time>2018-10-14T08:54:41Z</time>
      </trkpt>
      <trkpt lat="46.36373" lon="2.50655">
        <ele>313.3</ele>
        <time>2018-10-14T08:54:43Z</time>
      </trkpt>
      <trkpt lat="46.3637" lon="2.50651">
        <ele>313</ele>
        <time>2018-10-14T08:54:44Z</time>
      </trkpt>
      <trkpt lat="46.36367" lon="2.50646">
        <ele>312.7</ele>
        <time>2018-10-14T08:54:45Z</time>
      </trkpt>
      <trkpt lat="46.36364" lon="2.5064">
        <ele>312.5</ele>
        <time>2018-10-14T08:54:46Z</time>
      </trkpt>
      <trkpt lat="46.36361" lon="2.50634">
        <ele>311.9</ele>
        <time>2018-10-14T08:54:47Z</time>
      </trkpt>
      <trkpt lat="46.36357" lon="2.50627">
        <ele>311.4</ele>
        <time>2018-10-14T08:54:48Z</time>
      </trkpt>
      <trkpt lat="46.36353" lon="2.5062">
        <ele>311.3</ele>
        <time>2018-10-14T08:54:49Z</time>
      </trkpt>
      <trkpt lat="46.36348" lon="2.50617">
        <ele>311.3</ele>
        <time>2018-10-14T08:54:50Z</time>
      </trkpt>
      <trkpt lat="46.36343" lon="2.50616">
        <ele>310.1</ele>
        <time>2018-10-14T08:54:51Z</time>
      </trkpt>
      <trkpt lat="46.36338" lon="2.5062">
        <ele>309.3</ele>
        <time>2018-10-14T08:54:52Z</time>
      </trkpt>
      <trkpt lat="46.36333" lon="2.50625">
        <ele>308.6</ele>
        <time>2018-10-14T08:54:53Z</time>
      </trkpt>
      <trkpt lat="46.36327" lon="2.50631">
        <ele>307.7</ele>
        <time>2018-10-14T08:54:54Z</time>
      </trkpt>
      <trkpt lat="46.36319" lon="2.50635">
        <ele>307</ele>
        <time>2018-10-14T08:54:55Z</time>
      </trkpt>
      <trkpt lat="46.36311" lon="2.50638">
        <ele>305.7</ele>
        <time>2018-10-14T08:54:56Z</time>
      </trkpt>
      <trkpt lat="46.36303" lon="2.50642">
        <ele>304.7</ele>
        <time>2018-10-14T08:54:57Z</time>
      </trkpt>
      <trkpt lat="46.36296" lon="2.50646">
        <ele>302.8</ele>
        <time>2018-10-14T08:54:58Z</time>
      </trkpt>
      <trkpt lat="46.36288" lon="2.5065">
        <ele>301.4</ele>
        <time>2018-10-14T08:54:59Z</time>
      </trkpt>
      <trkpt lat="46.3628" lon="2.50655">
        <ele>300.3</ele>
        <time>2018-10-14T08:55:00Z</time>
      </trkpt>
      <trkpt lat="46.36273" lon="2.50661">
        <ele>298.7</ele>
        <time>2018-10-14T08:55:01Z</time>
      </trkpt>
      <trkpt lat="46.36266" lon="2.50667">
        <ele>297.5</ele>
        <time>2018-10-14T08:55:02Z</time>
      </trkpt>
      <trkpt lat="46.36259" lon="2.50675">
        <ele>296.3</ele>
        <time>2018-10-14T08:55:03Z</time>
      </trkpt>
      <trkpt lat="46.36252" lon="2.50683">
        <ele>295.4</ele>
        <time>2018-10-14T08:55:04Z</time>
      </trkpt>
      <trkpt lat="46.36245" lon="2.50691">
        <ele>294</ele>
        <time>2018-10-14T08:55:05Z</time>
      </trkpt>
      <trkpt lat="46.36239" lon="2.50698">
        <ele>293</ele>
        <time>2018-10-14T08:55:06Z</time>
      </trkpt>
      <trkpt lat="46.36232" lon="2.50705">
        <ele>292.2</ele>
        <time>2018-10-14T08:55:07Z</time>
      </trkpt>
      <trkpt lat="46.36225" lon="2.50713">
        <ele>290.5</ele>
        <time>2018-10-14T08:55:08Z</time>
      </trkpt>
      <trkpt lat="46.3622" lon="2.50721">
        <ele>289.2</ele>
        <time>2018-10-14T08:55:09Z</time>
      </trkpt>
      <trkpt lat="46.36216" lon="2.5073">
        <ele>287</ele>
        <time>2018-10-14T08:55:10Z</time>
      </trkpt>
      <trkpt lat="46.36212" lon="2.50738">
        <ele>285.3</ele>
        <time>2018-10-14T08:55:11Z</time>
      </trkpt>
      <trkpt lat="46.36209" lon="2.50748">
        <ele>284</ele>
        <time>2018-10-14T08:55:12Z</time>
      </trkpt>
      <trkpt lat="46.36206" lon="2.50757">
        <ele>282.5</ele>
        <time>2018-10-14T08:55:13Z</time>
      </trkpt>
      <trkpt lat="46.36203" lon="2.50764">
        <ele>281.4</ele>
        <time>2018-10-14T08:55:14Z</time>
      </trkpt>
      <trkpt lat="46.362" lon="2.50776">
        <ele>279.7</ele>
        <time>2018-10-14T08:55:16Z</time>
      </trkpt>
      <trkpt lat="46.36199" lon="2.50788">
        <ele>277.7</ele>
        <time>2018-10-14T08:55:18Z</time>
      </trkpt>
      <trkpt lat="46.36199" lon="2.508">
        <ele>276</ele>
        <time>2018-10-14T08:55:20Z</time>
      </trkpt>
      <trkpt lat="46.362" lon="2.50807">
        <ele>275.2</ele>
        <time>2018-10-14T08:55:21Z</time>
      </trkpt>
      <trkpt lat="46.36205" lon="2.50816">
        <ele>273.9</ele>
        <time>2018-10-14T08:55:23Z</time>
      </trkpt>
      <trkpt lat="46.3621" lon="2.50822">
        <ele>273</ele>
        <time>2018-10-14T08:55:26Z</time>
      </trkpt>
      <trkpt lat="46.36215" lon="2.50828">
        <ele>272</ele>
        <time>2018-10-14T08:55:28Z</time>
      </trkpt>
      <trkpt lat="46.36219" lon="2.50839">
        <ele>270</ele>
        <time>2018-10-14T08:55:32Z</time>
      </trkpt>
      <trkpt lat="46.36215" lon="2.5085">
        <ele>269.3</ele>
        <time>2018-10-14T08:55:38Z</time>
      </trkpt>
      <trkpt lat="46.36212" lon="2.5086">
        <ele>270.8</ele>
        <time>2018-10-14T08:55:44Z</time>
      </trkpt>
      <trkpt lat="46.36206" lon="2.50869">
        <ele>272.4</ele>
        <time>2018-10-14T08:55:51Z</time>
      </trkpt>
      <trkpt lat="46.36199" lon="2.50875">
        <ele>272.8</ele>
        <time>2018-10-14T08:56:00Z</time>
      </trkpt>
      <trkpt lat="46.3619" lon="2.50878">
        <ele>273.4</ele>
        <time>2018-10-14T08:56:06Z</time>
      </trkpt>
      <trkpt lat="46.36182" lon="2.50878">
        <ele>275</ele>
        <time>2018-10-14T08:56:12Z</time>
      </trkpt>
      <trkpt lat="46.36173" lon="2.50877">
        <ele>275.5</ele>
        <time>2018-10-14T08:56:17Z</time>
      </trkpt>
      <trkpt lat="46.36172" lon="2.50876">
        <ele>276</ele>
        <time>2018-10-14T08:56:18Z</time>
      </trkpt>
      <trkpt lat="46.36158" lon="2.50875">
        <ele>277.6</ele>
        <time>2018-10-14T08:56:24Z</time>
      </trkpt>
      <trkpt lat="46.36151" lon="2.50875">
        <ele>277.7</ele>
        <time>2018-10-14T08:56:27Z</time>
      </trkpt>
      <trkpt lat="46.36142" lon="2.50875">
        <ele>277.3</ele>
        <time>2018-10-14T08:56:30Z</time>
      </trkpt>
      <trkpt lat="46.36136" lon="2.50875">
        <ele>277.3</ele>
        <time>2018-10-14T08:56:32Z</time>
      </trkpt>
      <trkpt lat="46.3613" lon="2.50877">
        <ele>277.4</ele>
        <time>2018-10-14T08:56:34Z</time>
      </trkpt>
      <trkpt lat="46.36124" lon="2.50879">
        <ele>277.8</ele>
        <time>2018-10-14T08:56:36Z</time>
      </trkpt>
      <trkpt lat="46.36118" lon="2.50881">
        <ele>278.2</ele>
        <time>2018-10-14T08:56:38Z</time>
      </trkpt>
      <trkpt lat="46.36112" lon="2.50883">
        <ele>278.1</ele>
        <time>2018-10-14T08:56:40Z</time>
      </trkpt>
      <trkpt lat="46.36105" lon="2.50887">
        <ele>277.7</ele>
        <time>2018-10-14T08:56:42Z</time>
      </trkpt>
      <trkpt lat="46.36098" lon="2.50892">
        <ele>278.1</ele>
        <time>2018-10-14T08:56:44Z</time>
      </trkpt>
      <trkpt lat="46.3609" lon="2.50898">
        <ele>278.4</ele>
        <time>2018-10-14T08:56:46Z</time>
      </trkpt>
      <trkpt lat="46.36087" lon="2.50902">
        <ele>278.5</ele>
        <time>2018-10-14T08:56:47Z</time>
      </trkpt>
      <trkpt lat="46.36083" lon="2.50907">
        <ele>278.4</ele>
        <time>2018-10-14T08:56:48Z</time>
      </trkpt>
      <trkpt lat="46.36077" lon="2.50916">
        <ele>278.1</ele>
        <time>2018-10-14T08:56:50Z</time>
      </trkpt>
      <trkpt lat="46.36072" lon="2.50924">
        <ele>278</ele>
        <time>2018-10-14T08:56:52Z</time>
      </trkpt>
      <trkpt lat="46.36067" lon="2.50933">
        <ele>278.1</ele>
        <time>2018-10-14T08:56:54Z</time>
      </trkpt>
      <trkpt lat="46.36063" lon="2.5094">
        <ele>278.4</ele>
        <time>2018-10-14T08:56:56Z</time>
      </trkpt>
      <trkpt lat="46.3606" lon="2.50948">
        <ele>278.5</ele>
        <time>2018-10-14T08:56:58Z</time>
      </trkpt>
      <trkpt lat="46.36057" lon="2.50959">
        <ele>277.9</ele>
        <time>2018-10-14T08:57:01Z</time>
      </trkpt>
      <trkpt lat="46.36053" lon="2.5097">
        <ele>278.7</ele>
        <time>2018-10-14T08:57:04Z</time>
      </trkpt>
      <trkpt lat="46.3605" lon="2.50978">
        <ele>278.3</ele>
        <time>2018-10-14T08:57:06Z</time>
      </trkpt>
      <trkpt lat="46.36048" lon="2.50986">
        <ele>279</ele>
        <time>2018-10-14T08:57:08Z</time>
      </trkpt>
      <trkpt lat="46.36044" lon="2.50997">
        <ele>278.8</ele>
        <time>2018-10-14T08:57:11Z</time>
      </trkpt>
      <trkpt lat="46.36041" lon="2.51008">
        <ele>279.2</ele>
        <time>2018-10-14T08:57:14Z</time>
      </trkpt>
      <trkpt lat="46.36038" lon="2.51018">
        <ele>279.9</ele>
        <time>2018-10-14T08:57:17Z</time>
      </trkpt>
      <trkpt lat="46.36034" lon="2.51027">
        <ele>280.2</ele>
        <time>2018-10-14T08:57:20Z</time>
      </trkpt>
      <trkpt lat="46.36032" lon="2.5103">
        <ele>280.5</ele>
        <time>2018-10-14T08:57:21Z</time>
      </trkpt>
      <trkpt lat="46.36025" lon="2.51045">
        <ele>280.8</ele>
        <time>2018-10-14T08:57:26Z</time>
      </trkpt>
      <trkpt lat="46.3602" lon="2.51053">
        <ele>281</ele>
        <time>2018-10-14T08:57:29Z</time>
      </trkpt>
      <trkpt lat="46.36016" lon="2.51061">
        <ele>282.4</ele>
        <time>2018-10-14T08:57:32Z</time>
      </trkpt>
      <trkpt lat="46.3601" lon="2.5107">
        <ele>282.8</ele>
        <time>2018-10-14T08:57:36Z</time>
      </trkpt>
      <trkpt lat="46.36003" lon="2.51078">
        <ele>283.5</ele>
        <time>2018-10-14T08:57:40Z</time>
      </trkpt>
      <trkpt lat="46.35995" lon="2.51084">
        <ele>284.7</ele>
        <time>2018-10-14T08:57:44Z</time>
      </trkpt>
      <trkpt lat="46.35989" lon="2.5109">
        <ele>286.1</ele>
        <time>2018-10-14T08:57:48Z</time>
      </trkpt>
      <trkpt lat="46.35982" lon="2.51093">
        <ele>286.7</ele>
        <time>2018-10-14T08:57:51Z</time>
      </trkpt>
      <trkpt lat="46.35975" lon="2.51094">
        <ele>286.9</ele>
        <time>2018-10-14T08:57:54Z</time>
      </trkpt>
      <trkpt lat="46.35966" lon="2.51094">
        <ele>288</ele>
        <time>2018-10-14T08:57:58Z</time>
      </trkpt>
      <trkpt lat="46.35958" lon="2.51092">
        <ele>289.3</ele>
        <time>2018-10-14T08:58:02Z</time>
      </trkpt>
      <trkpt lat="46.35951" lon="2.51092">
        <ele>289.4</ele>
        <time>2018-10-14T08:58:05Z</time>
      </trkpt>
      <trkpt lat="46.3594" lon="2.51097">
        <ele>290</ele>
        <time>2018-10-14T08:58:09Z</time>
      </trkpt>
      <trkpt lat="46.35934" lon="2.51107">
        <ele>291.1</ele>
        <time>2018-10-14T08:58:14Z</time>
      </trkpt>
      <trkpt lat="46.35931" lon="2.51118">
        <ele>291.6</ele>
        <time>2018-10-14T08:58:18Z</time>
      </trkpt>
      <trkpt lat="46.35931" lon="2.51128">
        <ele>292.1</ele>
        <time>2018-10-14T08:58:21Z</time>
      </trkpt>
      <trkpt lat="46.35932" lon="2.51131">
        <ele>292.2</ele>
        <time>2018-10-14T08:58:22Z</time>
      </trkpt>
      <trkpt lat="46.35937" lon="2.51154">
        <ele>292</ele>
        <time>2018-10-14T08:58:28Z</time>
      </trkpt>
      <trkpt lat="46.3594" lon="2.51163">
        <ele>293.5</ele>
        <time>2018-10-14T08:58:31Z</time>
      </trkpt>
      <trkpt lat="46.35943" lon="2.51174">
        <ele>293.6</ele>
        <time>2018-10-14T08:58:34Z</time>
      </trkpt>
      <trkpt lat="46.35949" lon="2.51178">
        <ele>294.1</ele>
        <time>2018-10-14T08:58:37Z</time>
      </trkpt>
      <trkpt lat="46.35956" lon="2.51175">
        <ele>294.8</ele>
        <time>2018-10-14T08:58:40Z</time>
      </trkpt>
      <trkpt lat="46.35963" lon="2.5117">
        <ele>295.4</ele>
        <time>2018-10-14T08:58:43Z</time>
      </trkpt>
      <trkpt lat="46.35971" lon="2.51166">
        <ele>295.5</ele>
        <time>2018-10-14T08:58:46Z</time>
      </trkpt>
      <trkpt lat="46.35978" lon="2.5116">
        <ele>295.5</ele>
        <time>2018-10-14T08:58:49Z</time>
      </trkpt>
      <trkpt lat="46.35987" lon="2.51155">
        <ele>295.6</ele>
        <time>2018-10-14T08:58:52Z</time>
      </trkpt>
      <trkpt lat="46.35992" lon="2.51151">
        <ele>296.6</ele>
        <time>2018-10-14T08:58:54Z</time>
      </trkpt>
      <trkpt lat="46.35998" lon="2.51147">
        <ele>296.5</ele>
        <time>2018-10-14T08:58:56Z</time>
      </trkpt>
      <trkpt lat="46.36003" lon="2.51143">
        <ele>296.2</ele>
        <time>2018-10-14T08:58:58Z</time>
      </trkpt>
      <trkpt lat="46.36011" lon="2.51137">
        <ele>295.8</ele>
        <time>2018-10-14T08:59:01Z</time>
      </trkpt>
      <trkpt lat="46.36017" lon="2.51131">
        <ele>296.1</ele>
        <time>2018-10-14T08:59:04Z</time>
      </trkpt>
      <trkpt lat="46.36022" lon="2.51126">
        <ele>296.2</ele>
        <time>2018-10-14T08:59:07Z</time>
      </trkpt>
      <trkpt lat="46.36028" lon="2.5112">
        <ele>296.7</ele>
        <time>2018-10-14T08:59:10Z</time>
      </trkpt>
      <trkpt lat="46.36034" lon="2.51114">
        <ele>297.1</ele>
        <time>2018-10-14T08:59:13Z</time>
      </trkpt>
      <trkpt lat="46.3604" lon="2.51107">
        <ele>297.5</ele>
        <time>2018-10-14T08:59:16Z</time>
      </trkpt>
      <trkpt lat="46.36046" lon="2.51101">
        <ele>298</ele>
        <time>2018-10-14T08:59:19Z</time>
      </trkpt>
      <trkpt lat="46.36052" lon="2.51095">
        <ele>298.7</ele>
        <time>2018-10-14T08:59:22Z</time>
      </trkpt>
      <trkpt lat="46.36055" lon="2.51093">
        <ele>298.9</ele>
        <time>2018-10-14T08:59:23Z</time>
      </trkpt>
      <trkpt lat="46.36065" lon="2.51081">
        <ele>300.7</ele>
        <time>2018-10-14T08:59:28Z</time>
      </trkpt>
      <trkpt lat="46.36072" lon="2.51073">
        <ele>301.7</ele>
        <time>2018-10-14T08:59:32Z</time>
      </trkpt>
      <trkpt lat="46.36078" lon="2.51066">
        <ele>302.9</ele>
        <time>2018-10-14T08:59:35Z</time>
      </trkpt>
      <trkpt lat="46.36084" lon="2.51058">
        <ele>303.7</ele>
        <time>2018-10-14T08:59:38Z</time>
      </trkpt>
      <trkpt lat="46.3609" lon="2.51051">
        <ele>304.6</ele>
        <time>2018-10-14T08:59:41Z</time>
      </trkpt>
      <trkpt lat="46.36096" lon="2.51043">
        <ele>304.3</ele>
        <time>2018-10-14T08:59:44Z</time>
      </trkpt>
      <trkpt lat="46.36103" lon="2.51037">
        <ele>304.5</ele>
        <time>2018-10-14T08:59:47Z</time>
      </trkpt>
      <trkpt lat="46.36109" lon="2.5103">
        <ele>307</ele>
        <time>2018-10-14T08:59:50Z</time>
      </trkpt>
      <trkpt lat="46.36116" lon="2.51022">
        <ele>307.9</ele>
        <time>2018-10-14T08:59:53Z</time>
      </trkpt>
      <trkpt lat="46.36121" lon="2.51016">
        <ele>307.5</ele>
        <time>2018-10-14T08:59:55Z</time>
      </trkpt>
      <trkpt lat="46.36126" lon="2.51011">
        <ele>307.9</ele>
        <time>2018-10-14T08:59:57Z</time>
      </trkpt>
      <trkpt lat="46.36131" lon="2.51005">
        <ele>308.6</ele>
        <time>2018-10-14T08:59:59Z</time>
      </trkpt>
      <trkpt lat="46.36136" lon="2.50998">
        <ele>307.3</ele>
        <time>2018-10-14T09:00:01Z</time>
      </trkpt>
      <trkpt lat="46.36142" lon="2.50992">
        <ele>306.7</ele>
        <time>2018-10-14T09:00:03Z</time>
      </trkpt>
      <trkpt lat="46.36149" lon="2.50992">
        <ele>306.4</ele>
        <time>2018-10-14T09:00:05Z</time>
      </trkpt>
      <trkpt lat="46.36154" lon="2.50998">
        <ele>306.3</ele>
        <time>2018-10-14T09:00:07Z</time>
      </trkpt>
      <trkpt lat="46.36158" lon="2.51004">
        <ele>306.9</ele>
        <time>2018-10-14T09:00:09Z</time>
      </trkpt>
      <trkpt lat="46.36162" lon="2.51011">
        <ele>307.7</ele>
        <time>2018-10-14T09:00:11Z</time>
      </trkpt>
      <trkpt lat="46.36166" lon="2.51019">
        <ele>306.7</ele>
        <time>2018-10-14T09:00:13Z</time>
      </trkpt>
      <trkpt lat="46.36172" lon="2.51028">
        <ele>306</ele>
        <time>2018-10-14T09:00:15Z</time>
      </trkpt>
      <trkpt lat="46.36175" lon="2.51033">
        <ele>306.3</ele>
        <time>2018-10-14T09:00:16Z</time>
      </trkpt>
      <trkpt lat="46.36178" lon="2.51038">
        <ele>306.5</ele>
        <time>2018-10-14T09:00:17Z</time>
      </trkpt>
      <trkpt lat="46.36181" lon="2.51043">
        <ele>306.7</ele>
        <time>2018-10-14T09:00:18Z</time>
      </trkpt>
      <trkpt lat="46.36185" lon="2.51049">
        <ele>306.5</ele>
        <time>2018-10-14T09:00:19Z</time>
      </trkpt>
      <trkpt lat="46.36189" lon="2.51054">
        <ele>306.3</ele>
        <time>2018-10-14T09:00:20Z</time>
      </trkpt>
      <trkpt lat="46.36193" lon="2.5106">
        <ele>305.8</ele>
        <time>2018-10-14T09:00:21Z</time>
      </trkpt>
      <trkpt lat="46.36197" lon="2.51065">
        <ele>305.4</ele>
        <time>2018-10-14T09:00:22Z</time>
      </trkpt>
      <trkpt lat="46.36201" lon="2.51071">
        <ele>305</ele>
        <time>2018-10-14T09:00:23Z</time>
      </trkpt>
      <trkpt lat="46.36205" lon="2.51077">
        <ele>305</ele>
        <time>2018-10-14T09:00:24Z</time>
      </trkpt>
      <trkpt lat="46.36211" lon="2.51082">
        <ele>305</ele>
        <time>2018-10-14T09:00:25Z</time>
      </trkpt>
      <trkpt lat="46.36217" lon="2.51085">
        <ele>304.3</ele>
        <time>2018-10-14T09:00:26Z</time>
      </trkpt>
      <trkpt lat="46.36224" lon="2.51089">
        <ele>303.8</ele>
        <time>2018-10-14T09:00:27Z</time>
      </trkpt>
      <trkpt lat="46.3623" lon="2.51093">
        <ele>303.2</ele>
        <time>2018-10-14T09:00:28Z</time>
      </trkpt>
      <trkpt lat="46.36237" lon="2.51097">
        <ele>302.7</ele>
        <time>2018-10-14T09:00:29Z</time>
      </trkpt>
      <trkpt lat="46.36244" lon="2.51101">
        <ele>302.4</ele>
        <time>2018-10-14T09:00:30Z</time>
      </trkpt>
      <trkpt lat="46.36252" lon="2.51106">
        <ele>301.7</ele>
        <time>2018-10-14T09:00:31Z</time>
      </trkpt>
      <trkpt lat="46.3626" lon="2.51111">
        <ele>301.2</ele>
        <time>2018-10-14T09:00:32Z</time>
      </trkpt>
      <trkpt lat="46.36268" lon="2.51115">
        <ele>299.9</ele>
        <time>2018-10-14T09:00:33Z</time>
      </trkpt>
      <trkpt lat="46.36277" lon="2.51122">
        <ele>298.9</ele>
        <time>2018-10-14T09:00:34Z</time>
      </trkpt>
      <trkpt lat="46.36284" lon="2.51131">
        <ele>298.3</ele>
        <time>2018-10-14T09:00:35Z</time>
      </trkpt>
      <trkpt lat="46.36289" lon="2.51142">
        <ele>297.8</ele>
        <time>2018-10-14T09:00:36Z</time>
      </trkpt>
      <trkpt lat="46.36294" lon="2.51153">
        <ele>297.4</ele>
        <time>2018-10-14T09:00:37Z</time>
      </trkpt>
      <trkpt lat="46.36299" lon="2.51164">
        <ele>296.6</ele>
        <time>2018-10-14T09:00:38Z</time>
      </trkpt>
      <trkpt lat="46.36303" lon="2.51173">
        <ele>296.1</ele>
        <time>2018-10-14T09:00:39Z</time>
      </trkpt>
      <trkpt lat="46.36307" lon="2.51183">
        <ele>295.8</ele>
        <time>2018-10-14T09:00:40Z</time>
      </trkpt>
      <trkpt lat="46.3631" lon="2.51192">
        <ele>295.7</ele>
        <time>2018-10-14T09:00:41Z</time>
      </trkpt>
      <trkpt lat="46.36314" lon="2.512">
        <ele>295.5</ele>
        <time>2018-10-14T09:00:42Z</time>
      </trkpt>
      <trkpt lat="46.36317" lon="2.51209">
        <ele>295.7</ele>
        <time>2018-10-14T09:00:43Z</time>
      </trkpt>
      <trkpt lat="46.3632" lon="2.51217">
        <ele>295.8</ele>
        <time>2018-10-14T09:00:44Z</time>
      </trkpt>
      <trkpt lat="46.36323" lon="2.51225">
        <ele>295.3</ele>
        <time>2018-10-14T09:00:45Z</time>
      </trkpt>
      <trkpt lat="46.36326" lon="2.51233">
        <ele>294.9</ele>
        <time>2018-10-14T09:00:46Z</time>
      </trkpt>
      <trkpt lat="46.3633" lon="2.51242">
        <ele>294.5</ele>
        <time>2018-10-14T09:00:47Z</time>
      </trkpt>
      <trkpt lat="46.36333" lon="2.5125">
        <ele>294.2</ele>
        <time>2018-10-14T09:00:48Z</time>
      </trkpt>
      <trkpt lat="46.36336" lon="2.51258">
        <ele>293.9</ele>
        <time>2018-10-14T09:00:49Z</time>
      </trkpt>
      <trkpt lat="46.3634" lon="2.51266">
        <ele>294</ele>
        <time>2018-10-14T09:00:50Z</time>
      </trkpt>
      <trkpt lat="46.36343" lon="2.51274">
        <ele>294</ele>
        <time>2018-10-14T09:00:51Z</time>
      </trkpt>
      <trkpt lat="46.36347" lon="2.51282">
        <ele>293.8</ele>
        <time>2018-10-14T09:00:52Z</time>
      </trkpt>
      <trkpt lat="46.36352" lon="2.5129">
        <ele>293.7</ele>
        <time>2018-10-14T09:00:53Z</time>
      </trkpt>
      <trkpt lat="46.36357" lon="2.51298">
        <ele>293.1</ele>
        <time>2018-10-14T09:00:54Z</time>
      </trkpt>
      <trkpt lat="46.36362" lon="2.51307">
        <ele>292.6</ele>
        <time>2018-10-14T09:00:55Z</time>
      </trkpt>
      <trkpt lat="46.36368" lon="2.51315">
        <ele>292.3</ele>
        <time>2018-10-14T09:00:56Z</time>
      </trkpt>
      <trkpt lat="46.36374" lon="2.51324">
        <ele>291.3</ele>
        <time>2018-10-14T09:00:57Z</time>
      </trkpt>
      <trkpt lat="46.3638" lon="2.51333">
        <ele>290.5</ele>
        <time>2018-10-14T09:00:58Z</time>
      </trkpt>
      <trkpt lat="46.36387" lon="2.51343">
        <ele>290.2</ele>
        <time>2018-10-14T09:00:59Z</time>
      </trkpt>
      <trkpt lat="46.36393" lon="2.51353">
        <ele>289.9</ele>
        <time>2018-10-14T09:01:00Z</time>
      </trkpt>
      <trkpt lat="46.364" lon="2.51363">
        <ele>289</ele>
        <time>2018-10-14T09:01:01Z</time>
      </trkpt>
      <trkpt lat="46.36407" lon="2.51373">
        <ele>288.3</ele>
        <time>2018-10-14T09:01:02Z</time>
      </trkpt>
      <trkpt lat="46.36413" lon="2.51383">
        <ele>287.8</ele>
        <time>2018-10-14T09:01:03Z</time>
      </trkpt>
      <trkpt lat="46.36418" lon="2.51394">
        <ele>287</ele>
        <time>2018-10-14T09:01:04Z</time>
      </trkpt>
      <trkpt lat="46.3642" lon="2.51406">
        <ele>286.5</ele>
        <time>2018-10-14T09:01:05Z</time>
      </trkpt>
      <trkpt lat="46.36422" lon="2.51419">
        <ele>285.7</ele>
        <time>2018-10-14T09:01:06Z</time>
      </trkpt>
      <trkpt lat="46.36423" lon="2.51432">
        <ele>285.1</ele>
        <time>2018-10-14T09:01:07Z</time>
      </trkpt>
      <trkpt lat="46.36425" lon="2.51445">
        <ele>284.7</ele>
        <time>2018-10-14T09:01:08Z</time>
      </trkpt>
      <trkpt lat="46.36426" lon="2.51458">
        <ele>284.1</ele>
        <time>2018-10-14T09:01:09Z</time>
      </trkpt>
      <trkpt lat="46.36428" lon="2.51472">
        <ele>283.7</ele>
        <time>2018-10-14T09:01:10Z</time>
      </trkpt>
      <trkpt lat="46.36429" lon="2.51486">
        <ele>282.9</ele>
        <time>2018-10-14T09:01:11Z</time>
      </trkpt>
      <trkpt lat="46.36431" lon="2.515">
        <ele>282.2</ele>
        <time>2018-10-14T09:01:12Z</time>
      </trkpt>
      <trkpt lat="46.36432" lon="2.51513">
        <ele>281.7</ele>
        <time>2018-10-14T09:01:13Z</time>
      </trkpt>
      <trkpt lat="46.36434" lon="2.51526">
        <ele>281.3</ele>
        <time>2018-10-14T09:01:14Z</time>
      </trkpt>
      <trkpt lat="46.36435" lon="2.51539">
        <ele>281</ele>
        <time>2018-10-14T09:01:15Z</time>
      </trkpt>
      <trkpt lat="46.36436" lon="2.51551">
        <ele>280.3</ele>
        <time>2018-10-14T09:01:16Z</time>
      </trkpt>
      <trkpt lat="46.36437" lon="2.51563">
        <ele>279.8</ele>
        <time>2018-10-14T09:01:17Z</time>
      </trkpt>
      <trkpt lat="46.36438" lon="2.51573">
        <ele>279.6</ele>
        <time>2018-10-14T09:01:18Z</time>
      </trkpt>
      <trkpt lat="46.36439" lon="2.51581">
        <ele>279.4</ele>
        <time>2018-10-14T09:01:19Z</time>
      </trkpt>
      <trkpt lat="46.36441" lon="2.51592">
        <ele>278.2</ele>
        <time>2018-10-14T09:01:21Z</time>
      </trkpt>
      <trkpt lat="46.36444" lon="2.51596">
        <ele>277.7</ele>
        <time>2018-10-14T09:01:22Z</time>
      </trkpt>
      <trkpt lat="46.36448" lon="2.51599">
        <ele>277.9</ele>
        <time>2018-10-14T09:01:23Z</time>
      </trkpt>
      <trkpt lat="46.36454" lon="2.51602">
        <ele>278.1</ele>
        <time>2018-10-14T09:01:24Z</time>
      </trkpt>
      <trkpt lat="46.36459" lon="2.51605">
        <ele>277.5</ele>
        <time>2018-10-14T09:01:25Z</time>
      </trkpt>
      <trkpt lat="46.36466" lon="2.51609">
        <ele>277.1</ele>
        <time>2018-10-14T09:01:26Z</time>
      </trkpt>
      <trkpt lat="46.36473" lon="2.51613">
        <ele>276.7</ele>
        <time>2018-10-14T09:01:27Z</time>
      </trkpt>
      <trkpt lat="46.3648" lon="2.51618">
        <ele>275.8</ele>
        <time>2018-10-14T09:01:28Z</time>
      </trkpt>
      <trkpt lat="46.36487" lon="2.51622">
        <ele>275.1</ele>
        <time>2018-10-14T09:01:29Z</time>
      </trkpt>
      <trkpt lat="46.36494" lon="2.51625">
        <ele>274.6</ele>
        <time>2018-10-14T09:01:30Z</time>
      </trkpt>
      <trkpt lat="46.36501" lon="2.51629">
        <ele>274.2</ele>
        <time>2018-10-14T09:01:31Z</time>
      </trkpt>
      <trkpt lat="46.36508" lon="2.51634">
        <ele>273.1</ele>
        <time>2018-10-14T09:01:32Z</time>
      </trkpt>
      <trkpt lat="46.36516" lon="2.51639">
        <ele>272.3</ele>
        <time>2018-10-14T09:01:33Z</time>
      </trkpt>
      <trkpt lat="46.36525" lon="2.51644">
        <ele>271.6</ele>
        <time>2018-10-14T09:01:34Z</time>
      </trkpt>
      <trkpt lat="46.36534" lon="2.5165">
        <ele>271</ele>
        <time>2018-10-14T09:01:35Z</time>
      </trkpt>
      <trkpt lat="46.36543" lon="2.51655">
        <ele>270.6</ele>
        <time>2018-10-14T09:01:36Z</time>
      </trkpt>
      <trkpt lat="46.36553" lon="2.51661">
        <ele>269</ele>
        <time>2018-10-14T09:01:37Z</time>
      </trkpt>
      <trkpt lat="46.36563" lon="2.51667">
        <ele>267.8</ele>
        <time>2018-10-14T09:01:38Z</time>
      </trkpt>
      <trkpt lat="46.36574" lon="2.51673">
        <ele>267</ele>
        <time>2018-10-14T09:01:39Z</time>
      </trkpt>
      <trkpt lat="46.36585" lon="2.51679">
        <ele>266.1</ele>
        <time>2018-10-14T09:01:40Z</time>
      </trkpt>
      <trkpt lat="46.36596" lon="2.51686">
        <ele>265.4</ele>
        <time>2018-10-14T09:01:41Z</time>
      </trkpt>
      <trkpt lat="46.36607" lon="2.51692">
        <ele>264.4</ele>
        <time>2018-10-14T09:01:42Z</time>
      </trkpt>
      <trkpt lat="46.36618" lon="2.51698">
        <ele>263.5</ele>
        <time>2018-10-14T09:01:43Z</time>
      </trkpt>
      <trkpt lat="46.3663" lon="2.51705">
        <ele>261.8</ele>
        <time>2018-10-14T09:01:44Z</time>
      </trkpt>
      <trkpt lat="46.36641" lon="2.51711">
        <ele>260.6</ele>
        <time>2018-10-14T09:01:45Z</time>
      </trkpt>
      <trkpt lat="46.36653" lon="2.51717">
        <ele>259.6</ele>
        <time>2018-10-14T09:01:46Z</time>
      </trkpt>
      <trkpt lat="46.36664" lon="2.51723">
        <ele>258.2</ele>
        <time>2018-10-14T09:01:47Z</time>
      </trkpt>
      <trkpt lat="46.36674" lon="2.51728">
        <ele>257.1</ele>
        <time>2018-10-14T09:01:48Z</time>
      </trkpt>
      <trkpt lat="46.36683" lon="2.51734">
        <ele>255.7</ele>
        <time>2018-10-14T09:01:49Z</time>
      </trkpt>
      <trkpt lat="46.36691" lon="2.51741">
        <ele>254.6</ele>
        <time>2018-10-14T09:01:50Z</time>
      </trkpt>
      <trkpt lat="46.36698" lon="2.51747">
        <ele>253.3</ele>
        <time>2018-10-14T09:01:51Z</time>
      </trkpt>
      <trkpt lat="46.36706" lon="2.51754">
        <ele>252.3</ele>
        <time>2018-10-14T09:01:52Z</time>
      </trkpt>
      <trkpt lat="46.36714" lon="2.5176">
        <ele>251.6</ele>
        <time>2018-10-14T09:01:53Z</time>
      </trkpt>
      <trkpt lat="46.36722" lon="2.51766">
        <ele>250.8</ele>
        <time>2018-10-14T09:01:54Z</time>
      </trkpt>
      <trkpt lat="46.3673" lon="2.51771">
        <ele>250.2</ele>
        <time>2018-10-14T09:01:55Z</time>
      </trkpt>
      <trkpt lat="46.36737" lon="2.51774">
        <ele>249</ele>
        <time>2018-10-14T09:01:56Z</time>
      </trkpt>
      <trkpt lat="46.36744" lon="2.51775">
        <ele>248.2</ele>
        <time>2018-10-14T09:01:57Z</time>
      </trkpt>
      <trkpt lat="46.36749" lon="2.51774">
        <ele>248.1</ele>
        <time>2018-10-14T09:01:58Z</time>
      </trkpt>
      <trkpt lat="46.36753" lon="2.51763">
        <ele>248.2</ele>
        <time>2018-10-14T09:02:01Z</time>
      </trkpt>
      <trkpt lat="46.36753" lon="2.51753">
        <ele>248.2</ele>
        <time>2018-10-14T09:02:04Z</time>
      </trkpt>
      <trkpt lat="46.36754" lon="2.51741">
        <ele>248.8</ele>
        <time>2018-10-14T09:02:07Z</time>
      </trkpt>
      <trkpt lat="46.36753" lon="2.51729">
        <ele>250</ele>
        <time>2018-10-14T09:02:10Z</time>
      </trkpt>
      <trkpt lat="46.36751" lon="2.51719">
        <ele>251.1</ele>
        <time>2018-10-14T09:02:13Z</time>
      </trkpt>
      <trkpt lat="46.36748" lon="2.51708">
        <ele>252</ele>
        <time>2018-10-14T09:02:16Z</time>
      </trkpt>
      <trkpt lat="46.36744" lon="2.51698">
        <ele>252.7</ele>
        <time>2018-10-14T09:02:19Z</time>
      </trkpt>
      <trkpt lat="46.36739" lon="2.51689">
        <ele>252.7</ele>
        <time>2018-10-14T09:02:22Z</time>
      </trkpt>
      <trkpt lat="46.36734" lon="2.51682">
        <ele>252.9</ele>
        <time>2018-10-14T09:02:24Z</time>
      </trkpt>
      <trkpt lat="46.36731" lon="2.51675">
        <ele>253.2</ele>
        <time>2018-10-14T09:02:26Z</time>
      </trkpt>
      <trkpt lat="46.36729" lon="2.51672">
        <ele>253.2</ele>
        <time>2018-10-14T09:02:27Z</time>
      </trkpt>
      <trkpt lat="46.36721" lon="2.51659">
        <ele>253.6</ele>
        <time>2018-10-14T09:02:31Z</time>
      </trkpt>
      <trkpt lat="46.36717" lon="2.51648">
        <ele>254.4</ele>
        <time>2018-10-14T09:02:35Z</time>
      </trkpt>
      <trkpt lat="46.36714" lon="2.51637">
        <ele>256.7</ele>
        <time>2018-10-14T09:02:42Z</time>
      </trkpt>
      <trkpt lat="46.36711" lon="2.51625">
        <ele>259.2</ele>
        <time>2018-10-14T09:02:49Z</time>
      </trkpt>
      <trkpt lat="46.36708" lon="2.51615">
        <ele>260.5</ele>
        <time>2018-10-14T09:02:56Z</time>
      </trkpt>
      <trkpt lat="46.36704" lon="2.51604">
        <ele>261.9</ele>
        <time>2018-10-14T09:03:03Z</time>
      </trkpt>
      <trkpt lat="46.36703" lon="2.51592">
        <ele>263.7</ele>
        <time>2018-10-14T09:03:10Z</time>
      </trkpt>
      <trkpt lat="46.36703" lon="2.51581">
        <ele>264.3</ele>
        <time>2018-10-14T09:03:19Z</time>
      </trkpt>
      <trkpt lat="46.36709" lon="2.51573">
        <ele>264.8</ele>
        <time>2018-10-14T09:03:25Z</time>
      </trkpt>
      <trkpt lat="46.36714" lon="2.51567">
        <ele>264.3</ele>
        <time>2018-10-14T09:03:28Z</time>
      </trkpt>
      <trkpt lat="46.36716" lon="2.51565">
        <ele>264.8</ele>
        <time>2018-10-14T09:03:29Z</time>
      </trkpt>
      <trkpt lat="46.36728" lon="2.51554">
        <ele>266.5</ele>
        <time>2018-10-14T09:03:36Z</time>
      </trkpt>
      <trkpt lat="46.36734" lon="2.51547">
        <ele>267.9</ele>
        <time>2018-10-14T09:03:40Z</time>
      </trkpt>
      <trkpt lat="46.36742" lon="2.51542">
        <ele>268.8</ele>
        <time>2018-10-14T09:03:44Z</time>
      </trkpt>
      <trkpt lat="46.3675" lon="2.51535">
        <ele>269.8</ele>
        <time>2018-10-14T09:03:48Z</time>
      </trkpt>
      <trkpt lat="46.36756" lon="2.5153">
        <ele>269.5</ele>
        <time>2018-10-14T09:03:51Z</time>
      </trkpt>
      <trkpt lat="46.36763" lon="2.51524">
        <ele>269.2</ele>
        <time>2018-10-14T09:03:55Z</time>
      </trkpt>
      <trkpt lat="46.36769" lon="2.51517">
        <ele>270.6</ele>
        <time>2018-10-14T09:03:59Z</time>
      </trkpt>
      <trkpt lat="46.36776" lon="2.51511">
        <ele>271.6</ele>
        <time>2018-10-14T09:04:03Z</time>
      </trkpt>
      <trkpt lat="46.36782" lon="2.51506">
        <ele>272.6</ele>
        <time>2018-10-14T09:04:06Z</time>
      </trkpt>
      <trkpt lat="46.36788" lon="2.51502">
        <ele>272.7</ele>
        <time>2018-10-14T09:04:09Z</time>
      </trkpt>
      <trkpt lat="46.36796" lon="2.51496">
        <ele>273.8</ele>
        <time>2018-10-14T09:04:13Z</time>
      </trkpt>
      <trkpt lat="46.36802" lon="2.51492">
        <ele>273.4</ele>
        <time>2018-10-14T09:04:16Z</time>
      </trkpt>
      <trkpt lat="46.36808" lon="2.51486">
        <ele>274.3</ele>
        <time>2018-10-14T09:04:19Z</time>
      </trkpt>
      <trkpt lat="46.36814" lon="2.51478">
        <ele>274.9</ele>
        <time>2018-10-14T09:04:22Z</time>
      </trkpt>
      <trkpt lat="46.36819" lon="2.51471">
        <ele>275.3</ele>
        <time>2018-10-14T09:04:24Z</time>
      </trkpt>
      <trkpt lat="46.36824" lon="2.51465">
        <ele>275.3</ele>
        <time>2018-10-14T09:04:26Z</time>
      </trkpt>
      <trkpt lat="46.36829" lon="2.51458">
        <ele>274.5</ele>
        <time>2018-10-14T09:04:28Z</time>
      </trkpt>
      <trkpt lat="46.36834" lon="2.51452">
        <ele>274.3</ele>
        <time>2018-10-14T09:04:30Z</time>
      </trkpt>
      <trkpt lat="46.36836" lon="2.51449">
        <ele>274.5</ele>
        <time>2018-10-14T09:04:31Z</time>
      </trkpt>
      <trkpt lat="46.36844" lon="2.5144">
        <ele>274.6</ele>
        <time>2018-10-14T09:04:34Z</time>
      </trkpt>
      <trkpt lat="46.3685" lon="2.51431">
        <ele>275.5</ele>
        <time>2018-10-14T09:04:37Z</time>
      </trkpt>
      <trkpt lat="46.36856" lon="2.51423">
        <ele>276.6</ele>
        <time>2018-10-14T09:04:40Z</time>
      </trkpt>
      <trkpt lat="46.3686" lon="2.51417">
        <ele>276.7</ele>
        <time>2018-10-14T09:04:42Z</time>
      </trkpt>
      <trkpt lat="46.36865" lon="2.5141">
        <ele>276.5</ele>
        <time>2018-10-14T09:04:44Z</time>
      </trkpt>
      <trkpt lat="46.36869" lon="2.51405">
        <ele>276.9</ele>
        <time>2018-10-14T09:04:46Z</time>
      </trkpt>
      <trkpt lat="46.36874" lon="2.51399">
        <ele>277.4</ele>
        <time>2018-10-14T09:04:48Z</time>
      </trkpt>
      <trkpt lat="46.36879" lon="2.51393">
        <ele>277.3</ele>
        <time>2018-10-14T09:04:50Z</time>
      </trkpt>
      <trkpt lat="46.36884" lon="2.51385">
        <ele>277.4</ele>
        <time>2018-10-14T09:04:52Z</time>
      </trkpt>
      <trkpt lat="46.36889" lon="2.51378">
        <ele>277.3</ele>
        <time>2018-10-14T09:04:54Z</time>
      </trkpt>
      <trkpt lat="46.36895" lon="2.51371">
        <ele>277.2</ele>
        <time>2018-10-14T09:04:56Z</time>
      </trkpt>
      <trkpt lat="46.369" lon="2.51364">
        <ele>277.2</ele>
        <time>2018-10-14T09:04:58Z</time>
      </trkpt>
      <trkpt lat="46.36906" lon="2.51356">
        <ele>276.7</ele>
        <time>2018-10-14T09:05:00Z</time>
      </trkpt>
      <trkpt lat="46.36911" lon="2.51349">
        <ele>276.7</ele>
        <time>2018-10-14T09:05:02Z</time>
      </trkpt>
      <trkpt lat="46.36916" lon="2.51343">
        <ele>276.8</ele>
        <time>2018-10-14T09:05:04Z</time>
      </trkpt>
      <trkpt lat="46.36923" lon="2.51334">
        <ele>277</ele>
        <time>2018-10-14T09:05:07Z</time>
      </trkpt>
      <trkpt lat="46.3693" lon="2.51328">
        <ele>277.5</ele>
        <time>2018-10-14T09:05:10Z</time>
      </trkpt>
      <trkpt lat="46.36937" lon="2.5132">
        <ele>278.2</ele>
        <time>2018-10-14T09:05:13Z</time>
      </trkpt>
      <trkpt lat="46.36944" lon="2.51322">
        <ele>279</ele>
        <time>2018-10-14T09:05:16Z</time>
      </trkpt>
      <trkpt lat="46.36949" lon="2.51331">
        <ele>278.8</ele>
        <time>2018-10-14T09:05:19Z</time>
      </trkpt>
      <trkpt lat="46.36953" lon="2.51337">
        <ele>278.8</ele>
        <time>2018-10-14T09:05:21Z</time>
      </trkpt>
      <trkpt lat="46.36957" lon="2.51345">
        <ele>279.1</ele>
        <time>2018-10-14T09:05:23Z</time>
      </trkpt>
      <trkpt lat="46.36962" lon="2.51355">
        <ele>278.8</ele>
        <time>2018-10-14T09:05:25Z</time>
      </trkpt>
      <trkpt lat="46.36967" lon="2.51365">
        <ele>278.5</ele>
        <time>2018-10-14T09:05:27Z</time>
      </trkpt>
      <trkpt lat="46.36972" lon="2.51375">
        <ele>278.3</ele>
        <time>2018-10-14T09:05:29Z</time>
      </trkpt>
      <trkpt lat="46.36975" lon="2.51381">
        <ele>277.9</ele>
        <time>2018-10-14T09:05:30Z</time>
      </trkpt>
      <trkpt lat="46.36978" lon="2.51387">
        <ele>277.6</ele>
        <time>2018-10-14T09:05:31Z</time>
      </trkpt>
      <trkpt lat="46.36982" lon="2.51394">
        <ele>277</ele>
        <time>2018-10-14T09:05:32Z</time>
      </trkpt>
      <trkpt lat="46.36985" lon="2.51401">
        <ele>276.5</ele>
        <time>2018-10-14T09:05:33Z</time>
      </trkpt>
      <trkpt lat="46.36989" lon="2.51408">
        <ele>276.3</ele>
        <time>2018-10-14T09:05:34Z</time>
      </trkpt>
      <trkpt lat="46.36992" lon="2.51416">
        <ele>276.1</ele>
        <time>2018-10-14T09:05:35Z</time>
      </trkpt>
      <trkpt lat="46.36996" lon="2.51423">
        <ele>276</ele>
        <time>2018-10-14T09:05:36Z</time>
      </trkpt>
      <trkpt lat="46.37" lon="2.51431">
        <ele>276.3</ele>
        <time>2018-10-14T09:05:37Z</time>
      </trkpt>
      <trkpt lat="46.37003" lon="2.51439">
        <ele>276.5</ele>
        <time>2018-10-14T09:05:38Z</time>
      </trkpt>
      <trkpt lat="46.37007" lon="2.51447">
        <ele>275.9</ele>
        <time>2018-10-14T09:05:39Z</time>
      </trkpt>
      <trkpt lat="46.37011" lon="2.51456">
        <ele>275.5</ele>
        <time>2018-10-14T09:05:40Z</time>
      </trkpt>
      <trkpt lat="46.37015" lon="2.51465">
        <ele>275.4</ele>
        <time>2018-10-14T09:05:41Z</time>
      </trkpt>
      <trkpt lat="46.37018" lon="2.51473">
        <ele>275.3</ele>
        <time>2018-10-14T09:05:42Z</time>
      </trkpt>
      <trkpt lat="46.37022" lon="2.51481">
        <ele>275.2</ele>
        <time>2018-10-14T09:05:43Z</time>
      </trkpt>
      <trkpt lat="46.37027" lon="2.51488">
        <ele>274.8</ele>
        <time>2018-10-14T09:05:44Z</time>
      </trkpt>
      <trkpt lat="46.37032" lon="2.51492">
        <ele>274.5</ele>
        <time>2018-10-14T09:05:45Z</time>
      </trkpt>
      <trkpt lat="46.37038" lon="2.51493">
        <ele>274</ele>
        <time>2018-10-14T09:05:46Z</time>
      </trkpt>
      <trkpt lat="46.37043" lon="2.5149">
        <ele>273.6</ele>
        <time>2018-10-14T09:05:47Z</time>
      </trkpt>
      <trkpt lat="46.37047" lon="2.51487">
        <ele>273.3</ele>
        <time>2018-10-14T09:05:48Z</time>
      </trkpt>
      <trkpt lat="46.37051" lon="2.51483">
        <ele>273.5</ele>
        <time>2018-10-14T09:05:49Z</time>
      </trkpt>
      <trkpt lat="46.37055" lon="2.5148">
        <ele>273.7</ele>
        <time>2018-10-14T09:05:50Z</time>
      </trkpt>
      <trkpt lat="46.37063" lon="2.51474">
        <ele>274.4</ele>
        <time>2018-10-14T09:05:52Z</time>
      </trkpt>
      <trkpt lat="46.3707" lon="2.51468">
        <ele>274.3</ele>
        <time>2018-10-14T09:05:54Z</time>
      </trkpt>
      <trkpt lat="46.37078" lon="2.51462">
        <ele>274.4</ele>
        <time>2018-10-14T09:05:56Z</time>
      </trkpt>
      <trkpt lat="46.37085" lon="2.51456">
        <ele>274.8</ele>
        <time>2018-10-14T09:05:58Z</time>
      </trkpt>
      <trkpt lat="46.37092" lon="2.5145">
        <ele>275.5</ele>
        <time>2018-10-14T09:06:00Z</time>
      </trkpt>
      <trkpt lat="46.371" lon="2.51445">
        <ele>276.2</ele>
        <time>2018-10-14T09:06:02Z</time>
      </trkpt>
      <trkpt lat="46.37107" lon="2.51439">
        <ele>275.6</ele>
        <time>2018-10-14T09:06:04Z</time>
      </trkpt>
      <trkpt lat="46.37114" lon="2.51433">
        <ele>275.9</ele>
        <time>2018-10-14T09:06:06Z</time>
      </trkpt>
      <trkpt lat="46.37121" lon="2.51428">
        <ele>276.1</ele>
        <time>2018-10-14T09:06:08Z</time>
      </trkpt>
      <trkpt lat="46.37128" lon="2.51422">
        <ele>276.6</ele>
        <time>2018-10-14T09:06:10Z</time>
      </trkpt>
      <trkpt lat="46.37135" lon="2.51417">
        <ele>276.7</ele>
        <time>2018-10-14T09:06:12Z</time>
      </trkpt>
      <trkpt lat="46.37141" lon="2.51411">
        <ele>276.5</ele>
        <time>2018-10-14T09:06:14Z</time>
      </trkpt>
      <trkpt lat="46.37148" lon="2.51406">
        <ele>277.1</ele>
        <time>2018-10-14T09:06:16Z</time>
      </trkpt>
      <trkpt lat="46.37155" lon="2.514">
        <ele>277</ele>
        <time>2018-10-14T09:06:18Z</time>
      </trkpt>
      <trkpt lat="46.37162" lon="2.51394">
        <ele>277.8</ele>
        <time>2018-10-14T09:06:20Z</time>
      </trkpt>
      <trkpt lat="46.37169" lon="2.51389">
        <ele>277.7</ele>
        <time>2018-10-14T09:06:22Z</time>
      </trkpt>
      <trkpt lat="46.37176" lon="2.51383">
        <ele>277.2</ele>
        <time>2018-10-14T09:06:24Z</time>
      </trkpt>
      <trkpt lat="46.37183" lon="2.51377">
        <ele>277</ele>
        <time>2018-10-14T09:06:26Z</time>
      </trkpt>
      <trkpt lat="46.3719" lon="2.51371">
        <ele>277</ele>
        <time>2018-10-14T09:06:28Z</time>
      </trkpt>
      <trkpt lat="46.37197" lon="2.51365">
        <ele>277.8</ele>
        <time>2018-10-14T09:06:30Z</time>
      </trkpt>
      <trkpt lat="46.37205" lon="2.51359">
        <ele>276.5</ele>
        <time>2018-10-14T09:06:32Z</time>
      </trkpt>
      <trkpt lat="46.37208" lon="2.51356">
        <ele>276.1</ele>
        <time>2018-10-14T09:06:33Z</time>
      </trkpt>
      <trkpt lat="46.37216" lon="2.5135">
        <ele>277</ele>
        <time>2018-10-14T09:06:35Z</time>
      </trkpt>
      <trkpt lat="46.3722" lon="2.51346">
        <ele>276.8</ele>
        <time>2018-10-14T09:06:36Z</time>
      </trkpt>
      <trkpt lat="46.37225" lon="2.51343">
        <ele>276.6</ele>
        <time>2018-10-14T09:06:37Z</time>
      </trkpt>
      <trkpt lat="46.37229" lon="2.51339">
        <ele>276.8</ele>
        <time>2018-10-14T09:06:38Z</time>
      </trkpt>
      <trkpt lat="46.37233" lon="2.51336">
        <ele>277</ele>
        <time>2018-10-14T09:06:39Z</time>
      </trkpt>
      <trkpt lat="46.37238" lon="2.51332">
        <ele>277.1</ele>
        <time>2018-10-14T09:06:40Z</time>
      </trkpt>
      <trkpt lat="46.37243" lon="2.51328">
        <ele>276.9</ele>
        <time>2018-10-14T09:06:41Z</time>
      </trkpt>
      <trkpt lat="46.37248" lon="2.51324">
        <ele>276.7</ele>
        <time>2018-10-14T09:06:42Z</time>
      </trkpt>
      <trkpt lat="46.37252" lon="2.51319">
        <ele>276.7</ele>
        <time>2018-10-14T09:06:43Z</time>
      </trkpt>
      <trkpt lat="46.37257" lon="2.51314">
        <ele>276.8</ele>
        <time>2018-10-14T09:06:44Z</time>
      </trkpt>
      <trkpt lat="46.37262" lon="2.5131">
        <ele>276.1</ele>
        <time>2018-10-14T09:06:45Z</time>
      </trkpt>
      <trkpt lat="46.37267" lon="2.51306">
        <ele>275.6</ele>
        <time>2018-10-14T09:06:46Z</time>
      </trkpt>
      <trkpt lat="46.37272" lon="2.51303">
        <ele>275.2</ele>
        <time>2018-10-14T09:06:47Z</time>
      </trkpt>
      <trkpt lat="46.37277" lon="2.51301">
        <ele>274.6</ele>
        <time>2018-10-14T09:06:48Z</time>
      </trkpt>
      <trkpt lat="46.37284" lon="2.513">
        <ele>274.4</ele>
        <time>2018-10-14T09:06:50Z</time>
      </trkpt>
      <trkpt lat="46.37291" lon="2.51306">
        <ele>274.7</ele>
        <time>2018-10-14T09:06:53Z</time>
      </trkpt>
      <trkpt lat="46.37298" lon="2.51313">
        <ele>274.5</ele>
        <time>2018-10-14T09:06:55Z</time>
      </trkpt>
      <trkpt lat="46.37305" lon="2.51321">
        <ele>274.1</ele>
        <time>2018-10-14T09:06:57Z</time>
      </trkpt>
      <trkpt lat="46.37308" lon="2.51325">
        <ele>273.8</ele>
        <time>2018-10-14T09:06:58Z</time>
      </trkpt>
      <trkpt lat="46.37312" lon="2.51329">
        <ele>273.5</ele>
        <time>2018-10-14T09:06:59Z</time>
      </trkpt>
      <trkpt lat="46.37315" lon="2.51333">
        <ele>273.3</ele>
        <time>2018-10-14T09:07:00Z</time>
      </trkpt>
      <trkpt lat="46.37319" lon="2.51338">
        <ele>273.1</ele>
        <time>2018-10-14T09:07:01Z</time>
      </trkpt>
      <trkpt lat="46.37323" lon="2.51343">
        <ele>272.6</ele>
        <time>2018-10-14T09:07:02Z</time>
      </trkpt>
      <trkpt lat="46.37328" lon="2.51347">
        <ele>272.2</ele>
        <time>2018-10-14T09:07:03Z</time>
      </trkpt>
      <trkpt lat="46.37332" lon="2.51352">
        <ele>271.9</ele>
        <time>2018-10-14T09:07:04Z</time>
      </trkpt>
      <trkpt lat="46.37337" lon="2.51357">
        <ele>271.9</ele>
        <time>2018-10-14T09:07:05Z</time>
      </trkpt>
      <trkpt lat="46.37342" lon="2.51363">
        <ele>272</ele>
        <time>2018-10-14T09:07:06Z</time>
      </trkpt>
      <trkpt lat="46.37346" lon="2.51367">
        <ele>271.8</ele>
        <time>2018-10-14T09:07:07Z</time>
      </trkpt>
      <trkpt lat="46.37351" lon="2.51373">
        <ele>271.6</ele>
        <time>2018-10-14T09:07:08Z</time>
      </trkpt>
      <trkpt lat="46.37356" lon="2.51379">
        <ele>271.3</ele>
        <time>2018-10-14T09:07:09Z</time>
      </trkpt>
      <trkpt lat="46.37361" lon="2.51384">
        <ele>271</ele>
        <time>2018-10-14T09:07:10Z</time>
      </trkpt>
      <trkpt lat="46.37366" lon="2.51389">
        <ele>270.9</ele>
        <time>2018-10-14T09:07:11Z</time>
      </trkpt>
      <trkpt lat="46.3737" lon="2.51395">
        <ele>270.4</ele>
        <time>2018-10-14T09:07:12Z</time>
      </trkpt>
      <trkpt lat="46.37375" lon="2.514">
        <ele>270</ele>
        <time>2018-10-14T09:07:13Z</time>
      </trkpt>
      <trkpt lat="46.37378" lon="2.51406">
        <ele>269.5</ele>
        <time>2018-10-14T09:07:14Z</time>
      </trkpt>
      <trkpt lat="46.37382" lon="2.5141">
        <ele>269</ele>
        <time>2018-10-14T09:07:15Z</time>
      </trkpt>
      <trkpt lat="46.37387" lon="2.51416">
        <ele>268.8</ele>
        <time>2018-10-14T09:07:16Z</time>
      </trkpt>
      <trkpt lat="46.37391" lon="2.51422">
        <ele>268.6</ele>
        <time>2018-10-14T09:07:17Z</time>
      </trkpt>
      <trkpt lat="46.37396" lon="2.51427">
        <ele>268.5</ele>
        <time>2018-10-14T09:07:18Z</time>
      </trkpt>
      <trkpt lat="46.374" lon="2.51432">
        <ele>268.4</ele>
        <time>2018-10-14T09:07:19Z</time>
      </trkpt>
      <trkpt lat="46.37406" lon="2.51435">
        <ele>268.3</ele>
        <time>2018-10-14T09:07:20Z</time>
      </trkpt>
      <trkpt lat="46.37412" lon="2.51435">
        <ele>268.3</ele>
        <time>2018-10-14T09:07:21Z</time>
      </trkpt>
      <trkpt lat="46.37417" lon="2.51434">
        <ele>268.3</ele>
        <time>2018-10-14T09:07:22Z</time>
      </trkpt>
      <trkpt lat="46.37423" lon="2.51433">
        <ele>268.3</ele>
        <time>2018-10-14T09:07:23Z</time>
      </trkpt>
      <trkpt lat="46.3743" lon="2.51432">
        <ele>267.7</ele>
        <time>2018-10-14T09:07:24Z</time>
      </trkpt>
      <trkpt lat="46.37436" lon="2.51433">
        <ele>267.3</ele>
        <time>2018-10-14T09:07:25Z</time>
      </trkpt>
      <trkpt lat="46.37442" lon="2.51437">
        <ele>266.1</ele>
        <time>2018-10-14T09:07:26Z</time>
      </trkpt>
      <trkpt lat="46.37446" lon="2.51444">
        <ele>265.2</ele>
        <time>2018-10-14T09:07:27Z</time>
      </trkpt>
      <trkpt lat="46.3745" lon="2.51451">
        <ele>264.8</ele>
        <time>2018-10-14T09:07:28Z</time>
      </trkpt>
      <trkpt lat="46.37454" lon="2.51459">
        <ele>264.5</ele>
        <time>2018-10-14T09:07:29Z</time>
      </trkpt>
      <trkpt lat="46.37458" lon="2.51467">
        <ele>264.2</ele>
        <time>2018-10-14T09:07:30Z</time>
      </trkpt>
      <trkpt lat="46.37462" lon="2.51474">
        <ele>264.4</ele>
        <time>2018-10-14T09:07:31Z</time>
      </trkpt>
      <trkpt lat="46.37466" lon="2.51482">
        <ele>264.6</ele>
        <time>2018-10-14T09:07:32Z</time>
      </trkpt>
      <trkpt lat="46.3747" lon="2.5149">
        <ele>264.1</ele>
        <time>2018-10-14T09:07:33Z</time>
      </trkpt>
      <trkpt lat="46.37474" lon="2.51499">
        <ele>263.8</ele>
        <time>2018-10-14T09:07:34Z</time>
      </trkpt>
      <trkpt lat="46.37478" lon="2.51507">
        <ele>263.8</ele>
        <time>2018-10-14T09:07:35Z</time>
      </trkpt>
      <trkpt lat="46.37482" lon="2.51515">
        <ele>263.9</ele>
        <time>2018-10-14T09:07:36Z</time>
      </trkpt>
      <trkpt lat="46.37486" lon="2.51524">
        <ele>263.9</ele>
        <time>2018-10-14T09:07:37Z</time>
      </trkpt>
      <trkpt lat="46.3749" lon="2.51532">
        <ele>263.1</ele>
        <time>2018-10-14T09:07:38Z</time>
      </trkpt>
      <trkpt lat="46.37494" lon="2.51541">
        <ele>262.6</ele>
        <time>2018-10-14T09:07:39Z</time>
      </trkpt>
      <trkpt lat="46.37497" lon="2.51549">
        <ele>261.9</ele>
        <time>2018-10-14T09:07:40Z</time>
      </trkpt>
      <trkpt lat="46.375" lon="2.51558">
        <ele>261.4</ele>
        <time>2018-10-14T09:07:41Z</time>
      </trkpt>
      <trkpt lat="46.37504" lon="2.51564">
        <ele>261</ele>
        <time>2018-10-14T09:07:42Z</time>
      </trkpt>
      <trkpt lat="46.37509" lon="2.51568">
        <ele>261.4</ele>
        <time>2018-10-14T09:07:43Z</time>
      </trkpt>
      <trkpt lat="46.37515" lon="2.5157">
        <ele>261.7</ele>
        <time>2018-10-14T09:07:44Z</time>
      </trkpt>
      <trkpt lat="46.3752" lon="2.5157">
        <ele>261.7</ele>
        <time>2018-10-14T09:07:45Z</time>
      </trkpt>
      <trkpt lat="46.37525" lon="2.5157">
        <ele>261.6</ele>
        <time>2018-10-14T09:07:46Z</time>
      </trkpt>
      <trkpt lat="46.37531" lon="2.5157">
        <ele>261.4</ele>
        <time>2018-10-14T09:07:47Z</time>
      </trkpt>
      <trkpt lat="46.37536" lon="2.51571">
        <ele>261.2</ele>
        <time>2018-10-14T09:07:48Z</time>
      </trkpt>
      <trkpt lat="46.37541" lon="2.51571">
        <ele>261.1</ele>
        <time>2018-10-14T09:07:49Z</time>
      </trkpt>
      <trkpt lat="46.37547" lon="2.51571">
        <ele>260.8</ele>
        <time>2018-10-14T09:07:50Z</time>
      </trkpt>
      <trkpt lat="46.37552" lon="2.51569">
        <ele>260.5</ele>
        <time>2018-10-14T09:07:51Z</time>
      </trkpt>
      <trkpt lat="46.37557" lon="2.51568">
        <ele>260.7</ele>
        <time>2018-10-14T09:07:52Z</time>
      </trkpt>
      <trkpt lat="46.37563" lon="2.51566">
        <ele>260.9</ele>
        <time>2018-10-14T09:07:53Z</time>
      </trkpt>
      <trkpt lat="46.37568" lon="2.51565">
        <ele>260.9</ele>
        <time>2018-10-14T09:07:54Z</time>
      </trkpt>
      <trkpt lat="46.37574" lon="2.51563">
        <ele>260.8</ele>
        <time>2018-10-14T09:07:55Z</time>
      </trkpt>
      <trkpt lat="46.37579" lon="2.51562">
        <ele>260.8</ele>
        <time>2018-10-14T09:07:56Z</time>
      </trkpt>
      <trkpt lat="46.37585" lon="2.5156">
        <ele>260.8</ele>
        <time>2018-10-14T09:07:57Z</time>
      </trkpt>
      <trkpt lat="46.37591" lon="2.51557">
        <ele>260.7</ele>
        <time>2018-10-14T09:07:58Z</time>
      </trkpt>
      <trkpt lat="46.37596" lon="2.51553">
        <ele>260.6</ele>
        <time>2018-10-14T09:07:59Z</time>
      </trkpt>
      <trkpt lat="46.37601" lon="2.5155">
        <ele>260.5</ele>
        <time>2018-10-14T09:08:00Z</time>
      </trkpt>
      <trkpt lat="46.37606" lon="2.51547">
        <ele>260.4</ele>
        <time>2018-10-14T09:08:01Z</time>
      </trkpt>
      <trkpt lat="46.37611" lon="2.51543">
        <ele>260.3</ele>
        <time>2018-10-14T09:08:02Z</time>
      </trkpt>
      <trkpt lat="46.37616" lon="2.51539">
        <ele>260.3</ele>
        <time>2018-10-14T09:08:03Z</time>
      </trkpt>
      <trkpt lat="46.37621" lon="2.51536">
        <ele>260.2</ele>
        <time>2018-10-14T09:08:04Z</time>
      </trkpt>
      <trkpt lat="46.37624" lon="2.51531">
        <ele>260.2</ele>
        <time>2018-10-14T09:08:05Z</time>
      </trkpt>
      <trkpt lat="46.37629" lon="2.51522">
        <ele>260.7</ele>
        <time>2018-10-14T09:08:07Z</time>
      </trkpt>
      <trkpt lat="46.37633" lon="2.51512">
        <ele>260.5</ele>
        <time>2018-10-14T09:08:09Z</time>
      </trkpt>
      <trkpt lat="46.3764" lon="2.51504">
        <ele>260.2</ele>
        <time>2018-10-14T09:08:11Z</time>
      </trkpt>
      <trkpt lat="46.37648" lon="2.515">
        <ele>260.5</ele>
        <time>2018-10-14T09:08:13Z</time>
      </trkpt>
      <trkpt lat="46.37655" lon="2.51496">
        <ele>260.9</ele>
        <time>2018-10-14T09:08:15Z</time>
      </trkpt>
      <trkpt lat="46.37664" lon="2.51492">
        <ele>260.3</ele>
        <time>2018-10-14T09:08:17Z</time>
      </trkpt>
      <trkpt lat="46.37668" lon="2.5149">
        <ele>260</ele>
        <time>2018-10-14T09:08:18Z</time>
      </trkpt>
      <trkpt lat="46.37673" lon="2.51488">
        <ele>259.8</ele>
        <time>2018-10-14T09:08:19Z</time>
      </trkpt>
      <trkpt lat="46.37678" lon="2.51485">
        <ele>259.7</ele>
        <time>2018-10-14T09:08:20Z</time>
      </trkpt>
      <trkpt lat="46.37683" lon="2.51482">
        <ele>259.6</ele>
        <time>2018-10-14T09:08:21Z</time>
      </trkpt>
      <trkpt lat="46.37688" lon="2.5148">
        <ele>259.6</ele>
        <time>2018-10-14T09:08:22Z</time>
      </trkpt>
      <trkpt lat="46.37693" lon="2.51478">
        <ele>259.5</ele>
        <time>2018-10-14T09:08:23Z</time>
      </trkpt>
      <trkpt lat="46.37698" lon="2.51475">
        <ele>259.5</ele>
        <time>2018-10-14T09:08:24Z</time>
      </trkpt>
      <trkpt lat="46.37703" lon="2.51475">
        <ele>259.2</ele>
        <time>2018-10-14T09:08:25Z</time>
      </trkpt>
      <trkpt lat="46.37708" lon="2.51473">
        <ele>258.9</ele>
        <time>2018-10-14T09:08:26Z</time>
      </trkpt>
      <trkpt lat="46.37713" lon="2.5147">
        <ele>258.7</ele>
        <time>2018-10-14T09:08:27Z</time>
      </trkpt>
      <trkpt lat="46.37718" lon="2.51468">
        <ele>258.7</ele>
        <time>2018-10-14T09:08:28Z</time>
      </trkpt>
      <trkpt lat="46.37723" lon="2.51464">
        <ele>258.6</ele>
        <time>2018-10-14T09:08:29Z</time>
      </trkpt>
      <trkpt lat="46.37729" lon="2.51461">
        <ele>258.3</ele>
        <time>2018-10-14T09:08:30Z</time>
      </trkpt>
      <trkpt lat="46.37734" lon="2.51458">
        <ele>258.1</ele>
        <time>2018-10-14T09:08:31Z</time>
      </trkpt>
      <trkpt lat="46.3774" lon="2.51455">
        <ele>258.3</ele>
        <time>2018-10-14T09:08:32Z</time>
      </trkpt>
      <trkpt lat="46.37746" lon="2.51452">
        <ele>258.5</ele>
        <time>2018-10-14T09:08:33Z</time>
      </trkpt>
      <trkpt lat="46.37752" lon="2.51449">
        <ele>258.6</ele>
        <time>2018-10-14T09:08:34Z</time>
      </trkpt>
      <trkpt lat="46.37758" lon="2.51446">
        <ele>258.1</ele>
        <time>2018-10-14T09:08:35Z</time>
      </trkpt>
      <trkpt lat="46.37764" lon="2.51444">
        <ele>257.7</ele>
        <time>2018-10-14T09:08:36Z</time>
      </trkpt>
      <trkpt lat="46.3777" lon="2.5144">
        <ele>257.3</ele>
        <time>2018-10-14T09:08:37Z</time>
      </trkpt>
      <trkpt lat="46.37776" lon="2.51435">
        <ele>257</ele>
        <time>2018-10-14T09:08:38Z</time>
      </trkpt>
      <trkpt lat="46.37782" lon="2.51429">
        <ele>256.3</ele>
        <time>2018-10-14T09:08:39Z</time>
      </trkpt>
      <trkpt lat="46.37788" lon="2.51423">
        <ele>255.8</ele>
        <time>2018-10-14T09:08:40Z</time>
      </trkpt>
      <trkpt lat="46.37793" lon="2.51417">
        <ele>255.5</ele>
        <time>2018-10-14T09:08:41Z</time>
      </trkpt>
      <trkpt lat="46.37799" lon="2.5141">
        <ele>255.2</ele>
        <time>2018-10-14T09:08:42Z</time>
      </trkpt>
      <trkpt lat="46.37804" lon="2.51403">
        <ele>255</ele>
        <time>2018-10-14T09:08:43Z</time>
      </trkpt>
      <trkpt lat="46.37809" lon="2.51396">
        <ele>254.8</ele>
        <time>2018-10-14T09:08:44Z</time>
      </trkpt>
      <trkpt lat="46.37813" lon="2.51388">
        <ele>254.6</ele>
        <time>2018-10-14T09:08:45Z</time>
      </trkpt>
      <trkpt lat="46.37816" lon="2.5138">
        <ele>254.4</ele>
        <time>2018-10-14T09:08:46Z</time>
      </trkpt>
      <trkpt lat="46.3782" lon="2.51372">
        <ele>254.2</ele>
        <time>2018-10-14T09:08:47Z</time>
      </trkpt>
      <trkpt lat="46.37823" lon="2.51364">
        <ele>254.1</ele>
        <time>2018-10-14T09:08:48Z</time>
      </trkpt>
      <trkpt lat="46.37827" lon="2.51357">
        <ele>254</ele>
        <time>2018-10-14T09:08:49Z</time>
      </trkpt>
      <trkpt lat="46.3783" lon="2.5135">
        <ele>254</ele>
        <time>2018-10-14T09:08:50Z</time>
      </trkpt>
      <trkpt lat="46.37835" lon="2.51344">
        <ele>253.5</ele>
        <time>2018-10-14T09:08:51Z</time>
      </trkpt>
      <trkpt lat="46.3784" lon="2.51339">
        <ele>253.1</ele>
        <time>2018-10-14T09:08:52Z</time>
      </trkpt>
      <trkpt lat="46.37845" lon="2.51334">
        <ele>252.9</ele>
        <time>2018-10-14T09:08:53Z</time>
      </trkpt>
      <trkpt lat="46.3785" lon="2.51329">
        <ele>253.2</ele>
        <time>2018-10-14T09:08:54Z</time>
      </trkpt>
      <trkpt lat="46.37855" lon="2.51324">
        <ele>253.5</ele>
        <time>2018-10-14T09:08:55Z</time>
      </trkpt>
      <trkpt lat="46.37861" lon="2.51319">
        <ele>254</ele>
        <time>2018-10-14T09:08:56Z</time>
      </trkpt>
      <trkpt lat="46.37866" lon="2.51314">
        <ele>254.4</ele>
        <time>2018-10-14T09:08:57Z</time>
      </trkpt>
      <trkpt lat="46.3787" lon="2.51309">
        <ele>255</ele>
        <time>2018-10-14T09:08:58Z</time>
      </trkpt>
      <trkpt lat="46.37875" lon="2.51304">
        <ele>255.4</ele>
        <time>2018-10-14T09:08:59Z</time>
      </trkpt>
      <trkpt lat="46.3788" lon="2.513">
        <ele>255.7</ele>
        <time>2018-10-14T09:09:00Z</time>
      </trkpt>
      <trkpt lat="46.37884" lon="2.51296">
        <ele>256</ele>
        <time>2018-10-14T09:09:01Z</time>
      </trkpt>
      <trkpt lat="46.37889" lon="2.51293">
        <ele>256.3</ele>
        <time>2018-10-14T09:09:02Z</time>
      </trkpt>
      <trkpt lat="46.37893" lon="2.51291">
        <ele>257.1</ele>
        <time>2018-10-14T09:09:03Z</time>
      </trkpt>
      <trkpt lat="46.37898" lon="2.51289">
        <ele>257.8</ele>
        <time>2018-10-14T09:09:04Z</time>
      </trkpt>
      <trkpt lat="46.37902" lon="2.51288">
        <ele>258.2</ele>
        <time>2018-10-14T09:09:05Z</time>
      </trkpt>
      <trkpt lat="46.37907" lon="2.51286">
        <ele>258.1</ele>
        <time>2018-10-14T09:09:06Z</time>
      </trkpt>
      <trkpt lat="46.37911" lon="2.51285">
        <ele>258</ele>
        <time>2018-10-14T09:09:07Z</time>
      </trkpt>
      <trkpt lat="46.3792" lon="2.51282">
        <ele>258.4</ele>
        <time>2018-10-14T09:09:09Z</time>
      </trkpt>
      <trkpt lat="46.37928" lon="2.51279">
        <ele>259.1</ele>
        <time>2018-10-14T09:09:11Z</time>
      </trkpt>
      <trkpt lat="46.37937" lon="2.51276">
        <ele>259.4</ele>
        <time>2018-10-14T09:09:13Z</time>
      </trkpt>
      <trkpt lat="46.37945" lon="2.51274">
        <ele>259.6</ele>
        <time>2018-10-14T09:09:15Z</time>
      </trkpt>
      <trkpt lat="46.37953" lon="2.51271">
        <ele>260.4</ele>
        <time>2018-10-14T09:09:17Z</time>
      </trkpt>
      <trkpt lat="46.37961" lon="2.51268">
        <ele>261.1</ele>
        <time>2018-10-14T09:09:19Z</time>
      </trkpt>
      <trkpt lat="46.37969" lon="2.51266">
        <ele>261.1</ele>
        <time>2018-10-14T09:09:21Z</time>
      </trkpt>
      <trkpt lat="46.37977" lon="2.51263">
        <ele>260</ele>
        <time>2018-10-14T09:09:23Z</time>
      </trkpt>
      <trkpt lat="46.37982" lon="2.51261">
        <ele>259.6</ele>
        <time>2018-10-14T09:09:24Z</time>
      </trkpt>
      <trkpt lat="46.37986" lon="2.51259">
        <ele>259.5</ele>
        <time>2018-10-14T09:09:25Z</time>
      </trkpt>
      <trkpt lat="46.37991" lon="2.51257">
        <ele>259.4</ele>
        <time>2018-10-14T09:09:26Z</time>
      </trkpt>
      <trkpt lat="46.37996" lon="2.51256">
        <ele>259.2</ele>
        <time>2018-10-14T09:09:27Z</time>
      </trkpt>
      <trkpt lat="46.38001" lon="2.51254">
        <ele>259.1</ele>
        <time>2018-10-14T09:09:28Z</time>
      </trkpt>
      <trkpt lat="46.38006" lon="2.51252">
        <ele>258.9</ele>
        <time>2018-10-14T09:09:29Z</time>
      </trkpt>
      <trkpt lat="46.38011" lon="2.51251">
        <ele>258.8</ele>
        <time>2018-10-14T09:09:30Z</time>
      </trkpt>
      <trkpt lat="46.38017" lon="2.51249">
        <ele>258.7</ele>
        <time>2018-10-14T09:09:31Z</time>
      </trkpt>
      <trkpt lat="46.38023" lon="2.51246">
        <ele>258.7</ele>
        <time>2018-10-14T09:09:32Z</time>
      </trkpt>
      <trkpt lat="46.38028" lon="2.51244">
        <ele>258.7</ele>
        <time>2018-10-14T09:09:33Z</time>
      </trkpt>
      <trkpt lat="46.38034" lon="2.51241">
        <ele>258.4</ele>
        <time>2018-10-14T09:09:34Z</time>
      </trkpt>
      <trkpt lat="46.38041" lon="2.51239">
        <ele>258.2</ele>
        <time>2018-10-14T09:09:35Z</time>
      </trkpt>
      <trkpt lat="46.38047" lon="2.51236">
        <ele>257.5</ele>
        <time>2018-10-14T09:09:36Z</time>
      </trkpt>
      <trkpt lat="46.38054" lon="2.51234">
        <ele>256.9</ele>
        <time>2018-10-14T09:09:37Z</time>
      </trkpt>
      <trkpt lat="46.38061" lon="2.51231">
        <ele>256.5</ele>
        <time>2018-10-14T09:09:38Z</time>
      </trkpt>
      <trkpt lat="46.38068" lon="2.51228">
        <ele>256.6</ele>
        <time>2018-10-14T09:09:39Z</time>
      </trkpt>
      <trkpt lat="46.38076" lon="2.51225">
        <ele>256.6</ele>
        <time>2018-10-14T09:09:40Z</time>
      </trkpt>
      <trkpt lat="46.38084" lon="2.51223">
        <ele>256.2</ele>
        <time>2018-10-14T09:09:41Z</time>
      </trkpt>
      <trkpt lat="46.38092" lon="2.51221">
        <ele>255.8</ele>
        <time>2018-10-14T09:09:42Z</time>
      </trkpt>
      <trkpt lat="46.38101" lon="2.51221">
        <ele>255.6</ele>
        <time>2018-10-14T09:09:43Z</time>
      </trkpt>
      <trkpt lat="46.3811" lon="2.51221">
        <ele>254.8</ele>
        <time>2018-10-14T09:09:44Z</time>
      </trkpt>
      <trkpt lat="46.3812" lon="2.51219">
        <ele>254.2</ele>
        <time>2018-10-14T09:09:45Z</time>
      </trkpt>
      <trkpt lat="46.38129" lon="2.51217">
        <ele>253.4</ele>
        <time>2018-10-14T09:09:46Z</time>
      </trkpt>
      <trkpt lat="46.38136" lon="2.51215">
        <ele>252.9</ele>
        <time>2018-10-14T09:09:47Z</time>
      </trkpt>
      <trkpt lat="46.38142" lon="2.51217">
        <ele>252.3</ele>
        <time>2018-10-14T09:09:48Z</time>
      </trkpt>
      <trkpt lat="46.38147" lon="2.51223">
        <ele>251.9</ele>
        <time>2018-10-14T09:09:49Z</time>
      </trkpt>
      <trkpt lat="46.3815" lon="2.5123">
        <ele>251.6</ele>
        <time>2018-10-14T09:09:50Z</time>
      </trkpt>
      <trkpt lat="46.38153" lon="2.51238">
        <ele>250.8</ele>
        <time>2018-10-14T09:09:51Z</time>
      </trkpt>
      <trkpt lat="46.38155" lon="2.51246">
        <ele>250.2</ele>
        <time>2018-10-14T09:09:52Z</time>
      </trkpt>
      <trkpt lat="46.38158" lon="2.51253">
        <ele>250.3</ele>
        <time>2018-10-14T09:09:53Z</time>
      </trkpt>
      <trkpt lat="46.38161" lon="2.5126">
        <ele>250.4</ele>
        <time>2018-10-14T09:09:54Z</time>
      </trkpt>
      <trkpt lat="46.38164" lon="2.51267">
        <ele>250.1</ele>
        <time>2018-10-14T09:09:55Z</time>
      </trkpt>
      <trkpt lat="46.38167" lon="2.51273">
        <ele>249.9</ele>
        <time>2018-10-14T09:09:56Z</time>
      </trkpt>
      <trkpt lat="46.3817" lon="2.51279">
        <ele>249.8</ele>
        <time>2018-10-14T09:09:57Z</time>
      </trkpt>
      <trkpt lat="46.38173" lon="2.51286">
        <ele>249.8</ele>
        <time>2018-10-14T09:09:58Z</time>
      </trkpt>
      <trkpt lat="46.38174" lon="2.51293">
        <ele>249.8</ele>
        <time>2018-10-14T09:09:59Z</time>
      </trkpt>
      <trkpt lat="46.38174" lon="2.51301">
        <ele>249.6</ele>
        <time>2018-10-14T09:10:00Z</time>
      </trkpt>
      <trkpt lat="46.38174" lon="2.51307">
        <ele>249.5</ele>
        <time>2018-10-14T09:10:01Z</time>
      </trkpt>
      <trkpt lat="46.38173" lon="2.51314">
        <ele>249.4</ele>
        <time>2018-10-14T09:10:02Z</time>
      </trkpt>
      <trkpt lat="46.38173" lon="2.5132">
        <ele>249.4</ele>
        <time>2018-10-14T09:10:03Z</time>
      </trkpt>
      <trkpt lat="46.38172" lon="2.51327">
        <ele>249.4</ele>
        <time>2018-10-14T09:10:04Z</time>
      </trkpt>
      <trkpt lat="46.38172" lon="2.51334">
        <ele>249.3</ele>
        <time>2018-10-14T09:10:05Z</time>
      </trkpt>
      <trkpt lat="46.38172" lon="2.51342">
        <ele>249.3</ele>
        <time>2018-10-14T09:10:06Z</time>
      </trkpt>
      <trkpt lat="46.38172" lon="2.51349">
        <ele>249.5</ele>
        <time>2018-10-14T09:10:07Z</time>
      </trkpt>
      <trkpt lat="46.38174" lon="2.51356">
        <ele>249.6</ele>
        <time>2018-10-14T09:10:08Z</time>
      </trkpt>
      <trkpt lat="46.38175" lon="2.51363">
        <ele>249.8</ele>
        <time>2018-10-14T09:10:09Z</time>
      </trkpt>
      <trkpt lat="46.38176" lon="2.51369">
        <ele>249.9</ele>
        <time>2018-10-14T09:10:10Z</time>
      </trkpt>
      <trkpt lat="46.38176" lon="2.51376">
        <ele>250.1</ele>
        <time>2018-10-14T09:10:11Z</time>
      </trkpt>
      <trkpt lat="46.38177" lon="2.51383">
        <ele>249.5</ele>
        <time>2018-10-14T09:10:12Z</time>
      </trkpt>
      <trkpt lat="46.38177" lon="2.5139">
        <ele>249</ele>
        <time>2018-10-14T09:10:13Z</time>
      </trkpt>
      <trkpt lat="46.38177" lon="2.51397">
        <ele>249</ele>
        <time>2018-10-14T09:10:14Z</time>
      </trkpt>
      <trkpt lat="46.38177" lon="2.51404">
        <ele>249.1</ele>
        <time>2018-10-14T09:10:15Z</time>
      </trkpt>
      <trkpt lat="46.38177" lon="2.51411">
        <ele>249.1</ele>
        <time>2018-10-14T09:10:16Z</time>
      </trkpt>
      <trkpt lat="46.38176" lon="2.51418">
        <ele>249.3</ele>
        <time>2018-10-14T09:10:17Z</time>
      </trkpt>
      <trkpt lat="46.38176" lon="2.51425">
        <ele>249.4</ele>
        <time>2018-10-14T09:10:18Z</time>
      </trkpt>
      <trkpt lat="46.38175" lon="2.51431">
        <ele>249.4</ele>
        <time>2018-10-14T09:10:19Z</time>
      </trkpt>
      <trkpt lat="46.38174" lon="2.51438">
        <ele>249.3</ele>
        <time>2018-10-14T09:10:20Z</time>
      </trkpt>
      <trkpt lat="46.38173" lon="2.51446">
        <ele>249.3</ele>
        <time>2018-10-14T09:10:21Z</time>
      </trkpt>
      <trkpt lat="46.38172" lon="2.51454">
        <ele>248.8</ele>
        <time>2018-10-14T09:10:22Z</time>
      </trkpt>
      <trkpt lat="46.38171" lon="2.51462">
        <ele>248.4</ele>
        <time>2018-10-14T09:10:23Z</time>
      </trkpt>
      <trkpt lat="46.38169" lon="2.51471">
        <ele>248.5</ele>
        <time>2018-10-14T09:10:24Z</time>
      </trkpt>
      <trkpt lat="46.38167" lon="2.5148">
        <ele>248.6</ele>
        <time>2018-10-14T09:10:25Z</time>
      </trkpt>
      <trkpt lat="46.38163" lon="2.51489">
        <ele>248</ele>
        <time>2018-10-14T09:10:26Z</time>
      </trkpt>
      <trkpt lat="46.38159" lon="2.51497">
        <ele>247.6</ele>
        <time>2018-10-14T09:10:27Z</time>
      </trkpt>
      <trkpt lat="46.38154" lon="2.51506">
        <ele>247.3</ele>
        <time>2018-10-14T09:10:28Z</time>
      </trkpt>
      <trkpt lat="46.38149" lon="2.51513">
        <ele>246.8</ele>
        <time>2018-10-14T09:10:29Z</time>
      </trkpt>
      <trkpt lat="46.38144" lon="2.51521">
        <ele>246.4</ele>
        <time>2018-10-14T09:10:30Z</time>
      </trkpt>
      <trkpt lat="46.3814" lon="2.51529">
        <ele>246.3</ele>
        <time>2018-10-14T09:10:31Z</time>
      </trkpt>
      <trkpt lat="46.38135" lon="2.51537">
        <ele>246.2</ele>
        <time>2018-10-14T09:10:32Z</time>
      </trkpt>
      <trkpt lat="46.3813" lon="2.51545">
        <ele>245.9</ele>
        <time>2018-10-14T09:10:33Z</time>
      </trkpt>
      <trkpt lat="46.38125" lon="2.51552">
        <ele>245.7</ele>
        <time>2018-10-14T09:10:34Z</time>
      </trkpt>
      <trkpt lat="46.38121" lon="2.51559">
        <ele>245.5</ele>
        <time>2018-10-14T09:10:35Z</time>
      </trkpt>
      <trkpt lat="46.38117" lon="2.51566">
        <ele>245.1</ele>
        <time>2018-10-14T09:10:36Z</time>
      </trkpt>
      <trkpt lat="46.38113" lon="2.51573">
        <ele>244.8</ele>
        <time>2018-10-14T09:10:37Z</time>
      </trkpt>
      <trkpt lat="46.3811" lon="2.51581">
        <ele>244.8</ele>
        <time>2018-10-14T09:10:38Z</time>
      </trkpt>
      <trkpt lat="46.38107" lon="2.51588">
        <ele>244.7</ele>
        <time>2018-10-14T09:10:39Z</time>
      </trkpt>
      <trkpt lat="46.38105" lon="2.51596">
        <ele>244.8</ele>
        <time>2018-10-14T09:10:40Z</time>
      </trkpt>
      <trkpt lat="46.38103" lon="2.51604">
        <ele>244.8</ele>
        <time>2018-10-14T09:10:41Z</time>
      </trkpt>
      <trkpt lat="46.38102" lon="2.51612">
        <ele>244.8</ele>
        <time>2018-10-14T09:10:42Z</time>
      </trkpt>
      <trkpt lat="46.381" lon="2.51619">
        <ele>245.5</ele>
        <time>2018-10-14T09:10:43Z</time>
      </trkpt>
      <trkpt lat="46.38099" lon="2.51627">
        <ele>246</ele>
        <time>2018-10-14T09:10:44Z</time>
      </trkpt>
      <trkpt lat="46.38101" lon="2.51633">
        <ele>246.4</ele>
        <time>2018-10-14T09:10:45Z</time>
      </trkpt>
      <trkpt lat="46.38104" lon="2.51639">
        <ele>246.7</ele>
        <time>2018-10-14T09:10:46Z</time>
      </trkpt>
      <trkpt lat="46.38107" lon="2.51646">
        <ele>246.9</ele>
        <time>2018-10-14T09:10:47Z</time>
      </trkpt>
      <trkpt lat="46.3811" lon="2.51653">
        <ele>246.8</ele>
        <time>2018-10-14T09:10:48Z</time>
      </trkpt>
      <trkpt lat="46.38114" lon="2.5166">
        <ele>246.8</ele>
        <time>2018-10-14T09:10:49Z</time>
      </trkpt>
      <trkpt lat="46.38118" lon="2.51668">
        <ele>246.8</ele>
        <time>2018-10-14T09:10:50Z</time>
      </trkpt>
      <trkpt lat="46.38122" lon="2.51675">
        <ele>246.9</ele>
        <time>2018-10-14T09:10:51Z</time>
      </trkpt>
      <trkpt lat="46.38127" lon="2.51683">
        <ele>247</ele>
        <time>2018-10-14T09:10:52Z</time>
      </trkpt>
      <trkpt lat="46.38131" lon="2.5169">
        <ele>247.2</ele>
        <time>2018-10-14T09:10:53Z</time>
      </trkpt>
      <trkpt lat="46.38135" lon="2.51698">
        <ele>247.3</ele>
        <time>2018-10-14T09:10:54Z</time>
      </trkpt>
      <trkpt lat="46.38139" lon="2.51705">
        <ele>247</ele>
        <time>2018-10-14T09:10:55Z</time>
      </trkpt>
      <trkpt lat="46.38143" lon="2.51712">
        <ele>246.9</ele>
        <time>2018-10-14T09:10:56Z</time>
      </trkpt>
      <trkpt lat="46.38147" lon="2.5172">
        <ele>246.3</ele>
        <time>2018-10-14T09:10:57Z</time>
      </trkpt>
      <trkpt lat="46.38151" lon="2.51727">
        <ele>245.8</ele>
        <time>2018-10-14T09:10:58Z</time>
      </trkpt>
      <trkpt lat="46.38154" lon="2.51736">
        <ele>245.5</ele>
        <time>2018-10-14T09:10:59Z</time>
      </trkpt>
      <trkpt lat="46.38157" lon="2.51744">
        <ele>245.3</ele>
        <time>2018-10-14T09:11:00Z</time>
      </trkpt>
      <trkpt lat="46.38159" lon="2.51754">
        <ele>245.1</ele>
        <time>2018-10-14T09:11:01Z</time>
      </trkpt>
      <trkpt lat="46.3816" lon="2.51763">
        <ele>245</ele>
        <time>2018-10-14T09:11:02Z</time>
      </trkpt>
      <trkpt lat="46.38161" lon="2.51772">
        <ele>245</ele>
        <time>2018-10-14T09:11:03Z</time>
      </trkpt>
      <trkpt lat="46.38162" lon="2.51782">
        <ele>244.4</ele>
        <time>2018-10-14T09:11:04Z</time>
      </trkpt>
      <trkpt lat="46.38164" lon="2.51791">
        <ele>243.9</ele>
        <time>2018-10-14T09:11:05Z</time>
      </trkpt>
      <trkpt lat="46.38167" lon="2.51798">
        <ele>243.6</ele>
        <time>2018-10-14T09:11:06Z</time>
      </trkpt>
      <trkpt lat="46.38172" lon="2.51802">
        <ele>243.4</ele>
        <time>2018-10-14T09:11:07Z</time>
      </trkpt>
      <trkpt lat="46.38178" lon="2.51805">
        <ele>243.3</ele>
        <time>2018-10-14T09:11:08Z</time>
      </trkpt>
      <trkpt lat="46.38185" lon="2.51807">
        <ele>243</ele>
        <time>2018-10-14T09:11:09Z</time>
      </trkpt>
      <trkpt lat="46.38191" lon="2.51809">
        <ele>242.7</ele>
        <time>2018-10-14T09:11:10Z</time>
      </trkpt>
      <trkpt lat="46.38197" lon="2.51811">
        <ele>242.2</ele>
        <time>2018-10-14T09:11:11Z</time>
      </trkpt>
      <trkpt lat="46.38204" lon="2.51813">
        <ele>241.8</ele>
        <time>2018-10-14T09:11:12Z</time>
      </trkpt>
      <trkpt lat="46.3821" lon="2.51817">
        <ele>241.5</ele>
        <time>2018-10-14T09:11:13Z</time>
      </trkpt>
      <trkpt lat="46.38216" lon="2.51821">
        <ele>241.1</ele>
        <time>2018-10-14T09:11:14Z</time>
      </trkpt>
      <trkpt lat="46.38222" lon="2.51826">
        <ele>240.7</ele>
        <time>2018-10-14T09:11:15Z</time>
      </trkpt>
      <trkpt lat="46.38229" lon="2.51832">
        <ele>240.5</ele>
        <time>2018-10-14T09:11:16Z</time>
      </trkpt>
      <trkpt lat="46.38236" lon="2.51838">
        <ele>240.4</ele>
        <time>2018-10-14T09:11:17Z</time>
      </trkpt>
      <trkpt lat="46.38243" lon="2.51843">
        <ele>240.3</ele>
        <time>2018-10-14T09:11:18Z</time>
      </trkpt>
      <trkpt lat="46.3825" lon="2.51849">
        <ele>239.8</ele>
        <time>2018-10-14T09:11:19Z</time>
      </trkpt>
      <trkpt lat="46.38257" lon="2.51855">
        <ele>239.4</ele>
        <time>2018-10-14T09:11:20Z</time>
      </trkpt>
      <trkpt lat="46.38265" lon="2.51861">
        <ele>238.9</ele>
        <time>2018-10-14T09:11:21Z</time>
      </trkpt>
      <trkpt lat="46.38272" lon="2.51869">
        <ele>238.5</ele>
        <time>2018-10-14T09:11:22Z</time>
      </trkpt>
      <trkpt lat="46.3828" lon="2.51876">
        <ele>237.7</ele>
        <time>2018-10-14T09:11:23Z</time>
      </trkpt>
      <trkpt lat="46.38288" lon="2.51884">
        <ele>237</ele>
        <time>2018-10-14T09:11:24Z</time>
      </trkpt>
      <trkpt lat="46.38295" lon="2.51894">
        <ele>236.6</ele>
        <time>2018-10-14T09:11:25Z</time>
      </trkpt>
      <trkpt lat="46.38303" lon="2.51905">
        <ele>235.9</ele>
        <time>2018-10-14T09:11:26Z</time>
      </trkpt>
      <trkpt lat="46.3831" lon="2.51916">
        <ele>235.5</ele>
        <time>2018-10-14T09:11:27Z</time>
      </trkpt>
      <trkpt lat="46.38317" lon="2.51927">
        <ele>234.7</ele>
        <time>2018-10-14T09:11:28Z</time>
      </trkpt>
      <trkpt lat="46.38324" lon="2.51938">
        <ele>234.1</ele>
        <time>2018-10-14T09:11:29Z</time>
      </trkpt>
      <trkpt lat="46.38331" lon="2.51949">
        <ele>233.4</ele>
        <time>2018-10-14T09:11:30Z</time>
      </trkpt>
      <trkpt lat="46.38338" lon="2.5196">
        <ele>232.9</ele>
        <time>2018-10-14T09:11:31Z</time>
      </trkpt>
      <trkpt lat="46.38346" lon="2.5197">
        <ele>232.5</ele>
        <time>2018-10-14T09:11:32Z</time>
      </trkpt>
      <trkpt lat="46.38352" lon="2.5198">
        <ele>231.5</ele>
        <time>2018-10-14T09:11:33Z</time>
      </trkpt>
      <trkpt lat="46.38356" lon="2.51991">
        <ele>230.7</ele>
        <time>2018-10-14T09:11:34Z</time>
      </trkpt>
      <trkpt lat="46.38359" lon="2.52003">
        <ele>229.8</ele>
        <time>2018-10-14T09:11:35Z</time>
      </trkpt>
      <trkpt lat="46.38362" lon="2.52015">
        <ele>229.1</ele>
        <time>2018-10-14T09:11:36Z</time>
      </trkpt>
      <trkpt lat="46.38365" lon="2.52025">
        <ele>228.6</ele>
        <time>2018-10-14T09:11:37Z</time>
      </trkpt>
      <trkpt lat="46.38369" lon="2.52035">
        <ele>228.9</ele>
        <time>2018-10-14T09:11:38Z</time>
      </trkpt>
      <trkpt lat="46.38374" lon="2.52044">
        <ele>229.1</ele>
        <time>2018-10-14T09:11:39Z</time>
      </trkpt>
      <trkpt lat="46.38381" lon="2.5205">
        <ele>228.5</ele>
        <time>2018-10-14T09:11:40Z</time>
      </trkpt>
      <trkpt lat="46.38388" lon="2.52055">
        <ele>228</ele>
        <time>2018-10-14T09:11:41Z</time>
      </trkpt>
      <trkpt lat="46.38396" lon="2.5206">
        <ele>227.9</ele>
        <time>2018-10-14T09:11:42Z</time>
      </trkpt>
      <trkpt lat="46.38402" lon="2.52065">
        <ele>227.8</ele>
        <time>2018-10-14T09:11:43Z</time>
      </trkpt>
      <trkpt lat="46.38407" lon="2.52071">
        <ele>227.7</ele>
        <time>2018-10-14T09:11:44Z</time>
      </trkpt>
      <trkpt lat="46.38411" lon="2.52079">
        <ele>227.1</ele>
        <time>2018-10-14T09:11:45Z</time>
      </trkpt>
      <trkpt lat="46.38412" lon="2.52087">
        <ele>226.6</ele>
        <time>2018-10-14T09:11:46Z</time>
      </trkpt>
      <trkpt lat="46.38413" lon="2.52096">
        <ele>226.3</ele>
        <time>2018-10-14T09:11:47Z</time>
      </trkpt>
      <trkpt lat="46.38414" lon="2.52103">
        <ele>226.1</ele>
        <time>2018-10-14T09:11:48Z</time>
      </trkpt>
      <trkpt lat="46.38415" lon="2.52111">
        <ele>225.9</ele>
        <time>2018-10-14T09:11:49Z</time>
      </trkpt>
      <trkpt lat="46.38416" lon="2.52118">
        <ele>225.7</ele>
        <time>2018-10-14T09:11:50Z</time>
      </trkpt>
      <trkpt lat="46.3842" lon="2.52129">
        <ele>225.9</ele>
        <time>2018-10-14T09:11:52Z</time>
      </trkpt>
      <trkpt lat="46.38427" lon="2.52136">
        <ele>226.4</ele>
        <time>2018-10-14T09:11:54Z</time>
      </trkpt>
      <trkpt lat="46.38434" lon="2.52139">
        <ele>227.1</ele>
        <time>2018-10-14T09:11:56Z</time>
      </trkpt>
      <trkpt lat="46.38442" lon="2.52142">
        <ele>227.7</ele>
        <time>2018-10-14T09:11:58Z</time>
      </trkpt>
      <trkpt lat="46.38446" lon="2.52144">
        <ele>227.6</ele>
        <time>2018-10-14T09:11:59Z</time>
      </trkpt>
      <trkpt lat="46.38451" lon="2.52146">
        <ele>227.5</ele>
        <time>2018-10-14T09:12:00Z</time>
      </trkpt>
      <trkpt lat="46.38455" lon="2.52148">
        <ele>227.8</ele>
        <time>2018-10-14T09:12:01Z</time>
      </trkpt>
      <trkpt lat="46.3846" lon="2.5215">
        <ele>228.1</ele>
        <time>2018-10-14T09:12:02Z</time>
      </trkpt>
      <trkpt lat="46.38465" lon="2.52152">
        <ele>228.3</ele>
        <time>2018-10-14T09:12:03Z</time>
      </trkpt>
      <trkpt lat="46.38469" lon="2.52154">
        <ele>227.6</ele>
        <time>2018-10-14T09:12:04Z</time>
      </trkpt>
      <trkpt lat="46.38474" lon="2.52156">
        <ele>227.1</ele>
        <time>2018-10-14T09:12:05Z</time>
      </trkpt>
      <trkpt lat="46.38478" lon="2.52158">
        <ele>227.1</ele>
        <time>2018-10-14T09:12:06Z</time>
      </trkpt>
      <trkpt lat="46.38482" lon="2.5216">
        <ele>227</ele>
        <time>2018-10-14T09:12:07Z</time>
      </trkpt>
      <trkpt lat="46.38491" lon="2.52165">
        <ele>227.4</ele>
        <time>2018-10-14T09:12:09Z</time>
      </trkpt>
      <trkpt lat="46.38495" lon="2.52167">
        <ele>227.6</ele>
        <time>2018-10-14T09:12:10Z</time>
      </trkpt>
      <trkpt lat="46.38499" lon="2.52169">
        <ele>227.6</ele>
        <time>2018-10-14T09:12:11Z</time>
      </trkpt>
      <trkpt lat="46.38504" lon="2.52171">
        <ele>227.6</ele>
        <time>2018-10-14T09:12:12Z</time>
      </trkpt>
      <trkpt lat="46.38508" lon="2.52174">
        <ele>227.3</ele>
        <time>2018-10-14T09:12:13Z</time>
      </trkpt>
      <trkpt lat="46.38513" lon="2.52176">
        <ele>227</ele>
        <time>2018-10-14T09:12:14Z</time>
      </trkpt>
      <trkpt lat="46.38518" lon="2.52179">
        <ele>227</ele>
        <time>2018-10-14T09:12:15Z</time>
      </trkpt>
      <trkpt lat="46.38523" lon="2.52181">
        <ele>227</ele>
        <time>2018-10-14T09:12:16Z</time>
      </trkpt>
      <trkpt lat="46.38528" lon="2.52184">
        <ele>227</ele>
        <time>2018-10-14T09:12:17Z</time>
      </trkpt>
      <trkpt lat="46.38533" lon="2.52187">
        <ele>227</ele>
        <time>2018-10-14T09:12:18Z</time>
      </trkpt>
      <trkpt lat="46.38538" lon="2.5219">
        <ele>227.1</ele>
        <time>2018-10-14T09:12:19Z</time>
      </trkpt>
      <trkpt lat="46.38543" lon="2.52193">
        <ele>226.4</ele>
        <time>2018-10-14T09:12:20Z</time>
      </trkpt>
      <trkpt lat="46.38547" lon="2.52196">
        <ele>225.9</ele>
        <time>2018-10-14T09:12:21Z</time>
      </trkpt>
      <trkpt lat="46.38552" lon="2.522">
        <ele>225.6</ele>
        <time>2018-10-14T09:12:22Z</time>
      </trkpt>
      <trkpt lat="46.38556" lon="2.52203">
        <ele>226.2</ele>
        <time>2018-10-14T09:12:23Z</time>
      </trkpt>
      <trkpt lat="46.38561" lon="2.52206">
        <ele>226.7</ele>
        <time>2018-10-14T09:12:24Z</time>
      </trkpt>
      <trkpt lat="46.38565" lon="2.52209">
        <ele>226.7</ele>
        <time>2018-10-14T09:12:25Z</time>
      </trkpt>
      <trkpt lat="46.38569" lon="2.52212">
        <ele>226.8</ele>
        <time>2018-10-14T09:12:26Z</time>
      </trkpt>
      <trkpt lat="46.38574" lon="2.52215">
        <ele>227</ele>
        <time>2018-10-14T09:12:27Z</time>
      </trkpt>
      <trkpt lat="46.38578" lon="2.52219">
        <ele>227.2</ele>
        <time>2018-10-14T09:12:28Z</time>
      </trkpt>
      <trkpt lat="46.38582" lon="2.52222">
        <ele>227.3</ele>
        <time>2018-10-14T09:12:29Z</time>
      </trkpt>
      <trkpt lat="46.38587" lon="2.52225">
        <ele>227</ele>
        <time>2018-10-14T09:12:30Z</time>
      </trkpt>
      <trkpt lat="46.38591" lon="2.52228">
        <ele>226.7</ele>
        <time>2018-10-14T09:12:31Z</time>
      </trkpt>
      <trkpt lat="46.38596" lon="2.52231">
        <ele>226.5</ele>
        <time>2018-10-14T09:12:32Z</time>
      </trkpt>
      <trkpt lat="46.386" lon="2.52234">
        <ele>226.4</ele>
        <time>2018-10-14T09:12:33Z</time>
      </trkpt>
      <trkpt lat="46.38604" lon="2.52237">
        <ele>226.7</ele>
        <time>2018-10-14T09:12:34Z</time>
      </trkpt>
      <trkpt lat="46.38608" lon="2.52241">
        <ele>227</ele>
        <time>2018-10-14T09:12:35Z</time>
      </trkpt>
      <trkpt lat="46.38616" lon="2.52246">
        <ele>227.3</ele>
        <time>2018-10-14T09:12:37Z</time>
      </trkpt>
      <trkpt lat="46.38621" lon="2.52256">
        <ele>227.6</ele>
        <time>2018-10-14T09:12:39Z</time>
      </trkpt>
      <trkpt lat="46.3862" lon="2.52262">
        <ele>227.8</ele>
        <time>2018-10-14T09:12:40Z</time>
      </trkpt>
      <trkpt lat="46.38618" lon="2.52278">
        <ele>228.3</ele>
        <time>2018-10-14T09:12:43Z</time>
      </trkpt>
      <trkpt lat="46.38612" lon="2.52286">
        <ele>228.5</ele>
        <time>2018-10-14T09:12:45Z</time>
      </trkpt>
      <trkpt lat="46.38606" lon="2.52294">
        <ele>227.7</ele>
        <time>2018-10-14T09:12:47Z</time>
      </trkpt>
      <trkpt lat="46.38604" lon="2.52304">
        <ele>227.2</ele>
        <time>2018-10-14T09:12:49Z</time>
      </trkpt>
      <trkpt lat="46.38609" lon="2.52314">
        <ele>226.7</ele>
        <time>2018-10-14T09:12:51Z</time>
      </trkpt>
      <trkpt lat="46.38614" lon="2.52324">
        <ele>226.3</ele>
        <time>2018-10-14T09:12:53Z</time>
      </trkpt>
      <trkpt lat="46.38619" lon="2.52334">
        <ele>226</ele>
        <time>2018-10-14T09:12:55Z</time>
      </trkpt>
      <trkpt lat="46.38621" lon="2.5234">
        <ele>226.1</ele>
        <time>2018-10-14T09:12:56Z</time>
      </trkpt>
      <trkpt lat="46.38623" lon="2.52347">
        <ele>226.2</ele>
        <time>2018-10-14T09:12:57Z</time>
      </trkpt>
      <trkpt lat="46.38623" lon="2.52354">
        <ele>226.3</ele>
        <time>2018-10-14T09:12:58Z</time>
      </trkpt>
      <trkpt lat="46.3862" lon="2.52365">
        <ele>226.2</ele>
        <time>2018-10-14T09:13:00Z</time>
      </trkpt>
      <trkpt lat="46.38612" lon="2.52373">
        <ele>226.2</ele>
        <time>2018-10-14T09:13:02Z</time>
      </trkpt>
      <trkpt lat="46.38608" lon="2.52376">
        <ele>226</ele>
        <time>2018-10-14T09:13:03Z</time>
      </trkpt>
      <trkpt lat="46.38604" lon="2.5238">
        <ele>225.8</ele>
        <time>2018-10-14T09:13:04Z</time>
      </trkpt>
      <trkpt lat="46.386" lon="2.52385">
        <ele>225.6</ele>
        <time>2018-10-14T09:13:05Z</time>
      </trkpt>
      <trkpt lat="46.38596" lon="2.52391">
        <ele>225.5</ele>
        <time>2018-10-14T09:13:06Z</time>
      </trkpt>
      <trkpt lat="46.38595" lon="2.52398">
        <ele>225.4</ele>
        <time>2018-10-14T09:13:07Z</time>
      </trkpt>
      <trkpt lat="46.38595" lon="2.52406">
        <ele>225.2</ele>
        <time>2018-10-14T09:13:08Z</time>
      </trkpt>
      <trkpt lat="46.38597" lon="2.52413">
        <ele>225.1</ele>
        <time>2018-10-14T09:13:09Z</time>
      </trkpt>
      <trkpt lat="46.38599" lon="2.52421">
        <ele>224.8</ele>
        <time>2018-10-14T09:13:10Z</time>
      </trkpt>
      <trkpt lat="46.38601" lon="2.52427">
        <ele>224.5</ele>
        <time>2018-10-14T09:13:11Z</time>
      </trkpt>
      <trkpt lat="46.38604" lon="2.52434">
        <ele>224.4</ele>
        <time>2018-10-14T09:13:12Z</time>
      </trkpt>
      <trkpt lat="46.38607" lon="2.5244">
        <ele>224.2</ele>
        <time>2018-10-14T09:13:13Z</time>
      </trkpt>
      <trkpt lat="46.3861" lon="2.52446">
        <ele>224.1</ele>
        <time>2018-10-14T09:13:14Z</time>
      </trkpt>
      <trkpt lat="46.38613" lon="2.52452">
        <ele>224.1</ele>
        <time>2018-10-14T09:13:15Z</time>
      </trkpt>
      <trkpt lat="46.38616" lon="2.52459">
        <ele>224.1</ele>
        <time>2018-10-14T09:13:16Z</time>
      </trkpt>
      <trkpt lat="46.38619" lon="2.52465">
        <ele>224.4</ele>
        <time>2018-10-14T09:13:17Z</time>
      </trkpt>
      <trkpt lat="46.38622" lon="2.52472">
        <ele>224.6</ele>
        <time>2018-10-14T09:13:18Z</time>
      </trkpt>
      <trkpt lat="46.38625" lon="2.52478">
        <ele>224.8</ele>
        <time>2018-10-14T09:13:19Z</time>
      </trkpt>
      <trkpt lat="46.38629" lon="2.52484">
        <ele>224.8</ele>
        <time>2018-10-14T09:13:20Z</time>
      </trkpt>
      <trkpt lat="46.38632" lon="2.5249">
        <ele>224.8</ele>
        <time>2018-10-14T09:13:21Z</time>
      </trkpt>
      <trkpt lat="46.38636" lon="2.52497">
        <ele>224.9</ele>
        <time>2018-10-14T09:13:22Z</time>
      </trkpt>
      <trkpt lat="46.38639" lon="2.52503">
        <ele>224.9</ele>
        <time>2018-10-14T09:13:23Z</time>
      </trkpt>
      <trkpt lat="46.38642" lon="2.52509">
        <ele>224.6</ele>
        <time>2018-10-14T09:13:24Z</time>
      </trkpt>
      <trkpt lat="46.38645" lon="2.52516">
        <ele>224.3</ele>
        <time>2018-10-14T09:13:25Z</time>
      </trkpt>
      <trkpt lat="46.38648" lon="2.52522">
        <ele>224.2</ele>
        <time>2018-10-14T09:13:26Z</time>
      </trkpt>
      <trkpt lat="46.3865" lon="2.52529">
        <ele>224.1</ele>
        <time>2018-10-14T09:13:27Z</time>
      </trkpt>
      <trkpt lat="46.38652" lon="2.52535">
        <ele>224</ele>
        <time>2018-10-14T09:13:28Z</time>
      </trkpt>
      <trkpt lat="46.38655" lon="2.52542">
        <ele>223.7</ele>
        <time>2018-10-14T09:13:29Z</time>
      </trkpt>
      <trkpt lat="46.38657" lon="2.52549">
        <ele>223.6</ele>
        <time>2018-10-14T09:13:30Z</time>
      </trkpt>
      <trkpt lat="46.38659" lon="2.52556">
        <ele>223.6</ele>
        <time>2018-10-14T09:13:31Z</time>
      </trkpt>
      <trkpt lat="46.38662" lon="2.52562">
        <ele>223.6</ele>
        <time>2018-10-14T09:13:32Z</time>
      </trkpt>
      <trkpt lat="46.38664" lon="2.52569">
        <ele>223.7</ele>
        <time>2018-10-14T09:13:33Z</time>
      </trkpt>
      <trkpt lat="46.38666" lon="2.52576">
        <ele>223.8</ele>
        <time>2018-10-14T09:13:34Z</time>
      </trkpt>
      <trkpt lat="46.38668" lon="2.52582">
        <ele>223.9</ele>
        <time>2018-10-14T09:13:35Z</time>
      </trkpt>
      <trkpt lat="46.38671" lon="2.52589">
        <ele>224</ele>
        <time>2018-10-14T09:13:36Z</time>
      </trkpt>
      <trkpt lat="46.38673" lon="2.52596">
        <ele>224.2</ele>
        <time>2018-10-14T09:13:37Z</time>
      </trkpt>
      <trkpt lat="46.38675" lon="2.52602">
        <ele>224.3</ele>
        <time>2018-10-14T09:13:38Z</time>
      </trkpt>
      <trkpt lat="46.38677" lon="2.52609">
        <ele>224.1</ele>
        <time>2018-10-14T09:13:39Z</time>
      </trkpt>
      <trkpt lat="46.38679" lon="2.52616">
        <ele>224</ele>
        <time>2018-10-14T09:13:40Z</time>
      </trkpt>
      <trkpt lat="46.38681" lon="2.52622">
        <ele>223.9</ele>
        <time>2018-10-14T09:13:41Z</time>
      </trkpt>
      <trkpt lat="46.38684" lon="2.52629">
        <ele>223.8</ele>
        <time>2018-10-14T09:13:42Z</time>
      </trkpt>
      <trkpt lat="46.38686" lon="2.52636">
        <ele>223.7</ele>
        <time>2018-10-14T09:13:43Z</time>
      </trkpt>
      <trkpt lat="46.38688" lon="2.52643">
        <ele>223.5</ele>
        <time>2018-10-14T09:13:44Z</time>
      </trkpt>
      <trkpt lat="46.3869" lon="2.5265">
        <ele>223.4</ele>
        <time>2018-10-14T09:13:45Z</time>
      </trkpt>
      <trkpt lat="46.38692" lon="2.52657">
        <ele>223.4</ele>
        <time>2018-10-14T09:13:46Z</time>
      </trkpt>
      <trkpt lat="46.38695" lon="2.52663">
        <ele>223.4</ele>
        <time>2018-10-14T09:13:47Z</time>
      </trkpt>
      <trkpt lat="46.38697" lon="2.5267">
        <ele>223.7</ele>
        <time>2018-10-14T09:13:48Z</time>
      </trkpt>
      <trkpt lat="46.38699" lon="2.52677">
        <ele>223.8</ele>
        <time>2018-10-14T09:13:49Z</time>
      </trkpt>
      <trkpt lat="46.38701" lon="2.52683">
        <ele>223.7</ele>
        <time>2018-10-14T09:13:50Z</time>
      </trkpt>
      <trkpt lat="46.38703" lon="2.5269">
        <ele>223.7</ele>
        <time>2018-10-14T09:13:51Z</time>
      </trkpt>
      <trkpt lat="46.38706" lon="2.52697">
        <ele>223.6</ele>
        <time>2018-10-14T09:13:52Z</time>
      </trkpt>
      <trkpt lat="46.38708" lon="2.52704">
        <ele>223.5</ele>
        <time>2018-10-14T09:13:53Z</time>
      </trkpt>
      <trkpt lat="46.3871" lon="2.5271">
        <ele>223.5</ele>
        <time>2018-10-14T09:13:54Z</time>
      </trkpt>
      <trkpt lat="46.38712" lon="2.52717">
        <ele>223.3</ele>
        <time>2018-10-14T09:13:55Z</time>
      </trkpt>
      <trkpt lat="46.38714" lon="2.52723">
        <ele>223.2</ele>
        <time>2018-10-14T09:13:56Z</time>
      </trkpt>
      <trkpt lat="46.38717" lon="2.5273">
        <ele>223.1</ele>
        <time>2018-10-14T09:13:57Z</time>
      </trkpt>
      <trkpt lat="46.38719" lon="2.52737">
        <ele>223.1</ele>
        <time>2018-10-14T09:13:58Z</time>
      </trkpt>
      <trkpt lat="46.38721" lon="2.52744">
        <ele>223.2</ele>
        <time>2018-10-14T09:13:59Z</time>
      </trkpt>
      <trkpt lat="46.38723" lon="2.52751">
        <ele>223.2</ele>
        <time>2018-10-14T09:14:00Z</time>
      </trkpt>
      <trkpt lat="46.38725" lon="2.52757">
        <ele>223.1</ele>
        <time>2018-10-14T09:14:01Z</time>
      </trkpt>
      <trkpt lat="46.38728" lon="2.52764">
        <ele>223.1</ele>
        <time>2018-10-14T09:14:02Z</time>
      </trkpt>
      <trkpt lat="46.3873" lon="2.52771">
        <ele>223.1</ele>
        <time>2018-10-14T09:14:03Z</time>
      </trkpt>
      <trkpt lat="46.38732" lon="2.52778">
        <ele>223.1</ele>
        <time>2018-10-14T09:14:04Z</time>
      </trkpt>
      <trkpt lat="46.38734" lon="2.52785">
        <ele>222.9</ele>
        <time>2018-10-14T09:14:05Z</time>
      </trkpt>
      <trkpt lat="46.38737" lon="2.52791">
        <ele>222.7</ele>
        <time>2018-10-14T09:14:06Z</time>
      </trkpt>
      <trkpt lat="46.38739" lon="2.52798">
        <ele>222.5</ele>
        <time>2018-10-14T09:14:07Z</time>
      </trkpt>
      <trkpt lat="46.38741" lon="2.52805">
        <ele>222.3</ele>
        <time>2018-10-14T09:14:08Z</time>
      </trkpt>
      <trkpt lat="46.38743" lon="2.52812">
        <ele>222.6</ele>
        <time>2018-10-14T09:14:09Z</time>
      </trkpt>
      <trkpt lat="46.38746" lon="2.52819">
        <ele>222.9</ele>
        <time>2018-10-14T09:14:10Z</time>
      </trkpt>
      <trkpt lat="46.38748" lon="2.52826">
        <ele>223.1</ele>
        <time>2018-10-14T09:14:11Z</time>
      </trkpt>
      <trkpt lat="46.3875" lon="2.52833">
        <ele>222.8</ele>
        <time>2018-10-14T09:14:12Z</time>
      </trkpt>
      <trkpt lat="46.38752" lon="2.5284">
        <ele>222.7</ele>
        <time>2018-10-14T09:14:13Z</time>
      </trkpt>
      <trkpt lat="46.38755" lon="2.52847">
        <ele>222.6</ele>
        <time>2018-10-14T09:14:14Z</time>
      </trkpt>
      <trkpt lat="46.38757" lon="2.52854">
        <ele>222.5</ele>
        <time>2018-10-14T09:14:15Z</time>
      </trkpt>
      <trkpt lat="46.38759" lon="2.52861">
        <ele>222.7</ele>
        <time>2018-10-14T09:14:16Z</time>
      </trkpt>
      <trkpt lat="46.38762" lon="2.52868">
        <ele>222.8</ele>
        <time>2018-10-14T09:14:17Z</time>
      </trkpt>
      <trkpt lat="46.38764" lon="2.52874">
        <ele>222.9</ele>
        <time>2018-10-14T09:14:18Z</time>
      </trkpt>
      <trkpt lat="46.38766" lon="2.52881">
        <ele>222.2</ele>
        <time>2018-10-14T09:14:19Z</time>
      </trkpt>
      <trkpt lat="46.38768" lon="2.52888">
        <ele>221.7</ele>
        <time>2018-10-14T09:14:20Z</time>
      </trkpt>
      <trkpt lat="46.38771" lon="2.52896">
        <ele>221.5</ele>
        <time>2018-10-14T09:14:21Z</time>
      </trkpt>
      <trkpt lat="46.38773" lon="2.52903">
        <ele>221.3</ele>
        <time>2018-10-14T09:14:22Z</time>
      </trkpt>
      <trkpt lat="46.38776" lon="2.5291">
        <ele>221.1</ele>
        <time>2018-10-14T09:14:23Z</time>
      </trkpt>
      <trkpt lat="46.38779" lon="2.52917">
        <ele>221.1</ele>
        <time>2018-10-14T09:14:24Z</time>
      </trkpt>
      <trkpt lat="46.38782" lon="2.52923">
        <ele>221.2</ele>
        <time>2018-10-14T09:14:25Z</time>
      </trkpt>
      <trkpt lat="46.38785" lon="2.5293">
        <ele>221.6</ele>
        <time>2018-10-14T09:14:26Z</time>
      </trkpt>
      <trkpt lat="46.38788" lon="2.52936">
        <ele>221.9</ele>
        <time>2018-10-14T09:14:27Z</time>
      </trkpt>
      <trkpt lat="46.38791" lon="2.52943">
        <ele>222</ele>
        <time>2018-10-14T09:14:28Z</time>
      </trkpt>
      <trkpt lat="46.38794" lon="2.52949">
        <ele>222.1</ele>
        <time>2018-10-14T09:14:29Z</time>
      </trkpt>
      <trkpt lat="46.38798" lon="2.52956">
        <ele>222.2</ele>
        <time>2018-10-14T09:14:30Z</time>
      </trkpt>
      <trkpt lat="46.38801" lon="2.52962">
        <ele>221.5</ele>
        <time>2018-10-14T09:14:31Z</time>
      </trkpt>
      <trkpt lat="46.38804" lon="2.52969">
        <ele>221</ele>
        <time>2018-10-14T09:14:32Z</time>
      </trkpt>
      <trkpt lat="46.38807" lon="2.52975">
        <ele>221.1</ele>
        <time>2018-10-14T09:14:33Z</time>
      </trkpt>
      <trkpt lat="46.3881" lon="2.52981">
        <ele>221.2</ele>
        <time>2018-10-14T09:14:34Z</time>
      </trkpt>
      <trkpt lat="46.38813" lon="2.52988">
        <ele>221.3</ele>
        <time>2018-10-14T09:14:35Z</time>
      </trkpt>
      <trkpt lat="46.38816" lon="2.52994">
        <ele>221.4</ele>
        <time>2018-10-14T09:14:36Z</time>
      </trkpt>
      <trkpt lat="46.38819" lon="2.53001">
        <ele>221.4</ele>
        <time>2018-10-14T09:14:37Z</time>
      </trkpt>
      <trkpt lat="46.38822" lon="2.53007">
        <ele>221.5</ele>
        <time>2018-10-14T09:14:38Z</time>
      </trkpt>
      <trkpt lat="46.38825" lon="2.53013">
        <ele>221.6</ele>
        <time>2018-10-14T09:14:39Z</time>
      </trkpt>
      <trkpt lat="46.38828" lon="2.53019">
        <ele>221.7</ele>
        <time>2018-10-14T09:14:40Z</time>
      </trkpt>
      <trkpt lat="46.38832" lon="2.53026">
        <ele>221.9</ele>
        <time>2018-10-14T09:14:41Z</time>
      </trkpt>
      <trkpt lat="46.38835" lon="2.53032">
        <ele>222</ele>
        <time>2018-10-14T09:14:42Z</time>
      </trkpt>
      <trkpt lat="46.38838" lon="2.53038">
        <ele>221.9</ele>
        <time>2018-10-14T09:14:43Z</time>
      </trkpt>
      <trkpt lat="46.38841" lon="2.53044">
        <ele>221.9</ele>
        <time>2018-10-14T09:14:44Z</time>
      </trkpt>
      <trkpt lat="46.38843" lon="2.53051">
        <ele>221.5</ele>
        <time>2018-10-14T09:14:45Z</time>
      </trkpt>
      <trkpt lat="46.38846" lon="2.53057">
        <ele>221.3</ele>
        <time>2018-10-14T09:14:46Z</time>
      </trkpt>
      <trkpt lat="46.38849" lon="2.53062">
        <ele>221.1</ele>
        <time>2018-10-14T09:14:47Z</time>
      </trkpt>
      <trkpt lat="46.38852" lon="2.53068">
        <ele>220.9</ele>
        <time>2018-10-14T09:14:48Z</time>
      </trkpt>
      <trkpt lat="46.38854" lon="2.53073">
        <ele>220.8</ele>
        <time>2018-10-14T09:14:49Z</time>
      </trkpt>
      <trkpt lat="46.3886" lon="2.53084">
        <ele>220.9</ele>
        <time>2018-10-14T09:14:51Z</time>
      </trkpt>
      <trkpt lat="46.38862" lon="2.53096">
        <ele>221</ele>
        <time>2018-10-14T09:14:53Z</time>
      </trkpt>
      <trkpt lat="46.38859" lon="2.53106">
        <ele>221</ele>
        <time>2018-10-14T09:14:55Z</time>
      </trkpt>
      <trkpt lat="46.38853" lon="2.53116">
        <ele>221.1</ele>
        <time>2018-10-14T09:14:57Z</time>
      </trkpt>
      <trkpt lat="46.38848" lon="2.53125">
        <ele>221</ele>
        <time>2018-10-14T09:14:59Z</time>
      </trkpt>
      <trkpt lat="46.38843" lon="2.53134">
        <ele>220.8</ele>
        <time>2018-10-14T09:15:01Z</time>
      </trkpt>
      <trkpt lat="46.38837" lon="2.53144">
        <ele>221.5</ele>
        <time>2018-10-14T09:15:03Z</time>
      </trkpt>
      <trkpt lat="46.38832" lon="2.53153">
        <ele>221.7</ele>
        <time>2018-10-14T09:15:05Z</time>
      </trkpt>
      <trkpt lat="46.38826" lon="2.53163">
        <ele>221.7</ele>
        <time>2018-10-14T09:15:07Z</time>
      </trkpt>
      <trkpt lat="46.3882" lon="2.53172">
        <ele>221.1</ele>
        <time>2018-10-14T09:15:09Z</time>
      </trkpt>
      <trkpt lat="46.38814" lon="2.53182">
        <ele>220.9</ele>
        <time>2018-10-14T09:15:11Z</time>
      </trkpt>
      <trkpt lat="46.38808" lon="2.53191">
        <ele>221.6</ele>
        <time>2018-10-14T09:15:13Z</time>
      </trkpt>
      <trkpt lat="46.38803" lon="2.532">
        <ele>222.3</ele>
        <time>2018-10-14T09:15:15Z</time>
      </trkpt>
      <trkpt lat="46.38797" lon="2.5321">
        <ele>222.1</ele>
        <time>2018-10-14T09:15:17Z</time>
      </trkpt>
      <trkpt lat="46.38791" lon="2.53219">
        <ele>222.1</ele>
        <time>2018-10-14T09:15:19Z</time>
      </trkpt>
      <trkpt lat="46.38785" lon="2.53228">
        <ele>222</ele>
        <time>2018-10-14T09:15:21Z</time>
      </trkpt>
      <trkpt lat="46.38779" lon="2.53236">
        <ele>222.2</ele>
        <time>2018-10-14T09:15:23Z</time>
      </trkpt>
      <trkpt lat="46.38773" lon="2.53244">
        <ele>221.9</ele>
        <time>2018-10-14T09:15:25Z</time>
      </trkpt>
      <trkpt lat="46.3877" lon="2.53249">
        <ele>221.7</ele>
        <time>2018-10-14T09:15:26Z</time>
      </trkpt>
      <trkpt lat="46.38766" lon="2.53254">
        <ele>221.5</ele>
        <time>2018-10-14T09:15:27Z</time>
      </trkpt>
      <trkpt lat="46.38763" lon="2.53259">
        <ele>221.8</ele>
        <time>2018-10-14T09:15:28Z</time>
      </trkpt>
      <trkpt lat="46.3876" lon="2.53264">
        <ele>222.1</ele>
        <time>2018-10-14T09:15:29Z</time>
      </trkpt>
      <trkpt lat="46.38754" lon="2.53273">
        <ele>221.8</ele>
        <time>2018-10-14T09:15:31Z</time>
      </trkpt>
      <trkpt lat="46.38748" lon="2.53282">
        <ele>221.7</ele>
        <time>2018-10-14T09:15:33Z</time>
      </trkpt>
      <trkpt lat="46.38742" lon="2.53291">
        <ele>221.8</ele>
        <time>2018-10-14T09:15:35Z</time>
      </trkpt>
      <trkpt lat="46.38736" lon="2.53299">
        <ele>222.6</ele>
        <time>2018-10-14T09:15:37Z</time>
      </trkpt>
      <trkpt lat="46.3873" lon="2.53308">
        <ele>223.4</ele>
        <time>2018-10-14T09:15:39Z</time>
      </trkpt>
      <trkpt lat="46.38723" lon="2.53317">
        <ele>223</ele>
        <time>2018-10-14T09:15:41Z</time>
      </trkpt>
      <trkpt lat="46.38717" lon="2.53326">
        <ele>222.8</ele>
        <time>2018-10-14T09:15:43Z</time>
      </trkpt>
      <trkpt lat="46.38714" lon="2.5333">
        <ele>222.6</ele>
        <time>2018-10-14T09:15:44Z</time>
      </trkpt>
      <trkpt lat="46.38707" lon="2.53339">
        <ele>222.2</ele>
        <time>2018-10-14T09:15:46Z</time>
      </trkpt>
      <trkpt lat="46.38704" lon="2.53343">
        <ele>222.5</ele>
        <time>2018-10-14T09:15:47Z</time>
      </trkpt>
      <trkpt lat="46.387" lon="2.53348">
        <ele>222.8</ele>
        <time>2018-10-14T09:15:48Z</time>
      </trkpt>
      <trkpt lat="46.38693" lon="2.53356">
        <ele>223.1</ele>
        <time>2018-10-14T09:15:50Z</time>
      </trkpt>
      <trkpt lat="46.3869" lon="2.5336">
        <ele>223.1</ele>
        <time>2018-10-14T09:15:51Z</time>
      </trkpt>
      <trkpt lat="46.38686" lon="2.53364">
        <ele>223.1</ele>
        <time>2018-10-14T09:15:52Z</time>
      </trkpt>
      <trkpt lat="46.38679" lon="2.53371">
        <ele>223.6</ele>
        <time>2018-10-14T09:15:54Z</time>
      </trkpt>
      <trkpt lat="46.38675" lon="2.53375">
        <ele>224.1</ele>
        <time>2018-10-14T09:15:55Z</time>
      </trkpt>
      <trkpt lat="46.38672" lon="2.5338">
        <ele>224.1</ele>
        <time>2018-10-14T09:15:56Z</time>
      </trkpt>
      <trkpt lat="46.38668" lon="2.53384">
        <ele>224.1</ele>
        <time>2018-10-14T09:15:57Z</time>
      </trkpt>
      <trkpt lat="46.38665" lon="2.53389">
        <ele>224.2</ele>
        <time>2018-10-14T09:15:58Z</time>
      </trkpt>
      <trkpt lat="46.38661" lon="2.53394">
        <ele>224.3</ele>
        <time>2018-10-14T09:15:59Z</time>
      </trkpt>
      <trkpt lat="46.38658" lon="2.53399">
        <ele>224.4</ele>
        <time>2018-10-14T09:16:00Z</time>
      </trkpt>
      <trkpt lat="46.38654" lon="2.53403">
        <ele>224.2</ele>
        <time>2018-10-14T09:16:01Z</time>
      </trkpt>
      <trkpt lat="46.38651" lon="2.53408">
        <ele>224</ele>
        <time>2018-10-14T09:16:02Z</time>
      </trkpt>
      <trkpt lat="46.38648" lon="2.53413">
        <ele>224.1</ele>
        <time>2018-10-14T09:16:03Z</time>
      </trkpt>
      <trkpt lat="46.38645" lon="2.53419">
        <ele>224.1</ele>
        <time>2018-10-14T09:16:04Z</time>
      </trkpt>
      <trkpt lat="46.38642" lon="2.53424">
        <ele>224.2</ele>
        <time>2018-10-14T09:16:05Z</time>
      </trkpt>
      <trkpt lat="46.38638" lon="2.53429">
        <ele>224.1</ele>
        <time>2018-10-14T09:16:06Z</time>
      </trkpt>
      <trkpt lat="46.38635" lon="2.53435">
        <ele>224.1</ele>
        <time>2018-10-14T09:16:07Z</time>
      </trkpt>
      <trkpt lat="46.38632" lon="2.5344">
        <ele>224.1</ele>
        <time>2018-10-14T09:16:08Z</time>
      </trkpt>
      <trkpt lat="46.38629" lon="2.53446">
        <ele>224.1</ele>
        <time>2018-10-14T09:16:09Z</time>
      </trkpt>
      <trkpt lat="46.38626" lon="2.53451">
        <ele>223.9</ele>
        <time>2018-10-14T09:16:10Z</time>
      </trkpt>
      <trkpt lat="46.38623" lon="2.53457">
        <ele>223.8</ele>
        <time>2018-10-14T09:16:11Z</time>
      </trkpt>
      <trkpt lat="46.38619" lon="2.53462">
        <ele>223.8</ele>
        <time>2018-10-14T09:16:12Z</time>
      </trkpt>
      <trkpt lat="46.38616" lon="2.53468">
        <ele>223.9</ele>
        <time>2018-10-14T09:16:13Z</time>
      </trkpt>
      <trkpt lat="46.38613" lon="2.53473">
        <ele>223.9</ele>
        <time>2018-10-14T09:16:14Z</time>
      </trkpt>
      <trkpt lat="46.38609" lon="2.53479">
        <ele>223.7</ele>
        <time>2018-10-14T09:16:15Z</time>
      </trkpt>
      <trkpt lat="46.38606" lon="2.53484">
        <ele>223.5</ele>
        <time>2018-10-14T09:16:16Z</time>
      </trkpt>
      <trkpt lat="46.38603" lon="2.53489">
        <ele>223.3</ele>
        <time>2018-10-14T09:16:17Z</time>
      </trkpt>
      <trkpt lat="46.386" lon="2.53495">
        <ele>223.6</ele>
        <time>2018-10-14T09:16:18Z</time>
      </trkpt>
      <trkpt lat="46.38597" lon="2.535">
        <ele>223.8</ele>
        <time>2018-10-14T09:16:19Z</time>
      </trkpt>
      <trkpt lat="46.38594" lon="2.53506">
        <ele>223.7</ele>
        <time>2018-10-14T09:16:20Z</time>
      </trkpt>
      <trkpt lat="46.3859" lon="2.53511">
        <ele>223.7</ele>
        <time>2018-10-14T09:16:21Z</time>
      </trkpt>
      <trkpt lat="46.38587" lon="2.53516">
        <ele>223.7</ele>
        <time>2018-10-14T09:16:22Z</time>
      </trkpt>
      <trkpt lat="46.38584" lon="2.53522">
        <ele>223.8</ele>
        <time>2018-10-14T09:16:23Z</time>
      </trkpt>
      <trkpt lat="46.38581" lon="2.53527">
        <ele>223.8</ele>
        <time>2018-10-14T09:16:24Z</time>
      </trkpt>
      <trkpt lat="46.38578" lon="2.53532">
        <ele>223.9</ele>
        <time>2018-10-14T09:16:25Z</time>
      </trkpt>
      <trkpt lat="46.38575" lon="2.53537">
        <ele>223.9</ele>
        <time>2018-10-14T09:16:26Z</time>
      </trkpt>
      <trkpt lat="46.38572" lon="2.53543">
        <ele>224.4</ele>
        <time>2018-10-14T09:16:27Z</time>
      </trkpt>
      <trkpt lat="46.38569" lon="2.53548">
        <ele>224.8</ele>
        <time>2018-10-14T09:16:28Z</time>
      </trkpt>
      <trkpt lat="46.38566" lon="2.53554">
        <ele>224.8</ele>
        <time>2018-10-14T09:16:29Z</time>
      </trkpt>
      <trkpt lat="46.38563" lon="2.5356">
        <ele>224.8</ele>
        <time>2018-10-14T09:16:30Z</time>
      </trkpt>
      <trkpt lat="46.3856" lon="2.53566">
        <ele>224.8</ele>
        <time>2018-10-14T09:16:31Z</time>
      </trkpt>
      <trkpt lat="46.38557" lon="2.53572">
        <ele>224.7</ele>
        <time>2018-10-14T09:16:32Z</time>
      </trkpt>
      <trkpt lat="46.38554" lon="2.53578">
        <ele>224.6</ele>
        <time>2018-10-14T09:16:33Z</time>
      </trkpt>
      <trkpt lat="46.38552" lon="2.53586">
        <ele>224</ele>
        <time>2018-10-14T09:16:34Z</time>
      </trkpt>
      <trkpt lat="46.38551" lon="2.53593">
        <ele>223.5</ele>
        <time>2018-10-14T09:16:35Z</time>
      </trkpt>
      <trkpt lat="46.38552" lon="2.53602">
        <ele>223.4</ele>
        <time>2018-10-14T09:16:36Z</time>
      </trkpt>
      <trkpt lat="46.38554" lon="2.53609">
        <ele>223.2</ele>
        <time>2018-10-14T09:16:37Z</time>
      </trkpt>
      <trkpt lat="46.38557" lon="2.53616">
        <ele>223.2</ele>
        <time>2018-10-14T09:16:38Z</time>
      </trkpt>
      <trkpt lat="46.3856" lon="2.53623">
        <ele>223.6</ele>
        <time>2018-10-14T09:16:39Z</time>
      </trkpt>
      <trkpt lat="46.38564" lon="2.53628">
        <ele>224</ele>
        <time>2018-10-14T09:16:40Z</time>
      </trkpt>
      <trkpt lat="46.38569" lon="2.53634">
        <ele>223.7</ele>
        <time>2018-10-14T09:16:41Z</time>
      </trkpt>
      <trkpt lat="46.38573" lon="2.5364">
        <ele>223.5</ele>
        <time>2018-10-14T09:16:42Z</time>
      </trkpt>
      <trkpt lat="46.38577" lon="2.53645">
        <ele>223.3</ele>
        <time>2018-10-14T09:16:43Z</time>
      </trkpt>
      <trkpt lat="46.38582" lon="2.53651">
        <ele>223.3</ele>
        <time>2018-10-14T09:16:44Z</time>
      </trkpt>
      <trkpt lat="46.38586" lon="2.53656">
        <ele>223.3</ele>
        <time>2018-10-14T09:16:45Z</time>
      </trkpt>
      <trkpt lat="46.3859" lon="2.53661">
        <ele>223.1</ele>
        <time>2018-10-14T09:16:46Z</time>
      </trkpt>
      <trkpt lat="46.38595" lon="2.53666">
        <ele>222.9</ele>
        <time>2018-10-14T09:16:47Z</time>
      </trkpt>
      <trkpt lat="46.38599" lon="2.53672">
        <ele>222.9</ele>
        <time>2018-10-14T09:16:48Z</time>
      </trkpt>
      <trkpt lat="46.38604" lon="2.53678">
        <ele>222.9</ele>
        <time>2018-10-14T09:16:49Z</time>
      </trkpt>
      <trkpt lat="46.38608" lon="2.53683">
        <ele>222.9</ele>
        <time>2018-10-14T09:16:50Z</time>
      </trkpt>
      <trkpt lat="46.38611" lon="2.53689">
        <ele>222.8</ele>
        <time>2018-10-14T09:16:51Z</time>
      </trkpt>
      <trkpt lat="46.38615" lon="2.53696">
        <ele>222.7</ele>
        <time>2018-10-14T09:16:52Z</time>
      </trkpt>
      <trkpt lat="46.38618" lon="2.53702">
        <ele>222.6</ele>
        <time>2018-10-14T09:16:53Z</time>
      </trkpt>
      <trkpt lat="46.38621" lon="2.5371">
        <ele>222.6</ele>
        <time>2018-10-14T09:16:54Z</time>
      </trkpt>
      <trkpt lat="46.38624" lon="2.53717">
        <ele>222.6</ele>
        <time>2018-10-14T09:16:55Z</time>
      </trkpt>
      <trkpt lat="46.38626" lon="2.53725">
        <ele>222.5</ele>
        <time>2018-10-14T09:16:56Z</time>
      </trkpt>
      <trkpt lat="46.38628" lon="2.53733">
        <ele>222.5</ele>
        <time>2018-10-14T09:16:57Z</time>
      </trkpt>
      <trkpt lat="46.3863" lon="2.53741">
        <ele>222.3</ele>
        <time>2018-10-14T09:16:58Z</time>
      </trkpt>
      <trkpt lat="46.38632" lon="2.53749">
        <ele>222.2</ele>
        <time>2018-10-14T09:16:59Z</time>
      </trkpt>
      <trkpt lat="46.38634" lon="2.53757">
        <ele>222</ele>
        <time>2018-10-14T09:17:00Z</time>
      </trkpt>
      <trkpt lat="46.38636" lon="2.53765">
        <ele>221.8</ele>
        <time>2018-10-14T09:17:01Z</time>
      </trkpt>
      <trkpt lat="46.38638" lon="2.53772">
        <ele>221.7</ele>
        <time>2018-10-14T09:17:02Z</time>
      </trkpt>
      <trkpt lat="46.3864" lon="2.5378">
        <ele>221.4</ele>
        <time>2018-10-14T09:17:03Z</time>
      </trkpt>
      <trkpt lat="46.38642" lon="2.53788">
        <ele>221.2</ele>
        <time>2018-10-14T09:17:04Z</time>
      </trkpt>
      <trkpt lat="46.38644" lon="2.53796">
        <ele>221.5</ele>
        <time>2018-10-14T09:17:05Z</time>
      </trkpt>
      <trkpt lat="46.38645" lon="2.53804">
        <ele>221.7</ele>
        <time>2018-10-14T09:17:06Z</time>
      </trkpt>
      <trkpt lat="46.38647" lon="2.53811">
        <ele>221.8</ele>
        <time>2018-10-14T09:17:07Z</time>
      </trkpt>
      <trkpt lat="46.38649" lon="2.53819">
        <ele>221.8</ele>
        <time>2018-10-14T09:17:08Z</time>
      </trkpt>
      <trkpt lat="46.38651" lon="2.53827">
        <ele>221.9</ele>
        <time>2018-10-14T09:17:09Z</time>
      </trkpt>
      <trkpt lat="46.38653" lon="2.53835">
        <ele>221.7</ele>
        <time>2018-10-14T09:17:10Z</time>
      </trkpt>
      <trkpt lat="46.38655" lon="2.53842">
        <ele>221.5</ele>
        <time>2018-10-14T09:17:11Z</time>
      </trkpt>
      <trkpt lat="46.38656" lon="2.5385">
        <ele>221.5</ele>
        <time>2018-10-14T09:17:12Z</time>
      </trkpt>
      <trkpt lat="46.38658" lon="2.53858">
        <ele>221.4</ele>
        <time>2018-10-14T09:17:13Z</time>
      </trkpt>
      <trkpt lat="46.3866" lon="2.53866">
        <ele>221.5</ele>
        <time>2018-10-14T09:17:14Z</time>
      </trkpt>
      <trkpt lat="46.38661" lon="2.53873">
        <ele>221.6</ele>
        <time>2018-10-14T09:17:15Z</time>
      </trkpt>
      <trkpt lat="46.38663" lon="2.5388">
        <ele>221.6</ele>
        <time>2018-10-14T09:17:16Z</time>
      </trkpt>
      <trkpt lat="46.38665" lon="2.53887">
        <ele>221.5</ele>
        <time>2018-10-14T09:17:17Z</time>
      </trkpt>
      <trkpt lat="46.38666" lon="2.53894">
        <ele>221.4</ele>
        <time>2018-10-14T09:17:18Z</time>
      </trkpt>
      <trkpt lat="46.38668" lon="2.539">
        <ele>221.3</ele>
        <time>2018-10-14T09:17:19Z</time>
      </trkpt>
      <trkpt lat="46.38669" lon="2.53907">
        <ele>221.2</ele>
        <time>2018-10-14T09:17:20Z</time>
      </trkpt>
      <trkpt lat="46.38671" lon="2.53913">
        <ele>221.1</ele>
        <time>2018-10-14T09:17:21Z</time>
      </trkpt>
      <trkpt lat="46.38673" lon="2.5392">
        <ele>221.3</ele>
        <time>2018-10-14T09:17:22Z</time>
      </trkpt>
      <trkpt lat="46.38675" lon="2.53927">
        <ele>221.4</ele>
        <time>2018-10-14T09:17:23Z</time>
      </trkpt>
      <trkpt lat="46.38676" lon="2.53933">
        <ele>221.9</ele>
        <time>2018-10-14T09:17:24Z</time>
      </trkpt>
      <trkpt lat="46.38678" lon="2.5394">
        <ele>222.3</ele>
        <time>2018-10-14T09:17:25Z</time>
      </trkpt>
      <trkpt lat="46.38679" lon="2.53946">
        <ele>221.9</ele>
        <time>2018-10-14T09:17:26Z</time>
      </trkpt>
      <trkpt lat="46.38681" lon="2.53953">
        <ele>221.7</ele>
        <time>2018-10-14T09:17:27Z</time>
      </trkpt>
      <trkpt lat="46.38682" lon="2.53959">
        <ele>221.5</ele>
        <time>2018-10-14T09:17:28Z</time>
      </trkpt>
      <trkpt lat="46.38683" lon="2.53965">
        <ele>221.8</ele>
        <time>2018-10-14T09:17:29Z</time>
      </trkpt>
      <trkpt lat="46.38685" lon="2.53978">
        <ele>222.3</ele>
        <time>2018-10-14T09:17:31Z</time>
      </trkpt>
      <trkpt lat="46.38685" lon="2.53989">
        <ele>223</ele>
        <time>2018-10-14T09:17:33Z</time>
      </trkpt>
      <trkpt lat="46.38683" lon="2.53998">
        <ele>223.5</ele>
        <time>2018-10-14T09:17:35Z</time>
      </trkpt>
      <trkpt lat="46.38676" lon="2.54004">
        <ele>223.5</ele>
        <time>2018-10-14T09:17:37Z</time>
      </trkpt>
      <trkpt lat="46.38668" lon="2.54007">
        <ele>223.5</ele>
        <time>2018-10-14T09:17:39Z</time>
      </trkpt>
      <trkpt lat="46.3866" lon="2.54007">
        <ele>223.3</ele>
        <time>2018-10-14T09:17:41Z</time>
      </trkpt>
      <trkpt lat="46.38651" lon="2.54007">
        <ele>223.2</ele>
        <time>2018-10-14T09:17:43Z</time>
      </trkpt>
      <trkpt lat="46.38643" lon="2.54007">
        <ele>223.6</ele>
        <time>2018-10-14T09:17:45Z</time>
      </trkpt>
      <trkpt lat="46.38639" lon="2.54007">
        <ele>223.9</ele>
        <time>2018-10-14T09:17:46Z</time>
      </trkpt>
      <trkpt lat="46.38627" lon="2.54007">
        <ele>224.2</ele>
        <time>2018-10-14T09:17:49Z</time>
      </trkpt>
      <trkpt lat="46.3862" lon="2.54007">
        <ele>225.2</ele>
        <time>2018-10-14T09:17:51Z</time>
      </trkpt>
      <trkpt lat="46.38612" lon="2.54007">
        <ele>224.7</ele>
        <time>2018-10-14T09:17:53Z</time>
      </trkpt>
      <trkpt lat="46.38604" lon="2.54006">
        <ele>224.1</ele>
        <time>2018-10-14T09:17:55Z</time>
      </trkpt>
      <trkpt lat="46.38596" lon="2.54005">
        <ele>223.7</ele>
        <time>2018-10-14T09:17:57Z</time>
      </trkpt>
      <trkpt lat="46.38589" lon="2.54004">
        <ele>223.7</ele>
        <time>2018-10-14T09:17:59Z</time>
      </trkpt>
      <trkpt lat="46.38581" lon="2.54003">
        <ele>224.8</ele>
        <time>2018-10-14T09:18:01Z</time>
      </trkpt>
      <trkpt lat="46.38573" lon="2.54003">
        <ele>224.9</ele>
        <time>2018-10-14T09:18:03Z</time>
      </trkpt>
      <trkpt lat="46.38566" lon="2.54002">
        <ele>225.8</ele>
        <time>2018-10-14T09:18:05Z</time>
      </trkpt>
      <trkpt lat="46.38558" lon="2.54002">
        <ele>226.5</ele>
        <time>2018-10-14T09:18:07Z</time>
      </trkpt>
      <trkpt lat="46.3855" lon="2.54001">
        <ele>227.3</ele>
        <time>2018-10-14T09:18:09Z</time>
      </trkpt>
      <trkpt lat="46.38543" lon="2.54001">
        <ele>228.1</ele>
        <time>2018-10-14T09:18:11Z</time>
      </trkpt>
      <trkpt lat="46.38536" lon="2.54">
        <ele>228.9</ele>
        <time>2018-10-14T09:18:13Z</time>
      </trkpt>
      <trkpt lat="46.38529" lon="2.53999">
        <ele>229.1</ele>
        <time>2018-10-14T09:18:15Z</time>
      </trkpt>
      <trkpt lat="46.38522" lon="2.53998">
        <ele>229.3</ele>
        <time>2018-10-14T09:18:17Z</time>
      </trkpt>
      <trkpt lat="46.38515" lon="2.53997">
        <ele>229.5</ele>
        <time>2018-10-14T09:18:19Z</time>
      </trkpt>
      <trkpt lat="46.38508" lon="2.53996">
        <ele>230.1</ele>
        <time>2018-10-14T09:18:21Z</time>
      </trkpt>
      <trkpt lat="46.38501" lon="2.53994">
        <ele>231.1</ele>
        <time>2018-10-14T09:18:23Z</time>
      </trkpt>
      <trkpt lat="46.38494" lon="2.53992">
        <ele>232</ele>
        <time>2018-10-14T09:18:25Z</time>
      </trkpt>
      <trkpt lat="46.38487" lon="2.53989">
        <ele>232.3</ele>
        <time>2018-10-14T09:18:27Z</time>
      </trkpt>
      <trkpt lat="46.38481" lon="2.53986">
        <ele>233</ele>
        <time>2018-10-14T09:18:29Z</time>
      </trkpt>
      <trkpt lat="46.38474" lon="2.53983">
        <ele>233.1</ele>
        <time>2018-10-14T09:18:31Z</time>
      </trkpt>
      <trkpt lat="46.38468" lon="2.53979">
        <ele>233.2</ele>
        <time>2018-10-14T09:18:33Z</time>
      </trkpt>
      <trkpt lat="46.38463" lon="2.53975">
        <ele>233.7</ele>
        <time>2018-10-14T09:18:35Z</time>
      </trkpt>
      <trkpt lat="46.38457" lon="2.5397">
        <ele>234.4</ele>
        <time>2018-10-14T09:18:37Z</time>
      </trkpt>
      <trkpt lat="46.38451" lon="2.53965">
        <ele>234.5</ele>
        <time>2018-10-14T09:18:39Z</time>
      </trkpt>
      <trkpt lat="46.38443" lon="2.53959">
        <ele>236</ele>
        <time>2018-10-14T09:18:42Z</time>
      </trkpt>
      <trkpt lat="46.38437" lon="2.53957">
        <ele>236.8</ele>
        <time>2018-10-14T09:18:44Z</time>
      </trkpt>
      <trkpt lat="46.38431" lon="2.53956">
        <ele>237.3</ele>
        <time>2018-10-14T09:18:46Z</time>
      </trkpt>
      <trkpt lat="46.38428" lon="2.53957">
        <ele>237.4</ele>
        <time>2018-10-14T09:18:47Z</time>
      </trkpt>
      <trkpt lat="46.38419" lon="2.53962">
        <ele>237.8</ele>
        <time>2018-10-14T09:18:50Z</time>
      </trkpt>
      <trkpt lat="46.38414" lon="2.53966">
        <ele>238.4</ele>
        <time>2018-10-14T09:18:52Z</time>
      </trkpt>
      <trkpt lat="46.38408" lon="2.53971">
        <ele>238.7</ele>
        <time>2018-10-14T09:18:54Z</time>
      </trkpt>
      <trkpt lat="46.38403" lon="2.53976">
        <ele>238.7</ele>
        <time>2018-10-14T09:18:56Z</time>
      </trkpt>
      <trkpt lat="46.38397" lon="2.53982">
        <ele>238.9</ele>
        <time>2018-10-14T09:18:58Z</time>
      </trkpt>
      <trkpt lat="46.38392" lon="2.53988">
        <ele>239</ele>
        <time>2018-10-14T09:19:00Z</time>
      </trkpt>
      <trkpt lat="46.38386" lon="2.53996">
        <ele>238.8</ele>
        <time>2018-10-14T09:19:02Z</time>
      </trkpt>
      <trkpt lat="46.3838" lon="2.54004">
        <ele>239</ele>
        <time>2018-10-14T09:19:04Z</time>
      </trkpt>
      <trkpt lat="46.38376" lon="2.54008">
        <ele>239.1</ele>
        <time>2018-10-14T09:19:05Z</time>
      </trkpt>
      <trkpt lat="46.38373" lon="2.54012">
        <ele>239.7</ele>
        <time>2018-10-14T09:19:06Z</time>
      </trkpt>
      <trkpt lat="46.38369" lon="2.54017">
        <ele>240.2</ele>
        <time>2018-10-14T09:19:07Z</time>
      </trkpt>
      <trkpt lat="46.38366" lon="2.54021">
        <ele>240.4</ele>
        <time>2018-10-14T09:19:08Z</time>
      </trkpt>
      <trkpt lat="46.38362" lon="2.54026">
        <ele>240.6</ele>
        <time>2018-10-14T09:19:09Z</time>
      </trkpt>
      <trkpt lat="46.38358" lon="2.5403">
        <ele>240.8</ele>
        <time>2018-10-14T09:19:10Z</time>
      </trkpt>
      <trkpt lat="46.38355" lon="2.54035">
        <ele>240.5</ele>
        <time>2018-10-14T09:19:11Z</time>
      </trkpt>
      <trkpt lat="46.38351" lon="2.5404">
        <ele>240.4</ele>
        <time>2018-10-14T09:19:12Z</time>
      </trkpt>
      <trkpt lat="46.38347" lon="2.54044">
        <ele>240.7</ele>
        <time>2018-10-14T09:19:13Z</time>
      </trkpt>
      <trkpt lat="46.38343" lon="2.54049">
        <ele>241</ele>
        <time>2018-10-14T09:19:14Z</time>
      </trkpt>
      <trkpt lat="46.3834" lon="2.54054">
        <ele>240.9</ele>
        <time>2018-10-14T09:19:15Z</time>
      </trkpt>
      <trkpt lat="46.38336" lon="2.54058">
        <ele>240.8</ele>
        <time>2018-10-14T09:19:16Z</time>
      </trkpt>
      <trkpt lat="46.38332" lon="2.54063">
        <ele>240.8</ele>
        <time>2018-10-14T09:19:17Z</time>
      </trkpt>
      <trkpt lat="46.38328" lon="2.54067">
        <ele>240.9</ele>
        <time>2018-10-14T09:19:18Z</time>
      </trkpt>
      <trkpt lat="46.38324" lon="2.54072">
        <ele>241</ele>
        <time>2018-10-14T09:19:19Z</time>
      </trkpt>
      <trkpt lat="46.38318" lon="2.5408">
        <ele>241.3</ele>
        <time>2018-10-14T09:19:21Z</time>
      </trkpt>
      <trkpt lat="46.38311" lon="2.54088">
        <ele>241.3</ele>
        <time>2018-10-14T09:19:23Z</time>
      </trkpt>
      <trkpt lat="46.38307" lon="2.54092">
        <ele>241.3</ele>
        <time>2018-10-14T09:19:24Z</time>
      </trkpt>
      <trkpt lat="46.38304" lon="2.54097">
        <ele>241.2</ele>
        <time>2018-10-14T09:19:25Z</time>
      </trkpt>
      <trkpt lat="46.383" lon="2.54101">
        <ele>241.2</ele>
        <time>2018-10-14T09:19:26Z</time>
      </trkpt>
      <trkpt lat="46.38296" lon="2.54106">
        <ele>241.2</ele>
        <time>2018-10-14T09:19:27Z</time>
      </trkpt>
      <trkpt lat="46.38292" lon="2.5411">
        <ele>241.2</ele>
        <time>2018-10-14T09:19:28Z</time>
      </trkpt>
      <trkpt lat="46.38289" lon="2.54115">
        <ele>241.2</ele>
        <time>2018-10-14T09:19:29Z</time>
      </trkpt>
      <trkpt lat="46.38285" lon="2.5412">
        <ele>241.7</ele>
        <time>2018-10-14T09:19:30Z</time>
      </trkpt>
      <trkpt lat="46.38282" lon="2.54124">
        <ele>242</ele>
        <time>2018-10-14T09:19:31Z</time>
      </trkpt>
      <trkpt lat="46.38278" lon="2.54129">
        <ele>242.2</ele>
        <time>2018-10-14T09:19:32Z</time>
      </trkpt>
      <trkpt lat="46.38274" lon="2.54133">
        <ele>242.3</ele>
        <time>2018-10-14T09:19:33Z</time>
      </trkpt>
      <trkpt lat="46.3827" lon="2.54138">
        <ele>242.3</ele>
        <time>2018-10-14T09:19:34Z</time>
      </trkpt>
      <trkpt lat="46.38266" lon="2.54144">
        <ele>242.3</ele>
        <time>2018-10-14T09:19:35Z</time>
      </trkpt>
      <trkpt lat="46.38263" lon="2.5415">
        <ele>242.3</ele>
        <time>2018-10-14T09:19:36Z</time>
      </trkpt>
      <trkpt lat="46.38259" lon="2.54156">
        <ele>242.4</ele>
        <time>2018-10-14T09:19:37Z</time>
      </trkpt>
      <trkpt lat="46.38255" lon="2.54161">
        <ele>242.5</ele>
        <time>2018-10-14T09:19:38Z</time>
      </trkpt>
      <trkpt lat="46.3825" lon="2.54167">
        <ele>242.1</ele>
        <time>2018-10-14T09:19:39Z</time>
      </trkpt>
      <trkpt lat="46.38246" lon="2.54173">
        <ele>241.8</ele>
        <time>2018-10-14T09:19:40Z</time>
      </trkpt>
      <trkpt lat="46.38242" lon="2.54181">
        <ele>241.5</ele>
        <time>2018-10-14T09:19:41Z</time>
      </trkpt>
      <trkpt lat="46.38238" lon="2.54188">
        <ele>241.2</ele>
        <time>2018-10-14T09:19:42Z</time>
      </trkpt>
      <trkpt lat="46.38234" lon="2.54196">
        <ele>241</ele>
        <time>2018-10-14T09:19:43Z</time>
      </trkpt>
      <trkpt lat="46.38231" lon="2.54204">
        <ele>240.4</ele>
        <time>2018-10-14T09:19:44Z</time>
      </trkpt>
      <trkpt lat="46.38227" lon="2.54211">
        <ele>240</ele>
        <time>2018-10-14T09:19:45Z</time>
      </trkpt>
      <trkpt lat="46.38223" lon="2.54219">
        <ele>239.5</ele>
        <time>2018-10-14T09:19:46Z</time>
      </trkpt>
      <trkpt lat="46.3822" lon="2.54228">
        <ele>239.1</ele>
        <time>2018-10-14T09:19:47Z</time>
      </trkpt>
      <trkpt lat="46.38216" lon="2.54236">
        <ele>238.8</ele>
        <time>2018-10-14T09:19:48Z</time>
      </trkpt>
      <trkpt lat="46.38212" lon="2.54244">
        <ele>238.6</ele>
        <time>2018-10-14T09:19:49Z</time>
      </trkpt>
      <trkpt lat="46.38208" lon="2.54253">
        <ele>238.5</ele>
        <time>2018-10-14T09:19:50Z</time>
      </trkpt>
      <trkpt lat="46.38205" lon="2.54262">
        <ele>238.4</ele>
        <time>2018-10-14T09:19:51Z</time>
      </trkpt>
      <trkpt lat="46.382" lon="2.5427">
        <ele>238.4</ele>
        <time>2018-10-14T09:19:52Z</time>
      </trkpt>
      <trkpt lat="46.38196" lon="2.54278">
        <ele>238.3</ele>
        <time>2018-10-14T09:19:53Z</time>
      </trkpt>
      <trkpt lat="46.38191" lon="2.54285">
        <ele>237.9</ele>
        <time>2018-10-14T09:19:54Z</time>
      </trkpt>
      <trkpt lat="46.38185" lon="2.5429">
        <ele>237.6</ele>
        <time>2018-10-14T09:19:55Z</time>
      </trkpt>
      <trkpt lat="46.38179" lon="2.54294">
        <ele>237.4</ele>
        <time>2018-10-14T09:19:56Z</time>
      </trkpt>
      <trkpt lat="46.38173" lon="2.54298">
        <ele>237.2</ele>
        <time>2018-10-14T09:19:57Z</time>
      </trkpt>
      <trkpt lat="46.38167" lon="2.543">
        <ele>237</ele>
        <time>2018-10-14T09:19:58Z</time>
      </trkpt>
      <trkpt lat="46.38161" lon="2.54303">
        <ele>236.8</ele>
        <time>2018-10-14T09:19:59Z</time>
      </trkpt>
      <trkpt lat="46.38155" lon="2.54306">
        <ele>236.7</ele>
        <time>2018-10-14T09:20:00Z</time>
      </trkpt>
      <trkpt lat="46.38149" lon="2.54308">
        <ele>236.6</ele>
        <time>2018-10-14T09:20:01Z</time>
      </trkpt>
      <trkpt lat="46.38144" lon="2.54312">
        <ele>236.6</ele>
        <time>2018-10-14T09:20:02Z</time>
      </trkpt>
      <trkpt lat="46.38139" lon="2.54316">
        <ele>236.3</ele>
        <time>2018-10-14T09:20:03Z</time>
      </trkpt>
      <trkpt lat="46.38134" lon="2.5432">
        <ele>236.1</ele>
        <time>2018-10-14T09:20:04Z</time>
      </trkpt>
      <trkpt lat="46.38129" lon="2.54323">
        <ele>236.2</ele>
        <time>2018-10-14T09:20:05Z</time>
      </trkpt>
      <trkpt lat="46.38124" lon="2.54326">
        <ele>236.3</ele>
        <time>2018-10-14T09:20:06Z</time>
      </trkpt>
      <trkpt lat="46.38118" lon="2.54329">
        <ele>236.3</ele>
        <time>2018-10-14T09:20:07Z</time>
      </trkpt>
      <trkpt lat="46.38113" lon="2.54331">
        <ele>235.9</ele>
        <time>2018-10-14T09:20:08Z</time>
      </trkpt>
      <trkpt lat="46.38108" lon="2.54333">
        <ele>235.5</ele>
        <time>2018-10-14T09:20:09Z</time>
      </trkpt>
      <trkpt lat="46.38102" lon="2.54336">
        <ele>235.1</ele>
        <time>2018-10-14T09:20:10Z</time>
      </trkpt>
      <trkpt lat="46.38096" lon="2.54338">
        <ele>234.8</ele>
        <time>2018-10-14T09:20:11Z</time>
      </trkpt>
      <trkpt lat="46.38089" lon="2.5434">
        <ele>234.6</ele>
        <time>2018-10-14T09:20:12Z</time>
      </trkpt>
      <trkpt lat="46.38083" lon="2.54343">
        <ele>234.1</ele>
        <time>2018-10-14T09:20:13Z</time>
      </trkpt>
      <trkpt lat="46.38076" lon="2.54345">
        <ele>233.7</ele>
        <time>2018-10-14T09:20:14Z</time>
      </trkpt>
      <trkpt lat="46.3807" lon="2.54347">
        <ele>233.4</ele>
        <time>2018-10-14T09:20:15Z</time>
      </trkpt>
      <trkpt lat="46.38064" lon="2.5435">
        <ele>233.2</ele>
        <time>2018-10-14T09:20:16Z</time>
      </trkpt>
      <trkpt lat="46.38058" lon="2.54352">
        <ele>232.6</ele>
        <time>2018-10-14T09:20:17Z</time>
      </trkpt>
      <trkpt lat="46.38053" lon="2.54354">
        <ele>232.2</ele>
        <time>2018-10-14T09:20:18Z</time>
      </trkpt>
      <trkpt lat="46.38045" lon="2.54357">
        <ele>231.8</ele>
        <time>2018-10-14T09:20:20Z</time>
      </trkpt>
      <trkpt lat="46.38036" lon="2.54359">
        <ele>231.3</ele>
        <time>2018-10-14T09:20:25Z</time>
      </trkpt>
      <trkpt lat="46.38033" lon="2.54367">
        <ele>230.6</ele>
        <time>2018-10-14T09:20:30Z</time>
      </trkpt>
      <trkpt lat="46.38035" lon="2.54377">
        <ele>230.2</ele>
        <time>2018-10-14T09:20:32Z</time>
      </trkpt>
      <trkpt lat="46.38035" lon="2.54388">
        <ele>229.5</ele>
        <time>2018-10-14T09:20:34Z</time>
      </trkpt>
      <trkpt lat="46.38036" lon="2.544">
        <ele>228.6</ele>
        <time>2018-10-14T09:20:36Z</time>
      </trkpt>
      <trkpt lat="46.38037" lon="2.54412">
        <ele>228.1</ele>
        <time>2018-10-14T09:20:38Z</time>
      </trkpt>
      <trkpt lat="46.38038" lon="2.54418">
        <ele>228.6</ele>
        <time>2018-10-14T09:20:39Z</time>
      </trkpt>
      <trkpt lat="46.38039" lon="2.54425">
        <ele>229</ele>
        <time>2018-10-14T09:20:40Z</time>
      </trkpt>
      <trkpt lat="46.38039" lon="2.54432">
        <ele>229.3</ele>
        <time>2018-10-14T09:20:41Z</time>
      </trkpt>
      <trkpt lat="46.3804" lon="2.54439">
        <ele>229.5</ele>
        <time>2018-10-14T09:20:42Z</time>
      </trkpt>
      <trkpt lat="46.38041" lon="2.54446">
        <ele>229.3</ele>
        <time>2018-10-14T09:20:43Z</time>
      </trkpt>
      <trkpt lat="46.38042" lon="2.54452">
        <ele>229.1</ele>
        <time>2018-10-14T09:20:44Z</time>
      </trkpt>
      <trkpt lat="46.38043" lon="2.54459">
        <ele>229</ele>
        <time>2018-10-14T09:20:45Z</time>
      </trkpt>
      <trkpt lat="46.38044" lon="2.54466">
        <ele>229.1</ele>
        <time>2018-10-14T09:20:46Z</time>
      </trkpt>
      <trkpt lat="46.38044" lon="2.54473">
        <ele>229.1</ele>
        <time>2018-10-14T09:20:47Z</time>
      </trkpt>
      <trkpt lat="46.38045" lon="2.5448">
        <ele>228.6</ele>
        <time>2018-10-14T09:20:48Z</time>
      </trkpt>
      <trkpt lat="46.38046" lon="2.54487">
        <ele>228.3</ele>
        <time>2018-10-14T09:20:49Z</time>
      </trkpt>
      <trkpt lat="46.38046" lon="2.54499">
        <ele>227.5</ele>
        <time>2018-10-14T09:20:51Z</time>
      </trkpt>
      <trkpt lat="46.38044" lon="2.54508">
        <ele>227</ele>
        <time>2018-10-14T09:20:53Z</time>
      </trkpt>
      <trkpt lat="46.38037" lon="2.54515">
        <ele>227</ele>
        <time>2018-10-14T09:20:57Z</time>
      </trkpt>
      <trkpt lat="46.38032" lon="2.54517">
        <ele>226.5</ele>
        <time>2018-10-14T09:20:59Z</time>
      </trkpt>
      <trkpt lat="46.38023" lon="2.54517">
        <ele>225.6</ele>
        <time>2018-10-14T09:21:01Z</time>
      </trkpt>
      <trkpt lat="46.38018" lon="2.54517">
        <ele>226.2</ele>
        <time>2018-10-14T09:21:02Z</time>
      </trkpt>
      <trkpt lat="46.38013" lon="2.54517">
        <ele>226.6</ele>
        <time>2018-10-14T09:21:03Z</time>
      </trkpt>
      <trkpt lat="46.38008" lon="2.54518">
        <ele>226.9</ele>
        <time>2018-10-14T09:21:04Z</time>
      </trkpt>
      <trkpt lat="46.38002" lon="2.54519">
        <ele>226.6</ele>
        <time>2018-10-14T09:21:05Z</time>
      </trkpt>
      <trkpt lat="46.37997" lon="2.5452">
        <ele>226.5</ele>
        <time>2018-10-14T09:21:06Z</time>
      </trkpt>
      <trkpt lat="46.37991" lon="2.54522">
        <ele>226.7</ele>
        <time>2018-10-14T09:21:07Z</time>
      </trkpt>
      <trkpt lat="46.37986" lon="2.54523">
        <ele>226.9</ele>
        <time>2018-10-14T09:21:08Z</time>
      </trkpt>
      <trkpt lat="46.37981" lon="2.54525">
        <ele>227</ele>
        <time>2018-10-14T09:21:09Z</time>
      </trkpt>
      <trkpt lat="46.37976" lon="2.54527">
        <ele>227</ele>
        <time>2018-10-14T09:21:10Z</time>
      </trkpt>
      <trkpt lat="46.37971" lon="2.54528">
        <ele>227</ele>
        <time>2018-10-14T09:21:11Z</time>
      </trkpt>
      <trkpt lat="46.37967" lon="2.5453">
        <ele>226.8</ele>
        <time>2018-10-14T09:21:12Z</time>
      </trkpt>
      <trkpt lat="46.37962" lon="2.54532">
        <ele>226.7</ele>
        <time>2018-10-14T09:21:13Z</time>
      </trkpt>
      <trkpt lat="46.37957" lon="2.54534">
        <ele>226.4</ele>
        <time>2018-10-14T09:21:14Z</time>
      </trkpt>
      <trkpt lat="46.37953" lon="2.54536">
        <ele>226.1</ele>
        <time>2018-10-14T09:21:15Z</time>
      </trkpt>
      <trkpt lat="46.37948" lon="2.54538">
        <ele>225.9</ele>
        <time>2018-10-14T09:21:16Z</time>
      </trkpt>
      <trkpt lat="46.37943" lon="2.5454">
        <ele>226.5</ele>
        <time>2018-10-14T09:21:17Z</time>
      </trkpt>
      <trkpt lat="46.37938" lon="2.54542">
        <ele>227</ele>
        <time>2018-10-14T09:21:18Z</time>
      </trkpt>
      <trkpt lat="46.37933" lon="2.54544">
        <ele>227.1</ele>
        <time>2018-10-14T09:21:19Z</time>
      </trkpt>
      <trkpt lat="46.37929" lon="2.54546">
        <ele>227.2</ele>
        <time>2018-10-14T09:21:20Z</time>
      </trkpt>
      <trkpt lat="46.37924" lon="2.54548">
        <ele>227.3</ele>
        <time>2018-10-14T09:21:21Z</time>
      </trkpt>
      <trkpt lat="46.37919" lon="2.5455">
        <ele>227.3</ele>
        <time>2018-10-14T09:21:22Z</time>
      </trkpt>
      <trkpt lat="46.37915" lon="2.54552">
        <ele>227.4</ele>
        <time>2018-10-14T09:21:23Z</time>
      </trkpt>
      <trkpt lat="46.37911" lon="2.54554">
        <ele>227.2</ele>
        <time>2018-10-14T09:21:24Z</time>
      </trkpt>
      <trkpt lat="46.37906" lon="2.54556">
        <ele>227.1</ele>
        <time>2018-10-14T09:21:25Z</time>
      </trkpt>
      <trkpt lat="46.37898" lon="2.5456">
        <ele>227.1</ele>
        <time>2018-10-14T09:21:27Z</time>
      </trkpt>
      <trkpt lat="46.37893" lon="2.54562">
        <ele>227.2</ele>
        <time>2018-10-14T09:21:28Z</time>
      </trkpt>
      <trkpt lat="46.37889" lon="2.54564">
        <ele>227.3</ele>
        <time>2018-10-14T09:21:29Z</time>
      </trkpt>
      <trkpt lat="46.37885" lon="2.54566">
        <ele>227.3</ele>
        <time>2018-10-14T09:21:30Z</time>
      </trkpt>
      <trkpt lat="46.3788" lon="2.54567">
        <ele>226.8</ele>
        <time>2018-10-14T09:21:31Z</time>
      </trkpt>
      <trkpt lat="46.37876" lon="2.54569">
        <ele>226.4</ele>
        <time>2018-10-14T09:21:32Z</time>
      </trkpt>
      <trkpt lat="46.37871" lon="2.54571">
        <ele>226.4</ele>
        <time>2018-10-14T09:21:33Z</time>
      </trkpt>
      <trkpt lat="46.37867" lon="2.54573">
        <ele>226.4</ele>
        <time>2018-10-14T09:21:34Z</time>
      </trkpt>
      <trkpt lat="46.37862" lon="2.54575">
        <ele>226.5</ele>
        <time>2018-10-14T09:21:35Z</time>
      </trkpt>
      <trkpt lat="46.37857" lon="2.54577">
        <ele>226.5</ele>
        <time>2018-10-14T09:21:36Z</time>
      </trkpt>
      <trkpt lat="46.37852" lon="2.54579">
        <ele>226.5</ele>
        <time>2018-10-14T09:21:37Z</time>
      </trkpt>
      <trkpt lat="46.37847" lon="2.54581">
        <ele>226.4</ele>
        <time>2018-10-14T09:21:38Z</time>
      </trkpt>
      <trkpt lat="46.37841" lon="2.54583">
        <ele>226.3</ele>
        <time>2018-10-14T09:21:39Z</time>
      </trkpt>
      <trkpt lat="46.37835" lon="2.54585">
        <ele>226.3</ele>
        <time>2018-10-14T09:21:40Z</time>
      </trkpt>
      <trkpt lat="46.3783" lon="2.54585">
        <ele>226.4</ele>
        <time>2018-10-14T09:21:41Z</time>
      </trkpt>
      <trkpt lat="46.37824" lon="2.54585">
        <ele>226.4</ele>
        <time>2018-10-14T09:21:42Z</time>
      </trkpt>
      <trkpt lat="46.37819" lon="2.54584">
        <ele>226.7</ele>
        <time>2018-10-14T09:21:43Z</time>
      </trkpt>
      <trkpt lat="46.37813" lon="2.54583">
        <ele>227</ele>
        <time>2018-10-14T09:21:44Z</time>
      </trkpt>
      <trkpt lat="46.37808" lon="2.54581">
        <ele>227.1</ele>
        <time>2018-10-14T09:21:45Z</time>
      </trkpt>
      <trkpt lat="46.37803" lon="2.54578">
        <ele>227.1</ele>
        <time>2018-10-14T09:21:46Z</time>
      </trkpt>
      <trkpt lat="46.37798" lon="2.54575">
        <ele>226.4</ele>
        <time>2018-10-14T09:21:47Z</time>
      </trkpt>
      <trkpt lat="46.37793" lon="2.54571">
        <ele>225.8</ele>
        <time>2018-10-14T09:21:48Z</time>
      </trkpt>
      <trkpt lat="46.37788" lon="2.54568">
        <ele>225.4</ele>
        <time>2018-10-14T09:21:49Z</time>
      </trkpt>
      <trkpt lat="46.37784" lon="2.54564">
        <ele>225.4</ele>
        <time>2018-10-14T09:21:50Z</time>
      </trkpt>
      <trkpt lat="46.37779" lon="2.54561">
        <ele>225.3</ele>
        <time>2018-10-14T09:21:51Z</time>
      </trkpt>
      <trkpt lat="46.37775" lon="2.54557">
        <ele>225.6</ele>
        <time>2018-10-14T09:21:52Z</time>
      </trkpt>
      <trkpt lat="46.37771" lon="2.54554">
        <ele>225.7</ele>
        <time>2018-10-14T09:21:53Z</time>
      </trkpt>
      <trkpt lat="46.37767" lon="2.5455">
        <ele>225.9</ele>
        <time>2018-10-14T09:21:54Z</time>
      </trkpt>
      <trkpt lat="46.37762" lon="2.54546">
        <ele>226</ele>
        <time>2018-10-14T09:21:55Z</time>
      </trkpt>
      <trkpt lat="46.37758" lon="2.54543">
        <ele>226.2</ele>
        <time>2018-10-14T09:21:56Z</time>
      </trkpt>
      <trkpt lat="46.37754" lon="2.54539">
        <ele>226.2</ele>
        <time>2018-10-14T09:21:57Z</time>
      </trkpt>
      <trkpt lat="46.37749" lon="2.54536">
        <ele>226.2</ele>
        <time>2018-10-14T09:21:58Z</time>
      </trkpt>
      <trkpt lat="46.37745" lon="2.54533">
        <ele>226.5</ele>
        <time>2018-10-14T09:21:59Z</time>
      </trkpt>
      <trkpt lat="46.3774" lon="2.54529">
        <ele>226.7</ele>
        <time>2018-10-14T09:22:00Z</time>
      </trkpt>
      <trkpt lat="46.37736" lon="2.54526">
        <ele>226.9</ele>
        <time>2018-10-14T09:22:01Z</time>
      </trkpt>
      <trkpt lat="46.37731" lon="2.54523">
        <ele>227.3</ele>
        <time>2018-10-14T09:22:02Z</time>
      </trkpt>
      <trkpt lat="46.37727" lon="2.5452">
        <ele>227.5</ele>
        <time>2018-10-14T09:22:03Z</time>
      </trkpt>
      <trkpt lat="46.37723" lon="2.54517">
        <ele>227.6</ele>
        <time>2018-10-14T09:22:04Z</time>
      </trkpt>
      <trkpt lat="46.37718" lon="2.54515">
        <ele>227.6</ele>
        <time>2018-10-14T09:22:05Z</time>
      </trkpt>
      <trkpt lat="46.3771" lon="2.54511">
        <ele>227.8</ele>
        <time>2018-10-14T09:22:07Z</time>
      </trkpt>
      <trkpt lat="46.37701" lon="2.54508">
        <ele>228.2</ele>
        <time>2018-10-14T09:22:09Z</time>
      </trkpt>
      <trkpt lat="46.37697" lon="2.54507">
        <ele>228.4</ele>
        <time>2018-10-14T09:22:10Z</time>
      </trkpt>
      <trkpt lat="46.37692" lon="2.54506">
        <ele>228.5</ele>
        <time>2018-10-14T09:22:11Z</time>
      </trkpt>
      <trkpt lat="46.37688" lon="2.54505">
        <ele>228.6</ele>
        <time>2018-10-14T09:22:12Z</time>
      </trkpt>
      <trkpt lat="46.37683" lon="2.54505">
        <ele>228.7</ele>
        <time>2018-10-14T09:22:13Z</time>
      </trkpt>
      <trkpt lat="46.37678" lon="2.54504">
        <ele>228.9</ele>
        <time>2018-10-14T09:22:14Z</time>
      </trkpt>
      <trkpt lat="46.3767" lon="2.54504">
        <ele>229</ele>
        <time>2018-10-14T09:22:16Z</time>
      </trkpt>
      <trkpt lat="46.37661" lon="2.54503">
        <ele>229</ele>
        <time>2018-10-14T09:22:18Z</time>
      </trkpt>
      <trkpt lat="46.37652" lon="2.54502">
        <ele>229.1</ele>
        <time>2018-10-14T09:22:20Z</time>
      </trkpt>
      <trkpt lat="46.37644" lon="2.54501">
        <ele>229.2</ele>
        <time>2018-10-14T09:22:22Z</time>
      </trkpt>
      <trkpt lat="46.37635" lon="2.54501">
        <ele>229</ele>
        <time>2018-10-14T09:22:24Z</time>
      </trkpt>
      <trkpt lat="46.37627" lon="2.54499">
        <ele>229.9</ele>
        <time>2018-10-14T09:22:26Z</time>
      </trkpt>
      <trkpt lat="46.37619" lon="2.54499">
        <ele>230.2</ele>
        <time>2018-10-14T09:22:28Z</time>
      </trkpt>
      <trkpt lat="46.3761" lon="2.54498">
        <ele>230.1</ele>
        <time>2018-10-14T09:22:30Z</time>
      </trkpt>
      <trkpt lat="46.37603" lon="2.54499">
        <ele>229.9</ele>
        <time>2018-10-14T09:22:32Z</time>
      </trkpt>
      <trkpt lat="46.37595" lon="2.54499">
        <ele>230.3</ele>
        <time>2018-10-14T09:22:34Z</time>
      </trkpt>
      <trkpt lat="46.37587" lon="2.54499">
        <ele>230.6</ele>
        <time>2018-10-14T09:22:36Z</time>
      </trkpt>
      <trkpt lat="46.37579" lon="2.54499">
        <ele>231</ele>
        <time>2018-10-14T09:22:38Z</time>
      </trkpt>
      <trkpt lat="46.37571" lon="2.54499">
        <ele>231.1</ele>
        <time>2018-10-14T09:22:40Z</time>
      </trkpt>
      <trkpt lat="46.37562" lon="2.545">
        <ele>231.4</ele>
        <time>2018-10-14T09:22:42Z</time>
      </trkpt>
      <trkpt lat="46.37554" lon="2.545">
        <ele>231.7</ele>
        <time>2018-10-14T09:22:44Z</time>
      </trkpt>
      <trkpt lat="46.37546" lon="2.545">
        <ele>231.9</ele>
        <time>2018-10-14T09:22:46Z</time>
      </trkpt>
      <trkpt lat="46.37538" lon="2.54501">
        <ele>232.3</ele>
        <time>2018-10-14T09:22:48Z</time>
      </trkpt>
      <trkpt lat="46.37534" lon="2.54502">
        <ele>232.2</ele>
        <time>2018-10-14T09:22:49Z</time>
      </trkpt>
      <trkpt lat="46.37529" lon="2.54502">
        <ele>232.1</ele>
        <time>2018-10-14T09:22:50Z</time>
      </trkpt>
      <trkpt lat="46.37524" lon="2.54502">
        <ele>232</ele>
        <time>2018-10-14T09:22:51Z</time>
      </trkpt>
      <trkpt lat="46.37519" lon="2.54502">
        <ele>232.3</ele>
        <time>2018-10-14T09:22:52Z</time>
      </trkpt>
      <trkpt lat="46.37515" lon="2.54501">
        <ele>232.5</ele>
        <time>2018-10-14T09:22:53Z</time>
      </trkpt>
      <trkpt lat="46.3751" lon="2.545">
        <ele>232.9</ele>
        <time>2018-10-14T09:22:54Z</time>
      </trkpt>
      <trkpt lat="46.37505" lon="2.545">
        <ele>233.2</ele>
        <time>2018-10-14T09:22:55Z</time>
      </trkpt>
      <trkpt lat="46.375" lon="2.545">
        <ele>233.7</ele>
        <time>2018-10-14T09:22:56Z</time>
      </trkpt>
      <trkpt lat="46.37495" lon="2.54499">
        <ele>234.1</ele>
        <time>2018-10-14T09:22:57Z</time>
      </trkpt>
      <trkpt lat="46.37491" lon="2.54498">
        <ele>234.3</ele>
        <time>2018-10-14T09:22:58Z</time>
      </trkpt>
      <trkpt lat="46.37486" lon="2.54498">
        <ele>234.6</ele>
        <time>2018-10-14T09:22:59Z</time>
      </trkpt>
      <trkpt lat="46.37481" lon="2.54498">
        <ele>234.8</ele>
        <time>2018-10-14T09:23:00Z</time>
      </trkpt>
      <trkpt lat="46.37476" lon="2.54498">
        <ele>234.8</ele>
        <time>2018-10-14T09:23:01Z</time>
      </trkpt>
      <trkpt lat="46.37471" lon="2.54498">
        <ele>234.8</ele>
        <time>2018-10-14T09:23:02Z</time>
      </trkpt>
      <trkpt lat="46.37466" lon="2.54497">
        <ele>234.9</ele>
        <time>2018-10-14T09:23:03Z</time>
      </trkpt>
      <trkpt lat="46.37461" lon="2.54497">
        <ele>235</ele>
        <time>2018-10-14T09:23:04Z</time>
      </trkpt>
      <trkpt lat="46.37457" lon="2.54497">
        <ele>235</ele>
        <time>2018-10-14T09:23:05Z</time>
      </trkpt>
      <trkpt lat="46.37452" lon="2.54497">
        <ele>235.1</ele>
        <time>2018-10-14T09:23:06Z</time>
      </trkpt>
      <trkpt lat="46.37443" lon="2.54497">
        <ele>235.8</ele>
        <time>2018-10-14T09:23:08Z</time>
      </trkpt>
      <trkpt lat="46.37434" lon="2.54497">
        <ele>236.5</ele>
        <time>2018-10-14T09:23:10Z</time>
      </trkpt>
      <trkpt lat="46.3743" lon="2.54496">
        <ele>236.5</ele>
        <time>2018-10-14T09:23:11Z</time>
      </trkpt>
      <trkpt lat="46.37425" lon="2.54497">
        <ele>236.6</ele>
        <time>2018-10-14T09:23:12Z</time>
      </trkpt>
      <trkpt lat="46.37421" lon="2.54497">
        <ele>236.9</ele>
        <time>2018-10-14T09:23:13Z</time>
      </trkpt>
      <trkpt lat="46.37416" lon="2.54497">
        <ele>237.1</ele>
        <time>2018-10-14T09:23:14Z</time>
      </trkpt>
      <trkpt lat="46.37412" lon="2.54497">
        <ele>236.6</ele>
        <time>2018-10-14T09:23:15Z</time>
      </trkpt>
      <trkpt lat="46.37407" lon="2.54497">
        <ele>236.3</ele>
        <time>2018-10-14T09:23:16Z</time>
      </trkpt>
      <trkpt lat="46.37403" lon="2.54496">
        <ele>236</ele>
        <time>2018-10-14T09:23:17Z</time>
      </trkpt>
      <trkpt lat="46.37398" lon="2.54496">
        <ele>236</ele>
        <time>2018-10-14T09:23:18Z</time>
      </trkpt>
      <trkpt lat="46.37393" lon="2.54496">
        <ele>236</ele>
        <time>2018-10-14T09:23:19Z</time>
      </trkpt>
      <trkpt lat="46.37388" lon="2.54496">
        <ele>236.4</ele>
        <time>2018-10-14T09:23:20Z</time>
      </trkpt>
      <trkpt lat="46.37383" lon="2.54495">
        <ele>236.7</ele>
        <time>2018-10-14T09:23:21Z</time>
      </trkpt>
      <trkpt lat="46.37378" lon="2.54495">
        <ele>237.1</ele>
        <time>2018-10-14T09:23:22Z</time>
      </trkpt>
      <trkpt lat="46.37373" lon="2.54495">
        <ele>237.3</ele>
        <time>2018-10-14T09:23:23Z</time>
      </trkpt>
      <trkpt lat="46.37369" lon="2.54494">
        <ele>237.5</ele>
        <time>2018-10-14T09:23:24Z</time>
      </trkpt>
      <trkpt lat="46.37364" lon="2.54494">
        <ele>237.5</ele>
        <time>2018-10-14T09:23:25Z</time>
      </trkpt>
      <trkpt lat="46.37355" lon="2.54493">
        <ele>237.9</ele>
        <time>2018-10-14T09:23:27Z</time>
      </trkpt>
      <trkpt lat="46.37348" lon="2.54492">
        <ele>238.5</ele>
        <time>2018-10-14T09:23:29Z</time>
      </trkpt>
      <trkpt lat="46.3734" lon="2.54492">
        <ele>238.9</ele>
        <time>2018-10-14T09:23:31Z</time>
      </trkpt>
      <trkpt lat="46.37332" lon="2.54493">
        <ele>239.1</ele>
        <time>2018-10-14T09:23:33Z</time>
      </trkpt>
      <trkpt lat="46.37325" lon="2.54497">
        <ele>239.3</ele>
        <time>2018-10-14T09:23:35Z</time>
      </trkpt>
      <trkpt lat="46.37317" lon="2.54502">
        <ele>239.3</ele>
        <time>2018-10-14T09:23:37Z</time>
      </trkpt>
      <trkpt lat="46.37309" lon="2.54508">
        <ele>239.4</ele>
        <time>2018-10-14T09:23:39Z</time>
      </trkpt>
      <trkpt lat="46.37302" lon="2.54514">
        <ele>239.4</ele>
        <time>2018-10-14T09:23:41Z</time>
      </trkpt>
      <trkpt lat="46.37294" lon="2.54521">
        <ele>239.4</ele>
        <time>2018-10-14T09:23:43Z</time>
      </trkpt>
      <trkpt lat="46.37287" lon="2.54526">
        <ele>240.5</ele>
        <time>2018-10-14T09:23:45Z</time>
      </trkpt>
      <trkpt lat="46.37279" lon="2.54533">
        <ele>239.7</ele>
        <time>2018-10-14T09:23:47Z</time>
      </trkpt>
      <trkpt lat="46.37275" lon="2.54536">
        <ele>239.4</ele>
        <time>2018-10-14T09:23:48Z</time>
      </trkpt>
      <trkpt lat="46.37271" lon="2.54539">
        <ele>239.9</ele>
        <time>2018-10-14T09:23:49Z</time>
      </trkpt>
      <trkpt lat="46.37263" lon="2.54546">
        <ele>240.6</ele>
        <time>2018-10-14T09:23:51Z</time>
      </trkpt>
      <trkpt lat="46.3726" lon="2.54549">
        <ele>240.8</ele>
        <time>2018-10-14T09:23:52Z</time>
      </trkpt>
      <trkpt lat="46.37252" lon="2.54556">
        <ele>241</ele>
        <time>2018-10-14T09:23:54Z</time>
      </trkpt>
      <trkpt lat="46.37246" lon="2.54565">
        <ele>240.7</ele>
        <time>2018-10-14T09:23:56Z</time>
      </trkpt>
      <trkpt lat="46.37242" lon="2.5457">
        <ele>240.4</ele>
        <time>2018-10-14T09:23:57Z</time>
      </trkpt>
      <trkpt lat="46.37239" lon="2.54574">
        <ele>240.7</ele>
        <time>2018-10-14T09:23:58Z</time>
      </trkpt>
      <trkpt lat="46.37236" lon="2.54579">
        <ele>240.9</ele>
        <time>2018-10-14T09:23:59Z</time>
      </trkpt>
      <trkpt lat="46.37232" lon="2.54585">
        <ele>240.8</ele>
        <time>2018-10-14T09:24:00Z</time>
      </trkpt>
      <trkpt lat="46.37229" lon="2.5459">
        <ele>240.7</ele>
        <time>2018-10-14T09:24:01Z</time>
      </trkpt>
      <trkpt lat="46.37226" lon="2.54596">
        <ele>240.7</ele>
        <time>2018-10-14T09:24:02Z</time>
      </trkpt>
      <trkpt lat="46.37222" lon="2.54602">
        <ele>240.5</ele>
        <time>2018-10-14T09:24:03Z</time>
      </trkpt>
      <trkpt lat="46.37218" lon="2.54608">
        <ele>240.4</ele>
        <time>2018-10-14T09:24:04Z</time>
      </trkpt>
      <trkpt lat="46.37215" lon="2.54615">
        <ele>240.3</ele>
        <time>2018-10-14T09:24:05Z</time>
      </trkpt>
      <trkpt lat="46.37211" lon="2.54621">
        <ele>240.3</ele>
        <time>2018-10-14T09:24:06Z</time>
      </trkpt>
      <trkpt lat="46.37207" lon="2.54627">
        <ele>240.3</ele>
        <time>2018-10-14T09:24:07Z</time>
      </trkpt>
      <trkpt lat="46.37204" lon="2.54633">
        <ele>240</ele>
        <time>2018-10-14T09:24:08Z</time>
      </trkpt>
      <trkpt lat="46.372" lon="2.54639">
        <ele>239.8</ele>
        <time>2018-10-14T09:24:09Z</time>
      </trkpt>
      <trkpt lat="46.37196" lon="2.54645">
        <ele>239.7</ele>
        <time>2018-10-14T09:24:10Z</time>
      </trkpt>
      <trkpt lat="46.37193" lon="2.54652">
        <ele>239.7</ele>
        <time>2018-10-14T09:24:11Z</time>
      </trkpt>
      <trkpt lat="46.37189" lon="2.54657">
        <ele>239.8</ele>
        <time>2018-10-14T09:24:12Z</time>
      </trkpt>
      <trkpt lat="46.37185" lon="2.54663">
        <ele>240</ele>
        <time>2018-10-14T09:24:13Z</time>
      </trkpt>
      <trkpt lat="46.37182" lon="2.54669">
        <ele>240.1</ele>
        <time>2018-10-14T09:24:14Z</time>
      </trkpt>
      <trkpt lat="46.37178" lon="2.54675">
        <ele>239.9</ele>
        <time>2018-10-14T09:24:15Z</time>
      </trkpt>
      <trkpt lat="46.37174" lon="2.54681">
        <ele>239.7</ele>
        <time>2018-10-14T09:24:16Z</time>
      </trkpt>
      <trkpt lat="46.3717" lon="2.54687">
        <ele>239.8</ele>
        <time>2018-10-14T09:24:17Z</time>
      </trkpt>
      <trkpt lat="46.37166" lon="2.54692">
        <ele>239.9</ele>
        <time>2018-10-14T09:24:18Z</time>
      </trkpt>
      <trkpt lat="46.37162" lon="2.54697">
        <ele>239.6</ele>
        <time>2018-10-14T09:24:19Z</time>
      </trkpt>
      <trkpt lat="46.37158" lon="2.54702">
        <ele>239.3</ele>
        <time>2018-10-14T09:24:20Z</time>
      </trkpt>
      <trkpt lat="46.37154" lon="2.54707">
        <ele>239.1</ele>
        <time>2018-10-14T09:24:21Z</time>
      </trkpt>
      <trkpt lat="46.37149" lon="2.54712">
        <ele>239.6</ele>
        <time>2018-10-14T09:24:22Z</time>
      </trkpt>
      <trkpt lat="46.37145" lon="2.54716">
        <ele>240</ele>
        <time>2018-10-14T09:24:23Z</time>
      </trkpt>
      <trkpt lat="46.3714" lon="2.5472">
        <ele>239.7</ele>
        <time>2018-10-14T09:24:24Z</time>
      </trkpt>
      <trkpt lat="46.37136" lon="2.54725">
        <ele>239.5</ele>
        <time>2018-10-14T09:24:25Z</time>
      </trkpt>
      <trkpt lat="46.37131" lon="2.54729">
        <ele>239.5</ele>
        <time>2018-10-14T09:24:26Z</time>
      </trkpt>
      <trkpt lat="46.37126" lon="2.54732">
        <ele>239.5</ele>
        <time>2018-10-14T09:24:27Z</time>
      </trkpt>
      <trkpt lat="46.37122" lon="2.54736">
        <ele>239.5</ele>
        <time>2018-10-14T09:24:28Z</time>
      </trkpt>
      <trkpt lat="46.37117" lon="2.5474">
        <ele>239.2</ele>
        <time>2018-10-14T09:24:29Z</time>
      </trkpt>
      <trkpt lat="46.37112" lon="2.54744">
        <ele>239</ele>
        <time>2018-10-14T09:24:30Z</time>
      </trkpt>
      <trkpt lat="46.37107" lon="2.54748">
        <ele>239.3</ele>
        <time>2018-10-14T09:24:31Z</time>
      </trkpt>
      <trkpt lat="46.37103" lon="2.54752">
        <ele>239.5</ele>
        <time>2018-10-14T09:24:32Z</time>
      </trkpt>
      <trkpt lat="46.37098" lon="2.54757">
        <ele>239.7</ele>
        <time>2018-10-14T09:24:33Z</time>
      </trkpt>
      <trkpt lat="46.37093" lon="2.54762">
        <ele>239</ele>
        <time>2018-10-14T09:24:34Z</time>
      </trkpt>
      <trkpt lat="46.37088" lon="2.54766">
        <ele>238.5</ele>
        <time>2018-10-14T09:24:35Z</time>
      </trkpt>
      <trkpt lat="46.37083" lon="2.5477">
        <ele>238.5</ele>
        <time>2018-10-14T09:24:36Z</time>
      </trkpt>
      <trkpt lat="46.37079" lon="2.54774">
        <ele>238.5</ele>
        <time>2018-10-14T09:24:37Z</time>
      </trkpt>
      <trkpt lat="46.37074" lon="2.54779">
        <ele>238.4</ele>
        <time>2018-10-14T09:24:38Z</time>
      </trkpt>
      <trkpt lat="46.37069" lon="2.54784">
        <ele>238.3</ele>
        <time>2018-10-14T09:24:39Z</time>
      </trkpt>
      <trkpt lat="46.37064" lon="2.54788">
        <ele>238.2</ele>
        <time>2018-10-14T09:24:40Z</time>
      </trkpt>
      <trkpt lat="46.37059" lon="2.54793">
        <ele>238.2</ele>
        <time>2018-10-14T09:24:41Z</time>
      </trkpt>
      <trkpt lat="46.37054" lon="2.54797">
        <ele>238.2</ele>
        <time>2018-10-14T09:24:42Z</time>
      </trkpt>
      <trkpt lat="46.37049" lon="2.54802">
        <ele>237.9</ele>
        <time>2018-10-14T09:24:43Z</time>
      </trkpt>
      <trkpt lat="46.37044" lon="2.54807">
        <ele>237.6</ele>
        <time>2018-10-14T09:24:44Z</time>
      </trkpt>
      <trkpt lat="46.3704" lon="2.54811">
        <ele>237.9</ele>
        <time>2018-10-14T09:24:45Z</time>
      </trkpt>
      <trkpt lat="46.37035" lon="2.54815">
        <ele>238.1</ele>
        <time>2018-10-14T09:24:46Z</time>
      </trkpt>
      <trkpt lat="46.3703" lon="2.5482">
        <ele>238.2</ele>
        <time>2018-10-14T09:24:47Z</time>
      </trkpt>
      <trkpt lat="46.37025" lon="2.54824">
        <ele>238.3</ele>
        <time>2018-10-14T09:24:48Z</time>
      </trkpt>
      <trkpt lat="46.37021" lon="2.54828">
        <ele>238.3</ele>
        <time>2018-10-14T09:24:49Z</time>
      </trkpt>
      <trkpt lat="46.37016" lon="2.54832">
        <ele>238.4</ele>
        <time>2018-10-14T09:24:50Z</time>
      </trkpt>
      <trkpt lat="46.37011" lon="2.54835">
        <ele>238.4</ele>
        <time>2018-10-14T09:24:51Z</time>
      </trkpt>
      <trkpt lat="46.37006" lon="2.54839">
        <ele>238.5</ele>
        <time>2018-10-14T09:24:52Z</time>
      </trkpt>
      <trkpt lat="46.37001" lon="2.54844">
        <ele>238.5</ele>
        <time>2018-10-14T09:24:53Z</time>
      </trkpt>
      <trkpt lat="46.36996" lon="2.54848">
        <ele>238.4</ele>
        <time>2018-10-14T09:24:54Z</time>
      </trkpt>
      <trkpt lat="46.36991" lon="2.54852">
        <ele>238.1</ele>
        <time>2018-10-14T09:24:55Z</time>
      </trkpt>
      <trkpt lat="46.36987" lon="2.54857">
        <ele>237.8</ele>
        <time>2018-10-14T09:24:56Z</time>
      </trkpt>
      <trkpt lat="46.36982" lon="2.54861">
        <ele>237.8</ele>
        <time>2018-10-14T09:24:57Z</time>
      </trkpt>
      <trkpt lat="46.36977" lon="2.54865">
        <ele>237.8</ele>
        <time>2018-10-14T09:24:58Z</time>
      </trkpt>
      <trkpt lat="46.36972" lon="2.54869">
        <ele>237.8</ele>
        <time>2018-10-14T09:24:59Z</time>
      </trkpt>
      <trkpt lat="46.36967" lon="2.54874">
        <ele>237.8</ele>
        <time>2018-10-14T09:25:00Z</time>
      </trkpt>
      <trkpt lat="46.36962" lon="2.54877">
        <ele>237.8</ele>
        <time>2018-10-14T09:25:01Z</time>
      </trkpt>
      <trkpt lat="46.36957" lon="2.54881">
        <ele>237.5</ele>
        <time>2018-10-14T09:25:02Z</time>
      </trkpt>
      <trkpt lat="46.36952" lon="2.54885">
        <ele>237.2</ele>
        <time>2018-10-14T09:25:03Z</time>
      </trkpt>
      <trkpt lat="46.36947" lon="2.54888">
        <ele>237</ele>
        <time>2018-10-14T09:25:04Z</time>
      </trkpt>
      <trkpt lat="46.36942" lon="2.54891">
        <ele>236.9</ele>
        <time>2018-10-14T09:25:05Z</time>
      </trkpt>
      <trkpt lat="46.36937" lon="2.54894">
        <ele>236.8</ele>
        <time>2018-10-14T09:25:06Z</time>
      </trkpt>
      <trkpt lat="46.36932" lon="2.54897">
        <ele>236.9</ele>
        <time>2018-10-14T09:25:07Z</time>
      </trkpt>
      <trkpt lat="46.36924" lon="2.54901">
        <ele>236.9</ele>
        <time>2018-10-14T09:25:09Z</time>
      </trkpt>
      <trkpt lat="46.36915" lon="2.54902">
        <ele>236.5</ele>
        <time>2018-10-14T09:25:13Z</time>
      </trkpt>
      <trkpt lat="46.3691" lon="2.54903">
        <ele>235.8</ele>
        <time>2018-10-14T09:25:15Z</time>
      </trkpt>
      <trkpt lat="46.36902" lon="2.54909">
        <ele>235.8</ele>
        <time>2018-10-14T09:25:17Z</time>
      </trkpt>
      <trkpt lat="46.36897" lon="2.54911">
        <ele>235.8</ele>
        <time>2018-10-14T09:25:18Z</time>
      </trkpt>
      <trkpt lat="46.36892" lon="2.54914">
        <ele>236.1</ele>
        <time>2018-10-14T09:25:19Z</time>
      </trkpt>
      <trkpt lat="46.36886" lon="2.54918">
        <ele>236.3</ele>
        <time>2018-10-14T09:25:20Z</time>
      </trkpt>
      <trkpt lat="46.36881" lon="2.54921">
        <ele>236.2</ele>
        <time>2018-10-14T09:25:21Z</time>
      </trkpt>
      <trkpt lat="46.36875" lon="2.54925">
        <ele>236.1</ele>
        <time>2018-10-14T09:25:22Z</time>
      </trkpt>
      <trkpt lat="46.36871" lon="2.5493">
        <ele>236.1</ele>
        <time>2018-10-14T09:25:23Z</time>
      </trkpt>
      <trkpt lat="46.36867" lon="2.54936">
        <ele>236.1</ele>
        <time>2018-10-14T09:25:24Z</time>
      </trkpt>
      <trkpt lat="46.36863" lon="2.54943">
        <ele>236.1</ele>
        <time>2018-10-14T09:25:25Z</time>
      </trkpt>
      <trkpt lat="46.3686" lon="2.54949">
        <ele>236.4</ele>
        <time>2018-10-14T09:25:26Z</time>
      </trkpt>
      <trkpt lat="46.36857" lon="2.54955">
        <ele>236.6</ele>
        <time>2018-10-14T09:25:27Z</time>
      </trkpt>
      <trkpt lat="46.36854" lon="2.54961">
        <ele>236.9</ele>
        <time>2018-10-14T09:25:28Z</time>
      </trkpt>
      <trkpt lat="46.36851" lon="2.54967">
        <ele>237.1</ele>
        <time>2018-10-14T09:25:29Z</time>
      </trkpt>
      <trkpt lat="46.36848" lon="2.54972">
        <ele>236.8</ele>
        <time>2018-10-14T09:25:30Z</time>
      </trkpt>
      <trkpt lat="46.36845" lon="2.54977">
        <ele>236.6</ele>
        <time>2018-10-14T09:25:31Z</time>
      </trkpt>
      <trkpt lat="46.36841" lon="2.54983">
        <ele>236.4</ele>
        <time>2018-10-14T09:25:32Z</time>
      </trkpt>
      <trkpt lat="46.36838" lon="2.54988">
        <ele>236.3</ele>
        <time>2018-10-14T09:25:33Z</time>
      </trkpt>
      <trkpt lat="46.36835" lon="2.54994">
        <ele>236.2</ele>
        <time>2018-10-14T09:25:34Z</time>
      </trkpt>
      <trkpt lat="46.36833" lon="2.54999">
        <ele>236.4</ele>
        <time>2018-10-14T09:25:35Z</time>
      </trkpt>
      <trkpt lat="46.3683" lon="2.55005">
        <ele>236.5</ele>
        <time>2018-10-14T09:25:36Z</time>
      </trkpt>
      <trkpt lat="46.36826" lon="2.5501">
        <ele>236.6</ele>
        <time>2018-10-14T09:25:37Z</time>
      </trkpt>
      <trkpt lat="46.36823" lon="2.55016">
        <ele>236.4</ele>
        <time>2018-10-14T09:25:38Z</time>
      </trkpt>
      <trkpt lat="46.36819" lon="2.55021">
        <ele>236.3</ele>
        <time>2018-10-14T09:25:39Z</time>
      </trkpt>
      <trkpt lat="46.36815" lon="2.55026">
        <ele>236.3</ele>
        <time>2018-10-14T09:25:40Z</time>
      </trkpt>
      <trkpt lat="46.36811" lon="2.5503">
        <ele>236.4</ele>
        <time>2018-10-14T09:25:41Z</time>
      </trkpt>
      <trkpt lat="46.36806" lon="2.55033">
        <ele>236</ele>
        <time>2018-10-14T09:25:42Z</time>
      </trkpt>
      <trkpt lat="46.36801" lon="2.55036">
        <ele>235.7</ele>
        <time>2018-10-14T09:25:43Z</time>
      </trkpt>
      <trkpt lat="46.36795" lon="2.55038">
        <ele>235.5</ele>
        <time>2018-10-14T09:25:44Z</time>
      </trkpt>
      <trkpt lat="46.3679" lon="2.55039">
        <ele>235.5</ele>
        <time>2018-10-14T09:25:45Z</time>
      </trkpt>
      <trkpt lat="46.36785" lon="2.55041">
        <ele>235.6</ele>
        <time>2018-10-14T09:25:46Z</time>
      </trkpt>
      <trkpt lat="46.36779" lon="2.55042">
        <ele>235.8</ele>
        <time>2018-10-14T09:25:47Z</time>
      </trkpt>
      <trkpt lat="46.36774" lon="2.55043">
        <ele>236</ele>
        <time>2018-10-14T09:25:48Z</time>
      </trkpt>
      <trkpt lat="46.36768" lon="2.55045">
        <ele>235.7</ele>
        <time>2018-10-14T09:25:49Z</time>
      </trkpt>
      <trkpt lat="46.36763" lon="2.55046">
        <ele>235.4</ele>
        <time>2018-10-14T09:25:50Z</time>
      </trkpt>
      <trkpt lat="46.36758" lon="2.55048">
        <ele>235.2</ele>
        <time>2018-10-14T09:25:51Z</time>
      </trkpt>
      <trkpt lat="46.36752" lon="2.55049">
        <ele>235.2</ele>
        <time>2018-10-14T09:25:52Z</time>
      </trkpt>
      <trkpt lat="46.36746" lon="2.55051">
        <ele>235.2</ele>
        <time>2018-10-14T09:25:53Z</time>
      </trkpt>
      <trkpt lat="46.36741" lon="2.55052">
        <ele>235.5</ele>
        <time>2018-10-14T09:25:54Z</time>
      </trkpt>
      <trkpt lat="46.36736" lon="2.55053">
        <ele>235.7</ele>
        <time>2018-10-14T09:25:55Z</time>
      </trkpt>
      <trkpt lat="46.3673" lon="2.55055">
        <ele>235.8</ele>
        <time>2018-10-14T09:25:56Z</time>
      </trkpt>
      <trkpt lat="46.36724" lon="2.55056">
        <ele>235.8</ele>
        <time>2018-10-14T09:25:57Z</time>
      </trkpt>
      <trkpt lat="46.36719" lon="2.55057">
        <ele>235.9</ele>
        <time>2018-10-14T09:25:58Z</time>
      </trkpt>
      <trkpt lat="46.36714" lon="2.55058">
        <ele>236.2</ele>
        <time>2018-10-14T09:25:59Z</time>
      </trkpt>
      <trkpt lat="46.36709" lon="2.5506">
        <ele>236.4</ele>
        <time>2018-10-14T09:26:00Z</time>
      </trkpt>
      <trkpt lat="46.36704" lon="2.55061">
        <ele>236.3</ele>
        <time>2018-10-14T09:26:01Z</time>
      </trkpt>
      <trkpt lat="46.36699" lon="2.55063">
        <ele>236.2</ele>
        <time>2018-10-14T09:26:02Z</time>
      </trkpt>
      <trkpt lat="46.36694" lon="2.55064">
        <ele>236.1</ele>
        <time>2018-10-14T09:26:03Z</time>
      </trkpt>
      <trkpt lat="46.36688" lon="2.55066">
        <ele>236.1</ele>
        <time>2018-10-14T09:26:04Z</time>
      </trkpt>
      <trkpt lat="46.36683" lon="2.55067">
        <ele>236</ele>
        <time>2018-10-14T09:26:05Z</time>
      </trkpt>
      <trkpt lat="46.36678" lon="2.55069">
        <ele>236.4</ele>
        <time>2018-10-14T09:26:06Z</time>
      </trkpt>
      <trkpt lat="46.36672" lon="2.55071">
        <ele>236.7</ele>
        <time>2018-10-14T09:26:07Z</time>
      </trkpt>
      <trkpt lat="46.36667" lon="2.55073">
        <ele>236.6</ele>
        <time>2018-10-14T09:26:08Z</time>
      </trkpt>
      <trkpt lat="46.36662" lon="2.55075">
        <ele>236.6</ele>
        <time>2018-10-14T09:26:09Z</time>
      </trkpt>
      <trkpt lat="46.36657" lon="2.55076">
        <ele>236.6</ele>
        <time>2018-10-14T09:26:10Z</time>
      </trkpt>
      <trkpt lat="46.36652" lon="2.55078">
        <ele>236.1</ele>
        <time>2018-10-14T09:26:11Z</time>
      </trkpt>
      <trkpt lat="46.36646" lon="2.5508">
        <ele>235.8</ele>
        <time>2018-10-14T09:26:12Z</time>
      </trkpt>
      <trkpt lat="46.36641" lon="2.55082">
        <ele>235.5</ele>
        <time>2018-10-14T09:26:13Z</time>
      </trkpt>
      <trkpt lat="46.36636" lon="2.55085">
        <ele>235.2</ele>
        <time>2018-10-14T09:26:14Z</time>
      </trkpt>
      <trkpt lat="46.36631" lon="2.55087">
        <ele>235</ele>
        <time>2018-10-14T09:26:15Z</time>
      </trkpt>
      <trkpt lat="46.36626" lon="2.5509">
        <ele>235.3</ele>
        <time>2018-10-14T09:26:16Z</time>
      </trkpt>
      <trkpt lat="46.3662" lon="2.55093">
        <ele>235.4</ele>
        <time>2018-10-14T09:26:17Z</time>
      </trkpt>
      <trkpt lat="46.36615" lon="2.55095">
        <ele>235.6</ele>
        <time>2018-10-14T09:26:18Z</time>
      </trkpt>
      <trkpt lat="46.3661" lon="2.55098">
        <ele>235.7</ele>
        <time>2018-10-14T09:26:19Z</time>
      </trkpt>
      <trkpt lat="46.36604" lon="2.551">
        <ele>235</ele>
        <time>2018-10-14T09:26:20Z</time>
      </trkpt>
      <trkpt lat="46.36599" lon="2.55104">
        <ele>234.5</ele>
        <time>2018-10-14T09:26:21Z</time>
      </trkpt>
      <trkpt lat="46.36594" lon="2.55108">
        <ele>234</ele>
        <time>2018-10-14T09:26:22Z</time>
      </trkpt>
      <trkpt lat="46.3659" lon="2.55112">
        <ele>234.3</ele>
        <time>2018-10-14T09:26:23Z</time>
      </trkpt>
      <trkpt lat="46.36585" lon="2.55117">
        <ele>234.5</ele>
        <time>2018-10-14T09:26:24Z</time>
      </trkpt>
      <trkpt lat="46.36581" lon="2.55122">
        <ele>234.9</ele>
        <time>2018-10-14T09:26:25Z</time>
      </trkpt>
      <trkpt lat="46.36578" lon="2.55128">
        <ele>235.1</ele>
        <time>2018-10-14T09:26:26Z</time>
      </trkpt>
      <trkpt lat="46.36574" lon="2.55133">
        <ele>235.3</ele>
        <time>2018-10-14T09:26:27Z</time>
      </trkpt>
      <trkpt lat="46.36571" lon="2.55139">
        <ele>235.7</ele>
        <time>2018-10-14T09:26:28Z</time>
      </trkpt>
      <trkpt lat="46.36568" lon="2.55145">
        <ele>236</ele>
        <time>2018-10-14T09:26:29Z</time>
      </trkpt>
      <trkpt lat="46.36564" lon="2.55151">
        <ele>236.2</ele>
        <time>2018-10-14T09:26:30Z</time>
      </trkpt>
      <trkpt lat="46.36561" lon="2.55157">
        <ele>236.2</ele>
        <time>2018-10-14T09:26:31Z</time>
      </trkpt>
      <trkpt lat="46.36558" lon="2.55163">
        <ele>236.1</ele>
        <time>2018-10-14T09:26:32Z</time>
      </trkpt>
      <trkpt lat="46.36554" lon="2.55169">
        <ele>236</ele>
        <time>2018-10-14T09:26:33Z</time>
      </trkpt>
      <trkpt lat="46.36551" lon="2.55175">
        <ele>235.9</ele>
        <time>2018-10-14T09:26:34Z</time>
      </trkpt>
      <trkpt lat="46.36548" lon="2.5518">
        <ele>235.9</ele>
        <time>2018-10-14T09:26:35Z</time>
      </trkpt>
      <trkpt lat="46.36545" lon="2.55186">
        <ele>235.9</ele>
        <time>2018-10-14T09:26:36Z</time>
      </trkpt>
      <trkpt lat="46.36542" lon="2.55192">
        <ele>235.4</ele>
        <time>2018-10-14T09:26:37Z</time>
      </trkpt>
      <trkpt lat="46.36538" lon="2.55197">
        <ele>235.1</ele>
        <time>2018-10-14T09:26:38Z</time>
      </trkpt>
      <trkpt lat="46.36535" lon="2.55202">
        <ele>235.1</ele>
        <time>2018-10-14T09:26:39Z</time>
      </trkpt>
      <trkpt lat="46.36531" lon="2.55207">
        <ele>235.1</ele>
        <time>2018-10-14T09:26:40Z</time>
      </trkpt>
      <trkpt lat="46.36528" lon="2.55211">
        <ele>235.1</ele>
        <time>2018-10-14T09:26:41Z</time>
      </trkpt>
      <trkpt lat="46.36521" lon="2.55219">
        <ele>234.7</ele>
        <time>2018-10-14T09:26:43Z</time>
      </trkpt>
      <trkpt lat="46.36514" lon="2.55227">
        <ele>235.1</ele>
        <time>2018-10-14T09:26:45Z</time>
      </trkpt>
      <trkpt lat="46.36508" lon="2.55236">
        <ele>234.9</ele>
        <time>2018-10-14T09:26:47Z</time>
      </trkpt>
      <trkpt lat="46.36505" lon="2.55241">
        <ele>234.8</ele>
        <time>2018-10-14T09:26:48Z</time>
      </trkpt>
      <trkpt lat="46.36501" lon="2.55246">
        <ele>234.9</ele>
        <time>2018-10-14T09:26:49Z</time>
      </trkpt>
      <trkpt lat="46.36498" lon="2.5525">
        <ele>235</ele>
        <time>2018-10-14T09:26:50Z</time>
      </trkpt>
      <trkpt lat="46.36492" lon="2.55259">
        <ele>235.5</ele>
        <time>2018-10-14T09:26:52Z</time>
      </trkpt>
      <trkpt lat="46.36486" lon="2.55268">
        <ele>235.7</ele>
        <time>2018-10-14T09:26:54Z</time>
      </trkpt>
      <trkpt lat="46.36483" lon="2.55272">
        <ele>235.8</ele>
        <time>2018-10-14T09:26:55Z</time>
      </trkpt>
      <trkpt lat="46.36474" lon="2.55283">
        <ele>236.2</ele>
        <time>2018-10-14T09:26:58Z</time>
      </trkpt>
      <trkpt lat="46.36469" lon="2.55291">
        <ele>236.1</ele>
        <time>2018-10-14T09:27:00Z</time>
      </trkpt>
      <trkpt lat="46.36463" lon="2.55299">
        <ele>236.1</ele>
        <time>2018-10-14T09:27:02Z</time>
      </trkpt>
      <trkpt lat="46.36457" lon="2.55307">
        <ele>235.8</ele>
        <time>2018-10-14T09:27:04Z</time>
      </trkpt>
      <trkpt lat="46.36451" lon="2.55316">
        <ele>236.4</ele>
        <time>2018-10-14T09:27:06Z</time>
      </trkpt>
      <trkpt lat="46.36446" lon="2.55324">
        <ele>236.3</ele>
        <time>2018-10-14T09:27:08Z</time>
      </trkpt>
      <trkpt lat="46.36441" lon="2.55332">
        <ele>235.6</ele>
        <time>2018-10-14T09:27:10Z</time>
      </trkpt>
      <trkpt lat="46.36436" lon="2.5534">
        <ele>235.1</ele>
        <time>2018-10-14T09:27:12Z</time>
      </trkpt>
      <trkpt lat="46.3643" lon="2.55348">
        <ele>235.3</ele>
        <time>2018-10-14T09:27:14Z</time>
      </trkpt>
      <trkpt lat="46.36424" lon="2.55356">
        <ele>236.3</ele>
        <time>2018-10-14T09:27:16Z</time>
      </trkpt>
      <trkpt lat="46.36418" lon="2.55364">
        <ele>235.9</ele>
        <time>2018-10-14T09:27:18Z</time>
      </trkpt>
      <trkpt lat="46.36412" lon="2.55371">
        <ele>235.7</ele>
        <time>2018-10-14T09:27:20Z</time>
      </trkpt>
      <trkpt lat="46.36405" lon="2.55376">
        <ele>235.2</ele>
        <time>2018-10-14T09:27:22Z</time>
      </trkpt>
      <trkpt lat="46.36398" lon="2.55372">
        <ele>235.2</ele>
        <time>2018-10-14T09:27:24Z</time>
      </trkpt>
      <trkpt lat="46.36392" lon="2.55364">
        <ele>235.6</ele>
        <time>2018-10-14T09:27:26Z</time>
      </trkpt>
      <trkpt lat="46.36387" lon="2.55356">
        <ele>235.4</ele>
        <time>2018-10-14T09:27:28Z</time>
      </trkpt>
      <trkpt lat="46.36382" lon="2.55348">
        <ele>235.6</ele>
        <time>2018-10-14T09:27:30Z</time>
      </trkpt>
      <trkpt lat="46.36377" lon="2.5534">
        <ele>236</ele>
        <time>2018-10-14T09:27:32Z</time>
      </trkpt>
      <trkpt lat="46.36372" lon="2.55331">
        <ele>236.8</ele>
        <time>2018-10-14T09:27:34Z</time>
      </trkpt>
      <trkpt lat="46.36367" lon="2.55323">
        <ele>237.3</ele>
        <time>2018-10-14T09:27:36Z</time>
      </trkpt>
      <trkpt lat="46.36362" lon="2.55314">
        <ele>237.5</ele>
        <time>2018-10-14T09:27:38Z</time>
      </trkpt>
      <trkpt lat="46.36356" lon="2.55305">
        <ele>237.8</ele>
        <time>2018-10-14T09:27:40Z</time>
      </trkpt>
      <trkpt lat="46.36351" lon="2.55296">
        <ele>237.6</ele>
        <time>2018-10-14T09:27:42Z</time>
      </trkpt>
      <trkpt lat="46.36345" lon="2.55287">
        <ele>237.8</ele>
        <time>2018-10-14T09:27:44Z</time>
      </trkpt>
      <trkpt lat="46.3634" lon="2.55278">
        <ele>237.5</ele>
        <time>2018-10-14T09:27:46Z</time>
      </trkpt>
      <trkpt lat="46.36335" lon="2.5527">
        <ele>237.4</ele>
        <time>2018-10-14T09:27:48Z</time>
      </trkpt>
      <trkpt lat="46.3633" lon="2.55261">
        <ele>237.4</ele>
        <time>2018-10-14T09:27:50Z</time>
      </trkpt>
      <trkpt lat="46.36325" lon="2.55253">
        <ele>237.1</ele>
        <time>2018-10-14T09:27:52Z</time>
      </trkpt>
      <trkpt lat="46.3632" lon="2.55244">
        <ele>237.9</ele>
        <time>2018-10-14T09:27:54Z</time>
      </trkpt>
      <trkpt lat="46.36315" lon="2.55236">
        <ele>238.5</ele>
        <time>2018-10-14T09:27:56Z</time>
      </trkpt>
      <trkpt lat="46.36312" lon="2.55231">
        <ele>238.7</ele>
        <time>2018-10-14T09:27:57Z</time>
      </trkpt>
      <trkpt lat="46.36305" lon="2.55219">
        <ele>238.7</ele>
        <time>2018-10-14T09:28:00Z</time>
      </trkpt>
      <trkpt lat="46.363" lon="2.5521">
        <ele>238.5</ele>
        <time>2018-10-14T09:28:02Z</time>
      </trkpt>
      <trkpt lat="46.36295" lon="2.55202">
        <ele>238.1</ele>
        <time>2018-10-14T09:28:04Z</time>
      </trkpt>
      <trkpt lat="46.3629" lon="2.55193">
        <ele>238.2</ele>
        <time>2018-10-14T09:28:06Z</time>
      </trkpt>
      <trkpt lat="46.36285" lon="2.55185">
        <ele>238.5</ele>
        <time>2018-10-14T09:28:08Z</time>
      </trkpt>
      <trkpt lat="46.3628" lon="2.55176">
        <ele>239.1</ele>
        <time>2018-10-14T09:28:10Z</time>
      </trkpt>
      <trkpt lat="46.36275" lon="2.55167">
        <ele>239.3</ele>
        <time>2018-10-14T09:28:12Z</time>
      </trkpt>
      <trkpt lat="46.36269" lon="2.55159">
        <ele>239</ele>
        <time>2018-10-14T09:28:14Z</time>
      </trkpt>
      <trkpt lat="46.36264" lon="2.5515">
        <ele>238.5</ele>
        <time>2018-10-14T09:28:16Z</time>
      </trkpt>
      <trkpt lat="46.36259" lon="2.55141">
        <ele>237.9</ele>
        <time>2018-10-14T09:28:18Z</time>
      </trkpt>
      <trkpt lat="46.36254" lon="2.55132">
        <ele>237.8</ele>
        <time>2018-10-14T09:28:20Z</time>
      </trkpt>
      <trkpt lat="46.36249" lon="2.55124">
        <ele>238.7</ele>
        <time>2018-10-14T09:28:22Z</time>
      </trkpt>
      <trkpt lat="46.36244" lon="2.55115">
        <ele>239</ele>
        <time>2018-10-14T09:28:24Z</time>
      </trkpt>
      <trkpt lat="46.36239" lon="2.55106">
        <ele>239.1</ele>
        <time>2018-10-14T09:28:26Z</time>
      </trkpt>
      <trkpt lat="46.36233" lon="2.55097">
        <ele>239.6</ele>
        <time>2018-10-14T09:28:28Z</time>
      </trkpt>
      <trkpt lat="46.36228" lon="2.55088">
        <ele>240.1</ele>
        <time>2018-10-14T09:28:30Z</time>
      </trkpt>
      <trkpt lat="46.36223" lon="2.55079">
        <ele>240</ele>
        <time>2018-10-14T09:28:32Z</time>
      </trkpt>
      <trkpt lat="46.36217" lon="2.55073">
        <ele>239.4</ele>
        <time>2018-10-14T09:28:34Z</time>
      </trkpt>
      <trkpt lat="46.3621" lon="2.55075">
        <ele>239.4</ele>
        <time>2018-10-14T09:28:36Z</time>
      </trkpt>
      <trkpt lat="46.36205" lon="2.55083">
        <ele>239.3</ele>
        <time>2018-10-14T09:28:38Z</time>
      </trkpt>
      <trkpt lat="46.36201" lon="2.55092">
        <ele>238.6</ele>
        <time>2018-10-14T09:28:40Z</time>
      </trkpt>
      <trkpt lat="46.36196" lon="2.55099">
        <ele>237.8</ele>
        <time>2018-10-14T09:28:42Z</time>
      </trkpt>
      <trkpt lat="46.36192" lon="2.55108">
        <ele>237.8</ele>
        <time>2018-10-14T09:28:44Z</time>
      </trkpt>
      <trkpt lat="46.36187" lon="2.55118">
        <ele>238.6</ele>
        <time>2018-10-14T09:28:46Z</time>
      </trkpt>
      <trkpt lat="46.36183" lon="2.55127">
        <ele>238.6</ele>
        <time>2018-10-14T09:28:48Z</time>
      </trkpt>
      <trkpt lat="46.36178" lon="2.55136">
        <ele>238.7</ele>
        <time>2018-10-14T09:28:50Z</time>
      </trkpt>
      <trkpt lat="46.36174" lon="2.55146">
        <ele>238.8</ele>
        <time>2018-10-14T09:28:52Z</time>
      </trkpt>
      <trkpt lat="46.3617" lon="2.55155">
        <ele>238.7</ele>
        <time>2018-10-14T09:28:54Z</time>
      </trkpt>
      <trkpt lat="46.36165" lon="2.55164">
        <ele>238.8</ele>
        <time>2018-10-14T09:28:56Z</time>
      </trkpt>
      <trkpt lat="46.3616" lon="2.55174">
        <ele>238.7</ele>
        <time>2018-10-14T09:28:58Z</time>
      </trkpt>
      <trkpt lat="46.36158" lon="2.55178">
        <ele>238.7</ele>
        <time>2018-10-14T09:28:59Z</time>
      </trkpt>
      <trkpt lat="46.36151" lon="2.55193">
        <ele>238.8</ele>
        <time>2018-10-14T09:29:02Z</time>
      </trkpt>
      <trkpt lat="46.36147" lon="2.55203">
        <ele>239</ele>
        <time>2018-10-14T09:29:04Z</time>
      </trkpt>
      <trkpt lat="46.36144" lon="2.55212">
        <ele>239.4</ele>
        <time>2018-10-14T09:29:06Z</time>
      </trkpt>
      <trkpt lat="46.36139" lon="2.5522">
        <ele>239.8</ele>
        <time>2018-10-14T09:29:08Z</time>
      </trkpt>
      <trkpt lat="46.36135" lon="2.55224">
        <ele>239.9</ele>
        <time>2018-10-14T09:29:09Z</time>
      </trkpt>
      <trkpt lat="46.36131" lon="2.55235">
        <ele>240</ele>
        <time>2018-10-14T09:29:11Z</time>
      </trkpt>
      <trkpt lat="46.36129" lon="2.55247">
        <ele>240</ele>
        <time>2018-10-14T09:29:13Z</time>
      </trkpt>
      <trkpt lat="46.36128" lon="2.55253">
        <ele>240.3</ele>
        <time>2018-10-14T09:29:14Z</time>
      </trkpt>
      <trkpt lat="46.36127" lon="2.5526">
        <ele>240.6</ele>
        <time>2018-10-14T09:29:15Z</time>
      </trkpt>
      <trkpt lat="46.36125" lon="2.55272">
        <ele>240.8</ele>
        <time>2018-10-14T09:29:17Z</time>
      </trkpt>
      <trkpt lat="46.36123" lon="2.55284">
        <ele>240.6</ele>
        <time>2018-10-14T09:29:19Z</time>
      </trkpt>
      <trkpt lat="46.36121" lon="2.55295">
        <ele>240.8</ele>
        <time>2018-10-14T09:29:21Z</time>
      </trkpt>
      <trkpt lat="46.36119" lon="2.55306">
        <ele>240.6</ele>
        <time>2018-10-14T09:29:23Z</time>
      </trkpt>
      <trkpt lat="46.36117" lon="2.55316">
        <ele>240.7</ele>
        <time>2018-10-14T09:29:25Z</time>
      </trkpt>
      <trkpt lat="46.36114" lon="2.55327">
        <ele>241.2</ele>
        <time>2018-10-14T09:29:27Z</time>
      </trkpt>
      <trkpt lat="46.36113" lon="2.55338">
        <ele>241.5</ele>
        <time>2018-10-14T09:29:29Z</time>
      </trkpt>
      <trkpt lat="46.36111" lon="2.55348">
        <ele>240.7</ele>
        <time>2018-10-14T09:29:31Z</time>
      </trkpt>
      <trkpt lat="46.36109" lon="2.55359">
        <ele>241</ele>
        <time>2018-10-14T09:29:33Z</time>
      </trkpt>
      <trkpt lat="46.36108" lon="2.5537">
        <ele>241.6</ele>
        <time>2018-10-14T09:29:35Z</time>
      </trkpt>
      <trkpt lat="46.36106" lon="2.5538">
        <ele>242.1</ele>
        <time>2018-10-14T09:29:37Z</time>
      </trkpt>
      <trkpt lat="46.36104" lon="2.5539">
        <ele>242.5</ele>
        <time>2018-10-14T09:29:39Z</time>
      </trkpt>
      <trkpt lat="46.36103" lon="2.55401">
        <ele>243.3</ele>
        <time>2018-10-14T09:29:41Z</time>
      </trkpt>
      <trkpt lat="46.36101" lon="2.55412">
        <ele>243.3</ele>
        <time>2018-10-14T09:29:43Z</time>
      </trkpt>
      <trkpt lat="46.361" lon="2.55423">
        <ele>244.2</ele>
        <time>2018-10-14T09:29:45Z</time>
      </trkpt>
      <trkpt lat="46.36099" lon="2.55435">
        <ele>244.4</ele>
        <time>2018-10-14T09:29:47Z</time>
      </trkpt>
      <trkpt lat="46.36098" lon="2.55447">
        <ele>243.6</ele>
        <time>2018-10-14T09:29:49Z</time>
      </trkpt>
      <trkpt lat="46.36097" lon="2.55459">
        <ele>242.8</ele>
        <time>2018-10-14T09:29:51Z</time>
      </trkpt>
      <trkpt lat="46.36097" lon="2.55471">
        <ele>242.8</ele>
        <time>2018-10-14T09:29:53Z</time>
      </trkpt>
      <trkpt lat="46.36096" lon="2.55483">
        <ele>243.4</ele>
        <time>2018-10-14T09:29:55Z</time>
      </trkpt>
      <trkpt lat="46.36094" lon="2.55495">
        <ele>243</ele>
        <time>2018-10-14T09:29:57Z</time>
      </trkpt>
      <trkpt lat="46.36091" lon="2.55506">
        <ele>242.7</ele>
        <time>2018-10-14T09:29:59Z</time>
      </trkpt>
      <trkpt lat="46.3609" lon="2.55513">
        <ele>242.6</ele>
        <time>2018-10-14T09:30:00Z</time>
      </trkpt>
      <trkpt lat="46.36086" lon="2.55531">
        <ele>242.9</ele>
        <time>2018-10-14T09:30:03Z</time>
      </trkpt>
      <trkpt lat="46.36083" lon="2.55543">
        <ele>243</ele>
        <time>2018-10-14T09:30:05Z</time>
      </trkpt>
      <trkpt lat="46.3608" lon="2.55555">
        <ele>242.4</ele>
        <time>2018-10-14T09:30:07Z</time>
      </trkpt>
      <trkpt lat="46.36077" lon="2.55566">
        <ele>242.7</ele>
        <time>2018-10-14T09:30:09Z</time>
      </trkpt>
      <trkpt lat="46.36074" lon="2.55578">
        <ele>243.3</ele>
        <time>2018-10-14T09:30:11Z</time>
      </trkpt>
      <trkpt lat="46.36072" lon="2.5559">
        <ele>243.9</ele>
        <time>2018-10-14T09:30:13Z</time>
      </trkpt>
      <trkpt lat="46.36069" lon="2.55602">
        <ele>244</ele>
        <time>2018-10-14T09:30:15Z</time>
      </trkpt>
      <trkpt lat="46.36066" lon="2.55614">
        <ele>243.7</ele>
        <time>2018-10-14T09:30:17Z</time>
      </trkpt>
      <trkpt lat="46.36064" lon="2.55625">
        <ele>243.6</ele>
        <time>2018-10-14T09:30:19Z</time>
      </trkpt>
      <trkpt lat="46.36062" lon="2.55636">
        <ele>244.9</ele>
        <time>2018-10-14T09:30:21Z</time>
      </trkpt>
      <trkpt lat="46.36059" lon="2.55647">
        <ele>244.5</ele>
        <time>2018-10-14T09:30:23Z</time>
      </trkpt>
      <trkpt lat="46.36057" lon="2.55658">
        <ele>244.6</ele>
        <time>2018-10-14T09:30:25Z</time>
      </trkpt>
      <trkpt lat="46.36054" lon="2.55669">
        <ele>244.7</ele>
        <time>2018-10-14T09:30:27Z</time>
      </trkpt>
      <trkpt lat="46.36051" lon="2.5568">
        <ele>244.6</ele>
        <time>2018-10-14T09:30:29Z</time>
      </trkpt>
      <trkpt lat="46.36049" lon="2.55692">
        <ele>244.7</ele>
        <time>2018-10-14T09:30:31Z</time>
      </trkpt>
      <trkpt lat="46.36046" lon="2.55702">
        <ele>244.8</ele>
        <time>2018-10-14T09:30:33Z</time>
      </trkpt>
      <trkpt lat="46.36044" lon="2.55712">
        <ele>244.8</ele>
        <time>2018-10-14T09:30:35Z</time>
      </trkpt>
      <trkpt lat="46.36042" lon="2.55721">
        <ele>245.1</ele>
        <time>2018-10-14T09:30:37Z</time>
      </trkpt>
      <trkpt lat="46.36039" lon="2.55731">
        <ele>245.5</ele>
        <time>2018-10-14T09:30:39Z</time>
      </trkpt>
      <trkpt lat="46.36037" lon="2.55741">
        <ele>245.7</ele>
        <time>2018-10-14T09:30:41Z</time>
      </trkpt>
      <trkpt lat="46.36034" lon="2.55751">
        <ele>245.9</ele>
        <time>2018-10-14T09:30:43Z</time>
      </trkpt>
      <trkpt lat="46.36032" lon="2.55761">
        <ele>246.3</ele>
        <time>2018-10-14T09:30:45Z</time>
      </trkpt>
      <trkpt lat="46.3603" lon="2.55771">
        <ele>246.5</ele>
        <time>2018-10-14T09:30:47Z</time>
      </trkpt>
      <trkpt lat="46.36027" lon="2.55781">
        <ele>246.9</ele>
        <time>2018-10-14T09:30:49Z</time>
      </trkpt>
      <trkpt lat="46.36025" lon="2.55791">
        <ele>247.7</ele>
        <time>2018-10-14T09:30:51Z</time>
      </trkpt>
      <trkpt lat="46.36023" lon="2.55801">
        <ele>248.3</ele>
        <time>2018-10-14T09:30:53Z</time>
      </trkpt>
      <trkpt lat="46.3602" lon="2.55812">
        <ele>248.5</ele>
        <time>2018-10-14T09:30:55Z</time>
      </trkpt>
      <trkpt lat="46.36017" lon="2.55821">
        <ele>248.7</ele>
        <time>2018-10-14T09:30:57Z</time>
      </trkpt>
      <trkpt lat="46.36014" lon="2.5583">
        <ele>249.2</ele>
        <time>2018-10-14T09:30:59Z</time>
      </trkpt>
      <trkpt lat="46.36011" lon="2.5584">
        <ele>248.9</ele>
        <time>2018-10-14T09:31:01Z</time>
      </trkpt>
      <trkpt lat="46.36009" lon="2.55844">
        <ele>248.8</ele>
        <time>2018-10-14T09:31:02Z</time>
      </trkpt>
      <trkpt lat="46.36002" lon="2.55858">
        <ele>249.3</ele>
        <time>2018-10-14T09:31:05Z</time>
      </trkpt>
      <trkpt lat="46.35997" lon="2.55867">
        <ele>249.9</ele>
        <time>2018-10-14T09:31:07Z</time>
      </trkpt>
      <trkpt lat="46.35992" lon="2.55877">
        <ele>250.6</ele>
        <time>2018-10-14T09:31:09Z</time>
      </trkpt>
      <trkpt lat="46.35987" lon="2.55887">
        <ele>250.6</ele>
        <time>2018-10-14T09:31:11Z</time>
      </trkpt>
      <trkpt lat="46.35983" lon="2.55897">
        <ele>251</ele>
        <time>2018-10-14T09:31:13Z</time>
      </trkpt>
      <trkpt lat="46.35978" lon="2.55906">
        <ele>251.4</ele>
        <time>2018-10-14T09:31:15Z</time>
      </trkpt>
      <trkpt lat="46.35974" lon="2.55916">
        <ele>251.9</ele>
        <time>2018-10-14T09:31:17Z</time>
      </trkpt>
      <trkpt lat="46.3597" lon="2.55925">
        <ele>252.6</ele>
        <time>2018-10-14T09:31:19Z</time>
      </trkpt>
      <trkpt lat="46.35965" lon="2.55935">
        <ele>253.3</ele>
        <time>2018-10-14T09:31:21Z</time>
      </trkpt>
      <trkpt lat="46.35961" lon="2.55945">
        <ele>253.6</ele>
        <time>2018-10-14T09:31:23Z</time>
      </trkpt>
      <trkpt lat="46.35956" lon="2.55955">
        <ele>254.2</ele>
        <time>2018-10-14T09:31:25Z</time>
      </trkpt>
      <trkpt lat="46.35952" lon="2.55965">
        <ele>255</ele>
        <time>2018-10-14T09:31:27Z</time>
      </trkpt>
      <trkpt lat="46.35948" lon="2.55974">
        <ele>255.2</ele>
        <time>2018-10-14T09:31:29Z</time>
      </trkpt>
      <trkpt lat="46.35943" lon="2.55984">
        <ele>255.1</ele>
        <time>2018-10-14T09:31:31Z</time>
      </trkpt>
      <trkpt lat="46.35939" lon="2.55994">
        <ele>254.9</ele>
        <time>2018-10-14T09:31:33Z</time>
      </trkpt>
      <trkpt lat="46.35935" lon="2.56003">
        <ele>255.4</ele>
        <time>2018-10-14T09:31:35Z</time>
      </trkpt>
      <trkpt lat="46.35931" lon="2.56013">
        <ele>255.6</ele>
        <time>2018-10-14T09:31:37Z</time>
      </trkpt>
      <trkpt lat="46.35926" lon="2.56023">
        <ele>256.3</ele>
        <time>2018-10-14T09:31:39Z</time>
      </trkpt>
      <trkpt lat="46.35921" lon="2.56032">
        <ele>256.7</ele>
        <time>2018-10-14T09:31:41Z</time>
      </trkpt>
      <trkpt lat="46.35916" lon="2.56041">
        <ele>257.6</ele>
        <time>2018-10-14T09:31:43Z</time>
      </trkpt>
      <trkpt lat="46.35911" lon="2.5605">
        <ele>258.5</ele>
        <time>2018-10-14T09:31:45Z</time>
      </trkpt>
      <trkpt lat="46.35907" lon="2.56058">
        <ele>259</ele>
        <time>2018-10-14T09:31:47Z</time>
      </trkpt>
      <trkpt lat="46.35905" lon="2.56068">
        <ele>259</ele>
        <time>2018-10-14T09:31:50Z</time>
      </trkpt>
      <trkpt lat="46.35908" lon="2.56079">
        <ele>258.7</ele>
        <time>2018-10-14T09:31:53Z</time>
      </trkpt>
      <trkpt lat="46.35914" lon="2.56087">
        <ele>258.7</ele>
        <time>2018-10-14T09:31:55Z</time>
      </trkpt>
      <trkpt lat="46.35919" lon="2.56095">
        <ele>258.7</ele>
        <time>2018-10-14T09:31:57Z</time>
      </trkpt>
      <trkpt lat="46.35922" lon="2.561">
        <ele>258.7</ele>
        <time>2018-10-14T09:31:58Z</time>
      </trkpt>
      <trkpt lat="46.35926" lon="2.56105">
        <ele>258.7</ele>
        <time>2018-10-14T09:31:59Z</time>
      </trkpt>
      <trkpt lat="46.35929" lon="2.5611">
        <ele>258.6</ele>
        <time>2018-10-14T09:32:00Z</time>
      </trkpt>
      <trkpt lat="46.35933" lon="2.56114">
        <ele>258.5</ele>
        <time>2018-10-14T09:32:01Z</time>
      </trkpt>
      <trkpt lat="46.35936" lon="2.56119">
        <ele>258.1</ele>
        <time>2018-10-14T09:32:02Z</time>
      </trkpt>
      <trkpt lat="46.3594" lon="2.56124">
        <ele>257.7</ele>
        <time>2018-10-14T09:32:03Z</time>
      </trkpt>
      <trkpt lat="46.35943" lon="2.56129">
        <ele>258.1</ele>
        <time>2018-10-14T09:32:04Z</time>
      </trkpt>
      <trkpt lat="46.35947" lon="2.56135">
        <ele>258.4</ele>
        <time>2018-10-14T09:32:05Z</time>
      </trkpt>
      <trkpt lat="46.35951" lon="2.5614">
        <ele>258.7</ele>
        <time>2018-10-14T09:32:06Z</time>
      </trkpt>
      <trkpt lat="46.35955" lon="2.56146">
        <ele>258.1</ele>
        <time>2018-10-14T09:32:07Z</time>
      </trkpt>
      <trkpt lat="46.35959" lon="2.56152">
        <ele>257.7</ele>
        <time>2018-10-14T09:32:08Z</time>
      </trkpt>
      <trkpt lat="46.35963" lon="2.56158">
        <ele>257.6</ele>
        <time>2018-10-14T09:32:09Z</time>
      </trkpt>
      <trkpt lat="46.35968" lon="2.56164">
        <ele>257.4</ele>
        <time>2018-10-14T09:32:10Z</time>
      </trkpt>
      <trkpt lat="46.35972" lon="2.5617">
        <ele>257.3</ele>
        <time>2018-10-14T09:32:11Z</time>
      </trkpt>
      <trkpt lat="46.35977" lon="2.56177">
        <ele>257.3</ele>
        <time>2018-10-14T09:32:12Z</time>
      </trkpt>
      <trkpt lat="46.35981" lon="2.56183">
        <ele>257.2</ele>
        <time>2018-10-14T09:32:13Z</time>
      </trkpt>
      <trkpt lat="46.35986" lon="2.56189">
        <ele>256.6</ele>
        <time>2018-10-14T09:32:14Z</time>
      </trkpt>
      <trkpt lat="46.35991" lon="2.56195">
        <ele>256.1</ele>
        <time>2018-10-14T09:32:15Z</time>
      </trkpt>
      <trkpt lat="46.35995" lon="2.56202">
        <ele>256</ele>
        <time>2018-10-14T09:32:16Z</time>
      </trkpt>
      <trkpt lat="46.36" lon="2.56208">
        <ele>255.9</ele>
        <time>2018-10-14T09:32:17Z</time>
      </trkpt>
      <trkpt lat="46.36005" lon="2.56214">
        <ele>255.8</ele>
        <time>2018-10-14T09:32:18Z</time>
      </trkpt>
      <trkpt lat="46.3601" lon="2.5622">
        <ele>255.7</ele>
        <time>2018-10-14T09:32:19Z</time>
      </trkpt>
      <trkpt lat="46.36014" lon="2.56226">
        <ele>255.6</ele>
        <time>2018-10-14T09:32:20Z</time>
      </trkpt>
      <trkpt lat="46.36019" lon="2.56232">
        <ele>255.3</ele>
        <time>2018-10-14T09:32:21Z</time>
      </trkpt>
      <trkpt lat="46.36024" lon="2.56238">
        <ele>255</ele>
        <time>2018-10-14T09:32:22Z</time>
      </trkpt>
      <trkpt lat="46.36029" lon="2.56244">
        <ele>254.9</ele>
        <time>2018-10-14T09:32:23Z</time>
      </trkpt>
      <trkpt lat="46.36034" lon="2.5625">
        <ele>254.8</ele>
        <time>2018-10-14T09:32:24Z</time>
      </trkpt>
      <trkpt lat="46.36038" lon="2.56256">
        <ele>254.7</ele>
        <time>2018-10-14T09:32:25Z</time>
      </trkpt>
      <trkpt lat="46.36044" lon="2.56261">
        <ele>254.3</ele>
        <time>2018-10-14T09:32:26Z</time>
      </trkpt>
      <trkpt lat="46.36049" lon="2.56266">
        <ele>253.9</ele>
        <time>2018-10-14T09:32:27Z</time>
      </trkpt>
      <trkpt lat="46.36054" lon="2.56271">
        <ele>253.7</ele>
        <time>2018-10-14T09:32:28Z</time>
      </trkpt>
      <trkpt lat="46.36059" lon="2.56276">
        <ele>253.6</ele>
        <time>2018-10-14T09:32:29Z</time>
      </trkpt>
      <trkpt lat="46.36064" lon="2.56281">
        <ele>253.5</ele>
        <time>2018-10-14T09:32:30Z</time>
      </trkpt>
      <trkpt lat="46.36069" lon="2.56286">
        <ele>253.5</ele>
        <time>2018-10-14T09:32:31Z</time>
      </trkpt>
      <trkpt lat="46.36075" lon="2.5629">
        <ele>253.5</ele>
        <time>2018-10-14T09:32:32Z</time>
      </trkpt>
      <trkpt lat="46.3608" lon="2.56295">
        <ele>253.5</ele>
        <time>2018-10-14T09:32:33Z</time>
      </trkpt>
      <trkpt lat="46.36085" lon="2.563">
        <ele>253.4</ele>
        <time>2018-10-14T09:32:34Z</time>
      </trkpt>
      <trkpt lat="46.3609" lon="2.56305">
        <ele>252.9</ele>
        <time>2018-10-14T09:32:35Z</time>
      </trkpt>
      <trkpt lat="46.36095" lon="2.56309">
        <ele>252.5</ele>
        <time>2018-10-14T09:32:36Z</time>
      </trkpt>
      <trkpt lat="46.36101" lon="2.56314">
        <ele>252.2</ele>
        <time>2018-10-14T09:32:37Z</time>
      </trkpt>
      <trkpt lat="46.36106" lon="2.56318">
        <ele>252.2</ele>
        <time>2018-10-14T09:32:38Z</time>
      </trkpt>
      <trkpt lat="46.36111" lon="2.56323">
        <ele>252.3</ele>
        <time>2018-10-14T09:32:39Z</time>
      </trkpt>
      <trkpt lat="46.36116" lon="2.56328">
        <ele>252.3</ele>
        <time>2018-10-14T09:32:40Z</time>
      </trkpt>
      <trkpt lat="46.36121" lon="2.56332">
        <ele>252.2</ele>
        <time>2018-10-14T09:32:41Z</time>
      </trkpt>
      <trkpt lat="46.36127" lon="2.56336">
        <ele>251.8</ele>
        <time>2018-10-14T09:32:42Z</time>
      </trkpt>
      <trkpt lat="46.36132" lon="2.5634">
        <ele>251.5</ele>
        <time>2018-10-14T09:32:43Z</time>
      </trkpt>
      <trkpt lat="46.36137" lon="2.56344">
        <ele>251.3</ele>
        <time>2018-10-14T09:32:44Z</time>
      </trkpt>
      <trkpt lat="46.36142" lon="2.56349">
        <ele>251.2</ele>
        <time>2018-10-14T09:32:45Z</time>
      </trkpt>
      <trkpt lat="46.36144" lon="2.56357">
        <ele>251.1</ele>
        <time>2018-10-14T09:32:46Z</time>
      </trkpt>
      <trkpt lat="46.36144" lon="2.56364">
        <ele>250.8</ele>
        <time>2018-10-14T09:32:47Z</time>
      </trkpt>
      <trkpt lat="46.36143" lon="2.56371">
        <ele>250.6</ele>
        <time>2018-10-14T09:32:48Z</time>
      </trkpt>
      <trkpt lat="46.3614" lon="2.56377">
        <ele>251</ele>
        <time>2018-10-14T09:32:49Z</time>
      </trkpt>
      <trkpt lat="46.36138" lon="2.56383">
        <ele>251.2</ele>
        <time>2018-10-14T09:32:50Z</time>
      </trkpt>
      <trkpt lat="46.36135" lon="2.5639">
        <ele>251.4</ele>
        <time>2018-10-14T09:32:51Z</time>
      </trkpt>
      <trkpt lat="46.36133" lon="2.56397">
        <ele>251.6</ele>
        <time>2018-10-14T09:32:52Z</time>
      </trkpt>
      <trkpt lat="46.36131" lon="2.56404">
        <ele>251.8</ele>
        <time>2018-10-14T09:32:53Z</time>
      </trkpt>
      <trkpt lat="46.36129" lon="2.5641">
        <ele>251.4</ele>
        <time>2018-10-14T09:32:54Z</time>
      </trkpt>
      <trkpt lat="46.36126" lon="2.56417">
        <ele>251</ele>
        <time>2018-10-14T09:32:55Z</time>
      </trkpt>
      <trkpt lat="46.36124" lon="2.56423">
        <ele>250.8</ele>
        <time>2018-10-14T09:32:56Z</time>
      </trkpt>
      <trkpt lat="46.36122" lon="2.5643">
        <ele>250.7</ele>
        <time>2018-10-14T09:32:57Z</time>
      </trkpt>
      <trkpt lat="46.3612" lon="2.56436">
        <ele>250.6</ele>
        <time>2018-10-14T09:32:58Z</time>
      </trkpt>
      <trkpt lat="46.36117" lon="2.56443">
        <ele>250.6</ele>
        <time>2018-10-14T09:32:59Z</time>
      </trkpt>
      <trkpt lat="46.36115" lon="2.56449">
        <ele>250.6</ele>
        <time>2018-10-14T09:33:00Z</time>
      </trkpt>
      <trkpt lat="46.36113" lon="2.56456">
        <ele>250.5</ele>
        <time>2018-10-14T09:33:01Z</time>
      </trkpt>
      <trkpt lat="46.36111" lon="2.56462">
        <ele>250.3</ele>
        <time>2018-10-14T09:33:02Z</time>
      </trkpt>
      <trkpt lat="46.36108" lon="2.56469">
        <ele>250.2</ele>
        <time>2018-10-14T09:33:03Z</time>
      </trkpt>
      <trkpt lat="46.36106" lon="2.56476">
        <ele>250.3</ele>
        <time>2018-10-14T09:33:04Z</time>
      </trkpt>
      <trkpt lat="46.36104" lon="2.56482">
        <ele>250.3</ele>
        <time>2018-10-14T09:33:05Z</time>
      </trkpt>
      <trkpt lat="46.36101" lon="2.56489">
        <ele>250.6</ele>
        <time>2018-10-14T09:33:06Z</time>
      </trkpt>
      <trkpt lat="46.36099" lon="2.56496">
        <ele>250.8</ele>
        <time>2018-10-14T09:33:07Z</time>
      </trkpt>
      <trkpt lat="46.36097" lon="2.56502">
        <ele>250.9</ele>
        <time>2018-10-14T09:33:08Z</time>
      </trkpt>
      <trkpt lat="46.36095" lon="2.56509">
        <ele>251</ele>
        <time>2018-10-14T09:33:09Z</time>
      </trkpt>
      <trkpt lat="46.36093" lon="2.56515">
        <ele>251.1</ele>
        <time>2018-10-14T09:33:10Z</time>
      </trkpt>
      <trkpt lat="46.3609" lon="2.56522">
        <ele>251</ele>
        <time>2018-10-14T09:33:11Z</time>
      </trkpt>
      <trkpt lat="46.36088" lon="2.56528">
        <ele>250.9</ele>
        <time>2018-10-14T09:33:12Z</time>
      </trkpt>
      <trkpt lat="46.36086" lon="2.56535">
        <ele>251.1</ele>
        <time>2018-10-14T09:33:13Z</time>
      </trkpt>
      <trkpt lat="46.36083" lon="2.56541">
        <ele>251.3</ele>
        <time>2018-10-14T09:33:14Z</time>
      </trkpt>
      <trkpt lat="46.36081" lon="2.56548">
        <ele>251.4</ele>
        <time>2018-10-14T09:33:15Z</time>
      </trkpt>
      <trkpt lat="46.36079" lon="2.56554">
        <ele>251.3</ele>
        <time>2018-10-14T09:33:16Z</time>
      </trkpt>
      <trkpt lat="46.36077" lon="2.5656">
        <ele>251.2</ele>
        <time>2018-10-14T09:33:17Z</time>
      </trkpt>
      <trkpt lat="46.36074" lon="2.56567">
        <ele>251.4</ele>
        <time>2018-10-14T09:33:18Z</time>
      </trkpt>
      <trkpt lat="46.36072" lon="2.56573">
        <ele>251.5</ele>
        <time>2018-10-14T09:33:19Z</time>
      </trkpt>
      <trkpt lat="46.3607" lon="2.56579">
        <ele>252</ele>
        <time>2018-10-14T09:33:20Z</time>
      </trkpt>
      <trkpt lat="46.36068" lon="2.56585">
        <ele>252.4</ele>
        <time>2018-10-14T09:33:21Z</time>
      </trkpt>
      <trkpt lat="46.36066" lon="2.56591">
        <ele>252.7</ele>
        <time>2018-10-14T09:33:22Z</time>
      </trkpt>
      <trkpt lat="46.36064" lon="2.56598">
        <ele>252.1</ele>
        <time>2018-10-14T09:33:23Z</time>
      </trkpt>
      <trkpt lat="46.36062" lon="2.56604">
        <ele>251.6</ele>
        <time>2018-10-14T09:33:24Z</time>
      </trkpt>
      <trkpt lat="46.36059" lon="2.5661">
        <ele>251.7</ele>
        <time>2018-10-14T09:33:25Z</time>
      </trkpt>
      <trkpt lat="46.36057" lon="2.56616">
        <ele>251.8</ele>
        <time>2018-10-14T09:33:26Z</time>
      </trkpt>
      <trkpt lat="46.36055" lon="2.56622">
        <ele>251.9</ele>
        <time>2018-10-14T09:33:27Z</time>
      </trkpt>
      <trkpt lat="46.36053" lon="2.56629">
        <ele>252.2</ele>
        <time>2018-10-14T09:33:28Z</time>
      </trkpt>
      <trkpt lat="46.3605" lon="2.56635">
        <ele>252.4</ele>
        <time>2018-10-14T09:33:29Z</time>
      </trkpt>
      <trkpt lat="46.36048" lon="2.56642">
        <ele>251.9</ele>
        <time>2018-10-14T09:33:30Z</time>
      </trkpt>
      <trkpt lat="46.36046" lon="2.56649">
        <ele>251.5</ele>
        <time>2018-10-14T09:33:31Z</time>
      </trkpt>
      <trkpt lat="46.36043" lon="2.56657">
        <ele>251</ele>
        <time>2018-10-14T09:33:32Z</time>
      </trkpt>
      <trkpt lat="46.3604" lon="2.56665">
        <ele>250.7</ele>
        <time>2018-10-14T09:33:33Z</time>
      </trkpt>
      <trkpt lat="46.36037" lon="2.56673">
        <ele>250.4</ele>
        <time>2018-10-14T09:33:34Z</time>
      </trkpt>
      <trkpt lat="46.36034" lon="2.56682">
        <ele>250.1</ele>
        <time>2018-10-14T09:33:35Z</time>
      </trkpt>
      <trkpt lat="46.36031" lon="2.56691">
        <ele>249.9</ele>
        <time>2018-10-14T09:33:36Z</time>
      </trkpt>
      <trkpt lat="46.36027" lon="2.56699">
        <ele>249.2</ele>
        <time>2018-10-14T09:33:37Z</time>
      </trkpt>
      <trkpt lat="46.36024" lon="2.56708">
        <ele>248.7</ele>
        <time>2018-10-14T09:33:38Z</time>
      </trkpt>
      <trkpt lat="46.36022" lon="2.56718">
        <ele>248.6</ele>
        <time>2018-10-14T09:33:39Z</time>
      </trkpt>
      <trkpt lat="46.36021" lon="2.56728">
        <ele>248.5</ele>
        <time>2018-10-14T09:33:40Z</time>
      </trkpt>
      <trkpt lat="46.3602" lon="2.56738">
        <ele>248.4</ele>
        <time>2018-10-14T09:33:41Z</time>
      </trkpt>
      <trkpt lat="46.36019" lon="2.56748">
        <ele>247.5</ele>
        <time>2018-10-14T09:33:42Z</time>
      </trkpt>
      <trkpt lat="46.36018" lon="2.56758">
        <ele>246.8</ele>
        <time>2018-10-14T09:33:43Z</time>
      </trkpt>
      <trkpt lat="46.36016" lon="2.56768">
        <ele>246.4</ele>
        <time>2018-10-14T09:33:44Z</time>
      </trkpt>
      <trkpt lat="46.36014" lon="2.56778">
        <ele>246.1</ele>
        <time>2018-10-14T09:33:45Z</time>
      </trkpt>
      <trkpt lat="46.36012" lon="2.56787">
        <ele>246.4</ele>
        <time>2018-10-14T09:33:46Z</time>
      </trkpt>
      <trkpt lat="46.36009" lon="2.56796">
        <ele>246.7</ele>
        <time>2018-10-14T09:33:47Z</time>
      </trkpt>
      <trkpt lat="46.36006" lon="2.56805">
        <ele>246.9</ele>
        <time>2018-10-14T09:33:48Z</time>
      </trkpt>
      <trkpt lat="46.36004" lon="2.56814">
        <ele>246.5</ele>
        <time>2018-10-14T09:33:49Z</time>
      </trkpt>
      <trkpt lat="46.36001" lon="2.56822">
        <ele>246.1</ele>
        <time>2018-10-14T09:33:50Z</time>
      </trkpt>
      <trkpt lat="46.35999" lon="2.5683">
        <ele>246.1</ele>
        <time>2018-10-14T09:33:51Z</time>
      </trkpt>
      <trkpt lat="46.35996" lon="2.56838">
        <ele>246.2</ele>
        <time>2018-10-14T09:33:52Z</time>
      </trkpt>
      <trkpt lat="46.35993" lon="2.56845">
        <ele>246.2</ele>
        <time>2018-10-14T09:33:53Z</time>
      </trkpt>
      <trkpt lat="46.35991" lon="2.56852">
        <ele>246.3</ele>
        <time>2018-10-14T09:33:54Z</time>
      </trkpt>
      <trkpt lat="46.35988" lon="2.56859">
        <ele>246.4</ele>
        <time>2018-10-14T09:33:55Z</time>
      </trkpt>
      <trkpt lat="46.35986" lon="2.56866">
        <ele>246</ele>
        <time>2018-10-14T09:33:56Z</time>
      </trkpt>
      <trkpt lat="46.35984" lon="2.56873">
        <ele>245.6</ele>
        <time>2018-10-14T09:33:57Z</time>
      </trkpt>
      <trkpt lat="46.35981" lon="2.5688">
        <ele>246.1</ele>
        <time>2018-10-14T09:33:58Z</time>
      </trkpt>
      <trkpt lat="46.35979" lon="2.56886">
        <ele>246.4</ele>
        <time>2018-10-14T09:33:59Z</time>
      </trkpt>
      <trkpt lat="46.35976" lon="2.56893">
        <ele>246.7</ele>
        <time>2018-10-14T09:34:00Z</time>
      </trkpt>
      <trkpt lat="46.35974" lon="2.56899">
        <ele>246.3</ele>
        <time>2018-10-14T09:34:01Z</time>
      </trkpt>
      <trkpt lat="46.35972" lon="2.56905">
        <ele>246</ele>
        <time>2018-10-14T09:34:02Z</time>
      </trkpt>
      <trkpt lat="46.35969" lon="2.56911">
        <ele>245.9</ele>
        <time>2018-10-14T09:34:03Z</time>
      </trkpt>
      <trkpt lat="46.35967" lon="2.56917">
        <ele>245.9</ele>
        <time>2018-10-14T09:34:04Z</time>
      </trkpt>
      <trkpt lat="46.35964" lon="2.56922">
        <ele>245.8</ele>
        <time>2018-10-14T09:34:05Z</time>
      </trkpt>
      <trkpt lat="46.35961" lon="2.56928">
        <ele>245.8</ele>
        <time>2018-10-14T09:34:06Z</time>
      </trkpt>
      <trkpt lat="46.35958" lon="2.56933">
        <ele>245.8</ele>
        <time>2018-10-14T09:34:07Z</time>
      </trkpt>
      <trkpt lat="46.35955" lon="2.56939">
        <ele>245.9</ele>
        <time>2018-10-14T09:34:08Z</time>
      </trkpt>
      <trkpt lat="46.35952" lon="2.56944">
        <ele>245.9</ele>
        <time>2018-10-14T09:34:09Z</time>
      </trkpt>
      <trkpt lat="46.35949" lon="2.56949">
        <ele>245.6</ele>
        <time>2018-10-14T09:34:10Z</time>
      </trkpt>
      <trkpt lat="46.35946" lon="2.56954">
        <ele>245.5</ele>
        <time>2018-10-14T09:34:11Z</time>
      </trkpt>
      <trkpt lat="46.35943" lon="2.56959">
        <ele>245.3</ele>
        <time>2018-10-14T09:34:12Z</time>
      </trkpt>
      <trkpt lat="46.35937" lon="2.56969">
        <ele>246.1</ele>
        <time>2018-10-14T09:34:14Z</time>
      </trkpt>
      <trkpt lat="46.35933" lon="2.5698">
        <ele>245.6</ele>
        <time>2018-10-14T09:34:16Z</time>
      </trkpt>
      <trkpt lat="46.35933" lon="2.56992">
        <ele>245.6</ele>
        <time>2018-10-14T09:34:18Z</time>
      </trkpt>
      <trkpt lat="46.35934" lon="2.57004">
        <ele>245.3</ele>
        <time>2018-10-14T09:34:20Z</time>
      </trkpt>
      <trkpt lat="46.35934" lon="2.57011">
        <ele>245.2</ele>
        <time>2018-10-14T09:34:21Z</time>
      </trkpt>
      <trkpt lat="46.35935" lon="2.57018">
        <ele>245.5</ele>
        <time>2018-10-14T09:34:22Z</time>
      </trkpt>
      <trkpt lat="46.35936" lon="2.57024">
        <ele>245.8</ele>
        <time>2018-10-14T09:34:23Z</time>
      </trkpt>
      <trkpt lat="46.35936" lon="2.57031">
        <ele>245.8</ele>
        <time>2018-10-14T09:34:24Z</time>
      </trkpt>
      <trkpt lat="46.35937" lon="2.57039">
        <ele>245.8</ele>
        <time>2018-10-14T09:34:25Z</time>
      </trkpt>
      <trkpt lat="46.35937" lon="2.57046">
        <ele>245.8</ele>
        <time>2018-10-14T09:34:26Z</time>
      </trkpt>
      <trkpt lat="46.35938" lon="2.57054">
        <ele>245.7</ele>
        <time>2018-10-14T09:34:27Z</time>
      </trkpt>
      <trkpt lat="46.35938" lon="2.57061">
        <ele>245.7</ele>
        <time>2018-10-14T09:34:28Z</time>
      </trkpt>
      <trkpt lat="46.35938" lon="2.57069">
        <ele>245.5</ele>
        <time>2018-10-14T09:34:29Z</time>
      </trkpt>
      <trkpt lat="46.35938" lon="2.57076">
        <ele>245.4</ele>
        <time>2018-10-14T09:34:30Z</time>
      </trkpt>
      <trkpt lat="46.35937" lon="2.57084">
        <ele>245.3</ele>
        <time>2018-10-14T09:34:31Z</time>
      </trkpt>
      <trkpt lat="46.35937" lon="2.57092">
        <ele>245.2</ele>
        <time>2018-10-14T09:34:32Z</time>
      </trkpt>
      <trkpt lat="46.35937" lon="2.57099">
        <ele>245.1</ele>
        <time>2018-10-14T09:34:33Z</time>
      </trkpt>
      <trkpt lat="46.35937" lon="2.57107">
        <ele>245.2</ele>
        <time>2018-10-14T09:34:34Z</time>
      </trkpt>
      <trkpt lat="46.35937" lon="2.57114">
        <ele>245.3</ele>
        <time>2018-10-14T09:34:35Z</time>
      </trkpt>
      <trkpt lat="46.35937" lon="2.57121">
        <ele>245.6</ele>
        <time>2018-10-14T09:34:36Z</time>
      </trkpt>
      <trkpt lat="46.35937" lon="2.57128">
        <ele>245.8</ele>
        <time>2018-10-14T09:34:37Z</time>
      </trkpt>
      <trkpt lat="46.35937" lon="2.57135">
        <ele>245.9</ele>
        <time>2018-10-14T09:34:38Z</time>
      </trkpt>
      <trkpt lat="46.35938" lon="2.57143">
        <ele>245.5</ele>
        <time>2018-10-14T09:34:39Z</time>
      </trkpt>
      <trkpt lat="46.35938" lon="2.57151">
        <ele>245.3</ele>
        <time>2018-10-14T09:34:40Z</time>
      </trkpt>
      <trkpt lat="46.35938" lon="2.57159">
        <ele>244.7</ele>
        <time>2018-10-14T09:34:41Z</time>
      </trkpt>
      <trkpt lat="46.35938" lon="2.57167">
        <ele>244.3</ele>
        <time>2018-10-14T09:34:42Z</time>
      </trkpt>
      <trkpt lat="46.35939" lon="2.57176">
        <ele>244.3</ele>
        <time>2018-10-14T09:34:43Z</time>
      </trkpt>
      <trkpt lat="46.35939" lon="2.57184">
        <ele>244.2</ele>
        <time>2018-10-14T09:34:44Z</time>
      </trkpt>
      <trkpt lat="46.35939" lon="2.57193">
        <ele>244.2</ele>
        <time>2018-10-14T09:34:45Z</time>
      </trkpt>
      <trkpt lat="46.35939" lon="2.57202">
        <ele>243.8</ele>
        <time>2018-10-14T09:34:46Z</time>
      </trkpt>
      <trkpt lat="46.35939" lon="2.57211">
        <ele>243.5</ele>
        <time>2018-10-14T09:34:47Z</time>
      </trkpt>
      <trkpt lat="46.3594" lon="2.57219">
        <ele>243.5</ele>
        <time>2018-10-14T09:34:48Z</time>
      </trkpt>
      <trkpt lat="46.3594" lon="2.57228">
        <ele>243.6</ele>
        <time>2018-10-14T09:34:49Z</time>
      </trkpt>
      <trkpt lat="46.35941" lon="2.57236">
        <ele>243.7</ele>
        <time>2018-10-14T09:34:50Z</time>
      </trkpt>
      <trkpt lat="46.35941" lon="2.57244">
        <ele>243.6</ele>
        <time>2018-10-14T09:34:51Z</time>
      </trkpt>
      <trkpt lat="46.35942" lon="2.57252">
        <ele>243.5</ele>
        <time>2018-10-14T09:34:52Z</time>
      </trkpt>
      <trkpt lat="46.35943" lon="2.5726">
        <ele>242.8</ele>
        <time>2018-10-14T09:34:53Z</time>
      </trkpt>
      <trkpt lat="46.35945" lon="2.57267">
        <ele>242.3</ele>
        <time>2018-10-14T09:34:54Z</time>
      </trkpt>
      <trkpt lat="46.35948" lon="2.57274">
        <ele>242.3</ele>
        <time>2018-10-14T09:34:55Z</time>
      </trkpt>
      <trkpt lat="46.3595" lon="2.57281">
        <ele>242.3</ele>
        <time>2018-10-14T09:34:56Z</time>
      </trkpt>
      <trkpt lat="46.35952" lon="2.57287">
        <ele>242.3</ele>
        <time>2018-10-14T09:34:57Z</time>
      </trkpt>
      <trkpt lat="46.35955" lon="2.57293">
        <ele>242.5</ele>
        <time>2018-10-14T09:34:58Z</time>
      </trkpt>
      <trkpt lat="46.35958" lon="2.57299">
        <ele>242.7</ele>
        <time>2018-10-14T09:34:59Z</time>
      </trkpt>
      <trkpt lat="46.35961" lon="2.57304">
        <ele>242.6</ele>
        <time>2018-10-14T09:35:00Z</time>
      </trkpt>
      <trkpt lat="46.35966" lon="2.57314">
        <ele>242.9</ele>
        <time>2018-10-14T09:35:02Z</time>
      </trkpt>
      <trkpt lat="46.35972" lon="2.57323">
        <ele>243.3</ele>
        <time>2018-10-14T09:35:04Z</time>
      </trkpt>
      <trkpt lat="46.35978" lon="2.57331">
        <ele>243</ele>
        <time>2018-10-14T09:35:06Z</time>
      </trkpt>
      <trkpt lat="46.35981" lon="2.57336">
        <ele>243.1</ele>
        <time>2018-10-14T09:35:07Z</time>
      </trkpt>
      <trkpt lat="46.35988" lon="2.57344">
        <ele>243.2</ele>
        <time>2018-10-14T09:35:09Z</time>
      </trkpt>
      <trkpt lat="46.35995" lon="2.57352">
        <ele>243.8</ele>
        <time>2018-10-14T09:35:11Z</time>
      </trkpt>
      <trkpt lat="46.35998" lon="2.57356">
        <ele>243.6</ele>
        <time>2018-10-14T09:35:12Z</time>
      </trkpt>
      <trkpt lat="46.36006" lon="2.57362">
        <ele>243.5</ele>
        <time>2018-10-14T09:35:14Z</time>
      </trkpt>
      <trkpt lat="46.36014" lon="2.57368">
        <ele>243.6</ele>
        <time>2018-10-14T09:35:16Z</time>
      </trkpt>
      <trkpt lat="46.36018" lon="2.57371">
        <ele>243.8</ele>
        <time>2018-10-14T09:35:17Z</time>
      </trkpt>
      <trkpt lat="46.36026" lon="2.57377">
        <ele>243.9</ele>
        <time>2018-10-14T09:35:19Z</time>
      </trkpt>
      <trkpt lat="46.3603" lon="2.57379">
        <ele>243.9</ele>
        <time>2018-10-14T09:35:20Z</time>
      </trkpt>
      <trkpt lat="46.36034" lon="2.57382">
        <ele>244</ele>
        <time>2018-10-14T09:35:21Z</time>
      </trkpt>
      <trkpt lat="46.36039" lon="2.57384">
        <ele>244.1</ele>
        <time>2018-10-14T09:35:22Z</time>
      </trkpt>
      <trkpt lat="46.36043" lon="2.57386">
        <ele>244.2</ele>
        <time>2018-10-14T09:35:23Z</time>
      </trkpt>
      <trkpt lat="46.36047" lon="2.57389">
        <ele>243.8</ele>
        <time>2018-10-14T09:35:24Z</time>
      </trkpt>
      <trkpt lat="46.36052" lon="2.57391">
        <ele>243.6</ele>
        <time>2018-10-14T09:35:25Z</time>
      </trkpt>
      <trkpt lat="46.36056" lon="2.57392">
        <ele>243.6</ele>
        <time>2018-10-14T09:35:26Z</time>
      </trkpt>
      <trkpt lat="46.3606" lon="2.57394">
        <ele>243.7</ele>
        <time>2018-10-14T09:35:27Z</time>
      </trkpt>
      <trkpt lat="46.36065" lon="2.57396">
        <ele>243.7</ele>
        <time>2018-10-14T09:35:28Z</time>
      </trkpt>
      <trkpt lat="46.36069" lon="2.57399">
        <ele>244.1</ele>
        <time>2018-10-14T09:35:29Z</time>
      </trkpt>
      <trkpt lat="46.36074" lon="2.57401">
        <ele>244.4</ele>
        <time>2018-10-14T09:35:30Z</time>
      </trkpt>
      <trkpt lat="46.36078" lon="2.57403">
        <ele>244.6</ele>
        <time>2018-10-14T09:35:31Z</time>
      </trkpt>
      <trkpt lat="46.36083" lon="2.57405">
        <ele>244.7</ele>
        <time>2018-10-14T09:35:32Z</time>
      </trkpt>
      <trkpt lat="46.36087" lon="2.57408">
        <ele>244.9</ele>
        <time>2018-10-14T09:35:33Z</time>
      </trkpt>
      <trkpt lat="46.36092" lon="2.5741">
        <ele>245</ele>
        <time>2018-10-14T09:35:34Z</time>
      </trkpt>
      <trkpt lat="46.36096" lon="2.57413">
        <ele>245.1</ele>
        <time>2018-10-14T09:35:35Z</time>
      </trkpt>
      <trkpt lat="46.36101" lon="2.57416">
        <ele>245.3</ele>
        <time>2018-10-14T09:35:36Z</time>
      </trkpt>
      <trkpt lat="46.36105" lon="2.57418">
        <ele>245.4</ele>
        <time>2018-10-14T09:35:37Z</time>
      </trkpt>
      <trkpt lat="46.3611" lon="2.57421">
        <ele>245.1</ele>
        <time>2018-10-14T09:35:38Z</time>
      </trkpt>
      <trkpt lat="46.36114" lon="2.57423">
        <ele>244.9</ele>
        <time>2018-10-14T09:35:39Z</time>
      </trkpt>
      <trkpt lat="46.36119" lon="2.57426">
        <ele>245.1</ele>
        <time>2018-10-14T09:35:40Z</time>
      </trkpt>
      <trkpt lat="46.36124" lon="2.57428">
        <ele>245.3</ele>
        <time>2018-10-14T09:35:41Z</time>
      </trkpt>
      <trkpt lat="46.36129" lon="2.57431">
        <ele>245.4</ele>
        <time>2018-10-14T09:35:42Z</time>
      </trkpt>
      <trkpt lat="46.36134" lon="2.57433">
        <ele>245.2</ele>
        <time>2018-10-14T09:35:43Z</time>
      </trkpt>
      <trkpt lat="46.36139" lon="2.57435">
        <ele>245</ele>
        <time>2018-10-14T09:35:44Z</time>
      </trkpt>
      <trkpt lat="46.36144" lon="2.57437">
        <ele>245</ele>
        <time>2018-10-14T09:35:45Z</time>
      </trkpt>
      <trkpt lat="46.36149" lon="2.57439">
        <ele>245</ele>
        <time>2018-10-14T09:35:46Z</time>
      </trkpt>
      <trkpt lat="46.36153" lon="2.57441">
        <ele>245.2</ele>
        <time>2018-10-14T09:35:47Z</time>
      </trkpt>
      <trkpt lat="46.36158" lon="2.57442">
        <ele>245.3</ele>
        <time>2018-10-14T09:35:48Z</time>
      </trkpt>
      <trkpt lat="46.36163" lon="2.57443">
        <ele>245.4</ele>
        <time>2018-10-14T09:35:49Z</time>
      </trkpt>
      <trkpt lat="46.36168" lon="2.57444">
        <ele>245.2</ele>
        <time>2018-10-14T09:35:50Z</time>
      </trkpt>
      <trkpt lat="46.36173" lon="2.57445">
        <ele>245.1</ele>
        <time>2018-10-14T09:35:51Z</time>
      </trkpt>
      <trkpt lat="46.36178" lon="2.57446">
        <ele>244.7</ele>
        <time>2018-10-14T09:35:52Z</time>
      </trkpt>
      <trkpt lat="46.36183" lon="2.57447">
        <ele>244.5</ele>
        <time>2018-10-14T09:35:53Z</time>
      </trkpt>
      <trkpt lat="46.36189" lon="2.57448">
        <ele>244.3</ele>
        <time>2018-10-14T09:35:54Z</time>
      </trkpt>
      <trkpt lat="46.36194" lon="2.57449">
        <ele>244.3</ele>
        <time>2018-10-14T09:35:55Z</time>
      </trkpt>
      <trkpt lat="46.36199" lon="2.57453">
        <ele>244.3</ele>
        <time>2018-10-14T09:35:56Z</time>
      </trkpt>
      <trkpt lat="46.36203" lon="2.57459">
        <ele>244.8</ele>
        <time>2018-10-14T09:35:57Z</time>
      </trkpt>
      <trkpt lat="46.36204" lon="2.5747">
        <ele>245.1</ele>
        <time>2018-10-14T09:35:59Z</time>
      </trkpt>
      <trkpt lat="46.36199" lon="2.57477">
        <ele>245</ele>
        <time>2018-10-14T09:36:01Z</time>
      </trkpt>
      <trkpt lat="46.36193" lon="2.57483">
        <ele>244.9</ele>
        <time>2018-10-14T09:36:03Z</time>
      </trkpt>
      <trkpt lat="46.36187" lon="2.5749">
        <ele>245.9</ele>
        <time>2018-10-14T09:36:05Z</time>
      </trkpt>
      <trkpt lat="46.3618" lon="2.57497">
        <ele>245.1</ele>
        <time>2018-10-14T09:36:07Z</time>
      </trkpt>
      <trkpt lat="46.36176" lon="2.575">
        <ele>244.9</ele>
        <time>2018-10-14T09:36:08Z</time>
      </trkpt>
      <trkpt lat="46.36166" lon="2.5751">
        <ele>245.6</ele>
        <time>2018-10-14T09:36:11Z</time>
      </trkpt>
      <trkpt lat="46.36158" lon="2.57516">
        <ele>245.7</ele>
        <time>2018-10-14T09:36:13Z</time>
      </trkpt>
      <trkpt lat="46.36151" lon="2.57523">
        <ele>245.8</ele>
        <time>2018-10-14T09:36:15Z</time>
      </trkpt>
      <trkpt lat="46.36145" lon="2.57529">
        <ele>245.9</ele>
        <time>2018-10-14T09:36:17Z</time>
      </trkpt>
      <trkpt lat="46.36138" lon="2.57535">
        <ele>245.4</ele>
        <time>2018-10-14T09:36:19Z</time>
      </trkpt>
      <trkpt lat="46.36131" lon="2.57542">
        <ele>245.3</ele>
        <time>2018-10-14T09:36:21Z</time>
      </trkpt>
      <trkpt lat="46.36125" lon="2.57548">
        <ele>245.1</ele>
        <time>2018-10-14T09:36:23Z</time>
      </trkpt>
      <trkpt lat="46.36119" lon="2.57554">
        <ele>245</ele>
        <time>2018-10-14T09:36:25Z</time>
      </trkpt>
      <trkpt lat="46.36113" lon="2.57561">
        <ele>245</ele>
        <time>2018-10-14T09:36:27Z</time>
      </trkpt>
      <trkpt lat="46.36106" lon="2.57568">
        <ele>245.3</ele>
        <time>2018-10-14T09:36:29Z</time>
      </trkpt>
      <trkpt lat="46.36102" lon="2.57572">
        <ele>244.6</ele>
        <time>2018-10-14T09:36:30Z</time>
      </trkpt>
      <trkpt lat="46.36098" lon="2.57577">
        <ele>244.1</ele>
        <time>2018-10-14T09:36:31Z</time>
      </trkpt>
      <trkpt lat="46.36093" lon="2.57582">
        <ele>243.8</ele>
        <time>2018-10-14T09:36:32Z</time>
      </trkpt>
      <trkpt lat="46.36087" lon="2.57587">
        <ele>243.1</ele>
        <time>2018-10-14T09:36:33Z</time>
      </trkpt>
      <trkpt lat="46.36081" lon="2.57591">
        <ele>242.7</ele>
        <time>2018-10-14T09:36:34Z</time>
      </trkpt>
      <trkpt lat="46.36074" lon="2.57594">
        <ele>242.2</ele>
        <time>2018-10-14T09:36:35Z</time>
      </trkpt>
      <trkpt lat="46.36067" lon="2.57598">
        <ele>241.9</ele>
        <time>2018-10-14T09:36:36Z</time>
      </trkpt>
      <trkpt lat="46.36059" lon="2.57602">
        <ele>240.8</ele>
        <time>2018-10-14T09:36:37Z</time>
      </trkpt>
      <trkpt lat="46.36051" lon="2.57608">
        <ele>240.1</ele>
        <time>2018-10-14T09:36:38Z</time>
      </trkpt>
      <trkpt lat="46.36042" lon="2.57614">
        <ele>239.5</ele>
        <time>2018-10-14T09:36:39Z</time>
      </trkpt>
      <trkpt lat="46.36032" lon="2.5762">
        <ele>238.4</ele>
        <time>2018-10-14T09:36:40Z</time>
      </trkpt>
      <trkpt lat="46.36022" lon="2.57626">
        <ele>237.5</ele>
        <time>2018-10-14T09:36:41Z</time>
      </trkpt>
      <trkpt lat="46.36012" lon="2.57632">
        <ele>235.8</ele>
        <time>2018-10-14T09:36:42Z</time>
      </trkpt>
      <trkpt lat="46.36002" lon="2.57637">
        <ele>234.6</ele>
        <time>2018-10-14T09:36:43Z</time>
      </trkpt>
      <trkpt lat="46.35992" lon="2.57643">
        <ele>233.2</ele>
        <time>2018-10-14T09:36:44Z</time>
      </trkpt>
      <trkpt lat="46.35982" lon="2.57648">
        <ele>232.2</ele>
        <time>2018-10-14T09:36:45Z</time>
      </trkpt>
      <trkpt lat="46.35973" lon="2.57652">
        <ele>231.5</ele>
        <time>2018-10-14T09:36:46Z</time>
      </trkpt>
      <trkpt lat="46.35964" lon="2.57655">
        <ele>230.9</ele>
        <time>2018-10-14T09:36:47Z</time>
      </trkpt>
      <trkpt lat="46.35957" lon="2.57657">
        <ele>230.5</ele>
        <time>2018-10-14T09:36:48Z</time>
      </trkpt>
      <trkpt lat="46.35951" lon="2.57659">
        <ele>229.5</ele>
        <time>2018-10-14T09:36:49Z</time>
      </trkpt>
      <trkpt lat="46.35946" lon="2.57661">
        <ele>228.7</ele>
        <time>2018-10-14T09:36:50Z</time>
      </trkpt>
      <trkpt lat="46.35939" lon="2.57667">
        <ele>228</ele>
        <time>2018-10-14T09:36:52Z</time>
      </trkpt>
      <trkpt lat="46.35932" lon="2.57672">
        <ele>228.2</ele>
        <time>2018-10-14T09:36:54Z</time>
      </trkpt>
      <trkpt lat="46.35925" lon="2.57676">
        <ele>228.5</ele>
        <time>2018-10-14T09:36:56Z</time>
      </trkpt>
      <trkpt lat="46.35919" lon="2.5768">
        <ele>228.6</ele>
        <time>2018-10-14T09:36:58Z</time>
      </trkpt>
      <trkpt lat="46.35913" lon="2.57683">
        <ele>228.9</ele>
        <time>2018-10-14T09:37:00Z</time>
      </trkpt>
      <trkpt lat="46.35905" lon="2.57688">
        <ele>230.7</ele>
        <time>2018-10-14T09:37:03Z</time>
      </trkpt>
      <trkpt lat="46.35898" lon="2.57694">
        <ele>232.1</ele>
        <time>2018-10-14T09:37:06Z</time>
      </trkpt>
      <trkpt lat="46.35892" lon="2.577">
        <ele>233</ele>
        <time>2018-10-14T09:37:09Z</time>
      </trkpt>
      <trkpt lat="46.3589" lon="2.57702">
        <ele>233.5</ele>
        <time>2018-10-14T09:37:10Z</time>
      </trkpt>
      <trkpt lat="46.35878" lon="2.57713">
        <ele>236.2</ele>
        <time>2018-10-14T09:37:17Z</time>
      </trkpt>
      <trkpt lat="46.35871" lon="2.5772">
        <ele>237.8</ele>
        <time>2018-10-14T09:37:21Z</time>
      </trkpt>
      <trkpt lat="46.35865" lon="2.57723">
        <ele>238</ele>
        <time>2018-10-14T09:37:24Z</time>
      </trkpt>
      <trkpt lat="46.35856" lon="2.57722">
        <ele>238.3</ele>
        <time>2018-10-14T09:37:28Z</time>
      </trkpt>
      <trkpt lat="46.35848" lon="2.57724">
        <ele>239.9</ele>
        <time>2018-10-14T09:37:32Z</time>
      </trkpt>
      <trkpt lat="46.3585" lon="2.57736">
        <ele>242.2</ele>
        <time>2018-10-14T09:37:36Z</time>
      </trkpt>
      <trkpt lat="46.35855" lon="2.57746">
        <ele>242.3</ele>
        <time>2018-10-14T09:37:39Z</time>
      </trkpt>
      <trkpt lat="46.35858" lon="2.57753">
        <ele>242.2</ele>
        <time>2018-10-14T09:37:41Z</time>
      </trkpt>
      <trkpt lat="46.35862" lon="2.5776">
        <ele>242.3</ele>
        <time>2018-10-14T09:37:43Z</time>
      </trkpt>
      <trkpt lat="46.35867" lon="2.57767">
        <ele>242.1</ele>
        <time>2018-10-14T09:37:45Z</time>
      </trkpt>
      <trkpt lat="46.35871" lon="2.57774">
        <ele>242.4</ele>
        <time>2018-10-14T09:37:47Z</time>
      </trkpt>
      <trkpt lat="46.35875" lon="2.57782">
        <ele>242.4</ele>
        <time>2018-10-14T09:37:49Z</time>
      </trkpt>
      <trkpt lat="46.35879" lon="2.5779">
        <ele>242.3</ele>
        <time>2018-10-14T09:37:51Z</time>
      </trkpt>
      <trkpt lat="46.35883" lon="2.57799">
        <ele>242</ele>
        <time>2018-10-14T09:37:53Z</time>
      </trkpt>
      <trkpt lat="46.35886" lon="2.57806">
        <ele>241.7</ele>
        <time>2018-10-14T09:37:55Z</time>
      </trkpt>
      <trkpt lat="46.35891" lon="2.57814">
        <ele>245.2</ele>
        <time>2018-10-14T09:37:57Z</time>
      </trkpt>
      <trkpt lat="46.35894" lon="2.57823">
        <ele>244</ele>
        <time>2018-10-14T09:37:59Z</time>
      </trkpt>
      <trkpt lat="46.35899" lon="2.57832">
        <ele>243.9</ele>
        <time>2018-10-14T09:38:01Z</time>
      </trkpt>
      <trkpt lat="46.35903" lon="2.5784">
        <ele>243.5</ele>
        <time>2018-10-14T09:38:03Z</time>
      </trkpt>
      <trkpt lat="46.35908" lon="2.57849">
        <ele>243.5</ele>
        <time>2018-10-14T09:38:05Z</time>
      </trkpt>
      <trkpt lat="46.35913" lon="2.57858">
        <ele>243.3</ele>
        <time>2018-10-14T09:38:07Z</time>
      </trkpt>
      <trkpt lat="46.35917" lon="2.57867">
        <ele>242.8</ele>
        <time>2018-10-14T09:38:09Z</time>
      </trkpt>
      <trkpt lat="46.35922" lon="2.57876">
        <ele>242.7</ele>
        <time>2018-10-14T09:38:11Z</time>
      </trkpt>
      <trkpt lat="46.35924" lon="2.57881">
        <ele>242.6</ele>
        <time>2018-10-14T09:38:12Z</time>
      </trkpt>
      <trkpt lat="46.35931" lon="2.57896">
        <ele>242.4</ele>
        <time>2018-10-14T09:38:15Z</time>
      </trkpt>
      <trkpt lat="46.35936" lon="2.57905">
        <ele>242.4</ele>
        <time>2018-10-14T09:38:17Z</time>
      </trkpt>
      <trkpt lat="46.35941" lon="2.57915">
        <ele>242.5</ele>
        <time>2018-10-14T09:38:19Z</time>
      </trkpt>
      <trkpt lat="46.35946" lon="2.57926">
        <ele>242.5</ele>
        <time>2018-10-14T09:38:21Z</time>
      </trkpt>
      <trkpt lat="46.35951" lon="2.57936">
        <ele>242.3</ele>
        <time>2018-10-14T09:38:23Z</time>
      </trkpt>
      <trkpt lat="46.35953" lon="2.57942">
        <ele>242.4</ele>
        <time>2018-10-14T09:38:24Z</time>
      </trkpt>
      <trkpt lat="46.35956" lon="2.57947">
        <ele>242.5</ele>
        <time>2018-10-14T09:38:25Z</time>
      </trkpt>
      <trkpt lat="46.35958" lon="2.57953">
        <ele>242.4</ele>
        <time>2018-10-14T09:38:26Z</time>
      </trkpt>
      <trkpt lat="46.35961" lon="2.57958">
        <ele>242.3</ele>
        <time>2018-10-14T09:38:27Z</time>
      </trkpt>
      <trkpt lat="46.35964" lon="2.57963">
        <ele>242.3</ele>
        <time>2018-10-14T09:38:28Z</time>
      </trkpt>
      <trkpt lat="46.35967" lon="2.57969">
        <ele>242</ele>
        <time>2018-10-14T09:38:29Z</time>
      </trkpt>
      <trkpt lat="46.3597" lon="2.57974">
        <ele>241.8</ele>
        <time>2018-10-14T09:38:30Z</time>
      </trkpt>
      <trkpt lat="46.35973" lon="2.5798">
        <ele>241.8</ele>
        <time>2018-10-14T09:38:31Z</time>
      </trkpt>
      <trkpt lat="46.35975" lon="2.57986">
        <ele>241.9</ele>
        <time>2018-10-14T09:38:32Z</time>
      </trkpt>
      <trkpt lat="46.35978" lon="2.57992">
        <ele>241.9</ele>
        <time>2018-10-14T09:38:33Z</time>
      </trkpt>
      <trkpt lat="46.35981" lon="2.57997">
        <ele>241.7</ele>
        <time>2018-10-14T09:38:34Z</time>
      </trkpt>
      <trkpt lat="46.35985" lon="2.58003">
        <ele>241.5</ele>
        <time>2018-10-14T09:38:35Z</time>
      </trkpt>
      <trkpt lat="46.35988" lon="2.58009">
        <ele>241.3</ele>
        <time>2018-10-14T09:38:36Z</time>
      </trkpt>
      <trkpt lat="46.35991" lon="2.58015">
        <ele>241.1</ele>
        <time>2018-10-14T09:38:37Z</time>
      </trkpt>
      <trkpt lat="46.35994" lon="2.58021">
        <ele>241.6</ele>
        <time>2018-10-14T09:38:38Z</time>
      </trkpt>
      <trkpt lat="46.35997" lon="2.58028">
        <ele>242</ele>
        <time>2018-10-14T09:38:39Z</time>
      </trkpt>
      <trkpt lat="46.36" lon="2.58034">
        <ele>242.3</ele>
        <time>2018-10-14T09:38:40Z</time>
      </trkpt>
      <trkpt lat="46.36003" lon="2.58041">
        <ele>242.2</ele>
        <time>2018-10-14T09:38:41Z</time>
      </trkpt>
      <trkpt lat="46.36007" lon="2.58049">
        <ele>242.2</ele>
        <time>2018-10-14T09:38:42Z</time>
      </trkpt>
      <trkpt lat="46.3601" lon="2.58056">
        <ele>241.8</ele>
        <time>2018-10-14T09:38:43Z</time>
      </trkpt>
      <trkpt lat="46.36014" lon="2.58063">
        <ele>241.6</ele>
        <time>2018-10-14T09:38:44Z</time>
      </trkpt>
      <trkpt lat="46.36018" lon="2.5807">
        <ele>241.2</ele>
        <time>2018-10-14T09:38:45Z</time>
      </trkpt>
      <trkpt lat="46.36022" lon="2.58078">
        <ele>241</ele>
        <time>2018-10-14T09:38:46Z</time>
      </trkpt>
      <trkpt lat="46.36026" lon="2.58086">
        <ele>240.8</ele>
        <time>2018-10-14T09:38:47Z</time>
      </trkpt>
      <trkpt lat="46.3603" lon="2.58094">
        <ele>240.5</ele>
        <time>2018-10-14T09:38:48Z</time>
      </trkpt>
      <trkpt lat="46.36034" lon="2.58102">
        <ele>240.3</ele>
        <time>2018-10-14T09:38:49Z</time>
      </trkpt>
      <trkpt lat="46.36038" lon="2.5811">
        <ele>240.2</ele>
        <time>2018-10-14T09:38:50Z</time>
      </trkpt>
      <trkpt lat="46.36043" lon="2.58119">
        <ele>240.2</ele>
        <time>2018-10-14T09:38:51Z</time>
      </trkpt>
      <trkpt lat="46.36049" lon="2.58127">
        <ele>240.1</ele>
        <time>2018-10-14T09:38:52Z</time>
      </trkpt>
      <trkpt lat="46.36054" lon="2.58136">
        <ele>239.5</ele>
        <time>2018-10-14T09:38:53Z</time>
      </trkpt>
      <trkpt lat="46.36061" lon="2.58145">
        <ele>239.1</ele>
        <time>2018-10-14T09:38:54Z</time>
      </trkpt>
      <trkpt lat="46.36068" lon="2.58152">
        <ele>238.4</ele>
        <time>2018-10-14T09:38:55Z</time>
      </trkpt>
      <trkpt lat="46.36076" lon="2.58156">
        <ele>237.8</ele>
        <time>2018-10-14T09:38:56Z</time>
      </trkpt>
      <trkpt lat="46.36085" lon="2.58157">
        <ele>237.3</ele>
        <time>2018-10-14T09:38:57Z</time>
      </trkpt>
      <trkpt lat="46.36094" lon="2.58155">
        <ele>237</ele>
        <time>2018-10-14T09:38:58Z</time>
      </trkpt>
      <trkpt lat="46.36101" lon="2.58151">
        <ele>236.7</ele>
        <time>2018-10-14T09:38:59Z</time>
      </trkpt>
      <trkpt lat="46.36108" lon="2.58147">
        <ele>235.7</ele>
        <time>2018-10-14T09:39:00Z</time>
      </trkpt>
      <trkpt lat="46.36113" lon="2.58143">
        <ele>235</ele>
        <time>2018-10-14T09:39:01Z</time>
      </trkpt>
      <trkpt lat="46.36121" lon="2.58141">
        <ele>234.2</ele>
        <time>2018-10-14T09:39:03Z</time>
      </trkpt>
      <trkpt lat="46.36121" lon="2.58152">
        <ele>230.9</ele>
        <time>2018-10-14T09:39:09Z</time>
      </trkpt>
      <trkpt lat="46.36114" lon="2.58159">
        <ele>230.9</ele>
        <time>2018-10-14T09:39:12Z</time>
      </trkpt>
      <trkpt lat="46.36112" lon="2.58162">
        <ele>230.8</ele>
        <time>2018-10-14T09:39:13Z</time>
      </trkpt>
      <trkpt lat="46.36106" lon="2.58172">
        <ele>229.7</ele>
        <time>2018-10-14T09:39:16Z</time>
      </trkpt>
      <trkpt lat="46.36106" lon="2.58181">
        <ele>229.1</ele>
        <time>2018-10-14T09:39:18Z</time>
      </trkpt>
      <trkpt lat="46.36108" lon="2.58189">
        <ele>228.9</ele>
        <time>2018-10-14T09:39:20Z</time>
      </trkpt>
      <trkpt lat="46.36112" lon="2.58198">
        <ele>228.9</ele>
        <time>2018-10-14T09:39:22Z</time>
      </trkpt>
      <trkpt lat="46.36116" lon="2.58206">
        <ele>228.6</ele>
        <time>2018-10-14T09:39:24Z</time>
      </trkpt>
      <trkpt lat="46.3612" lon="2.58216">
        <ele>228.4</ele>
        <time>2018-10-14T09:39:26Z</time>
      </trkpt>
      <trkpt lat="46.36125" lon="2.58227">
        <ele>228.2</ele>
        <time>2018-10-14T09:39:28Z</time>
      </trkpt>
      <trkpt lat="46.36128" lon="2.58232">
        <ele>228</ele>
        <time>2018-10-14T09:39:29Z</time>
      </trkpt>
      <trkpt lat="46.3613" lon="2.58238">
        <ele>227.9</ele>
        <time>2018-10-14T09:39:30Z</time>
      </trkpt>
      <trkpt lat="46.36133" lon="2.58244">
        <ele>228.4</ele>
        <time>2018-10-14T09:39:31Z</time>
      </trkpt>
      <trkpt lat="46.36136" lon="2.58251">
        <ele>228.8</ele>
        <time>2018-10-14T09:39:32Z</time>
      </trkpt>
      <trkpt lat="46.36139" lon="2.58258">
        <ele>228.8</ele>
        <time>2018-10-14T09:39:33Z</time>
      </trkpt>
      <trkpt lat="46.36142" lon="2.58264">
        <ele>228.9</ele>
        <time>2018-10-14T09:39:34Z</time>
      </trkpt>
      <trkpt lat="46.36146" lon="2.58272">
        <ele>228.5</ele>
        <time>2018-10-14T09:39:35Z</time>
      </trkpt>
      <trkpt lat="46.36149" lon="2.58279">
        <ele>228.2</ele>
        <time>2018-10-14T09:39:36Z</time>
      </trkpt>
      <trkpt lat="46.36152" lon="2.58287">
        <ele>227.9</ele>
        <time>2018-10-14T09:39:37Z</time>
      </trkpt>
      <trkpt lat="46.36155" lon="2.58296">
        <ele>227.6</ele>
        <time>2018-10-14T09:39:38Z</time>
      </trkpt>
      <trkpt lat="46.36157" lon="2.58306">
        <ele>227.3</ele>
        <time>2018-10-14T09:39:39Z</time>
      </trkpt>
      <trkpt lat="46.36158" lon="2.58316">
        <ele>227.3</ele>
        <time>2018-10-14T09:39:40Z</time>
      </trkpt>
      <trkpt lat="46.36159" lon="2.58326">
        <ele>227.4</ele>
        <time>2018-10-14T09:39:41Z</time>
      </trkpt>
      <trkpt lat="46.3616" lon="2.58337">
        <ele>227</ele>
        <time>2018-10-14T09:39:42Z</time>
      </trkpt>
      <trkpt lat="46.3616" lon="2.58347">
        <ele>226.7</ele>
        <time>2018-10-14T09:39:43Z</time>
      </trkpt>
      <trkpt lat="46.36161" lon="2.58358">
        <ele>226.5</ele>
        <time>2018-10-14T09:39:44Z</time>
      </trkpt>
      <trkpt lat="46.36161" lon="2.58368">
        <ele>225.9</ele>
        <time>2018-10-14T09:39:45Z</time>
      </trkpt>
      <trkpt lat="46.36162" lon="2.58378">
        <ele>225.4</ele>
        <time>2018-10-14T09:39:46Z</time>
      </trkpt>
      <trkpt lat="46.36162" lon="2.58387">
        <ele>225.2</ele>
        <time>2018-10-14T09:39:47Z</time>
      </trkpt>
      <trkpt lat="46.36163" lon="2.58395">
        <ele>225</ele>
        <time>2018-10-14T09:39:48Z</time>
      </trkpt>
      <trkpt lat="46.36167" lon="2.584">
        <ele>224.6</ele>
        <time>2018-10-14T09:39:49Z</time>
      </trkpt>
      <trkpt lat="46.36171" lon="2.58402">
        <ele>224.4</ele>
        <time>2018-10-14T09:39:50Z</time>
      </trkpt>
      <trkpt lat="46.36176" lon="2.58401">
        <ele>224.2</ele>
        <time>2018-10-14T09:39:51Z</time>
      </trkpt>
      <trkpt lat="46.36184" lon="2.58394">
        <ele>222.9</ele>
        <time>2018-10-14T09:39:53Z</time>
      </trkpt>
      <trkpt lat="46.36191" lon="2.58389">
        <ele>222.1</ele>
        <time>2018-10-14T09:39:55Z</time>
      </trkpt>
      <trkpt lat="46.36198" lon="2.58389">
        <ele>221.7</ele>
        <time>2018-10-14T09:39:57Z</time>
      </trkpt>
      <trkpt lat="46.36204" lon="2.58397">
        <ele>221.1</ele>
        <time>2018-10-14T09:39:59Z</time>
      </trkpt>
      <trkpt lat="46.36208" lon="2.58405">
        <ele>220.9</ele>
        <time>2018-10-14T09:40:01Z</time>
      </trkpt>
      <trkpt lat="46.36213" lon="2.58415">
        <ele>220.9</ele>
        <time>2018-10-14T09:40:10Z</time>
      </trkpt>
      <trkpt lat="46.36217" lon="2.58426">
        <ele>222.1</ele>
        <time>2018-10-14T09:40:20Z</time>
      </trkpt>
      <trkpt lat="46.36217" lon="2.58429">
        <ele>222.1</ele>
        <time>2018-10-14T09:40:21Z</time>
      </trkpt>
      <trkpt lat="46.36225" lon="2.58441">
        <ele>221.8</ele>
        <time>2018-10-14T09:40:25Z</time>
      </trkpt>
      <trkpt lat="46.36231" lon="2.58439">
        <ele>222.1</ele>
        <time>2018-10-14T09:40:27Z</time>
      </trkpt>
      <trkpt lat="46.36238" lon="2.58435">
        <ele>222.5</ele>
        <time>2018-10-14T09:40:29Z</time>
      </trkpt>
      <trkpt lat="46.36244" lon="2.5843">
        <ele>222.9</ele>
        <time>2018-10-14T09:40:31Z</time>
      </trkpt>
      <trkpt lat="46.3625" lon="2.58426">
        <ele>222.5</ele>
        <time>2018-10-14T09:40:33Z</time>
      </trkpt>
      <trkpt lat="46.36257" lon="2.58423">
        <ele>222.2</ele>
        <time>2018-10-14T09:40:35Z</time>
      </trkpt>
      <trkpt lat="46.36264" lon="2.5842">
        <ele>222.1</ele>
        <time>2018-10-14T09:40:37Z</time>
      </trkpt>
      <trkpt lat="46.36272" lon="2.58418">
        <ele>222.5</ele>
        <time>2018-10-14T09:40:39Z</time>
      </trkpt>
      <trkpt lat="46.36279" lon="2.58415">
        <ele>222.9</ele>
        <time>2018-10-14T09:40:41Z</time>
      </trkpt>
      <trkpt lat="46.36287" lon="2.58412">
        <ele>222.3</ele>
        <time>2018-10-14T09:40:43Z</time>
      </trkpt>
      <trkpt lat="46.36295" lon="2.5841">
        <ele>222.6</ele>
        <time>2018-10-14T09:40:45Z</time>
      </trkpt>
      <trkpt lat="46.36303" lon="2.58409">
        <ele>222.8</ele>
        <time>2018-10-14T09:40:47Z</time>
      </trkpt>
      <trkpt lat="46.36312" lon="2.58409">
        <ele>222.8</ele>
        <time>2018-10-14T09:40:49Z</time>
      </trkpt>
      <trkpt lat="46.3632" lon="2.5841">
        <ele>222.6</ele>
        <time>2018-10-14T09:40:51Z</time>
      </trkpt>
      <trkpt lat="46.36325" lon="2.5841">
        <ele>222.5</ele>
        <time>2018-10-14T09:40:52Z</time>
      </trkpt>
      <trkpt lat="46.36329" lon="2.58411">
        <ele>222.4</ele>
        <time>2018-10-14T09:40:53Z</time>
      </trkpt>
      <trkpt lat="46.36334" lon="2.58413">
        <ele>222.4</ele>
        <time>2018-10-14T09:40:54Z</time>
      </trkpt>
      <trkpt lat="46.36338" lon="2.58414">
        <ele>222.5</ele>
        <time>2018-10-14T09:40:55Z</time>
      </trkpt>
      <trkpt lat="46.36347" lon="2.58418">
        <ele>221.8</ele>
        <time>2018-10-14T09:40:57Z</time>
      </trkpt>
      <trkpt lat="46.36355" lon="2.58422">
        <ele>221.6</ele>
        <time>2018-10-14T09:40:59Z</time>
      </trkpt>
      <trkpt lat="46.36359" lon="2.58425">
        <ele>221.6</ele>
        <time>2018-10-14T09:41:00Z</time>
      </trkpt>
      <trkpt lat="46.36364" lon="2.58427">
        <ele>221.4</ele>
        <time>2018-10-14T09:41:01Z</time>
      </trkpt>
      <trkpt lat="46.36369" lon="2.5843">
        <ele>221.2</ele>
        <time>2018-10-14T09:41:02Z</time>
      </trkpt>
      <trkpt lat="46.36373" lon="2.58433">
        <ele>221.8</ele>
        <time>2018-10-14T09:41:03Z</time>
      </trkpt>
      <trkpt lat="46.36378" lon="2.58435">
        <ele>222.2</ele>
        <time>2018-10-14T09:41:04Z</time>
      </trkpt>
      <trkpt lat="46.36382" lon="2.58438">
        <ele>221.7</ele>
        <time>2018-10-14T09:41:05Z</time>
      </trkpt>
      <trkpt lat="46.36387" lon="2.58441">
        <ele>221.3</ele>
        <time>2018-10-14T09:41:06Z</time>
      </trkpt>
      <trkpt lat="46.36392" lon="2.58443">
        <ele>221</ele>
        <time>2018-10-14T09:41:07Z</time>
      </trkpt>
      <trkpt lat="46.36396" lon="2.58446">
        <ele>220.9</ele>
        <time>2018-10-14T09:41:08Z</time>
      </trkpt>
      <trkpt lat="46.36401" lon="2.58448">
        <ele>220.8</ele>
        <time>2018-10-14T09:41:09Z</time>
      </trkpt>
      <trkpt lat="46.36405" lon="2.58451">
        <ele>221.2</ele>
        <time>2018-10-14T09:41:10Z</time>
      </trkpt>
      <trkpt lat="46.3641" lon="2.58453">
        <ele>221.5</ele>
        <time>2018-10-14T09:41:11Z</time>
      </trkpt>
      <trkpt lat="46.36414" lon="2.58456">
        <ele>221.7</ele>
        <time>2018-10-14T09:41:12Z</time>
      </trkpt>
      <trkpt lat="46.36419" lon="2.58458">
        <ele>221.4</ele>
        <time>2018-10-14T09:41:13Z</time>
      </trkpt>
      <trkpt lat="46.36423" lon="2.58461">
        <ele>221.2</ele>
        <time>2018-10-14T09:41:14Z</time>
      </trkpt>
      <trkpt lat="46.36428" lon="2.58463">
        <ele>221.2</ele>
        <time>2018-10-14T09:41:15Z</time>
      </trkpt>
      <trkpt lat="46.36432" lon="2.58466">
        <ele>221.2</ele>
        <time>2018-10-14T09:41:16Z</time>
      </trkpt>
      <trkpt lat="46.36437" lon="2.58468">
        <ele>220.8</ele>
        <time>2018-10-14T09:41:17Z</time>
      </trkpt>
      <trkpt lat="46.36441" lon="2.5847">
        <ele>220.5</ele>
        <time>2018-10-14T09:41:18Z</time>
      </trkpt>
      <trkpt lat="46.36446" lon="2.58473">
        <ele>220.2</ele>
        <time>2018-10-14T09:41:19Z</time>
      </trkpt>
      <trkpt lat="46.3645" lon="2.58475">
        <ele>219.9</ele>
        <time>2018-10-14T09:41:20Z</time>
      </trkpt>
      <trkpt lat="46.36454" lon="2.58478">
        <ele>219.7</ele>
        <time>2018-10-14T09:41:21Z</time>
      </trkpt>
      <trkpt lat="46.36459" lon="2.5848">
        <ele>219.8</ele>
        <time>2018-10-14T09:41:22Z</time>
      </trkpt>
      <trkpt lat="46.36464" lon="2.58481">
        <ele>219.9</ele>
        <time>2018-10-14T09:41:23Z</time>
      </trkpt>
      <trkpt lat="46.36468" lon="2.5848">
        <ele>220.1</ele>
        <time>2018-10-14T09:41:24Z</time>
      </trkpt>
      <trkpt lat="46.36476" lon="2.58476">
        <ele>220.4</ele>
        <time>2018-10-14T09:41:26Z</time>
      </trkpt>
      <trkpt lat="46.36485" lon="2.58477">
        <ele>219.8</ele>
        <time>2018-10-14T09:41:28Z</time>
      </trkpt>
      <trkpt lat="46.36494" lon="2.58481">
        <ele>220</ele>
        <time>2018-10-14T09:41:30Z</time>
      </trkpt>
      <trkpt lat="46.36502" lon="2.58486">
        <ele>220.1</ele>
        <time>2018-10-14T09:41:32Z</time>
      </trkpt>
      <trkpt lat="46.36506" lon="2.58494">
        <ele>219.7</ele>
        <time>2018-10-14T09:41:34Z</time>
      </trkpt>
      <trkpt lat="46.36502" lon="2.58503">
        <ele>219.7</ele>
        <time>2018-10-14T09:41:36Z</time>
      </trkpt>
      <trkpt lat="46.36499" lon="2.58512">
        <ele>220</ele>
        <time>2018-10-14T09:41:38Z</time>
      </trkpt>
      <trkpt lat="46.36498" lon="2.58522">
        <ele>219</ele>
        <time>2018-10-14T09:41:40Z</time>
      </trkpt>
      <trkpt lat="46.36497" lon="2.58532">
        <ele>218.3</ele>
        <time>2018-10-14T09:41:42Z</time>
      </trkpt>
      <trkpt lat="46.36498" lon="2.58543">
        <ele>218.9</ele>
        <time>2018-10-14T09:41:44Z</time>
      </trkpt>
      <trkpt lat="46.36499" lon="2.58554">
        <ele>219</ele>
        <time>2018-10-14T09:41:46Z</time>
      </trkpt>
      <trkpt lat="46.365" lon="2.58565">
        <ele>219.2</ele>
        <time>2018-10-14T09:41:48Z</time>
      </trkpt>
      <trkpt lat="46.365" lon="2.58577">
        <ele>219.3</ele>
        <time>2018-10-14T09:41:50Z</time>
      </trkpt>
      <trkpt lat="46.36501" lon="2.58589">
        <ele>219.3</ele>
        <time>2018-10-14T09:41:52Z</time>
      </trkpt>
      <trkpt lat="46.36502" lon="2.58602">
        <ele>219.5</ele>
        <time>2018-10-14T09:41:54Z</time>
      </trkpt>
      <trkpt lat="46.36503" lon="2.58614">
        <ele>219.9</ele>
        <time>2018-10-14T09:41:56Z</time>
      </trkpt>
      <trkpt lat="46.36504" lon="2.58626">
        <ele>220.1</ele>
        <time>2018-10-14T09:41:58Z</time>
      </trkpt>
      <trkpt lat="46.36505" lon="2.58637">
        <ele>220.1</ele>
        <time>2018-10-14T09:42:00Z</time>
      </trkpt>
      <trkpt lat="46.36506" lon="2.58649">
        <ele>220.1</ele>
        <time>2018-10-14T09:42:02Z</time>
      </trkpt>
      <trkpt lat="46.36507" lon="2.58661">
        <ele>220.4</ele>
        <time>2018-10-14T09:42:04Z</time>
      </trkpt>
      <trkpt lat="46.36508" lon="2.58672">
        <ele>220.2</ele>
        <time>2018-10-14T09:42:06Z</time>
      </trkpt>
      <trkpt lat="46.3651" lon="2.58685">
        <ele>219.9</ele>
        <time>2018-10-14T09:42:08Z</time>
      </trkpt>
      <trkpt lat="46.36511" lon="2.58697">
        <ele>219.3</ele>
        <time>2018-10-14T09:42:10Z</time>
      </trkpt>
      <trkpt lat="46.36512" lon="2.5871">
        <ele>219.2</ele>
        <time>2018-10-14T09:42:12Z</time>
      </trkpt>
      <trkpt lat="46.36512" lon="2.58722">
        <ele>219.2</ele>
        <time>2018-10-14T09:42:14Z</time>
      </trkpt>
      <trkpt lat="46.36513" lon="2.58735">
        <ele>219.2</ele>
        <time>2018-10-14T09:42:16Z</time>
      </trkpt>
      <trkpt lat="46.36514" lon="2.58747">
        <ele>218.7</ele>
        <time>2018-10-14T09:42:18Z</time>
      </trkpt>
      <trkpt lat="46.36515" lon="2.5876">
        <ele>217.9</ele>
        <time>2018-10-14T09:42:20Z</time>
      </trkpt>
      <trkpt lat="46.36518" lon="2.5877">
        <ele>217.7</ele>
        <time>2018-10-14T09:42:22Z</time>
      </trkpt>
      <trkpt lat="46.36521" lon="2.58771">
        <ele>217.6</ele>
        <time>2018-10-14T09:42:23Z</time>
      </trkpt>
      <trkpt lat="46.36526" lon="2.58788">
        <ele>218.8</ele>
        <time>2018-10-14T09:42:28Z</time>
      </trkpt>
      <trkpt lat="46.36526" lon="2.58796">
        <ele>218.6</ele>
        <time>2018-10-14T09:42:30Z</time>
      </trkpt>
      <trkpt lat="46.36527" lon="2.58805">
        <ele>218.6</ele>
        <time>2018-10-14T09:42:32Z</time>
      </trkpt>
      <trkpt lat="46.36528" lon="2.58814">
        <ele>219.3</ele>
        <time>2018-10-14T09:42:34Z</time>
      </trkpt>
      <trkpt lat="46.3653" lon="2.58823">
        <ele>219.4</ele>
        <time>2018-10-14T09:42:36Z</time>
      </trkpt>
      <trkpt lat="46.36532" lon="2.58832">
        <ele>219</ele>
        <time>2018-10-14T09:42:38Z</time>
      </trkpt>
      <trkpt lat="46.36538" lon="2.58841">
        <ele>216.5</ele>
        <time>2018-10-14T09:42:47Z</time>
      </trkpt>
      <trkpt lat="46.36545" lon="2.58834">
        <ele>218.7</ele>
        <time>2018-10-14T09:51:00Z</time>
      </trkpt>
      <trkpt lat="46.36546" lon="2.58834">
        <ele>218.8</ele>
        <time>2018-10-14T09:51:01Z</time>
      </trkpt>
      <trkpt lat="46.36557" lon="2.58849">
        <ele>219</ele>
        <time>2018-10-14T09:51:12Z</time>
      </trkpt>
      <trkpt lat="46.36558" lon="2.58859">
        <ele>218.5</ele>
        <time>2018-10-14T09:51:16Z</time>
      </trkpt>
      <trkpt lat="46.36553" lon="2.58869">
        <ele>218.4</ele>
        <time>2018-10-14T09:51:21Z</time>
      </trkpt>
      <trkpt lat="46.36545" lon="2.58873">
        <ele>218.8</ele>
        <time>2018-10-14T09:51:25Z</time>
      </trkpt>
      <trkpt lat="46.36536" lon="2.58875">
        <ele>218.7</ele>
        <time>2018-10-14T09:51:29Z</time>
      </trkpt>
      <trkpt lat="46.36528" lon="2.58878">
        <ele>219.3</ele>
        <time>2018-10-14T09:51:35Z</time>
      </trkpt>
      <trkpt lat="46.36527" lon="2.5889">
        <ele>218.7</ele>
        <time>2018-10-14T09:51:39Z</time>
      </trkpt>
      <trkpt lat="46.36527" lon="2.58902">
        <ele>218</ele>
        <time>2018-10-14T09:51:42Z</time>
      </trkpt>
      <trkpt lat="46.36527" lon="2.58911">
        <ele>218.1</ele>
        <time>2018-10-14T09:51:44Z</time>
      </trkpt>
      <trkpt lat="46.36527" lon="2.5892">
        <ele>218.8</ele>
        <time>2018-10-14T09:51:46Z</time>
      </trkpt>
      <trkpt lat="46.36528" lon="2.5893">
        <ele>219</ele>
        <time>2018-10-14T09:51:48Z</time>
      </trkpt>
      <trkpt lat="46.3653" lon="2.5894">
        <ele>218.9</ele>
        <time>2018-10-14T09:51:50Z</time>
      </trkpt>
      <trkpt lat="46.36531" lon="2.58951">
        <ele>218.5</ele>
        <time>2018-10-14T09:51:52Z</time>
      </trkpt>
      <trkpt lat="46.36531" lon="2.58961">
        <ele>218.5</ele>
        <time>2018-10-14T09:51:54Z</time>
      </trkpt>
      <trkpt lat="46.36531" lon="2.5897">
        <ele>218.3</ele>
        <time>2018-10-14T09:51:56Z</time>
      </trkpt>
      <trkpt lat="46.36532" lon="2.5898">
        <ele>217.8</ele>
        <time>2018-10-14T09:51:58Z</time>
      </trkpt>
      <trkpt lat="46.36533" lon="2.5899">
        <ele>217.7</ele>
        <time>2018-10-14T09:52:00Z</time>
      </trkpt>
      <trkpt lat="46.36534" lon="2.59">
        <ele>217.9</ele>
        <time>2018-10-14T09:52:02Z</time>
      </trkpt>
      <trkpt lat="46.36534" lon="2.59005">
        <ele>217.7</ele>
        <time>2018-10-14T09:52:03Z</time>
      </trkpt>
      <trkpt lat="46.36536" lon="2.59021">
        <ele>218.5</ele>
        <time>2018-10-14T09:52:06Z</time>
      </trkpt>
      <trkpt lat="46.36537" lon="2.59032">
        <ele>218.3</ele>
        <time>2018-10-14T09:52:08Z</time>
      </trkpt>
      <trkpt lat="46.36538" lon="2.59043">
        <ele>218.3</ele>
        <time>2018-10-14T09:52:10Z</time>
      </trkpt>
      <trkpt lat="46.36538" lon="2.59054">
        <ele>218.4</ele>
        <time>2018-10-14T09:52:12Z</time>
      </trkpt>
      <trkpt lat="46.36539" lon="2.59066">
        <ele>218.5</ele>
        <time>2018-10-14T09:52:14Z</time>
      </trkpt>
      <trkpt lat="46.3654" lon="2.59077">
        <ele>217.4</ele>
        <time>2018-10-14T09:52:16Z</time>
      </trkpt>
      <trkpt lat="46.36541" lon="2.59087">
        <ele>217.8</ele>
        <time>2018-10-14T09:52:18Z</time>
      </trkpt>
      <trkpt lat="46.36542" lon="2.59097">
        <ele>218.5</ele>
        <time>2018-10-14T09:52:20Z</time>
      </trkpt>
      <trkpt lat="46.36543" lon="2.59107">
        <ele>218.6</ele>
        <time>2018-10-14T09:52:22Z</time>
      </trkpt>
      <trkpt lat="46.36543" lon="2.59117">
        <ele>218.1</ele>
        <time>2018-10-14T09:52:24Z</time>
      </trkpt>
      <trkpt lat="46.36544" lon="2.59127">
        <ele>217.6</ele>
        <time>2018-10-14T09:52:26Z</time>
      </trkpt>
      <trkpt lat="46.36544" lon="2.59137">
        <ele>217.4</ele>
        <time>2018-10-14T09:52:28Z</time>
      </trkpt>
      <trkpt lat="46.36545" lon="2.59148">
        <ele>218.2</ele>
        <time>2018-10-14T09:52:30Z</time>
      </trkpt>
      <trkpt lat="46.36546" lon="2.59159">
        <ele>217.2</ele>
        <time>2018-10-14T09:52:32Z</time>
      </trkpt>
      <trkpt lat="46.36547" lon="2.5917">
        <ele>217.4</ele>
        <time>2018-10-14T09:52:34Z</time>
      </trkpt>
      <trkpt lat="46.36547" lon="2.59182">
        <ele>217.5</ele>
        <time>2018-10-14T09:52:36Z</time>
      </trkpt>
      <trkpt lat="46.36548" lon="2.59193">
        <ele>217.5</ele>
        <time>2018-10-14T09:52:38Z</time>
      </trkpt>
      <trkpt lat="46.36549" lon="2.59204">
        <ele>217.6</ele>
        <time>2018-10-14T09:52:40Z</time>
      </trkpt>
      <trkpt lat="46.3655" lon="2.59215">
        <ele>216.9</ele>
        <time>2018-10-14T09:52:42Z</time>
      </trkpt>
      <trkpt lat="46.36548" lon="2.59225">
        <ele>217.1</ele>
        <time>2018-10-14T09:52:44Z</time>
      </trkpt>
      <trkpt lat="46.36539" lon="2.59228">
        <ele>216.9</ele>
        <time>2018-10-14T09:52:47Z</time>
      </trkpt>
      <trkpt lat="46.3653" lon="2.59226">
        <ele>216.6</ele>
        <time>2018-10-14T09:52:50Z</time>
      </trkpt>
      <trkpt lat="46.36524" lon="2.59224">
        <ele>216.4</ele>
        <time>2018-10-14T09:52:52Z</time>
      </trkpt>
      <trkpt lat="46.36518" lon="2.59221">
        <ele>216.3</ele>
        <time>2018-10-14T09:52:54Z</time>
      </trkpt>
      <trkpt lat="46.36512" lon="2.59218">
        <ele>217.1</ele>
        <time>2018-10-14T09:52:56Z</time>
      </trkpt>
      <trkpt lat="46.36506" lon="2.59216">
        <ele>217.6</ele>
        <time>2018-10-14T09:52:58Z</time>
      </trkpt>
      <trkpt lat="46.36499" lon="2.59213">
        <ele>217.5</ele>
        <time>2018-10-14T09:53:00Z</time>
      </trkpt>
      <trkpt lat="46.36493" lon="2.59211">
        <ele>217.1</ele>
        <time>2018-10-14T09:53:02Z</time>
      </trkpt>
      <trkpt lat="46.36486" lon="2.59208">
        <ele>216.9</ele>
        <time>2018-10-14T09:53:04Z</time>
      </trkpt>
      <trkpt lat="46.36483" lon="2.59207">
        <ele>217</ele>
        <time>2018-10-14T09:53:05Z</time>
      </trkpt>
      <trkpt lat="46.36473" lon="2.59204">
        <ele>217.9</ele>
        <time>2018-10-14T09:53:08Z</time>
      </trkpt>
      <trkpt lat="46.36465" lon="2.59202">
        <ele>217.5</ele>
        <time>2018-10-14T09:53:10Z</time>
      </trkpt>
      <trkpt lat="46.36458" lon="2.592">
        <ele>217.4</ele>
        <time>2018-10-14T09:53:12Z</time>
      </trkpt>
      <trkpt lat="46.36451" lon="2.59199">
        <ele>217.3</ele>
        <time>2018-10-14T09:53:14Z</time>
      </trkpt>
      <trkpt lat="46.36443" lon="2.59198">
        <ele>217.1</ele>
        <time>2018-10-14T09:53:16Z</time>
      </trkpt>
      <trkpt lat="46.36436" lon="2.59197">
        <ele>217</ele>
        <time>2018-10-14T09:53:18Z</time>
      </trkpt>
      <trkpt lat="46.36428" lon="2.59196">
        <ele>216.6</ele>
        <time>2018-10-14T09:53:20Z</time>
      </trkpt>
      <trkpt lat="46.3642" lon="2.59195">
        <ele>216.2</ele>
        <time>2018-10-14T09:53:22Z</time>
      </trkpt>
      <trkpt lat="46.36413" lon="2.59195">
        <ele>215.5</ele>
        <time>2018-10-14T09:53:24Z</time>
      </trkpt>
      <trkpt lat="46.36405" lon="2.59194">
        <ele>215.7</ele>
        <time>2018-10-14T09:53:26Z</time>
      </trkpt>
      <trkpt lat="46.36398" lon="2.59193">
        <ele>216.3</ele>
        <time>2018-10-14T09:53:28Z</time>
      </trkpt>
      <trkpt lat="46.3639" lon="2.59192">
        <ele>216.9</ele>
        <time>2018-10-14T09:53:30Z</time>
      </trkpt>
      <trkpt lat="46.36383" lon="2.59191">
        <ele>217.4</ele>
        <time>2018-10-14T09:53:32Z</time>
      </trkpt>
      <trkpt lat="46.36375" lon="2.59191">
        <ele>217.7</ele>
        <time>2018-10-14T09:53:34Z</time>
      </trkpt>
      <trkpt lat="46.36368" lon="2.5919">
        <ele>218</ele>
        <time>2018-10-14T09:53:36Z</time>
      </trkpt>
      <trkpt lat="46.36361" lon="2.59189">
        <ele>218</ele>
        <time>2018-10-14T09:53:38Z</time>
      </trkpt>
      <trkpt lat="46.36353" lon="2.59189">
        <ele>218.3</ele>
        <time>2018-10-14T09:53:40Z</time>
      </trkpt>
      <trkpt lat="46.36346" lon="2.59188">
        <ele>218.1</ele>
        <time>2018-10-14T09:53:42Z</time>
      </trkpt>
      <trkpt lat="46.36338" lon="2.59187">
        <ele>217.6</ele>
        <time>2018-10-14T09:53:44Z</time>
      </trkpt>
      <trkpt lat="46.36332" lon="2.59187">
        <ele>217.5</ele>
        <time>2018-10-14T09:53:46Z</time>
      </trkpt>
      <trkpt lat="46.36325" lon="2.59186">
        <ele>217.7</ele>
        <time>2018-10-14T09:53:48Z</time>
      </trkpt>
      <trkpt lat="46.36318" lon="2.59185">
        <ele>217.6</ele>
        <time>2018-10-14T09:53:50Z</time>
      </trkpt>
      <trkpt lat="46.36312" lon="2.59184">
        <ele>217.6</ele>
        <time>2018-10-14T09:53:52Z</time>
      </trkpt>
      <trkpt lat="46.36305" lon="2.59183">
        <ele>217.5</ele>
        <time>2018-10-14T09:53:54Z</time>
      </trkpt>
      <trkpt lat="46.36298" lon="2.59182">
        <ele>217.4</ele>
        <time>2018-10-14T09:53:56Z</time>
      </trkpt>
      <trkpt lat="46.36291" lon="2.5918">
        <ele>217.4</ele>
        <time>2018-10-14T09:53:58Z</time>
      </trkpt>
      <trkpt lat="46.36285" lon="2.59177">
        <ele>216.9</ele>
        <time>2018-10-14T09:54:00Z</time>
      </trkpt>
      <trkpt lat="46.36279" lon="2.59172">
        <ele>216.6</ele>
        <time>2018-10-14T09:54:02Z</time>
      </trkpt>
      <trkpt lat="46.36275" lon="2.59164">
        <ele>216.5</ele>
        <time>2018-10-14T09:54:04Z</time>
      </trkpt>
      <trkpt lat="46.36271" lon="2.59156">
        <ele>216.7</ele>
        <time>2018-10-14T09:54:06Z</time>
      </trkpt>
      <trkpt lat="46.36268" lon="2.59152">
        <ele>216.9</ele>
        <time>2018-10-14T09:54:07Z</time>
      </trkpt>
      <trkpt lat="46.36258" lon="2.59151">
        <ele>217.5</ele>
        <time>2018-10-14T09:54:10Z</time>
      </trkpt>
      <trkpt lat="46.36252" lon="2.59158">
        <ele>217.2</ele>
        <time>2018-10-14T09:54:12Z</time>
      </trkpt>
      <trkpt lat="46.36246" lon="2.59165">
        <ele>217.3</ele>
        <time>2018-10-14T09:54:14Z</time>
      </trkpt>
      <trkpt lat="46.3624" lon="2.5917">
        <ele>217.2</ele>
        <time>2018-10-14T09:54:16Z</time>
      </trkpt>
      <trkpt lat="46.36233" lon="2.59171">
        <ele>217.3</ele>
        <time>2018-10-14T09:54:18Z</time>
      </trkpt>
      <trkpt lat="46.36226" lon="2.59172">
        <ele>217.5</ele>
        <time>2018-10-14T09:54:20Z</time>
      </trkpt>
      <trkpt lat="46.36219" lon="2.59171">
        <ele>217.5</ele>
        <time>2018-10-14T09:54:22Z</time>
      </trkpt>
      <trkpt lat="46.36211" lon="2.59171">
        <ele>217.1</ele>
        <time>2018-10-14T09:54:24Z</time>
      </trkpt>
      <trkpt lat="46.36204" lon="2.59171">
        <ele>217.9</ele>
        <time>2018-10-14T09:54:26Z</time>
      </trkpt>
      <trkpt lat="46.36197" lon="2.59171">
        <ele>217.7</ele>
        <time>2018-10-14T09:54:28Z</time>
      </trkpt>
      <trkpt lat="46.36189" lon="2.59171">
        <ele>217.6</ele>
        <time>2018-10-14T09:54:30Z</time>
      </trkpt>
      <trkpt lat="46.36182" lon="2.59171">
        <ele>217.5</ele>
        <time>2018-10-14T09:54:32Z</time>
      </trkpt>
      <trkpt lat="46.36174" lon="2.59172">
        <ele>217.3</ele>
        <time>2018-10-14T09:54:34Z</time>
      </trkpt>
      <trkpt lat="46.36167" lon="2.59173">
        <ele>217.7</ele>
        <time>2018-10-14T09:54:36Z</time>
      </trkpt>
      <trkpt lat="46.36159" lon="2.59174">
        <ele>217</ele>
        <time>2018-10-14T09:54:38Z</time>
      </trkpt>
      <trkpt lat="46.36152" lon="2.59175">
        <ele>217.5</ele>
        <time>2018-10-14T09:54:40Z</time>
      </trkpt>
      <trkpt lat="46.36144" lon="2.59176">
        <ele>217.6</ele>
        <time>2018-10-14T09:54:42Z</time>
      </trkpt>
      <trkpt lat="46.36136" lon="2.59177">
        <ele>217.3</ele>
        <time>2018-10-14T09:54:44Z</time>
      </trkpt>
      <trkpt lat="46.36128" lon="2.59178">
        <ele>217.5</ele>
        <time>2018-10-14T09:54:46Z</time>
      </trkpt>
      <trkpt lat="46.36119" lon="2.59179">
        <ele>218</ele>
        <time>2018-10-14T09:54:48Z</time>
      </trkpt>
      <trkpt lat="46.36111" lon="2.5918">
        <ele>216.9</ele>
        <time>2018-10-14T09:54:50Z</time>
      </trkpt>
      <trkpt lat="46.36104" lon="2.59182">
        <ele>217.6</ele>
        <time>2018-10-14T09:54:52Z</time>
      </trkpt>
      <trkpt lat="46.36096" lon="2.59183">
        <ele>217.7</ele>
        <time>2018-10-14T09:54:54Z</time>
      </trkpt>
      <trkpt lat="46.36087" lon="2.59184">
        <ele>218.1</ele>
        <time>2018-10-14T09:54:56Z</time>
      </trkpt>
      <trkpt lat="46.36079" lon="2.59186">
        <ele>218.1</ele>
        <time>2018-10-14T09:54:58Z</time>
      </trkpt>
      <trkpt lat="46.36071" lon="2.59186">
        <ele>217.7</ele>
        <time>2018-10-14T09:55:00Z</time>
      </trkpt>
      <trkpt lat="46.36064" lon="2.59186">
        <ele>218</ele>
        <time>2018-10-14T09:55:02Z</time>
      </trkpt>
      <trkpt lat="46.36056" lon="2.59185">
        <ele>218.3</ele>
        <time>2018-10-14T09:55:04Z</time>
      </trkpt>
      <trkpt lat="46.36048" lon="2.59185">
        <ele>217.4</ele>
        <time>2018-10-14T09:55:06Z</time>
      </trkpt>
      <trkpt lat="46.36041" lon="2.59184">
        <ele>217.2</ele>
        <time>2018-10-14T09:55:08Z</time>
      </trkpt>
      <trkpt lat="46.36037" lon="2.59183">
        <ele>217.2</ele>
        <time>2018-10-14T09:55:09Z</time>
      </trkpt>
      <trkpt lat="46.36025" lon="2.59182">
        <ele>217.7</ele>
        <time>2018-10-14T09:55:12Z</time>
      </trkpt>
      <trkpt lat="46.36017" lon="2.59181">
        <ele>217.5</ele>
        <time>2018-10-14T09:55:14Z</time>
      </trkpt>
      <trkpt lat="46.36009" lon="2.5918">
        <ele>217.4</ele>
        <time>2018-10-14T09:55:16Z</time>
      </trkpt>
      <trkpt lat="46.36002" lon="2.59179">
        <ele>217.2</ele>
        <time>2018-10-14T09:55:18Z</time>
      </trkpt>
      <trkpt lat="46.35994" lon="2.59178">
        <ele>217.1</ele>
        <time>2018-10-14T09:55:20Z</time>
      </trkpt>
      <trkpt lat="46.35987" lon="2.59177">
        <ele>217.2</ele>
        <time>2018-10-14T09:55:22Z</time>
      </trkpt>
      <trkpt lat="46.3598" lon="2.59176">
        <ele>217.1</ele>
        <time>2018-10-14T09:55:24Z</time>
      </trkpt>
      <trkpt lat="46.35972" lon="2.59176">
        <ele>216.8</ele>
        <time>2018-10-14T09:55:26Z</time>
      </trkpt>
      <trkpt lat="46.35965" lon="2.59175">
        <ele>217.9</ele>
        <time>2018-10-14T09:55:28Z</time>
      </trkpt>
      <trkpt lat="46.35958" lon="2.59174">
        <ele>218.4</ele>
        <time>2018-10-14T09:55:30Z</time>
      </trkpt>
      <trkpt lat="46.35951" lon="2.59174">
        <ele>217.4</ele>
        <time>2018-10-14T09:55:32Z</time>
      </trkpt>
      <trkpt lat="46.35943" lon="2.59173">
        <ele>217.1</ele>
        <time>2018-10-14T09:55:34Z</time>
      </trkpt>
      <trkpt lat="46.35935" lon="2.59173">
        <ele>217.5</ele>
        <time>2018-10-14T09:55:36Z</time>
      </trkpt>
      <trkpt lat="46.35928" lon="2.59173">
        <ele>217.9</ele>
        <time>2018-10-14T09:55:38Z</time>
      </trkpt>
      <trkpt lat="46.3592" lon="2.59172">
        <ele>218.3</ele>
        <time>2018-10-14T09:55:40Z</time>
      </trkpt>
      <trkpt lat="46.35913" lon="2.59171">
        <ele>218.2</ele>
        <time>2018-10-14T09:55:42Z</time>
      </trkpt>
      <trkpt lat="46.35905" lon="2.5917">
        <ele>217.4</ele>
        <time>2018-10-14T09:55:44Z</time>
      </trkpt>
      <trkpt lat="46.35898" lon="2.5917">
        <ele>216.9</ele>
        <time>2018-10-14T09:55:46Z</time>
      </trkpt>
      <trkpt lat="46.3589" lon="2.59169">
        <ele>217</ele>
        <time>2018-10-14T09:55:48Z</time>
      </trkpt>
      <trkpt lat="46.35882" lon="2.59168">
        <ele>217.4</ele>
        <time>2018-10-14T09:55:50Z</time>
      </trkpt>
      <trkpt lat="46.35874" lon="2.59168">
        <ele>217.7</ele>
        <time>2018-10-14T09:55:52Z</time>
      </trkpt>
      <trkpt lat="46.35866" lon="2.59169">
        <ele>218.1</ele>
        <time>2018-10-14T09:55:54Z</time>
      </trkpt>
      <trkpt lat="46.35858" lon="2.59169">
        <ele>217.3</ele>
        <time>2018-10-14T09:55:56Z</time>
      </trkpt>
      <trkpt lat="46.3585" lon="2.5917">
        <ele>216.9</ele>
        <time>2018-10-14T09:55:58Z</time>
      </trkpt>
      <trkpt lat="46.35842" lon="2.59172">
        <ele>216.5</ele>
        <time>2018-10-14T09:56:00Z</time>
      </trkpt>
      <trkpt lat="46.35835" lon="2.59173">
        <ele>216.6</ele>
        <time>2018-10-14T09:56:02Z</time>
      </trkpt>
      <trkpt lat="46.35827" lon="2.59175">
        <ele>216.9</ele>
        <time>2018-10-14T09:56:04Z</time>
      </trkpt>
      <trkpt lat="46.35819" lon="2.59177">
        <ele>216.6</ele>
        <time>2018-10-14T09:56:06Z</time>
      </trkpt>
      <trkpt lat="46.35812" lon="2.59179">
        <ele>217</ele>
        <time>2018-10-14T09:56:08Z</time>
      </trkpt>
      <trkpt lat="46.35805" lon="2.59182">
        <ele>216.8</ele>
        <time>2018-10-14T09:56:10Z</time>
      </trkpt>
      <trkpt lat="46.35801" lon="2.59183">
        <ele>216.7</ele>
        <time>2018-10-14T09:56:11Z</time>
      </trkpt>
      <trkpt lat="46.3579" lon="2.59188">
        <ele>217.4</ele>
        <time>2018-10-14T09:56:14Z</time>
      </trkpt>
      <trkpt lat="46.35783" lon="2.5919">
        <ele>217.4</ele>
        <time>2018-10-14T09:56:16Z</time>
      </trkpt>
      <trkpt lat="46.35776" lon="2.59193">
        <ele>217.2</ele>
        <time>2018-10-14T09:56:18Z</time>
      </trkpt>
      <trkpt lat="46.35769" lon="2.59195">
        <ele>217.6</ele>
        <time>2018-10-14T09:56:20Z</time>
      </trkpt>
      <trkpt lat="46.35761" lon="2.59198">
        <ele>217.5</ele>
        <time>2018-10-14T09:56:22Z</time>
      </trkpt>
      <trkpt lat="46.35754" lon="2.59201">
        <ele>217.7</ele>
        <time>2018-10-14T09:56:24Z</time>
      </trkpt>
      <trkpt lat="46.35746" lon="2.59203">
        <ele>218.2</ele>
        <time>2018-10-14T09:56:26Z</time>
      </trkpt>
      <trkpt lat="46.35738" lon="2.59203">
        <ele>218.4</ele>
        <time>2018-10-14T09:56:28Z</time>
      </trkpt>
      <trkpt lat="46.35731" lon="2.59203">
        <ele>218.3</ele>
        <time>2018-10-14T09:56:30Z</time>
      </trkpt>
      <trkpt lat="46.35724" lon="2.59201">
        <ele>218.2</ele>
        <time>2018-10-14T09:56:32Z</time>
      </trkpt>
      <trkpt lat="46.35717" lon="2.592">
        <ele>218.3</ele>
        <time>2018-10-14T09:56:34Z</time>
      </trkpt>
      <trkpt lat="46.35709" lon="2.59198">
        <ele>218.3</ele>
        <time>2018-10-14T09:56:36Z</time>
      </trkpt>
      <trkpt lat="46.35702" lon="2.59195">
        <ele>218.5</ele>
        <time>2018-10-14T09:56:38Z</time>
      </trkpt>
      <trkpt lat="46.35694" lon="2.59192">
        <ele>218.6</ele>
        <time>2018-10-14T09:56:40Z</time>
      </trkpt>
      <trkpt lat="46.35687" lon="2.5919">
        <ele>218.5</ele>
        <time>2018-10-14T09:56:42Z</time>
      </trkpt>
      <trkpt lat="46.3568" lon="2.59189">
        <ele>218.3</ele>
        <time>2018-10-14T09:56:44Z</time>
      </trkpt>
      <trkpt lat="46.35673" lon="2.59188">
        <ele>218.6</ele>
        <time>2018-10-14T09:56:46Z</time>
      </trkpt>
      <trkpt lat="46.35665" lon="2.59187">
        <ele>219.3</ele>
        <time>2018-10-14T09:56:48Z</time>
      </trkpt>
      <trkpt lat="46.35658" lon="2.59185">
        <ele>219.1</ele>
        <time>2018-10-14T09:56:50Z</time>
      </trkpt>
      <trkpt lat="46.35651" lon="2.59184">
        <ele>218.5</ele>
        <time>2018-10-14T09:56:52Z</time>
      </trkpt>
      <trkpt lat="46.35643" lon="2.59183">
        <ele>218.1</ele>
        <time>2018-10-14T09:56:54Z</time>
      </trkpt>
      <trkpt lat="46.35636" lon="2.59182">
        <ele>218.6</ele>
        <time>2018-10-14T09:56:56Z</time>
      </trkpt>
      <trkpt lat="46.35629" lon="2.59181">
        <ele>218.3</ele>
        <time>2018-10-14T09:56:58Z</time>
      </trkpt>
      <trkpt lat="46.35622" lon="2.59179">
        <ele>218.4</ele>
        <time>2018-10-14T09:57:00Z</time>
      </trkpt>
      <trkpt lat="46.35615" lon="2.59178">
        <ele>218.5</ele>
        <time>2018-10-14T09:57:02Z</time>
      </trkpt>
      <trkpt lat="46.35608" lon="2.59177">
        <ele>218.3</ele>
        <time>2018-10-14T09:57:04Z</time>
      </trkpt>
      <trkpt lat="46.35601" lon="2.59176">
        <ele>218.2</ele>
        <time>2018-10-14T09:57:06Z</time>
      </trkpt>
      <trkpt lat="46.35594" lon="2.59175">
        <ele>218.4</ele>
        <time>2018-10-14T09:57:08Z</time>
      </trkpt>
      <trkpt lat="46.35587" lon="2.59174">
        <ele>217.9</ele>
        <time>2018-10-14T09:57:10Z</time>
      </trkpt>
      <trkpt lat="46.3558" lon="2.59173">
        <ele>218.2</ele>
        <time>2018-10-14T09:57:12Z</time>
      </trkpt>
      <trkpt lat="46.35577" lon="2.59172">
        <ele>218.4</ele>
        <time>2018-10-14T09:57:13Z</time>
      </trkpt>
      <trkpt lat="46.35566" lon="2.5917">
        <ele>218.6</ele>
        <time>2018-10-14T09:57:16Z</time>
      </trkpt>
      <trkpt lat="46.35558" lon="2.5917">
        <ele>218.5</ele>
        <time>2018-10-14T09:57:18Z</time>
      </trkpt>
      <trkpt lat="46.35551" lon="2.59169">
        <ele>218.5</ele>
        <time>2018-10-14T09:57:20Z</time>
      </trkpt>
      <trkpt lat="46.35544" lon="2.59167">
        <ele>219</ele>
        <time>2018-10-14T09:57:22Z</time>
      </trkpt>
      <trkpt lat="46.35537" lon="2.59165">
        <ele>218.3</ele>
        <time>2018-10-14T09:57:24Z</time>
      </trkpt>
      <trkpt lat="46.3553" lon="2.59163">
        <ele>218.3</ele>
        <time>2018-10-14T09:57:26Z</time>
      </trkpt>
      <trkpt lat="46.35523" lon="2.59163">
        <ele>218.3</ele>
        <time>2018-10-14T09:57:28Z</time>
      </trkpt>
      <trkpt lat="46.35515" lon="2.59162">
        <ele>218.5</ele>
        <time>2018-10-14T09:57:30Z</time>
      </trkpt>
      <trkpt lat="46.35508" lon="2.59161">
        <ele>218.7</ele>
        <time>2018-10-14T09:57:32Z</time>
      </trkpt>
      <trkpt lat="46.355" lon="2.5916">
        <ele>218.8</ele>
        <time>2018-10-14T09:57:34Z</time>
      </trkpt>
      <trkpt lat="46.35493" lon="2.59158">
        <ele>218.3</ele>
        <time>2018-10-14T09:57:36Z</time>
      </trkpt>
      <trkpt lat="46.35485" lon="2.59157">
        <ele>217.8</ele>
        <time>2018-10-14T09:57:38Z</time>
      </trkpt>
      <trkpt lat="46.35478" lon="2.59157">
        <ele>217.7</ele>
        <time>2018-10-14T09:57:40Z</time>
      </trkpt>
      <trkpt lat="46.3547" lon="2.59156">
        <ele>218.1</ele>
        <time>2018-10-14T09:57:42Z</time>
      </trkpt>
      <trkpt lat="46.35463" lon="2.59155">
        <ele>218.3</ele>
        <time>2018-10-14T09:57:44Z</time>
      </trkpt>
      <trkpt lat="46.35456" lon="2.59154">
        <ele>218.2</ele>
        <time>2018-10-14T09:57:46Z</time>
      </trkpt>
      <trkpt lat="46.35449" lon="2.59154">
        <ele>218.4</ele>
        <time>2018-10-14T09:57:48Z</time>
      </trkpt>
      <trkpt lat="46.35441" lon="2.59153">
        <ele>218.9</ele>
        <time>2018-10-14T09:57:50Z</time>
      </trkpt>
      <trkpt lat="46.35434" lon="2.59151">
        <ele>217.6</ele>
        <time>2018-10-14T09:57:52Z</time>
      </trkpt>
      <trkpt lat="46.35426" lon="2.5915">
        <ele>217.2</ele>
        <time>2018-10-14T09:57:54Z</time>
      </trkpt>
      <trkpt lat="46.3542" lon="2.59152">
        <ele>217.3</ele>
        <time>2018-10-14T09:57:56Z</time>
      </trkpt>
      <trkpt lat="46.35415" lon="2.5916">
        <ele>217.4</ele>
        <time>2018-10-14T09:57:58Z</time>
      </trkpt>
      <trkpt lat="46.35415" lon="2.59171">
        <ele>217.7</ele>
        <time>2018-10-14T09:58:00Z</time>
      </trkpt>
      <trkpt lat="46.35417" lon="2.59182">
        <ele>218.3</ele>
        <time>2018-10-14T09:58:02Z</time>
      </trkpt>
      <trkpt lat="46.3542" lon="2.59194">
        <ele>218.7</ele>
        <time>2018-10-14T09:58:04Z</time>
      </trkpt>
      <trkpt lat="46.35422" lon="2.59205">
        <ele>218.8</ele>
        <time>2018-10-14T09:58:06Z</time>
      </trkpt>
      <trkpt lat="46.35425" lon="2.59215">
        <ele>219.2</ele>
        <time>2018-10-14T09:58:08Z</time>
      </trkpt>
      <trkpt lat="46.35427" lon="2.59225">
        <ele>219.6</ele>
        <time>2018-10-14T09:58:10Z</time>
      </trkpt>
      <trkpt lat="46.3543" lon="2.59235">
        <ele>219.9</ele>
        <time>2018-10-14T09:58:12Z</time>
      </trkpt>
      <trkpt lat="46.35433" lon="2.59244">
        <ele>219.2</ele>
        <time>2018-10-14T09:58:14Z</time>
      </trkpt>
      <trkpt lat="46.35434" lon="2.59249">
        <ele>219.5</ele>
        <time>2018-10-14T09:58:15Z</time>
      </trkpt>
      <trkpt lat="46.35438" lon="2.59263">
        <ele>219.9</ele>
        <time>2018-10-14T09:58:18Z</time>
      </trkpt>
      <trkpt lat="46.35441" lon="2.59272">
        <ele>220.2</ele>
        <time>2018-10-14T09:58:20Z</time>
      </trkpt>
      <trkpt lat="46.35444" lon="2.59281">
        <ele>220.4</ele>
        <time>2018-10-14T09:58:22Z</time>
      </trkpt>
      <trkpt lat="46.35447" lon="2.5929">
        <ele>220.5</ele>
        <time>2018-10-14T09:58:24Z</time>
      </trkpt>
      <trkpt lat="46.3545" lon="2.59299">
        <ele>220.9</ele>
        <time>2018-10-14T09:58:26Z</time>
      </trkpt>
      <trkpt lat="46.35453" lon="2.59308">
        <ele>221.3</ele>
        <time>2018-10-14T09:58:28Z</time>
      </trkpt>
      <trkpt lat="46.35456" lon="2.59317">
        <ele>221.7</ele>
        <time>2018-10-14T09:58:30Z</time>
      </trkpt>
      <trkpt lat="46.3546" lon="2.59326">
        <ele>221.8</ele>
        <time>2018-10-14T09:58:32Z</time>
      </trkpt>
      <trkpt lat="46.35463" lon="2.59334">
        <ele>222.3</ele>
        <time>2018-10-14T09:58:34Z</time>
      </trkpt>
      <trkpt lat="46.35465" lon="2.59343">
        <ele>222.8</ele>
        <time>2018-10-14T09:58:36Z</time>
      </trkpt>
      <trkpt lat="46.35467" lon="2.59352">
        <ele>223.8</ele>
        <time>2018-10-14T09:58:38Z</time>
      </trkpt>
      <trkpt lat="46.3547" lon="2.5936">
        <ele>224.3</ele>
        <time>2018-10-14T09:58:40Z</time>
      </trkpt>
      <trkpt lat="46.35471" lon="2.59369">
        <ele>223.9</ele>
        <time>2018-10-14T09:58:42Z</time>
      </trkpt>
      <trkpt lat="46.35473" lon="2.59378">
        <ele>224.1</ele>
        <time>2018-10-14T09:58:44Z</time>
      </trkpt>
      <trkpt lat="46.35475" lon="2.59387">
        <ele>224.6</ele>
        <time>2018-10-14T09:58:46Z</time>
      </trkpt>
      <trkpt lat="46.35476" lon="2.59396">
        <ele>225.2</ele>
        <time>2018-10-14T09:58:48Z</time>
      </trkpt>
      <trkpt lat="46.35478" lon="2.59405">
        <ele>225.7</ele>
        <time>2018-10-14T09:58:50Z</time>
      </trkpt>
      <trkpt lat="46.3548" lon="2.59414">
        <ele>225.3</ele>
        <time>2018-10-14T09:58:52Z</time>
      </trkpt>
      <trkpt lat="46.35482" lon="2.59424">
        <ele>224</ele>
        <time>2018-10-14T09:58:54Z</time>
      </trkpt>
      <trkpt lat="46.35484" lon="2.59434">
        <ele>224</ele>
        <time>2018-10-14T09:58:56Z</time>
      </trkpt>
      <trkpt lat="46.35486" lon="2.59445">
        <ele>224.5</ele>
        <time>2018-10-14T09:58:58Z</time>
      </trkpt>
      <trkpt lat="46.35487" lon="2.59452">
        <ele>224.6</ele>
        <time>2018-10-14T09:58:59Z</time>
      </trkpt>
      <trkpt lat="46.35489" lon="2.59459">
        <ele>224.5</ele>
        <time>2018-10-14T09:59:00Z</time>
      </trkpt>
      <trkpt lat="46.3549" lon="2.59466">
        <ele>224.4</ele>
        <time>2018-10-14T09:59:01Z</time>
      </trkpt>
      <trkpt lat="46.35492" lon="2.59474">
        <ele>224.3</ele>
        <time>2018-10-14T09:59:02Z</time>
      </trkpt>
      <trkpt lat="46.35493" lon="2.59482">
        <ele>223.7</ele>
        <time>2018-10-14T09:59:03Z</time>
      </trkpt>
      <trkpt lat="46.35495" lon="2.59491">
        <ele>223.2</ele>
        <time>2018-10-14T09:59:04Z</time>
      </trkpt>
      <trkpt lat="46.35496" lon="2.595">
        <ele>223</ele>
        <time>2018-10-14T09:59:05Z</time>
      </trkpt>
      <trkpt lat="46.35498" lon="2.59509">
        <ele>222.9</ele>
        <time>2018-10-14T09:59:06Z</time>
      </trkpt>
      <trkpt lat="46.355" lon="2.59519">
        <ele>222.4</ele>
        <time>2018-10-14T09:59:07Z</time>
      </trkpt>
      <trkpt lat="46.35502" lon="2.59529">
        <ele>222.1</ele>
        <time>2018-10-14T09:59:08Z</time>
      </trkpt>
      <trkpt lat="46.35504" lon="2.5954">
        <ele>221.9</ele>
        <time>2018-10-14T09:59:09Z</time>
      </trkpt>
      <trkpt lat="46.35506" lon="2.59551">
        <ele>221.1</ele>
        <time>2018-10-14T09:59:10Z</time>
      </trkpt>
      <trkpt lat="46.35507" lon="2.59562">
        <ele>220.5</ele>
        <time>2018-10-14T09:59:11Z</time>
      </trkpt>
      <trkpt lat="46.35507" lon="2.59574">
        <ele>220.1</ele>
        <time>2018-10-14T09:59:12Z</time>
      </trkpt>
      <trkpt lat="46.35507" lon="2.59585">
        <ele>219.7</ele>
        <time>2018-10-14T09:59:13Z</time>
      </trkpt>
      <trkpt lat="46.35508" lon="2.59596">
        <ele>219.5</ele>
        <time>2018-10-14T09:59:14Z</time>
      </trkpt>
      <trkpt lat="46.35511" lon="2.59606">
        <ele>218.8</ele>
        <time>2018-10-14T09:59:15Z</time>
      </trkpt>
      <trkpt lat="46.35515" lon="2.59615">
        <ele>218.2</ele>
        <time>2018-10-14T09:59:16Z</time>
      </trkpt>
      <trkpt lat="46.3552" lon="2.59623">
        <ele>218.2</ele>
        <time>2018-10-14T09:59:17Z</time>
      </trkpt>
      <trkpt lat="46.35525" lon="2.59631">
        <ele>218.1</ele>
        <time>2018-10-14T09:59:18Z</time>
      </trkpt>
      <trkpt lat="46.3553" lon="2.59639">
        <ele>218.3</ele>
        <time>2018-10-14T09:59:19Z</time>
      </trkpt>
      <trkpt lat="46.35534" lon="2.59648">
        <ele>218.4</ele>
        <time>2018-10-14T09:59:20Z</time>
      </trkpt>
      <trkpt lat="46.35539" lon="2.59658">
        <ele>218.4</ele>
        <time>2018-10-14T09:59:21Z</time>
      </trkpt>
      <trkpt lat="46.35543" lon="2.59668">
        <ele>218</ele>
        <time>2018-10-14T09:59:22Z</time>
      </trkpt>
      <trkpt lat="46.35544" lon="2.5968">
        <ele>217.7</ele>
        <time>2018-10-14T09:59:23Z</time>
      </trkpt>
      <trkpt lat="46.35542" lon="2.5969">
        <ele>217.4</ele>
        <time>2018-10-14T09:59:24Z</time>
      </trkpt>
      <trkpt lat="46.35537" lon="2.59697">
        <ele>217.1</ele>
        <time>2018-10-14T09:59:25Z</time>
      </trkpt>
      <trkpt lat="46.35531" lon="2.597">
        <ele>216.7</ele>
        <time>2018-10-14T09:59:26Z</time>
      </trkpt>
      <trkpt lat="46.35524" lon="2.59699">
        <ele>216.3</ele>
        <time>2018-10-14T09:59:27Z</time>
      </trkpt>
      <trkpt lat="46.35517" lon="2.59699">
        <ele>216.1</ele>
        <time>2018-10-14T09:59:28Z</time>
      </trkpt>
      <trkpt lat="46.35511" lon="2.59699">
        <ele>216.1</ele>
        <time>2018-10-14T09:59:29Z</time>
      </trkpt>
      <trkpt lat="46.35505" lon="2.59699">
        <ele>216.1</ele>
        <time>2018-10-14T09:59:30Z</time>
      </trkpt>
      <trkpt lat="46.355" lon="2.59699">
        <ele>216.2</ele>
        <time>2018-10-14T09:59:31Z</time>
      </trkpt>
      <trkpt lat="46.35494" lon="2.597">
        <ele>216.3</ele>
        <time>2018-10-14T09:59:32Z</time>
      </trkpt>
      <trkpt lat="46.35489" lon="2.597">
        <ele>216.4</ele>
        <time>2018-10-14T09:59:33Z</time>
      </trkpt>
      <trkpt lat="46.35485" lon="2.597">
        <ele>216.5</ele>
        <time>2018-10-14T09:59:34Z</time>
      </trkpt>
      <trkpt lat="46.35476" lon="2.59701">
        <ele>216.7</ele>
        <time>2018-10-14T09:59:36Z</time>
      </trkpt>
      <trkpt lat="46.35468" lon="2.59701">
        <ele>216.9</ele>
        <time>2018-10-14T09:59:38Z</time>
      </trkpt>
      <trkpt lat="46.3546" lon="2.59703">
        <ele>217</ele>
        <time>2018-10-14T09:59:42Z</time>
      </trkpt>
      <trkpt lat="46.35455" lon="2.59709">
        <ele>216.2</ele>
        <time>2018-10-14T09:59:45Z</time>
      </trkpt>
      <trkpt lat="46.35454" lon="2.5972">
        <ele>215.7</ele>
        <time>2018-10-14T09:59:47Z</time>
      </trkpt>
      <trkpt lat="46.35454" lon="2.59732">
        <ele>215.5</ele>
        <time>2018-10-14T09:59:49Z</time>
      </trkpt>
      <trkpt lat="46.35453" lon="2.59744">
        <ele>216</ele>
        <time>2018-10-14T09:59:51Z</time>
      </trkpt>
      <trkpt lat="46.35452" lon="2.59757">
        <ele>215.7</ele>
        <time>2018-10-14T09:59:53Z</time>
      </trkpt>
      <trkpt lat="46.35452" lon="2.59769">
        <ele>215.9</ele>
        <time>2018-10-14T09:59:55Z</time>
      </trkpt>
      <trkpt lat="46.3545" lon="2.59782">
        <ele>216.2</ele>
        <time>2018-10-14T09:59:57Z</time>
      </trkpt>
      <trkpt lat="46.35448" lon="2.59787">
        <ele>216.2</ele>
        <time>2018-10-14T09:59:58Z</time>
      </trkpt>
      <trkpt lat="46.35445" lon="2.59793">
        <ele>216.2</ele>
        <time>2018-10-14T09:59:59Z</time>
      </trkpt>
      <trkpt lat="46.35437" lon="2.598">
        <ele>216.4</ele>
        <time>2018-10-14T10:00:01Z</time>
      </trkpt>
      <trkpt lat="46.35429" lon="2.59802">
        <ele>216.1</ele>
        <time>2018-10-14T10:00:03Z</time>
      </trkpt>
      <trkpt lat="46.35422" lon="2.59804">
        <ele>216.2</ele>
        <time>2018-10-14T10:00:05Z</time>
      </trkpt>
      <trkpt lat="46.35414" lon="2.59805">
        <ele>216.3</ele>
        <time>2018-10-14T10:00:07Z</time>
      </trkpt>
      <trkpt lat="46.35407" lon="2.59806">
        <ele>216.3</ele>
        <time>2018-10-14T10:00:09Z</time>
      </trkpt>
      <trkpt lat="46.354" lon="2.59808">
        <ele>216.5</ele>
        <time>2018-10-14T10:00:11Z</time>
      </trkpt>
      <trkpt lat="46.35392" lon="2.59809">
        <ele>216.8</ele>
        <time>2018-10-14T10:00:13Z</time>
      </trkpt>
      <trkpt lat="46.35385" lon="2.5981">
        <ele>216.1</ele>
        <time>2018-10-14T10:00:15Z</time>
      </trkpt>
      <trkpt lat="46.35378" lon="2.59811">
        <ele>217.7</ele>
        <time>2018-10-14T10:00:17Z</time>
      </trkpt>
      <trkpt lat="46.35374" lon="2.59812">
        <ele>218.2</ele>
        <time>2018-10-14T10:00:18Z</time>
      </trkpt>
      <trkpt lat="46.35363" lon="2.59815">
        <ele>217.7</ele>
        <time>2018-10-14T10:00:21Z</time>
      </trkpt>
      <trkpt lat="46.35356" lon="2.59819">
        <ele>217.1</ele>
        <time>2018-10-14T10:00:23Z</time>
      </trkpt>
      <trkpt lat="46.3535" lon="2.59826">
        <ele>216.7</ele>
        <time>2018-10-14T10:00:25Z</time>
      </trkpt>
      <trkpt lat="46.35346" lon="2.59836">
        <ele>216.6</ele>
        <time>2018-10-14T10:00:27Z</time>
      </trkpt>
      <trkpt lat="46.35344" lon="2.59847">
        <ele>216.2</ele>
        <time>2018-10-14T10:00:29Z</time>
      </trkpt>
      <trkpt lat="46.35343" lon="2.59859">
        <ele>216.4</ele>
        <time>2018-10-14T10:00:31Z</time>
      </trkpt>
      <trkpt lat="46.35339" lon="2.59868">
        <ele>216.7</ele>
        <time>2018-10-14T10:00:33Z</time>
      </trkpt>
      <trkpt lat="46.35334" lon="2.59876">
        <ele>217</ele>
        <time>2018-10-14T10:00:35Z</time>
      </trkpt>
      <trkpt lat="46.35328" lon="2.59882">
        <ele>217.2</ele>
        <time>2018-10-14T10:00:37Z</time>
      </trkpt>
      <trkpt lat="46.35322" lon="2.59888">
        <ele>217.6</ele>
        <time>2018-10-14T10:00:39Z</time>
      </trkpt>
      <trkpt lat="46.35315" lon="2.59892">
        <ele>217.3</ele>
        <time>2018-10-14T10:00:41Z</time>
      </trkpt>
      <trkpt lat="46.35309" lon="2.59896">
        <ele>217</ele>
        <time>2018-10-14T10:00:43Z</time>
      </trkpt>
      <trkpt lat="46.35302" lon="2.599">
        <ele>216.9</ele>
        <time>2018-10-14T10:00:45Z</time>
      </trkpt>
      <trkpt lat="46.35296" lon="2.59904">
        <ele>216.8</ele>
        <time>2018-10-14T10:00:47Z</time>
      </trkpt>
      <trkpt lat="46.3529" lon="2.59909">
        <ele>216.4</ele>
        <time>2018-10-14T10:00:49Z</time>
      </trkpt>
      <trkpt lat="46.35283" lon="2.59914">
        <ele>215.9</ele>
        <time>2018-10-14T10:00:51Z</time>
      </trkpt>
      <trkpt lat="46.35277" lon="2.59919">
        <ele>216.5</ele>
        <time>2018-10-14T10:00:53Z</time>
      </trkpt>
      <trkpt lat="46.35271" lon="2.59923">
        <ele>216.5</ele>
        <time>2018-10-14T10:00:55Z</time>
      </trkpt>
      <trkpt lat="46.35265" lon="2.59927">
        <ele>216.6</ele>
        <time>2018-10-14T10:00:57Z</time>
      </trkpt>
      <trkpt lat="46.35263" lon="2.59935">
        <ele>216.3</ele>
        <time>2018-10-14T10:00:59Z</time>
      </trkpt>
      <trkpt lat="46.35263" lon="2.59945">
        <ele>216.5</ele>
        <time>2018-10-14T10:01:01Z</time>
      </trkpt>
      <trkpt lat="46.35264" lon="2.59956">
        <ele>217</ele>
        <time>2018-10-14T10:01:03Z</time>
      </trkpt>
      <trkpt lat="46.35264" lon="2.59967">
        <ele>217</ele>
        <time>2018-10-14T10:01:05Z</time>
      </trkpt>
      <trkpt lat="46.35266" lon="2.59979">
        <ele>216.4</ele>
        <time>2018-10-14T10:01:07Z</time>
      </trkpt>
      <trkpt lat="46.35267" lon="2.5999">
        <ele>216</ele>
        <time>2018-10-14T10:01:09Z</time>
      </trkpt>
      <trkpt lat="46.35267" lon="2.60002">
        <ele>216.3</ele>
        <time>2018-10-14T10:01:11Z</time>
      </trkpt>
      <trkpt lat="46.35268" lon="2.60014">
        <ele>216.5</ele>
        <time>2018-10-14T10:01:13Z</time>
      </trkpt>
      <trkpt lat="46.35269" lon="2.60025">
        <ele>216.5</ele>
        <time>2018-10-14T10:01:15Z</time>
      </trkpt>
      <trkpt lat="46.3527" lon="2.60036">
        <ele>216.6</ele>
        <time>2018-10-14T10:01:17Z</time>
      </trkpt>
      <trkpt lat="46.35271" lon="2.60047">
        <ele>216.9</ele>
        <time>2018-10-14T10:01:19Z</time>
      </trkpt>
      <trkpt lat="46.35272" lon="2.60052">
        <ele>216.7</ele>
        <time>2018-10-14T10:01:20Z</time>
      </trkpt>
      <trkpt lat="46.35273" lon="2.60069">
        <ele>216.4</ele>
        <time>2018-10-14T10:01:23Z</time>
      </trkpt>
      <trkpt lat="46.35274" lon="2.6008">
        <ele>216.5</ele>
        <time>2018-10-14T10:01:25Z</time>
      </trkpt>
      <trkpt lat="46.35274" lon="2.60092">
        <ele>216.3</ele>
        <time>2018-10-14T10:01:27Z</time>
      </trkpt>
      <trkpt lat="46.35275" lon="2.60104">
        <ele>215.9</ele>
        <time>2018-10-14T10:01:29Z</time>
      </trkpt>
      <trkpt lat="46.35275" lon="2.60116">
        <ele>216.5</ele>
        <time>2018-10-14T10:01:31Z</time>
      </trkpt>
      <trkpt lat="46.35275" lon="2.60128">
        <ele>215.6</ele>
        <time>2018-10-14T10:01:33Z</time>
      </trkpt>
      <trkpt lat="46.35276" lon="2.6014">
        <ele>215.6</ele>
        <time>2018-10-14T10:01:35Z</time>
      </trkpt>
      <trkpt lat="46.35277" lon="2.60151">
        <ele>216.1</ele>
        <time>2018-10-14T10:01:37Z</time>
      </trkpt>
      <trkpt lat="46.35277" lon="2.60162">
        <ele>216.3</ele>
        <time>2018-10-14T10:01:39Z</time>
      </trkpt>
      <trkpt lat="46.35278" lon="2.60173">
        <ele>216.4</ele>
        <time>2018-10-14T10:01:41Z</time>
      </trkpt>
      <trkpt lat="46.35278" lon="2.60184">
        <ele>217</ele>
        <time>2018-10-14T10:01:43Z</time>
      </trkpt>
      <trkpt lat="46.35279" lon="2.60194">
        <ele>216.3</ele>
        <time>2018-10-14T10:01:45Z</time>
      </trkpt>
      <trkpt lat="46.35279" lon="2.60205">
        <ele>216.5</ele>
        <time>2018-10-14T10:01:47Z</time>
      </trkpt>
      <trkpt lat="46.35279" lon="2.60217">
        <ele>216.3</ele>
        <time>2018-10-14T10:01:49Z</time>
      </trkpt>
      <trkpt lat="46.3528" lon="2.60229">
        <ele>216</ele>
        <time>2018-10-14T10:01:51Z</time>
      </trkpt>
      <trkpt lat="46.3528" lon="2.60241">
        <ele>215.9</ele>
        <time>2018-10-14T10:01:53Z</time>
      </trkpt>
      <trkpt lat="46.35281" lon="2.60253">
        <ele>215.9</ele>
        <time>2018-10-14T10:01:55Z</time>
      </trkpt>
      <trkpt lat="46.35281" lon="2.60266">
        <ele>216.2</ele>
        <time>2018-10-14T10:01:57Z</time>
      </trkpt>
      <trkpt lat="46.35282" lon="2.60278">
        <ele>215.9</ele>
        <time>2018-10-14T10:01:59Z</time>
      </trkpt>
      <trkpt lat="46.35282" lon="2.60291">
        <ele>215.6</ele>
        <time>2018-10-14T10:02:01Z</time>
      </trkpt>
      <trkpt lat="46.35283" lon="2.60304">
        <ele>215.3</ele>
        <time>2018-10-14T10:02:03Z</time>
      </trkpt>
      <trkpt lat="46.35283" lon="2.6031">
        <ele>215.1</ele>
        <time>2018-10-14T10:02:04Z</time>
      </trkpt>
      <trkpt lat="46.35283" lon="2.60317">
        <ele>215.3</ele>
        <time>2018-10-14T10:02:05Z</time>
      </trkpt>
      <trkpt lat="46.35284" lon="2.60323">
        <ele>215.4</ele>
        <time>2018-10-14T10:02:06Z</time>
      </trkpt>
      <trkpt lat="46.35284" lon="2.6033">
        <ele>215.4</ele>
        <time>2018-10-14T10:02:07Z</time>
      </trkpt>
      <trkpt lat="46.35284" lon="2.60337">
        <ele>215.5</ele>
        <time>2018-10-14T10:02:08Z</time>
      </trkpt>
      <trkpt lat="46.35285" lon="2.60343">
        <ele>215.6</ele>
        <time>2018-10-14T10:02:09Z</time>
      </trkpt>
      <trkpt lat="46.35285" lon="2.6035">
        <ele>215.2</ele>
        <time>2018-10-14T10:02:10Z</time>
      </trkpt>
      <trkpt lat="46.35285" lon="2.60357">
        <ele>214.9</ele>
        <time>2018-10-14T10:02:11Z</time>
      </trkpt>
      <trkpt lat="46.35285" lon="2.6037">
        <ele>215.3</ele>
        <time>2018-10-14T10:02:13Z</time>
      </trkpt>
      <trkpt lat="46.35286" lon="2.60382">
        <ele>215.4</ele>
        <time>2018-10-14T10:02:15Z</time>
      </trkpt>
      <trkpt lat="46.35287" lon="2.60395">
        <ele>215.6</ele>
        <time>2018-10-14T10:02:17Z</time>
      </trkpt>
      <trkpt lat="46.35287" lon="2.60407">
        <ele>216</ele>
        <time>2018-10-14T10:02:19Z</time>
      </trkpt>
      <trkpt lat="46.35287" lon="2.60419">
        <ele>215.5</ele>
        <time>2018-10-14T10:02:21Z</time>
      </trkpt>
      <trkpt lat="46.35288" lon="2.60425">
        <ele>216</ele>
        <time>2018-10-14T10:02:22Z</time>
      </trkpt>
      <trkpt lat="46.35288" lon="2.60441">
        <ele>215.4</ele>
        <time>2018-10-14T10:02:25Z</time>
      </trkpt>
      <trkpt lat="46.35289" lon="2.60452">
        <ele>215.4</ele>
        <time>2018-10-14T10:02:27Z</time>
      </trkpt>
      <trkpt lat="46.3529" lon="2.60463">
        <ele>216</ele>
        <time>2018-10-14T10:02:29Z</time>
      </trkpt>
      <trkpt lat="46.3529" lon="2.60474">
        <ele>216.4</ele>
        <time>2018-10-14T10:02:31Z</time>
      </trkpt>
      <trkpt lat="46.35291" lon="2.60486">
        <ele>216.5</ele>
        <time>2018-10-14T10:02:33Z</time>
      </trkpt>
      <trkpt lat="46.35291" lon="2.60499">
        <ele>216.7</ele>
        <time>2018-10-14T10:02:35Z</time>
      </trkpt>
      <trkpt lat="46.35291" lon="2.60511">
        <ele>217.2</ele>
        <time>2018-10-14T10:02:37Z</time>
      </trkpt>
      <trkpt lat="46.35291" lon="2.60524">
        <ele>217.3</ele>
        <time>2018-10-14T10:02:39Z</time>
      </trkpt>
      <trkpt lat="46.35291" lon="2.60531">
        <ele>217.3</ele>
        <time>2018-10-14T10:02:40Z</time>
      </trkpt>
      <trkpt lat="46.35292" lon="2.60537">
        <ele>217.5</ele>
        <time>2018-10-14T10:02:41Z</time>
      </trkpt>
      <trkpt lat="46.35292" lon="2.60544">
        <ele>217.6</ele>
        <time>2018-10-14T10:02:42Z</time>
      </trkpt>
      <trkpt lat="46.35292" lon="2.60557">
        <ele>217</ele>
        <time>2018-10-14T10:02:44Z</time>
      </trkpt>
      <trkpt lat="46.35293" lon="2.60569">
        <ele>216.6</ele>
        <time>2018-10-14T10:02:46Z</time>
      </trkpt>
      <trkpt lat="46.35294" lon="2.60581">
        <ele>216.2</ele>
        <time>2018-10-14T10:02:48Z</time>
      </trkpt>
      <trkpt lat="46.35294" lon="2.60593">
        <ele>215.8</ele>
        <time>2018-10-14T10:02:50Z</time>
      </trkpt>
      <trkpt lat="46.35295" lon="2.60604">
        <ele>215.5</ele>
        <time>2018-10-14T10:02:52Z</time>
      </trkpt>
      <trkpt lat="46.35295" lon="2.60613">
        <ele>215.5</ele>
        <time>2018-10-14T10:02:54Z</time>
      </trkpt>
      <trkpt lat="46.35296" lon="2.60622">
        <ele>215.6</ele>
        <time>2018-10-14T10:02:56Z</time>
      </trkpt>
      <trkpt lat="46.35296" lon="2.60633">
        <ele>215.8</ele>
        <time>2018-10-14T10:02:58Z</time>
      </trkpt>
      <trkpt lat="46.35297" lon="2.60644">
        <ele>215.8</ele>
        <time>2018-10-14T10:03:00Z</time>
      </trkpt>
      <trkpt lat="46.35297" lon="2.60656">
        <ele>215.7</ele>
        <time>2018-10-14T10:03:02Z</time>
      </trkpt>
      <trkpt lat="46.35298" lon="2.60667">
        <ele>215.8</ele>
        <time>2018-10-14T10:03:04Z</time>
      </trkpt>
      <trkpt lat="46.35298" lon="2.60677">
        <ele>215.3</ele>
        <time>2018-10-14T10:03:06Z</time>
      </trkpt>
      <trkpt lat="46.35299" lon="2.60689">
        <ele>215.6</ele>
        <time>2018-10-14T10:03:08Z</time>
      </trkpt>
      <trkpt lat="46.35299" lon="2.607">
        <ele>215.5</ele>
        <time>2018-10-14T10:03:10Z</time>
      </trkpt>
      <trkpt lat="46.353" lon="2.60711">
        <ele>215.7</ele>
        <time>2018-10-14T10:03:12Z</time>
      </trkpt>
      <trkpt lat="46.353" lon="2.60723">
        <ele>215.8</ele>
        <time>2018-10-14T10:03:14Z</time>
      </trkpt>
      <trkpt lat="46.35301" lon="2.60734">
        <ele>215.8</ele>
        <time>2018-10-14T10:03:16Z</time>
      </trkpt>
      <trkpt lat="46.353" lon="2.60746">
        <ele>215.2</ele>
        <time>2018-10-14T10:03:18Z</time>
      </trkpt>
      <trkpt lat="46.35299" lon="2.60757">
        <ele>215.1</ele>
        <time>2018-10-14T10:03:20Z</time>
      </trkpt>
      <trkpt lat="46.35298" lon="2.60768">
        <ele>215.9</ele>
        <time>2018-10-14T10:03:22Z</time>
      </trkpt>
      <trkpt lat="46.35299" lon="2.60774">
        <ele>216.2</ele>
        <time>2018-10-14T10:03:23Z</time>
      </trkpt>
      <trkpt lat="46.35303" lon="2.60792">
        <ele>215.9</ele>
        <time>2018-10-14T10:03:26Z</time>
      </trkpt>
      <trkpt lat="46.35305" lon="2.60805">
        <ele>215.5</ele>
        <time>2018-10-14T10:03:28Z</time>
      </trkpt>
      <trkpt lat="46.35306" lon="2.60817">
        <ele>214.9</ele>
        <time>2018-10-14T10:03:30Z</time>
      </trkpt>
      <trkpt lat="46.35306" lon="2.60829">
        <ele>215.3</ele>
        <time>2018-10-14T10:03:32Z</time>
      </trkpt>
      <trkpt lat="46.35308" lon="2.60856">
        <ele>216</ele>
        <time>2018-10-14T10:03:36Z</time>
      </trkpt>
      <trkpt lat="46.3531" lon="2.60879">
        <ele>216</ele>
        <time>2018-10-14T10:03:40Z</time>
      </trkpt>
      <trkpt lat="46.35313" lon="2.60901">
        <ele>215</ele>
        <time>2018-10-14T10:03:44Z</time>
      </trkpt>
      <trkpt lat="46.3532" lon="2.6092">
        <ele>215</ele>
        <time>2018-10-14T10:03:48Z</time>
      </trkpt>
      <trkpt lat="46.35331" lon="2.60931">
        <ele>215</ele>
        <time>2018-10-14T10:03:52Z</time>
      </trkpt>
      <trkpt lat="46.35341" lon="2.60939">
        <ele>215</ele>
        <time>2018-10-14T10:03:56Z</time>
      </trkpt>
      <trkpt lat="46.35344" lon="2.60952">
        <ele>218.3</ele>
        <time>2018-10-14T10:04:06Z</time>
      </trkpt>
      <trkpt lat="46.35345" lon="2.60964">
        <ele>218.1</ele>
        <time>2018-10-14T10:04:10Z</time>
      </trkpt>
      <trkpt lat="46.35345" lon="2.60974">
        <ele>218.1</ele>
        <time>2018-10-14T10:04:13Z</time>
      </trkpt>
      <trkpt lat="46.35346" lon="2.60986">
        <ele>217.9</ele>
        <time>2018-10-14T10:04:18Z</time>
      </trkpt>
      <trkpt lat="46.35347" lon="2.60999">
        <ele>217.8</ele>
        <time>2018-10-14T10:04:24Z</time>
      </trkpt>
      <trkpt lat="46.35347" lon="2.61002">
        <ele>218.1</ele>
        <time>2018-10-14T10:04:25Z</time>
      </trkpt>
      <trkpt lat="46.35347" lon="2.61021">
        <ele>218.2</ele>
        <time>2018-10-14T10:04:30Z</time>
      </trkpt>
      <trkpt lat="46.35348" lon="2.61033">
        <ele>218.2</ele>
        <time>2018-10-14T10:04:43Z</time>
      </trkpt>
      <trkpt lat="46.35346" lon="2.61045">
        <ele>218</ele>
        <time>2018-10-14T10:04:47Z</time>
      </trkpt>
      <trkpt lat="46.35343" lon="2.61057">
        <ele>218.6</ele>
        <time>2018-10-14T10:04:55Z</time>
      </trkpt>
      <trkpt lat="46.35339" lon="2.61069">
        <ele>220.7</ele>
        <time>2018-10-14T10:05:06Z</time>
      </trkpt>
      <trkpt lat="46.35336" lon="2.61079">
        <ele>221.9</ele>
        <time>2018-10-14T10:05:15Z</time>
      </trkpt>
      <trkpt lat="46.35332" lon="2.6109">
        <ele>223.4</ele>
        <time>2018-10-14T10:05:24Z</time>
      </trkpt>
      <trkpt lat="46.35328" lon="2.61101">
        <ele>226.4</ele>
        <time>2018-10-14T10:05:34Z</time>
      </trkpt>
      <trkpt lat="46.35327" lon="2.61102">
        <ele>226.4</ele>
        <time>2018-10-14T10:05:35Z</time>
      </trkpt>
      <trkpt lat="46.3532" lon="2.61122">
        <ele>228</ele>
        <time>2018-10-14T10:05:51Z</time>
      </trkpt>
      <trkpt lat="46.35317" lon="2.61134">
        <ele>230.6</ele>
        <time>2018-10-14T10:06:00Z</time>
      </trkpt>
      <trkpt lat="46.35313" lon="2.61145">
        <ele>231.6</ele>
        <time>2018-10-14T10:06:09Z</time>
      </trkpt>
      <trkpt lat="46.35309" lon="2.61157">
        <ele>232.5</ele>
        <time>2018-10-14T10:06:18Z</time>
      </trkpt>
      <trkpt lat="46.35306" lon="2.61168">
        <ele>232.7</ele>
        <time>2018-10-14T10:06:26Z</time>
      </trkpt>
      <trkpt lat="46.35303" lon="2.61178">
        <ele>232.5</ele>
        <time>2018-10-14T10:06:32Z</time>
      </trkpt>
      <trkpt lat="46.35299" lon="2.6119">
        <ele>232</ele>
        <time>2018-10-14T10:06:37Z</time>
      </trkpt>
      <trkpt lat="46.35299" lon="2.61192">
        <ele>232.2</ele>
        <time>2018-10-14T10:06:38Z</time>
      </trkpt>
      <trkpt lat="46.35293" lon="2.61212">
        <ele>234.3</ele>
        <time>2018-10-14T10:06:45Z</time>
      </trkpt>
      <trkpt lat="46.3529" lon="2.61224">
        <ele>234.2</ele>
        <time>2018-10-14T10:06:49Z</time>
      </trkpt>
      <trkpt lat="46.35287" lon="2.61234">
        <ele>234.2</ele>
        <time>2018-10-14T10:06:52Z</time>
      </trkpt>
      <trkpt lat="46.35283" lon="2.61243">
        <ele>234</ele>
        <time>2018-10-14T10:06:55Z</time>
      </trkpt>
      <trkpt lat="46.35281" lon="2.61254">
        <ele>233.8</ele>
        <time>2018-10-14T10:06:58Z</time>
      </trkpt>
      <trkpt lat="46.35277" lon="2.61264">
        <ele>234.8</ele>
        <time>2018-10-14T10:07:01Z</time>
      </trkpt>
      <trkpt lat="46.35274" lon="2.61274">
        <ele>235.5</ele>
        <time>2018-10-14T10:07:04Z</time>
      </trkpt>
      <trkpt lat="46.35271" lon="2.61285">
        <ele>235.9</ele>
        <time>2018-10-14T10:07:07Z</time>
      </trkpt>
      <trkpt lat="46.35267" lon="2.61295">
        <ele>236.7</ele>
        <time>2018-10-14T10:07:10Z</time>
      </trkpt>
      <trkpt lat="46.35265" lon="2.61305">
        <ele>236.7</ele>
        <time>2018-10-14T10:07:13Z</time>
      </trkpt>
      <trkpt lat="46.35261" lon="2.61317">
        <ele>236.9</ele>
        <time>2018-10-14T10:07:17Z</time>
      </trkpt>
      <trkpt lat="46.3526" lon="2.61329">
        <ele>237</ele>
        <time>2018-10-14T10:07:23Z</time>
      </trkpt>
      <trkpt lat="46.35265" lon="2.61341">
        <ele>238.6</ele>
        <time>2018-10-14T10:07:32Z</time>
      </trkpt>
      <trkpt lat="46.35271" lon="2.61349">
        <ele>236.5</ele>
        <time>2018-10-14T10:07:36Z</time>
      </trkpt>
      <trkpt lat="46.35278" lon="2.61355">
        <ele>236.6</ele>
        <time>2018-10-14T10:07:39Z</time>
      </trkpt>
      <trkpt lat="46.3528" lon="2.61359">
        <ele>236.5</ele>
        <time>2018-10-14T10:07:40Z</time>
      </trkpt>
      <trkpt lat="46.35277" lon="2.61376">
        <ele>237.2</ele>
        <time>2018-10-14T10:07:44Z</time>
      </trkpt>
      <trkpt lat="46.35274" lon="2.61384">
        <ele>236.6</ele>
        <time>2018-10-14T10:07:46Z</time>
      </trkpt>
      <trkpt lat="46.35272" lon="2.61392">
        <ele>236.4</ele>
        <time>2018-10-14T10:07:48Z</time>
      </trkpt>
      <trkpt lat="46.35269" lon="2.614">
        <ele>236.7</ele>
        <time>2018-10-14T10:07:50Z</time>
      </trkpt>
      <trkpt lat="46.35267" lon="2.61408">
        <ele>237</ele>
        <time>2018-10-14T10:07:52Z</time>
      </trkpt>
      <trkpt lat="46.35264" lon="2.61416">
        <ele>237.2</ele>
        <time>2018-10-14T10:07:54Z</time>
      </trkpt>
      <trkpt lat="46.35262" lon="2.61424">
        <ele>237.1</ele>
        <time>2018-10-14T10:07:56Z</time>
      </trkpt>
      <trkpt lat="46.3526" lon="2.61432">
        <ele>237.8</ele>
        <time>2018-10-14T10:07:58Z</time>
      </trkpt>
      <trkpt lat="46.35257" lon="2.61441">
        <ele>237.4</ele>
        <time>2018-10-14T10:08:00Z</time>
      </trkpt>
      <trkpt lat="46.35255" lon="2.61449">
        <ele>238.8</ele>
        <time>2018-10-14T10:08:02Z</time>
      </trkpt>
      <trkpt lat="46.35252" lon="2.61458">
        <ele>239</ele>
        <time>2018-10-14T10:08:04Z</time>
      </trkpt>
      <trkpt lat="46.35249" lon="2.61466">
        <ele>238.9</ele>
        <time>2018-10-14T10:08:06Z</time>
      </trkpt>
      <trkpt lat="46.35247" lon="2.61475">
        <ele>238.6</ele>
        <time>2018-10-14T10:08:08Z</time>
      </trkpt>
      <trkpt lat="46.35244" lon="2.61484">
        <ele>238.3</ele>
        <time>2018-10-14T10:08:10Z</time>
      </trkpt>
      <trkpt lat="46.35241" lon="2.61492">
        <ele>238.5</ele>
        <time>2018-10-14T10:08:12Z</time>
      </trkpt>
      <trkpt lat="46.35239" lon="2.615">
        <ele>238.2</ele>
        <time>2018-10-14T10:08:14Z</time>
      </trkpt>
      <trkpt lat="46.35236" lon="2.61508">
        <ele>238.4</ele>
        <time>2018-10-14T10:08:16Z</time>
      </trkpt>
      <trkpt lat="46.35233" lon="2.61516">
        <ele>238.6</ele>
        <time>2018-10-14T10:08:18Z</time>
      </trkpt>
      <trkpt lat="46.3523" lon="2.61524">
        <ele>238.6</ele>
        <time>2018-10-14T10:08:20Z</time>
      </trkpt>
      <trkpt lat="46.35227" lon="2.61532">
        <ele>238.6</ele>
        <time>2018-10-14T10:08:22Z</time>
      </trkpt>
      <trkpt lat="46.35224" lon="2.61541">
        <ele>238.5</ele>
        <time>2018-10-14T10:08:24Z</time>
      </trkpt>
      <trkpt lat="46.35221" lon="2.6155">
        <ele>239.5</ele>
        <time>2018-10-14T10:08:26Z</time>
      </trkpt>
      <trkpt lat="46.35219" lon="2.61559">
        <ele>239.1</ele>
        <time>2018-10-14T10:08:28Z</time>
      </trkpt>
      <trkpt lat="46.35216" lon="2.61567">
        <ele>238.8</ele>
        <time>2018-10-14T10:08:30Z</time>
      </trkpt>
      <trkpt lat="46.35213" lon="2.61576">
        <ele>238.7</ele>
        <time>2018-10-14T10:08:32Z</time>
      </trkpt>
      <trkpt lat="46.35211" lon="2.61585">
        <ele>238.9</ele>
        <time>2018-10-14T10:08:34Z</time>
      </trkpt>
      <trkpt lat="46.35208" lon="2.61594">
        <ele>239.1</ele>
        <time>2018-10-14T10:08:36Z</time>
      </trkpt>
      <trkpt lat="46.35205" lon="2.61602">
        <ele>239.1</ele>
        <time>2018-10-14T10:08:38Z</time>
      </trkpt>
      <trkpt lat="46.35203" lon="2.6161">
        <ele>239.9</ele>
        <time>2018-10-14T10:08:40Z</time>
      </trkpt>
      <trkpt lat="46.35202" lon="2.61614">
        <ele>240.2</ele>
        <time>2018-10-14T10:08:41Z</time>
      </trkpt>
      <trkpt lat="46.35198" lon="2.61627">
        <ele>240.3</ele>
        <time>2018-10-14T10:08:44Z</time>
      </trkpt>
      <trkpt lat="46.35195" lon="2.61634">
        <ele>240.3</ele>
        <time>2018-10-14T10:08:46Z</time>
      </trkpt>
      <trkpt lat="46.35191" lon="2.61642">
        <ele>240.5</ele>
        <time>2018-10-14T10:08:48Z</time>
      </trkpt>
      <trkpt lat="46.35189" lon="2.6165">
        <ele>241.1</ele>
        <time>2018-10-14T10:08:50Z</time>
      </trkpt>
      <trkpt lat="46.3519" lon="2.61659">
        <ele>241.7</ele>
        <time>2018-10-14T10:08:52Z</time>
      </trkpt>
      <trkpt lat="46.35192" lon="2.61669">
        <ele>242</ele>
        <time>2018-10-14T10:08:54Z</time>
      </trkpt>
      <trkpt lat="46.35195" lon="2.61678">
        <ele>242</ele>
        <time>2018-10-14T10:08:56Z</time>
      </trkpt>
      <trkpt lat="46.35197" lon="2.61688">
        <ele>241.4</ele>
        <time>2018-10-14T10:08:58Z</time>
      </trkpt>
      <trkpt lat="46.352" lon="2.61698">
        <ele>240.8</ele>
        <time>2018-10-14T10:09:00Z</time>
      </trkpt>
      <trkpt lat="46.35202" lon="2.61707">
        <ele>240.5</ele>
        <time>2018-10-14T10:09:02Z</time>
      </trkpt>
      <trkpt lat="46.35205" lon="2.61717">
        <ele>240.9</ele>
        <time>2018-10-14T10:09:04Z</time>
      </trkpt>
      <trkpt lat="46.35209" lon="2.61726">
        <ele>240.8</ele>
        <time>2018-10-14T10:09:06Z</time>
      </trkpt>
      <trkpt lat="46.35212" lon="2.61735">
        <ele>240.6</ele>
        <time>2018-10-14T10:09:08Z</time>
      </trkpt>
      <trkpt lat="46.35215" lon="2.61743">
        <ele>240.6</ele>
        <time>2018-10-14T10:09:10Z</time>
      </trkpt>
      <trkpt lat="46.35217" lon="2.6175">
        <ele>240.6</ele>
        <time>2018-10-14T10:09:12Z</time>
      </trkpt>
      <trkpt lat="46.3522" lon="2.61759">
        <ele>240.5</ele>
        <time>2018-10-14T10:09:14Z</time>
      </trkpt>
      <trkpt lat="46.35223" lon="2.61767">
        <ele>240.7</ele>
        <time>2018-10-14T10:09:16Z</time>
      </trkpt>
      <trkpt lat="46.35226" lon="2.61776">
        <ele>241.2</ele>
        <time>2018-10-14T10:09:18Z</time>
      </trkpt>
      <trkpt lat="46.35229" lon="2.61785">
        <ele>241.2</ele>
        <time>2018-10-14T10:09:20Z</time>
      </trkpt>
      <trkpt lat="46.35233" lon="2.61792">
        <ele>240.7</ele>
        <time>2018-10-14T10:09:22Z</time>
      </trkpt>
      <trkpt lat="46.35238" lon="2.618">
        <ele>240.5</ele>
        <time>2018-10-14T10:09:24Z</time>
      </trkpt>
      <trkpt lat="46.35242" lon="2.61807">
        <ele>240.5</ele>
        <time>2018-10-14T10:09:26Z</time>
      </trkpt>
      <trkpt lat="46.35244" lon="2.61816">
        <ele>241.9</ele>
        <time>2018-10-14T10:09:28Z</time>
      </trkpt>
      <trkpt lat="46.35247" lon="2.61825">
        <ele>242.5</ele>
        <time>2018-10-14T10:09:30Z</time>
      </trkpt>
      <trkpt lat="46.35251" lon="2.61833">
        <ele>242.4</ele>
        <time>2018-10-14T10:09:32Z</time>
      </trkpt>
      <trkpt lat="46.35255" lon="2.6184">
        <ele>242.2</ele>
        <time>2018-10-14T10:09:34Z</time>
      </trkpt>
      <trkpt lat="46.35261" lon="2.61847">
        <ele>242.1</ele>
        <time>2018-10-14T10:09:36Z</time>
      </trkpt>
      <trkpt lat="46.35266" lon="2.61853">
        <ele>242</ele>
        <time>2018-10-14T10:09:38Z</time>
      </trkpt>
      <trkpt lat="46.35271" lon="2.61859">
        <ele>242.1</ele>
        <time>2018-10-14T10:09:40Z</time>
      </trkpt>
      <trkpt lat="46.35277" lon="2.61866">
        <ele>241.9</ele>
        <time>2018-10-14T10:09:42Z</time>
      </trkpt>
      <trkpt lat="46.3528" lon="2.61869">
        <ele>242.1</ele>
        <time>2018-10-14T10:09:43Z</time>
      </trkpt>
      <trkpt lat="46.35288" lon="2.61878">
        <ele>242.7</ele>
        <time>2018-10-14T10:09:46Z</time>
      </trkpt>
      <trkpt lat="46.35293" lon="2.61884">
        <ele>243.3</ele>
        <time>2018-10-14T10:09:48Z</time>
      </trkpt>
      <trkpt lat="46.35298" lon="2.6189">
        <ele>244.2</ele>
        <time>2018-10-14T10:09:50Z</time>
      </trkpt>
      <trkpt lat="46.35303" lon="2.61896">
        <ele>245</ele>
        <time>2018-10-14T10:09:52Z</time>
      </trkpt>
      <trkpt lat="46.35308" lon="2.61901">
        <ele>244.7</ele>
        <time>2018-10-14T10:09:54Z</time>
      </trkpt>
      <trkpt lat="46.35314" lon="2.61905">
        <ele>245.3</ele>
        <time>2018-10-14T10:09:56Z</time>
      </trkpt>
      <trkpt lat="46.35319" lon="2.61909">
        <ele>246</ele>
        <time>2018-10-14T10:09:58Z</time>
      </trkpt>
      <trkpt lat="46.35325" lon="2.61913">
        <ele>247.2</ele>
        <time>2018-10-14T10:10:00Z</time>
      </trkpt>
      <trkpt lat="46.3533" lon="2.61917">
        <ele>247.4</ele>
        <time>2018-10-14T10:10:02Z</time>
      </trkpt>
      <trkpt lat="46.35338" lon="2.61922">
        <ele>247.1</ele>
        <time>2018-10-14T10:10:05Z</time>
      </trkpt>
      <trkpt lat="46.35346" lon="2.61927">
        <ele>247.7</ele>
        <time>2018-10-14T10:10:08Z</time>
      </trkpt>
      <trkpt lat="46.35353" lon="2.61931">
        <ele>248.9</ele>
        <time>2018-10-14T10:10:11Z</time>
      </trkpt>
      <trkpt lat="46.3536" lon="2.61937">
        <ele>249.6</ele>
        <time>2018-10-14T10:10:14Z</time>
      </trkpt>
      <trkpt lat="46.35368" lon="2.61941">
        <ele>250</ele>
        <time>2018-10-14T10:10:17Z</time>
      </trkpt>
      <trkpt lat="46.35376" lon="2.61946">
        <ele>250.4</ele>
        <time>2018-10-14T10:10:20Z</time>
      </trkpt>
      <trkpt lat="46.35383" lon="2.61952">
        <ele>250.8</ele>
        <time>2018-10-14T10:10:23Z</time>
      </trkpt>
      <trkpt lat="46.35391" lon="2.61957">
        <ele>252.2</ele>
        <time>2018-10-14T10:10:26Z</time>
      </trkpt>
      <trkpt lat="46.35399" lon="2.61962">
        <ele>253.8</ele>
        <time>2018-10-14T10:10:29Z</time>
      </trkpt>
      <trkpt lat="46.35406" lon="2.61968">
        <ele>255.1</ele>
        <time>2018-10-14T10:10:32Z</time>
      </trkpt>
      <trkpt lat="46.35414" lon="2.61974">
        <ele>254.7</ele>
        <time>2018-10-14T10:10:35Z</time>
      </trkpt>
      <trkpt lat="46.35422" lon="2.61979">
        <ele>254.1</ele>
        <time>2018-10-14T10:10:38Z</time>
      </trkpt>
      <trkpt lat="46.3543" lon="2.61985">
        <ele>253.4</ele>
        <time>2018-10-14T10:10:41Z</time>
      </trkpt>
      <trkpt lat="46.35436" lon="2.61988">
        <ele>253.4</ele>
        <time>2018-10-14T10:10:43Z</time>
      </trkpt>
      <trkpt lat="46.35438" lon="2.6199">
        <ele>253.5</ele>
        <time>2018-10-14T10:10:44Z</time>
      </trkpt>
      <trkpt lat="46.35447" lon="2.61994">
        <ele>254.3</ele>
        <time>2018-10-14T10:10:47Z</time>
      </trkpt>
      <trkpt lat="46.35453" lon="2.61996">
        <ele>254.2</ele>
        <time>2018-10-14T10:10:49Z</time>
      </trkpt>
      <trkpt lat="46.3546" lon="2.61998">
        <ele>254.4</ele>
        <time>2018-10-14T10:10:51Z</time>
      </trkpt>
      <trkpt lat="46.35467" lon="2.61998">
        <ele>254.7</ele>
        <time>2018-10-14T10:10:53Z</time>
      </trkpt>
      <trkpt lat="46.35473" lon="2.61999">
        <ele>254.8</ele>
        <time>2018-10-14T10:10:55Z</time>
      </trkpt>
      <trkpt lat="46.3548" lon="2.62001">
        <ele>254.9</ele>
        <time>2018-10-14T10:10:57Z</time>
      </trkpt>
      <trkpt lat="46.35487" lon="2.62002">
        <ele>255.3</ele>
        <time>2018-10-14T10:10:59Z</time>
      </trkpt>
      <trkpt lat="46.35493" lon="2.62006">
        <ele>255.8</ele>
        <time>2018-10-14T10:11:01Z</time>
      </trkpt>
      <trkpt lat="46.35501" lon="2.6201">
        <ele>255.7</ele>
        <time>2018-10-14T10:11:04Z</time>
      </trkpt>
      <trkpt lat="46.35508" lon="2.62011">
        <ele>255.8</ele>
        <time>2018-10-14T10:11:06Z</time>
      </trkpt>
      <trkpt lat="46.35515" lon="2.62015">
        <ele>256.1</ele>
        <time>2018-10-14T10:11:08Z</time>
      </trkpt>
      <trkpt lat="46.35523" lon="2.6202">
        <ele>256.3</ele>
        <time>2018-10-14T10:11:10Z</time>
      </trkpt>
      <trkpt lat="46.35529" lon="2.62026">
        <ele>254.8</ele>
        <time>2018-10-14T10:11:12Z</time>
      </trkpt>
      <trkpt lat="46.35536" lon="2.62034">
        <ele>253.8</ele>
        <time>2018-10-14T10:11:15Z</time>
      </trkpt>
      <trkpt lat="46.35541" lon="2.62042">
        <ele>254</ele>
        <time>2018-10-14T10:11:20Z</time>
      </trkpt>
      <trkpt lat="46.35548" lon="2.62039">
        <ele>254.4</ele>
        <time>2018-10-14T10:11:24Z</time>
      </trkpt>
      <trkpt lat="46.35553" lon="2.62029">
        <ele>253.7</ele>
        <time>2018-10-14T10:11:27Z</time>
      </trkpt>
      <trkpt lat="46.35557" lon="2.62021">
        <ele>252.5</ele>
        <time>2018-10-14T10:11:29Z</time>
      </trkpt>
      <trkpt lat="46.35563" lon="2.62018">
        <ele>252.7</ele>
        <time>2018-10-14T10:11:31Z</time>
      </trkpt>
      <trkpt lat="46.35571" lon="2.62019">
        <ele>252.7</ele>
        <time>2018-10-14T10:11:33Z</time>
      </trkpt>
      <trkpt lat="46.35576" lon="2.6202">
        <ele>252.6</ele>
        <time>2018-10-14T10:11:34Z</time>
      </trkpt>
      <trkpt lat="46.35581" lon="2.62021">
        <ele>252.2</ele>
        <time>2018-10-14T10:11:35Z</time>
      </trkpt>
      <trkpt lat="46.35586" lon="2.62022">
        <ele>251.9</ele>
        <time>2018-10-14T10:11:36Z</time>
      </trkpt>
      <trkpt lat="46.35591" lon="2.62023">
        <ele>251.4</ele>
        <time>2018-10-14T10:11:37Z</time>
      </trkpt>
      <trkpt lat="46.35597" lon="2.62025">
        <ele>251.1</ele>
        <time>2018-10-14T10:11:38Z</time>
      </trkpt>
      <trkpt lat="46.35603" lon="2.62027">
        <ele>250.8</ele>
        <time>2018-10-14T10:11:39Z</time>
      </trkpt>
      <trkpt lat="46.3561" lon="2.62028">
        <ele>250.7</ele>
        <time>2018-10-14T10:11:40Z</time>
      </trkpt>
      <trkpt lat="46.35617" lon="2.62029">
        <ele>250.7</ele>
        <time>2018-10-14T10:11:41Z</time>
      </trkpt>
      <trkpt lat="46.35625" lon="2.62031">
        <ele>250.5</ele>
        <time>2018-10-14T10:11:42Z</time>
      </trkpt>
      <trkpt lat="46.35633" lon="2.62032">
        <ele>250.3</ele>
        <time>2018-10-14T10:11:43Z</time>
      </trkpt>
      <trkpt lat="46.35641" lon="2.62034">
        <ele>249.6</ele>
        <time>2018-10-14T10:11:44Z</time>
      </trkpt>
      <trkpt lat="46.35649" lon="2.62037">
        <ele>249</ele>
        <time>2018-10-14T10:11:45Z</time>
      </trkpt>
      <trkpt lat="46.35657" lon="2.62042">
        <ele>248.6</ele>
        <time>2018-10-14T10:11:46Z</time>
      </trkpt>
      <trkpt lat="46.35665" lon="2.62048">
        <ele>248.4</ele>
        <time>2018-10-14T10:11:47Z</time>
      </trkpt>
      <trkpt lat="46.35674" lon="2.62056">
        <ele>248.3</ele>
        <time>2018-10-14T10:11:48Z</time>
      </trkpt>
      <trkpt lat="46.35682" lon="2.62065">
        <ele>247.6</ele>
        <time>2018-10-14T10:11:49Z</time>
      </trkpt>
      <trkpt lat="46.3569" lon="2.62074">
        <ele>247.1</ele>
        <time>2018-10-14T10:11:50Z</time>
      </trkpt>
      <trkpt lat="46.35698" lon="2.62084">
        <ele>245.7</ele>
        <time>2018-10-14T10:11:51Z</time>
      </trkpt>
      <trkpt lat="46.35706" lon="2.62094">
        <ele>244.6</ele>
        <time>2018-10-14T10:11:52Z</time>
      </trkpt>
      <trkpt lat="46.35714" lon="2.62103">
        <ele>243.8</ele>
        <time>2018-10-14T10:11:53Z</time>
      </trkpt>
      <trkpt lat="46.35724" lon="2.62109">
        <ele>243.2</ele>
        <time>2018-10-14T10:11:54Z</time>
      </trkpt>
      <trkpt lat="46.35734" lon="2.62111">
        <ele>242.8</ele>
        <time>2018-10-14T10:11:55Z</time>
      </trkpt>
      <trkpt lat="46.35744" lon="2.62111">
        <ele>242.3</ele>
        <time>2018-10-14T10:11:56Z</time>
      </trkpt>
      <trkpt lat="46.35754" lon="2.6211">
        <ele>242</ele>
        <time>2018-10-14T10:11:57Z</time>
      </trkpt>
      <trkpt lat="46.35763" lon="2.62108">
        <ele>241.7</ele>
        <time>2018-10-14T10:11:58Z</time>
      </trkpt>
      <trkpt lat="46.35772" lon="2.62104">
        <ele>241.7</ele>
        <time>2018-10-14T10:11:59Z</time>
      </trkpt>
      <trkpt lat="46.35779" lon="2.62098">
        <ele>241.6</ele>
        <time>2018-10-14T10:12:00Z</time>
      </trkpt>
      <trkpt lat="46.35786" lon="2.62091">
        <ele>241.4</ele>
        <time>2018-10-14T10:12:01Z</time>
      </trkpt>
      <trkpt lat="46.35792" lon="2.62083">
        <ele>241.3</ele>
        <time>2018-10-14T10:12:02Z</time>
      </trkpt>
      <trkpt lat="46.35796" lon="2.62074">
        <ele>240.7</ele>
        <time>2018-10-14T10:12:03Z</time>
      </trkpt>
      <trkpt lat="46.358" lon="2.62065">
        <ele>240.3</ele>
        <time>2018-10-14T10:12:04Z</time>
      </trkpt>
      <trkpt lat="46.35804" lon="2.62056">
        <ele>240</ele>
        <time>2018-10-14T10:12:05Z</time>
      </trkpt>
      <trkpt lat="46.35808" lon="2.62047">
        <ele>239.7</ele>
        <time>2018-10-14T10:12:06Z</time>
      </trkpt>
      <trkpt lat="46.35811" lon="2.62039">
        <ele>239.5</ele>
        <time>2018-10-14T10:12:07Z</time>
      </trkpt>
      <trkpt lat="46.35814" lon="2.62031">
        <ele>240</ele>
        <time>2018-10-14T10:12:08Z</time>
      </trkpt>
      <trkpt lat="46.35817" lon="2.62023">
        <ele>240.4</ele>
        <time>2018-10-14T10:12:09Z</time>
      </trkpt>
      <trkpt lat="46.3582" lon="2.62016">
        <ele>240.8</ele>
        <time>2018-10-14T10:12:10Z</time>
      </trkpt>
      <trkpt lat="46.35824" lon="2.6201">
        <ele>241</ele>
        <time>2018-10-14T10:12:11Z</time>
      </trkpt>
      <trkpt lat="46.35828" lon="2.62006">
        <ele>241.2</ele>
        <time>2018-10-14T10:12:12Z</time>
      </trkpt>
      <trkpt lat="46.35835" lon="2.62">
        <ele>240.8</ele>
        <time>2018-10-14T10:12:14Z</time>
      </trkpt>
      <trkpt lat="46.35842" lon="2.61994">
        <ele>241.1</ele>
        <time>2018-10-14T10:12:17Z</time>
      </trkpt>
      <trkpt lat="46.35851" lon="2.61994">
        <ele>242.2</ele>
        <time>2018-10-14T10:12:21Z</time>
      </trkpt>
      <trkpt lat="46.35859" lon="2.61998">
        <ele>246</ele>
        <time>2018-10-14T10:12:31Z</time>
      </trkpt>
      <trkpt lat="46.35867" lon="2.62002">
        <ele>247.8</ele>
        <time>2018-10-14T10:12:41Z</time>
      </trkpt>
      <trkpt lat="46.3587" lon="2.62014">
        <ele>251.2</ele>
        <time>2018-10-14T10:12:56Z</time>
      </trkpt>
      <trkpt lat="46.35869" lon="2.62015">
        <ele>251</ele>
        <time>2018-10-14T10:12:57Z</time>
      </trkpt>
      <trkpt lat="46.35861" lon="2.62034">
        <ele>251.4</ele>
        <time>2018-10-14T10:13:05Z</time>
      </trkpt>
      <trkpt lat="46.35857" lon="2.62043">
        <ele>251.6</ele>
        <time>2018-10-14T10:13:09Z</time>
      </trkpt>
      <trkpt lat="46.35854" lon="2.62053">
        <ele>251.8</ele>
        <time>2018-10-14T10:13:13Z</time>
      </trkpt>
      <trkpt lat="46.35851" lon="2.62064">
        <ele>252.8</ele>
        <time>2018-10-14T10:13:17Z</time>
      </trkpt>
      <trkpt lat="46.35848" lon="2.62074">
        <ele>253.4</ele>
        <time>2018-10-14T10:13:20Z</time>
      </trkpt>
      <trkpt lat="46.35845" lon="2.62086">
        <ele>253.9</ele>
        <time>2018-10-14T10:13:24Z</time>
      </trkpt>
      <trkpt lat="46.35842" lon="2.62096">
        <ele>253.5</ele>
        <time>2018-10-14T10:13:28Z</time>
      </trkpt>
      <trkpt lat="46.35839" lon="2.62105">
        <ele>254.2</ele>
        <time>2018-10-14T10:13:31Z</time>
      </trkpt>
      <trkpt lat="46.35836" lon="2.62115">
        <ele>254.6</ele>
        <time>2018-10-14T10:13:34Z</time>
      </trkpt>
      <trkpt lat="46.35832" lon="2.62123">
        <ele>254.8</ele>
        <time>2018-10-14T10:13:37Z</time>
      </trkpt>
      <trkpt lat="46.35827" lon="2.62134">
        <ele>254.3</ele>
        <time>2018-10-14T10:13:40Z</time>
      </trkpt>
      <trkpt lat="46.35822" lon="2.62144">
        <ele>254.3</ele>
        <time>2018-10-14T10:13:43Z</time>
      </trkpt>
      <trkpt lat="46.35821" lon="2.62155">
        <ele>255.2</ele>
        <time>2018-10-14T10:13:46Z</time>
      </trkpt>
      <trkpt lat="46.35822" lon="2.62165">
        <ele>255.9</ele>
        <time>2018-10-14T10:13:50Z</time>
      </trkpt>
      <trkpt lat="46.3582" lon="2.62175">
        <ele>256.5</ele>
        <time>2018-10-14T10:13:53Z</time>
      </trkpt>
      <trkpt lat="46.35817" lon="2.62187">
        <ele>257.3</ele>
        <time>2018-10-14T10:13:57Z</time>
      </trkpt>
      <trkpt lat="46.35816" lon="2.6219">
        <ele>257.5</ele>
        <time>2018-10-14T10:13:58Z</time>
      </trkpt>
      <trkpt lat="46.35813" lon="2.62206">
        <ele>258.1</ele>
        <time>2018-10-14T10:14:03Z</time>
      </trkpt>
      <trkpt lat="46.3581" lon="2.62217">
        <ele>258.8</ele>
        <time>2018-10-14T10:14:06Z</time>
      </trkpt>
      <trkpt lat="46.35808" lon="2.62227">
        <ele>258.6</ele>
        <time>2018-10-14T10:14:09Z</time>
      </trkpt>
      <trkpt lat="46.35806" lon="2.62238">
        <ele>259</ele>
        <time>2018-10-14T10:14:12Z</time>
      </trkpt>
      <trkpt lat="46.35804" lon="2.62247">
        <ele>258.9</ele>
        <time>2018-10-14T10:14:14Z</time>
      </trkpt>
      <trkpt lat="46.35802" lon="2.62255">
        <ele>258.8</ele>
        <time>2018-10-14T10:14:16Z</time>
      </trkpt>
      <trkpt lat="46.35799" lon="2.62267">
        <ele>259</ele>
        <time>2018-10-14T10:14:19Z</time>
      </trkpt>
      <trkpt lat="46.35795" lon="2.62278">
        <ele>259.8</ele>
        <time>2018-10-14T10:14:22Z</time>
      </trkpt>
      <trkpt lat="46.35792" lon="2.62287">
        <ele>261.5</ele>
        <time>2018-10-14T10:14:25Z</time>
      </trkpt>
      <trkpt lat="46.35788" lon="2.62296">
        <ele>261.4</ele>
        <time>2018-10-14T10:14:29Z</time>
      </trkpt>
      <trkpt lat="46.35787" lon="2.62306">
        <ele>261.6</ele>
        <time>2018-10-14T10:14:32Z</time>
      </trkpt>
      <trkpt lat="46.35792" lon="2.62313">
        <ele>260.4</ele>
        <time>2018-10-14T10:14:34Z</time>
      </trkpt>
      <trkpt lat="46.358" lon="2.62319">
        <ele>260.9</ele>
        <time>2018-10-14T10:14:37Z</time>
      </trkpt>
      <trkpt lat="46.35806" lon="2.62324">
        <ele>261.7</ele>
        <time>2018-10-14T10:14:40Z</time>
      </trkpt>
      <trkpt lat="46.35812" lon="2.62328">
        <ele>262.9</ele>
        <time>2018-10-14T10:14:43Z</time>
      </trkpt>
      <trkpt lat="46.3582" lon="2.62332">
        <ele>264.5</ele>
        <time>2018-10-14T10:14:46Z</time>
      </trkpt>
      <trkpt lat="46.35826" lon="2.62337">
        <ele>265.3</ele>
        <time>2018-10-14T10:14:49Z</time>
      </trkpt>
      <trkpt lat="46.35834" lon="2.62342">
        <ele>266</ele>
        <time>2018-10-14T10:14:52Z</time>
      </trkpt>
      <trkpt lat="46.35841" lon="2.62347">
        <ele>266.2</ele>
        <time>2018-10-14T10:14:55Z</time>
      </trkpt>
      <trkpt lat="46.35848" lon="2.62352">
        <ele>267.8</ele>
        <time>2018-10-14T10:14:59Z</time>
      </trkpt>
      <trkpt lat="46.3585" lon="2.62353">
        <ele>268</ele>
        <time>2018-10-14T10:15:00Z</time>
      </trkpt>
      <trkpt lat="46.35834" lon="2.62358">
        <ele>267.8</ele>
        <time>2018-10-14T10:15:17Z</time>
      </trkpt>
      <trkpt lat="46.35829" lon="2.62369">
        <ele>266.5</ele>
        <time>2018-10-14T10:18:18Z</time>
      </trkpt>
      <trkpt lat="46.35829" lon="2.62369">
        <ele>266.5</ele>
        <time>2018-10-14T10:18:19Z</time>
      </trkpt>
      <trkpt lat="46.35824" lon="2.62372">
        <ele>266.1</ele>
        <time>2018-10-14T10:19:29Z</time>
      </trkpt>
    </trkseg>
  </trk>
</gpx>